<?xml version="1.0" encoding="UTF-8" standalone="no" ?>
<gpx xmlns="http://www.topografix.com/GPX/1/1" xmlns:xsi="http://www.w3.org/2001/XMLSchema-instance" xsi:schemaLocation="http://www.topografix.com/GPX/1/1 http://www.topografix.com/GPX/1/1/gpx.xsd" version="1.1" creator="VisuGPX - https://www.visugpx.com">
  <metadata>
    <name>SO-E-St Léger St Pazanne Machecoul St Hubert St Philbert La Chevrolière Pont St Martin</name>
    <desc><![CDATA[SO-E-St Léger St Pazanne Machecoul St Hubert St Philbert La Chevrolière Pont St Martin]]></desc>
  </metadata>
  <trk>
    <name><![CDATA[2021-09-18 11:14 +02:00]]></name>
    <trkseg>
      <trkpt lat="47.16777" lon="-1.62661">
        <ele>78</ele>
        <time>2021-09-18T09:14:14.000Z</time>
      </trkpt>
      <trkpt lat="47.16776" lon="-1.62675">
        <ele>71</ele>
        <time>2021-09-18T09:15:42.000Z</time>
      </trkpt>
      <trkpt lat="47.16767" lon="-1.6268">
        <ele>70</ele>
        <time>2021-09-18T09:15:44.000Z</time>
      </trkpt>
      <trkpt lat="47.16757" lon="-1.62675">
        <ele>70</ele>
        <time>2021-09-18T09:15:46.000Z</time>
      </trkpt>
      <trkpt lat="47.16747" lon="-1.62675">
        <ele>70</ele>
        <time>2021-09-18T09:15:48.000Z</time>
      </trkpt>
      <trkpt lat="47.16737" lon="-1.62682">
        <ele>70</ele>
        <time>2021-09-18T09:15:50.000Z</time>
      </trkpt>
      <trkpt lat="47.16726" lon="-1.62689">
        <ele>70</ele>
        <time>2021-09-18T09:15:52.000Z</time>
      </trkpt>
      <trkpt lat="47.16717" lon="-1.62698">
        <ele>70</ele>
        <time>2021-09-18T09:15:54.000Z</time>
      </trkpt>
      <trkpt lat="47.1672" lon="-1.62714">
        <ele>69</ele>
        <time>2021-09-18T09:15:56.000Z</time>
      </trkpt>
      <trkpt lat="47.16727" lon="-1.62728">
        <ele>69</ele>
        <time>2021-09-18T09:15:58.000Z</time>
      </trkpt>
      <trkpt lat="47.16735" lon="-1.62741">
        <ele>69</ele>
        <time>2021-09-18T09:16:00.000Z</time>
      </trkpt>
      <trkpt lat="47.16743" lon="-1.62754">
        <ele>69</ele>
        <time>2021-09-18T09:16:02.000Z</time>
      </trkpt>
      <trkpt lat="47.16753" lon="-1.62765">
        <ele>69</ele>
        <time>2021-09-18T09:16:04.000Z</time>
      </trkpt>
      <trkpt lat="47.16764" lon="-1.62776">
        <ele>69</ele>
        <time>2021-09-18T09:16:06.000Z</time>
      </trkpt>
      <trkpt lat="47.16776" lon="-1.62787">
        <ele>68</ele>
        <time>2021-09-18T09:16:08.000Z</time>
      </trkpt>
      <trkpt lat="47.16788" lon="-1.62798">
        <ele>68</ele>
        <time>2021-09-18T09:16:10.000Z</time>
      </trkpt>
      <trkpt lat="47.16799" lon="-1.62807">
        <ele>69</ele>
        <time>2021-09-18T09:16:12.000Z</time>
      </trkpt>
      <trkpt lat="47.1681" lon="-1.62817">
        <ele>70</ele>
        <time>2021-09-18T09:16:14.000Z</time>
      </trkpt>
      <trkpt lat="47.1682" lon="-1.62827">
        <ele>70</ele>
        <time>2021-09-18T09:16:16.000Z</time>
      </trkpt>
      <trkpt lat="47.16831" lon="-1.62837">
        <ele>71</ele>
        <time>2021-09-18T09:16:18.000Z</time>
      </trkpt>
      <trkpt lat="47.16841" lon="-1.62847">
        <ele>71</ele>
        <time>2021-09-18T09:16:20.000Z</time>
      </trkpt>
      <trkpt lat="47.16851" lon="-1.62857">
        <ele>72</ele>
        <time>2021-09-18T09:16:22.000Z</time>
      </trkpt>
      <trkpt lat="47.1686" lon="-1.62867">
        <ele>73</ele>
        <time>2021-09-18T09:16:24.000Z</time>
      </trkpt>
      <trkpt lat="47.1687" lon="-1.62878">
        <ele>73</ele>
        <time>2021-09-18T09:16:26.000Z</time>
      </trkpt>
      <trkpt lat="47.16878" lon="-1.62892">
        <ele>73</ele>
        <time>2021-09-18T09:16:28.000Z</time>
      </trkpt>
      <trkpt lat="47.16884" lon="-1.62907">
        <ele>73</ele>
        <time>2021-09-18T09:16:30.000Z</time>
      </trkpt>
      <trkpt lat="47.16888" lon="-1.62924">
        <ele>73</ele>
        <time>2021-09-18T09:16:32.000Z</time>
      </trkpt>
      <trkpt lat="47.1689" lon="-1.62941">
        <ele>73</ele>
        <time>2021-09-18T09:16:34.000Z</time>
      </trkpt>
      <trkpt lat="47.16891" lon="-1.6296">
        <ele>73</ele>
        <time>2021-09-18T09:16:36.000Z</time>
      </trkpt>
      <trkpt lat="47.1689" lon="-1.62977">
        <ele>74</ele>
        <time>2021-09-18T09:16:38.000Z</time>
      </trkpt>
      <trkpt lat="47.16889" lon="-1.62995">
        <ele>74</ele>
        <time>2021-09-18T09:16:40.000Z</time>
      </trkpt>
      <trkpt lat="47.16886" lon="-1.63013">
        <ele>74</ele>
        <time>2021-09-18T09:16:42.000Z</time>
      </trkpt>
      <trkpt lat="47.16885" lon="-1.63031">
        <ele>74</ele>
        <time>2021-09-18T09:16:44.000Z</time>
      </trkpt>
      <trkpt lat="47.16886" lon="-1.63049">
        <ele>75</ele>
        <time>2021-09-18T09:16:46.000Z</time>
      </trkpt>
      <trkpt lat="47.16887" lon="-1.63067">
        <ele>75</ele>
        <time>2021-09-18T09:16:48.000Z</time>
      </trkpt>
      <trkpt lat="47.1689" lon="-1.63084">
        <ele>75</ele>
        <time>2021-09-18T09:16:50.000Z</time>
      </trkpt>
      <trkpt lat="47.16892" lon="-1.63102">
        <ele>75</ele>
        <time>2021-09-18T09:16:52.000Z</time>
      </trkpt>
      <trkpt lat="47.16896" lon="-1.63119">
        <ele>76</ele>
        <time>2021-09-18T09:16:54.000Z</time>
      </trkpt>
      <trkpt lat="47.16901" lon="-1.63136">
        <ele>76</ele>
        <time>2021-09-18T09:16:56.000Z</time>
      </trkpt>
      <trkpt lat="47.16907" lon="-1.63152">
        <ele>76</ele>
        <time>2021-09-18T09:16:58.000Z</time>
      </trkpt>
      <trkpt lat="47.16913" lon="-1.63168">
        <ele>77</ele>
        <time>2021-09-18T09:17:00.000Z</time>
      </trkpt>
      <trkpt lat="47.16919" lon="-1.63182">
        <ele>77</ele>
        <time>2021-09-18T09:17:02.000Z</time>
      </trkpt>
      <trkpt lat="47.16926" lon="-1.63195">
        <ele>77</ele>
        <time>2021-09-18T09:17:04.000Z</time>
      </trkpt>
      <trkpt lat="47.16935" lon="-1.63208">
        <ele>78</ele>
        <time>2021-09-18T09:17:06.000Z</time>
      </trkpt>
      <trkpt lat="47.16943" lon="-1.6322">
        <ele>78</ele>
        <time>2021-09-18T09:17:08.000Z</time>
      </trkpt>
      <trkpt lat="47.16951" lon="-1.63231">
        <ele>78</ele>
        <time>2021-09-18T09:17:10.000Z</time>
      </trkpt>
      <trkpt lat="47.16959" lon="-1.63241">
        <ele>78</ele>
        <time>2021-09-18T09:17:12.000Z</time>
      </trkpt>
      <trkpt lat="47.16967" lon="-1.6325">
        <ele>78</ele>
        <time>2021-09-18T09:17:15.000Z</time>
      </trkpt>
      <trkpt lat="47.16961" lon="-1.63266">
        <ele>79</ele>
        <time>2021-09-18T09:17:21.000Z</time>
      </trkpt>
      <trkpt lat="47.16954" lon="-1.63277">
        <ele>79</ele>
        <time>2021-09-18T09:17:23.000Z</time>
      </trkpt>
      <trkpt lat="47.16947" lon="-1.63291">
        <ele>79</ele>
        <time>2021-09-18T09:17:25.000Z</time>
      </trkpt>
      <trkpt lat="47.16938" lon="-1.63305">
        <ele>78</ele>
        <time>2021-09-18T09:17:27.000Z</time>
      </trkpt>
      <trkpt lat="47.1693" lon="-1.63318">
        <ele>78</ele>
        <time>2021-09-18T09:17:29.000Z</time>
      </trkpt>
      <trkpt lat="47.16921" lon="-1.63331">
        <ele>78</ele>
        <time>2021-09-18T09:17:31.000Z</time>
      </trkpt>
      <trkpt lat="47.16913" lon="-1.63344">
        <ele>78</ele>
        <time>2021-09-18T09:17:33.000Z</time>
      </trkpt>
      <trkpt lat="47.16904" lon="-1.63357">
        <ele>78</ele>
        <time>2021-09-18T09:17:35.000Z</time>
      </trkpt>
      <trkpt lat="47.16896" lon="-1.63369">
        <ele>78</ele>
        <time>2021-09-18T09:17:37.000Z</time>
      </trkpt>
      <trkpt lat="47.16887" lon="-1.63382">
        <ele>78</ele>
        <time>2021-09-18T09:17:39.000Z</time>
      </trkpt>
      <trkpt lat="47.16879" lon="-1.63396">
        <ele>78</ele>
        <time>2021-09-18T09:17:41.000Z</time>
      </trkpt>
      <trkpt lat="47.1687" lon="-1.6341">
        <ele>78</ele>
        <time>2021-09-18T09:17:43.000Z</time>
      </trkpt>
      <trkpt lat="47.16863" lon="-1.63423">
        <ele>78</ele>
        <time>2021-09-18T09:17:45.000Z</time>
      </trkpt>
      <trkpt lat="47.16855" lon="-1.63437">
        <ele>78</ele>
        <time>2021-09-18T09:17:47.000Z</time>
      </trkpt>
      <trkpt lat="47.16847" lon="-1.63451">
        <ele>78</ele>
        <time>2021-09-18T09:17:49.000Z</time>
      </trkpt>
      <trkpt lat="47.1684" lon="-1.63464">
        <ele>77</ele>
        <time>2021-09-18T09:17:51.000Z</time>
      </trkpt>
      <trkpt lat="47.16831" lon="-1.63477">
        <ele>77</ele>
        <time>2021-09-18T09:17:53.000Z</time>
      </trkpt>
      <trkpt lat="47.16823" lon="-1.63491">
        <ele>77</ele>
        <time>2021-09-18T09:17:55.000Z</time>
      </trkpt>
      <trkpt lat="47.16816" lon="-1.63505">
        <ele>77</ele>
        <time>2021-09-18T09:17:57.000Z</time>
      </trkpt>
      <trkpt lat="47.16808" lon="-1.63518">
        <ele>77</ele>
        <time>2021-09-18T09:17:59.000Z</time>
      </trkpt>
      <trkpt lat="47.16799" lon="-1.63532">
        <ele>77</ele>
        <time>2021-09-18T09:18:01.000Z</time>
      </trkpt>
      <trkpt lat="47.16791" lon="-1.63546">
        <ele>76</ele>
        <time>2021-09-18T09:18:03.000Z</time>
      </trkpt>
      <trkpt lat="47.16783" lon="-1.63561">
        <ele>76</ele>
        <time>2021-09-18T09:18:05.000Z</time>
      </trkpt>
      <trkpt lat="47.16775" lon="-1.63576">
        <ele>77</ele>
        <time>2021-09-18T09:18:07.000Z</time>
      </trkpt>
      <trkpt lat="47.16767" lon="-1.63589">
        <ele>77</ele>
        <time>2021-09-18T09:18:09.000Z</time>
      </trkpt>
      <trkpt lat="47.16758" lon="-1.63603">
        <ele>77</ele>
        <time>2021-09-18T09:18:11.000Z</time>
      </trkpt>
      <trkpt lat="47.1675" lon="-1.63618">
        <ele>78</ele>
        <time>2021-09-18T09:18:13.000Z</time>
      </trkpt>
      <trkpt lat="47.16743" lon="-1.63631">
        <ele>78</ele>
        <time>2021-09-18T09:18:15.000Z</time>
      </trkpt>
      <trkpt lat="47.16747" lon="-1.63646">
        <ele>77</ele>
        <time>2021-09-18T09:18:17.000Z</time>
      </trkpt>
      <trkpt lat="47.16759" lon="-1.6365">
        <ele>77</ele>
        <time>2021-09-18T09:18:19.000Z</time>
      </trkpt>
      <trkpt lat="47.16772" lon="-1.63654">
        <ele>77</ele>
        <time>2021-09-18T09:18:21.000Z</time>
      </trkpt>
      <trkpt lat="47.16785" lon="-1.63659">
        <ele>78</ele>
        <time>2021-09-18T09:18:23.000Z</time>
      </trkpt>
      <trkpt lat="47.16797" lon="-1.63663">
        <ele>78</ele>
        <time>2021-09-18T09:18:25.000Z</time>
      </trkpt>
      <trkpt lat="47.1681" lon="-1.63668">
        <ele>79</ele>
        <time>2021-09-18T09:18:27.000Z</time>
      </trkpt>
      <trkpt lat="47.16823" lon="-1.63673">
        <ele>78</ele>
        <time>2021-09-18T09:18:29.000Z</time>
      </trkpt>
      <trkpt lat="47.16836" lon="-1.63678">
        <ele>78</ele>
        <time>2021-09-18T09:18:31.000Z</time>
      </trkpt>
      <trkpt lat="47.16848" lon="-1.63683">
        <ele>78</ele>
        <time>2021-09-18T09:18:33.000Z</time>
      </trkpt>
      <trkpt lat="47.16861" lon="-1.63687">
        <ele>78</ele>
        <time>2021-09-18T09:18:35.000Z</time>
      </trkpt>
      <trkpt lat="47.16874" lon="-1.63692">
        <ele>78</ele>
        <time>2021-09-18T09:18:37.000Z</time>
      </trkpt>
      <trkpt lat="47.16887" lon="-1.63697">
        <ele>78</ele>
        <time>2021-09-18T09:18:39.000Z</time>
      </trkpt>
      <trkpt lat="47.169" lon="-1.63702">
        <ele>78</ele>
        <time>2021-09-18T09:18:41.000Z</time>
      </trkpt>
      <trkpt lat="47.16913" lon="-1.63708">
        <ele>78</ele>
        <time>2021-09-18T09:18:43.000Z</time>
      </trkpt>
      <trkpt lat="47.16926" lon="-1.63712">
        <ele>78</ele>
        <time>2021-09-18T09:18:45.000Z</time>
      </trkpt>
      <trkpt lat="47.16939" lon="-1.63717">
        <ele>79</ele>
        <time>2021-09-18T09:18:47.000Z</time>
      </trkpt>
      <trkpt lat="47.16952" lon="-1.63722">
        <ele>79</ele>
        <time>2021-09-18T09:18:49.000Z</time>
      </trkpt>
      <trkpt lat="47.16965" lon="-1.63727">
        <ele>80</ele>
        <time>2021-09-18T09:18:51.000Z</time>
      </trkpt>
      <trkpt lat="47.16978" lon="-1.63731">
        <ele>80</ele>
        <time>2021-09-18T09:18:53.000Z</time>
      </trkpt>
      <trkpt lat="47.16992" lon="-1.63736">
        <ele>80</ele>
        <time>2021-09-18T09:18:55.000Z</time>
      </trkpt>
      <trkpt lat="47.17005" lon="-1.6374">
        <ele>80</ele>
        <time>2021-09-18T09:18:57.000Z</time>
      </trkpt>
      <trkpt lat="47.17018" lon="-1.63745">
        <ele>80</ele>
        <time>2021-09-18T09:18:59.000Z</time>
      </trkpt>
      <trkpt lat="47.1703" lon="-1.63751">
        <ele>80</ele>
        <time>2021-09-18T09:19:01.000Z</time>
      </trkpt>
      <trkpt lat="47.17043" lon="-1.63757">
        <ele>81</ele>
        <time>2021-09-18T09:19:03.000Z</time>
      </trkpt>
      <trkpt lat="47.17055" lon="-1.63765">
        <ele>81</ele>
        <time>2021-09-18T09:19:05.000Z</time>
      </trkpt>
      <trkpt lat="47.17064" lon="-1.6378">
        <ele>81</ele>
        <time>2021-09-18T09:19:07.000Z</time>
      </trkpt>
      <trkpt lat="47.17072" lon="-1.63807">
        <ele>80</ele>
        <time>2021-09-18T09:19:10.000Z</time>
      </trkpt>
      <trkpt lat="47.17077" lon="-1.63825">
        <ele>80</ele>
        <time>2021-09-18T09:19:12.000Z</time>
      </trkpt>
      <trkpt lat="47.17086" lon="-1.6385">
        <ele>79</ele>
        <time>2021-09-18T09:19:15.000Z</time>
      </trkpt>
      <trkpt lat="47.17095" lon="-1.63875">
        <ele>79</ele>
        <time>2021-09-18T09:19:18.000Z</time>
      </trkpt>
      <trkpt lat="47.17101" lon="-1.63891">
        <ele>79</ele>
        <time>2021-09-18T09:19:20.000Z</time>
      </trkpt>
      <trkpt lat="47.1711" lon="-1.63916">
        <ele>79</ele>
        <time>2021-09-18T09:19:23.000Z</time>
      </trkpt>
      <trkpt lat="47.17115" lon="-1.6393">
        <ele>79</ele>
        <time>2021-09-18T09:19:25.000Z</time>
      </trkpt>
      <trkpt lat="47.17124" lon="-1.6394">
        <ele>79</ele>
        <time>2021-09-18T09:19:27.000Z</time>
      </trkpt>
      <trkpt lat="47.17135" lon="-1.6395">
        <ele>79</ele>
        <time>2021-09-18T09:19:30.000Z</time>
      </trkpt>
      <trkpt lat="47.17138" lon="-1.63965">
        <ele>78</ele>
        <time>2021-09-18T09:19:32.000Z</time>
      </trkpt>
      <trkpt lat="47.17138" lon="-1.63981">
        <ele>78</ele>
        <time>2021-09-18T09:19:34.000Z</time>
      </trkpt>
      <trkpt lat="47.17137" lon="-1.63998">
        <ele>78</ele>
        <time>2021-09-18T09:19:36.000Z</time>
      </trkpt>
      <trkpt lat="47.17135" lon="-1.64016">
        <ele>78</ele>
        <time>2021-09-18T09:19:38.000Z</time>
      </trkpt>
      <trkpt lat="47.17133" lon="-1.64034">
        <ele>78</ele>
        <time>2021-09-18T09:19:40.000Z</time>
      </trkpt>
      <trkpt lat="47.17131" lon="-1.6406">
        <ele>78</ele>
        <time>2021-09-18T09:19:43.000Z</time>
      </trkpt>
      <trkpt lat="47.17128" lon="-1.64079">
        <ele>78</ele>
        <time>2021-09-18T09:19:45.000Z</time>
      </trkpt>
      <trkpt lat="47.17126" lon="-1.64096">
        <ele>78</ele>
        <time>2021-09-18T09:19:47.000Z</time>
      </trkpt>
      <trkpt lat="47.17124" lon="-1.64114">
        <ele>78</ele>
        <time>2021-09-18T09:19:49.000Z</time>
      </trkpt>
      <trkpt lat="47.17122" lon="-1.64132">
        <ele>78</ele>
        <time>2021-09-18T09:19:51.000Z</time>
      </trkpt>
      <trkpt lat="47.1712" lon="-1.64151">
        <ele>79</ele>
        <time>2021-09-18T09:19:53.000Z</time>
      </trkpt>
      <trkpt lat="47.17118" lon="-1.64169">
        <ele>79</ele>
        <time>2021-09-18T09:19:55.000Z</time>
      </trkpt>
      <trkpt lat="47.17116" lon="-1.64188">
        <ele>78</ele>
        <time>2021-09-18T09:19:57.000Z</time>
      </trkpt>
      <trkpt lat="47.17114" lon="-1.64206">
        <ele>78</ele>
        <time>2021-09-18T09:19:59.000Z</time>
      </trkpt>
      <trkpt lat="47.17112" lon="-1.64224">
        <ele>78</ele>
        <time>2021-09-18T09:20:01.000Z</time>
      </trkpt>
      <trkpt lat="47.1711" lon="-1.64242">
        <ele>78</ele>
        <time>2021-09-18T09:20:03.000Z</time>
      </trkpt>
      <trkpt lat="47.17108" lon="-1.6426">
        <ele>78</ele>
        <time>2021-09-18T09:20:05.000Z</time>
      </trkpt>
      <trkpt lat="47.17106" lon="-1.64278">
        <ele>78</ele>
        <time>2021-09-18T09:20:07.000Z</time>
      </trkpt>
      <trkpt lat="47.17104" lon="-1.64297">
        <ele>78</ele>
        <time>2021-09-18T09:20:09.000Z</time>
      </trkpt>
      <trkpt lat="47.17103" lon="-1.64315">
        <ele>78</ele>
        <time>2021-09-18T09:20:11.000Z</time>
      </trkpt>
      <trkpt lat="47.17101" lon="-1.64334">
        <ele>79</ele>
        <time>2021-09-18T09:20:13.000Z</time>
      </trkpt>
      <trkpt lat="47.17099" lon="-1.64351">
        <ele>78</ele>
        <time>2021-09-18T09:20:15.000Z</time>
      </trkpt>
      <trkpt lat="47.17097" lon="-1.6437">
        <ele>79</ele>
        <time>2021-09-18T09:20:17.000Z</time>
      </trkpt>
      <trkpt lat="47.17096" lon="-1.64388">
        <ele>78</ele>
        <time>2021-09-18T09:20:19.000Z</time>
      </trkpt>
      <trkpt lat="47.17094" lon="-1.64407">
        <ele>78</ele>
        <time>2021-09-18T09:20:21.000Z</time>
      </trkpt>
      <trkpt lat="47.17093" lon="-1.64427">
        <ele>78</ele>
        <time>2021-09-18T09:20:23.000Z</time>
      </trkpt>
      <trkpt lat="47.17091" lon="-1.64446">
        <ele>78</ele>
        <time>2021-09-18T09:20:25.000Z</time>
      </trkpt>
      <trkpt lat="47.1709" lon="-1.64465">
        <ele>77</ele>
        <time>2021-09-18T09:20:27.000Z</time>
      </trkpt>
      <trkpt lat="47.17089" lon="-1.64484">
        <ele>77</ele>
        <time>2021-09-18T09:20:29.000Z</time>
      </trkpt>
      <trkpt lat="47.17089" lon="-1.64503">
        <ele>77</ele>
        <time>2021-09-18T09:20:31.000Z</time>
      </trkpt>
      <trkpt lat="47.17087" lon="-1.64522">
        <ele>77</ele>
        <time>2021-09-18T09:20:33.000Z</time>
      </trkpt>
      <trkpt lat="47.17087" lon="-1.64541">
        <ele>77</ele>
        <time>2021-09-18T09:20:35.000Z</time>
      </trkpt>
      <trkpt lat="47.17087" lon="-1.6456">
        <ele>77</ele>
        <time>2021-09-18T09:20:37.000Z</time>
      </trkpt>
      <trkpt lat="47.17086" lon="-1.6458">
        <ele>77</ele>
        <time>2021-09-18T09:20:39.000Z</time>
      </trkpt>
      <trkpt lat="47.17086" lon="-1.64598">
        <ele>77</ele>
        <time>2021-09-18T09:20:41.000Z</time>
      </trkpt>
      <trkpt lat="47.17086" lon="-1.64617">
        <ele>77</ele>
        <time>2021-09-18T09:20:43.000Z</time>
      </trkpt>
      <trkpt lat="47.17086" lon="-1.64636">
        <ele>77</ele>
        <time>2021-09-18T09:20:45.000Z</time>
      </trkpt>
      <trkpt lat="47.17087" lon="-1.64656">
        <ele>77</ele>
        <time>2021-09-18T09:20:47.000Z</time>
      </trkpt>
      <trkpt lat="47.17087" lon="-1.64675">
        <ele>77</ele>
        <time>2021-09-18T09:20:49.000Z</time>
      </trkpt>
      <trkpt lat="47.17088" lon="-1.64694">
        <ele>77</ele>
        <time>2021-09-18T09:20:51.000Z</time>
      </trkpt>
      <trkpt lat="47.17088" lon="-1.64714">
        <ele>77</ele>
        <time>2021-09-18T09:20:53.000Z</time>
      </trkpt>
      <trkpt lat="47.17088" lon="-1.64733">
        <ele>78</ele>
        <time>2021-09-18T09:20:55.000Z</time>
      </trkpt>
      <trkpt lat="47.1709" lon="-1.6475">
        <ele>78</ele>
        <time>2021-09-18T09:20:57.000Z</time>
      </trkpt>
      <trkpt lat="47.17091" lon="-1.64769">
        <ele>78</ele>
        <time>2021-09-18T09:20:59.000Z</time>
      </trkpt>
      <trkpt lat="47.17092" lon="-1.64787">
        <ele>77</ele>
        <time>2021-09-18T09:21:01.000Z</time>
      </trkpt>
      <trkpt lat="47.17093" lon="-1.64804">
        <ele>78</ele>
        <time>2021-09-18T09:21:03.000Z</time>
      </trkpt>
      <trkpt lat="47.17094" lon="-1.64823">
        <ele>78</ele>
        <time>2021-09-18T09:21:05.000Z</time>
      </trkpt>
      <trkpt lat="47.17096" lon="-1.64842">
        <ele>78</ele>
        <time>2021-09-18T09:21:07.000Z</time>
      </trkpt>
      <trkpt lat="47.17097" lon="-1.64861">
        <ele>78</ele>
        <time>2021-09-18T09:21:09.000Z</time>
      </trkpt>
      <trkpt lat="47.17099" lon="-1.6488">
        <ele>78</ele>
        <time>2021-09-18T09:21:11.000Z</time>
      </trkpt>
      <trkpt lat="47.171" lon="-1.64899">
        <ele>77</ele>
        <time>2021-09-18T09:21:13.000Z</time>
      </trkpt>
      <trkpt lat="47.17101" lon="-1.64918">
        <ele>77</ele>
        <time>2021-09-18T09:21:15.000Z</time>
      </trkpt>
      <trkpt lat="47.17102" lon="-1.64936">
        <ele>77</ele>
        <time>2021-09-18T09:21:17.000Z</time>
      </trkpt>
      <trkpt lat="47.17104" lon="-1.64955">
        <ele>77</ele>
        <time>2021-09-18T09:21:19.000Z</time>
      </trkpt>
      <trkpt lat="47.17105" lon="-1.64973">
        <ele>77</ele>
        <time>2021-09-18T09:21:21.000Z</time>
      </trkpt>
      <trkpt lat="47.17106" lon="-1.64991">
        <ele>77</ele>
        <time>2021-09-18T09:21:23.000Z</time>
      </trkpt>
      <trkpt lat="47.17107" lon="-1.6501">
        <ele>77</ele>
        <time>2021-09-18T09:21:25.000Z</time>
      </trkpt>
      <trkpt lat="47.17109" lon="-1.65028">
        <ele>78</ele>
        <time>2021-09-18T09:21:27.000Z</time>
      </trkpt>
      <trkpt lat="47.1711" lon="-1.65046">
        <ele>78</ele>
        <time>2021-09-18T09:21:29.000Z</time>
      </trkpt>
      <trkpt lat="47.17112" lon="-1.65065">
        <ele>77</ele>
        <time>2021-09-18T09:21:31.000Z</time>
      </trkpt>
      <trkpt lat="47.17113" lon="-1.65083">
        <ele>78</ele>
        <time>2021-09-18T09:21:33.000Z</time>
      </trkpt>
      <trkpt lat="47.17114" lon="-1.65101">
        <ele>78</ele>
        <time>2021-09-18T09:21:35.000Z</time>
      </trkpt>
      <trkpt lat="47.17115" lon="-1.6512">
        <ele>78</ele>
        <time>2021-09-18T09:21:37.000Z</time>
      </trkpt>
      <trkpt lat="47.17117" lon="-1.65138">
        <ele>78</ele>
        <time>2021-09-18T09:21:39.000Z</time>
      </trkpt>
      <trkpt lat="47.17118" lon="-1.65157">
        <ele>78</ele>
        <time>2021-09-18T09:21:41.000Z</time>
      </trkpt>
      <trkpt lat="47.17119" lon="-1.65174">
        <ele>78</ele>
        <time>2021-09-18T09:21:43.000Z</time>
      </trkpt>
      <trkpt lat="47.17121" lon="-1.65192">
        <ele>78</ele>
        <time>2021-09-18T09:21:45.000Z</time>
      </trkpt>
      <trkpt lat="47.17122" lon="-1.6521">
        <ele>78</ele>
        <time>2021-09-18T09:21:47.000Z</time>
      </trkpt>
      <trkpt lat="47.17123" lon="-1.65226">
        <ele>78</ele>
        <time>2021-09-18T09:21:49.000Z</time>
      </trkpt>
      <trkpt lat="47.17125" lon="-1.65242">
        <ele>79</ele>
        <time>2021-09-18T09:21:51.000Z</time>
      </trkpt>
      <trkpt lat="47.17126" lon="-1.65258">
        <ele>79</ele>
        <time>2021-09-18T09:21:53.000Z</time>
      </trkpt>
      <trkpt lat="47.1713" lon="-1.65275">
        <ele>79</ele>
        <time>2021-09-18T09:21:55.000Z</time>
      </trkpt>
      <trkpt lat="47.17136" lon="-1.65291">
        <ele>80</ele>
        <time>2021-09-18T09:21:57.000Z</time>
      </trkpt>
      <trkpt lat="47.17137" lon="-1.65308">
        <ele>80</ele>
        <time>2021-09-18T09:21:59.000Z</time>
      </trkpt>
      <trkpt lat="47.17133" lon="-1.65325">
        <ele>80</ele>
        <time>2021-09-18T09:22:01.000Z</time>
      </trkpt>
      <trkpt lat="47.17125" lon="-1.65339">
        <ele>80</ele>
        <time>2021-09-18T09:22:03.000Z</time>
      </trkpt>
      <trkpt lat="47.17118" lon="-1.65354">
        <ele>80</ele>
        <time>2021-09-18T09:22:05.000Z</time>
      </trkpt>
      <trkpt lat="47.17118" lon="-1.65372">
        <ele>79</ele>
        <time>2021-09-18T09:22:07.000Z</time>
      </trkpt>
      <trkpt lat="47.17118" lon="-1.65388">
        <ele>80</ele>
        <time>2021-09-18T09:22:09.000Z</time>
      </trkpt>
      <trkpt lat="47.17118" lon="-1.65404">
        <ele>80</ele>
        <time>2021-09-18T09:22:11.000Z</time>
      </trkpt>
      <trkpt lat="47.17119" lon="-1.65419">
        <ele>80</ele>
        <time>2021-09-18T09:22:13.000Z</time>
      </trkpt>
      <trkpt lat="47.17119" lon="-1.65434">
        <ele>81</ele>
        <time>2021-09-18T09:22:15.000Z</time>
      </trkpt>
      <trkpt lat="47.17119" lon="-1.6545">
        <ele>82</ele>
        <time>2021-09-18T09:22:17.000Z</time>
      </trkpt>
      <trkpt lat="47.17118" lon="-1.65465">
        <ele>82</ele>
        <time>2021-09-18T09:22:19.000Z</time>
      </trkpt>
      <trkpt lat="47.17116" lon="-1.65479">
        <ele>83</ele>
        <time>2021-09-18T09:22:21.000Z</time>
      </trkpt>
      <trkpt lat="47.17114" lon="-1.65493">
        <ele>84</ele>
        <time>2021-09-18T09:22:23.000Z</time>
      </trkpt>
      <trkpt lat="47.1711" lon="-1.65507">
        <ele>84</ele>
        <time>2021-09-18T09:22:25.000Z</time>
      </trkpt>
      <trkpt lat="47.17106" lon="-1.65521">
        <ele>85</ele>
        <time>2021-09-18T09:22:27.000Z</time>
      </trkpt>
      <trkpt lat="47.17101" lon="-1.65534">
        <ele>84</ele>
        <time>2021-09-18T09:22:29.000Z</time>
      </trkpt>
      <trkpt lat="47.17095" lon="-1.65546">
        <ele>85</ele>
        <time>2021-09-18T09:22:31.000Z</time>
      </trkpt>
      <trkpt lat="47.17089" lon="-1.65557">
        <ele>85</ele>
        <time>2021-09-18T09:22:33.000Z</time>
      </trkpt>
      <trkpt lat="47.17083" lon="-1.65568">
        <ele>85</ele>
        <time>2021-09-18T09:22:35.000Z</time>
      </trkpt>
      <trkpt lat="47.17076" lon="-1.6558">
        <ele>85</ele>
        <time>2021-09-18T09:22:37.000Z</time>
      </trkpt>
      <trkpt lat="47.1707" lon="-1.65592">
        <ele>85</ele>
        <time>2021-09-18T09:22:39.000Z</time>
      </trkpt>
      <trkpt lat="47.17063" lon="-1.65603">
        <ele>85</ele>
        <time>2021-09-18T09:22:41.000Z</time>
      </trkpt>
      <trkpt lat="47.17056" lon="-1.65616">
        <ele>85</ele>
        <time>2021-09-18T09:22:43.000Z</time>
      </trkpt>
      <trkpt lat="47.1705" lon="-1.65629">
        <ele>84</ele>
        <time>2021-09-18T09:22:45.000Z</time>
      </trkpt>
      <trkpt lat="47.17042" lon="-1.65642">
        <ele>84</ele>
        <time>2021-09-18T09:22:47.000Z</time>
      </trkpt>
      <trkpt lat="47.17034" lon="-1.65656">
        <ele>83</ele>
        <time>2021-09-18T09:22:49.000Z</time>
      </trkpt>
      <trkpt lat="47.17026" lon="-1.65672">
        <ele>83</ele>
        <time>2021-09-18T09:22:51.000Z</time>
      </trkpt>
      <trkpt lat="47.17018" lon="-1.65688">
        <ele>82</ele>
        <time>2021-09-18T09:22:53.000Z</time>
      </trkpt>
      <trkpt lat="47.17011" lon="-1.65705">
        <ele>82</ele>
        <time>2021-09-18T09:22:55.000Z</time>
      </trkpt>
      <trkpt lat="47.17005" lon="-1.65723">
        <ele>83</ele>
        <time>2021-09-18T09:22:57.000Z</time>
      </trkpt>
      <trkpt lat="47.17004" lon="-1.65741">
        <ele>83</ele>
        <time>2021-09-18T09:22:59.000Z</time>
      </trkpt>
      <trkpt lat="47.17" lon="-1.65757">
        <ele>83</ele>
        <time>2021-09-18T09:23:01.000Z</time>
      </trkpt>
      <trkpt lat="47.1699" lon="-1.65769">
        <ele>83</ele>
        <time>2021-09-18T09:23:03.000Z</time>
      </trkpt>
      <trkpt lat="47.16978" lon="-1.65776">
        <ele>83</ele>
        <time>2021-09-18T09:23:05.000Z</time>
      </trkpt>
      <trkpt lat="47.16966" lon="-1.65784">
        <ele>82</ele>
        <time>2021-09-18T09:23:07.000Z</time>
      </trkpt>
      <trkpt lat="47.16956" lon="-1.65797">
        <ele>82</ele>
        <time>2021-09-18T09:23:09.000Z</time>
      </trkpt>
      <trkpt lat="47.16948" lon="-1.65812">
        <ele>81</ele>
        <time>2021-09-18T09:23:11.000Z</time>
      </trkpt>
      <trkpt lat="47.1694" lon="-1.65828">
        <ele>81</ele>
        <time>2021-09-18T09:23:13.000Z</time>
      </trkpt>
      <trkpt lat="47.16932" lon="-1.65845">
        <ele>81</ele>
        <time>2021-09-18T09:23:15.000Z</time>
      </trkpt>
      <trkpt lat="47.16925" lon="-1.65861">
        <ele>81</ele>
        <time>2021-09-18T09:23:17.000Z</time>
      </trkpt>
      <trkpt lat="47.16917" lon="-1.65877">
        <ele>81</ele>
        <time>2021-09-18T09:23:19.000Z</time>
      </trkpt>
      <trkpt lat="47.16909" lon="-1.65892">
        <ele>80</ele>
        <time>2021-09-18T09:23:21.000Z</time>
      </trkpt>
      <trkpt lat="47.16901" lon="-1.65908">
        <ele>80</ele>
        <time>2021-09-18T09:23:23.000Z</time>
      </trkpt>
      <trkpt lat="47.16894" lon="-1.65924">
        <ele>80</ele>
        <time>2021-09-18T09:23:25.000Z</time>
      </trkpt>
      <trkpt lat="47.16887" lon="-1.6594">
        <ele>80</ele>
        <time>2021-09-18T09:23:27.000Z</time>
      </trkpt>
      <trkpt lat="47.16879" lon="-1.65957">
        <ele>79</ele>
        <time>2021-09-18T09:23:29.000Z</time>
      </trkpt>
      <trkpt lat="47.16872" lon="-1.65974">
        <ele>80</ele>
        <time>2021-09-18T09:23:31.000Z</time>
      </trkpt>
      <trkpt lat="47.16866" lon="-1.65992">
        <ele>79</ele>
        <time>2021-09-18T09:23:33.000Z</time>
      </trkpt>
      <trkpt lat="47.16861" lon="-1.66011">
        <ele>79</ele>
        <time>2021-09-18T09:23:35.000Z</time>
      </trkpt>
      <trkpt lat="47.16857" lon="-1.66029">
        <ele>79</ele>
        <time>2021-09-18T09:23:37.000Z</time>
      </trkpt>
      <trkpt lat="47.16854" lon="-1.66048">
        <ele>79</ele>
        <time>2021-09-18T09:23:39.000Z</time>
      </trkpt>
      <trkpt lat="47.16851" lon="-1.66066">
        <ele>79</ele>
        <time>2021-09-18T09:23:41.000Z</time>
      </trkpt>
      <trkpt lat="47.16848" lon="-1.66085">
        <ele>79</ele>
        <time>2021-09-18T09:23:43.000Z</time>
      </trkpt>
      <trkpt lat="47.16846" lon="-1.66104">
        <ele>79</ele>
        <time>2021-09-18T09:23:45.000Z</time>
      </trkpt>
      <trkpt lat="47.16845" lon="-1.66123">
        <ele>79</ele>
        <time>2021-09-18T09:23:47.000Z</time>
      </trkpt>
      <trkpt lat="47.16845" lon="-1.66143">
        <ele>79</ele>
        <time>2021-09-18T09:23:49.000Z</time>
      </trkpt>
      <trkpt lat="47.16845" lon="-1.66162">
        <ele>78</ele>
        <time>2021-09-18T09:23:51.000Z</time>
      </trkpt>
      <trkpt lat="47.16846" lon="-1.66181">
        <ele>78</ele>
        <time>2021-09-18T09:23:53.000Z</time>
      </trkpt>
      <trkpt lat="47.16847" lon="-1.662">
        <ele>78</ele>
        <time>2021-09-18T09:23:55.000Z</time>
      </trkpt>
      <trkpt lat="47.16848" lon="-1.66219">
        <ele>78</ele>
        <time>2021-09-18T09:23:57.000Z</time>
      </trkpt>
      <trkpt lat="47.1685" lon="-1.66238">
        <ele>79</ele>
        <time>2021-09-18T09:23:59.000Z</time>
      </trkpt>
      <trkpt lat="47.16851" lon="-1.66257">
        <ele>78</ele>
        <time>2021-09-18T09:24:01.000Z</time>
      </trkpt>
      <trkpt lat="47.16852" lon="-1.66275">
        <ele>79</ele>
        <time>2021-09-18T09:24:03.000Z</time>
      </trkpt>
      <trkpt lat="47.16853" lon="-1.66294">
        <ele>79</ele>
        <time>2021-09-18T09:24:05.000Z</time>
      </trkpt>
      <trkpt lat="47.16854" lon="-1.66313">
        <ele>79</ele>
        <time>2021-09-18T09:24:07.000Z</time>
      </trkpt>
      <trkpt lat="47.16856" lon="-1.66331">
        <ele>79</ele>
        <time>2021-09-18T09:24:09.000Z</time>
      </trkpt>
      <trkpt lat="47.16858" lon="-1.66349">
        <ele>79</ele>
        <time>2021-09-18T09:24:11.000Z</time>
      </trkpt>
      <trkpt lat="47.1686" lon="-1.66367">
        <ele>79</ele>
        <time>2021-09-18T09:24:13.000Z</time>
      </trkpt>
      <trkpt lat="47.16861" lon="-1.66386">
        <ele>78</ele>
        <time>2021-09-18T09:24:15.000Z</time>
      </trkpt>
      <trkpt lat="47.16864" lon="-1.66405">
        <ele>79</ele>
        <time>2021-09-18T09:24:17.000Z</time>
      </trkpt>
      <trkpt lat="47.16866" lon="-1.66425">
        <ele>79</ele>
        <time>2021-09-18T09:24:19.000Z</time>
      </trkpt>
      <trkpt lat="47.16868" lon="-1.66443">
        <ele>79</ele>
        <time>2021-09-18T09:24:21.000Z</time>
      </trkpt>
      <trkpt lat="47.1687" lon="-1.66461">
        <ele>79</ele>
        <time>2021-09-18T09:24:23.000Z</time>
      </trkpt>
      <trkpt lat="47.16872" lon="-1.6648">
        <ele>79</ele>
        <time>2021-09-18T09:24:25.000Z</time>
      </trkpt>
      <trkpt lat="47.16874" lon="-1.66498">
        <ele>80</ele>
        <time>2021-09-18T09:24:27.000Z</time>
      </trkpt>
      <trkpt lat="47.16876" lon="-1.66516">
        <ele>80</ele>
        <time>2021-09-18T09:24:29.000Z</time>
      </trkpt>
      <trkpt lat="47.16878" lon="-1.66536">
        <ele>80</ele>
        <time>2021-09-18T09:24:31.000Z</time>
      </trkpt>
      <trkpt lat="47.1688" lon="-1.66554">
        <ele>80</ele>
        <time>2021-09-18T09:24:33.000Z</time>
      </trkpt>
      <trkpt lat="47.16882" lon="-1.66572">
        <ele>80</ele>
        <time>2021-09-18T09:24:35.000Z</time>
      </trkpt>
      <trkpt lat="47.16884" lon="-1.66589">
        <ele>80</ele>
        <time>2021-09-18T09:24:37.000Z</time>
      </trkpt>
      <trkpt lat="47.16886" lon="-1.66607">
        <ele>79</ele>
        <time>2021-09-18T09:24:39.000Z</time>
      </trkpt>
      <trkpt lat="47.16888" lon="-1.66626">
        <ele>80</ele>
        <time>2021-09-18T09:24:41.000Z</time>
      </trkpt>
      <trkpt lat="47.1689" lon="-1.66644">
        <ele>80</ele>
        <time>2021-09-18T09:24:43.000Z</time>
      </trkpt>
      <trkpt lat="47.16891" lon="-1.66662">
        <ele>80</ele>
        <time>2021-09-18T09:24:45.000Z</time>
      </trkpt>
      <trkpt lat="47.1689" lon="-1.66679">
        <ele>80</ele>
        <time>2021-09-18T09:24:47.000Z</time>
      </trkpt>
      <trkpt lat="47.16888" lon="-1.66697">
        <ele>80</ele>
        <time>2021-09-18T09:24:49.000Z</time>
      </trkpt>
      <trkpt lat="47.16885" lon="-1.66715">
        <ele>80</ele>
        <time>2021-09-18T09:24:51.000Z</time>
      </trkpt>
      <trkpt lat="47.16879" lon="-1.66731">
        <ele>80</ele>
        <time>2021-09-18T09:24:53.000Z</time>
      </trkpt>
      <trkpt lat="47.16873" lon="-1.66747">
        <ele>80</ele>
        <time>2021-09-18T09:24:55.000Z</time>
      </trkpt>
      <trkpt lat="47.16865" lon="-1.66762">
        <ele>80</ele>
        <time>2021-09-18T09:24:57.000Z</time>
      </trkpt>
      <trkpt lat="47.16857" lon="-1.66778">
        <ele>79</ele>
        <time>2021-09-18T09:24:59.000Z</time>
      </trkpt>
      <trkpt lat="47.16849" lon="-1.66793">
        <ele>79</ele>
        <time>2021-09-18T09:25:01.000Z</time>
      </trkpt>
      <trkpt lat="47.16841" lon="-1.66808">
        <ele>79</ele>
        <time>2021-09-18T09:25:03.000Z</time>
      </trkpt>
      <trkpt lat="47.16833" lon="-1.66824">
        <ele>79</ele>
        <time>2021-09-18T09:25:05.000Z</time>
      </trkpt>
      <trkpt lat="47.16825" lon="-1.66839">
        <ele>79</ele>
        <time>2021-09-18T09:25:07.000Z</time>
      </trkpt>
      <trkpt lat="47.16817" lon="-1.66855">
        <ele>79</ele>
        <time>2021-09-18T09:25:09.000Z</time>
      </trkpt>
      <trkpt lat="47.16809" lon="-1.6687">
        <ele>79</ele>
        <time>2021-09-18T09:25:11.000Z</time>
      </trkpt>
      <trkpt lat="47.168" lon="-1.66883">
        <ele>79</ele>
        <time>2021-09-18T09:25:13.000Z</time>
      </trkpt>
      <trkpt lat="47.1679" lon="-1.66896">
        <ele>79</ele>
        <time>2021-09-18T09:25:15.000Z</time>
      </trkpt>
      <trkpt lat="47.16779" lon="-1.66906">
        <ele>80</ele>
        <time>2021-09-18T09:25:17.000Z</time>
      </trkpt>
      <trkpt lat="47.16768" lon="-1.66913">
        <ele>80</ele>
        <time>2021-09-18T09:25:19.000Z</time>
      </trkpt>
      <trkpt lat="47.16755" lon="-1.66918">
        <ele>81</ele>
        <time>2021-09-18T09:25:21.000Z</time>
      </trkpt>
      <trkpt lat="47.1674" lon="-1.66923">
        <ele>81</ele>
        <time>2021-09-18T09:25:23.000Z</time>
      </trkpt>
      <trkpt lat="47.16728" lon="-1.66928">
        <ele>81</ele>
        <time>2021-09-18T09:25:25.000Z</time>
      </trkpt>
      <trkpt lat="47.16714" lon="-1.66932">
        <ele>80</ele>
        <time>2021-09-18T09:25:27.000Z</time>
      </trkpt>
      <trkpt lat="47.16702" lon="-1.66937">
        <ele>81</ele>
        <time>2021-09-18T09:25:29.000Z</time>
      </trkpt>
      <trkpt lat="47.16691" lon="-1.66946">
        <ele>82</ele>
        <time>2021-09-18T09:25:31.000Z</time>
      </trkpt>
      <trkpt lat="47.1668" lon="-1.66958">
        <ele>82</ele>
        <time>2021-09-18T09:25:33.000Z</time>
      </trkpt>
      <trkpt lat="47.16671" lon="-1.66974">
        <ele>82</ele>
        <time>2021-09-18T09:25:35.000Z</time>
      </trkpt>
      <trkpt lat="47.16665" lon="-1.6699">
        <ele>82</ele>
        <time>2021-09-18T09:25:37.000Z</time>
      </trkpt>
      <trkpt lat="47.1666" lon="-1.67006">
        <ele>81</ele>
        <time>2021-09-18T09:25:39.000Z</time>
      </trkpt>
      <trkpt lat="47.16657" lon="-1.67023">
        <ele>81</ele>
        <time>2021-09-18T09:25:41.000Z</time>
      </trkpt>
      <trkpt lat="47.16654" lon="-1.67041">
        <ele>81</ele>
        <time>2021-09-18T09:25:43.000Z</time>
      </trkpt>
      <trkpt lat="47.1665" lon="-1.67058">
        <ele>80</ele>
        <time>2021-09-18T09:25:45.000Z</time>
      </trkpt>
      <trkpt lat="47.16646" lon="-1.67076">
        <ele>79</ele>
        <time>2021-09-18T09:25:47.000Z</time>
      </trkpt>
      <trkpt lat="47.16643" lon="-1.67093">
        <ele>78</ele>
        <time>2021-09-18T09:25:49.000Z</time>
      </trkpt>
      <trkpt lat="47.16639" lon="-1.6711">
        <ele>78</ele>
        <time>2021-09-18T09:25:51.000Z</time>
      </trkpt>
      <trkpt lat="47.16636" lon="-1.67126">
        <ele>78</ele>
        <time>2021-09-18T09:25:53.000Z</time>
      </trkpt>
      <trkpt lat="47.16632" lon="-1.67143">
        <ele>77</ele>
        <time>2021-09-18T09:25:55.000Z</time>
      </trkpt>
      <trkpt lat="47.16629" lon="-1.67159">
        <ele>77</ele>
        <time>2021-09-18T09:25:57.000Z</time>
      </trkpt>
      <trkpt lat="47.16625" lon="-1.67177">
        <ele>77</ele>
        <time>2021-09-18T09:25:59.000Z</time>
      </trkpt>
      <trkpt lat="47.16622" lon="-1.67194">
        <ele>77</ele>
        <time>2021-09-18T09:26:01.000Z</time>
      </trkpt>
      <trkpt lat="47.16619" lon="-1.6721">
        <ele>77</ele>
        <time>2021-09-18T09:26:03.000Z</time>
      </trkpt>
      <trkpt lat="47.16616" lon="-1.67225">
        <ele>77</ele>
        <time>2021-09-18T09:26:05.000Z</time>
      </trkpt>
      <trkpt lat="47.16613" lon="-1.67239">
        <ele>77</ele>
        <time>2021-09-18T09:26:07.000Z</time>
      </trkpt>
      <trkpt lat="47.1661" lon="-1.67254">
        <ele>78</ele>
        <time>2021-09-18T09:26:10.000Z</time>
      </trkpt>
      <trkpt lat="47.16609" lon="-1.67268">
        <ele>78</ele>
        <time>2021-09-18T09:26:21.000Z</time>
      </trkpt>
      <trkpt lat="47.16601" lon="-1.67284">
        <ele>78</ele>
        <time>2021-09-18T09:26:24.000Z</time>
      </trkpt>
      <trkpt lat="47.16594" lon="-1.67298">
        <ele>78</ele>
        <time>2021-09-18T09:26:26.000Z</time>
      </trkpt>
      <trkpt lat="47.16586" lon="-1.67314">
        <ele>78</ele>
        <time>2021-09-18T09:26:28.000Z</time>
      </trkpt>
      <trkpt lat="47.16579" lon="-1.6733">
        <ele>78</ele>
        <time>2021-09-18T09:26:30.000Z</time>
      </trkpt>
      <trkpt lat="47.16571" lon="-1.67346">
        <ele>78</ele>
        <time>2021-09-18T09:26:32.000Z</time>
      </trkpt>
      <trkpt lat="47.16564" lon="-1.67362">
        <ele>78</ele>
        <time>2021-09-18T09:26:34.000Z</time>
      </trkpt>
      <trkpt lat="47.16555" lon="-1.67377">
        <ele>78</ele>
        <time>2021-09-18T09:26:36.000Z</time>
      </trkpt>
      <trkpt lat="47.16545" lon="-1.67391">
        <ele>78</ele>
        <time>2021-09-18T09:26:38.000Z</time>
      </trkpt>
      <trkpt lat="47.16536" lon="-1.67405">
        <ele>78</ele>
        <time>2021-09-18T09:26:40.000Z</time>
      </trkpt>
      <trkpt lat="47.16527" lon="-1.67418">
        <ele>78</ele>
        <time>2021-09-18T09:26:42.000Z</time>
      </trkpt>
      <trkpt lat="47.16518" lon="-1.67432">
        <ele>78</ele>
        <time>2021-09-18T09:26:44.000Z</time>
      </trkpt>
      <trkpt lat="47.16509" lon="-1.67446">
        <ele>78</ele>
        <time>2021-09-18T09:26:46.000Z</time>
      </trkpt>
      <trkpt lat="47.16501" lon="-1.6746">
        <ele>77</ele>
        <time>2021-09-18T09:26:48.000Z</time>
      </trkpt>
      <trkpt lat="47.16493" lon="-1.67475">
        <ele>77</ele>
        <time>2021-09-18T09:26:50.000Z</time>
      </trkpt>
      <trkpt lat="47.16485" lon="-1.6749">
        <ele>77</ele>
        <time>2021-09-18T09:26:52.000Z</time>
      </trkpt>
      <trkpt lat="47.16477" lon="-1.67504">
        <ele>77</ele>
        <time>2021-09-18T09:26:54.000Z</time>
      </trkpt>
      <trkpt lat="47.16469" lon="-1.67519">
        <ele>78</ele>
        <time>2021-09-18T09:26:56.000Z</time>
      </trkpt>
      <trkpt lat="47.1646" lon="-1.67533">
        <ele>78</ele>
        <time>2021-09-18T09:26:58.000Z</time>
      </trkpt>
      <trkpt lat="47.16452" lon="-1.67547">
        <ele>78</ele>
        <time>2021-09-18T09:27:00.000Z</time>
      </trkpt>
      <trkpt lat="47.16444" lon="-1.67562">
        <ele>78</ele>
        <time>2021-09-18T09:27:02.000Z</time>
      </trkpt>
      <trkpt lat="47.16436" lon="-1.67577">
        <ele>77</ele>
        <time>2021-09-18T09:27:04.000Z</time>
      </trkpt>
      <trkpt lat="47.16429" lon="-1.67593">
        <ele>77</ele>
        <time>2021-09-18T09:27:06.000Z</time>
      </trkpt>
      <trkpt lat="47.16422" lon="-1.67608">
        <ele>77</ele>
        <time>2021-09-18T09:27:08.000Z</time>
      </trkpt>
      <trkpt lat="47.16415" lon="-1.67623">
        <ele>77</ele>
        <time>2021-09-18T09:27:10.000Z</time>
      </trkpt>
      <trkpt lat="47.16408" lon="-1.67638">
        <ele>77</ele>
        <time>2021-09-18T09:27:12.000Z</time>
      </trkpt>
      <trkpt lat="47.164" lon="-1.67653">
        <ele>78</ele>
        <time>2021-09-18T09:27:14.000Z</time>
      </trkpt>
      <trkpt lat="47.16393" lon="-1.67668">
        <ele>78</ele>
        <time>2021-09-18T09:27:16.000Z</time>
      </trkpt>
      <trkpt lat="47.16386" lon="-1.67683">
        <ele>78</ele>
        <time>2021-09-18T09:27:18.000Z</time>
      </trkpt>
      <trkpt lat="47.16378" lon="-1.67697">
        <ele>78</ele>
        <time>2021-09-18T09:27:20.000Z</time>
      </trkpt>
      <trkpt lat="47.1637" lon="-1.67712">
        <ele>78</ele>
        <time>2021-09-18T09:27:22.000Z</time>
      </trkpt>
      <trkpt lat="47.16361" lon="-1.67727">
        <ele>77</ele>
        <time>2021-09-18T09:27:24.000Z</time>
      </trkpt>
      <trkpt lat="47.16354" lon="-1.67742">
        <ele>78</ele>
        <time>2021-09-18T09:27:26.000Z</time>
      </trkpt>
      <trkpt lat="47.16347" lon="-1.67756">
        <ele>78</ele>
        <time>2021-09-18T09:27:28.000Z</time>
      </trkpt>
      <trkpt lat="47.16339" lon="-1.67771">
        <ele>78</ele>
        <time>2021-09-18T09:27:30.000Z</time>
      </trkpt>
      <trkpt lat="47.16331" lon="-1.67785">
        <ele>78</ele>
        <time>2021-09-18T09:27:32.000Z</time>
      </trkpt>
      <trkpt lat="47.16324" lon="-1.67798">
        <ele>79</ele>
        <time>2021-09-18T09:27:34.000Z</time>
      </trkpt>
      <trkpt lat="47.16316" lon="-1.67812">
        <ele>79</ele>
        <time>2021-09-18T09:27:36.000Z</time>
      </trkpt>
      <trkpt lat="47.16308" lon="-1.67825">
        <ele>78</ele>
        <time>2021-09-18T09:27:38.000Z</time>
      </trkpt>
      <trkpt lat="47.163" lon="-1.67838">
        <ele>78</ele>
        <time>2021-09-18T09:27:40.000Z</time>
      </trkpt>
      <trkpt lat="47.16293" lon="-1.67851">
        <ele>78</ele>
        <time>2021-09-18T09:27:42.000Z</time>
      </trkpt>
      <trkpt lat="47.16286" lon="-1.67864">
        <ele>78</ele>
        <time>2021-09-18T09:27:44.000Z</time>
      </trkpt>
      <trkpt lat="47.16278" lon="-1.67877">
        <ele>78</ele>
        <time>2021-09-18T09:27:46.000Z</time>
      </trkpt>
      <trkpt lat="47.16271" lon="-1.67891">
        <ele>78</ele>
        <time>2021-09-18T09:27:48.000Z</time>
      </trkpt>
      <trkpt lat="47.16263" lon="-1.67904">
        <ele>78</ele>
        <time>2021-09-18T09:27:50.000Z</time>
      </trkpt>
      <trkpt lat="47.16256" lon="-1.67917">
        <ele>79</ele>
        <time>2021-09-18T09:27:52.000Z</time>
      </trkpt>
      <trkpt lat="47.16248" lon="-1.6793">
        <ele>79</ele>
        <time>2021-09-18T09:27:54.000Z</time>
      </trkpt>
      <trkpt lat="47.1624" lon="-1.67944">
        <ele>79</ele>
        <time>2021-09-18T09:27:56.000Z</time>
      </trkpt>
      <trkpt lat="47.16232" lon="-1.67956">
        <ele>79</ele>
        <time>2021-09-18T09:27:58.000Z</time>
      </trkpt>
      <trkpt lat="47.16225" lon="-1.6797">
        <ele>79</ele>
        <time>2021-09-18T09:28:00.000Z</time>
      </trkpt>
      <trkpt lat="47.16221" lon="-1.67987">
        <ele>79</ele>
        <time>2021-09-18T09:28:02.000Z</time>
      </trkpt>
      <trkpt lat="47.1621" lon="-1.67997">
        <ele>78</ele>
        <time>2021-09-18T09:28:04.000Z</time>
      </trkpt>
      <trkpt lat="47.16199" lon="-1.68002">
        <ele>77</ele>
        <time>2021-09-18T09:28:06.000Z</time>
      </trkpt>
      <trkpt lat="47.1619" lon="-1.68014">
        <ele>78</ele>
        <time>2021-09-18T09:28:08.000Z</time>
      </trkpt>
      <trkpt lat="47.16182" lon="-1.68026">
        <ele>78</ele>
        <time>2021-09-18T09:28:10.000Z</time>
      </trkpt>
      <trkpt lat="47.16173" lon="-1.68038">
        <ele>78</ele>
        <time>2021-09-18T09:28:12.000Z</time>
      </trkpt>
      <trkpt lat="47.16165" lon="-1.68051">
        <ele>78</ele>
        <time>2021-09-18T09:28:14.000Z</time>
      </trkpt>
      <trkpt lat="47.16157" lon="-1.68063">
        <ele>78</ele>
        <time>2021-09-18T09:28:16.000Z</time>
      </trkpt>
      <trkpt lat="47.1615" lon="-1.68077">
        <ele>78</ele>
        <time>2021-09-18T09:28:18.000Z</time>
      </trkpt>
      <trkpt lat="47.16144" lon="-1.68093">
        <ele>78</ele>
        <time>2021-09-18T09:28:20.000Z</time>
      </trkpt>
      <trkpt lat="47.1614" lon="-1.6811">
        <ele>78</ele>
        <time>2021-09-18T09:28:22.000Z</time>
      </trkpt>
      <trkpt lat="47.16138" lon="-1.68127">
        <ele>79</ele>
        <time>2021-09-18T09:28:24.000Z</time>
      </trkpt>
      <trkpt lat="47.16134" lon="-1.68143">
        <ele>79</ele>
        <time>2021-09-18T09:28:26.000Z</time>
      </trkpt>
      <trkpt lat="47.1613" lon="-1.6816">
        <ele>79</ele>
        <time>2021-09-18T09:28:28.000Z</time>
      </trkpt>
      <trkpt lat="47.16126" lon="-1.68176">
        <ele>78</ele>
        <time>2021-09-18T09:28:30.000Z</time>
      </trkpt>
      <trkpt lat="47.16121" lon="-1.68193">
        <ele>78</ele>
        <time>2021-09-18T09:28:32.000Z</time>
      </trkpt>
      <trkpt lat="47.16118" lon="-1.68211">
        <ele>78</ele>
        <time>2021-09-18T09:28:34.000Z</time>
      </trkpt>
      <trkpt lat="47.16115" lon="-1.68228">
        <ele>78</ele>
        <time>2021-09-18T09:28:36.000Z</time>
      </trkpt>
      <trkpt lat="47.16112" lon="-1.68245">
        <ele>78</ele>
        <time>2021-09-18T09:28:38.000Z</time>
      </trkpt>
      <trkpt lat="47.1611" lon="-1.68261">
        <ele>78</ele>
        <time>2021-09-18T09:28:40.000Z</time>
      </trkpt>
      <trkpt lat="47.16107" lon="-1.6828">
        <ele>77</ele>
        <time>2021-09-18T09:28:42.000Z</time>
      </trkpt>
      <trkpt lat="47.161" lon="-1.68302">
        <ele>77</ele>
        <time>2021-09-18T09:28:44.000Z</time>
      </trkpt>
      <trkpt lat="47.16096" lon="-1.68323">
        <ele>77</ele>
        <time>2021-09-18T09:28:46.000Z</time>
      </trkpt>
      <trkpt lat="47.16092" lon="-1.68343">
        <ele>77</ele>
        <time>2021-09-18T09:28:48.000Z</time>
      </trkpt>
      <trkpt lat="47.16088" lon="-1.68362">
        <ele>78</ele>
        <time>2021-09-18T09:28:50.000Z</time>
      </trkpt>
      <trkpt lat="47.16084" lon="-1.6838">
        <ele>78</ele>
        <time>2021-09-18T09:28:52.000Z</time>
      </trkpt>
      <trkpt lat="47.16081" lon="-1.68399">
        <ele>78</ele>
        <time>2021-09-18T09:28:54.000Z</time>
      </trkpt>
      <trkpt lat="47.16077" lon="-1.68417">
        <ele>77</ele>
        <time>2021-09-18T09:28:56.000Z</time>
      </trkpt>
      <trkpt lat="47.16073" lon="-1.68435">
        <ele>77</ele>
        <time>2021-09-18T09:28:58.000Z</time>
      </trkpt>
      <trkpt lat="47.1607" lon="-1.68453">
        <ele>76</ele>
        <time>2021-09-18T09:29:00.000Z</time>
      </trkpt>
      <trkpt lat="47.16066" lon="-1.68471">
        <ele>76</ele>
        <time>2021-09-18T09:29:02.000Z</time>
      </trkpt>
      <trkpt lat="47.16063" lon="-1.68489">
        <ele>75</ele>
        <time>2021-09-18T09:29:04.000Z</time>
      </trkpt>
      <trkpt lat="47.1606" lon="-1.68509">
        <ele>75</ele>
        <time>2021-09-18T09:29:06.000Z</time>
      </trkpt>
      <trkpt lat="47.16058" lon="-1.68528">
        <ele>74</ele>
        <time>2021-09-18T09:29:08.000Z</time>
      </trkpt>
      <trkpt lat="47.16055" lon="-1.68546">
        <ele>74</ele>
        <time>2021-09-18T09:29:10.000Z</time>
      </trkpt>
      <trkpt lat="47.16053" lon="-1.68564">
        <ele>74</ele>
        <time>2021-09-18T09:29:12.000Z</time>
      </trkpt>
      <trkpt lat="47.1605" lon="-1.68582">
        <ele>74</ele>
        <time>2021-09-18T09:29:14.000Z</time>
      </trkpt>
      <trkpt lat="47.16047" lon="-1.68599">
        <ele>74</ele>
        <time>2021-09-18T09:29:16.000Z</time>
      </trkpt>
      <trkpt lat="47.16045" lon="-1.68617">
        <ele>74</ele>
        <time>2021-09-18T09:29:18.000Z</time>
      </trkpt>
      <trkpt lat="47.16044" lon="-1.68635">
        <ele>74</ele>
        <time>2021-09-18T09:29:20.000Z</time>
      </trkpt>
      <trkpt lat="47.16044" lon="-1.68653">
        <ele>74</ele>
        <time>2021-09-18T09:29:22.000Z</time>
      </trkpt>
      <trkpt lat="47.16043" lon="-1.6867">
        <ele>74</ele>
        <time>2021-09-18T09:29:24.000Z</time>
      </trkpt>
      <trkpt lat="47.16044" lon="-1.68689">
        <ele>74</ele>
        <time>2021-09-18T09:29:26.000Z</time>
      </trkpt>
      <trkpt lat="47.16045" lon="-1.68706">
        <ele>74</ele>
        <time>2021-09-18T09:29:28.000Z</time>
      </trkpt>
      <trkpt lat="47.16047" lon="-1.68722">
        <ele>75</ele>
        <time>2021-09-18T09:29:30.000Z</time>
      </trkpt>
      <trkpt lat="47.16049" lon="-1.68739">
        <ele>75</ele>
        <time>2021-09-18T09:29:32.000Z</time>
      </trkpt>
      <trkpt lat="47.16052" lon="-1.68756">
        <ele>75</ele>
        <time>2021-09-18T09:29:34.000Z</time>
      </trkpt>
      <trkpt lat="47.16056" lon="-1.68771">
        <ele>76</ele>
        <time>2021-09-18T09:29:36.000Z</time>
      </trkpt>
      <trkpt lat="47.1606" lon="-1.68787">
        <ele>76</ele>
        <time>2021-09-18T09:29:38.000Z</time>
      </trkpt>
      <trkpt lat="47.16064" lon="-1.68802">
        <ele>76</ele>
        <time>2021-09-18T09:29:40.000Z</time>
      </trkpt>
      <trkpt lat="47.16069" lon="-1.68817">
        <ele>77</ele>
        <time>2021-09-18T09:29:42.000Z</time>
      </trkpt>
      <trkpt lat="47.16073" lon="-1.68832">
        <ele>77</ele>
        <time>2021-09-18T09:29:44.000Z</time>
      </trkpt>
      <trkpt lat="47.16078" lon="-1.68848">
        <ele>77</ele>
        <time>2021-09-18T09:29:46.000Z</time>
      </trkpt>
      <trkpt lat="47.16082" lon="-1.68864">
        <ele>77</ele>
        <time>2021-09-18T09:29:48.000Z</time>
      </trkpt>
      <trkpt lat="47.16087" lon="-1.68879">
        <ele>77</ele>
        <time>2021-09-18T09:29:50.000Z</time>
      </trkpt>
      <trkpt lat="47.16092" lon="-1.68895">
        <ele>77</ele>
        <time>2021-09-18T09:29:52.000Z</time>
      </trkpt>
      <trkpt lat="47.16096" lon="-1.68911">
        <ele>76</ele>
        <time>2021-09-18T09:29:54.000Z</time>
      </trkpt>
      <trkpt lat="47.16101" lon="-1.68927">
        <ele>76</ele>
        <time>2021-09-18T09:29:56.000Z</time>
      </trkpt>
      <trkpt lat="47.16106" lon="-1.68944">
        <ele>76</ele>
        <time>2021-09-18T09:29:58.000Z</time>
      </trkpt>
      <trkpt lat="47.1611" lon="-1.68961">
        <ele>75</ele>
        <time>2021-09-18T09:30:00.000Z</time>
      </trkpt>
      <trkpt lat="47.16116" lon="-1.68979">
        <ele>75</ele>
        <time>2021-09-18T09:30:02.000Z</time>
      </trkpt>
      <trkpt lat="47.16121" lon="-1.68996">
        <ele>75</ele>
        <time>2021-09-18T09:30:04.000Z</time>
      </trkpt>
      <trkpt lat="47.16126" lon="-1.69015">
        <ele>74</ele>
        <time>2021-09-18T09:30:06.000Z</time>
      </trkpt>
      <trkpt lat="47.1613" lon="-1.69033">
        <ele>73</ele>
        <time>2021-09-18T09:30:08.000Z</time>
      </trkpt>
      <trkpt lat="47.16134" lon="-1.69053">
        <ele>73</ele>
        <time>2021-09-18T09:30:10.000Z</time>
      </trkpt>
      <trkpt lat="47.16138" lon="-1.69073">
        <ele>73</ele>
        <time>2021-09-18T09:30:12.000Z</time>
      </trkpt>
      <trkpt lat="47.1614" lon="-1.69093">
        <ele>74</ele>
        <time>2021-09-18T09:30:14.000Z</time>
      </trkpt>
      <trkpt lat="47.16143" lon="-1.69113">
        <ele>73</ele>
        <time>2021-09-18T09:30:16.000Z</time>
      </trkpt>
      <trkpt lat="47.16144" lon="-1.69132">
        <ele>73</ele>
        <time>2021-09-18T09:30:18.000Z</time>
      </trkpt>
      <trkpt lat="47.16145" lon="-1.69152">
        <ele>73</ele>
        <time>2021-09-18T09:30:20.000Z</time>
      </trkpt>
      <trkpt lat="47.16145" lon="-1.69171">
        <ele>73</ele>
        <time>2021-09-18T09:30:22.000Z</time>
      </trkpt>
      <trkpt lat="47.16143" lon="-1.69191">
        <ele>73</ele>
        <time>2021-09-18T09:30:24.000Z</time>
      </trkpt>
      <trkpt lat="47.16142" lon="-1.69211">
        <ele>73</ele>
        <time>2021-09-18T09:30:26.000Z</time>
      </trkpt>
      <trkpt lat="47.16141" lon="-1.69231">
        <ele>72</ele>
        <time>2021-09-18T09:30:28.000Z</time>
      </trkpt>
      <trkpt lat="47.1614" lon="-1.6925">
        <ele>72</ele>
        <time>2021-09-18T09:30:30.000Z</time>
      </trkpt>
      <trkpt lat="47.16137" lon="-1.69269">
        <ele>72</ele>
        <time>2021-09-18T09:30:32.000Z</time>
      </trkpt>
      <trkpt lat="47.16135" lon="-1.69287">
        <ele>72</ele>
        <time>2021-09-18T09:30:34.000Z</time>
      </trkpt>
      <trkpt lat="47.16132" lon="-1.69306">
        <ele>72</ele>
        <time>2021-09-18T09:30:36.000Z</time>
      </trkpt>
      <trkpt lat="47.16129" lon="-1.69325">
        <ele>72</ele>
        <time>2021-09-18T09:30:38.000Z</time>
      </trkpt>
      <trkpt lat="47.16126" lon="-1.69343">
        <ele>71</ele>
        <time>2021-09-18T09:30:40.000Z</time>
      </trkpt>
      <trkpt lat="47.16124" lon="-1.69362">
        <ele>71</ele>
        <time>2021-09-18T09:30:42.000Z</time>
      </trkpt>
      <trkpt lat="47.16121" lon="-1.6938">
        <ele>72</ele>
        <time>2021-09-18T09:30:44.000Z</time>
      </trkpt>
      <trkpt lat="47.16119" lon="-1.69398">
        <ele>71</ele>
        <time>2021-09-18T09:30:46.000Z</time>
      </trkpt>
      <trkpt lat="47.16117" lon="-1.69416">
        <ele>71</ele>
        <time>2021-09-18T09:30:48.000Z</time>
      </trkpt>
      <trkpt lat="47.16116" lon="-1.69435">
        <ele>71</ele>
        <time>2021-09-18T09:30:50.000Z</time>
      </trkpt>
      <trkpt lat="47.16114" lon="-1.69455">
        <ele>71</ele>
        <time>2021-09-18T09:30:52.000Z</time>
      </trkpt>
      <trkpt lat="47.16113" lon="-1.69474">
        <ele>71</ele>
        <time>2021-09-18T09:30:54.000Z</time>
      </trkpt>
      <trkpt lat="47.16112" lon="-1.69493">
        <ele>72</ele>
        <time>2021-09-18T09:30:56.000Z</time>
      </trkpt>
      <trkpt lat="47.16111" lon="-1.69512">
        <ele>72</ele>
        <time>2021-09-18T09:30:58.000Z</time>
      </trkpt>
      <trkpt lat="47.16109" lon="-1.69531">
        <ele>72</ele>
        <time>2021-09-18T09:31:00.000Z</time>
      </trkpt>
      <trkpt lat="47.16108" lon="-1.69551">
        <ele>72</ele>
        <time>2021-09-18T09:31:02.000Z</time>
      </trkpt>
      <trkpt lat="47.16106" lon="-1.6957">
        <ele>72</ele>
        <time>2021-09-18T09:31:04.000Z</time>
      </trkpt>
      <trkpt lat="47.16104" lon="-1.69589">
        <ele>72</ele>
        <time>2021-09-18T09:31:06.000Z</time>
      </trkpt>
      <trkpt lat="47.16103" lon="-1.69608">
        <ele>72</ele>
        <time>2021-09-18T09:31:08.000Z</time>
      </trkpt>
      <trkpt lat="47.16102" lon="-1.69627">
        <ele>72</ele>
        <time>2021-09-18T09:31:10.000Z</time>
      </trkpt>
      <trkpt lat="47.16101" lon="-1.69646">
        <ele>72</ele>
        <time>2021-09-18T09:31:12.000Z</time>
      </trkpt>
      <trkpt lat="47.16099" lon="-1.69666">
        <ele>72</ele>
        <time>2021-09-18T09:31:14.000Z</time>
      </trkpt>
      <trkpt lat="47.16098" lon="-1.69685">
        <ele>73</ele>
        <time>2021-09-18T09:31:16.000Z</time>
      </trkpt>
      <trkpt lat="47.16096" lon="-1.69704">
        <ele>73</ele>
        <time>2021-09-18T09:31:18.000Z</time>
      </trkpt>
      <trkpt lat="47.16095" lon="-1.69724">
        <ele>73</ele>
        <time>2021-09-18T09:31:20.000Z</time>
      </trkpt>
      <trkpt lat="47.16094" lon="-1.69743">
        <ele>73</ele>
        <time>2021-09-18T09:31:22.000Z</time>
      </trkpt>
      <trkpt lat="47.16093" lon="-1.69763">
        <ele>73</ele>
        <time>2021-09-18T09:31:24.000Z</time>
      </trkpt>
      <trkpt lat="47.16091" lon="-1.69783">
        <ele>73</ele>
        <time>2021-09-18T09:31:26.000Z</time>
      </trkpt>
      <trkpt lat="47.1609" lon="-1.69802">
        <ele>74</ele>
        <time>2021-09-18T09:31:28.000Z</time>
      </trkpt>
      <trkpt lat="47.16089" lon="-1.69822">
        <ele>73</ele>
        <time>2021-09-18T09:31:30.000Z</time>
      </trkpt>
      <trkpt lat="47.16087" lon="-1.69841">
        <ele>74</ele>
        <time>2021-09-18T09:31:32.000Z</time>
      </trkpt>
      <trkpt lat="47.16086" lon="-1.69859">
        <ele>74</ele>
        <time>2021-09-18T09:31:34.000Z</time>
      </trkpt>
      <trkpt lat="47.16085" lon="-1.69878">
        <ele>74</ele>
        <time>2021-09-18T09:31:36.000Z</time>
      </trkpt>
      <trkpt lat="47.16083" lon="-1.69898">
        <ele>74</ele>
        <time>2021-09-18T09:31:38.000Z</time>
      </trkpt>
      <trkpt lat="47.16082" lon="-1.69916">
        <ele>74</ele>
        <time>2021-09-18T09:31:40.000Z</time>
      </trkpt>
      <trkpt lat="47.16081" lon="-1.69935">
        <ele>74</ele>
        <time>2021-09-18T09:31:42.000Z</time>
      </trkpt>
      <trkpt lat="47.16079" lon="-1.69954">
        <ele>74</ele>
        <time>2021-09-18T09:31:44.000Z</time>
      </trkpt>
      <trkpt lat="47.16078" lon="-1.69975">
        <ele>74</ele>
        <time>2021-09-18T09:31:46.000Z</time>
      </trkpt>
      <trkpt lat="47.16076" lon="-1.69994">
        <ele>74</ele>
        <time>2021-09-18T09:31:48.000Z</time>
      </trkpt>
      <trkpt lat="47.16075" lon="-1.70014">
        <ele>74</ele>
        <time>2021-09-18T09:31:50.000Z</time>
      </trkpt>
      <trkpt lat="47.16074" lon="-1.70033">
        <ele>74</ele>
        <time>2021-09-18T09:31:52.000Z</time>
      </trkpt>
      <trkpt lat="47.16073" lon="-1.70053">
        <ele>74</ele>
        <time>2021-09-18T09:31:54.000Z</time>
      </trkpt>
      <trkpt lat="47.16072" lon="-1.70073">
        <ele>74</ele>
        <time>2021-09-18T09:31:56.000Z</time>
      </trkpt>
      <trkpt lat="47.1607" lon="-1.70092">
        <ele>73</ele>
        <time>2021-09-18T09:31:58.000Z</time>
      </trkpt>
      <trkpt lat="47.16068" lon="-1.7011">
        <ele>74</ele>
        <time>2021-09-18T09:32:00.000Z</time>
      </trkpt>
      <trkpt lat="47.16065" lon="-1.70128">
        <ele>74</ele>
        <time>2021-09-18T09:32:02.000Z</time>
      </trkpt>
      <trkpt lat="47.1606" lon="-1.70146">
        <ele>74</ele>
        <time>2021-09-18T09:32:04.000Z</time>
      </trkpt>
      <trkpt lat="47.16055" lon="-1.70163">
        <ele>75</ele>
        <time>2021-09-18T09:32:06.000Z</time>
      </trkpt>
      <trkpt lat="47.16048" lon="-1.70177">
        <ele>75</ele>
        <time>2021-09-18T09:32:08.000Z</time>
      </trkpt>
      <trkpt lat="47.16042" lon="-1.70192">
        <ele>75</ele>
        <time>2021-09-18T09:32:10.000Z</time>
      </trkpt>
      <trkpt lat="47.16035" lon="-1.70206">
        <ele>76</ele>
        <time>2021-09-18T09:32:12.000Z</time>
      </trkpt>
      <trkpt lat="47.16029" lon="-1.70221">
        <ele>76</ele>
        <time>2021-09-18T09:32:14.000Z</time>
      </trkpt>
      <trkpt lat="47.16022" lon="-1.70236">
        <ele>76</ele>
        <time>2021-09-18T09:32:16.000Z</time>
      </trkpt>
      <trkpt lat="47.16016" lon="-1.70252">
        <ele>76</ele>
        <time>2021-09-18T09:32:18.000Z</time>
      </trkpt>
      <trkpt lat="47.16009" lon="-1.70266">
        <ele>76</ele>
        <time>2021-09-18T09:32:20.000Z</time>
      </trkpt>
      <trkpt lat="47.16002" lon="-1.70281">
        <ele>76</ele>
        <time>2021-09-18T09:32:22.000Z</time>
      </trkpt>
      <trkpt lat="47.15992" lon="-1.70303">
        <ele>76</ele>
        <time>2021-09-18T09:32:25.000Z</time>
      </trkpt>
      <trkpt lat="47.15982" lon="-1.70327">
        <ele>76</ele>
        <time>2021-09-18T09:32:28.000Z</time>
      </trkpt>
      <trkpt lat="47.15975" lon="-1.70342">
        <ele>75</ele>
        <time>2021-09-18T09:32:30.000Z</time>
      </trkpt>
      <trkpt lat="47.15968" lon="-1.70357">
        <ele>75</ele>
        <time>2021-09-18T09:32:32.000Z</time>
      </trkpt>
      <trkpt lat="47.15962" lon="-1.70372">
        <ele>75</ele>
        <time>2021-09-18T09:32:34.000Z</time>
      </trkpt>
      <trkpt lat="47.15955" lon="-1.70387">
        <ele>75</ele>
        <time>2021-09-18T09:32:36.000Z</time>
      </trkpt>
      <trkpt lat="47.15949" lon="-1.70402">
        <ele>75</ele>
        <time>2021-09-18T09:32:38.000Z</time>
      </trkpt>
      <trkpt lat="47.15942" lon="-1.70417">
        <ele>75</ele>
        <time>2021-09-18T09:32:40.000Z</time>
      </trkpt>
      <trkpt lat="47.15935" lon="-1.70432">
        <ele>75</ele>
        <time>2021-09-18T09:32:42.000Z</time>
      </trkpt>
      <trkpt lat="47.15925" lon="-1.70453">
        <ele>75</ele>
        <time>2021-09-18T09:32:45.000Z</time>
      </trkpt>
      <trkpt lat="47.15918" lon="-1.70468">
        <ele>75</ele>
        <time>2021-09-18T09:32:47.000Z</time>
      </trkpt>
      <trkpt lat="47.1591" lon="-1.70483">
        <ele>75</ele>
        <time>2021-09-18T09:32:49.000Z</time>
      </trkpt>
      <trkpt lat="47.15902" lon="-1.70498">
        <ele>74</ele>
        <time>2021-09-18T09:32:51.000Z</time>
      </trkpt>
      <trkpt lat="47.15896" lon="-1.70514">
        <ele>74</ele>
        <time>2021-09-18T09:32:53.000Z</time>
      </trkpt>
      <trkpt lat="47.15891" lon="-1.70531">
        <ele>74</ele>
        <time>2021-09-18T09:32:55.000Z</time>
      </trkpt>
      <trkpt lat="47.15886" lon="-1.70547">
        <ele>73</ele>
        <time>2021-09-18T09:32:57.000Z</time>
      </trkpt>
      <trkpt lat="47.15881" lon="-1.70564">
        <ele>73</ele>
        <time>2021-09-18T09:32:59.000Z</time>
      </trkpt>
      <trkpt lat="47.15876" lon="-1.70581">
        <ele>73</ele>
        <time>2021-09-18T09:33:01.000Z</time>
      </trkpt>
      <trkpt lat="47.15871" lon="-1.70597">
        <ele>73</ele>
        <time>2021-09-18T09:33:03.000Z</time>
      </trkpt>
      <trkpt lat="47.15867" lon="-1.70614">
        <ele>73</ele>
        <time>2021-09-18T09:33:05.000Z</time>
      </trkpt>
      <trkpt lat="47.15862" lon="-1.7063">
        <ele>73</ele>
        <time>2021-09-18T09:33:07.000Z</time>
      </trkpt>
      <trkpt lat="47.15857" lon="-1.70646">
        <ele>72</ele>
        <time>2021-09-18T09:33:09.000Z</time>
      </trkpt>
      <trkpt lat="47.15851" lon="-1.70661">
        <ele>73</ele>
        <time>2021-09-18T09:33:11.000Z</time>
      </trkpt>
      <trkpt lat="47.15845" lon="-1.70675">
        <ele>73</ele>
        <time>2021-09-18T09:33:13.000Z</time>
      </trkpt>
      <trkpt lat="47.15839" lon="-1.7069">
        <ele>73</ele>
        <time>2021-09-18T09:33:15.000Z</time>
      </trkpt>
      <trkpt lat="47.15832" lon="-1.70704">
        <ele>73</ele>
        <time>2021-09-18T09:33:17.000Z</time>
      </trkpt>
      <trkpt lat="47.15825" lon="-1.70718">
        <ele>72</ele>
        <time>2021-09-18T09:33:19.000Z</time>
      </trkpt>
      <trkpt lat="47.15819" lon="-1.70733">
        <ele>72</ele>
        <time>2021-09-18T09:33:21.000Z</time>
      </trkpt>
      <trkpt lat="47.15812" lon="-1.70747">
        <ele>72</ele>
        <time>2021-09-18T09:33:23.000Z</time>
      </trkpt>
      <trkpt lat="47.15805" lon="-1.70762">
        <ele>72</ele>
        <time>2021-09-18T09:33:25.000Z</time>
      </trkpt>
      <trkpt lat="47.15799" lon="-1.70776">
        <ele>72</ele>
        <time>2021-09-18T09:33:27.000Z</time>
      </trkpt>
      <trkpt lat="47.15793" lon="-1.7079">
        <ele>72</ele>
        <time>2021-09-18T09:33:29.000Z</time>
      </trkpt>
      <trkpt lat="47.15786" lon="-1.70805">
        <ele>73</ele>
        <time>2021-09-18T09:33:31.000Z</time>
      </trkpt>
      <trkpt lat="47.15779" lon="-1.70819">
        <ele>73</ele>
        <time>2021-09-18T09:33:33.000Z</time>
      </trkpt>
      <trkpt lat="47.15772" lon="-1.70834">
        <ele>73</ele>
        <time>2021-09-18T09:33:35.000Z</time>
      </trkpt>
      <trkpt lat="47.15765" lon="-1.70848">
        <ele>73</ele>
        <time>2021-09-18T09:33:37.000Z</time>
      </trkpt>
      <trkpt lat="47.15758" lon="-1.70861">
        <ele>73</ele>
        <time>2021-09-18T09:33:39.000Z</time>
      </trkpt>
      <trkpt lat="47.1575" lon="-1.70875">
        <ele>73</ele>
        <time>2021-09-18T09:33:41.000Z</time>
      </trkpt>
      <trkpt lat="47.15743" lon="-1.70888">
        <ele>73</ele>
        <time>2021-09-18T09:33:43.000Z</time>
      </trkpt>
      <trkpt lat="47.15735" lon="-1.70901">
        <ele>73</ele>
        <time>2021-09-18T09:33:45.000Z</time>
      </trkpt>
      <trkpt lat="47.15727" lon="-1.70914">
        <ele>72</ele>
        <time>2021-09-18T09:33:47.000Z</time>
      </trkpt>
      <trkpt lat="47.1572" lon="-1.70928">
        <ele>73</ele>
        <time>2021-09-18T09:33:49.000Z</time>
      </trkpt>
      <trkpt lat="47.15712" lon="-1.70942">
        <ele>73</ele>
        <time>2021-09-18T09:33:51.000Z</time>
      </trkpt>
      <trkpt lat="47.15706" lon="-1.70956">
        <ele>73</ele>
        <time>2021-09-18T09:33:53.000Z</time>
      </trkpt>
      <trkpt lat="47.15699" lon="-1.7097">
        <ele>72</ele>
        <time>2021-09-18T09:33:55.000Z</time>
      </trkpt>
      <trkpt lat="47.15692" lon="-1.70983">
        <ele>73</ele>
        <time>2021-09-18T09:33:57.000Z</time>
      </trkpt>
      <trkpt lat="47.15686" lon="-1.70997">
        <ele>72</ele>
        <time>2021-09-18T09:33:59.000Z</time>
      </trkpt>
      <trkpt lat="47.15679" lon="-1.71012">
        <ele>72</ele>
        <time>2021-09-18T09:34:01.000Z</time>
      </trkpt>
      <trkpt lat="47.15673" lon="-1.71025">
        <ele>72</ele>
        <time>2021-09-18T09:34:03.000Z</time>
      </trkpt>
      <trkpt lat="47.15667" lon="-1.71038">
        <ele>72</ele>
        <time>2021-09-18T09:34:05.000Z</time>
      </trkpt>
      <trkpt lat="47.15661" lon="-1.71049">
        <ele>72</ele>
        <time>2021-09-18T09:34:07.000Z</time>
      </trkpt>
      <trkpt lat="47.15653" lon="-1.71066">
        <ele>72</ele>
        <time>2021-09-18T09:34:10.000Z</time>
      </trkpt>
      <trkpt lat="47.15644" lon="-1.71071">
        <ele>73</ele>
        <time>2021-09-18T09:34:12.000Z</time>
      </trkpt>
      <trkpt lat="47.15634" lon="-1.71079">
        <ele>73</ele>
        <time>2021-09-18T09:34:14.000Z</time>
      </trkpt>
      <trkpt lat="47.15626" lon="-1.71092">
        <ele>73</ele>
        <time>2021-09-18T09:34:16.000Z</time>
      </trkpt>
      <trkpt lat="47.15618" lon="-1.71107">
        <ele>73</ele>
        <time>2021-09-18T09:34:18.000Z</time>
      </trkpt>
      <trkpt lat="47.1561" lon="-1.71121">
        <ele>73</ele>
        <time>2021-09-18T09:34:20.000Z</time>
      </trkpt>
      <trkpt lat="47.15602" lon="-1.71135">
        <ele>73</ele>
        <time>2021-09-18T09:34:22.000Z</time>
      </trkpt>
      <trkpt lat="47.15595" lon="-1.71148">
        <ele>73</ele>
        <time>2021-09-18T09:34:24.000Z</time>
      </trkpt>
      <trkpt lat="47.15588" lon="-1.71161">
        <ele>73</ele>
        <time>2021-09-18T09:34:26.000Z</time>
      </trkpt>
      <trkpt lat="47.1558" lon="-1.71173">
        <ele>73</ele>
        <time>2021-09-18T09:34:28.000Z</time>
      </trkpt>
      <trkpt lat="47.15572" lon="-1.71186">
        <ele>74</ele>
        <time>2021-09-18T09:34:30.000Z</time>
      </trkpt>
      <trkpt lat="47.15564" lon="-1.712">
        <ele>73</ele>
        <time>2021-09-18T09:34:32.000Z</time>
      </trkpt>
      <trkpt lat="47.15557" lon="-1.71215">
        <ele>73</ele>
        <time>2021-09-18T09:34:34.000Z</time>
      </trkpt>
      <trkpt lat="47.1555" lon="-1.71229">
        <ele>74</ele>
        <time>2021-09-18T09:34:36.000Z</time>
      </trkpt>
      <trkpt lat="47.15544" lon="-1.71244">
        <ele>74</ele>
        <time>2021-09-18T09:34:38.000Z</time>
      </trkpt>
      <trkpt lat="47.15538" lon="-1.7126">
        <ele>73</ele>
        <time>2021-09-18T09:34:40.000Z</time>
      </trkpt>
      <trkpt lat="47.15531" lon="-1.71275">
        <ele>73</ele>
        <time>2021-09-18T09:34:42.000Z</time>
      </trkpt>
      <trkpt lat="47.15524" lon="-1.7129">
        <ele>74</ele>
        <time>2021-09-18T09:34:44.000Z</time>
      </trkpt>
      <trkpt lat="47.15517" lon="-1.71305">
        <ele>74</ele>
        <time>2021-09-18T09:34:46.000Z</time>
      </trkpt>
      <trkpt lat="47.1551" lon="-1.71319">
        <ele>74</ele>
        <time>2021-09-18T09:34:48.000Z</time>
      </trkpt>
      <trkpt lat="47.15503" lon="-1.71333">
        <ele>74</ele>
        <time>2021-09-18T09:34:50.000Z</time>
      </trkpt>
      <trkpt lat="47.15495" lon="-1.71346">
        <ele>74</ele>
        <time>2021-09-18T09:34:52.000Z</time>
      </trkpt>
      <trkpt lat="47.15488" lon="-1.7136">
        <ele>73</ele>
        <time>2021-09-18T09:34:54.000Z</time>
      </trkpt>
      <trkpt lat="47.15479" lon="-1.71372">
        <ele>73</ele>
        <time>2021-09-18T09:34:56.000Z</time>
      </trkpt>
      <trkpt lat="47.15469" lon="-1.71384">
        <ele>73</ele>
        <time>2021-09-18T09:34:58.000Z</time>
      </trkpt>
      <trkpt lat="47.1546" lon="-1.71395">
        <ele>73</ele>
        <time>2021-09-18T09:35:00.000Z</time>
      </trkpt>
      <trkpt lat="47.1545" lon="-1.71406">
        <ele>73</ele>
        <time>2021-09-18T09:35:02.000Z</time>
      </trkpt>
      <trkpt lat="47.1544" lon="-1.71416">
        <ele>73</ele>
        <time>2021-09-18T09:35:04.000Z</time>
      </trkpt>
      <trkpt lat="47.1543" lon="-1.71426">
        <ele>73</ele>
        <time>2021-09-18T09:35:06.000Z</time>
      </trkpt>
      <trkpt lat="47.15419" lon="-1.71435">
        <ele>73</ele>
        <time>2021-09-18T09:35:08.000Z</time>
      </trkpt>
      <trkpt lat="47.15409" lon="-1.71445">
        <ele>73</ele>
        <time>2021-09-18T09:35:10.000Z</time>
      </trkpt>
      <trkpt lat="47.15398" lon="-1.71455">
        <ele>72</ele>
        <time>2021-09-18T09:35:12.000Z</time>
      </trkpt>
      <trkpt lat="47.15388" lon="-1.71463">
        <ele>72</ele>
        <time>2021-09-18T09:35:14.000Z</time>
      </trkpt>
      <trkpt lat="47.15377" lon="-1.71472">
        <ele>72</ele>
        <time>2021-09-18T09:35:16.000Z</time>
      </trkpt>
      <trkpt lat="47.15366" lon="-1.71481">
        <ele>72</ele>
        <time>2021-09-18T09:35:18.000Z</time>
      </trkpt>
      <trkpt lat="47.15356" lon="-1.71491">
        <ele>72</ele>
        <time>2021-09-18T09:35:20.000Z</time>
      </trkpt>
      <trkpt lat="47.15346" lon="-1.71502">
        <ele>72</ele>
        <time>2021-09-18T09:35:22.000Z</time>
      </trkpt>
      <trkpt lat="47.15336" lon="-1.71513">
        <ele>72</ele>
        <time>2021-09-18T09:35:24.000Z</time>
      </trkpt>
      <trkpt lat="47.15326" lon="-1.71524">
        <ele>72</ele>
        <time>2021-09-18T09:35:26.000Z</time>
      </trkpt>
      <trkpt lat="47.15316" lon="-1.71535">
        <ele>71</ele>
        <time>2021-09-18T09:35:28.000Z</time>
      </trkpt>
      <trkpt lat="47.15306" lon="-1.71547">
        <ele>71</ele>
        <time>2021-09-18T09:35:30.000Z</time>
      </trkpt>
      <trkpt lat="47.15296" lon="-1.71557">
        <ele>71</ele>
        <time>2021-09-18T09:35:32.000Z</time>
      </trkpt>
      <trkpt lat="47.15285" lon="-1.71568">
        <ele>71</ele>
        <time>2021-09-18T09:35:34.000Z</time>
      </trkpt>
      <trkpt lat="47.15275" lon="-1.7158">
        <ele>71</ele>
        <time>2021-09-18T09:35:36.000Z</time>
      </trkpt>
      <trkpt lat="47.15264" lon="-1.71591">
        <ele>71</ele>
        <time>2021-09-18T09:35:38.000Z</time>
      </trkpt>
      <trkpt lat="47.15254" lon="-1.71603">
        <ele>71</ele>
        <time>2021-09-18T09:35:40.000Z</time>
      </trkpt>
      <trkpt lat="47.15245" lon="-1.71615">
        <ele>71</ele>
        <time>2021-09-18T09:35:42.000Z</time>
      </trkpt>
      <trkpt lat="47.15235" lon="-1.71625">
        <ele>71</ele>
        <time>2021-09-18T09:35:44.000Z</time>
      </trkpt>
      <trkpt lat="47.15223" lon="-1.71621">
        <ele>71</ele>
        <time>2021-09-18T09:35:46.000Z</time>
      </trkpt>
      <trkpt lat="47.15212" lon="-1.71611">
        <ele>70</ele>
        <time>2021-09-18T09:35:48.000Z</time>
      </trkpt>
      <trkpt lat="47.15201" lon="-1.71603">
        <ele>70</ele>
        <time>2021-09-18T09:35:50.000Z</time>
      </trkpt>
      <trkpt lat="47.1519" lon="-1.71595">
        <ele>70</ele>
        <time>2021-09-18T09:35:52.000Z</time>
      </trkpt>
      <trkpt lat="47.15179" lon="-1.71586">
        <ele>70</ele>
        <time>2021-09-18T09:35:54.000Z</time>
      </trkpt>
      <trkpt lat="47.15168" lon="-1.71577">
        <ele>70</ele>
        <time>2021-09-18T09:35:56.000Z</time>
      </trkpt>
      <trkpt lat="47.15156" lon="-1.71569">
        <ele>70</ele>
        <time>2021-09-18T09:35:58.000Z</time>
      </trkpt>
      <trkpt lat="47.15145" lon="-1.71561">
        <ele>71</ele>
        <time>2021-09-18T09:36:00.000Z</time>
      </trkpt>
      <trkpt lat="47.15134" lon="-1.71552">
        <ele>71</ele>
        <time>2021-09-18T09:36:02.000Z</time>
      </trkpt>
      <trkpt lat="47.15122" lon="-1.71543">
        <ele>70</ele>
        <time>2021-09-18T09:36:04.000Z</time>
      </trkpt>
      <trkpt lat="47.15111" lon="-1.71533">
        <ele>71</ele>
        <time>2021-09-18T09:36:06.000Z</time>
      </trkpt>
      <trkpt lat="47.15101" lon="-1.71523">
        <ele>71</ele>
        <time>2021-09-18T09:36:08.000Z</time>
      </trkpt>
      <trkpt lat="47.15091" lon="-1.71514">
        <ele>71</ele>
        <time>2021-09-18T09:36:10.000Z</time>
      </trkpt>
      <trkpt lat="47.1508" lon="-1.71503">
        <ele>71</ele>
        <time>2021-09-18T09:36:12.000Z</time>
      </trkpt>
      <trkpt lat="47.1507" lon="-1.71493">
        <ele>71</ele>
        <time>2021-09-18T09:36:14.000Z</time>
      </trkpt>
      <trkpt lat="47.15059" lon="-1.71483">
        <ele>72</ele>
        <time>2021-09-18T09:36:16.000Z</time>
      </trkpt>
      <trkpt lat="47.15049" lon="-1.71473">
        <ele>72</ele>
        <time>2021-09-18T09:36:18.000Z</time>
      </trkpt>
      <trkpt lat="47.15039" lon="-1.71463">
        <ele>72</ele>
        <time>2021-09-18T09:36:20.000Z</time>
      </trkpt>
      <trkpt lat="47.15029" lon="-1.71453">
        <ele>72</ele>
        <time>2021-09-18T09:36:22.000Z</time>
      </trkpt>
      <trkpt lat="47.15019" lon="-1.71443">
        <ele>72</ele>
        <time>2021-09-18T09:36:24.000Z</time>
      </trkpt>
      <trkpt lat="47.15009" lon="-1.71433">
        <ele>71</ele>
        <time>2021-09-18T09:36:26.000Z</time>
      </trkpt>
      <trkpt lat="47.14999" lon="-1.71423">
        <ele>71</ele>
        <time>2021-09-18T09:36:28.000Z</time>
      </trkpt>
      <trkpt lat="47.14989" lon="-1.71413">
        <ele>71</ele>
        <time>2021-09-18T09:36:30.000Z</time>
      </trkpt>
      <trkpt lat="47.14979" lon="-1.71403">
        <ele>72</ele>
        <time>2021-09-18T09:36:32.000Z</time>
      </trkpt>
      <trkpt lat="47.14969" lon="-1.71393">
        <ele>72</ele>
        <time>2021-09-18T09:36:34.000Z</time>
      </trkpt>
      <trkpt lat="47.14959" lon="-1.71383">
        <ele>72</ele>
        <time>2021-09-18T09:36:36.000Z</time>
      </trkpt>
      <trkpt lat="47.14949" lon="-1.71373">
        <ele>72</ele>
        <time>2021-09-18T09:36:38.000Z</time>
      </trkpt>
      <trkpt lat="47.1494" lon="-1.71363">
        <ele>72</ele>
        <time>2021-09-18T09:36:40.000Z</time>
      </trkpt>
      <trkpt lat="47.14931" lon="-1.71352">
        <ele>72</ele>
        <time>2021-09-18T09:36:42.000Z</time>
      </trkpt>
      <trkpt lat="47.14922" lon="-1.7134">
        <ele>73</ele>
        <time>2021-09-18T09:36:44.000Z</time>
      </trkpt>
      <trkpt lat="47.14913" lon="-1.71329">
        <ele>72</ele>
        <time>2021-09-18T09:36:46.000Z</time>
      </trkpt>
      <trkpt lat="47.14904" lon="-1.71317">
        <ele>72</ele>
        <time>2021-09-18T09:36:48.000Z</time>
      </trkpt>
      <trkpt lat="47.14895" lon="-1.71306">
        <ele>72</ele>
        <time>2021-09-18T09:36:50.000Z</time>
      </trkpt>
      <trkpt lat="47.14885" lon="-1.71295">
        <ele>72</ele>
        <time>2021-09-18T09:36:52.000Z</time>
      </trkpt>
      <trkpt lat="47.14875" lon="-1.71286">
        <ele>72</ele>
        <time>2021-09-18T09:36:54.000Z</time>
      </trkpt>
      <trkpt lat="47.14865" lon="-1.71276">
        <ele>72</ele>
        <time>2021-09-18T09:36:56.000Z</time>
      </trkpt>
      <trkpt lat="47.14856" lon="-1.71265">
        <ele>72</ele>
        <time>2021-09-18T09:36:58.000Z</time>
      </trkpt>
      <trkpt lat="47.14848" lon="-1.71251">
        <ele>72</ele>
        <time>2021-09-18T09:37:00.000Z</time>
      </trkpt>
      <trkpt lat="47.14841" lon="-1.71236">
        <ele>73</ele>
        <time>2021-09-18T09:37:02.000Z</time>
      </trkpt>
      <trkpt lat="47.14835" lon="-1.7122">
        <ele>73</ele>
        <time>2021-09-18T09:37:04.000Z</time>
      </trkpt>
      <trkpt lat="47.1483" lon="-1.71204">
        <ele>73</ele>
        <time>2021-09-18T09:37:06.000Z</time>
      </trkpt>
      <trkpt lat="47.14824" lon="-1.71189">
        <ele>73</ele>
        <time>2021-09-18T09:37:08.000Z</time>
      </trkpt>
      <trkpt lat="47.14819" lon="-1.71173">
        <ele>73</ele>
        <time>2021-09-18T09:37:10.000Z</time>
      </trkpt>
      <trkpt lat="47.14812" lon="-1.71157">
        <ele>73</ele>
        <time>2021-09-18T09:37:12.000Z</time>
      </trkpt>
      <trkpt lat="47.14806" lon="-1.7114">
        <ele>73</ele>
        <time>2021-09-18T09:37:14.000Z</time>
      </trkpt>
      <trkpt lat="47.14799" lon="-1.71125">
        <ele>74</ele>
        <time>2021-09-18T09:37:16.000Z</time>
      </trkpt>
      <trkpt lat="47.14792" lon="-1.71109">
        <ele>74</ele>
        <time>2021-09-18T09:37:18.000Z</time>
      </trkpt>
      <trkpt lat="47.14785" lon="-1.71093">
        <ele>74</ele>
        <time>2021-09-18T09:37:20.000Z</time>
      </trkpt>
      <trkpt lat="47.14778" lon="-1.71077">
        <ele>74</ele>
        <time>2021-09-18T09:37:22.000Z</time>
      </trkpt>
      <trkpt lat="47.14772" lon="-1.71062">
        <ele>74</ele>
        <time>2021-09-18T09:37:24.000Z</time>
      </trkpt>
      <trkpt lat="47.14767" lon="-1.71045">
        <ele>74</ele>
        <time>2021-09-18T09:37:26.000Z</time>
      </trkpt>
      <trkpt lat="47.14761" lon="-1.71029">
        <ele>73</ele>
        <time>2021-09-18T09:37:28.000Z</time>
      </trkpt>
      <trkpt lat="47.14757" lon="-1.71012">
        <ele>73</ele>
        <time>2021-09-18T09:37:30.000Z</time>
      </trkpt>
      <trkpt lat="47.14752" lon="-1.70996">
        <ele>73</ele>
        <time>2021-09-18T09:37:32.000Z</time>
      </trkpt>
      <trkpt lat="47.14746" lon="-1.70982">
        <ele>73</ele>
        <time>2021-09-18T09:37:34.000Z</time>
      </trkpt>
      <trkpt lat="47.14734" lon="-1.70985">
        <ele>72</ele>
        <time>2021-09-18T09:37:36.000Z</time>
      </trkpt>
      <trkpt lat="47.14725" lon="-1.70997">
        <ele>72</ele>
        <time>2021-09-18T09:37:38.000Z</time>
      </trkpt>
      <trkpt lat="47.14716" lon="-1.71012">
        <ele>73</ele>
        <time>2021-09-18T09:37:40.000Z</time>
      </trkpt>
      <trkpt lat="47.14711" lon="-1.71028">
        <ele>73</ele>
        <time>2021-09-18T09:37:42.000Z</time>
      </trkpt>
      <trkpt lat="47.14711" lon="-1.71047">
        <ele>73</ele>
        <time>2021-09-18T09:37:44.000Z</time>
      </trkpt>
      <trkpt lat="47.14712" lon="-1.71065">
        <ele>73</ele>
        <time>2021-09-18T09:37:46.000Z</time>
      </trkpt>
      <trkpt lat="47.14714" lon="-1.71083">
        <ele>73</ele>
        <time>2021-09-18T09:37:48.000Z</time>
      </trkpt>
      <trkpt lat="47.14717" lon="-1.711">
        <ele>73</ele>
        <time>2021-09-18T09:37:50.000Z</time>
      </trkpt>
      <trkpt lat="47.14719" lon="-1.71118">
        <ele>74</ele>
        <time>2021-09-18T09:37:52.000Z</time>
      </trkpt>
      <trkpt lat="47.14722" lon="-1.71136">
        <ele>73</ele>
        <time>2021-09-18T09:37:54.000Z</time>
      </trkpt>
      <trkpt lat="47.14724" lon="-1.71154">
        <ele>73</ele>
        <time>2021-09-18T09:37:56.000Z</time>
      </trkpt>
      <trkpt lat="47.14727" lon="-1.71172">
        <ele>73</ele>
        <time>2021-09-18T09:37:58.000Z</time>
      </trkpt>
      <trkpt lat="47.14731" lon="-1.71188">
        <ele>73</ele>
        <time>2021-09-18T09:38:00.000Z</time>
      </trkpt>
      <trkpt lat="47.14736" lon="-1.71204">
        <ele>74</ele>
        <time>2021-09-18T09:38:02.000Z</time>
      </trkpt>
      <trkpt lat="47.1474" lon="-1.71222">
        <ele>74</ele>
        <time>2021-09-18T09:38:04.000Z</time>
      </trkpt>
      <trkpt lat="47.14745" lon="-1.71239">
        <ele>75</ele>
        <time>2021-09-18T09:38:06.000Z</time>
      </trkpt>
      <trkpt lat="47.14749" lon="-1.71255">
        <ele>75</ele>
        <time>2021-09-18T09:38:08.000Z</time>
      </trkpt>
      <trkpt lat="47.14753" lon="-1.71272">
        <ele>75</ele>
        <time>2021-09-18T09:38:10.000Z</time>
      </trkpt>
      <trkpt lat="47.14757" lon="-1.71289">
        <ele>75</ele>
        <time>2021-09-18T09:38:12.000Z</time>
      </trkpt>
      <trkpt lat="47.14761" lon="-1.71307">
        <ele>76</ele>
        <time>2021-09-18T09:38:14.000Z</time>
      </trkpt>
      <trkpt lat="47.14763" lon="-1.71324">
        <ele>76</ele>
        <time>2021-09-18T09:38:16.000Z</time>
      </trkpt>
      <trkpt lat="47.14766" lon="-1.71342">
        <ele>76</ele>
        <time>2021-09-18T09:38:18.000Z</time>
      </trkpt>
      <trkpt lat="47.14769" lon="-1.7136">
        <ele>76</ele>
        <time>2021-09-18T09:38:20.000Z</time>
      </trkpt>
      <trkpt lat="47.14772" lon="-1.71377">
        <ele>76</ele>
        <time>2021-09-18T09:38:22.000Z</time>
      </trkpt>
      <trkpt lat="47.14775" lon="-1.71395">
        <ele>76</ele>
        <time>2021-09-18T09:38:24.000Z</time>
      </trkpt>
      <trkpt lat="47.14777" lon="-1.71413">
        <ele>76</ele>
        <time>2021-09-18T09:38:26.000Z</time>
      </trkpt>
      <trkpt lat="47.1478" lon="-1.7143">
        <ele>76</ele>
        <time>2021-09-18T09:38:28.000Z</time>
      </trkpt>
      <trkpt lat="47.14783" lon="-1.71448">
        <ele>75</ele>
        <time>2021-09-18T09:38:30.000Z</time>
      </trkpt>
      <trkpt lat="47.14785" lon="-1.71466">
        <ele>75</ele>
        <time>2021-09-18T09:38:32.000Z</time>
      </trkpt>
      <trkpt lat="47.14788" lon="-1.71484">
        <ele>75</ele>
        <time>2021-09-18T09:38:34.000Z</time>
      </trkpt>
      <trkpt lat="47.1479" lon="-1.71502">
        <ele>75</ele>
        <time>2021-09-18T09:38:36.000Z</time>
      </trkpt>
      <trkpt lat="47.14792" lon="-1.7152">
        <ele>75</ele>
        <time>2021-09-18T09:38:38.000Z</time>
      </trkpt>
      <trkpt lat="47.14792" lon="-1.71539">
        <ele>75</ele>
        <time>2021-09-18T09:38:40.000Z</time>
      </trkpt>
      <trkpt lat="47.14792" lon="-1.71557">
        <ele>75</ele>
        <time>2021-09-18T09:38:42.000Z</time>
      </trkpt>
      <trkpt lat="47.14791" lon="-1.71576">
        <ele>76</ele>
        <time>2021-09-18T09:38:44.000Z</time>
      </trkpt>
      <trkpt lat="47.14788" lon="-1.71593">
        <ele>76</ele>
        <time>2021-09-18T09:38:46.000Z</time>
      </trkpt>
      <trkpt lat="47.14786" lon="-1.71612">
        <ele>75</ele>
        <time>2021-09-18T09:38:48.000Z</time>
      </trkpt>
      <trkpt lat="47.14783" lon="-1.71629">
        <ele>75</ele>
        <time>2021-09-18T09:38:50.000Z</time>
      </trkpt>
      <trkpt lat="47.1478" lon="-1.71647">
        <ele>75</ele>
        <time>2021-09-18T09:38:52.000Z</time>
      </trkpt>
      <trkpt lat="47.14777" lon="-1.71665">
        <ele>75</ele>
        <time>2021-09-18T09:38:54.000Z</time>
      </trkpt>
      <trkpt lat="47.14775" lon="-1.71682">
        <ele>75</ele>
        <time>2021-09-18T09:38:56.000Z</time>
      </trkpt>
      <trkpt lat="47.14772" lon="-1.71699">
        <ele>75</ele>
        <time>2021-09-18T09:38:58.000Z</time>
      </trkpt>
      <trkpt lat="47.14769" lon="-1.71716">
        <ele>75</ele>
        <time>2021-09-18T09:39:00.000Z</time>
      </trkpt>
      <trkpt lat="47.14767" lon="-1.71733">
        <ele>75</ele>
        <time>2021-09-18T09:39:02.000Z</time>
      </trkpt>
      <trkpt lat="47.14764" lon="-1.71749">
        <ele>76</ele>
        <time>2021-09-18T09:39:04.000Z</time>
      </trkpt>
      <trkpt lat="47.1476" lon="-1.71766">
        <ele>76</ele>
        <time>2021-09-18T09:39:06.000Z</time>
      </trkpt>
      <trkpt lat="47.14755" lon="-1.71781">
        <ele>76</ele>
        <time>2021-09-18T09:39:08.000Z</time>
      </trkpt>
      <trkpt lat="47.14748" lon="-1.71795">
        <ele>76</ele>
        <time>2021-09-18T09:39:10.000Z</time>
      </trkpt>
      <trkpt lat="47.1474" lon="-1.71807">
        <ele>75</ele>
        <time>2021-09-18T09:39:12.000Z</time>
      </trkpt>
      <trkpt lat="47.14729" lon="-1.71817">
        <ele>75</ele>
        <time>2021-09-18T09:39:14.000Z</time>
      </trkpt>
      <trkpt lat="47.14718" lon="-1.71825">
        <ele>75</ele>
        <time>2021-09-18T09:39:16.000Z</time>
      </trkpt>
      <trkpt lat="47.14706" lon="-1.71831">
        <ele>75</ele>
        <time>2021-09-18T09:39:18.000Z</time>
      </trkpt>
      <trkpt lat="47.14695" lon="-1.71836">
        <ele>75</ele>
        <time>2021-09-18T09:39:20.000Z</time>
      </trkpt>
      <trkpt lat="47.14683" lon="-1.71843">
        <ele>74</ele>
        <time>2021-09-18T09:39:22.000Z</time>
      </trkpt>
      <trkpt lat="47.1467" lon="-1.71849">
        <ele>74</ele>
        <time>2021-09-18T09:39:24.000Z</time>
      </trkpt>
      <trkpt lat="47.14658" lon="-1.71853">
        <ele>74</ele>
        <time>2021-09-18T09:39:26.000Z</time>
      </trkpt>
      <trkpt lat="47.14645" lon="-1.71857">
        <ele>74</ele>
        <time>2021-09-18T09:39:28.000Z</time>
      </trkpt>
      <trkpt lat="47.14632" lon="-1.71858">
        <ele>73</ele>
        <time>2021-09-18T09:39:30.000Z</time>
      </trkpt>
      <trkpt lat="47.14619" lon="-1.71857">
        <ele>73</ele>
        <time>2021-09-18T09:39:32.000Z</time>
      </trkpt>
      <trkpt lat="47.14606" lon="-1.71854">
        <ele>73</ele>
        <time>2021-09-18T09:39:34.000Z</time>
      </trkpt>
      <trkpt lat="47.14594" lon="-1.7185">
        <ele>73</ele>
        <time>2021-09-18T09:39:36.000Z</time>
      </trkpt>
      <trkpt lat="47.14582" lon="-1.71845">
        <ele>73</ele>
        <time>2021-09-18T09:39:38.000Z</time>
      </trkpt>
      <trkpt lat="47.14569" lon="-1.71839">
        <ele>73</ele>
        <time>2021-09-18T09:39:40.000Z</time>
      </trkpt>
      <trkpt lat="47.14558" lon="-1.71832">
        <ele>72</ele>
        <time>2021-09-18T09:39:42.000Z</time>
      </trkpt>
      <trkpt lat="47.14545" lon="-1.71826">
        <ele>72</ele>
        <time>2021-09-18T09:39:44.000Z</time>
      </trkpt>
      <trkpt lat="47.14533" lon="-1.7182">
        <ele>72</ele>
        <time>2021-09-18T09:39:46.000Z</time>
      </trkpt>
      <trkpt lat="47.1452" lon="-1.71814">
        <ele>72</ele>
        <time>2021-09-18T09:39:48.000Z</time>
      </trkpt>
      <trkpt lat="47.14508" lon="-1.71808">
        <ele>72</ele>
        <time>2021-09-18T09:39:50.000Z</time>
      </trkpt>
      <trkpt lat="47.14496" lon="-1.71802">
        <ele>72</ele>
        <time>2021-09-18T09:39:52.000Z</time>
      </trkpt>
      <trkpt lat="47.14483" lon="-1.71796">
        <ele>72</ele>
        <time>2021-09-18T09:39:54.000Z</time>
      </trkpt>
      <trkpt lat="47.14471" lon="-1.71791">
        <ele>71</ele>
        <time>2021-09-18T09:39:56.000Z</time>
      </trkpt>
      <trkpt lat="47.14459" lon="-1.71786">
        <ele>71</ele>
        <time>2021-09-18T09:39:58.000Z</time>
      </trkpt>
      <trkpt lat="47.14447" lon="-1.71782">
        <ele>71</ele>
        <time>2021-09-18T09:40:00.000Z</time>
      </trkpt>
      <trkpt lat="47.14434" lon="-1.7178">
        <ele>71</ele>
        <time>2021-09-18T09:40:02.000Z</time>
      </trkpt>
      <trkpt lat="47.14421" lon="-1.7178">
        <ele>71</ele>
        <time>2021-09-18T09:40:04.000Z</time>
      </trkpt>
      <trkpt lat="47.14408" lon="-1.71781">
        <ele>71</ele>
        <time>2021-09-18T09:40:06.000Z</time>
      </trkpt>
      <trkpt lat="47.14395" lon="-1.71784">
        <ele>70</ele>
        <time>2021-09-18T09:40:08.000Z</time>
      </trkpt>
      <trkpt lat="47.14382" lon="-1.71788">
        <ele>70</ele>
        <time>2021-09-18T09:40:10.000Z</time>
      </trkpt>
      <trkpt lat="47.1437" lon="-1.71792">
        <ele>70</ele>
        <time>2021-09-18T09:40:12.000Z</time>
      </trkpt>
      <trkpt lat="47.14357" lon="-1.71796">
        <ele>70</ele>
        <time>2021-09-18T09:40:14.000Z</time>
      </trkpt>
      <trkpt lat="47.14345" lon="-1.718">
        <ele>70</ele>
        <time>2021-09-18T09:40:16.000Z</time>
      </trkpt>
      <trkpt lat="47.14333" lon="-1.71805">
        <ele>70</ele>
        <time>2021-09-18T09:40:18.000Z</time>
      </trkpt>
      <trkpt lat="47.14321" lon="-1.71809">
        <ele>70</ele>
        <time>2021-09-18T09:40:20.000Z</time>
      </trkpt>
      <trkpt lat="47.14308" lon="-1.71813">
        <ele>69</ele>
        <time>2021-09-18T09:40:22.000Z</time>
      </trkpt>
      <trkpt lat="47.14295" lon="-1.71817">
        <ele>69</ele>
        <time>2021-09-18T09:40:24.000Z</time>
      </trkpt>
      <trkpt lat="47.14283" lon="-1.71821">
        <ele>69</ele>
        <time>2021-09-18T09:40:26.000Z</time>
      </trkpt>
      <trkpt lat="47.14271" lon="-1.71825">
        <ele>68</ele>
        <time>2021-09-18T09:40:28.000Z</time>
      </trkpt>
      <trkpt lat="47.14259" lon="-1.71829">
        <ele>68</ele>
        <time>2021-09-18T09:40:30.000Z</time>
      </trkpt>
      <trkpt lat="47.14247" lon="-1.71832">
        <ele>68</ele>
        <time>2021-09-18T09:40:32.000Z</time>
      </trkpt>
      <trkpt lat="47.14235" lon="-1.71836">
        <ele>68</ele>
        <time>2021-09-18T09:40:34.000Z</time>
      </trkpt>
      <trkpt lat="47.14223" lon="-1.71841">
        <ele>68</ele>
        <time>2021-09-18T09:40:36.000Z</time>
      </trkpt>
      <trkpt lat="47.14211" lon="-1.71845">
        <ele>67</ele>
        <time>2021-09-18T09:40:38.000Z</time>
      </trkpt>
      <trkpt lat="47.14199" lon="-1.71849">
        <ele>67</ele>
        <time>2021-09-18T09:40:40.000Z</time>
      </trkpt>
      <trkpt lat="47.14186" lon="-1.71852">
        <ele>66</ele>
        <time>2021-09-18T09:40:42.000Z</time>
      </trkpt>
      <trkpt lat="47.14174" lon="-1.71857">
        <ele>66</ele>
        <time>2021-09-18T09:40:44.000Z</time>
      </trkpt>
      <trkpt lat="47.14162" lon="-1.71861">
        <ele>65</ele>
        <time>2021-09-18T09:40:46.000Z</time>
      </trkpt>
      <trkpt lat="47.14149" lon="-1.71865">
        <ele>65</ele>
        <time>2021-09-18T09:40:48.000Z</time>
      </trkpt>
      <trkpt lat="47.14137" lon="-1.71869">
        <ele>64</ele>
        <time>2021-09-18T09:40:50.000Z</time>
      </trkpt>
      <trkpt lat="47.14123" lon="-1.71874">
        <ele>63</ele>
        <time>2021-09-18T09:40:52.000Z</time>
      </trkpt>
      <trkpt lat="47.14109" lon="-1.71878">
        <ele>63</ele>
        <time>2021-09-18T09:40:54.000Z</time>
      </trkpt>
      <trkpt lat="47.14095" lon="-1.71882">
        <ele>62</ele>
        <time>2021-09-18T09:40:56.000Z</time>
      </trkpt>
      <trkpt lat="47.1408" lon="-1.71887">
        <ele>61</ele>
        <time>2021-09-18T09:40:58.000Z</time>
      </trkpt>
      <trkpt lat="47.14066" lon="-1.71892">
        <ele>61</ele>
        <time>2021-09-18T09:41:00.000Z</time>
      </trkpt>
      <trkpt lat="47.14051" lon="-1.71897">
        <ele>60</ele>
        <time>2021-09-18T09:41:02.000Z</time>
      </trkpt>
      <trkpt lat="47.14037" lon="-1.71901">
        <ele>60</ele>
        <time>2021-09-18T09:41:04.000Z</time>
      </trkpt>
      <trkpt lat="47.14023" lon="-1.71905">
        <ele>59</ele>
        <time>2021-09-18T09:41:06.000Z</time>
      </trkpt>
      <trkpt lat="47.14008" lon="-1.71906">
        <ele>57</ele>
        <time>2021-09-18T09:41:08.000Z</time>
      </trkpt>
      <trkpt lat="47.13992" lon="-1.71901">
        <ele>56</ele>
        <time>2021-09-18T09:41:10.000Z</time>
      </trkpt>
      <trkpt lat="47.13976" lon="-1.71899">
        <ele>56</ele>
        <time>2021-09-18T09:41:12.000Z</time>
      </trkpt>
      <trkpt lat="47.13966" lon="-1.71917">
        <ele>55</ele>
        <time>2021-09-18T09:41:14.000Z</time>
      </trkpt>
      <trkpt lat="47.13966" lon="-1.71939">
        <ele>56</ele>
        <time>2021-09-18T09:41:16.000Z</time>
      </trkpt>
      <trkpt lat="47.13964" lon="-1.71958">
        <ele>56</ele>
        <time>2021-09-18T09:41:18.000Z</time>
      </trkpt>
      <trkpt lat="47.13954" lon="-1.71971">
        <ele>57</ele>
        <time>2021-09-18T09:41:20.000Z</time>
      </trkpt>
      <trkpt lat="47.13943" lon="-1.71979">
        <ele>58</ele>
        <time>2021-09-18T09:41:22.000Z</time>
      </trkpt>
      <trkpt lat="47.13931" lon="-1.71985">
        <ele>58</ele>
        <time>2021-09-18T09:41:24.000Z</time>
      </trkpt>
      <trkpt lat="47.1392" lon="-1.7199">
        <ele>59</ele>
        <time>2021-09-18T09:41:26.000Z</time>
      </trkpt>
      <trkpt lat="47.13908" lon="-1.71995">
        <ele>59</ele>
        <time>2021-09-18T09:41:28.000Z</time>
      </trkpt>
      <trkpt lat="47.13897" lon="-1.72001">
        <ele>59</ele>
        <time>2021-09-18T09:41:30.000Z</time>
      </trkpt>
      <trkpt lat="47.13887" lon="-1.72008">
        <ele>60</ele>
        <time>2021-09-18T09:41:32.000Z</time>
      </trkpt>
      <trkpt lat="47.13877" lon="-1.72017">
        <ele>60</ele>
        <time>2021-09-18T09:41:34.000Z</time>
      </trkpt>
      <trkpt lat="47.13868" lon="-1.72028">
        <ele>60</ele>
        <time>2021-09-18T09:41:36.000Z</time>
      </trkpt>
      <trkpt lat="47.1386" lon="-1.7204">
        <ele>61</ele>
        <time>2021-09-18T09:41:38.000Z</time>
      </trkpt>
      <trkpt lat="47.13853" lon="-1.72053">
        <ele>61</ele>
        <time>2021-09-18T09:41:40.000Z</time>
      </trkpt>
      <trkpt lat="47.13845" lon="-1.72066">
        <ele>61</ele>
        <time>2021-09-18T09:41:42.000Z</time>
      </trkpt>
      <trkpt lat="47.13837" lon="-1.72078">
        <ele>61</ele>
        <time>2021-09-18T09:41:44.000Z</time>
      </trkpt>
      <trkpt lat="47.13829" lon="-1.7209">
        <ele>62</ele>
        <time>2021-09-18T09:41:46.000Z</time>
      </trkpt>
      <trkpt lat="47.13822" lon="-1.72102">
        <ele>63</ele>
        <time>2021-09-18T09:41:48.000Z</time>
      </trkpt>
      <trkpt lat="47.13814" lon="-1.72114">
        <ele>63</ele>
        <time>2021-09-18T09:41:50.000Z</time>
      </trkpt>
      <trkpt lat="47.13807" lon="-1.72126">
        <ele>63</ele>
        <time>2021-09-18T09:41:52.000Z</time>
      </trkpt>
      <trkpt lat="47.138" lon="-1.72137">
        <ele>64</ele>
        <time>2021-09-18T09:41:54.000Z</time>
      </trkpt>
      <trkpt lat="47.13793" lon="-1.72149">
        <ele>64</ele>
        <time>2021-09-18T09:41:56.000Z</time>
      </trkpt>
      <trkpt lat="47.13786" lon="-1.72162">
        <ele>65</ele>
        <time>2021-09-18T09:41:58.000Z</time>
      </trkpt>
      <trkpt lat="47.13779" lon="-1.72174">
        <ele>65</ele>
        <time>2021-09-18T09:42:00.000Z</time>
      </trkpt>
      <trkpt lat="47.13772" lon="-1.72186">
        <ele>66</ele>
        <time>2021-09-18T09:42:02.000Z</time>
      </trkpt>
      <trkpt lat="47.13764" lon="-1.72199">
        <ele>66</ele>
        <time>2021-09-18T09:42:04.000Z</time>
      </trkpt>
      <trkpt lat="47.13757" lon="-1.72212">
        <ele>67</ele>
        <time>2021-09-18T09:42:06.000Z</time>
      </trkpt>
      <trkpt lat="47.13751" lon="-1.72225">
        <ele>67</ele>
        <time>2021-09-18T09:42:08.000Z</time>
      </trkpt>
      <trkpt lat="47.13745" lon="-1.72239">
        <ele>67</ele>
        <time>2021-09-18T09:42:10.000Z</time>
      </trkpt>
      <trkpt lat="47.13741" lon="-1.72253">
        <ele>68</ele>
        <time>2021-09-18T09:42:12.000Z</time>
      </trkpt>
      <trkpt lat="47.13738" lon="-1.72269">
        <ele>68</ele>
        <time>2021-09-18T09:42:14.000Z</time>
      </trkpt>
      <trkpt lat="47.13736" lon="-1.72286">
        <ele>68</ele>
        <time>2021-09-18T09:42:16.000Z</time>
      </trkpt>
      <trkpt lat="47.13734" lon="-1.72301">
        <ele>68</ele>
        <time>2021-09-18T09:42:18.000Z</time>
      </trkpt>
      <trkpt lat="47.13732" lon="-1.72317">
        <ele>69</ele>
        <time>2021-09-18T09:42:20.000Z</time>
      </trkpt>
      <trkpt lat="47.1373" lon="-1.72332">
        <ele>69</ele>
        <time>2021-09-18T09:42:22.000Z</time>
      </trkpt>
      <trkpt lat="47.13727" lon="-1.72348">
        <ele>69</ele>
        <time>2021-09-18T09:42:24.000Z</time>
      </trkpt>
      <trkpt lat="47.13724" lon="-1.72364">
        <ele>69</ele>
        <time>2021-09-18T09:42:26.000Z</time>
      </trkpt>
      <trkpt lat="47.1372" lon="-1.72379">
        <ele>70</ele>
        <time>2021-09-18T09:42:28.000Z</time>
      </trkpt>
      <trkpt lat="47.13716" lon="-1.72394">
        <ele>70</ele>
        <time>2021-09-18T09:42:30.000Z</time>
      </trkpt>
      <trkpt lat="47.13712" lon="-1.7241">
        <ele>70</ele>
        <time>2021-09-18T09:42:32.000Z</time>
      </trkpt>
      <trkpt lat="47.13708" lon="-1.72424">
        <ele>70</ele>
        <time>2021-09-18T09:42:34.000Z</time>
      </trkpt>
      <trkpt lat="47.13703" lon="-1.72439">
        <ele>70</ele>
        <time>2021-09-18T09:42:36.000Z</time>
      </trkpt>
      <trkpt lat="47.13699" lon="-1.72455">
        <ele>70</ele>
        <time>2021-09-18T09:42:38.000Z</time>
      </trkpt>
      <trkpt lat="47.13695" lon="-1.72471">
        <ele>71</ele>
        <time>2021-09-18T09:42:40.000Z</time>
      </trkpt>
      <trkpt lat="47.13691" lon="-1.72486">
        <ele>71</ele>
        <time>2021-09-18T09:42:42.000Z</time>
      </trkpt>
      <trkpt lat="47.13687" lon="-1.72502">
        <ele>71</ele>
        <time>2021-09-18T09:42:44.000Z</time>
      </trkpt>
      <trkpt lat="47.13684" lon="-1.72517">
        <ele>71</ele>
        <time>2021-09-18T09:42:46.000Z</time>
      </trkpt>
      <trkpt lat="47.13682" lon="-1.72534">
        <ele>71</ele>
        <time>2021-09-18T09:42:48.000Z</time>
      </trkpt>
      <trkpt lat="47.1368" lon="-1.72551">
        <ele>71</ele>
        <time>2021-09-18T09:42:50.000Z</time>
      </trkpt>
      <trkpt lat="47.1368" lon="-1.72569">
        <ele>71</ele>
        <time>2021-09-18T09:42:52.000Z</time>
      </trkpt>
      <trkpt lat="47.13679" lon="-1.72586">
        <ele>71</ele>
        <time>2021-09-18T09:42:54.000Z</time>
      </trkpt>
      <trkpt lat="47.13679" lon="-1.72602">
        <ele>71</ele>
        <time>2021-09-18T09:42:56.000Z</time>
      </trkpt>
      <trkpt lat="47.13678" lon="-1.72617">
        <ele>71</ele>
        <time>2021-09-18T09:42:58.000Z</time>
      </trkpt>
      <trkpt lat="47.13675" lon="-1.72632">
        <ele>71</ele>
        <time>2021-09-18T09:43:00.000Z</time>
      </trkpt>
      <trkpt lat="47.13672" lon="-1.72647">
        <ele>71</ele>
        <time>2021-09-18T09:43:02.000Z</time>
      </trkpt>
      <trkpt lat="47.1367" lon="-1.72663">
        <ele>72</ele>
        <time>2021-09-18T09:43:04.000Z</time>
      </trkpt>
      <trkpt lat="47.13669" lon="-1.72677">
        <ele>72</ele>
        <time>2021-09-18T09:43:06.000Z</time>
      </trkpt>
      <trkpt lat="47.13667" lon="-1.72692">
        <ele>73</ele>
        <time>2021-09-18T09:43:08.000Z</time>
      </trkpt>
      <trkpt lat="47.13664" lon="-1.72709">
        <ele>72</ele>
        <time>2021-09-18T09:43:10.000Z</time>
      </trkpt>
      <trkpt lat="47.13662" lon="-1.72724">
        <ele>72</ele>
        <time>2021-09-18T09:43:12.000Z</time>
      </trkpt>
      <trkpt lat="47.1366" lon="-1.7274">
        <ele>72</ele>
        <time>2021-09-18T09:43:14.000Z</time>
      </trkpt>
      <trkpt lat="47.1366" lon="-1.72756">
        <ele>72</ele>
        <time>2021-09-18T09:43:16.000Z</time>
      </trkpt>
      <trkpt lat="47.13658" lon="-1.72772">
        <ele>73</ele>
        <time>2021-09-18T09:43:18.000Z</time>
      </trkpt>
      <trkpt lat="47.13657" lon="-1.72787">
        <ele>72</ele>
        <time>2021-09-18T09:43:20.000Z</time>
      </trkpt>
      <trkpt lat="47.13656" lon="-1.72803">
        <ele>72</ele>
        <time>2021-09-18T09:43:22.000Z</time>
      </trkpt>
      <trkpt lat="47.13655" lon="-1.72819">
        <ele>72</ele>
        <time>2021-09-18T09:43:24.000Z</time>
      </trkpt>
      <trkpt lat="47.13654" lon="-1.72836">
        <ele>71</ele>
        <time>2021-09-18T09:43:26.000Z</time>
      </trkpt>
      <trkpt lat="47.13653" lon="-1.72854">
        <ele>70</ele>
        <time>2021-09-18T09:43:28.000Z</time>
      </trkpt>
      <trkpt lat="47.1365" lon="-1.72872">
        <ele>70</ele>
        <time>2021-09-18T09:43:30.000Z</time>
      </trkpt>
      <trkpt lat="47.13649" lon="-1.72891">
        <ele>69</ele>
        <time>2021-09-18T09:43:32.000Z</time>
      </trkpt>
      <trkpt lat="47.13647" lon="-1.72912">
        <ele>68</ele>
        <time>2021-09-18T09:43:34.000Z</time>
      </trkpt>
      <trkpt lat="47.13645" lon="-1.72934">
        <ele>67</ele>
        <time>2021-09-18T09:43:36.000Z</time>
      </trkpt>
      <trkpt lat="47.13643" lon="-1.72957">
        <ele>66</ele>
        <time>2021-09-18T09:43:38.000Z</time>
      </trkpt>
      <trkpt lat="47.13641" lon="-1.72981">
        <ele>65</ele>
        <time>2021-09-18T09:43:40.000Z</time>
      </trkpt>
      <trkpt lat="47.13639" lon="-1.73005">
        <ele>64</ele>
        <time>2021-09-18T09:43:42.000Z</time>
      </trkpt>
      <trkpt lat="47.13635" lon="-1.73027">
        <ele>63</ele>
        <time>2021-09-18T09:43:44.000Z</time>
      </trkpt>
      <trkpt lat="47.13625" lon="-1.73046">
        <ele>62</ele>
        <time>2021-09-18T09:43:46.000Z</time>
      </trkpt>
      <trkpt lat="47.13611" lon="-1.73059">
        <ele>62</ele>
        <time>2021-09-18T09:43:48.000Z</time>
      </trkpt>
      <trkpt lat="47.13598" lon="-1.73071">
        <ele>61</ele>
        <time>2021-09-18T09:43:50.000Z</time>
      </trkpt>
      <trkpt lat="47.13586" lon="-1.73081">
        <ele>61</ele>
        <time>2021-09-18T09:43:52.000Z</time>
      </trkpt>
      <trkpt lat="47.13574" lon="-1.73091">
        <ele>61</ele>
        <time>2021-09-18T09:43:54.000Z</time>
      </trkpt>
      <trkpt lat="47.13563" lon="-1.73103">
        <ele>61</ele>
        <time>2021-09-18T09:43:56.000Z</time>
      </trkpt>
      <trkpt lat="47.13552" lon="-1.73115">
        <ele>61</ele>
        <time>2021-09-18T09:43:58.000Z</time>
      </trkpt>
      <trkpt lat="47.13541" lon="-1.73126">
        <ele>61</ele>
        <time>2021-09-18T09:44:00.000Z</time>
      </trkpt>
      <trkpt lat="47.1353" lon="-1.73138">
        <ele>60</ele>
        <time>2021-09-18T09:44:02.000Z</time>
      </trkpt>
      <trkpt lat="47.1352" lon="-1.73153">
        <ele>59</ele>
        <time>2021-09-18T09:44:04.000Z</time>
      </trkpt>
      <trkpt lat="47.13513" lon="-1.73169">
        <ele>59</ele>
        <time>2021-09-18T09:44:06.000Z</time>
      </trkpt>
      <trkpt lat="47.13511" lon="-1.73189">
        <ele>59</ele>
        <time>2021-09-18T09:44:08.000Z</time>
      </trkpt>
      <trkpt lat="47.13509" lon="-1.73209">
        <ele>59</ele>
        <time>2021-09-18T09:44:10.000Z</time>
      </trkpt>
      <trkpt lat="47.13507" lon="-1.73231">
        <ele>58</ele>
        <time>2021-09-18T09:44:12.000Z</time>
      </trkpt>
      <trkpt lat="47.13505" lon="-1.73251">
        <ele>58</ele>
        <time>2021-09-18T09:44:14.000Z</time>
      </trkpt>
      <trkpt lat="47.13503" lon="-1.73272">
        <ele>58</ele>
        <time>2021-09-18T09:44:16.000Z</time>
      </trkpt>
      <trkpt lat="47.13502" lon="-1.73293">
        <ele>57</ele>
        <time>2021-09-18T09:44:18.000Z</time>
      </trkpt>
      <trkpt lat="47.13506" lon="-1.73314">
        <ele>57</ele>
        <time>2021-09-18T09:44:20.000Z</time>
      </trkpt>
      <trkpt lat="47.13511" lon="-1.73333">
        <ele>58</ele>
        <time>2021-09-18T09:44:22.000Z</time>
      </trkpt>
      <trkpt lat="47.13516" lon="-1.73351">
        <ele>58</ele>
        <time>2021-09-18T09:44:24.000Z</time>
      </trkpt>
      <trkpt lat="47.13521" lon="-1.73367">
        <ele>59</ele>
        <time>2021-09-18T09:44:26.000Z</time>
      </trkpt>
      <trkpt lat="47.13527" lon="-1.73382">
        <ele>59</ele>
        <time>2021-09-18T09:44:28.000Z</time>
      </trkpt>
      <trkpt lat="47.13533" lon="-1.73397">
        <ele>60</ele>
        <time>2021-09-18T09:44:30.000Z</time>
      </trkpt>
      <trkpt lat="47.13538" lon="-1.73413">
        <ele>61</ele>
        <time>2021-09-18T09:44:32.000Z</time>
      </trkpt>
      <trkpt lat="47.13542" lon="-1.73429">
        <ele>61</ele>
        <time>2021-09-18T09:44:34.000Z</time>
      </trkpt>
      <trkpt lat="47.13547" lon="-1.73446">
        <ele>61</ele>
        <time>2021-09-18T09:44:36.000Z</time>
      </trkpt>
      <trkpt lat="47.13552" lon="-1.73463">
        <ele>61</ele>
        <time>2021-09-18T09:44:38.000Z</time>
      </trkpt>
      <trkpt lat="47.13557" lon="-1.73479">
        <ele>62</ele>
        <time>2021-09-18T09:44:40.000Z</time>
      </trkpt>
      <trkpt lat="47.13562" lon="-1.73495">
        <ele>62</ele>
        <time>2021-09-18T09:44:42.000Z</time>
      </trkpt>
      <trkpt lat="47.13566" lon="-1.73512">
        <ele>62</ele>
        <time>2021-09-18T09:44:44.000Z</time>
      </trkpt>
      <trkpt lat="47.13571" lon="-1.73528">
        <ele>62</ele>
        <time>2021-09-18T09:44:46.000Z</time>
      </trkpt>
      <trkpt lat="47.13575" lon="-1.73545">
        <ele>62</ele>
        <time>2021-09-18T09:44:48.000Z</time>
      </trkpt>
      <trkpt lat="47.1358" lon="-1.73561">
        <ele>61</ele>
        <time>2021-09-18T09:44:50.000Z</time>
      </trkpt>
      <trkpt lat="47.13586" lon="-1.73578">
        <ele>61</ele>
        <time>2021-09-18T09:44:52.000Z</time>
      </trkpt>
      <trkpt lat="47.13592" lon="-1.73594">
        <ele>61</ele>
        <time>2021-09-18T09:44:54.000Z</time>
      </trkpt>
      <trkpt lat="47.13599" lon="-1.7361">
        <ele>61</ele>
        <time>2021-09-18T09:44:56.000Z</time>
      </trkpt>
      <trkpt lat="47.13605" lon="-1.73626">
        <ele>61</ele>
        <time>2021-09-18T09:44:58.000Z</time>
      </trkpt>
      <trkpt lat="47.1361" lon="-1.73643">
        <ele>61</ele>
        <time>2021-09-18T09:45:00.000Z</time>
      </trkpt>
      <trkpt lat="47.13616" lon="-1.7366">
        <ele>61</ele>
        <time>2021-09-18T09:45:02.000Z</time>
      </trkpt>
      <trkpt lat="47.13622" lon="-1.73677">
        <ele>61</ele>
        <time>2021-09-18T09:45:04.000Z</time>
      </trkpt>
      <trkpt lat="47.13627" lon="-1.73694">
        <ele>61</ele>
        <time>2021-09-18T09:45:06.000Z</time>
      </trkpt>
      <trkpt lat="47.13631" lon="-1.73711">
        <ele>61</ele>
        <time>2021-09-18T09:45:08.000Z</time>
      </trkpt>
      <trkpt lat="47.13633" lon="-1.73729">
        <ele>61</ele>
        <time>2021-09-18T09:45:10.000Z</time>
      </trkpt>
      <trkpt lat="47.13635" lon="-1.73748">
        <ele>60</ele>
        <time>2021-09-18T09:45:12.000Z</time>
      </trkpt>
      <trkpt lat="47.13638" lon="-1.73769">
        <ele>60</ele>
        <time>2021-09-18T09:45:14.000Z</time>
      </trkpt>
      <trkpt lat="47.13639" lon="-1.73791">
        <ele>59</ele>
        <time>2021-09-18T09:45:16.000Z</time>
      </trkpt>
      <trkpt lat="47.1364" lon="-1.73812">
        <ele>58</ele>
        <time>2021-09-18T09:45:18.000Z</time>
      </trkpt>
      <trkpt lat="47.13641" lon="-1.73834">
        <ele>58</ele>
        <time>2021-09-18T09:45:20.000Z</time>
      </trkpt>
      <trkpt lat="47.13642" lon="-1.73855">
        <ele>58</ele>
        <time>2021-09-18T09:45:22.000Z</time>
      </trkpt>
      <trkpt lat="47.13643" lon="-1.73876">
        <ele>57</ele>
        <time>2021-09-18T09:45:24.000Z</time>
      </trkpt>
      <trkpt lat="47.13644" lon="-1.73894">
        <ele>58</ele>
        <time>2021-09-18T09:45:26.000Z</time>
      </trkpt>
      <trkpt lat="47.13645" lon="-1.73912">
        <ele>58</ele>
        <time>2021-09-18T09:45:28.000Z</time>
      </trkpt>
      <trkpt lat="47.13646" lon="-1.73929">
        <ele>58</ele>
        <time>2021-09-18T09:45:30.000Z</time>
      </trkpt>
      <trkpt lat="47.13647" lon="-1.73945">
        <ele>59</ele>
        <time>2021-09-18T09:45:32.000Z</time>
      </trkpt>
      <trkpt lat="47.13648" lon="-1.7396">
        <ele>59</ele>
        <time>2021-09-18T09:45:34.000Z</time>
      </trkpt>
      <trkpt lat="47.13648" lon="-1.73976">
        <ele>60</ele>
        <time>2021-09-18T09:45:36.000Z</time>
      </trkpt>
      <trkpt lat="47.13647" lon="-1.73992">
        <ele>60</ele>
        <time>2021-09-18T09:45:38.000Z</time>
      </trkpt>
      <trkpt lat="47.13646" lon="-1.74007">
        <ele>61</ele>
        <time>2021-09-18T09:45:40.000Z</time>
      </trkpt>
      <trkpt lat="47.13644" lon="-1.74022">
        <ele>61</ele>
        <time>2021-09-18T09:45:42.000Z</time>
      </trkpt>
      <trkpt lat="47.13642" lon="-1.74036">
        <ele>62</ele>
        <time>2021-09-18T09:45:44.000Z</time>
      </trkpt>
      <trkpt lat="47.13641" lon="-1.74052">
        <ele>62</ele>
        <time>2021-09-18T09:45:46.000Z</time>
      </trkpt>
      <trkpt lat="47.1364" lon="-1.74067">
        <ele>63</ele>
        <time>2021-09-18T09:45:48.000Z</time>
      </trkpt>
      <trkpt lat="47.13641" lon="-1.74091">
        <ele>63</ele>
        <time>2021-09-18T09:45:51.000Z</time>
      </trkpt>
      <trkpt lat="47.13641" lon="-1.74107">
        <ele>64</ele>
        <time>2021-09-18T09:45:53.000Z</time>
      </trkpt>
      <trkpt lat="47.13643" lon="-1.74122">
        <ele>64</ele>
        <time>2021-09-18T09:45:55.000Z</time>
      </trkpt>
      <trkpt lat="47.13645" lon="-1.74137">
        <ele>64</ele>
        <time>2021-09-18T09:45:57.000Z</time>
      </trkpt>
      <trkpt lat="47.13648" lon="-1.74153">
        <ele>64</ele>
        <time>2021-09-18T09:45:59.000Z</time>
      </trkpt>
      <trkpt lat="47.13651" lon="-1.74168">
        <ele>64</ele>
        <time>2021-09-18T09:46:01.000Z</time>
      </trkpt>
      <trkpt lat="47.13657" lon="-1.74191">
        <ele>64</ele>
        <time>2021-09-18T09:46:04.000Z</time>
      </trkpt>
      <trkpt lat="47.1366" lon="-1.74206">
        <ele>64</ele>
        <time>2021-09-18T09:46:06.000Z</time>
      </trkpt>
      <trkpt lat="47.13664" lon="-1.74222">
        <ele>64</ele>
        <time>2021-09-18T09:46:08.000Z</time>
      </trkpt>
      <trkpt lat="47.13668" lon="-1.74236">
        <ele>64</ele>
        <time>2021-09-18T09:46:10.000Z</time>
      </trkpt>
      <trkpt lat="47.13672" lon="-1.74253">
        <ele>64</ele>
        <time>2021-09-18T09:46:12.000Z</time>
      </trkpt>
      <trkpt lat="47.13679" lon="-1.74277">
        <ele>63</ele>
        <time>2021-09-18T09:46:15.000Z</time>
      </trkpt>
      <trkpt lat="47.13688" lon="-1.74302">
        <ele>62</ele>
        <time>2021-09-18T09:46:18.000Z</time>
      </trkpt>
      <trkpt lat="47.13695" lon="-1.74329">
        <ele>61</ele>
        <time>2021-09-18T09:46:21.000Z</time>
      </trkpt>
      <trkpt lat="47.13696" lon="-1.7436">
        <ele>60</ele>
        <time>2021-09-18T09:46:24.000Z</time>
      </trkpt>
      <trkpt lat="47.13696" lon="-1.74382">
        <ele>59</ele>
        <time>2021-09-18T09:46:26.000Z</time>
      </trkpt>
      <trkpt lat="47.13696" lon="-1.74404">
        <ele>58</ele>
        <time>2021-09-18T09:46:28.000Z</time>
      </trkpt>
      <trkpt lat="47.13696" lon="-1.74427">
        <ele>57</ele>
        <time>2021-09-18T09:46:30.000Z</time>
      </trkpt>
      <trkpt lat="47.13695" lon="-1.74449">
        <ele>57</ele>
        <time>2021-09-18T09:46:32.000Z</time>
      </trkpt>
      <trkpt lat="47.13686" lon="-1.74467">
        <ele>56</ele>
        <time>2021-09-18T09:46:34.000Z</time>
      </trkpt>
      <trkpt lat="47.13673" lon="-1.74482">
        <ele>55</ele>
        <time>2021-09-18T09:46:36.000Z</time>
      </trkpt>
      <trkpt lat="47.13661" lon="-1.74494">
        <ele>55</ele>
        <time>2021-09-18T09:46:38.000Z</time>
      </trkpt>
      <trkpt lat="47.1365" lon="-1.74506">
        <ele>56</ele>
        <time>2021-09-18T09:46:40.000Z</time>
      </trkpt>
      <trkpt lat="47.13639" lon="-1.74517">
        <ele>56</ele>
        <time>2021-09-18T09:46:42.000Z</time>
      </trkpt>
      <trkpt lat="47.13624" lon="-1.74532">
        <ele>56</ele>
        <time>2021-09-18T09:46:45.000Z</time>
      </trkpt>
      <trkpt lat="47.13613" lon="-1.74543">
        <ele>55</ele>
        <time>2021-09-18T09:46:47.000Z</time>
      </trkpt>
      <trkpt lat="47.13602" lon="-1.74555">
        <ele>54</ele>
        <time>2021-09-18T09:46:49.000Z</time>
      </trkpt>
      <trkpt lat="47.1359" lon="-1.74567">
        <ele>54</ele>
        <time>2021-09-18T09:46:51.000Z</time>
      </trkpt>
      <trkpt lat="47.13577" lon="-1.7458">
        <ele>54</ele>
        <time>2021-09-18T09:46:53.000Z</time>
      </trkpt>
      <trkpt lat="47.13564" lon="-1.74593">
        <ele>53</ele>
        <time>2021-09-18T09:46:55.000Z</time>
      </trkpt>
      <trkpt lat="47.13551" lon="-1.74606">
        <ele>53</ele>
        <time>2021-09-18T09:46:57.000Z</time>
      </trkpt>
      <trkpt lat="47.1354" lon="-1.74617">
        <ele>53</ele>
        <time>2021-09-18T09:46:59.000Z</time>
      </trkpt>
      <trkpt lat="47.13529" lon="-1.74628">
        <ele>53</ele>
        <time>2021-09-18T09:47:01.000Z</time>
      </trkpt>
      <trkpt lat="47.13518" lon="-1.74638">
        <ele>54</ele>
        <time>2021-09-18T09:47:03.000Z</time>
      </trkpt>
      <trkpt lat="47.13508" lon="-1.74647">
        <ele>54</ele>
        <time>2021-09-18T09:47:05.000Z</time>
      </trkpt>
      <trkpt lat="47.135" lon="-1.74658">
        <ele>55</ele>
        <time>2021-09-18T09:47:07.000Z</time>
      </trkpt>
      <trkpt lat="47.13494" lon="-1.74671">
        <ele>56</ele>
        <time>2021-09-18T09:47:09.000Z</time>
      </trkpt>
      <trkpt lat="47.13489" lon="-1.74685">
        <ele>56</ele>
        <time>2021-09-18T09:47:11.000Z</time>
      </trkpt>
      <trkpt lat="47.13485" lon="-1.74699">
        <ele>57</ele>
        <time>2021-09-18T09:47:13.000Z</time>
      </trkpt>
      <trkpt lat="47.1348" lon="-1.74713">
        <ele>57</ele>
        <time>2021-09-18T09:47:15.000Z</time>
      </trkpt>
      <trkpt lat="47.13474" lon="-1.74725">
        <ele>58</ele>
        <time>2021-09-18T09:47:17.000Z</time>
      </trkpt>
      <trkpt lat="47.13466" lon="-1.74735">
        <ele>58</ele>
        <time>2021-09-18T09:47:19.000Z</time>
      </trkpt>
      <trkpt lat="47.13458" lon="-1.74744">
        <ele>59</ele>
        <time>2021-09-18T09:47:21.000Z</time>
      </trkpt>
      <trkpt lat="47.13449" lon="-1.74752">
        <ele>60</ele>
        <time>2021-09-18T09:47:23.000Z</time>
      </trkpt>
      <trkpt lat="47.13439" lon="-1.74759">
        <ele>60</ele>
        <time>2021-09-18T09:47:25.000Z</time>
      </trkpt>
      <trkpt lat="47.13429" lon="-1.74767">
        <ele>60</ele>
        <time>2021-09-18T09:47:27.000Z</time>
      </trkpt>
      <trkpt lat="47.13419" lon="-1.74775">
        <ele>61</ele>
        <time>2021-09-18T09:47:29.000Z</time>
      </trkpt>
      <trkpt lat="47.13409" lon="-1.74783">
        <ele>61</ele>
        <time>2021-09-18T09:47:31.000Z</time>
      </trkpt>
      <trkpt lat="47.13401" lon="-1.74792">
        <ele>62</ele>
        <time>2021-09-18T09:47:33.000Z</time>
      </trkpt>
      <trkpt lat="47.13393" lon="-1.74803">
        <ele>63</ele>
        <time>2021-09-18T09:47:35.000Z</time>
      </trkpt>
      <trkpt lat="47.13386" lon="-1.74814">
        <ele>63</ele>
        <time>2021-09-18T09:47:37.000Z</time>
      </trkpt>
      <trkpt lat="47.13381" lon="-1.74827">
        <ele>63</ele>
        <time>2021-09-18T09:47:39.000Z</time>
      </trkpt>
      <trkpt lat="47.13378" lon="-1.74841">
        <ele>64</ele>
        <time>2021-09-18T09:47:41.000Z</time>
      </trkpt>
      <trkpt lat="47.13375" lon="-1.74855">
        <ele>64</ele>
        <time>2021-09-18T09:47:43.000Z</time>
      </trkpt>
      <trkpt lat="47.13372" lon="-1.7487">
        <ele>64</ele>
        <time>2021-09-18T09:47:45.000Z</time>
      </trkpt>
      <trkpt lat="47.13368" lon="-1.74885">
        <ele>65</ele>
        <time>2021-09-18T09:47:47.000Z</time>
      </trkpt>
      <trkpt lat="47.13363" lon="-1.749">
        <ele>65</ele>
        <time>2021-09-18T09:47:49.000Z</time>
      </trkpt>
      <trkpt lat="47.13358" lon="-1.74915">
        <ele>65</ele>
        <time>2021-09-18T09:47:51.000Z</time>
      </trkpt>
      <trkpt lat="47.13353" lon="-1.74929">
        <ele>65</ele>
        <time>2021-09-18T09:47:53.000Z</time>
      </trkpt>
      <trkpt lat="47.13348" lon="-1.74943">
        <ele>65</ele>
        <time>2021-09-18T09:47:55.000Z</time>
      </trkpt>
      <trkpt lat="47.13341" lon="-1.74957">
        <ele>65</ele>
        <time>2021-09-18T09:47:57.000Z</time>
      </trkpt>
      <trkpt lat="47.13335" lon="-1.7497">
        <ele>65</ele>
        <time>2021-09-18T09:47:59.000Z</time>
      </trkpt>
      <trkpt lat="47.13328" lon="-1.74982">
        <ele>65</ele>
        <time>2021-09-18T09:48:01.000Z</time>
      </trkpt>
      <trkpt lat="47.1332" lon="-1.74993">
        <ele>65</ele>
        <time>2021-09-18T09:48:03.000Z</time>
      </trkpt>
      <trkpt lat="47.13311" lon="-1.75003">
        <ele>65</ele>
        <time>2021-09-18T09:48:05.000Z</time>
      </trkpt>
      <trkpt lat="47.13302" lon="-1.75011">
        <ele>65</ele>
        <time>2021-09-18T09:48:07.000Z</time>
      </trkpt>
      <trkpt lat="47.13294" lon="-1.7502">
        <ele>65</ele>
        <time>2021-09-18T09:48:09.000Z</time>
      </trkpt>
      <trkpt lat="47.13284" lon="-1.75027">
        <ele>66</ele>
        <time>2021-09-18T09:48:11.000Z</time>
      </trkpt>
      <trkpt lat="47.13274" lon="-1.75035">
        <ele>66</ele>
        <time>2021-09-18T09:48:13.000Z</time>
      </trkpt>
      <trkpt lat="47.13264" lon="-1.75042">
        <ele>66</ele>
        <time>2021-09-18T09:48:15.000Z</time>
      </trkpt>
      <trkpt lat="47.13255" lon="-1.75049">
        <ele>66</ele>
        <time>2021-09-18T09:48:17.000Z</time>
      </trkpt>
      <trkpt lat="47.13245" lon="-1.75057">
        <ele>67</ele>
        <time>2021-09-18T09:48:19.000Z</time>
      </trkpt>
      <trkpt lat="47.13237" lon="-1.75065">
        <ele>67</ele>
        <time>2021-09-18T09:48:21.000Z</time>
      </trkpt>
      <trkpt lat="47.13228" lon="-1.75073">
        <ele>68</ele>
        <time>2021-09-18T09:48:23.000Z</time>
      </trkpt>
      <trkpt lat="47.1322" lon="-1.75083">
        <ele>68</ele>
        <time>2021-09-18T09:48:25.000Z</time>
      </trkpt>
      <trkpt lat="47.13213" lon="-1.75094">
        <ele>68</ele>
        <time>2021-09-18T09:48:27.000Z</time>
      </trkpt>
      <trkpt lat="47.13206" lon="-1.75105">
        <ele>69</ele>
        <time>2021-09-18T09:48:29.000Z</time>
      </trkpt>
      <trkpt lat="47.13199" lon="-1.75118">
        <ele>69</ele>
        <time>2021-09-18T09:48:31.000Z</time>
      </trkpt>
      <trkpt lat="47.13191" lon="-1.7513">
        <ele>69</ele>
        <time>2021-09-18T09:48:33.000Z</time>
      </trkpt>
      <trkpt lat="47.13184" lon="-1.75143">
        <ele>69</ele>
        <time>2021-09-18T09:48:35.000Z</time>
      </trkpt>
      <trkpt lat="47.13178" lon="-1.75157">
        <ele>69</ele>
        <time>2021-09-18T09:48:37.000Z</time>
      </trkpt>
      <trkpt lat="47.13172" lon="-1.75171">
        <ele>69</ele>
        <time>2021-09-18T09:48:39.000Z</time>
      </trkpt>
      <trkpt lat="47.13167" lon="-1.75185">
        <ele>70</ele>
        <time>2021-09-18T09:48:41.000Z</time>
      </trkpt>
      <trkpt lat="47.13162" lon="-1.75199">
        <ele>70</ele>
        <time>2021-09-18T09:48:43.000Z</time>
      </trkpt>
      <trkpt lat="47.13159" lon="-1.75214">
        <ele>70</ele>
        <time>2021-09-18T09:48:45.000Z</time>
      </trkpt>
      <trkpt lat="47.13156" lon="-1.7523">
        <ele>70</ele>
        <time>2021-09-18T09:48:47.000Z</time>
      </trkpt>
      <trkpt lat="47.13153" lon="-1.75245">
        <ele>70</ele>
        <time>2021-09-18T09:48:49.000Z</time>
      </trkpt>
      <trkpt lat="47.13151" lon="-1.75261">
        <ele>70</ele>
        <time>2021-09-18T09:48:51.000Z</time>
      </trkpt>
      <trkpt lat="47.13149" lon="-1.75276">
        <ele>70</ele>
        <time>2021-09-18T09:48:53.000Z</time>
      </trkpt>
      <trkpt lat="47.13149" lon="-1.75292">
        <ele>70</ele>
        <time>2021-09-18T09:48:55.000Z</time>
      </trkpt>
      <trkpt lat="47.13145" lon="-1.75307">
        <ele>70</ele>
        <time>2021-09-18T09:48:57.000Z</time>
      </trkpt>
      <trkpt lat="47.1314" lon="-1.7532">
        <ele>70</ele>
        <time>2021-09-18T09:48:59.000Z</time>
      </trkpt>
      <trkpt lat="47.13135" lon="-1.75334">
        <ele>70</ele>
        <time>2021-09-18T09:49:01.000Z</time>
      </trkpt>
      <trkpt lat="47.13132" lon="-1.75348">
        <ele>70</ele>
        <time>2021-09-18T09:49:03.000Z</time>
      </trkpt>
      <trkpt lat="47.13129" lon="-1.75363">
        <ele>70</ele>
        <time>2021-09-18T09:49:05.000Z</time>
      </trkpt>
      <trkpt lat="47.13126" lon="-1.75377">
        <ele>71</ele>
        <time>2021-09-18T09:49:07.000Z</time>
      </trkpt>
      <trkpt lat="47.13124" lon="-1.75392">
        <ele>71</ele>
        <time>2021-09-18T09:49:09.000Z</time>
      </trkpt>
      <trkpt lat="47.1312" lon="-1.75405">
        <ele>72</ele>
        <time>2021-09-18T09:49:11.000Z</time>
      </trkpt>
      <trkpt lat="47.13115" lon="-1.75419">
        <ele>73</ele>
        <time>2021-09-18T09:49:14.000Z</time>
      </trkpt>
      <trkpt lat="47.13117" lon="-1.75433">
        <ele>74</ele>
        <time>2021-09-18T09:49:19.000Z</time>
      </trkpt>
      <trkpt lat="47.13115" lon="-1.75447">
        <ele>74</ele>
        <time>2021-09-18T09:49:21.000Z</time>
      </trkpt>
      <trkpt lat="47.1311" lon="-1.75461">
        <ele>75</ele>
        <time>2021-09-18T09:49:23.000Z</time>
      </trkpt>
      <trkpt lat="47.13108" lon="-1.75475">
        <ele>75</ele>
        <time>2021-09-18T09:49:25.000Z</time>
      </trkpt>
      <trkpt lat="47.13108" lon="-1.75491">
        <ele>75</ele>
        <time>2021-09-18T09:49:27.000Z</time>
      </trkpt>
      <trkpt lat="47.13106" lon="-1.75507">
        <ele>76</ele>
        <time>2021-09-18T09:49:29.000Z</time>
      </trkpt>
      <trkpt lat="47.13103" lon="-1.75522">
        <ele>76</ele>
        <time>2021-09-18T09:49:31.000Z</time>
      </trkpt>
      <trkpt lat="47.131" lon="-1.75537">
        <ele>76</ele>
        <time>2021-09-18T09:49:33.000Z</time>
      </trkpt>
      <trkpt lat="47.13098" lon="-1.75552">
        <ele>76</ele>
        <time>2021-09-18T09:49:35.000Z</time>
      </trkpt>
      <trkpt lat="47.13095" lon="-1.75566">
        <ele>77</ele>
        <time>2021-09-18T09:49:37.000Z</time>
      </trkpt>
      <trkpt lat="47.13092" lon="-1.75582">
        <ele>77</ele>
        <time>2021-09-18T09:49:39.000Z</time>
      </trkpt>
      <trkpt lat="47.1309" lon="-1.75596">
        <ele>76</ele>
        <time>2021-09-18T09:49:41.000Z</time>
      </trkpt>
      <trkpt lat="47.13087" lon="-1.7561">
        <ele>76</ele>
        <time>2021-09-18T09:49:43.000Z</time>
      </trkpt>
      <trkpt lat="47.13085" lon="-1.75625">
        <ele>76</ele>
        <time>2021-09-18T09:49:45.000Z</time>
      </trkpt>
      <trkpt lat="47.13082" lon="-1.7564">
        <ele>76</ele>
        <time>2021-09-18T09:49:47.000Z</time>
      </trkpt>
      <trkpt lat="47.1308" lon="-1.75656">
        <ele>76</ele>
        <time>2021-09-18T09:49:49.000Z</time>
      </trkpt>
      <trkpt lat="47.13076" lon="-1.75672">
        <ele>76</ele>
        <time>2021-09-18T09:49:51.000Z</time>
      </trkpt>
      <trkpt lat="47.13073" lon="-1.75687">
        <ele>76</ele>
        <time>2021-09-18T09:49:53.000Z</time>
      </trkpt>
      <trkpt lat="47.1307" lon="-1.75703">
        <ele>76</ele>
        <time>2021-09-18T09:49:55.000Z</time>
      </trkpt>
      <trkpt lat="47.13066" lon="-1.75717">
        <ele>76</ele>
        <time>2021-09-18T09:49:57.000Z</time>
      </trkpt>
      <trkpt lat="47.13061" lon="-1.7573">
        <ele>77</ele>
        <time>2021-09-18T09:49:59.000Z</time>
      </trkpt>
      <trkpt lat="47.13055" lon="-1.75743">
        <ele>77</ele>
        <time>2021-09-18T09:50:01.000Z</time>
      </trkpt>
      <trkpt lat="47.13048" lon="-1.75756">
        <ele>77</ele>
        <time>2021-09-18T09:50:03.000Z</time>
      </trkpt>
      <trkpt lat="47.13041" lon="-1.75767">
        <ele>77</ele>
        <time>2021-09-18T09:50:05.000Z</time>
      </trkpt>
      <trkpt lat="47.13034" lon="-1.75778">
        <ele>77</ele>
        <time>2021-09-18T09:50:07.000Z</time>
      </trkpt>
      <trkpt lat="47.13026" lon="-1.7579">
        <ele>77</ele>
        <time>2021-09-18T09:50:09.000Z</time>
      </trkpt>
      <trkpt lat="47.13018" lon="-1.75802">
        <ele>77</ele>
        <time>2021-09-18T09:50:11.000Z</time>
      </trkpt>
      <trkpt lat="47.13011" lon="-1.75813">
        <ele>77</ele>
        <time>2021-09-18T09:50:13.000Z</time>
      </trkpt>
      <trkpt lat="47.13007" lon="-1.75828">
        <ele>77</ele>
        <time>2021-09-18T09:50:15.000Z</time>
      </trkpt>
      <trkpt lat="47.13007" lon="-1.75845">
        <ele>77</ele>
        <time>2021-09-18T09:50:17.000Z</time>
      </trkpt>
      <trkpt lat="47.13009" lon="-1.7586">
        <ele>77</ele>
        <time>2021-09-18T09:50:19.000Z</time>
      </trkpt>
      <trkpt lat="47.13009" lon="-1.75876">
        <ele>77</ele>
        <time>2021-09-18T09:50:21.000Z</time>
      </trkpt>
      <trkpt lat="47.13007" lon="-1.75892">
        <ele>77</ele>
        <time>2021-09-18T09:50:23.000Z</time>
      </trkpt>
      <trkpt lat="47.13004" lon="-1.75908">
        <ele>78</ele>
        <time>2021-09-18T09:50:25.000Z</time>
      </trkpt>
      <trkpt lat="47.13" lon="-1.75923">
        <ele>78</ele>
        <time>2021-09-18T09:50:27.000Z</time>
      </trkpt>
      <trkpt lat="47.12997" lon="-1.75939">
        <ele>78</ele>
        <time>2021-09-18T09:50:29.000Z</time>
      </trkpt>
      <trkpt lat="47.12994" lon="-1.75955">
        <ele>79</ele>
        <time>2021-09-18T09:50:31.000Z</time>
      </trkpt>
      <trkpt lat="47.12992" lon="-1.7597">
        <ele>79</ele>
        <time>2021-09-18T09:50:33.000Z</time>
      </trkpt>
      <trkpt lat="47.12989" lon="-1.75985">
        <ele>80</ele>
        <time>2021-09-18T09:50:35.000Z</time>
      </trkpt>
      <trkpt lat="47.12988" lon="-1.76001">
        <ele>80</ele>
        <time>2021-09-18T09:50:37.000Z</time>
      </trkpt>
      <trkpt lat="47.12986" lon="-1.76016">
        <ele>80</ele>
        <time>2021-09-18T09:50:39.000Z</time>
      </trkpt>
      <trkpt lat="47.12985" lon="-1.76032">
        <ele>81</ele>
        <time>2021-09-18T09:50:41.000Z</time>
      </trkpt>
      <trkpt lat="47.12984" lon="-1.76048">
        <ele>81</ele>
        <time>2021-09-18T09:50:43.000Z</time>
      </trkpt>
      <trkpt lat="47.12984" lon="-1.76064">
        <ele>81</ele>
        <time>2021-09-18T09:50:45.000Z</time>
      </trkpt>
      <trkpt lat="47.12985" lon="-1.7608">
        <ele>81</ele>
        <time>2021-09-18T09:50:47.000Z</time>
      </trkpt>
      <trkpt lat="47.12986" lon="-1.76096">
        <ele>81</ele>
        <time>2021-09-18T09:50:49.000Z</time>
      </trkpt>
      <trkpt lat="47.12988" lon="-1.76111">
        <ele>81</ele>
        <time>2021-09-18T09:50:51.000Z</time>
      </trkpt>
      <trkpt lat="47.12991" lon="-1.76126">
        <ele>81</ele>
        <time>2021-09-18T09:50:53.000Z</time>
      </trkpt>
      <trkpt lat="47.12994" lon="-1.76142">
        <ele>81</ele>
        <time>2021-09-18T09:50:55.000Z</time>
      </trkpt>
      <trkpt lat="47.12998" lon="-1.76157">
        <ele>81</ele>
        <time>2021-09-18T09:50:57.000Z</time>
      </trkpt>
      <trkpt lat="47.13002" lon="-1.76173">
        <ele>80</ele>
        <time>2021-09-18T09:50:59.000Z</time>
      </trkpt>
      <trkpt lat="47.13006" lon="-1.76188">
        <ele>81</ele>
        <time>2021-09-18T09:51:01.000Z</time>
      </trkpt>
      <trkpt lat="47.1301" lon="-1.76203">
        <ele>81</ele>
        <time>2021-09-18T09:51:03.000Z</time>
      </trkpt>
      <trkpt lat="47.13014" lon="-1.76219">
        <ele>81</ele>
        <time>2021-09-18T09:51:05.000Z</time>
      </trkpt>
      <trkpt lat="47.13019" lon="-1.76235">
        <ele>81</ele>
        <time>2021-09-18T09:51:07.000Z</time>
      </trkpt>
      <trkpt lat="47.13022" lon="-1.76251">
        <ele>81</ele>
        <time>2021-09-18T09:51:09.000Z</time>
      </trkpt>
      <trkpt lat="47.13026" lon="-1.76266">
        <ele>81</ele>
        <time>2021-09-18T09:51:11.000Z</time>
      </trkpt>
      <trkpt lat="47.13029" lon="-1.76282">
        <ele>81</ele>
        <time>2021-09-18T09:51:13.000Z</time>
      </trkpt>
      <trkpt lat="47.13032" lon="-1.76298">
        <ele>81</ele>
        <time>2021-09-18T09:51:15.000Z</time>
      </trkpt>
      <trkpt lat="47.13035" lon="-1.76315">
        <ele>81</ele>
        <time>2021-09-18T09:51:17.000Z</time>
      </trkpt>
      <trkpt lat="47.13038" lon="-1.76331">
        <ele>81</ele>
        <time>2021-09-18T09:51:19.000Z</time>
      </trkpt>
      <trkpt lat="47.13041" lon="-1.76347">
        <ele>81</ele>
        <time>2021-09-18T09:51:21.000Z</time>
      </trkpt>
      <trkpt lat="47.13045" lon="-1.76364">
        <ele>81</ele>
        <time>2021-09-18T09:51:23.000Z</time>
      </trkpt>
      <trkpt lat="47.13047" lon="-1.7638">
        <ele>81</ele>
        <time>2021-09-18T09:51:25.000Z</time>
      </trkpt>
      <trkpt lat="47.1305" lon="-1.76397">
        <ele>80</ele>
        <time>2021-09-18T09:51:27.000Z</time>
      </trkpt>
      <trkpt lat="47.13051" lon="-1.76413">
        <ele>80</ele>
        <time>2021-09-18T09:51:29.000Z</time>
      </trkpt>
      <trkpt lat="47.13053" lon="-1.76429">
        <ele>81</ele>
        <time>2021-09-18T09:51:31.000Z</time>
      </trkpt>
      <trkpt lat="47.13054" lon="-1.76446">
        <ele>80</ele>
        <time>2021-09-18T09:51:33.000Z</time>
      </trkpt>
      <trkpt lat="47.13054" lon="-1.76463">
        <ele>80</ele>
        <time>2021-09-18T09:51:35.000Z</time>
      </trkpt>
      <trkpt lat="47.13055" lon="-1.7648">
        <ele>80</ele>
        <time>2021-09-18T09:51:37.000Z</time>
      </trkpt>
      <trkpt lat="47.13056" lon="-1.76497">
        <ele>80</ele>
        <time>2021-09-18T09:51:39.000Z</time>
      </trkpt>
      <trkpt lat="47.13057" lon="-1.76514">
        <ele>80</ele>
        <time>2021-09-18T09:51:41.000Z</time>
      </trkpt>
      <trkpt lat="47.13057" lon="-1.76531">
        <ele>79</ele>
        <time>2021-09-18T09:51:43.000Z</time>
      </trkpt>
      <trkpt lat="47.13058" lon="-1.76548">
        <ele>80</ele>
        <time>2021-09-18T09:51:45.000Z</time>
      </trkpt>
      <trkpt lat="47.1306" lon="-1.76564">
        <ele>79</ele>
        <time>2021-09-18T09:51:47.000Z</time>
      </trkpt>
      <trkpt lat="47.13061" lon="-1.76581">
        <ele>79</ele>
        <time>2021-09-18T09:51:49.000Z</time>
      </trkpt>
      <trkpt lat="47.13062" lon="-1.76597">
        <ele>79</ele>
        <time>2021-09-18T09:51:51.000Z</time>
      </trkpt>
      <trkpt lat="47.13064" lon="-1.76613">
        <ele>79</ele>
        <time>2021-09-18T09:51:53.000Z</time>
      </trkpt>
      <trkpt lat="47.13065" lon="-1.7663">
        <ele>79</ele>
        <time>2021-09-18T09:51:55.000Z</time>
      </trkpt>
      <trkpt lat="47.13067" lon="-1.76646">
        <ele>79</ele>
        <time>2021-09-18T09:51:57.000Z</time>
      </trkpt>
      <trkpt lat="47.13069" lon="-1.76662">
        <ele>79</ele>
        <time>2021-09-18T09:51:59.000Z</time>
      </trkpt>
      <trkpt lat="47.1307" lon="-1.76679">
        <ele>79</ele>
        <time>2021-09-18T09:52:01.000Z</time>
      </trkpt>
      <trkpt lat="47.13069" lon="-1.76695">
        <ele>79</ele>
        <time>2021-09-18T09:52:03.000Z</time>
      </trkpt>
      <trkpt lat="47.13067" lon="-1.76712">
        <ele>79</ele>
        <time>2021-09-18T09:52:05.000Z</time>
      </trkpt>
      <trkpt lat="47.13065" lon="-1.76728">
        <ele>79</ele>
        <time>2021-09-18T09:52:07.000Z</time>
      </trkpt>
      <trkpt lat="47.13062" lon="-1.76744">
        <ele>80</ele>
        <time>2021-09-18T09:52:09.000Z</time>
      </trkpt>
      <trkpt lat="47.13061" lon="-1.76761">
        <ele>80</ele>
        <time>2021-09-18T09:52:11.000Z</time>
      </trkpt>
      <trkpt lat="47.13059" lon="-1.76777">
        <ele>80</ele>
        <time>2021-09-18T09:52:13.000Z</time>
      </trkpt>
      <trkpt lat="47.13058" lon="-1.76794">
        <ele>80</ele>
        <time>2021-09-18T09:52:15.000Z</time>
      </trkpt>
      <trkpt lat="47.13056" lon="-1.7681">
        <ele>80</ele>
        <time>2021-09-18T09:52:17.000Z</time>
      </trkpt>
      <trkpt lat="47.13054" lon="-1.76826">
        <ele>80</ele>
        <time>2021-09-18T09:52:19.000Z</time>
      </trkpt>
      <trkpt lat="47.13052" lon="-1.76841">
        <ele>80</ele>
        <time>2021-09-18T09:52:21.000Z</time>
      </trkpt>
      <trkpt lat="47.1305" lon="-1.76857">
        <ele>80</ele>
        <time>2021-09-18T09:52:23.000Z</time>
      </trkpt>
      <trkpt lat="47.13048" lon="-1.76874">
        <ele>80</ele>
        <time>2021-09-18T09:52:25.000Z</time>
      </trkpt>
      <trkpt lat="47.13046" lon="-1.76891">
        <ele>80</ele>
        <time>2021-09-18T09:52:27.000Z</time>
      </trkpt>
      <trkpt lat="47.13045" lon="-1.76907">
        <ele>80</ele>
        <time>2021-09-18T09:52:29.000Z</time>
      </trkpt>
      <trkpt lat="47.13043" lon="-1.76924">
        <ele>81</ele>
        <time>2021-09-18T09:52:31.000Z</time>
      </trkpt>
      <trkpt lat="47.13042" lon="-1.7694">
        <ele>81</ele>
        <time>2021-09-18T09:52:33.000Z</time>
      </trkpt>
      <trkpt lat="47.13041" lon="-1.76957">
        <ele>81</ele>
        <time>2021-09-18T09:52:35.000Z</time>
      </trkpt>
      <trkpt lat="47.1304" lon="-1.76973">
        <ele>80</ele>
        <time>2021-09-18T09:52:37.000Z</time>
      </trkpt>
      <trkpt lat="47.13039" lon="-1.76989">
        <ele>81</ele>
        <time>2021-09-18T09:52:39.000Z</time>
      </trkpt>
      <trkpt lat="47.13038" lon="-1.77006">
        <ele>81</ele>
        <time>2021-09-18T09:52:41.000Z</time>
      </trkpt>
      <trkpt lat="47.13037" lon="-1.77021">
        <ele>81</ele>
        <time>2021-09-18T09:52:43.000Z</time>
      </trkpt>
      <trkpt lat="47.13036" lon="-1.77038">
        <ele>81</ele>
        <time>2021-09-18T09:52:45.000Z</time>
      </trkpt>
      <trkpt lat="47.13035" lon="-1.77054">
        <ele>82</ele>
        <time>2021-09-18T09:52:47.000Z</time>
      </trkpt>
      <trkpt lat="47.13033" lon="-1.7707">
        <ele>82</ele>
        <time>2021-09-18T09:52:49.000Z</time>
      </trkpt>
      <trkpt lat="47.13032" lon="-1.77086">
        <ele>82</ele>
        <time>2021-09-18T09:52:51.000Z</time>
      </trkpt>
      <trkpt lat="47.1303" lon="-1.77101">
        <ele>82</ele>
        <time>2021-09-18T09:52:53.000Z</time>
      </trkpt>
      <trkpt lat="47.13028" lon="-1.77116">
        <ele>83</ele>
        <time>2021-09-18T09:52:55.000Z</time>
      </trkpt>
      <trkpt lat="47.13026" lon="-1.77132">
        <ele>83</ele>
        <time>2021-09-18T09:52:57.000Z</time>
      </trkpt>
      <trkpt lat="47.13024" lon="-1.77148">
        <ele>83</ele>
        <time>2021-09-18T09:52:59.000Z</time>
      </trkpt>
      <trkpt lat="47.13022" lon="-1.77164">
        <ele>83</ele>
        <time>2021-09-18T09:53:01.000Z</time>
      </trkpt>
      <trkpt lat="47.13019" lon="-1.77179">
        <ele>83</ele>
        <time>2021-09-18T09:53:03.000Z</time>
      </trkpt>
      <trkpt lat="47.13015" lon="-1.77194">
        <ele>83</ele>
        <time>2021-09-18T09:53:05.000Z</time>
      </trkpt>
      <trkpt lat="47.1301" lon="-1.77209">
        <ele>83</ele>
        <time>2021-09-18T09:53:07.000Z</time>
      </trkpt>
      <trkpt lat="47.13006" lon="-1.77225">
        <ele>83</ele>
        <time>2021-09-18T09:53:09.000Z</time>
      </trkpt>
      <trkpt lat="47.13002" lon="-1.7724">
        <ele>83</ele>
        <time>2021-09-18T09:53:11.000Z</time>
      </trkpt>
      <trkpt lat="47.12997" lon="-1.77256">
        <ele>84</ele>
        <time>2021-09-18T09:53:13.000Z</time>
      </trkpt>
      <trkpt lat="47.12992" lon="-1.77272">
        <ele>84</ele>
        <time>2021-09-18T09:53:15.000Z</time>
      </trkpt>
      <trkpt lat="47.12987" lon="-1.77288">
        <ele>85</ele>
        <time>2021-09-18T09:53:17.000Z</time>
      </trkpt>
      <trkpt lat="47.12982" lon="-1.77303">
        <ele>85</ele>
        <time>2021-09-18T09:53:19.000Z</time>
      </trkpt>
      <trkpt lat="47.12977" lon="-1.77318">
        <ele>85</ele>
        <time>2021-09-18T09:53:21.000Z</time>
      </trkpt>
      <trkpt lat="47.12971" lon="-1.77334">
        <ele>85</ele>
        <time>2021-09-18T09:53:23.000Z</time>
      </trkpt>
      <trkpt lat="47.12965" lon="-1.7735">
        <ele>85</ele>
        <time>2021-09-18T09:53:25.000Z</time>
      </trkpt>
      <trkpt lat="47.12959" lon="-1.77365">
        <ele>85</ele>
        <time>2021-09-18T09:53:27.000Z</time>
      </trkpt>
      <trkpt lat="47.12953" lon="-1.7738">
        <ele>85</ele>
        <time>2021-09-18T09:53:29.000Z</time>
      </trkpt>
      <trkpt lat="47.12946" lon="-1.77396">
        <ele>86</ele>
        <time>2021-09-18T09:53:31.000Z</time>
      </trkpt>
      <trkpt lat="47.1294" lon="-1.77411">
        <ele>86</ele>
        <time>2021-09-18T09:53:33.000Z</time>
      </trkpt>
      <trkpt lat="47.12934" lon="-1.77426">
        <ele>87</ele>
        <time>2021-09-18T09:53:35.000Z</time>
      </trkpt>
      <trkpt lat="47.12928" lon="-1.77441">
        <ele>87</ele>
        <time>2021-09-18T09:53:37.000Z</time>
      </trkpt>
      <trkpt lat="47.12923" lon="-1.77457">
        <ele>86</ele>
        <time>2021-09-18T09:53:39.000Z</time>
      </trkpt>
      <trkpt lat="47.12918" lon="-1.77472">
        <ele>85</ele>
        <time>2021-09-18T09:53:41.000Z</time>
      </trkpt>
      <trkpt lat="47.12914" lon="-1.77488">
        <ele>84</ele>
        <time>2021-09-18T09:53:43.000Z</time>
      </trkpt>
      <trkpt lat="47.1291" lon="-1.77503">
        <ele>85</ele>
        <time>2021-09-18T09:53:45.000Z</time>
      </trkpt>
      <trkpt lat="47.12906" lon="-1.77519">
        <ele>84</ele>
        <time>2021-09-18T09:53:47.000Z</time>
      </trkpt>
      <trkpt lat="47.12902" lon="-1.77534">
        <ele>84</ele>
        <time>2021-09-18T09:53:49.000Z</time>
      </trkpt>
      <trkpt lat="47.12899" lon="-1.7755">
        <ele>84</ele>
        <time>2021-09-18T09:53:51.000Z</time>
      </trkpt>
      <trkpt lat="47.12895" lon="-1.77566">
        <ele>85</ele>
        <time>2021-09-18T09:53:53.000Z</time>
      </trkpt>
      <trkpt lat="47.12891" lon="-1.77582">
        <ele>85</ele>
        <time>2021-09-18T09:53:55.000Z</time>
      </trkpt>
      <trkpt lat="47.12887" lon="-1.77598">
        <ele>85</ele>
        <time>2021-09-18T09:53:57.000Z</time>
      </trkpt>
      <trkpt lat="47.12882" lon="-1.77615">
        <ele>85</ele>
        <time>2021-09-18T09:53:59.000Z</time>
      </trkpt>
      <trkpt lat="47.12878" lon="-1.77632">
        <ele>86</ele>
        <time>2021-09-18T09:54:01.000Z</time>
      </trkpt>
      <trkpt lat="47.12874" lon="-1.77649">
        <ele>86</ele>
        <time>2021-09-18T09:54:03.000Z</time>
      </trkpt>
      <trkpt lat="47.1287" lon="-1.77666">
        <ele>87</ele>
        <time>2021-09-18T09:54:05.000Z</time>
      </trkpt>
      <trkpt lat="47.12866" lon="-1.77681">
        <ele>87</ele>
        <time>2021-09-18T09:54:07.000Z</time>
      </trkpt>
      <trkpt lat="47.12862" lon="-1.77697">
        <ele>87</ele>
        <time>2021-09-18T09:54:09.000Z</time>
      </trkpt>
      <trkpt lat="47.12859" lon="-1.77713">
        <ele>87</ele>
        <time>2021-09-18T09:54:11.000Z</time>
      </trkpt>
      <trkpt lat="47.12855" lon="-1.77729">
        <ele>87</ele>
        <time>2021-09-18T09:54:13.000Z</time>
      </trkpt>
      <trkpt lat="47.1285" lon="-1.77746">
        <ele>86</ele>
        <time>2021-09-18T09:54:15.000Z</time>
      </trkpt>
      <trkpt lat="47.12845" lon="-1.77761">
        <ele>86</ele>
        <time>2021-09-18T09:54:17.000Z</time>
      </trkpt>
      <trkpt lat="47.1284" lon="-1.77776">
        <ele>86</ele>
        <time>2021-09-18T09:54:19.000Z</time>
      </trkpt>
      <trkpt lat="47.12834" lon="-1.77791">
        <ele>86</ele>
        <time>2021-09-18T09:54:21.000Z</time>
      </trkpt>
      <trkpt lat="47.12828" lon="-1.77807">
        <ele>86</ele>
        <time>2021-09-18T09:54:23.000Z</time>
      </trkpt>
      <trkpt lat="47.12821" lon="-1.77822">
        <ele>87</ele>
        <time>2021-09-18T09:54:25.000Z</time>
      </trkpt>
      <trkpt lat="47.12816" lon="-1.77838">
        <ele>86</ele>
        <time>2021-09-18T09:54:27.000Z</time>
      </trkpt>
      <trkpt lat="47.1281" lon="-1.77854">
        <ele>86</ele>
        <time>2021-09-18T09:54:29.000Z</time>
      </trkpt>
      <trkpt lat="47.12804" lon="-1.77869">
        <ele>86</ele>
        <time>2021-09-18T09:54:31.000Z</time>
      </trkpt>
      <trkpt lat="47.12799" lon="-1.77885">
        <ele>86</ele>
        <time>2021-09-18T09:54:33.000Z</time>
      </trkpt>
      <trkpt lat="47.12794" lon="-1.77901">
        <ele>85</ele>
        <time>2021-09-18T09:54:35.000Z</time>
      </trkpt>
      <trkpt lat="47.1279" lon="-1.77916">
        <ele>85</ele>
        <time>2021-09-18T09:54:37.000Z</time>
      </trkpt>
      <trkpt lat="47.12785" lon="-1.77932">
        <ele>85</ele>
        <time>2021-09-18T09:54:39.000Z</time>
      </trkpt>
      <trkpt lat="47.12781" lon="-1.77948">
        <ele>84</ele>
        <time>2021-09-18T09:54:41.000Z</time>
      </trkpt>
      <trkpt lat="47.12777" lon="-1.77964">
        <ele>84</ele>
        <time>2021-09-18T09:54:43.000Z</time>
      </trkpt>
      <trkpt lat="47.12772" lon="-1.77979">
        <ele>84</ele>
        <time>2021-09-18T09:54:45.000Z</time>
      </trkpt>
      <trkpt lat="47.12768" lon="-1.77995">
        <ele>84</ele>
        <time>2021-09-18T09:54:47.000Z</time>
      </trkpt>
      <trkpt lat="47.12763" lon="-1.78011">
        <ele>83</ele>
        <time>2021-09-18T09:54:49.000Z</time>
      </trkpt>
      <trkpt lat="47.12758" lon="-1.78027">
        <ele>83</ele>
        <time>2021-09-18T09:54:51.000Z</time>
      </trkpt>
      <trkpt lat="47.12752" lon="-1.78042">
        <ele>82</ele>
        <time>2021-09-18T09:54:53.000Z</time>
      </trkpt>
      <trkpt lat="47.12745" lon="-1.78056">
        <ele>82</ele>
        <time>2021-09-18T09:54:55.000Z</time>
      </trkpt>
      <trkpt lat="47.12737" lon="-1.78069">
        <ele>82</ele>
        <time>2021-09-18T09:54:57.000Z</time>
      </trkpt>
      <trkpt lat="47.12729" lon="-1.78082">
        <ele>82</ele>
        <time>2021-09-18T09:54:59.000Z</time>
      </trkpt>
      <trkpt lat="47.1272" lon="-1.78094">
        <ele>82</ele>
        <time>2021-09-18T09:55:01.000Z</time>
      </trkpt>
      <trkpt lat="47.1271" lon="-1.78106">
        <ele>82</ele>
        <time>2021-09-18T09:55:03.000Z</time>
      </trkpt>
      <trkpt lat="47.12701" lon="-1.78119">
        <ele>82</ele>
        <time>2021-09-18T09:55:05.000Z</time>
      </trkpt>
      <trkpt lat="47.12693" lon="-1.78131">
        <ele>82</ele>
        <time>2021-09-18T09:55:07.000Z</time>
      </trkpt>
      <trkpt lat="47.12684" lon="-1.78143">
        <ele>82</ele>
        <time>2021-09-18T09:55:09.000Z</time>
      </trkpt>
      <trkpt lat="47.12675" lon="-1.78156">
        <ele>82</ele>
        <time>2021-09-18T09:55:11.000Z</time>
      </trkpt>
      <trkpt lat="47.12666" lon="-1.78169">
        <ele>81</ele>
        <time>2021-09-18T09:55:13.000Z</time>
      </trkpt>
      <trkpt lat="47.12657" lon="-1.78181">
        <ele>81</ele>
        <time>2021-09-18T09:55:15.000Z</time>
      </trkpt>
      <trkpt lat="47.12648" lon="-1.78193">
        <ele>81</ele>
        <time>2021-09-18T09:55:17.000Z</time>
      </trkpt>
      <trkpt lat="47.12639" lon="-1.78205">
        <ele>81</ele>
        <time>2021-09-18T09:55:19.000Z</time>
      </trkpt>
      <trkpt lat="47.12632" lon="-1.78219">
        <ele>80</ele>
        <time>2021-09-18T09:55:21.000Z</time>
      </trkpt>
      <trkpt lat="47.12626" lon="-1.78235">
        <ele>80</ele>
        <time>2021-09-18T09:55:23.000Z</time>
      </trkpt>
      <trkpt lat="47.12621" lon="-1.7825">
        <ele>81</ele>
        <time>2021-09-18T09:55:25.000Z</time>
      </trkpt>
      <trkpt lat="47.12617" lon="-1.78266">
        <ele>81</ele>
        <time>2021-09-18T09:55:27.000Z</time>
      </trkpt>
      <trkpt lat="47.12612" lon="-1.78283">
        <ele>80</ele>
        <time>2021-09-18T09:55:29.000Z</time>
      </trkpt>
      <trkpt lat="47.12609" lon="-1.78299">
        <ele>80</ele>
        <time>2021-09-18T09:55:31.000Z</time>
      </trkpt>
      <trkpt lat="47.12606" lon="-1.78316">
        <ele>80</ele>
        <time>2021-09-18T09:55:33.000Z</time>
      </trkpt>
      <trkpt lat="47.12602" lon="-1.78332">
        <ele>80</ele>
        <time>2021-09-18T09:55:35.000Z</time>
      </trkpt>
      <trkpt lat="47.12598" lon="-1.78349">
        <ele>80</ele>
        <time>2021-09-18T09:55:37.000Z</time>
      </trkpt>
      <trkpt lat="47.12594" lon="-1.78365">
        <ele>80</ele>
        <time>2021-09-18T09:55:39.000Z</time>
      </trkpt>
      <trkpt lat="47.12591" lon="-1.78382">
        <ele>80</ele>
        <time>2021-09-18T09:55:41.000Z</time>
      </trkpt>
      <trkpt lat="47.12587" lon="-1.78398">
        <ele>80</ele>
        <time>2021-09-18T09:55:43.000Z</time>
      </trkpt>
      <trkpt lat="47.12583" lon="-1.78414">
        <ele>80</ele>
        <time>2021-09-18T09:55:45.000Z</time>
      </trkpt>
      <trkpt lat="47.12579" lon="-1.7843">
        <ele>80</ele>
        <time>2021-09-18T09:55:47.000Z</time>
      </trkpt>
      <trkpt lat="47.12575" lon="-1.78445">
        <ele>79</ele>
        <time>2021-09-18T09:55:49.000Z</time>
      </trkpt>
      <trkpt lat="47.12572" lon="-1.78461">
        <ele>79</ele>
        <time>2021-09-18T09:55:51.000Z</time>
      </trkpt>
      <trkpt lat="47.12568" lon="-1.78477">
        <ele>79</ele>
        <time>2021-09-18T09:55:53.000Z</time>
      </trkpt>
      <trkpt lat="47.12564" lon="-1.78494">
        <ele>79</ele>
        <time>2021-09-18T09:55:55.000Z</time>
      </trkpt>
      <trkpt lat="47.1256" lon="-1.78511">
        <ele>78</ele>
        <time>2021-09-18T09:55:57.000Z</time>
      </trkpt>
      <trkpt lat="47.12556" lon="-1.78526">
        <ele>78</ele>
        <time>2021-09-18T09:55:59.000Z</time>
      </trkpt>
      <trkpt lat="47.12552" lon="-1.78543">
        <ele>78</ele>
        <time>2021-09-18T09:56:01.000Z</time>
      </trkpt>
      <trkpt lat="47.12548" lon="-1.78559">
        <ele>78</ele>
        <time>2021-09-18T09:56:03.000Z</time>
      </trkpt>
      <trkpt lat="47.12545" lon="-1.78576">
        <ele>78</ele>
        <time>2021-09-18T09:56:05.000Z</time>
      </trkpt>
      <trkpt lat="47.1254" lon="-1.78592">
        <ele>78</ele>
        <time>2021-09-18T09:56:07.000Z</time>
      </trkpt>
      <trkpt lat="47.12536" lon="-1.78608">
        <ele>78</ele>
        <time>2021-09-18T09:56:09.000Z</time>
      </trkpt>
      <trkpt lat="47.12532" lon="-1.78624">
        <ele>78</ele>
        <time>2021-09-18T09:56:11.000Z</time>
      </trkpt>
      <trkpt lat="47.12527" lon="-1.78639">
        <ele>78</ele>
        <time>2021-09-18T09:56:13.000Z</time>
      </trkpt>
      <trkpt lat="47.12522" lon="-1.78654">
        <ele>77</ele>
        <time>2021-09-18T09:56:15.000Z</time>
      </trkpt>
      <trkpt lat="47.12516" lon="-1.7867">
        <ele>77</ele>
        <time>2021-09-18T09:56:17.000Z</time>
      </trkpt>
      <trkpt lat="47.12511" lon="-1.78684">
        <ele>77</ele>
        <time>2021-09-18T09:56:19.000Z</time>
      </trkpt>
      <trkpt lat="47.12506" lon="-1.78699">
        <ele>77</ele>
        <time>2021-09-18T09:56:21.000Z</time>
      </trkpt>
      <trkpt lat="47.12501" lon="-1.78715">
        <ele>77</ele>
        <time>2021-09-18T09:56:23.000Z</time>
      </trkpt>
      <trkpt lat="47.12496" lon="-1.7873">
        <ele>77</ele>
        <time>2021-09-18T09:56:25.000Z</time>
      </trkpt>
      <trkpt lat="47.12492" lon="-1.78746">
        <ele>77</ele>
        <time>2021-09-18T09:56:27.000Z</time>
      </trkpt>
      <trkpt lat="47.12488" lon="-1.78762">
        <ele>76</ele>
        <time>2021-09-18T09:56:29.000Z</time>
      </trkpt>
      <trkpt lat="47.12484" lon="-1.78778">
        <ele>76</ele>
        <time>2021-09-18T09:56:31.000Z</time>
      </trkpt>
      <trkpt lat="47.1248" lon="-1.78794">
        <ele>76</ele>
        <time>2021-09-18T09:56:33.000Z</time>
      </trkpt>
      <trkpt lat="47.12477" lon="-1.7881">
        <ele>76</ele>
        <time>2021-09-18T09:56:35.000Z</time>
      </trkpt>
      <trkpt lat="47.12474" lon="-1.78825">
        <ele>76</ele>
        <time>2021-09-18T09:56:37.000Z</time>
      </trkpt>
      <trkpt lat="47.12472" lon="-1.78842">
        <ele>76</ele>
        <time>2021-09-18T09:56:39.000Z</time>
      </trkpt>
      <trkpt lat="47.1247" lon="-1.78859">
        <ele>76</ele>
        <time>2021-09-18T09:56:41.000Z</time>
      </trkpt>
      <trkpt lat="47.12469" lon="-1.78876">
        <ele>77</ele>
        <time>2021-09-18T09:56:43.000Z</time>
      </trkpt>
      <trkpt lat="47.12468" lon="-1.78892">
        <ele>77</ele>
        <time>2021-09-18T09:56:45.000Z</time>
      </trkpt>
      <trkpt lat="47.12466" lon="-1.78908">
        <ele>77</ele>
        <time>2021-09-18T09:56:47.000Z</time>
      </trkpt>
      <trkpt lat="47.12464" lon="-1.78925">
        <ele>77</ele>
        <time>2021-09-18T09:56:49.000Z</time>
      </trkpt>
      <trkpt lat="47.1246" lon="-1.78942">
        <ele>77</ele>
        <time>2021-09-18T09:56:51.000Z</time>
      </trkpt>
      <trkpt lat="47.12456" lon="-1.78958">
        <ele>78</ele>
        <time>2021-09-18T09:56:53.000Z</time>
      </trkpt>
      <trkpt lat="47.12452" lon="-1.78973">
        <ele>78</ele>
        <time>2021-09-18T09:56:55.000Z</time>
      </trkpt>
      <trkpt lat="47.12448" lon="-1.78989">
        <ele>78</ele>
        <time>2021-09-18T09:56:57.000Z</time>
      </trkpt>
      <trkpt lat="47.12444" lon="-1.79005">
        <ele>78</ele>
        <time>2021-09-18T09:56:59.000Z</time>
      </trkpt>
      <trkpt lat="47.12441" lon="-1.7902">
        <ele>78</ele>
        <time>2021-09-18T09:57:01.000Z</time>
      </trkpt>
      <trkpt lat="47.12437" lon="-1.79036">
        <ele>78</ele>
        <time>2021-09-18T09:57:03.000Z</time>
      </trkpt>
      <trkpt lat="47.12434" lon="-1.79052">
        <ele>78</ele>
        <time>2021-09-18T09:57:05.000Z</time>
      </trkpt>
      <trkpt lat="47.1243" lon="-1.79067">
        <ele>78</ele>
        <time>2021-09-18T09:57:07.000Z</time>
      </trkpt>
      <trkpt lat="47.12426" lon="-1.79083">
        <ele>78</ele>
        <time>2021-09-18T09:57:09.000Z</time>
      </trkpt>
      <trkpt lat="47.12424" lon="-1.79098">
        <ele>78</ele>
        <time>2021-09-18T09:57:11.000Z</time>
      </trkpt>
      <trkpt lat="47.12421" lon="-1.79113">
        <ele>78</ele>
        <time>2021-09-18T09:57:13.000Z</time>
      </trkpt>
      <trkpt lat="47.12419" lon="-1.79129">
        <ele>78</ele>
        <time>2021-09-18T09:57:15.000Z</time>
      </trkpt>
      <trkpt lat="47.12418" lon="-1.79145">
        <ele>78</ele>
        <time>2021-09-18T09:57:17.000Z</time>
      </trkpt>
      <trkpt lat="47.12419" lon="-1.79162">
        <ele>77</ele>
        <time>2021-09-18T09:57:19.000Z</time>
      </trkpt>
      <trkpt lat="47.1242" lon="-1.79179">
        <ele>77</ele>
        <time>2021-09-18T09:57:21.000Z</time>
      </trkpt>
      <trkpt lat="47.12422" lon="-1.79196">
        <ele>77</ele>
        <time>2021-09-18T09:57:23.000Z</time>
      </trkpt>
      <trkpt lat="47.12423" lon="-1.79212">
        <ele>77</ele>
        <time>2021-09-18T09:57:25.000Z</time>
      </trkpt>
      <trkpt lat="47.12425" lon="-1.79229">
        <ele>77</ele>
        <time>2021-09-18T09:57:27.000Z</time>
      </trkpt>
      <trkpt lat="47.12425" lon="-1.79245">
        <ele>77</ele>
        <time>2021-09-18T09:57:29.000Z</time>
      </trkpt>
      <trkpt lat="47.12424" lon="-1.79261">
        <ele>77</ele>
        <time>2021-09-18T09:57:31.000Z</time>
      </trkpt>
      <trkpt lat="47.1242" lon="-1.79276">
        <ele>77</ele>
        <time>2021-09-18T09:57:33.000Z</time>
      </trkpt>
      <trkpt lat="47.12415" lon="-1.79291">
        <ele>76</ele>
        <time>2021-09-18T09:57:35.000Z</time>
      </trkpt>
      <trkpt lat="47.12408" lon="-1.79305">
        <ele>76</ele>
        <time>2021-09-18T09:57:37.000Z</time>
      </trkpt>
      <trkpt lat="47.12402" lon="-1.7932">
        <ele>77</ele>
        <time>2021-09-18T09:57:39.000Z</time>
      </trkpt>
      <trkpt lat="47.12395" lon="-1.79334">
        <ele>76</ele>
        <time>2021-09-18T09:57:41.000Z</time>
      </trkpt>
      <trkpt lat="47.12388" lon="-1.79348">
        <ele>77</ele>
        <time>2021-09-18T09:57:43.000Z</time>
      </trkpt>
      <trkpt lat="47.12381" lon="-1.79361">
        <ele>77</ele>
        <time>2021-09-18T09:57:45.000Z</time>
      </trkpt>
      <trkpt lat="47.12375" lon="-1.79375">
        <ele>77</ele>
        <time>2021-09-18T09:57:47.000Z</time>
      </trkpt>
      <trkpt lat="47.1237" lon="-1.7939">
        <ele>77</ele>
        <time>2021-09-18T09:57:49.000Z</time>
      </trkpt>
      <trkpt lat="47.12364" lon="-1.79404">
        <ele>78</ele>
        <time>2021-09-18T09:57:51.000Z</time>
      </trkpt>
      <trkpt lat="47.12359" lon="-1.79418">
        <ele>78</ele>
        <time>2021-09-18T09:57:53.000Z</time>
      </trkpt>
      <trkpt lat="47.12355" lon="-1.79435">
        <ele>79</ele>
        <time>2021-09-18T09:57:55.000Z</time>
      </trkpt>
      <trkpt lat="47.12351" lon="-1.79451">
        <ele>79</ele>
        <time>2021-09-18T09:57:57.000Z</time>
      </trkpt>
      <trkpt lat="47.12349" lon="-1.79469">
        <ele>78</ele>
        <time>2021-09-18T09:57:59.000Z</time>
      </trkpt>
      <trkpt lat="47.12346" lon="-1.79486">
        <ele>79</ele>
        <time>2021-09-18T09:58:01.000Z</time>
      </trkpt>
      <trkpt lat="47.12343" lon="-1.79503">
        <ele>79</ele>
        <time>2021-09-18T09:58:03.000Z</time>
      </trkpt>
      <trkpt lat="47.12341" lon="-1.79521">
        <ele>79</ele>
        <time>2021-09-18T09:58:05.000Z</time>
      </trkpt>
      <trkpt lat="47.12339" lon="-1.79538">
        <ele>79</ele>
        <time>2021-09-18T09:58:07.000Z</time>
      </trkpt>
      <trkpt lat="47.12336" lon="-1.79555">
        <ele>79</ele>
        <time>2021-09-18T09:58:09.000Z</time>
      </trkpt>
      <trkpt lat="47.12333" lon="-1.79571">
        <ele>79</ele>
        <time>2021-09-18T09:58:11.000Z</time>
      </trkpt>
      <trkpt lat="47.12327" lon="-1.79585">
        <ele>78</ele>
        <time>2021-09-18T09:58:13.000Z</time>
      </trkpt>
      <trkpt lat="47.12317" lon="-1.79594">
        <ele>77</ele>
        <time>2021-09-18T09:58:15.000Z</time>
      </trkpt>
      <trkpt lat="47.12306" lon="-1.79597">
        <ele>77</ele>
        <time>2021-09-18T09:58:17.000Z</time>
      </trkpt>
      <trkpt lat="47.12295" lon="-1.79597">
        <ele>77</ele>
        <time>2021-09-18T09:58:19.000Z</time>
      </trkpt>
      <trkpt lat="47.12283" lon="-1.79596">
        <ele>78</ele>
        <time>2021-09-18T09:58:21.000Z</time>
      </trkpt>
      <trkpt lat="47.12272" lon="-1.79596">
        <ele>78</ele>
        <time>2021-09-18T09:58:23.000Z</time>
      </trkpt>
      <trkpt lat="47.12261" lon="-1.79596">
        <ele>78</ele>
        <time>2021-09-18T09:58:25.000Z</time>
      </trkpt>
      <trkpt lat="47.12249" lon="-1.79596">
        <ele>78</ele>
        <time>2021-09-18T09:58:27.000Z</time>
      </trkpt>
      <trkpt lat="47.12239" lon="-1.79596">
        <ele>77</ele>
        <time>2021-09-18T09:58:29.000Z</time>
      </trkpt>
      <trkpt lat="47.12228" lon="-1.79595">
        <ele>77</ele>
        <time>2021-09-18T09:58:31.000Z</time>
      </trkpt>
      <trkpt lat="47.12211" lon="-1.79594">
        <ele>77</ele>
        <time>2021-09-18T09:58:34.000Z</time>
      </trkpt>
      <trkpt lat="47.122" lon="-1.79594">
        <ele>77</ele>
        <time>2021-09-18T09:58:36.000Z</time>
      </trkpt>
      <trkpt lat="47.12188" lon="-1.79594">
        <ele>77</ele>
        <time>2021-09-18T09:58:38.000Z</time>
      </trkpt>
      <trkpt lat="47.12177" lon="-1.79594">
        <ele>77</ele>
        <time>2021-09-18T09:58:40.000Z</time>
      </trkpt>
      <trkpt lat="47.12165" lon="-1.79594">
        <ele>76</ele>
        <time>2021-09-18T09:58:42.000Z</time>
      </trkpt>
      <trkpt lat="47.12153" lon="-1.79595">
        <ele>76</ele>
        <time>2021-09-18T09:58:44.000Z</time>
      </trkpt>
      <trkpt lat="47.12142" lon="-1.79595">
        <ele>75</ele>
        <time>2021-09-18T09:58:46.000Z</time>
      </trkpt>
      <trkpt lat="47.1213" lon="-1.79596">
        <ele>75</ele>
        <time>2021-09-18T09:58:48.000Z</time>
      </trkpt>
      <trkpt lat="47.12118" lon="-1.79597">
        <ele>75</ele>
        <time>2021-09-18T09:58:50.000Z</time>
      </trkpt>
      <trkpt lat="47.12106" lon="-1.79598">
        <ele>75</ele>
        <time>2021-09-18T09:58:52.000Z</time>
      </trkpt>
      <trkpt lat="47.12094" lon="-1.79602">
        <ele>74</ele>
        <time>2021-09-18T09:58:54.000Z</time>
      </trkpt>
      <trkpt lat="47.12084" lon="-1.79611">
        <ele>74</ele>
        <time>2021-09-18T09:58:56.000Z</time>
      </trkpt>
      <trkpt lat="47.12074" lon="-1.79621">
        <ele>74</ele>
        <time>2021-09-18T09:58:58.000Z</time>
      </trkpt>
      <trkpt lat="47.12065" lon="-1.79631">
        <ele>75</ele>
        <time>2021-09-18T09:59:00.000Z</time>
      </trkpt>
      <trkpt lat="47.12055" lon="-1.7964">
        <ele>75</ele>
        <time>2021-09-18T09:59:02.000Z</time>
      </trkpt>
      <trkpt lat="47.12045" lon="-1.79651">
        <ele>74</ele>
        <time>2021-09-18T09:59:04.000Z</time>
      </trkpt>
      <trkpt lat="47.12035" lon="-1.79661">
        <ele>74</ele>
        <time>2021-09-18T09:59:06.000Z</time>
      </trkpt>
      <trkpt lat="47.12025" lon="-1.79671">
        <ele>74</ele>
        <time>2021-09-18T09:59:08.000Z</time>
      </trkpt>
      <trkpt lat="47.12015" lon="-1.79681">
        <ele>74</ele>
        <time>2021-09-18T09:59:10.000Z</time>
      </trkpt>
      <trkpt lat="47.12005" lon="-1.79691">
        <ele>74</ele>
        <time>2021-09-18T09:59:12.000Z</time>
      </trkpt>
      <trkpt lat="47.11996" lon="-1.79701">
        <ele>74</ele>
        <time>2021-09-18T09:59:14.000Z</time>
      </trkpt>
      <trkpt lat="47.11981" lon="-1.79715">
        <ele>74</ele>
        <time>2021-09-18T09:59:17.000Z</time>
      </trkpt>
      <trkpt lat="47.11972" lon="-1.79725">
        <ele>74</ele>
        <time>2021-09-18T09:59:19.000Z</time>
      </trkpt>
      <trkpt lat="47.11963" lon="-1.79736">
        <ele>74</ele>
        <time>2021-09-18T09:59:21.000Z</time>
      </trkpt>
      <trkpt lat="47.11954" lon="-1.79748">
        <ele>74</ele>
        <time>2021-09-18T09:59:23.000Z</time>
      </trkpt>
      <trkpt lat="47.11946" lon="-1.79758">
        <ele>74</ele>
        <time>2021-09-18T09:59:25.000Z</time>
      </trkpt>
      <trkpt lat="47.11937" lon="-1.79769">
        <ele>73</ele>
        <time>2021-09-18T09:59:27.000Z</time>
      </trkpt>
      <trkpt lat="47.11928" lon="-1.7978">
        <ele>73</ele>
        <time>2021-09-18T09:59:29.000Z</time>
      </trkpt>
      <trkpt lat="47.1192" lon="-1.79791">
        <ele>73</ele>
        <time>2021-09-18T09:59:31.000Z</time>
      </trkpt>
      <trkpt lat="47.1191" lon="-1.79802">
        <ele>72</ele>
        <time>2021-09-18T09:59:33.000Z</time>
      </trkpt>
      <trkpt lat="47.11902" lon="-1.79813">
        <ele>72</ele>
        <time>2021-09-18T09:59:35.000Z</time>
      </trkpt>
      <trkpt lat="47.11892" lon="-1.79824">
        <ele>72</ele>
        <time>2021-09-18T09:59:37.000Z</time>
      </trkpt>
      <trkpt lat="47.11883" lon="-1.79835">
        <ele>72</ele>
        <time>2021-09-18T09:59:39.000Z</time>
      </trkpt>
      <trkpt lat="47.11874" lon="-1.79845">
        <ele>72</ele>
        <time>2021-09-18T09:59:41.000Z</time>
      </trkpt>
      <trkpt lat="47.11865" lon="-1.79854">
        <ele>72</ele>
        <time>2021-09-18T09:59:43.000Z</time>
      </trkpt>
      <trkpt lat="47.11856" lon="-1.79864">
        <ele>72</ele>
        <time>2021-09-18T09:59:45.000Z</time>
      </trkpt>
      <trkpt lat="47.11847" lon="-1.79874">
        <ele>72</ele>
        <time>2021-09-18T09:59:47.000Z</time>
      </trkpt>
      <trkpt lat="47.11838" lon="-1.79884">
        <ele>72</ele>
        <time>2021-09-18T09:59:49.000Z</time>
      </trkpt>
      <trkpt lat="47.11824" lon="-1.79899">
        <ele>71</ele>
        <time>2021-09-18T09:59:52.000Z</time>
      </trkpt>
      <trkpt lat="47.11815" lon="-1.79909">
        <ele>71</ele>
        <time>2021-09-18T09:59:54.000Z</time>
      </trkpt>
      <trkpt lat="47.11807" lon="-1.79919">
        <ele>71</ele>
        <time>2021-09-18T09:59:56.000Z</time>
      </trkpt>
      <trkpt lat="47.11797" lon="-1.79928">
        <ele>71</ele>
        <time>2021-09-18T09:59:58.000Z</time>
      </trkpt>
      <trkpt lat="47.11788" lon="-1.79938">
        <ele>71</ele>
        <time>2021-09-18T10:00:00.000Z</time>
      </trkpt>
      <trkpt lat="47.1178" lon="-1.79947">
        <ele>71</ele>
        <time>2021-09-18T10:00:02.000Z</time>
      </trkpt>
      <trkpt lat="47.11772" lon="-1.79957">
        <ele>71</ele>
        <time>2021-09-18T10:00:04.000Z</time>
      </trkpt>
      <trkpt lat="47.11765" lon="-1.79966">
        <ele>71</ele>
        <time>2021-09-18T10:00:06.000Z</time>
      </trkpt>
      <trkpt lat="47.11755" lon="-1.79975">
        <ele>71</ele>
        <time>2021-09-18T10:00:09.000Z</time>
      </trkpt>
      <trkpt lat="47.11745" lon="-1.79977">
        <ele>71</ele>
        <time>2021-09-18T10:00:11.000Z</time>
      </trkpt>
      <trkpt lat="47.11733" lon="-1.79975">
        <ele>70</ele>
        <time>2021-09-18T10:00:13.000Z</time>
      </trkpt>
      <trkpt lat="47.11721" lon="-1.79972">
        <ele>70</ele>
        <time>2021-09-18T10:00:15.000Z</time>
      </trkpt>
      <trkpt lat="47.11708" lon="-1.79971">
        <ele>70</ele>
        <time>2021-09-18T10:00:17.000Z</time>
      </trkpt>
      <trkpt lat="47.11695" lon="-1.79969">
        <ele>71</ele>
        <time>2021-09-18T10:00:19.000Z</time>
      </trkpt>
      <trkpt lat="47.11683" lon="-1.79968">
        <ele>71</ele>
        <time>2021-09-18T10:00:21.000Z</time>
      </trkpt>
      <trkpt lat="47.1167" lon="-1.79967">
        <ele>71</ele>
        <time>2021-09-18T10:00:23.000Z</time>
      </trkpt>
      <trkpt lat="47.11657" lon="-1.79965">
        <ele>71</ele>
        <time>2021-09-18T10:00:25.000Z</time>
      </trkpt>
      <trkpt lat="47.11645" lon="-1.79963">
        <ele>71</ele>
        <time>2021-09-18T10:00:27.000Z</time>
      </trkpt>
      <trkpt lat="47.11633" lon="-1.79961">
        <ele>71</ele>
        <time>2021-09-18T10:00:29.000Z</time>
      </trkpt>
      <trkpt lat="47.11621" lon="-1.79959">
        <ele>71</ele>
        <time>2021-09-18T10:00:31.000Z</time>
      </trkpt>
      <trkpt lat="47.11609" lon="-1.79956">
        <ele>71</ele>
        <time>2021-09-18T10:00:33.000Z</time>
      </trkpt>
      <trkpt lat="47.11596" lon="-1.79955">
        <ele>71</ele>
        <time>2021-09-18T10:00:35.000Z</time>
      </trkpt>
      <trkpt lat="47.11583" lon="-1.79954">
        <ele>71</ele>
        <time>2021-09-18T10:00:37.000Z</time>
      </trkpt>
      <trkpt lat="47.1157" lon="-1.79955">
        <ele>71</ele>
        <time>2021-09-18T10:00:39.000Z</time>
      </trkpt>
      <trkpt lat="47.11558" lon="-1.79957">
        <ele>71</ele>
        <time>2021-09-18T10:00:41.000Z</time>
      </trkpt>
      <trkpt lat="47.11546" lon="-1.79963">
        <ele>70</ele>
        <time>2021-09-18T10:00:43.000Z</time>
      </trkpt>
      <trkpt lat="47.11535" lon="-1.79972">
        <ele>70</ele>
        <time>2021-09-18T10:00:45.000Z</time>
      </trkpt>
      <trkpt lat="47.11524" lon="-1.79982">
        <ele>70</ele>
        <time>2021-09-18T10:00:47.000Z</time>
      </trkpt>
      <trkpt lat="47.11514" lon="-1.79993">
        <ele>69</ele>
        <time>2021-09-18T10:00:49.000Z</time>
      </trkpt>
      <trkpt lat="47.11505" lon="-1.80005">
        <ele>69</ele>
        <time>2021-09-18T10:00:51.000Z</time>
      </trkpt>
      <trkpt lat="47.11496" lon="-1.80018">
        <ele>69</ele>
        <time>2021-09-18T10:00:53.000Z</time>
      </trkpt>
      <trkpt lat="47.11487" lon="-1.8003">
        <ele>69</ele>
        <time>2021-09-18T10:00:55.000Z</time>
      </trkpt>
      <trkpt lat="47.11478" lon="-1.80042">
        <ele>69</ele>
        <time>2021-09-18T10:00:57.000Z</time>
      </trkpt>
      <trkpt lat="47.11469" lon="-1.80054">
        <ele>69</ele>
        <time>2021-09-18T10:00:59.000Z</time>
      </trkpt>
      <trkpt lat="47.1146" lon="-1.80065">
        <ele>69</ele>
        <time>2021-09-18T10:01:01.000Z</time>
      </trkpt>
      <trkpt lat="47.11451" lon="-1.80077">
        <ele>69</ele>
        <time>2021-09-18T10:01:03.000Z</time>
      </trkpt>
      <trkpt lat="47.11442" lon="-1.80088">
        <ele>69</ele>
        <time>2021-09-18T10:01:05.000Z</time>
      </trkpt>
      <trkpt lat="47.11433" lon="-1.801">
        <ele>69</ele>
        <time>2021-09-18T10:01:07.000Z</time>
      </trkpt>
      <trkpt lat="47.11425" lon="-1.80112">
        <ele>68</ele>
        <time>2021-09-18T10:01:09.000Z</time>
      </trkpt>
      <trkpt lat="47.11416" lon="-1.80124">
        <ele>68</ele>
        <time>2021-09-18T10:01:11.000Z</time>
      </trkpt>
      <trkpt lat="47.11407" lon="-1.80136">
        <ele>68</ele>
        <time>2021-09-18T10:01:13.000Z</time>
      </trkpt>
      <trkpt lat="47.11398" lon="-1.80149">
        <ele>68</ele>
        <time>2021-09-18T10:01:15.000Z</time>
      </trkpt>
      <trkpt lat="47.11389" lon="-1.8016">
        <ele>67</ele>
        <time>2021-09-18T10:01:17.000Z</time>
      </trkpt>
      <trkpt lat="47.1138" lon="-1.80172">
        <ele>67</ele>
        <time>2021-09-18T10:01:19.000Z</time>
      </trkpt>
      <trkpt lat="47.1137" lon="-1.80184">
        <ele>67</ele>
        <time>2021-09-18T10:01:21.000Z</time>
      </trkpt>
      <trkpt lat="47.11361" lon="-1.80196">
        <ele>66</ele>
        <time>2021-09-18T10:01:23.000Z</time>
      </trkpt>
      <trkpt lat="47.11351" lon="-1.80208">
        <ele>66</ele>
        <time>2021-09-18T10:01:25.000Z</time>
      </trkpt>
      <trkpt lat="47.11342" lon="-1.8022">
        <ele>66</ele>
        <time>2021-09-18T10:01:27.000Z</time>
      </trkpt>
      <trkpt lat="47.11333" lon="-1.80233">
        <ele>66</ele>
        <time>2021-09-18T10:01:29.000Z</time>
      </trkpt>
      <trkpt lat="47.11324" lon="-1.80246">
        <ele>66</ele>
        <time>2021-09-18T10:01:31.000Z</time>
      </trkpt>
      <trkpt lat="47.11316" lon="-1.80259">
        <ele>66</ele>
        <time>2021-09-18T10:01:33.000Z</time>
      </trkpt>
      <trkpt lat="47.11307" lon="-1.80273">
        <ele>66</ele>
        <time>2021-09-18T10:01:35.000Z</time>
      </trkpt>
      <trkpt lat="47.11299" lon="-1.80286">
        <ele>66</ele>
        <time>2021-09-18T10:01:37.000Z</time>
      </trkpt>
      <trkpt lat="47.1129" lon="-1.80299">
        <ele>67</ele>
        <time>2021-09-18T10:01:39.000Z</time>
      </trkpt>
      <trkpt lat="47.1128" lon="-1.80312">
        <ele>66</ele>
        <time>2021-09-18T10:01:41.000Z</time>
      </trkpt>
      <trkpt lat="47.11271" lon="-1.80325">
        <ele>66</ele>
        <time>2021-09-18T10:01:43.000Z</time>
      </trkpt>
      <trkpt lat="47.11262" lon="-1.80337">
        <ele>67</ele>
        <time>2021-09-18T10:01:45.000Z</time>
      </trkpt>
      <trkpt lat="47.11252" lon="-1.8035">
        <ele>66</ele>
        <time>2021-09-18T10:01:47.000Z</time>
      </trkpt>
      <trkpt lat="47.11242" lon="-1.80362">
        <ele>66</ele>
        <time>2021-09-18T10:01:49.000Z</time>
      </trkpt>
      <trkpt lat="47.11233" lon="-1.80374">
        <ele>66</ele>
        <time>2021-09-18T10:01:51.000Z</time>
      </trkpt>
      <trkpt lat="47.11223" lon="-1.80386">
        <ele>66</ele>
        <time>2021-09-18T10:01:53.000Z</time>
      </trkpt>
      <trkpt lat="47.11213" lon="-1.80398">
        <ele>66</ele>
        <time>2021-09-18T10:01:55.000Z</time>
      </trkpt>
      <trkpt lat="47.11203" lon="-1.80408">
        <ele>66</ele>
        <time>2021-09-18T10:01:57.000Z</time>
      </trkpt>
      <trkpt lat="47.11193" lon="-1.80418">
        <ele>65</ele>
        <time>2021-09-18T10:01:59.000Z</time>
      </trkpt>
      <trkpt lat="47.11183" lon="-1.80428">
        <ele>65</ele>
        <time>2021-09-18T10:02:01.000Z</time>
      </trkpt>
      <trkpt lat="47.11171" lon="-1.80436">
        <ele>65</ele>
        <time>2021-09-18T10:02:03.000Z</time>
      </trkpt>
      <trkpt lat="47.1116" lon="-1.80443">
        <ele>64</ele>
        <time>2021-09-18T10:02:05.000Z</time>
      </trkpt>
      <trkpt lat="47.11149" lon="-1.8045">
        <ele>64</ele>
        <time>2021-09-18T10:02:07.000Z</time>
      </trkpt>
      <trkpt lat="47.11138" lon="-1.80458">
        <ele>64</ele>
        <time>2021-09-18T10:02:09.000Z</time>
      </trkpt>
      <trkpt lat="47.11127" lon="-1.80465">
        <ele>64</ele>
        <time>2021-09-18T10:02:11.000Z</time>
      </trkpt>
      <trkpt lat="47.11116" lon="-1.80473">
        <ele>65</ele>
        <time>2021-09-18T10:02:13.000Z</time>
      </trkpt>
      <trkpt lat="47.11106" lon="-1.8048">
        <ele>65</ele>
        <time>2021-09-18T10:02:15.000Z</time>
      </trkpt>
      <trkpt lat="47.11095" lon="-1.80487">
        <ele>65</ele>
        <time>2021-09-18T10:02:17.000Z</time>
      </trkpt>
      <trkpt lat="47.11084" lon="-1.80493">
        <ele>65</ele>
        <time>2021-09-18T10:02:19.000Z</time>
      </trkpt>
      <trkpt lat="47.11073" lon="-1.805">
        <ele>65</ele>
        <time>2021-09-18T10:02:21.000Z</time>
      </trkpt>
      <trkpt lat="47.11062" lon="-1.80508">
        <ele>66</ele>
        <time>2021-09-18T10:02:23.000Z</time>
      </trkpt>
      <trkpt lat="47.11051" lon="-1.80515">
        <ele>66</ele>
        <time>2021-09-18T10:02:25.000Z</time>
      </trkpt>
      <trkpt lat="47.11041" lon="-1.80522">
        <ele>65</ele>
        <time>2021-09-18T10:02:27.000Z</time>
      </trkpt>
      <trkpt lat="47.1103" lon="-1.80529">
        <ele>65</ele>
        <time>2021-09-18T10:02:29.000Z</time>
      </trkpt>
      <trkpt lat="47.11019" lon="-1.80536">
        <ele>65</ele>
        <time>2021-09-18T10:02:31.000Z</time>
      </trkpt>
      <trkpt lat="47.11008" lon="-1.80544">
        <ele>65</ele>
        <time>2021-09-18T10:02:33.000Z</time>
      </trkpt>
      <trkpt lat="47.10997" lon="-1.80552">
        <ele>65</ele>
        <time>2021-09-18T10:02:35.000Z</time>
      </trkpt>
      <trkpt lat="47.10986" lon="-1.80559">
        <ele>65</ele>
        <time>2021-09-18T10:02:37.000Z</time>
      </trkpt>
      <trkpt lat="47.10975" lon="-1.80566">
        <ele>65</ele>
        <time>2021-09-18T10:02:39.000Z</time>
      </trkpt>
      <trkpt lat="47.10964" lon="-1.80574">
        <ele>65</ele>
        <time>2021-09-18T10:02:41.000Z</time>
      </trkpt>
      <trkpt lat="47.10952" lon="-1.80581">
        <ele>65</ele>
        <time>2021-09-18T10:02:43.000Z</time>
      </trkpt>
      <trkpt lat="47.10941" lon="-1.80588">
        <ele>65</ele>
        <time>2021-09-18T10:02:45.000Z</time>
      </trkpt>
      <trkpt lat="47.1093" lon="-1.80596">
        <ele>65</ele>
        <time>2021-09-18T10:02:47.000Z</time>
      </trkpt>
      <trkpt lat="47.10919" lon="-1.80603">
        <ele>65</ele>
        <time>2021-09-18T10:02:49.000Z</time>
      </trkpt>
      <trkpt lat="47.10908" lon="-1.8061">
        <ele>65</ele>
        <time>2021-09-18T10:02:51.000Z</time>
      </trkpt>
      <trkpt lat="47.10897" lon="-1.80617">
        <ele>65</ele>
        <time>2021-09-18T10:02:53.000Z</time>
      </trkpt>
      <trkpt lat="47.10886" lon="-1.80625">
        <ele>64</ele>
        <time>2021-09-18T10:02:55.000Z</time>
      </trkpt>
      <trkpt lat="47.10875" lon="-1.80631">
        <ele>65</ele>
        <time>2021-09-18T10:02:57.000Z</time>
      </trkpt>
      <trkpt lat="47.10864" lon="-1.80637">
        <ele>65</ele>
        <time>2021-09-18T10:02:59.000Z</time>
      </trkpt>
      <trkpt lat="47.10853" lon="-1.80642">
        <ele>65</ele>
        <time>2021-09-18T10:03:01.000Z</time>
      </trkpt>
      <trkpt lat="47.10841" lon="-1.80646">
        <ele>65</ele>
        <time>2021-09-18T10:03:03.000Z</time>
      </trkpt>
      <trkpt lat="47.1083" lon="-1.80651">
        <ele>65</ele>
        <time>2021-09-18T10:03:05.000Z</time>
      </trkpt>
      <trkpt lat="47.10818" lon="-1.80655">
        <ele>65</ele>
        <time>2021-09-18T10:03:07.000Z</time>
      </trkpt>
      <trkpt lat="47.10805" lon="-1.80661">
        <ele>65</ele>
        <time>2021-09-18T10:03:09.000Z</time>
      </trkpt>
      <trkpt lat="47.10793" lon="-1.80665">
        <ele>64</ele>
        <time>2021-09-18T10:03:11.000Z</time>
      </trkpt>
      <trkpt lat="47.1078" lon="-1.8067">
        <ele>64</ele>
        <time>2021-09-18T10:03:13.000Z</time>
      </trkpt>
      <trkpt lat="47.10768" lon="-1.80674">
        <ele>64</ele>
        <time>2021-09-18T10:03:15.000Z</time>
      </trkpt>
      <trkpt lat="47.10755" lon="-1.80678">
        <ele>64</ele>
        <time>2021-09-18T10:03:17.000Z</time>
      </trkpt>
      <trkpt lat="47.10743" lon="-1.80681">
        <ele>64</ele>
        <time>2021-09-18T10:03:19.000Z</time>
      </trkpt>
      <trkpt lat="47.1073" lon="-1.80683">
        <ele>64</ele>
        <time>2021-09-18T10:03:21.000Z</time>
      </trkpt>
      <trkpt lat="47.10718" lon="-1.80685">
        <ele>64</ele>
        <time>2021-09-18T10:03:23.000Z</time>
      </trkpt>
      <trkpt lat="47.10705" lon="-1.80686">
        <ele>64</ele>
        <time>2021-09-18T10:03:25.000Z</time>
      </trkpt>
      <trkpt lat="47.10692" lon="-1.80688">
        <ele>64</ele>
        <time>2021-09-18T10:03:27.000Z</time>
      </trkpt>
      <trkpt lat="47.1068" lon="-1.80688">
        <ele>64</ele>
        <time>2021-09-18T10:03:29.000Z</time>
      </trkpt>
      <trkpt lat="47.10667" lon="-1.8069">
        <ele>65</ele>
        <time>2021-09-18T10:03:31.000Z</time>
      </trkpt>
      <trkpt lat="47.10655" lon="-1.80691">
        <ele>64</ele>
        <time>2021-09-18T10:03:33.000Z</time>
      </trkpt>
      <trkpt lat="47.10643" lon="-1.80692">
        <ele>64</ele>
        <time>2021-09-18T10:03:35.000Z</time>
      </trkpt>
      <trkpt lat="47.1063" lon="-1.80695">
        <ele>65</ele>
        <time>2021-09-18T10:03:37.000Z</time>
      </trkpt>
      <trkpt lat="47.10618" lon="-1.80699">
        <ele>64</ele>
        <time>2021-09-18T10:03:39.000Z</time>
      </trkpt>
      <trkpt lat="47.10606" lon="-1.80704">
        <ele>64</ele>
        <time>2021-09-18T10:03:41.000Z</time>
      </trkpt>
      <trkpt lat="47.10594" lon="-1.8071">
        <ele>64</ele>
        <time>2021-09-18T10:03:43.000Z</time>
      </trkpt>
      <trkpt lat="47.10583" lon="-1.80718">
        <ele>63</ele>
        <time>2021-09-18T10:03:45.000Z</time>
      </trkpt>
      <trkpt lat="47.10572" lon="-1.80728">
        <ele>63</ele>
        <time>2021-09-18T10:03:47.000Z</time>
      </trkpt>
      <trkpt lat="47.10562" lon="-1.80739">
        <ele>63</ele>
        <time>2021-09-18T10:03:49.000Z</time>
      </trkpt>
      <trkpt lat="47.10553" lon="-1.80751">
        <ele>63</ele>
        <time>2021-09-18T10:03:51.000Z</time>
      </trkpt>
      <trkpt lat="47.10543" lon="-1.80763">
        <ele>64</ele>
        <time>2021-09-18T10:03:53.000Z</time>
      </trkpt>
      <trkpt lat="47.10534" lon="-1.80774">
        <ele>64</ele>
        <time>2021-09-18T10:03:55.000Z</time>
      </trkpt>
      <trkpt lat="47.10525" lon="-1.80785">
        <ele>64</ele>
        <time>2021-09-18T10:03:57.000Z</time>
      </trkpt>
      <trkpt lat="47.10517" lon="-1.80797">
        <ele>64</ele>
        <time>2021-09-18T10:03:59.000Z</time>
      </trkpt>
      <trkpt lat="47.10508" lon="-1.80809">
        <ele>63</ele>
        <time>2021-09-18T10:04:01.000Z</time>
      </trkpt>
      <trkpt lat="47.10496" lon="-1.80817">
        <ele>62</ele>
        <time>2021-09-18T10:04:03.000Z</time>
      </trkpt>
      <trkpt lat="47.10486" lon="-1.80827">
        <ele>62</ele>
        <time>2021-09-18T10:04:05.000Z</time>
      </trkpt>
      <trkpt lat="47.10477" lon="-1.8084">
        <ele>62</ele>
        <time>2021-09-18T10:04:07.000Z</time>
      </trkpt>
      <trkpt lat="47.10468" lon="-1.80854">
        <ele>62</ele>
        <time>2021-09-18T10:04:09.000Z</time>
      </trkpt>
      <trkpt lat="47.1046" lon="-1.80867">
        <ele>62</ele>
        <time>2021-09-18T10:04:11.000Z</time>
      </trkpt>
      <trkpt lat="47.10451" lon="-1.80881">
        <ele>62</ele>
        <time>2021-09-18T10:04:13.000Z</time>
      </trkpt>
      <trkpt lat="47.10444" lon="-1.80894">
        <ele>62</ele>
        <time>2021-09-18T10:04:15.000Z</time>
      </trkpt>
      <trkpt lat="47.10436" lon="-1.80906">
        <ele>62</ele>
        <time>2021-09-18T10:04:17.000Z</time>
      </trkpt>
      <trkpt lat="47.10427" lon="-1.80918">
        <ele>63</ele>
        <time>2021-09-18T10:04:19.000Z</time>
      </trkpt>
      <trkpt lat="47.1042" lon="-1.80931">
        <ele>62</ele>
        <time>2021-09-18T10:04:21.000Z</time>
      </trkpt>
      <trkpt lat="47.10412" lon="-1.80944">
        <ele>63</ele>
        <time>2021-09-18T10:04:23.000Z</time>
      </trkpt>
      <trkpt lat="47.10404" lon="-1.80956">
        <ele>63</ele>
        <time>2021-09-18T10:04:25.000Z</time>
      </trkpt>
      <trkpt lat="47.10397" lon="-1.80968">
        <ele>63</ele>
        <time>2021-09-18T10:04:27.000Z</time>
      </trkpt>
      <trkpt lat="47.1039" lon="-1.80979">
        <ele>63</ele>
        <time>2021-09-18T10:04:29.000Z</time>
      </trkpt>
      <trkpt lat="47.10383" lon="-1.8099">
        <ele>63</ele>
        <time>2021-09-18T10:04:32.000Z</time>
      </trkpt>
      <trkpt lat="47.10378" lon="-1.81002">
        <ele>63</ele>
        <time>2021-09-18T10:04:35.000Z</time>
      </trkpt>
      <trkpt lat="47.10373" lon="-1.81015">
        <ele>64</ele>
        <time>2021-09-18T10:04:38.000Z</time>
      </trkpt>
      <trkpt lat="47.10366" lon="-1.8103">
        <ele>65</ele>
        <time>2021-09-18T10:04:41.000Z</time>
      </trkpt>
      <trkpt lat="47.10359" lon="-1.8104">
        <ele>67</ele>
        <time>2021-09-18T10:04:43.000Z</time>
      </trkpt>
      <trkpt lat="47.10346" lon="-1.81036">
        <ele>68</ele>
        <time>2021-09-18T10:04:46.000Z</time>
      </trkpt>
      <trkpt lat="47.10338" lon="-1.81022">
        <ele>67</ele>
        <time>2021-09-18T10:04:48.000Z</time>
      </trkpt>
      <trkpt lat="47.10326" lon="-1.81013">
        <ele>66</ele>
        <time>2021-09-18T10:04:50.000Z</time>
      </trkpt>
      <trkpt lat="47.10313" lon="-1.81013">
        <ele>66</ele>
        <time>2021-09-18T10:04:52.000Z</time>
      </trkpt>
      <trkpt lat="47.10298" lon="-1.81011">
        <ele>66</ele>
        <time>2021-09-18T10:04:54.000Z</time>
      </trkpt>
      <trkpt lat="47.10283" lon="-1.81009">
        <ele>65</ele>
        <time>2021-09-18T10:04:56.000Z</time>
      </trkpt>
      <trkpt lat="47.10269" lon="-1.81008">
        <ele>65</ele>
        <time>2021-09-18T10:04:58.000Z</time>
      </trkpt>
      <trkpt lat="47.10255" lon="-1.81009">
        <ele>64</ele>
        <time>2021-09-18T10:05:00.000Z</time>
      </trkpt>
      <trkpt lat="47.10241" lon="-1.8101">
        <ele>63</ele>
        <time>2021-09-18T10:05:02.000Z</time>
      </trkpt>
      <trkpt lat="47.10228" lon="-1.81011">
        <ele>63</ele>
        <time>2021-09-18T10:05:04.000Z</time>
      </trkpt>
      <trkpt lat="47.10214" lon="-1.81007">
        <ele>62</ele>
        <time>2021-09-18T10:05:06.000Z</time>
      </trkpt>
      <trkpt lat="47.102" lon="-1.81">
        <ele>63</ele>
        <time>2021-09-18T10:05:08.000Z</time>
      </trkpt>
      <trkpt lat="47.10188" lon="-1.80994">
        <ele>62</ele>
        <time>2021-09-18T10:05:10.000Z</time>
      </trkpt>
      <trkpt lat="47.10174" lon="-1.80988">
        <ele>61</ele>
        <time>2021-09-18T10:05:12.000Z</time>
      </trkpt>
      <trkpt lat="47.10162" lon="-1.8098">
        <ele>61</ele>
        <time>2021-09-18T10:05:14.000Z</time>
      </trkpt>
      <trkpt lat="47.10149" lon="-1.80974">
        <ele>60</ele>
        <time>2021-09-18T10:05:16.000Z</time>
      </trkpt>
      <trkpt lat="47.10137" lon="-1.80971">
        <ele>60</ele>
        <time>2021-09-18T10:05:18.000Z</time>
      </trkpt>
      <trkpt lat="47.10125" lon="-1.80971">
        <ele>59</ele>
        <time>2021-09-18T10:05:20.000Z</time>
      </trkpt>
      <trkpt lat="47.10113" lon="-1.80971">
        <ele>58</ele>
        <time>2021-09-18T10:05:22.000Z</time>
      </trkpt>
      <trkpt lat="47.10102" lon="-1.80971">
        <ele>58</ele>
        <time>2021-09-18T10:05:24.000Z</time>
      </trkpt>
      <trkpt lat="47.10089" lon="-1.80972">
        <ele>58</ele>
        <time>2021-09-18T10:05:26.000Z</time>
      </trkpt>
      <trkpt lat="47.10077" lon="-1.80972">
        <ele>58</ele>
        <time>2021-09-18T10:05:28.000Z</time>
      </trkpt>
      <trkpt lat="47.10065" lon="-1.80972">
        <ele>59</ele>
        <time>2021-09-18T10:05:30.000Z</time>
      </trkpt>
      <trkpt lat="47.10054" lon="-1.80972">
        <ele>59</ele>
        <time>2021-09-18T10:05:32.000Z</time>
      </trkpt>
      <trkpt lat="47.10042" lon="-1.80973">
        <ele>59</ele>
        <time>2021-09-18T10:05:34.000Z</time>
      </trkpt>
      <trkpt lat="47.10031" lon="-1.80974">
        <ele>60</ele>
        <time>2021-09-18T10:05:36.000Z</time>
      </trkpt>
      <trkpt lat="47.1002" lon="-1.80976">
        <ele>60</ele>
        <time>2021-09-18T10:05:38.000Z</time>
      </trkpt>
      <trkpt lat="47.10008" lon="-1.80978">
        <ele>60</ele>
        <time>2021-09-18T10:05:40.000Z</time>
      </trkpt>
      <trkpt lat="47.09997" lon="-1.80978">
        <ele>60</ele>
        <time>2021-09-18T10:05:42.000Z</time>
      </trkpt>
      <trkpt lat="47.09986" lon="-1.80978">
        <ele>60</ele>
        <time>2021-09-18T10:05:44.000Z</time>
      </trkpt>
      <trkpt lat="47.09975" lon="-1.80978">
        <ele>61</ele>
        <time>2021-09-18T10:05:46.000Z</time>
      </trkpt>
      <trkpt lat="47.09964" lon="-1.80978">
        <ele>61</ele>
        <time>2021-09-18T10:05:48.000Z</time>
      </trkpt>
      <trkpt lat="47.09953" lon="-1.80979">
        <ele>62</ele>
        <time>2021-09-18T10:05:50.000Z</time>
      </trkpt>
      <trkpt lat="47.09943" lon="-1.8098">
        <ele>61</ele>
        <time>2021-09-18T10:05:52.000Z</time>
      </trkpt>
      <trkpt lat="47.09932" lon="-1.80981">
        <ele>61</ele>
        <time>2021-09-18T10:05:54.000Z</time>
      </trkpt>
      <trkpt lat="47.09921" lon="-1.80982">
        <ele>61</ele>
        <time>2021-09-18T10:05:56.000Z</time>
      </trkpt>
      <trkpt lat="47.0991" lon="-1.80983">
        <ele>62</ele>
        <time>2021-09-18T10:05:58.000Z</time>
      </trkpt>
      <trkpt lat="47.09898" lon="-1.80984">
        <ele>62</ele>
        <time>2021-09-18T10:06:00.000Z</time>
      </trkpt>
      <trkpt lat="47.09887" lon="-1.80984">
        <ele>62</ele>
        <time>2021-09-18T10:06:02.000Z</time>
      </trkpt>
      <trkpt lat="47.09876" lon="-1.80984">
        <ele>62</ele>
        <time>2021-09-18T10:06:04.000Z</time>
      </trkpt>
      <trkpt lat="47.09865" lon="-1.80985">
        <ele>62</ele>
        <time>2021-09-18T10:06:06.000Z</time>
      </trkpt>
      <trkpt lat="47.09853" lon="-1.80986">
        <ele>63</ele>
        <time>2021-09-18T10:06:08.000Z</time>
      </trkpt>
      <trkpt lat="47.09842" lon="-1.80987">
        <ele>63</ele>
        <time>2021-09-18T10:06:10.000Z</time>
      </trkpt>
      <trkpt lat="47.09831" lon="-1.80987">
        <ele>63</ele>
        <time>2021-09-18T10:06:12.000Z</time>
      </trkpt>
      <trkpt lat="47.09821" lon="-1.80988">
        <ele>63</ele>
        <time>2021-09-18T10:06:14.000Z</time>
      </trkpt>
      <trkpt lat="47.09811" lon="-1.8099">
        <ele>63</ele>
        <time>2021-09-18T10:06:16.000Z</time>
      </trkpt>
      <trkpt lat="47.098" lon="-1.80989">
        <ele>63</ele>
        <time>2021-09-18T10:06:18.000Z</time>
      </trkpt>
      <trkpt lat="47.09789" lon="-1.80988">
        <ele>63</ele>
        <time>2021-09-18T10:06:20.000Z</time>
      </trkpt>
      <trkpt lat="47.09778" lon="-1.80987">
        <ele>63</ele>
        <time>2021-09-18T10:06:22.000Z</time>
      </trkpt>
      <trkpt lat="47.09767" lon="-1.80985">
        <ele>63</ele>
        <time>2021-09-18T10:06:24.000Z</time>
      </trkpt>
      <trkpt lat="47.09756" lon="-1.80983">
        <ele>63</ele>
        <time>2021-09-18T10:06:26.000Z</time>
      </trkpt>
      <trkpt lat="47.09744" lon="-1.8098">
        <ele>63</ele>
        <time>2021-09-18T10:06:28.000Z</time>
      </trkpt>
      <trkpt lat="47.09733" lon="-1.80978">
        <ele>62</ele>
        <time>2021-09-18T10:06:30.000Z</time>
      </trkpt>
      <trkpt lat="47.09721" lon="-1.80975">
        <ele>62</ele>
        <time>2021-09-18T10:06:32.000Z</time>
      </trkpt>
      <trkpt lat="47.09709" lon="-1.80973">
        <ele>61</ele>
        <time>2021-09-18T10:06:34.000Z</time>
      </trkpt>
      <trkpt lat="47.09696" lon="-1.8097">
        <ele>61</ele>
        <time>2021-09-18T10:06:36.000Z</time>
      </trkpt>
      <trkpt lat="47.09684" lon="-1.80967">
        <ele>61</ele>
        <time>2021-09-18T10:06:38.000Z</time>
      </trkpt>
      <trkpt lat="47.09672" lon="-1.80965">
        <ele>61</ele>
        <time>2021-09-18T10:06:40.000Z</time>
      </trkpt>
      <trkpt lat="47.0966" lon="-1.80962">
        <ele>61</ele>
        <time>2021-09-18T10:06:42.000Z</time>
      </trkpt>
      <trkpt lat="47.09647" lon="-1.80959">
        <ele>61</ele>
        <time>2021-09-18T10:06:44.000Z</time>
      </trkpt>
      <trkpt lat="47.09636" lon="-1.80956">
        <ele>61</ele>
        <time>2021-09-18T10:06:46.000Z</time>
      </trkpt>
      <trkpt lat="47.09624" lon="-1.80954">
        <ele>61</ele>
        <time>2021-09-18T10:06:48.000Z</time>
      </trkpt>
      <trkpt lat="47.09612" lon="-1.80951">
        <ele>61</ele>
        <time>2021-09-18T10:06:50.000Z</time>
      </trkpt>
      <trkpt lat="47.096" lon="-1.80949">
        <ele>61</ele>
        <time>2021-09-18T10:06:52.000Z</time>
      </trkpt>
      <trkpt lat="47.09588" lon="-1.80945">
        <ele>61</ele>
        <time>2021-09-18T10:06:54.000Z</time>
      </trkpt>
      <trkpt lat="47.09576" lon="-1.80942">
        <ele>61</ele>
        <time>2021-09-18T10:06:56.000Z</time>
      </trkpt>
      <trkpt lat="47.09563" lon="-1.8094">
        <ele>60</ele>
        <time>2021-09-18T10:06:58.000Z</time>
      </trkpt>
      <trkpt lat="47.09551" lon="-1.80937">
        <ele>60</ele>
        <time>2021-09-18T10:07:00.000Z</time>
      </trkpt>
      <trkpt lat="47.09539" lon="-1.80934">
        <ele>60</ele>
        <time>2021-09-18T10:07:02.000Z</time>
      </trkpt>
      <trkpt lat="47.09527" lon="-1.80932">
        <ele>61</ele>
        <time>2021-09-18T10:07:04.000Z</time>
      </trkpt>
      <trkpt lat="47.09515" lon="-1.80929">
        <ele>61</ele>
        <time>2021-09-18T10:07:06.000Z</time>
      </trkpt>
      <trkpt lat="47.09503" lon="-1.80928">
        <ele>60</ele>
        <time>2021-09-18T10:07:08.000Z</time>
      </trkpt>
      <trkpt lat="47.09491" lon="-1.80927">
        <ele>60</ele>
        <time>2021-09-18T10:07:10.000Z</time>
      </trkpt>
      <trkpt lat="47.0948" lon="-1.80929">
        <ele>60</ele>
        <time>2021-09-18T10:07:12.000Z</time>
      </trkpt>
      <trkpt lat="47.09469" lon="-1.80934">
        <ele>59</ele>
        <time>2021-09-18T10:07:14.000Z</time>
      </trkpt>
      <trkpt lat="47.09458" lon="-1.8094">
        <ele>60</ele>
        <time>2021-09-18T10:07:16.000Z</time>
      </trkpt>
      <trkpt lat="47.09448" lon="-1.80947">
        <ele>60</ele>
        <time>2021-09-18T10:07:18.000Z</time>
      </trkpt>
      <trkpt lat="47.09436" lon="-1.80953">
        <ele>60</ele>
        <time>2021-09-18T10:07:20.000Z</time>
      </trkpt>
      <trkpt lat="47.09426" lon="-1.80959">
        <ele>60</ele>
        <time>2021-09-18T10:07:22.000Z</time>
      </trkpt>
      <trkpt lat="47.09415" lon="-1.80966">
        <ele>60</ele>
        <time>2021-09-18T10:07:24.000Z</time>
      </trkpt>
      <trkpt lat="47.09404" lon="-1.80973">
        <ele>60</ele>
        <time>2021-09-18T10:07:26.000Z</time>
      </trkpt>
      <trkpt lat="47.09392" lon="-1.8098">
        <ele>60</ele>
        <time>2021-09-18T10:07:28.000Z</time>
      </trkpt>
      <trkpt lat="47.0938" lon="-1.80988">
        <ele>60</ele>
        <time>2021-09-18T10:07:30.000Z</time>
      </trkpt>
      <trkpt lat="47.09368" lon="-1.80994">
        <ele>59</ele>
        <time>2021-09-18T10:07:32.000Z</time>
      </trkpt>
      <trkpt lat="47.09355" lon="-1.81002">
        <ele>58</ele>
        <time>2021-09-18T10:07:34.000Z</time>
      </trkpt>
      <trkpt lat="47.09343" lon="-1.81009">
        <ele>58</ele>
        <time>2021-09-18T10:07:36.000Z</time>
      </trkpt>
      <trkpt lat="47.0933" lon="-1.81017">
        <ele>57</ele>
        <time>2021-09-18T10:07:38.000Z</time>
      </trkpt>
      <trkpt lat="47.09317" lon="-1.81024">
        <ele>57</ele>
        <time>2021-09-18T10:07:40.000Z</time>
      </trkpt>
      <trkpt lat="47.09304" lon="-1.81031">
        <ele>56</ele>
        <time>2021-09-18T10:07:42.000Z</time>
      </trkpt>
      <trkpt lat="47.09292" lon="-1.81039">
        <ele>56</ele>
        <time>2021-09-18T10:07:44.000Z</time>
      </trkpt>
      <trkpt lat="47.0928" lon="-1.81046">
        <ele>55</ele>
        <time>2021-09-18T10:07:46.000Z</time>
      </trkpt>
      <trkpt lat="47.09267" lon="-1.81054">
        <ele>55</ele>
        <time>2021-09-18T10:07:48.000Z</time>
      </trkpt>
      <trkpt lat="47.09255" lon="-1.81061">
        <ele>55</ele>
        <time>2021-09-18T10:07:50.000Z</time>
      </trkpt>
      <trkpt lat="47.09244" lon="-1.81069">
        <ele>54</ele>
        <time>2021-09-18T10:07:52.000Z</time>
      </trkpt>
      <trkpt lat="47.09234" lon="-1.81078">
        <ele>54</ele>
        <time>2021-09-18T10:07:54.000Z</time>
      </trkpt>
      <trkpt lat="47.09228" lon="-1.8109">
        <ele>54</ele>
        <time>2021-09-18T10:07:59.000Z</time>
      </trkpt>
      <trkpt lat="47.09216" lon="-1.81089">
        <ele>54</ele>
        <time>2021-09-18T10:08:03.000Z</time>
      </trkpt>
      <trkpt lat="47.09206" lon="-1.8108">
        <ele>54</ele>
        <time>2021-09-18T10:08:05.000Z</time>
      </trkpt>
      <trkpt lat="47.09196" lon="-1.81072">
        <ele>55</ele>
        <time>2021-09-18T10:08:07.000Z</time>
      </trkpt>
      <trkpt lat="47.09186" lon="-1.81064">
        <ele>55</ele>
        <time>2021-09-18T10:08:09.000Z</time>
      </trkpt>
      <trkpt lat="47.09176" lon="-1.81056">
        <ele>55</ele>
        <time>2021-09-18T10:08:11.000Z</time>
      </trkpt>
      <trkpt lat="47.09167" lon="-1.81057">
        <ele>54</ele>
        <time>2021-09-18T10:08:13.000Z</time>
      </trkpt>
      <trkpt lat="47.09159" lon="-1.81073">
        <ele>54</ele>
        <time>2021-09-18T10:08:15.000Z</time>
      </trkpt>
      <trkpt lat="47.09152" lon="-1.81088">
        <ele>54</ele>
        <time>2021-09-18T10:08:17.000Z</time>
      </trkpt>
      <trkpt lat="47.09142" lon="-1.811">
        <ele>53</ele>
        <time>2021-09-18T10:08:19.000Z</time>
      </trkpt>
      <trkpt lat="47.09132" lon="-1.81109">
        <ele>54</ele>
        <time>2021-09-18T10:08:21.000Z</time>
      </trkpt>
      <trkpt lat="47.0912" lon="-1.81114">
        <ele>54</ele>
        <time>2021-09-18T10:08:23.000Z</time>
      </trkpt>
      <trkpt lat="47.09107" lon="-1.81116">
        <ele>54</ele>
        <time>2021-09-18T10:08:25.000Z</time>
      </trkpt>
      <trkpt lat="47.09095" lon="-1.81118">
        <ele>54</ele>
        <time>2021-09-18T10:08:27.000Z</time>
      </trkpt>
      <trkpt lat="47.09082" lon="-1.8112">
        <ele>54</ele>
        <time>2021-09-18T10:08:29.000Z</time>
      </trkpt>
      <trkpt lat="47.0907" lon="-1.81125">
        <ele>54</ele>
        <time>2021-09-18T10:08:31.000Z</time>
      </trkpt>
      <trkpt lat="47.0906" lon="-1.81136">
        <ele>54</ele>
        <time>2021-09-18T10:08:33.000Z</time>
      </trkpt>
      <trkpt lat="47.09053" lon="-1.81149">
        <ele>53</ele>
        <time>2021-09-18T10:08:35.000Z</time>
      </trkpt>
      <trkpt lat="47.09047" lon="-1.81164">
        <ele>54</ele>
        <time>2021-09-18T10:08:37.000Z</time>
      </trkpt>
      <trkpt lat="47.09042" lon="-1.8118">
        <ele>53</ele>
        <time>2021-09-18T10:08:39.000Z</time>
      </trkpt>
      <trkpt lat="47.09037" lon="-1.81195">
        <ele>53</ele>
        <time>2021-09-18T10:08:41.000Z</time>
      </trkpt>
      <trkpt lat="47.09033" lon="-1.8121">
        <ele>54</ele>
        <time>2021-09-18T10:08:43.000Z</time>
      </trkpt>
      <trkpt lat="47.09028" lon="-1.81225">
        <ele>55</ele>
        <time>2021-09-18T10:08:45.000Z</time>
      </trkpt>
      <trkpt lat="47.09022" lon="-1.8124">
        <ele>55</ele>
        <time>2021-09-18T10:08:47.000Z</time>
      </trkpt>
      <trkpt lat="47.09016" lon="-1.81253">
        <ele>55</ele>
        <time>2021-09-18T10:08:49.000Z</time>
      </trkpt>
      <trkpt lat="47.09008" lon="-1.81266">
        <ele>55</ele>
        <time>2021-09-18T10:08:51.000Z</time>
      </trkpt>
      <trkpt lat="47.09001" lon="-1.81277">
        <ele>56</ele>
        <time>2021-09-18T10:08:53.000Z</time>
      </trkpt>
      <trkpt lat="47.08993" lon="-1.81288">
        <ele>56</ele>
        <time>2021-09-18T10:08:55.000Z</time>
      </trkpt>
      <trkpt lat="47.08985" lon="-1.81299">
        <ele>56</ele>
        <time>2021-09-18T10:08:57.000Z</time>
      </trkpt>
      <trkpt lat="47.08976" lon="-1.8131">
        <ele>57</ele>
        <time>2021-09-18T10:08:59.000Z</time>
      </trkpt>
      <trkpt lat="47.08968" lon="-1.81322">
        <ele>57</ele>
        <time>2021-09-18T10:09:01.000Z</time>
      </trkpt>
      <trkpt lat="47.08959" lon="-1.81333">
        <ele>57</ele>
        <time>2021-09-18T10:09:03.000Z</time>
      </trkpt>
      <trkpt lat="47.08951" lon="-1.81345">
        <ele>58</ele>
        <time>2021-09-18T10:09:05.000Z</time>
      </trkpt>
      <trkpt lat="47.08943" lon="-1.81355">
        <ele>58</ele>
        <time>2021-09-18T10:09:07.000Z</time>
      </trkpt>
      <trkpt lat="47.08934" lon="-1.81365">
        <ele>58</ele>
        <time>2021-09-18T10:09:09.000Z</time>
      </trkpt>
      <trkpt lat="47.08924" lon="-1.81374">
        <ele>58</ele>
        <time>2021-09-18T10:09:11.000Z</time>
      </trkpt>
      <trkpt lat="47.08915" lon="-1.81383">
        <ele>58</ele>
        <time>2021-09-18T10:09:13.000Z</time>
      </trkpt>
      <trkpt lat="47.08906" lon="-1.81393">
        <ele>58</ele>
        <time>2021-09-18T10:09:15.000Z</time>
      </trkpt>
      <trkpt lat="47.08897" lon="-1.81403">
        <ele>58</ele>
        <time>2021-09-18T10:09:17.000Z</time>
      </trkpt>
      <trkpt lat="47.08888" lon="-1.81414">
        <ele>59</ele>
        <time>2021-09-18T10:09:19.000Z</time>
      </trkpt>
      <trkpt lat="47.0888" lon="-1.81424">
        <ele>59</ele>
        <time>2021-09-18T10:09:21.000Z</time>
      </trkpt>
      <trkpt lat="47.08872" lon="-1.81434">
        <ele>59</ele>
        <time>2021-09-18T10:09:23.000Z</time>
      </trkpt>
      <trkpt lat="47.08864" lon="-1.81444">
        <ele>59</ele>
        <time>2021-09-18T10:09:25.000Z</time>
      </trkpt>
      <trkpt lat="47.08855" lon="-1.81453">
        <ele>59</ele>
        <time>2021-09-18T10:09:27.000Z</time>
      </trkpt>
      <trkpt lat="47.08846" lon="-1.81462">
        <ele>60</ele>
        <time>2021-09-18T10:09:29.000Z</time>
      </trkpt>
      <trkpt lat="47.08836" lon="-1.81471">
        <ele>60</ele>
        <time>2021-09-18T10:09:31.000Z</time>
      </trkpt>
      <trkpt lat="47.08827" lon="-1.81479">
        <ele>60</ele>
        <time>2021-09-18T10:09:33.000Z</time>
      </trkpt>
      <trkpt lat="47.08817" lon="-1.81486">
        <ele>60</ele>
        <time>2021-09-18T10:09:35.000Z</time>
      </trkpt>
      <trkpt lat="47.08808" lon="-1.81494">
        <ele>60</ele>
        <time>2021-09-18T10:09:37.000Z</time>
      </trkpt>
      <trkpt lat="47.08799" lon="-1.81502">
        <ele>60</ele>
        <time>2021-09-18T10:09:39.000Z</time>
      </trkpt>
      <trkpt lat="47.0879" lon="-1.8151">
        <ele>61</ele>
        <time>2021-09-18T10:09:41.000Z</time>
      </trkpt>
      <trkpt lat="47.08781" lon="-1.81518">
        <ele>61</ele>
        <time>2021-09-18T10:09:43.000Z</time>
      </trkpt>
      <trkpt lat="47.08772" lon="-1.81525">
        <ele>62</ele>
        <time>2021-09-18T10:09:45.000Z</time>
      </trkpt>
      <trkpt lat="47.08763" lon="-1.81533">
        <ele>62</ele>
        <time>2021-09-18T10:09:47.000Z</time>
      </trkpt>
      <trkpt lat="47.08754" lon="-1.81541">
        <ele>62</ele>
        <time>2021-09-18T10:09:49.000Z</time>
      </trkpt>
      <trkpt lat="47.08745" lon="-1.8155">
        <ele>62</ele>
        <time>2021-09-18T10:09:51.000Z</time>
      </trkpt>
      <trkpt lat="47.08737" lon="-1.8156">
        <ele>62</ele>
        <time>2021-09-18T10:09:53.000Z</time>
      </trkpt>
      <trkpt lat="47.0873" lon="-1.81573">
        <ele>63</ele>
        <time>2021-09-18T10:09:55.000Z</time>
      </trkpt>
      <trkpt lat="47.08724" lon="-1.81586">
        <ele>64</ele>
        <time>2021-09-18T10:09:57.000Z</time>
      </trkpt>
      <trkpt lat="47.08718" lon="-1.81601">
        <ele>64</ele>
        <time>2021-09-18T10:09:59.000Z</time>
      </trkpt>
      <trkpt lat="47.08713" lon="-1.81615">
        <ele>65</ele>
        <time>2021-09-18T10:10:01.000Z</time>
      </trkpt>
      <trkpt lat="47.08708" lon="-1.81629">
        <ele>65</ele>
        <time>2021-09-18T10:10:03.000Z</time>
      </trkpt>
      <trkpt lat="47.08703" lon="-1.81643">
        <ele>65</ele>
        <time>2021-09-18T10:10:05.000Z</time>
      </trkpt>
      <trkpt lat="47.08699" lon="-1.81656">
        <ele>65</ele>
        <time>2021-09-18T10:10:07.000Z</time>
      </trkpt>
      <trkpt lat="47.08694" lon="-1.81669">
        <ele>65</ele>
        <time>2021-09-18T10:10:09.000Z</time>
      </trkpt>
      <trkpt lat="47.08686" lon="-1.8168">
        <ele>65</ele>
        <time>2021-09-18T10:10:11.000Z</time>
      </trkpt>
      <trkpt lat="47.08676" lon="-1.81687">
        <ele>65</ele>
        <time>2021-09-18T10:10:13.000Z</time>
      </trkpt>
      <trkpt lat="47.08666" lon="-1.81692">
        <ele>65</ele>
        <time>2021-09-18T10:10:15.000Z</time>
      </trkpt>
      <trkpt lat="47.08656" lon="-1.81695">
        <ele>65</ele>
        <time>2021-09-18T10:10:17.000Z</time>
      </trkpt>
      <trkpt lat="47.08645" lon="-1.81695">
        <ele>66</ele>
        <time>2021-09-18T10:10:19.000Z</time>
      </trkpt>
      <trkpt lat="47.08635" lon="-1.81692">
        <ele>66</ele>
        <time>2021-09-18T10:10:21.000Z</time>
      </trkpt>
      <trkpt lat="47.08624" lon="-1.81689">
        <ele>67</ele>
        <time>2021-09-18T10:10:23.000Z</time>
      </trkpt>
      <trkpt lat="47.08613" lon="-1.81687">
        <ele>67</ele>
        <time>2021-09-18T10:10:25.000Z</time>
      </trkpt>
      <trkpt lat="47.08602" lon="-1.81683">
        <ele>67</ele>
        <time>2021-09-18T10:10:27.000Z</time>
      </trkpt>
      <trkpt lat="47.08592" lon="-1.81681">
        <ele>67</ele>
        <time>2021-09-18T10:10:29.000Z</time>
      </trkpt>
      <trkpt lat="47.08581" lon="-1.81678">
        <ele>67</ele>
        <time>2021-09-18T10:10:31.000Z</time>
      </trkpt>
      <trkpt lat="47.0857" lon="-1.81676">
        <ele>67</ele>
        <time>2021-09-18T10:10:33.000Z</time>
      </trkpt>
      <trkpt lat="47.08559" lon="-1.81672">
        <ele>67</ele>
        <time>2021-09-18T10:10:35.000Z</time>
      </trkpt>
      <trkpt lat="47.08548" lon="-1.8167">
        <ele>67</ele>
        <time>2021-09-18T10:10:37.000Z</time>
      </trkpt>
      <trkpt lat="47.08537" lon="-1.81668">
        <ele>67</ele>
        <time>2021-09-18T10:10:39.000Z</time>
      </trkpt>
      <trkpt lat="47.08526" lon="-1.81666">
        <ele>68</ele>
        <time>2021-09-18T10:10:41.000Z</time>
      </trkpt>
      <trkpt lat="47.08515" lon="-1.81664">
        <ele>68</ele>
        <time>2021-09-18T10:10:43.000Z</time>
      </trkpt>
      <trkpt lat="47.08504" lon="-1.81662">
        <ele>69</ele>
        <time>2021-09-18T10:10:45.000Z</time>
      </trkpt>
      <trkpt lat="47.08492" lon="-1.8166">
        <ele>68</ele>
        <time>2021-09-18T10:10:47.000Z</time>
      </trkpt>
      <trkpt lat="47.0848" lon="-1.81659">
        <ele>69</ele>
        <time>2021-09-18T10:10:49.000Z</time>
      </trkpt>
      <trkpt lat="47.08469" lon="-1.81658">
        <ele>69</ele>
        <time>2021-09-18T10:10:51.000Z</time>
      </trkpt>
      <trkpt lat="47.08457" lon="-1.81656">
        <ele>69</ele>
        <time>2021-09-18T10:10:53.000Z</time>
      </trkpt>
      <trkpt lat="47.08445" lon="-1.81654">
        <ele>69</ele>
        <time>2021-09-18T10:10:55.000Z</time>
      </trkpt>
      <trkpt lat="47.08434" lon="-1.81652">
        <ele>69</ele>
        <time>2021-09-18T10:10:57.000Z</time>
      </trkpt>
      <trkpt lat="47.08422" lon="-1.81651">
        <ele>69</ele>
        <time>2021-09-18T10:10:59.000Z</time>
      </trkpt>
      <trkpt lat="47.0841" lon="-1.81649">
        <ele>69</ele>
        <time>2021-09-18T10:11:01.000Z</time>
      </trkpt>
      <trkpt lat="47.08398" lon="-1.81648">
        <ele>69</ele>
        <time>2021-09-18T10:11:03.000Z</time>
      </trkpt>
      <trkpt lat="47.08387" lon="-1.81646">
        <ele>69</ele>
        <time>2021-09-18T10:11:05.000Z</time>
      </trkpt>
      <trkpt lat="47.08375" lon="-1.81645">
        <ele>69</ele>
        <time>2021-09-18T10:11:07.000Z</time>
      </trkpt>
      <trkpt lat="47.08364" lon="-1.81643">
        <ele>69</ele>
        <time>2021-09-18T10:11:09.000Z</time>
      </trkpt>
      <trkpt lat="47.08352" lon="-1.81642">
        <ele>69</ele>
        <time>2021-09-18T10:11:11.000Z</time>
      </trkpt>
      <trkpt lat="47.08341" lon="-1.8164">
        <ele>69</ele>
        <time>2021-09-18T10:11:13.000Z</time>
      </trkpt>
      <trkpt lat="47.08329" lon="-1.81638">
        <ele>69</ele>
        <time>2021-09-18T10:11:15.000Z</time>
      </trkpt>
      <trkpt lat="47.08317" lon="-1.81637">
        <ele>69</ele>
        <time>2021-09-18T10:11:17.000Z</time>
      </trkpt>
      <trkpt lat="47.08307" lon="-1.81634">
        <ele>69</ele>
        <time>2021-09-18T10:11:19.000Z</time>
      </trkpt>
      <trkpt lat="47.08295" lon="-1.81634">
        <ele>69</ele>
        <time>2021-09-18T10:11:21.000Z</time>
      </trkpt>
      <trkpt lat="47.08284" lon="-1.81635">
        <ele>69</ele>
        <time>2021-09-18T10:11:23.000Z</time>
      </trkpt>
      <trkpt lat="47.08272" lon="-1.81635">
        <ele>69</ele>
        <time>2021-09-18T10:11:25.000Z</time>
      </trkpt>
      <trkpt lat="47.0826" lon="-1.81634">
        <ele>69</ele>
        <time>2021-09-18T10:11:27.000Z</time>
      </trkpt>
      <trkpt lat="47.08247" lon="-1.81634">
        <ele>69</ele>
        <time>2021-09-18T10:11:29.000Z</time>
      </trkpt>
      <trkpt lat="47.08235" lon="-1.81633">
        <ele>69</ele>
        <time>2021-09-18T10:11:31.000Z</time>
      </trkpt>
      <trkpt lat="47.08222" lon="-1.81633">
        <ele>69</ele>
        <time>2021-09-18T10:11:33.000Z</time>
      </trkpt>
      <trkpt lat="47.0821" lon="-1.81632">
        <ele>69</ele>
        <time>2021-09-18T10:11:35.000Z</time>
      </trkpt>
      <trkpt lat="47.08197" lon="-1.81631">
        <ele>68</ele>
        <time>2021-09-18T10:11:37.000Z</time>
      </trkpt>
      <trkpt lat="47.08185" lon="-1.8163">
        <ele>68</ele>
        <time>2021-09-18T10:11:39.000Z</time>
      </trkpt>
      <trkpt lat="47.08173" lon="-1.81629">
        <ele>68</ele>
        <time>2021-09-18T10:11:41.000Z</time>
      </trkpt>
      <trkpt lat="47.0816" lon="-1.81629">
        <ele>69</ele>
        <time>2021-09-18T10:11:43.000Z</time>
      </trkpt>
      <trkpt lat="47.08148" lon="-1.81628">
        <ele>69</ele>
        <time>2021-09-18T10:11:45.000Z</time>
      </trkpt>
      <trkpt lat="47.08135" lon="-1.81627">
        <ele>69</ele>
        <time>2021-09-18T10:11:47.000Z</time>
      </trkpt>
      <trkpt lat="47.08123" lon="-1.81626">
        <ele>69</ele>
        <time>2021-09-18T10:11:49.000Z</time>
      </trkpt>
      <trkpt lat="47.0811" lon="-1.81624">
        <ele>69</ele>
        <time>2021-09-18T10:11:51.000Z</time>
      </trkpt>
      <trkpt lat="47.08097" lon="-1.81621">
        <ele>69</ele>
        <time>2021-09-18T10:11:53.000Z</time>
      </trkpt>
      <trkpt lat="47.08084" lon="-1.81616">
        <ele>69</ele>
        <time>2021-09-18T10:11:55.000Z</time>
      </trkpt>
      <trkpt lat="47.08072" lon="-1.81612">
        <ele>70</ele>
        <time>2021-09-18T10:11:57.000Z</time>
      </trkpt>
      <trkpt lat="47.0806" lon="-1.81606">
        <ele>69</ele>
        <time>2021-09-18T10:11:59.000Z</time>
      </trkpt>
      <trkpt lat="47.08049" lon="-1.81599">
        <ele>69</ele>
        <time>2021-09-18T10:12:01.000Z</time>
      </trkpt>
      <trkpt lat="47.08037" lon="-1.81592">
        <ele>69</ele>
        <time>2021-09-18T10:12:03.000Z</time>
      </trkpt>
      <trkpt lat="47.08025" lon="-1.81584">
        <ele>69</ele>
        <time>2021-09-18T10:12:05.000Z</time>
      </trkpt>
      <trkpt lat="47.08013" lon="-1.81578">
        <ele>69</ele>
        <time>2021-09-18T10:12:07.000Z</time>
      </trkpt>
      <trkpt lat="47.08002" lon="-1.81572">
        <ele>69</ele>
        <time>2021-09-18T10:12:09.000Z</time>
      </trkpt>
      <trkpt lat="47.0799" lon="-1.81568">
        <ele>69</ele>
        <time>2021-09-18T10:12:11.000Z</time>
      </trkpt>
      <trkpt lat="47.07977" lon="-1.81564">
        <ele>68</ele>
        <time>2021-09-18T10:12:13.000Z</time>
      </trkpt>
      <trkpt lat="47.07965" lon="-1.81561">
        <ele>67</ele>
        <time>2021-09-18T10:12:15.000Z</time>
      </trkpt>
      <trkpt lat="47.07952" lon="-1.8156">
        <ele>67</ele>
        <time>2021-09-18T10:12:17.000Z</time>
      </trkpt>
      <trkpt lat="47.07939" lon="-1.81559">
        <ele>68</ele>
        <time>2021-09-18T10:12:19.000Z</time>
      </trkpt>
      <trkpt lat="47.07926" lon="-1.8156">
        <ele>68</ele>
        <time>2021-09-18T10:12:21.000Z</time>
      </trkpt>
      <trkpt lat="47.07914" lon="-1.81561">
        <ele>68</ele>
        <time>2021-09-18T10:12:23.000Z</time>
      </trkpt>
      <trkpt lat="47.07901" lon="-1.81562">
        <ele>68</ele>
        <time>2021-09-18T10:12:25.000Z</time>
      </trkpt>
      <trkpt lat="47.07889" lon="-1.81563">
        <ele>68</ele>
        <time>2021-09-18T10:12:27.000Z</time>
      </trkpt>
      <trkpt lat="47.07877" lon="-1.81563">
        <ele>68</ele>
        <time>2021-09-18T10:12:29.000Z</time>
      </trkpt>
      <trkpt lat="47.07865" lon="-1.81564">
        <ele>68</ele>
        <time>2021-09-18T10:12:31.000Z</time>
      </trkpt>
      <trkpt lat="47.07852" lon="-1.81563">
        <ele>68</ele>
        <time>2021-09-18T10:12:33.000Z</time>
      </trkpt>
      <trkpt lat="47.0784" lon="-1.81561">
        <ele>68</ele>
        <time>2021-09-18T10:12:35.000Z</time>
      </trkpt>
      <trkpt lat="47.07828" lon="-1.81558">
        <ele>68</ele>
        <time>2021-09-18T10:12:37.000Z</time>
      </trkpt>
      <trkpt lat="47.0781" lon="-1.81555">
        <ele>68</ele>
        <time>2021-09-18T10:12:40.000Z</time>
      </trkpt>
      <trkpt lat="47.07798" lon="-1.81553">
        <ele>68</ele>
        <time>2021-09-18T10:12:42.000Z</time>
      </trkpt>
      <trkpt lat="47.07786" lon="-1.81551">
        <ele>68</ele>
        <time>2021-09-18T10:12:44.000Z</time>
      </trkpt>
      <trkpt lat="47.07768" lon="-1.81549">
        <ele>68</ele>
        <time>2021-09-18T10:12:47.000Z</time>
      </trkpt>
      <trkpt lat="47.07756" lon="-1.81549">
        <ele>68</ele>
        <time>2021-09-18T10:12:49.000Z</time>
      </trkpt>
      <trkpt lat="47.07745" lon="-1.81548">
        <ele>68</ele>
        <time>2021-09-18T10:12:51.000Z</time>
      </trkpt>
      <trkpt lat="47.07733" lon="-1.81548">
        <ele>68</ele>
        <time>2021-09-18T10:12:53.000Z</time>
      </trkpt>
      <trkpt lat="47.07721" lon="-1.81547">
        <ele>68</ele>
        <time>2021-09-18T10:12:55.000Z</time>
      </trkpt>
      <trkpt lat="47.07709" lon="-1.81546">
        <ele>68</ele>
        <time>2021-09-18T10:12:57.000Z</time>
      </trkpt>
      <trkpt lat="47.07697" lon="-1.81545">
        <ele>69</ele>
        <time>2021-09-18T10:12:59.000Z</time>
      </trkpt>
      <trkpt lat="47.07685" lon="-1.81545">
        <ele>69</ele>
        <time>2021-09-18T10:13:01.000Z</time>
      </trkpt>
      <trkpt lat="47.07673" lon="-1.81544">
        <ele>68</ele>
        <time>2021-09-18T10:13:03.000Z</time>
      </trkpt>
      <trkpt lat="47.07661" lon="-1.81542">
        <ele>68</ele>
        <time>2021-09-18T10:13:05.000Z</time>
      </trkpt>
      <trkpt lat="47.07649" lon="-1.81539">
        <ele>68</ele>
        <time>2021-09-18T10:13:07.000Z</time>
      </trkpt>
      <trkpt lat="47.07637" lon="-1.81534">
        <ele>68</ele>
        <time>2021-09-18T10:13:09.000Z</time>
      </trkpt>
      <trkpt lat="47.07626" lon="-1.81526">
        <ele>68</ele>
        <time>2021-09-18T10:13:11.000Z</time>
      </trkpt>
      <trkpt lat="47.07615" lon="-1.81516">
        <ele>68</ele>
        <time>2021-09-18T10:13:13.000Z</time>
      </trkpt>
      <trkpt lat="47.07605" lon="-1.81506">
        <ele>68</ele>
        <time>2021-09-18T10:13:15.000Z</time>
      </trkpt>
      <trkpt lat="47.07594" lon="-1.81496">
        <ele>68</ele>
        <time>2021-09-18T10:13:17.000Z</time>
      </trkpt>
      <trkpt lat="47.07584" lon="-1.81487">
        <ele>69</ele>
        <time>2021-09-18T10:13:19.000Z</time>
      </trkpt>
      <trkpt lat="47.07574" lon="-1.81476">
        <ele>69</ele>
        <time>2021-09-18T10:13:21.000Z</time>
      </trkpt>
      <trkpt lat="47.07564" lon="-1.81466">
        <ele>69</ele>
        <time>2021-09-18T10:13:23.000Z</time>
      </trkpt>
      <trkpt lat="47.07554" lon="-1.81456">
        <ele>69</ele>
        <time>2021-09-18T10:13:25.000Z</time>
      </trkpt>
      <trkpt lat="47.07543" lon="-1.81447">
        <ele>69</ele>
        <time>2021-09-18T10:13:27.000Z</time>
      </trkpt>
      <trkpt lat="47.07531" lon="-1.81442">
        <ele>69</ele>
        <time>2021-09-18T10:13:29.000Z</time>
      </trkpt>
      <trkpt lat="47.0752" lon="-1.81444">
        <ele>69</ele>
        <time>2021-09-18T10:13:31.000Z</time>
      </trkpt>
      <trkpt lat="47.07508" lon="-1.81449">
        <ele>69</ele>
        <time>2021-09-18T10:13:33.000Z</time>
      </trkpt>
      <trkpt lat="47.07496" lon="-1.81457">
        <ele>69</ele>
        <time>2021-09-18T10:13:35.000Z</time>
      </trkpt>
      <trkpt lat="47.07485" lon="-1.81464">
        <ele>69</ele>
        <time>2021-09-18T10:13:37.000Z</time>
      </trkpt>
      <trkpt lat="47.07473" lon="-1.81471">
        <ele>69</ele>
        <time>2021-09-18T10:13:39.000Z</time>
      </trkpt>
      <trkpt lat="47.07461" lon="-1.81477">
        <ele>69</ele>
        <time>2021-09-18T10:13:41.000Z</time>
      </trkpt>
      <trkpt lat="47.0745" lon="-1.81481">
        <ele>68</ele>
        <time>2021-09-18T10:13:43.000Z</time>
      </trkpt>
      <trkpt lat="47.07437" lon="-1.81483">
        <ele>68</ele>
        <time>2021-09-18T10:13:45.000Z</time>
      </trkpt>
      <trkpt lat="47.07425" lon="-1.81485">
        <ele>68</ele>
        <time>2021-09-18T10:13:47.000Z</time>
      </trkpt>
      <trkpt lat="47.07412" lon="-1.81486">
        <ele>67</ele>
        <time>2021-09-18T10:13:49.000Z</time>
      </trkpt>
      <trkpt lat="47.07399" lon="-1.81486">
        <ele>68</ele>
        <time>2021-09-18T10:13:51.000Z</time>
      </trkpt>
      <trkpt lat="47.07387" lon="-1.81487">
        <ele>68</ele>
        <time>2021-09-18T10:13:53.000Z</time>
      </trkpt>
      <trkpt lat="47.07375" lon="-1.81485">
        <ele>69</ele>
        <time>2021-09-18T10:13:55.000Z</time>
      </trkpt>
      <trkpt lat="47.07362" lon="-1.81483">
        <ele>69</ele>
        <time>2021-09-18T10:13:57.000Z</time>
      </trkpt>
      <trkpt lat="47.0735" lon="-1.81478">
        <ele>69</ele>
        <time>2021-09-18T10:13:59.000Z</time>
      </trkpt>
      <trkpt lat="47.07338" lon="-1.81473">
        <ele>69</ele>
        <time>2021-09-18T10:14:01.000Z</time>
      </trkpt>
      <trkpt lat="47.07326" lon="-1.81467">
        <ele>70</ele>
        <time>2021-09-18T10:14:03.000Z</time>
      </trkpt>
      <trkpt lat="47.07314" lon="-1.81461">
        <ele>70</ele>
        <time>2021-09-18T10:14:05.000Z</time>
      </trkpt>
      <trkpt lat="47.07303" lon="-1.81454">
        <ele>70</ele>
        <time>2021-09-18T10:14:07.000Z</time>
      </trkpt>
      <trkpt lat="47.07293" lon="-1.81446">
        <ele>70</ele>
        <time>2021-09-18T10:14:09.000Z</time>
      </trkpt>
      <trkpt lat="47.07282" lon="-1.81436">
        <ele>70</ele>
        <time>2021-09-18T10:14:11.000Z</time>
      </trkpt>
      <trkpt lat="47.07271" lon="-1.81427">
        <ele>71</ele>
        <time>2021-09-18T10:14:13.000Z</time>
      </trkpt>
      <trkpt lat="47.07261" lon="-1.81418">
        <ele>71</ele>
        <time>2021-09-18T10:14:15.000Z</time>
      </trkpt>
      <trkpt lat="47.07251" lon="-1.81408">
        <ele>71</ele>
        <time>2021-09-18T10:14:17.000Z</time>
      </trkpt>
      <trkpt lat="47.07242" lon="-1.81398">
        <ele>72</ele>
        <time>2021-09-18T10:14:19.000Z</time>
      </trkpt>
      <trkpt lat="47.07232" lon="-1.81388">
        <ele>72</ele>
        <time>2021-09-18T10:14:21.000Z</time>
      </trkpt>
      <trkpt lat="47.07222" lon="-1.81379">
        <ele>72</ele>
        <time>2021-09-18T10:14:23.000Z</time>
      </trkpt>
      <trkpt lat="47.07211" lon="-1.8137">
        <ele>73</ele>
        <time>2021-09-18T10:14:25.000Z</time>
      </trkpt>
      <trkpt lat="47.072" lon="-1.8136">
        <ele>72</ele>
        <time>2021-09-18T10:14:27.000Z</time>
      </trkpt>
      <trkpt lat="47.07189" lon="-1.81351">
        <ele>72</ele>
        <time>2021-09-18T10:14:29.000Z</time>
      </trkpt>
      <trkpt lat="47.07178" lon="-1.81345">
        <ele>72</ele>
        <time>2021-09-18T10:14:31.000Z</time>
      </trkpt>
      <trkpt lat="47.07166" lon="-1.81348">
        <ele>71</ele>
        <time>2021-09-18T10:14:33.000Z</time>
      </trkpt>
      <trkpt lat="47.07156" lon="-1.81358">
        <ele>71</ele>
        <time>2021-09-18T10:14:35.000Z</time>
      </trkpt>
      <trkpt lat="47.07147" lon="-1.81369">
        <ele>71</ele>
        <time>2021-09-18T10:14:37.000Z</time>
      </trkpt>
      <trkpt lat="47.07137" lon="-1.81379">
        <ele>71</ele>
        <time>2021-09-18T10:14:39.000Z</time>
      </trkpt>
      <trkpt lat="47.07128" lon="-1.8139">
        <ele>72</ele>
        <time>2021-09-18T10:14:41.000Z</time>
      </trkpt>
      <trkpt lat="47.07118" lon="-1.81402">
        <ele>72</ele>
        <time>2021-09-18T10:14:43.000Z</time>
      </trkpt>
      <trkpt lat="47.07109" lon="-1.81413">
        <ele>72</ele>
        <time>2021-09-18T10:14:45.000Z</time>
      </trkpt>
      <trkpt lat="47.07101" lon="-1.81424">
        <ele>72</ele>
        <time>2021-09-18T10:14:47.000Z</time>
      </trkpt>
      <trkpt lat="47.07093" lon="-1.81434">
        <ele>73</ele>
        <time>2021-09-18T10:14:49.000Z</time>
      </trkpt>
      <trkpt lat="47.07086" lon="-1.81446">
        <ele>73</ele>
        <time>2021-09-18T10:14:51.000Z</time>
      </trkpt>
      <trkpt lat="47.07078" lon="-1.81457">
        <ele>74</ele>
        <time>2021-09-18T10:14:53.000Z</time>
      </trkpt>
      <trkpt lat="47.07071" lon="-1.81469">
        <ele>74</ele>
        <time>2021-09-18T10:14:55.000Z</time>
      </trkpt>
      <trkpt lat="47.07064" lon="-1.81481">
        <ele>74</ele>
        <time>2021-09-18T10:14:57.000Z</time>
      </trkpt>
      <trkpt lat="47.07058" lon="-1.81494">
        <ele>74</ele>
        <time>2021-09-18T10:14:59.000Z</time>
      </trkpt>
      <trkpt lat="47.07053" lon="-1.81508">
        <ele>74</ele>
        <time>2021-09-18T10:15:01.000Z</time>
      </trkpt>
      <trkpt lat="47.07047" lon="-1.8152">
        <ele>75</ele>
        <time>2021-09-18T10:15:03.000Z</time>
      </trkpt>
      <trkpt lat="47.07041" lon="-1.81532">
        <ele>75</ele>
        <time>2021-09-18T10:15:05.000Z</time>
      </trkpt>
      <trkpt lat="47.07036" lon="-1.81544">
        <ele>75</ele>
        <time>2021-09-18T10:15:07.000Z</time>
      </trkpt>
      <trkpt lat="47.0703" lon="-1.81558">
        <ele>75</ele>
        <time>2021-09-18T10:15:09.000Z</time>
      </trkpt>
      <trkpt lat="47.07026" lon="-1.81573">
        <ele>75</ele>
        <time>2021-09-18T10:15:11.000Z</time>
      </trkpt>
      <trkpt lat="47.07022" lon="-1.81588">
        <ele>76</ele>
        <time>2021-09-18T10:15:13.000Z</time>
      </trkpt>
      <trkpt lat="47.07017" lon="-1.81602">
        <ele>75</ele>
        <time>2021-09-18T10:15:15.000Z</time>
      </trkpt>
      <trkpt lat="47.07013" lon="-1.81616">
        <ele>76</ele>
        <time>2021-09-18T10:15:17.000Z</time>
      </trkpt>
      <trkpt lat="47.07009" lon="-1.8163">
        <ele>76</ele>
        <time>2021-09-18T10:15:19.000Z</time>
      </trkpt>
      <trkpt lat="47.07004" lon="-1.81645">
        <ele>76</ele>
        <time>2021-09-18T10:15:21.000Z</time>
      </trkpt>
      <trkpt lat="47.07" lon="-1.8166">
        <ele>76</ele>
        <time>2021-09-18T10:15:23.000Z</time>
      </trkpt>
      <trkpt lat="47.06996" lon="-1.81675">
        <ele>76</ele>
        <time>2021-09-18T10:15:25.000Z</time>
      </trkpt>
      <trkpt lat="47.06992" lon="-1.8169">
        <ele>76</ele>
        <time>2021-09-18T10:15:27.000Z</time>
      </trkpt>
      <trkpt lat="47.06987" lon="-1.81704">
        <ele>76</ele>
        <time>2021-09-18T10:15:29.000Z</time>
      </trkpt>
      <trkpt lat="47.06982" lon="-1.81717">
        <ele>76</ele>
        <time>2021-09-18T10:15:31.000Z</time>
      </trkpt>
      <trkpt lat="47.06977" lon="-1.8173">
        <ele>76</ele>
        <time>2021-09-18T10:15:33.000Z</time>
      </trkpt>
      <trkpt lat="47.06972" lon="-1.81744">
        <ele>77</ele>
        <time>2021-09-18T10:15:35.000Z</time>
      </trkpt>
      <trkpt lat="47.06966" lon="-1.81756">
        <ele>77</ele>
        <time>2021-09-18T10:15:37.000Z</time>
      </trkpt>
      <trkpt lat="47.06961" lon="-1.81769">
        <ele>77</ele>
        <time>2021-09-18T10:15:39.000Z</time>
      </trkpt>
      <trkpt lat="47.06955" lon="-1.81782">
        <ele>77</ele>
        <time>2021-09-18T10:15:41.000Z</time>
      </trkpt>
      <trkpt lat="47.0695" lon="-1.81794">
        <ele>77</ele>
        <time>2021-09-18T10:15:43.000Z</time>
      </trkpt>
      <trkpt lat="47.06944" lon="-1.81808">
        <ele>77</ele>
        <time>2021-09-18T10:15:45.000Z</time>
      </trkpt>
      <trkpt lat="47.06939" lon="-1.81822">
        <ele>77</ele>
        <time>2021-09-18T10:15:47.000Z</time>
      </trkpt>
      <trkpt lat="47.06933" lon="-1.81835">
        <ele>78</ele>
        <time>2021-09-18T10:15:49.000Z</time>
      </trkpt>
      <trkpt lat="47.06928" lon="-1.81847">
        <ele>78</ele>
        <time>2021-09-18T10:15:51.000Z</time>
      </trkpt>
      <trkpt lat="47.06922" lon="-1.8186">
        <ele>78</ele>
        <time>2021-09-18T10:15:53.000Z</time>
      </trkpt>
      <trkpt lat="47.06917" lon="-1.81874">
        <ele>78</ele>
        <time>2021-09-18T10:15:55.000Z</time>
      </trkpt>
      <trkpt lat="47.06912" lon="-1.81886">
        <ele>78</ele>
        <time>2021-09-18T10:15:57.000Z</time>
      </trkpt>
      <trkpt lat="47.06906" lon="-1.819">
        <ele>79</ele>
        <time>2021-09-18T10:15:59.000Z</time>
      </trkpt>
      <trkpt lat="47.06901" lon="-1.81914">
        <ele>79</ele>
        <time>2021-09-18T10:16:01.000Z</time>
      </trkpt>
      <trkpt lat="47.06896" lon="-1.81929">
        <ele>79</ele>
        <time>2021-09-18T10:16:03.000Z</time>
      </trkpt>
      <trkpt lat="47.06893" lon="-1.81944">
        <ele>79</ele>
        <time>2021-09-18T10:16:05.000Z</time>
      </trkpt>
      <trkpt lat="47.06892" lon="-1.81959">
        <ele>79</ele>
        <time>2021-09-18T10:16:07.000Z</time>
      </trkpt>
      <trkpt lat="47.06893" lon="-1.81974">
        <ele>80</ele>
        <time>2021-09-18T10:16:09.000Z</time>
      </trkpt>
      <trkpt lat="47.06894" lon="-1.8199">
        <ele>80</ele>
        <time>2021-09-18T10:16:11.000Z</time>
      </trkpt>
      <trkpt lat="47.06895" lon="-1.82006">
        <ele>80</ele>
        <time>2021-09-18T10:16:13.000Z</time>
      </trkpt>
      <trkpt lat="47.06896" lon="-1.8202">
        <ele>81</ele>
        <time>2021-09-18T10:16:15.000Z</time>
      </trkpt>
      <trkpt lat="47.06898" lon="-1.82036">
        <ele>81</ele>
        <time>2021-09-18T10:16:17.000Z</time>
      </trkpt>
      <trkpt lat="47.06899" lon="-1.82051">
        <ele>81</ele>
        <time>2021-09-18T10:16:19.000Z</time>
      </trkpt>
      <trkpt lat="47.06901" lon="-1.82066">
        <ele>82</ele>
        <time>2021-09-18T10:16:21.000Z</time>
      </trkpt>
      <trkpt lat="47.06902" lon="-1.82082">
        <ele>82</ele>
        <time>2021-09-18T10:16:23.000Z</time>
      </trkpt>
      <trkpt lat="47.06903" lon="-1.82098">
        <ele>83</ele>
        <time>2021-09-18T10:16:25.000Z</time>
      </trkpt>
      <trkpt lat="47.06904" lon="-1.82114">
        <ele>83</ele>
        <time>2021-09-18T10:16:27.000Z</time>
      </trkpt>
      <trkpt lat="47.06905" lon="-1.8213">
        <ele>83</ele>
        <time>2021-09-18T10:16:29.000Z</time>
      </trkpt>
      <trkpt lat="47.06905" lon="-1.82147">
        <ele>83</ele>
        <time>2021-09-18T10:16:31.000Z</time>
      </trkpt>
      <trkpt lat="47.06904" lon="-1.82164">
        <ele>82</ele>
        <time>2021-09-18T10:16:33.000Z</time>
      </trkpt>
      <trkpt lat="47.06904" lon="-1.8218">
        <ele>82</ele>
        <time>2021-09-18T10:16:35.000Z</time>
      </trkpt>
      <trkpt lat="47.06904" lon="-1.82196">
        <ele>82</ele>
        <time>2021-09-18T10:16:37.000Z</time>
      </trkpt>
      <trkpt lat="47.06904" lon="-1.82213">
        <ele>82</ele>
        <time>2021-09-18T10:16:39.000Z</time>
      </trkpt>
      <trkpt lat="47.06903" lon="-1.82229">
        <ele>83</ele>
        <time>2021-09-18T10:16:41.000Z</time>
      </trkpt>
      <trkpt lat="47.06903" lon="-1.82245">
        <ele>83</ele>
        <time>2021-09-18T10:16:43.000Z</time>
      </trkpt>
      <trkpt lat="47.06902" lon="-1.82262">
        <ele>83</ele>
        <time>2021-09-18T10:16:45.000Z</time>
      </trkpt>
      <trkpt lat="47.06902" lon="-1.82278">
        <ele>83</ele>
        <time>2021-09-18T10:16:47.000Z</time>
      </trkpt>
      <trkpt lat="47.06901" lon="-1.82295">
        <ele>83</ele>
        <time>2021-09-18T10:16:49.000Z</time>
      </trkpt>
      <trkpt lat="47.06899" lon="-1.82312">
        <ele>83</ele>
        <time>2021-09-18T10:16:51.000Z</time>
      </trkpt>
      <trkpt lat="47.06898" lon="-1.82329">
        <ele>83</ele>
        <time>2021-09-18T10:16:53.000Z</time>
      </trkpt>
      <trkpt lat="47.06895" lon="-1.82345">
        <ele>83</ele>
        <time>2021-09-18T10:16:55.000Z</time>
      </trkpt>
      <trkpt lat="47.06893" lon="-1.82363">
        <ele>83</ele>
        <time>2021-09-18T10:16:57.000Z</time>
      </trkpt>
      <trkpt lat="47.06891" lon="-1.8238">
        <ele>83</ele>
        <time>2021-09-18T10:16:59.000Z</time>
      </trkpt>
      <trkpt lat="47.06889" lon="-1.82397">
        <ele>84</ele>
        <time>2021-09-18T10:17:01.000Z</time>
      </trkpt>
      <trkpt lat="47.06886" lon="-1.82414">
        <ele>84</ele>
        <time>2021-09-18T10:17:03.000Z</time>
      </trkpt>
      <trkpt lat="47.06883" lon="-1.8243">
        <ele>84</ele>
        <time>2021-09-18T10:17:05.000Z</time>
      </trkpt>
      <trkpt lat="47.06882" lon="-1.82447">
        <ele>85</ele>
        <time>2021-09-18T10:17:07.000Z</time>
      </trkpt>
      <trkpt lat="47.0688" lon="-1.82463">
        <ele>84</ele>
        <time>2021-09-18T10:17:09.000Z</time>
      </trkpt>
      <trkpt lat="47.0688" lon="-1.82481">
        <ele>85</ele>
        <time>2021-09-18T10:17:11.000Z</time>
      </trkpt>
      <trkpt lat="47.06881" lon="-1.82499">
        <ele>85</ele>
        <time>2021-09-18T10:17:13.000Z</time>
      </trkpt>
      <trkpt lat="47.06882" lon="-1.82516">
        <ele>85</ele>
        <time>2021-09-18T10:17:15.000Z</time>
      </trkpt>
      <trkpt lat="47.06885" lon="-1.82534">
        <ele>85</ele>
        <time>2021-09-18T10:17:17.000Z</time>
      </trkpt>
      <trkpt lat="47.06886" lon="-1.82552">
        <ele>85</ele>
        <time>2021-09-18T10:17:19.000Z</time>
      </trkpt>
      <trkpt lat="47.06888" lon="-1.8257">
        <ele>86</ele>
        <time>2021-09-18T10:17:21.000Z</time>
      </trkpt>
      <trkpt lat="47.0689" lon="-1.82587">
        <ele>86</ele>
        <time>2021-09-18T10:17:23.000Z</time>
      </trkpt>
      <trkpt lat="47.06891" lon="-1.82605">
        <ele>86</ele>
        <time>2021-09-18T10:17:25.000Z</time>
      </trkpt>
      <trkpt lat="47.06892" lon="-1.82623">
        <ele>85</ele>
        <time>2021-09-18T10:17:27.000Z</time>
      </trkpt>
      <trkpt lat="47.06894" lon="-1.82641">
        <ele>85</ele>
        <time>2021-09-18T10:17:29.000Z</time>
      </trkpt>
      <trkpt lat="47.06895" lon="-1.82659">
        <ele>85</ele>
        <time>2021-09-18T10:17:31.000Z</time>
      </trkpt>
      <trkpt lat="47.06895" lon="-1.82676">
        <ele>85</ele>
        <time>2021-09-18T10:17:33.000Z</time>
      </trkpt>
      <trkpt lat="47.06895" lon="-1.82694">
        <ele>85</ele>
        <time>2021-09-18T10:17:35.000Z</time>
      </trkpt>
      <trkpt lat="47.06894" lon="-1.82712">
        <ele>85</ele>
        <time>2021-09-18T10:17:37.000Z</time>
      </trkpt>
      <trkpt lat="47.06894" lon="-1.8273">
        <ele>86</ele>
        <time>2021-09-18T10:17:39.000Z</time>
      </trkpt>
      <trkpt lat="47.06894" lon="-1.8275">
        <ele>85</ele>
        <time>2021-09-18T10:17:41.000Z</time>
      </trkpt>
      <trkpt lat="47.06895" lon="-1.82768">
        <ele>85</ele>
        <time>2021-09-18T10:17:43.000Z</time>
      </trkpt>
      <trkpt lat="47.06895" lon="-1.82786">
        <ele>85</ele>
        <time>2021-09-18T10:17:45.000Z</time>
      </trkpt>
      <trkpt lat="47.06897" lon="-1.82805">
        <ele>85</ele>
        <time>2021-09-18T10:17:47.000Z</time>
      </trkpt>
      <trkpt lat="47.06897" lon="-1.82823">
        <ele>85</ele>
        <time>2021-09-18T10:17:49.000Z</time>
      </trkpt>
      <trkpt lat="47.06898" lon="-1.82841">
        <ele>85</ele>
        <time>2021-09-18T10:17:51.000Z</time>
      </trkpt>
      <trkpt lat="47.06899" lon="-1.8286">
        <ele>85</ele>
        <time>2021-09-18T10:17:53.000Z</time>
      </trkpt>
      <trkpt lat="47.069" lon="-1.82878">
        <ele>85</ele>
        <time>2021-09-18T10:17:55.000Z</time>
      </trkpt>
      <trkpt lat="47.06901" lon="-1.82896">
        <ele>85</ele>
        <time>2021-09-18T10:17:57.000Z</time>
      </trkpt>
      <trkpt lat="47.06903" lon="-1.82914">
        <ele>85</ele>
        <time>2021-09-18T10:17:59.000Z</time>
      </trkpt>
      <trkpt lat="47.06904" lon="-1.82932">
        <ele>84</ele>
        <time>2021-09-18T10:18:01.000Z</time>
      </trkpt>
      <trkpt lat="47.06904" lon="-1.82951">
        <ele>84</ele>
        <time>2021-09-18T10:18:03.000Z</time>
      </trkpt>
      <trkpt lat="47.06906" lon="-1.82969">
        <ele>84</ele>
        <time>2021-09-18T10:18:05.000Z</time>
      </trkpt>
      <trkpt lat="47.06907" lon="-1.82987">
        <ele>84</ele>
        <time>2021-09-18T10:18:07.000Z</time>
      </trkpt>
      <trkpt lat="47.06908" lon="-1.83004">
        <ele>83</ele>
        <time>2021-09-18T10:18:09.000Z</time>
      </trkpt>
      <trkpt lat="47.06912" lon="-1.8302">
        <ele>83</ele>
        <time>2021-09-18T10:18:11.000Z</time>
      </trkpt>
      <trkpt lat="47.06915" lon="-1.83034">
        <ele>83</ele>
        <time>2021-09-18T10:18:13.000Z</time>
      </trkpt>
      <trkpt lat="47.06908" lon="-1.83043">
        <ele>83</ele>
        <time>2021-09-18T10:18:15.000Z</time>
      </trkpt>
      <trkpt lat="47.06896" lon="-1.83042">
        <ele>83</ele>
        <time>2021-09-18T10:18:17.000Z</time>
      </trkpt>
      <trkpt lat="47.06884" lon="-1.8304">
        <ele>83</ele>
        <time>2021-09-18T10:18:19.000Z</time>
      </trkpt>
      <trkpt lat="47.06871" lon="-1.83039">
        <ele>82</ele>
        <time>2021-09-18T10:18:21.000Z</time>
      </trkpt>
      <trkpt lat="47.06859" lon="-1.83037">
        <ele>82</ele>
        <time>2021-09-18T10:18:23.000Z</time>
      </trkpt>
      <trkpt lat="47.06845" lon="-1.83035">
        <ele>82</ele>
        <time>2021-09-18T10:18:25.000Z</time>
      </trkpt>
      <trkpt lat="47.06833" lon="-1.83034">
        <ele>82</ele>
        <time>2021-09-18T10:18:27.000Z</time>
      </trkpt>
      <trkpt lat="47.06819" lon="-1.83033">
        <ele>81</ele>
        <time>2021-09-18T10:18:29.000Z</time>
      </trkpt>
      <trkpt lat="47.06806" lon="-1.83034">
        <ele>81</ele>
        <time>2021-09-18T10:18:31.000Z</time>
      </trkpt>
      <trkpt lat="47.06793" lon="-1.83036">
        <ele>81</ele>
        <time>2021-09-18T10:18:33.000Z</time>
      </trkpt>
      <trkpt lat="47.0678" lon="-1.83038">
        <ele>80</ele>
        <time>2021-09-18T10:18:35.000Z</time>
      </trkpt>
      <trkpt lat="47.06767" lon="-1.83041">
        <ele>80</ele>
        <time>2021-09-18T10:18:37.000Z</time>
      </trkpt>
      <trkpt lat="47.06754" lon="-1.83043">
        <ele>80</ele>
        <time>2021-09-18T10:18:39.000Z</time>
      </trkpt>
      <trkpt lat="47.06741" lon="-1.83045">
        <ele>80</ele>
        <time>2021-09-18T10:18:41.000Z</time>
      </trkpt>
      <trkpt lat="47.06727" lon="-1.83047">
        <ele>80</ele>
        <time>2021-09-18T10:18:43.000Z</time>
      </trkpt>
      <trkpt lat="47.06714" lon="-1.83049">
        <ele>79</ele>
        <time>2021-09-18T10:18:45.000Z</time>
      </trkpt>
      <trkpt lat="47.06701" lon="-1.83052">
        <ele>79</ele>
        <time>2021-09-18T10:18:47.000Z</time>
      </trkpt>
      <trkpt lat="47.06689" lon="-1.83054">
        <ele>79</ele>
        <time>2021-09-18T10:18:49.000Z</time>
      </trkpt>
      <trkpt lat="47.06676" lon="-1.83057">
        <ele>79</ele>
        <time>2021-09-18T10:18:51.000Z</time>
      </trkpt>
      <trkpt lat="47.06663" lon="-1.8306">
        <ele>79</ele>
        <time>2021-09-18T10:18:53.000Z</time>
      </trkpt>
      <trkpt lat="47.0665" lon="-1.83063">
        <ele>79</ele>
        <time>2021-09-18T10:18:55.000Z</time>
      </trkpt>
      <trkpt lat="47.06638" lon="-1.83067">
        <ele>79</ele>
        <time>2021-09-18T10:18:57.000Z</time>
      </trkpt>
      <trkpt lat="47.06625" lon="-1.83069">
        <ele>79</ele>
        <time>2021-09-18T10:18:59.000Z</time>
      </trkpt>
      <trkpt lat="47.06612" lon="-1.83073">
        <ele>79</ele>
        <time>2021-09-18T10:19:01.000Z</time>
      </trkpt>
      <trkpt lat="47.066" lon="-1.83075">
        <ele>79</ele>
        <time>2021-09-18T10:19:03.000Z</time>
      </trkpt>
      <trkpt lat="47.06588" lon="-1.83078">
        <ele>79</ele>
        <time>2021-09-18T10:19:05.000Z</time>
      </trkpt>
      <trkpt lat="47.06576" lon="-1.83082">
        <ele>80</ele>
        <time>2021-09-18T10:19:07.000Z</time>
      </trkpt>
      <trkpt lat="47.06565" lon="-1.83086">
        <ele>80</ele>
        <time>2021-09-18T10:19:09.000Z</time>
      </trkpt>
      <trkpt lat="47.06554" lon="-1.8309">
        <ele>80</ele>
        <time>2021-09-18T10:19:11.000Z</time>
      </trkpt>
      <trkpt lat="47.06543" lon="-1.83094">
        <ele>81</ele>
        <time>2021-09-18T10:19:13.000Z</time>
      </trkpt>
      <trkpt lat="47.06531" lon="-1.83098">
        <ele>81</ele>
        <time>2021-09-18T10:19:15.000Z</time>
      </trkpt>
      <trkpt lat="47.0652" lon="-1.83104">
        <ele>81</ele>
        <time>2021-09-18T10:19:17.000Z</time>
      </trkpt>
      <trkpt lat="47.06509" lon="-1.83109">
        <ele>81</ele>
        <time>2021-09-18T10:19:19.000Z</time>
      </trkpt>
      <trkpt lat="47.06497" lon="-1.83114">
        <ele>81</ele>
        <time>2021-09-18T10:19:21.000Z</time>
      </trkpt>
      <trkpt lat="47.06486" lon="-1.83118">
        <ele>81</ele>
        <time>2021-09-18T10:19:23.000Z</time>
      </trkpt>
      <trkpt lat="47.06475" lon="-1.83123">
        <ele>82</ele>
        <time>2021-09-18T10:19:25.000Z</time>
      </trkpt>
      <trkpt lat="47.06464" lon="-1.83128">
        <ele>82</ele>
        <time>2021-09-18T10:19:27.000Z</time>
      </trkpt>
      <trkpt lat="47.06452" lon="-1.83133">
        <ele>82</ele>
        <time>2021-09-18T10:19:29.000Z</time>
      </trkpt>
      <trkpt lat="47.06441" lon="-1.83138">
        <ele>82</ele>
        <time>2021-09-18T10:19:31.000Z</time>
      </trkpt>
      <trkpt lat="47.0643" lon="-1.83143">
        <ele>82</ele>
        <time>2021-09-18T10:19:33.000Z</time>
      </trkpt>
      <trkpt lat="47.06418" lon="-1.83148">
        <ele>82</ele>
        <time>2021-09-18T10:19:35.000Z</time>
      </trkpt>
      <trkpt lat="47.06407" lon="-1.83152">
        <ele>82</ele>
        <time>2021-09-18T10:19:37.000Z</time>
      </trkpt>
      <trkpt lat="47.06395" lon="-1.83157">
        <ele>82</ele>
        <time>2021-09-18T10:19:39.000Z</time>
      </trkpt>
      <trkpt lat="47.06384" lon="-1.83162">
        <ele>82</ele>
        <time>2021-09-18T10:19:41.000Z</time>
      </trkpt>
      <trkpt lat="47.06373" lon="-1.83167">
        <ele>82</ele>
        <time>2021-09-18T10:19:43.000Z</time>
      </trkpt>
      <trkpt lat="47.06363" lon="-1.83172">
        <ele>82</ele>
        <time>2021-09-18T10:19:45.000Z</time>
      </trkpt>
      <trkpt lat="47.06352" lon="-1.83176">
        <ele>82</ele>
        <time>2021-09-18T10:19:47.000Z</time>
      </trkpt>
      <trkpt lat="47.0634" lon="-1.83181">
        <ele>82</ele>
        <time>2021-09-18T10:19:49.000Z</time>
      </trkpt>
      <trkpt lat="47.0633" lon="-1.83186">
        <ele>82</ele>
        <time>2021-09-18T10:19:51.000Z</time>
      </trkpt>
      <trkpt lat="47.06319" lon="-1.8319">
        <ele>82</ele>
        <time>2021-09-18T10:19:53.000Z</time>
      </trkpt>
      <trkpt lat="47.06307" lon="-1.83194">
        <ele>83</ele>
        <time>2021-09-18T10:19:55.000Z</time>
      </trkpt>
      <trkpt lat="47.06296" lon="-1.83196">
        <ele>83</ele>
        <time>2021-09-18T10:19:57.000Z</time>
      </trkpt>
      <trkpt lat="47.06284" lon="-1.83199">
        <ele>83</ele>
        <time>2021-09-18T10:19:59.000Z</time>
      </trkpt>
      <trkpt lat="47.06272" lon="-1.83201">
        <ele>83</ele>
        <time>2021-09-18T10:20:01.000Z</time>
      </trkpt>
      <trkpt lat="47.06259" lon="-1.83203">
        <ele>83</ele>
        <time>2021-09-18T10:20:03.000Z</time>
      </trkpt>
      <trkpt lat="47.06248" lon="-1.83204">
        <ele>83</ele>
        <time>2021-09-18T10:20:05.000Z</time>
      </trkpt>
      <trkpt lat="47.06235" lon="-1.83204">
        <ele>83</ele>
        <time>2021-09-18T10:20:07.000Z</time>
      </trkpt>
      <trkpt lat="47.06224" lon="-1.83205">
        <ele>83</ele>
        <time>2021-09-18T10:20:09.000Z</time>
      </trkpt>
      <trkpt lat="47.06212" lon="-1.83206">
        <ele>84</ele>
        <time>2021-09-18T10:20:11.000Z</time>
      </trkpt>
      <trkpt lat="47.062" lon="-1.83206">
        <ele>84</ele>
        <time>2021-09-18T10:20:13.000Z</time>
      </trkpt>
      <trkpt lat="47.06188" lon="-1.83206">
        <ele>84</ele>
        <time>2021-09-18T10:20:15.000Z</time>
      </trkpt>
      <trkpt lat="47.06175" lon="-1.83207">
        <ele>84</ele>
        <time>2021-09-18T10:20:17.000Z</time>
      </trkpt>
      <trkpt lat="47.06163" lon="-1.83207">
        <ele>84</ele>
        <time>2021-09-18T10:20:19.000Z</time>
      </trkpt>
      <trkpt lat="47.06151" lon="-1.83208">
        <ele>84</ele>
        <time>2021-09-18T10:20:21.000Z</time>
      </trkpt>
      <trkpt lat="47.06139" lon="-1.83209">
        <ele>83</ele>
        <time>2021-09-18T10:20:23.000Z</time>
      </trkpt>
      <trkpt lat="47.06127" lon="-1.8321">
        <ele>83</ele>
        <time>2021-09-18T10:20:25.000Z</time>
      </trkpt>
      <trkpt lat="47.06115" lon="-1.8321">
        <ele>83</ele>
        <time>2021-09-18T10:20:27.000Z</time>
      </trkpt>
      <trkpt lat="47.06103" lon="-1.83211">
        <ele>83</ele>
        <time>2021-09-18T10:20:29.000Z</time>
      </trkpt>
      <trkpt lat="47.06091" lon="-1.83211">
        <ele>83</ele>
        <time>2021-09-18T10:20:31.000Z</time>
      </trkpt>
      <trkpt lat="47.06078" lon="-1.83212">
        <ele>83</ele>
        <time>2021-09-18T10:20:33.000Z</time>
      </trkpt>
      <trkpt lat="47.06066" lon="-1.83213">
        <ele>83</ele>
        <time>2021-09-18T10:20:35.000Z</time>
      </trkpt>
      <trkpt lat="47.06053" lon="-1.83214">
        <ele>84</ele>
        <time>2021-09-18T10:20:37.000Z</time>
      </trkpt>
      <trkpt lat="47.0604" lon="-1.83214">
        <ele>83</ele>
        <time>2021-09-18T10:20:39.000Z</time>
      </trkpt>
      <trkpt lat="47.06027" lon="-1.83215">
        <ele>83</ele>
        <time>2021-09-18T10:20:41.000Z</time>
      </trkpt>
      <trkpt lat="47.06014" lon="-1.83216">
        <ele>83</ele>
        <time>2021-09-18T10:20:43.000Z</time>
      </trkpt>
      <trkpt lat="47.06002" lon="-1.83217">
        <ele>83</ele>
        <time>2021-09-18T10:20:45.000Z</time>
      </trkpt>
      <trkpt lat="47.05989" lon="-1.83218">
        <ele>83</ele>
        <time>2021-09-18T10:20:47.000Z</time>
      </trkpt>
      <trkpt lat="47.05976" lon="-1.83222">
        <ele>83</ele>
        <time>2021-09-18T10:20:49.000Z</time>
      </trkpt>
      <trkpt lat="47.05966" lon="-1.83233">
        <ele>82</ele>
        <time>2021-09-18T10:20:51.000Z</time>
      </trkpt>
      <trkpt lat="47.05957" lon="-1.83246">
        <ele>82</ele>
        <time>2021-09-18T10:20:53.000Z</time>
      </trkpt>
      <trkpt lat="47.05949" lon="-1.83259">
        <ele>82</ele>
        <time>2021-09-18T10:20:55.000Z</time>
      </trkpt>
      <trkpt lat="47.0594" lon="-1.83271">
        <ele>82</ele>
        <time>2021-09-18T10:20:57.000Z</time>
      </trkpt>
      <trkpt lat="47.05931" lon="-1.83284">
        <ele>82</ele>
        <time>2021-09-18T10:20:59.000Z</time>
      </trkpt>
      <trkpt lat="47.05923" lon="-1.83297">
        <ele>82</ele>
        <time>2021-09-18T10:21:01.000Z</time>
      </trkpt>
      <trkpt lat="47.05915" lon="-1.83309">
        <ele>82</ele>
        <time>2021-09-18T10:21:03.000Z</time>
      </trkpt>
      <trkpt lat="47.05906" lon="-1.83322">
        <ele>82</ele>
        <time>2021-09-18T10:21:05.000Z</time>
      </trkpt>
      <trkpt lat="47.05898" lon="-1.83334">
        <ele>83</ele>
        <time>2021-09-18T10:21:07.000Z</time>
      </trkpt>
      <trkpt lat="47.0589" lon="-1.83346">
        <ele>83</ele>
        <time>2021-09-18T10:21:09.000Z</time>
      </trkpt>
      <trkpt lat="47.05881" lon="-1.83359">
        <ele>83</ele>
        <time>2021-09-18T10:21:11.000Z</time>
      </trkpt>
      <trkpt lat="47.05873" lon="-1.83371">
        <ele>83</ele>
        <time>2021-09-18T10:21:13.000Z</time>
      </trkpt>
      <trkpt lat="47.05865" lon="-1.83383">
        <ele>83</ele>
        <time>2021-09-18T10:21:15.000Z</time>
      </trkpt>
      <trkpt lat="47.05857" lon="-1.83396">
        <ele>83</ele>
        <time>2021-09-18T10:21:17.000Z</time>
      </trkpt>
      <trkpt lat="47.05848" lon="-1.83409">
        <ele>83</ele>
        <time>2021-09-18T10:21:19.000Z</time>
      </trkpt>
      <trkpt lat="47.0584" lon="-1.83421">
        <ele>83</ele>
        <time>2021-09-18T10:21:21.000Z</time>
      </trkpt>
      <trkpt lat="47.05832" lon="-1.83433">
        <ele>83</ele>
        <time>2021-09-18T10:21:23.000Z</time>
      </trkpt>
      <trkpt lat="47.05824" lon="-1.83445">
        <ele>83</ele>
        <time>2021-09-18T10:21:25.000Z</time>
      </trkpt>
      <trkpt lat="47.05816" lon="-1.83457">
        <ele>84</ele>
        <time>2021-09-18T10:21:27.000Z</time>
      </trkpt>
      <trkpt lat="47.05808" lon="-1.83468">
        <ele>84</ele>
        <time>2021-09-18T10:21:29.000Z</time>
      </trkpt>
      <trkpt lat="47.05799" lon="-1.83478">
        <ele>84</ele>
        <time>2021-09-18T10:21:31.000Z</time>
      </trkpt>
      <trkpt lat="47.05791" lon="-1.83489">
        <ele>84</ele>
        <time>2021-09-18T10:21:33.000Z</time>
      </trkpt>
      <trkpt lat="47.05782" lon="-1.83499">
        <ele>84</ele>
        <time>2021-09-18T10:21:35.000Z</time>
      </trkpt>
      <trkpt lat="47.05773" lon="-1.8351">
        <ele>84</ele>
        <time>2021-09-18T10:21:37.000Z</time>
      </trkpt>
      <trkpt lat="47.05764" lon="-1.83521">
        <ele>84</ele>
        <time>2021-09-18T10:21:39.000Z</time>
      </trkpt>
      <trkpt lat="47.05755" lon="-1.83532">
        <ele>84</ele>
        <time>2021-09-18T10:21:41.000Z</time>
      </trkpt>
      <trkpt lat="47.05746" lon="-1.83544">
        <ele>84</ele>
        <time>2021-09-18T10:21:43.000Z</time>
      </trkpt>
      <trkpt lat="47.05736" lon="-1.83555">
        <ele>84</ele>
        <time>2021-09-18T10:21:45.000Z</time>
      </trkpt>
      <trkpt lat="47.05727" lon="-1.83566">
        <ele>84</ele>
        <time>2021-09-18T10:21:47.000Z</time>
      </trkpt>
      <trkpt lat="47.0572" lon="-1.8358">
        <ele>84</ele>
        <time>2021-09-18T10:21:49.000Z</time>
      </trkpt>
      <trkpt lat="47.05712" lon="-1.83594">
        <ele>84</ele>
        <time>2021-09-18T10:21:51.000Z</time>
      </trkpt>
      <trkpt lat="47.05705" lon="-1.83607">
        <ele>84</ele>
        <time>2021-09-18T10:21:53.000Z</time>
      </trkpt>
      <trkpt lat="47.05697" lon="-1.83621">
        <ele>84</ele>
        <time>2021-09-18T10:21:55.000Z</time>
      </trkpt>
      <trkpt lat="47.05689" lon="-1.83635">
        <ele>84</ele>
        <time>2021-09-18T10:21:57.000Z</time>
      </trkpt>
      <trkpt lat="47.05681" lon="-1.83649">
        <ele>84</ele>
        <time>2021-09-18T10:21:59.000Z</time>
      </trkpt>
      <trkpt lat="47.05673" lon="-1.83663">
        <ele>84</ele>
        <time>2021-09-18T10:22:01.000Z</time>
      </trkpt>
      <trkpt lat="47.05665" lon="-1.83677">
        <ele>85</ele>
        <time>2021-09-18T10:22:03.000Z</time>
      </trkpt>
      <trkpt lat="47.05658" lon="-1.83691">
        <ele>85</ele>
        <time>2021-09-18T10:22:05.000Z</time>
      </trkpt>
      <trkpt lat="47.0565" lon="-1.83704">
        <ele>85</ele>
        <time>2021-09-18T10:22:07.000Z</time>
      </trkpt>
      <trkpt lat="47.05642" lon="-1.83718">
        <ele>85</ele>
        <time>2021-09-18T10:22:09.000Z</time>
      </trkpt>
      <trkpt lat="47.05635" lon="-1.83731">
        <ele>85</ele>
        <time>2021-09-18T10:22:11.000Z</time>
      </trkpt>
      <trkpt lat="47.05627" lon="-1.83745">
        <ele>85</ele>
        <time>2021-09-18T10:22:13.000Z</time>
      </trkpt>
      <trkpt lat="47.05619" lon="-1.83759">
        <ele>85</ele>
        <time>2021-09-18T10:22:15.000Z</time>
      </trkpt>
      <trkpt lat="47.05612" lon="-1.83773">
        <ele>85</ele>
        <time>2021-09-18T10:22:17.000Z</time>
      </trkpt>
      <trkpt lat="47.05604" lon="-1.83786">
        <ele>85</ele>
        <time>2021-09-18T10:22:19.000Z</time>
      </trkpt>
      <trkpt lat="47.05596" lon="-1.838">
        <ele>85</ele>
        <time>2021-09-18T10:22:21.000Z</time>
      </trkpt>
      <trkpt lat="47.05589" lon="-1.83814">
        <ele>85</ele>
        <time>2021-09-18T10:22:23.000Z</time>
      </trkpt>
      <trkpt lat="47.05581" lon="-1.83828">
        <ele>85</ele>
        <time>2021-09-18T10:22:25.000Z</time>
      </trkpt>
      <trkpt lat="47.05573" lon="-1.83841">
        <ele>85</ele>
        <time>2021-09-18T10:22:27.000Z</time>
      </trkpt>
      <trkpt lat="47.05565" lon="-1.83855">
        <ele>84</ele>
        <time>2021-09-18T10:22:29.000Z</time>
      </trkpt>
      <trkpt lat="47.05558" lon="-1.83868">
        <ele>84</ele>
        <time>2021-09-18T10:22:31.000Z</time>
      </trkpt>
      <trkpt lat="47.0555" lon="-1.83882">
        <ele>84</ele>
        <time>2021-09-18T10:22:33.000Z</time>
      </trkpt>
      <trkpt lat="47.05543" lon="-1.83896">
        <ele>84</ele>
        <time>2021-09-18T10:22:35.000Z</time>
      </trkpt>
      <trkpt lat="47.05535" lon="-1.8391">
        <ele>85</ele>
        <time>2021-09-18T10:22:37.000Z</time>
      </trkpt>
      <trkpt lat="47.05527" lon="-1.83923">
        <ele>85</ele>
        <time>2021-09-18T10:22:39.000Z</time>
      </trkpt>
      <trkpt lat="47.05519" lon="-1.83937">
        <ele>85</ele>
        <time>2021-09-18T10:22:41.000Z</time>
      </trkpt>
      <trkpt lat="47.05512" lon="-1.83951">
        <ele>85</ele>
        <time>2021-09-18T10:22:43.000Z</time>
      </trkpt>
      <trkpt lat="47.05504" lon="-1.83965">
        <ele>85</ele>
        <time>2021-09-18T10:22:45.000Z</time>
      </trkpt>
      <trkpt lat="47.05498" lon="-1.83978">
        <ele>85</ele>
        <time>2021-09-18T10:22:47.000Z</time>
      </trkpt>
      <trkpt lat="47.05491" lon="-1.83992">
        <ele>85</ele>
        <time>2021-09-18T10:22:49.000Z</time>
      </trkpt>
      <trkpt lat="47.05484" lon="-1.84005">
        <ele>85</ele>
        <time>2021-09-18T10:22:51.000Z</time>
      </trkpt>
      <trkpt lat="47.05477" lon="-1.84019">
        <ele>85</ele>
        <time>2021-09-18T10:22:53.000Z</time>
      </trkpt>
      <trkpt lat="47.05469" lon="-1.84034">
        <ele>85</ele>
        <time>2021-09-18T10:22:55.000Z</time>
      </trkpt>
      <trkpt lat="47.05462" lon="-1.84048">
        <ele>85</ele>
        <time>2021-09-18T10:22:57.000Z</time>
      </trkpt>
      <trkpt lat="47.05455" lon="-1.84062">
        <ele>85</ele>
        <time>2021-09-18T10:22:59.000Z</time>
      </trkpt>
      <trkpt lat="47.05448" lon="-1.84077">
        <ele>85</ele>
        <time>2021-09-18T10:23:01.000Z</time>
      </trkpt>
      <trkpt lat="47.05441" lon="-1.84091">
        <ele>85</ele>
        <time>2021-09-18T10:23:03.000Z</time>
      </trkpt>
      <trkpt lat="47.05434" lon="-1.84105">
        <ele>85</ele>
        <time>2021-09-18T10:23:05.000Z</time>
      </trkpt>
      <trkpt lat="47.05427" lon="-1.84119">
        <ele>85</ele>
        <time>2021-09-18T10:23:07.000Z</time>
      </trkpt>
      <trkpt lat="47.0542" lon="-1.84132">
        <ele>85</ele>
        <time>2021-09-18T10:23:09.000Z</time>
      </trkpt>
      <trkpt lat="47.05413" lon="-1.84147">
        <ele>85</ele>
        <time>2021-09-18T10:23:11.000Z</time>
      </trkpt>
      <trkpt lat="47.05405" lon="-1.84161">
        <ele>85</ele>
        <time>2021-09-18T10:23:13.000Z</time>
      </trkpt>
      <trkpt lat="47.05398" lon="-1.84174">
        <ele>85</ele>
        <time>2021-09-18T10:23:15.000Z</time>
      </trkpt>
      <trkpt lat="47.05391" lon="-1.84188">
        <ele>85</ele>
        <time>2021-09-18T10:23:17.000Z</time>
      </trkpt>
      <trkpt lat="47.05384" lon="-1.84202">
        <ele>85</ele>
        <time>2021-09-18T10:23:19.000Z</time>
      </trkpt>
      <trkpt lat="47.05377" lon="-1.84216">
        <ele>86</ele>
        <time>2021-09-18T10:23:21.000Z</time>
      </trkpt>
      <trkpt lat="47.05369" lon="-1.84231">
        <ele>86</ele>
        <time>2021-09-18T10:23:23.000Z</time>
      </trkpt>
      <trkpt lat="47.05362" lon="-1.84244">
        <ele>86</ele>
        <time>2021-09-18T10:23:25.000Z</time>
      </trkpt>
      <trkpt lat="47.05356" lon="-1.84258">
        <ele>85</ele>
        <time>2021-09-18T10:23:27.000Z</time>
      </trkpt>
      <trkpt lat="47.05349" lon="-1.84272">
        <ele>86</ele>
        <time>2021-09-18T10:23:29.000Z</time>
      </trkpt>
      <trkpt lat="47.05342" lon="-1.84285">
        <ele>86</ele>
        <time>2021-09-18T10:23:31.000Z</time>
      </trkpt>
      <trkpt lat="47.05335" lon="-1.84299">
        <ele>86</ele>
        <time>2021-09-18T10:23:33.000Z</time>
      </trkpt>
      <trkpt lat="47.05328" lon="-1.84313">
        <ele>85</ele>
        <time>2021-09-18T10:23:35.000Z</time>
      </trkpt>
      <trkpt lat="47.05321" lon="-1.84327">
        <ele>86</ele>
        <time>2021-09-18T10:23:37.000Z</time>
      </trkpt>
      <trkpt lat="47.05314" lon="-1.84341">
        <ele>86</ele>
        <time>2021-09-18T10:23:39.000Z</time>
      </trkpt>
      <trkpt lat="47.05307" lon="-1.84356">
        <ele>86</ele>
        <time>2021-09-18T10:23:41.000Z</time>
      </trkpt>
      <trkpt lat="47.053" lon="-1.8437">
        <ele>86</ele>
        <time>2021-09-18T10:23:43.000Z</time>
      </trkpt>
      <trkpt lat="47.05293" lon="-1.84384">
        <ele>86</ele>
        <time>2021-09-18T10:23:45.000Z</time>
      </trkpt>
      <trkpt lat="47.05286" lon="-1.84399">
        <ele>86</ele>
        <time>2021-09-18T10:23:47.000Z</time>
      </trkpt>
      <trkpt lat="47.05279" lon="-1.84413">
        <ele>86</ele>
        <time>2021-09-18T10:23:49.000Z</time>
      </trkpt>
      <trkpt lat="47.05271" lon="-1.84427">
        <ele>86</ele>
        <time>2021-09-18T10:23:51.000Z</time>
      </trkpt>
      <trkpt lat="47.05265" lon="-1.84441">
        <ele>86</ele>
        <time>2021-09-18T10:23:53.000Z</time>
      </trkpt>
      <trkpt lat="47.05258" lon="-1.84455">
        <ele>86</ele>
        <time>2021-09-18T10:23:55.000Z</time>
      </trkpt>
      <trkpt lat="47.05251" lon="-1.84468">
        <ele>87</ele>
        <time>2021-09-18T10:23:57.000Z</time>
      </trkpt>
      <trkpt lat="47.05244" lon="-1.84482">
        <ele>87</ele>
        <time>2021-09-18T10:23:59.000Z</time>
      </trkpt>
      <trkpt lat="47.05238" lon="-1.84496">
        <ele>87</ele>
        <time>2021-09-18T10:24:01.000Z</time>
      </trkpt>
      <trkpt lat="47.0523" lon="-1.8451">
        <ele>87</ele>
        <time>2021-09-18T10:24:03.000Z</time>
      </trkpt>
      <trkpt lat="47.05224" lon="-1.84523">
        <ele>87</ele>
        <time>2021-09-18T10:24:05.000Z</time>
      </trkpt>
      <trkpt lat="47.05217" lon="-1.84536">
        <ele>87</ele>
        <time>2021-09-18T10:24:07.000Z</time>
      </trkpt>
      <trkpt lat="47.05205" lon="-1.84542">
        <ele>87</ele>
        <time>2021-09-18T10:24:10.000Z</time>
      </trkpt>
      <trkpt lat="47.05196" lon="-1.84534">
        <ele>87</ele>
        <time>2021-09-18T10:24:12.000Z</time>
      </trkpt>
      <trkpt lat="47.05186" lon="-1.84522">
        <ele>88</ele>
        <time>2021-09-18T10:24:14.000Z</time>
      </trkpt>
      <trkpt lat="47.05177" lon="-1.8451">
        <ele>88</ele>
        <time>2021-09-18T10:24:16.000Z</time>
      </trkpt>
      <trkpt lat="47.05168" lon="-1.84497">
        <ele>88</ele>
        <time>2021-09-18T10:24:18.000Z</time>
      </trkpt>
      <trkpt lat="47.05158" lon="-1.84484">
        <ele>87</ele>
        <time>2021-09-18T10:24:20.000Z</time>
      </trkpt>
      <trkpt lat="47.0515" lon="-1.84471">
        <ele>87</ele>
        <time>2021-09-18T10:24:22.000Z</time>
      </trkpt>
      <trkpt lat="47.05141" lon="-1.84457">
        <ele>87</ele>
        <time>2021-09-18T10:24:24.000Z</time>
      </trkpt>
      <trkpt lat="47.05132" lon="-1.84444">
        <ele>87</ele>
        <time>2021-09-18T10:24:26.000Z</time>
      </trkpt>
      <trkpt lat="47.05123" lon="-1.8443">
        <ele>87</ele>
        <time>2021-09-18T10:24:28.000Z</time>
      </trkpt>
      <trkpt lat="47.05113" lon="-1.84418">
        <ele>87</ele>
        <time>2021-09-18T10:24:30.000Z</time>
      </trkpt>
      <trkpt lat="47.05104" lon="-1.84406">
        <ele>87</ele>
        <time>2021-09-18T10:24:32.000Z</time>
      </trkpt>
      <trkpt lat="47.05093" lon="-1.84395">
        <ele>87</ele>
        <time>2021-09-18T10:24:34.000Z</time>
      </trkpt>
      <trkpt lat="47.05083" lon="-1.84382">
        <ele>86</ele>
        <time>2021-09-18T10:24:36.000Z</time>
      </trkpt>
      <trkpt lat="47.05073" lon="-1.8437">
        <ele>87</ele>
        <time>2021-09-18T10:24:38.000Z</time>
      </trkpt>
      <trkpt lat="47.05062" lon="-1.84359">
        <ele>87</ele>
        <time>2021-09-18T10:24:40.000Z</time>
      </trkpt>
      <trkpt lat="47.05052" lon="-1.84348">
        <ele>87</ele>
        <time>2021-09-18T10:24:42.000Z</time>
      </trkpt>
      <trkpt lat="47.05042" lon="-1.84337">
        <ele>87</ele>
        <time>2021-09-18T10:24:44.000Z</time>
      </trkpt>
      <trkpt lat="47.05032" lon="-1.84327">
        <ele>87</ele>
        <time>2021-09-18T10:24:46.000Z</time>
      </trkpt>
      <trkpt lat="47.05021" lon="-1.84317">
        <ele>88</ele>
        <time>2021-09-18T10:24:48.000Z</time>
      </trkpt>
      <trkpt lat="47.0501" lon="-1.84308">
        <ele>87</ele>
        <time>2021-09-18T10:24:50.000Z</time>
      </trkpt>
      <trkpt lat="47.04999" lon="-1.843">
        <ele>87</ele>
        <time>2021-09-18T10:24:52.000Z</time>
      </trkpt>
      <trkpt lat="47.04988" lon="-1.84291">
        <ele>87</ele>
        <time>2021-09-18T10:24:54.000Z</time>
      </trkpt>
      <trkpt lat="47.04977" lon="-1.84282">
        <ele>88</ele>
        <time>2021-09-18T10:24:56.000Z</time>
      </trkpt>
      <trkpt lat="47.04967" lon="-1.84274">
        <ele>88</ele>
        <time>2021-09-18T10:24:58.000Z</time>
      </trkpt>
      <trkpt lat="47.04956" lon="-1.84263">
        <ele>88</ele>
        <time>2021-09-18T10:25:00.000Z</time>
      </trkpt>
      <trkpt lat="47.04946" lon="-1.84253">
        <ele>88</ele>
        <time>2021-09-18T10:25:02.000Z</time>
      </trkpt>
      <trkpt lat="47.04936" lon="-1.84242">
        <ele>88</ele>
        <time>2021-09-18T10:25:04.000Z</time>
      </trkpt>
      <trkpt lat="47.04925" lon="-1.84232">
        <ele>88</ele>
        <time>2021-09-18T10:25:06.000Z</time>
      </trkpt>
      <trkpt lat="47.04914" lon="-1.84221">
        <ele>88</ele>
        <time>2021-09-18T10:25:08.000Z</time>
      </trkpt>
      <trkpt lat="47.04904" lon="-1.8421">
        <ele>88</ele>
        <time>2021-09-18T10:25:10.000Z</time>
      </trkpt>
      <trkpt lat="47.04893" lon="-1.842">
        <ele>88</ele>
        <time>2021-09-18T10:25:12.000Z</time>
      </trkpt>
      <trkpt lat="47.04883" lon="-1.8419">
        <ele>88</ele>
        <time>2021-09-18T10:25:14.000Z</time>
      </trkpt>
      <trkpt lat="47.04873" lon="-1.84179">
        <ele>88</ele>
        <time>2021-09-18T10:25:16.000Z</time>
      </trkpt>
      <trkpt lat="47.04863" lon="-1.84168">
        <ele>88</ele>
        <time>2021-09-18T10:25:18.000Z</time>
      </trkpt>
      <trkpt lat="47.04852" lon="-1.84157">
        <ele>88</ele>
        <time>2021-09-18T10:25:20.000Z</time>
      </trkpt>
      <trkpt lat="47.04842" lon="-1.84146">
        <ele>89</ele>
        <time>2021-09-18T10:25:22.000Z</time>
      </trkpt>
      <trkpt lat="47.04833" lon="-1.84134">
        <ele>88</ele>
        <time>2021-09-18T10:25:24.000Z</time>
      </trkpt>
      <trkpt lat="47.04823" lon="-1.84122">
        <ele>87</ele>
        <time>2021-09-18T10:25:26.000Z</time>
      </trkpt>
      <trkpt lat="47.04813" lon="-1.84109">
        <ele>87</ele>
        <time>2021-09-18T10:25:28.000Z</time>
      </trkpt>
      <trkpt lat="47.04803" lon="-1.84097">
        <ele>87</ele>
        <time>2021-09-18T10:25:30.000Z</time>
      </trkpt>
      <trkpt lat="47.04794" lon="-1.84085">
        <ele>87</ele>
        <time>2021-09-18T10:25:32.000Z</time>
      </trkpt>
      <trkpt lat="47.04784" lon="-1.84072">
        <ele>87</ele>
        <time>2021-09-18T10:25:34.000Z</time>
      </trkpt>
      <trkpt lat="47.04774" lon="-1.84059">
        <ele>86</ele>
        <time>2021-09-18T10:25:36.000Z</time>
      </trkpt>
      <trkpt lat="47.04765" lon="-1.84046">
        <ele>86</ele>
        <time>2021-09-18T10:25:38.000Z</time>
      </trkpt>
      <trkpt lat="47.04755" lon="-1.84034">
        <ele>86</ele>
        <time>2021-09-18T10:25:40.000Z</time>
      </trkpt>
      <trkpt lat="47.04745" lon="-1.84021">
        <ele>86</ele>
        <time>2021-09-18T10:25:42.000Z</time>
      </trkpt>
      <trkpt lat="47.04734" lon="-1.84008">
        <ele>86</ele>
        <time>2021-09-18T10:25:44.000Z</time>
      </trkpt>
      <trkpt lat="47.04723" lon="-1.83995">
        <ele>86</ele>
        <time>2021-09-18T10:25:46.000Z</time>
      </trkpt>
      <trkpt lat="47.04712" lon="-1.83982">
        <ele>86</ele>
        <time>2021-09-18T10:25:48.000Z</time>
      </trkpt>
      <trkpt lat="47.04702" lon="-1.8397">
        <ele>86</ele>
        <time>2021-09-18T10:25:50.000Z</time>
      </trkpt>
      <trkpt lat="47.04691" lon="-1.83958">
        <ele>86</ele>
        <time>2021-09-18T10:25:52.000Z</time>
      </trkpt>
      <trkpt lat="47.04681" lon="-1.83946">
        <ele>85</ele>
        <time>2021-09-18T10:25:54.000Z</time>
      </trkpt>
      <trkpt lat="47.04666" lon="-1.83927">
        <ele>85</ele>
        <time>2021-09-18T10:25:57.000Z</time>
      </trkpt>
      <trkpt lat="47.04651" lon="-1.83907">
        <ele>85</ele>
        <time>2021-09-18T10:26:00.000Z</time>
      </trkpt>
      <trkpt lat="47.04636" lon="-1.83887">
        <ele>85</ele>
        <time>2021-09-18T10:26:03.000Z</time>
      </trkpt>
      <trkpt lat="47.04627" lon="-1.83873">
        <ele>85</ele>
        <time>2021-09-18T10:26:05.000Z</time>
      </trkpt>
      <trkpt lat="47.04613" lon="-1.83853">
        <ele>85</ele>
        <time>2021-09-18T10:26:08.000Z</time>
      </trkpt>
      <trkpt lat="47.04597" lon="-1.83836">
        <ele>86</ele>
        <time>2021-09-18T10:26:11.000Z</time>
      </trkpt>
      <trkpt lat="47.04586" lon="-1.83827">
        <ele>86</ele>
        <time>2021-09-18T10:26:13.000Z</time>
      </trkpt>
      <trkpt lat="47.04575" lon="-1.83818">
        <ele>86</ele>
        <time>2021-09-18T10:26:15.000Z</time>
      </trkpt>
      <trkpt lat="47.04563" lon="-1.8381">
        <ele>86</ele>
        <time>2021-09-18T10:26:17.000Z</time>
      </trkpt>
      <trkpt lat="47.04551" lon="-1.83802">
        <ele>86</ele>
        <time>2021-09-18T10:26:19.000Z</time>
      </trkpt>
      <trkpt lat="47.0454" lon="-1.83794">
        <ele>86</ele>
        <time>2021-09-18T10:26:21.000Z</time>
      </trkpt>
      <trkpt lat="47.04528" lon="-1.83786">
        <ele>86</ele>
        <time>2021-09-18T10:26:23.000Z</time>
      </trkpt>
      <trkpt lat="47.04517" lon="-1.83778">
        <ele>86</ele>
        <time>2021-09-18T10:26:25.000Z</time>
      </trkpt>
      <trkpt lat="47.04505" lon="-1.83769">
        <ele>86</ele>
        <time>2021-09-18T10:26:27.000Z</time>
      </trkpt>
      <trkpt lat="47.04494" lon="-1.83761">
        <ele>86</ele>
        <time>2021-09-18T10:26:29.000Z</time>
      </trkpt>
      <trkpt lat="47.04483" lon="-1.83752">
        <ele>86</ele>
        <time>2021-09-18T10:26:31.000Z</time>
      </trkpt>
      <trkpt lat="47.04472" lon="-1.83743">
        <ele>86</ele>
        <time>2021-09-18T10:26:33.000Z</time>
      </trkpt>
      <trkpt lat="47.04461" lon="-1.83733">
        <ele>86</ele>
        <time>2021-09-18T10:26:35.000Z</time>
      </trkpt>
      <trkpt lat="47.04451" lon="-1.83725">
        <ele>86</ele>
        <time>2021-09-18T10:26:37.000Z</time>
      </trkpt>
      <trkpt lat="47.0444" lon="-1.83715">
        <ele>87</ele>
        <time>2021-09-18T10:26:39.000Z</time>
      </trkpt>
      <trkpt lat="47.04429" lon="-1.83707">
        <ele>87</ele>
        <time>2021-09-18T10:26:41.000Z</time>
      </trkpt>
      <trkpt lat="47.04417" lon="-1.83698">
        <ele>86</ele>
        <time>2021-09-18T10:26:43.000Z</time>
      </trkpt>
      <trkpt lat="47.04406" lon="-1.8369">
        <ele>86</ele>
        <time>2021-09-18T10:26:45.000Z</time>
      </trkpt>
      <trkpt lat="47.04394" lon="-1.83682">
        <ele>86</ele>
        <time>2021-09-18T10:26:47.000Z</time>
      </trkpt>
      <trkpt lat="47.04382" lon="-1.83675">
        <ele>86</ele>
        <time>2021-09-18T10:26:49.000Z</time>
      </trkpt>
      <trkpt lat="47.04369" lon="-1.8367">
        <ele>85</ele>
        <time>2021-09-18T10:26:51.000Z</time>
      </trkpt>
      <trkpt lat="47.04356" lon="-1.83666">
        <ele>84</ele>
        <time>2021-09-18T10:26:53.000Z</time>
      </trkpt>
      <trkpt lat="47.04342" lon="-1.83663">
        <ele>85</ele>
        <time>2021-09-18T10:26:55.000Z</time>
      </trkpt>
      <trkpt lat="47.0433" lon="-1.8366">
        <ele>85</ele>
        <time>2021-09-18T10:26:57.000Z</time>
      </trkpt>
      <trkpt lat="47.04317" lon="-1.83657">
        <ele>84</ele>
        <time>2021-09-18T10:26:59.000Z</time>
      </trkpt>
      <trkpt lat="47.04304" lon="-1.83654">
        <ele>85</ele>
        <time>2021-09-18T10:27:01.000Z</time>
      </trkpt>
      <trkpt lat="47.04292" lon="-1.8365">
        <ele>84</ele>
        <time>2021-09-18T10:27:03.000Z</time>
      </trkpt>
      <trkpt lat="47.04279" lon="-1.83647">
        <ele>84</ele>
        <time>2021-09-18T10:27:05.000Z</time>
      </trkpt>
      <trkpt lat="47.04265" lon="-1.83644">
        <ele>82</ele>
        <time>2021-09-18T10:27:07.000Z</time>
      </trkpt>
      <trkpt lat="47.04252" lon="-1.83641">
        <ele>82</ele>
        <time>2021-09-18T10:27:09.000Z</time>
      </trkpt>
      <trkpt lat="47.04239" lon="-1.83637">
        <ele>82</ele>
        <time>2021-09-18T10:27:11.000Z</time>
      </trkpt>
      <trkpt lat="47.04227" lon="-1.83631">
        <ele>82</ele>
        <time>2021-09-18T10:27:13.000Z</time>
      </trkpt>
      <trkpt lat="47.04215" lon="-1.83622">
        <ele>82</ele>
        <time>2021-09-18T10:27:15.000Z</time>
      </trkpt>
      <trkpt lat="47.04204" lon="-1.83615">
        <ele>82</ele>
        <time>2021-09-18T10:27:17.000Z</time>
      </trkpt>
      <trkpt lat="47.04192" lon="-1.83616">
        <ele>83</ele>
        <time>2021-09-18T10:27:19.000Z</time>
      </trkpt>
      <trkpt lat="47.04179" lon="-1.83614">
        <ele>83</ele>
        <time>2021-09-18T10:27:21.000Z</time>
      </trkpt>
      <trkpt lat="47.04166" lon="-1.83609">
        <ele>83</ele>
        <time>2021-09-18T10:27:23.000Z</time>
      </trkpt>
      <trkpt lat="47.04155" lon="-1.83603">
        <ele>83</ele>
        <time>2021-09-18T10:27:25.000Z</time>
      </trkpt>
      <trkpt lat="47.04143" lon="-1.83598">
        <ele>84</ele>
        <time>2021-09-18T10:27:27.000Z</time>
      </trkpt>
      <trkpt lat="47.04131" lon="-1.83592">
        <ele>84</ele>
        <time>2021-09-18T10:27:29.000Z</time>
      </trkpt>
      <trkpt lat="47.04119" lon="-1.83586">
        <ele>83</ele>
        <time>2021-09-18T10:27:31.000Z</time>
      </trkpt>
      <trkpt lat="47.04107" lon="-1.83581">
        <ele>83</ele>
        <time>2021-09-18T10:27:33.000Z</time>
      </trkpt>
      <trkpt lat="47.04095" lon="-1.83577">
        <ele>84</ele>
        <time>2021-09-18T10:27:35.000Z</time>
      </trkpt>
      <trkpt lat="47.04083" lon="-1.83574">
        <ele>83</ele>
        <time>2021-09-18T10:27:37.000Z</time>
      </trkpt>
      <trkpt lat="47.04071" lon="-1.83571">
        <ele>84</ele>
        <time>2021-09-18T10:27:39.000Z</time>
      </trkpt>
      <trkpt lat="47.04058" lon="-1.83569">
        <ele>83</ele>
        <time>2021-09-18T10:27:41.000Z</time>
      </trkpt>
      <trkpt lat="47.04046" lon="-1.83567">
        <ele>84</ele>
        <time>2021-09-18T10:27:43.000Z</time>
      </trkpt>
      <trkpt lat="47.04033" lon="-1.83565">
        <ele>84</ele>
        <time>2021-09-18T10:27:45.000Z</time>
      </trkpt>
      <trkpt lat="47.04021" lon="-1.83564">
        <ele>84</ele>
        <time>2021-09-18T10:27:47.000Z</time>
      </trkpt>
      <trkpt lat="47.04008" lon="-1.83562">
        <ele>84</ele>
        <time>2021-09-18T10:27:49.000Z</time>
      </trkpt>
      <trkpt lat="47.03996" lon="-1.8356">
        <ele>84</ele>
        <time>2021-09-18T10:27:51.000Z</time>
      </trkpt>
      <trkpt lat="47.03983" lon="-1.83558">
        <ele>84</ele>
        <time>2021-09-18T10:27:53.000Z</time>
      </trkpt>
      <trkpt lat="47.0397" lon="-1.83557">
        <ele>84</ele>
        <time>2021-09-18T10:27:55.000Z</time>
      </trkpt>
      <trkpt lat="47.03958" lon="-1.83554">
        <ele>84</ele>
        <time>2021-09-18T10:27:57.000Z</time>
      </trkpt>
      <trkpt lat="47.03946" lon="-1.83553">
        <ele>84</ele>
        <time>2021-09-18T10:27:59.000Z</time>
      </trkpt>
      <trkpt lat="47.03933" lon="-1.83551">
        <ele>83</ele>
        <time>2021-09-18T10:28:01.000Z</time>
      </trkpt>
      <trkpt lat="47.03921" lon="-1.83549">
        <ele>83</ele>
        <time>2021-09-18T10:28:03.000Z</time>
      </trkpt>
      <trkpt lat="47.03907" lon="-1.83548">
        <ele>83</ele>
        <time>2021-09-18T10:28:05.000Z</time>
      </trkpt>
      <trkpt lat="47.03894" lon="-1.83546">
        <ele>83</ele>
        <time>2021-09-18T10:28:07.000Z</time>
      </trkpt>
      <trkpt lat="47.03881" lon="-1.83544">
        <ele>83</ele>
        <time>2021-09-18T10:28:09.000Z</time>
      </trkpt>
      <trkpt lat="47.03869" lon="-1.83543">
        <ele>83</ele>
        <time>2021-09-18T10:28:11.000Z</time>
      </trkpt>
      <trkpt lat="47.03856" lon="-1.83542">
        <ele>82</ele>
        <time>2021-09-18T10:28:13.000Z</time>
      </trkpt>
      <trkpt lat="47.03843" lon="-1.8354">
        <ele>82</ele>
        <time>2021-09-18T10:28:15.000Z</time>
      </trkpt>
      <trkpt lat="47.0383" lon="-1.83538">
        <ele>82</ele>
        <time>2021-09-18T10:28:17.000Z</time>
      </trkpt>
      <trkpt lat="47.03818" lon="-1.83537">
        <ele>83</ele>
        <time>2021-09-18T10:28:19.000Z</time>
      </trkpt>
      <trkpt lat="47.03805" lon="-1.83536">
        <ele>83</ele>
        <time>2021-09-18T10:28:21.000Z</time>
      </trkpt>
      <trkpt lat="47.03791" lon="-1.83536">
        <ele>83</ele>
        <time>2021-09-18T10:28:23.000Z</time>
      </trkpt>
      <trkpt lat="47.03778" lon="-1.83535">
        <ele>83</ele>
        <time>2021-09-18T10:28:25.000Z</time>
      </trkpt>
      <trkpt lat="47.03765" lon="-1.83535">
        <ele>83</ele>
        <time>2021-09-18T10:28:27.000Z</time>
      </trkpt>
      <trkpt lat="47.03752" lon="-1.83535">
        <ele>82</ele>
        <time>2021-09-18T10:28:29.000Z</time>
      </trkpt>
      <trkpt lat="47.03739" lon="-1.83535">
        <ele>82</ele>
        <time>2021-09-18T10:28:31.000Z</time>
      </trkpt>
      <trkpt lat="47.03726" lon="-1.83535">
        <ele>82</ele>
        <time>2021-09-18T10:28:33.000Z</time>
      </trkpt>
      <trkpt lat="47.03713" lon="-1.83535">
        <ele>82</ele>
        <time>2021-09-18T10:28:35.000Z</time>
      </trkpt>
      <trkpt lat="47.037" lon="-1.83535">
        <ele>82</ele>
        <time>2021-09-18T10:28:37.000Z</time>
      </trkpt>
      <trkpt lat="47.03688" lon="-1.83535">
        <ele>81</ele>
        <time>2021-09-18T10:28:39.000Z</time>
      </trkpt>
      <trkpt lat="47.03675" lon="-1.83535">
        <ele>81</ele>
        <time>2021-09-18T10:28:41.000Z</time>
      </trkpt>
      <trkpt lat="47.03662" lon="-1.83536">
        <ele>82</ele>
        <time>2021-09-18T10:28:43.000Z</time>
      </trkpt>
      <trkpt lat="47.0365" lon="-1.83536">
        <ele>81</ele>
        <time>2021-09-18T10:28:45.000Z</time>
      </trkpt>
      <trkpt lat="47.03638" lon="-1.83536">
        <ele>81</ele>
        <time>2021-09-18T10:28:47.000Z</time>
      </trkpt>
      <trkpt lat="47.03625" lon="-1.83537">
        <ele>81</ele>
        <time>2021-09-18T10:28:49.000Z</time>
      </trkpt>
      <trkpt lat="47.03613" lon="-1.83537">
        <ele>81</ele>
        <time>2021-09-18T10:28:51.000Z</time>
      </trkpt>
      <trkpt lat="47.03601" lon="-1.83538">
        <ele>81</ele>
        <time>2021-09-18T10:28:53.000Z</time>
      </trkpt>
      <trkpt lat="47.03588" lon="-1.83538">
        <ele>81</ele>
        <time>2021-09-18T10:28:55.000Z</time>
      </trkpt>
      <trkpt lat="47.03576" lon="-1.83538">
        <ele>81</ele>
        <time>2021-09-18T10:28:57.000Z</time>
      </trkpt>
      <trkpt lat="47.03564" lon="-1.83538">
        <ele>81</ele>
        <time>2021-09-18T10:28:59.000Z</time>
      </trkpt>
      <trkpt lat="47.03552" lon="-1.83538">
        <ele>81</ele>
        <time>2021-09-18T10:29:01.000Z</time>
      </trkpt>
      <trkpt lat="47.03539" lon="-1.83539">
        <ele>81</ele>
        <time>2021-09-18T10:29:03.000Z</time>
      </trkpt>
      <trkpt lat="47.03526" lon="-1.83538">
        <ele>81</ele>
        <time>2021-09-18T10:29:05.000Z</time>
      </trkpt>
      <trkpt lat="47.03514" lon="-1.83537">
        <ele>81</ele>
        <time>2021-09-18T10:29:07.000Z</time>
      </trkpt>
      <trkpt lat="47.035" lon="-1.83536">
        <ele>81</ele>
        <time>2021-09-18T10:29:09.000Z</time>
      </trkpt>
      <trkpt lat="47.03487" lon="-1.83534">
        <ele>81</ele>
        <time>2021-09-18T10:29:11.000Z</time>
      </trkpt>
      <trkpt lat="47.03474" lon="-1.83531">
        <ele>81</ele>
        <time>2021-09-18T10:29:13.000Z</time>
      </trkpt>
      <trkpt lat="47.03461" lon="-1.83528">
        <ele>80</ele>
        <time>2021-09-18T10:29:15.000Z</time>
      </trkpt>
      <trkpt lat="47.03447" lon="-1.83524">
        <ele>81</ele>
        <time>2021-09-18T10:29:17.000Z</time>
      </trkpt>
      <trkpt lat="47.03434" lon="-1.8352">
        <ele>80</ele>
        <time>2021-09-18T10:29:19.000Z</time>
      </trkpt>
      <trkpt lat="47.03421" lon="-1.83516">
        <ele>81</ele>
        <time>2021-09-18T10:29:21.000Z</time>
      </trkpt>
      <trkpt lat="47.03407" lon="-1.83513">
        <ele>80</ele>
        <time>2021-09-18T10:29:23.000Z</time>
      </trkpt>
      <trkpt lat="47.03394" lon="-1.83509">
        <ele>80</ele>
        <time>2021-09-18T10:29:25.000Z</time>
      </trkpt>
      <trkpt lat="47.03381" lon="-1.83506">
        <ele>80</ele>
        <time>2021-09-18T10:29:27.000Z</time>
      </trkpt>
      <trkpt lat="47.03368" lon="-1.83502">
        <ele>79</ele>
        <time>2021-09-18T10:29:29.000Z</time>
      </trkpt>
      <trkpt lat="47.03355" lon="-1.83498">
        <ele>79</ele>
        <time>2021-09-18T10:29:31.000Z</time>
      </trkpt>
      <trkpt lat="47.03342" lon="-1.83495">
        <ele>79</ele>
        <time>2021-09-18T10:29:33.000Z</time>
      </trkpt>
      <trkpt lat="47.03329" lon="-1.83491">
        <ele>79</ele>
        <time>2021-09-18T10:29:35.000Z</time>
      </trkpt>
      <trkpt lat="47.03317" lon="-1.83487">
        <ele>79</ele>
        <time>2021-09-18T10:29:37.000Z</time>
      </trkpt>
      <trkpt lat="47.03304" lon="-1.83484">
        <ele>79</ele>
        <time>2021-09-18T10:29:39.000Z</time>
      </trkpt>
      <trkpt lat="47.03291" lon="-1.83481">
        <ele>79</ele>
        <time>2021-09-18T10:29:41.000Z</time>
      </trkpt>
      <trkpt lat="47.03279" lon="-1.83477">
        <ele>78</ele>
        <time>2021-09-18T10:29:43.000Z</time>
      </trkpt>
      <trkpt lat="47.03266" lon="-1.83474">
        <ele>78</ele>
        <time>2021-09-18T10:29:45.000Z</time>
      </trkpt>
      <trkpt lat="47.03254" lon="-1.8347">
        <ele>78</ele>
        <time>2021-09-18T10:29:47.000Z</time>
      </trkpt>
      <trkpt lat="47.03241" lon="-1.83466">
        <ele>78</ele>
        <time>2021-09-18T10:29:49.000Z</time>
      </trkpt>
      <trkpt lat="47.03228" lon="-1.83463">
        <ele>78</ele>
        <time>2021-09-18T10:29:51.000Z</time>
      </trkpt>
      <trkpt lat="47.03216" lon="-1.83459">
        <ele>78</ele>
        <time>2021-09-18T10:29:53.000Z</time>
      </trkpt>
      <trkpt lat="47.03203" lon="-1.83456">
        <ele>78</ele>
        <time>2021-09-18T10:29:55.000Z</time>
      </trkpt>
      <trkpt lat="47.03192" lon="-1.83453">
        <ele>78</ele>
        <time>2021-09-18T10:29:57.000Z</time>
      </trkpt>
      <trkpt lat="47.03181" lon="-1.8345">
        <ele>77</ele>
        <time>2021-09-18T10:29:59.000Z</time>
      </trkpt>
      <trkpt lat="47.03171" lon="-1.83453">
        <ele>77</ele>
        <time>2021-09-18T10:30:01.000Z</time>
      </trkpt>
      <trkpt lat="47.03165" lon="-1.83465">
        <ele>78</ele>
        <time>2021-09-18T10:30:03.000Z</time>
      </trkpt>
      <trkpt lat="47.03161" lon="-1.83481">
        <ele>78</ele>
        <time>2021-09-18T10:30:05.000Z</time>
      </trkpt>
      <trkpt lat="47.03152" lon="-1.8349">
        <ele>78</ele>
        <time>2021-09-18T10:30:07.000Z</time>
      </trkpt>
      <trkpt lat="47.03138" lon="-1.8349">
        <ele>78</ele>
        <time>2021-09-18T10:30:09.000Z</time>
      </trkpt>
      <trkpt lat="47.03125" lon="-1.8349">
        <ele>78</ele>
        <time>2021-09-18T10:30:11.000Z</time>
      </trkpt>
      <trkpt lat="47.03112" lon="-1.83491">
        <ele>78</ele>
        <time>2021-09-18T10:30:13.000Z</time>
      </trkpt>
      <trkpt lat="47.03099" lon="-1.83493">
        <ele>78</ele>
        <time>2021-09-18T10:30:15.000Z</time>
      </trkpt>
      <trkpt lat="47.03087" lon="-1.83494">
        <ele>78</ele>
        <time>2021-09-18T10:30:17.000Z</time>
      </trkpt>
      <trkpt lat="47.03074" lon="-1.83495">
        <ele>77</ele>
        <time>2021-09-18T10:30:19.000Z</time>
      </trkpt>
      <trkpt lat="47.03061" lon="-1.83497">
        <ele>77</ele>
        <time>2021-09-18T10:30:21.000Z</time>
      </trkpt>
      <trkpt lat="47.03048" lon="-1.83498">
        <ele>76</ele>
        <time>2021-09-18T10:30:23.000Z</time>
      </trkpt>
      <trkpt lat="47.03035" lon="-1.83499">
        <ele>76</ele>
        <time>2021-09-18T10:30:25.000Z</time>
      </trkpt>
      <trkpt lat="47.03022" lon="-1.83501">
        <ele>76</ele>
        <time>2021-09-18T10:30:27.000Z</time>
      </trkpt>
      <trkpt lat="47.03009" lon="-1.83502">
        <ele>76</ele>
        <time>2021-09-18T10:30:29.000Z</time>
      </trkpt>
      <trkpt lat="47.02996" lon="-1.83504">
        <ele>76</ele>
        <time>2021-09-18T10:30:31.000Z</time>
      </trkpt>
      <trkpt lat="47.02983" lon="-1.83505">
        <ele>75</ele>
        <time>2021-09-18T10:30:33.000Z</time>
      </trkpt>
      <trkpt lat="47.0297" lon="-1.83507">
        <ele>75</ele>
        <time>2021-09-18T10:30:35.000Z</time>
      </trkpt>
      <trkpt lat="47.02957" lon="-1.83508">
        <ele>75</ele>
        <time>2021-09-18T10:30:37.000Z</time>
      </trkpt>
      <trkpt lat="47.02944" lon="-1.8351">
        <ele>75</ele>
        <time>2021-09-18T10:30:39.000Z</time>
      </trkpt>
      <trkpt lat="47.02931" lon="-1.83512">
        <ele>75</ele>
        <time>2021-09-18T10:30:41.000Z</time>
      </trkpt>
      <trkpt lat="47.02918" lon="-1.83515">
        <ele>75</ele>
        <time>2021-09-18T10:30:43.000Z</time>
      </trkpt>
      <trkpt lat="47.02906" lon="-1.83518">
        <ele>75</ele>
        <time>2021-09-18T10:30:45.000Z</time>
      </trkpt>
      <trkpt lat="47.02893" lon="-1.83521">
        <ele>75</ele>
        <time>2021-09-18T10:30:47.000Z</time>
      </trkpt>
      <trkpt lat="47.0288" lon="-1.83525">
        <ele>75</ele>
        <time>2021-09-18T10:30:49.000Z</time>
      </trkpt>
      <trkpt lat="47.02869" lon="-1.83529">
        <ele>75</ele>
        <time>2021-09-18T10:30:51.000Z</time>
      </trkpt>
      <trkpt lat="47.02856" lon="-1.83534">
        <ele>75</ele>
        <time>2021-09-18T10:30:53.000Z</time>
      </trkpt>
      <trkpt lat="47.02845" lon="-1.83539">
        <ele>75</ele>
        <time>2021-09-18T10:30:55.000Z</time>
      </trkpt>
      <trkpt lat="47.02835" lon="-1.83547">
        <ele>75</ele>
        <time>2021-09-18T10:30:57.000Z</time>
      </trkpt>
      <trkpt lat="47.02824" lon="-1.83555">
        <ele>75</ele>
        <time>2021-09-18T10:30:59.000Z</time>
      </trkpt>
      <trkpt lat="47.02815" lon="-1.83565">
        <ele>75</ele>
        <time>2021-09-18T10:31:01.000Z</time>
      </trkpt>
      <trkpt lat="47.02805" lon="-1.83576">
        <ele>76</ele>
        <time>2021-09-18T10:31:03.000Z</time>
      </trkpt>
      <trkpt lat="47.02795" lon="-1.83585">
        <ele>75</ele>
        <time>2021-09-18T10:31:05.000Z</time>
      </trkpt>
      <trkpt lat="47.02785" lon="-1.83594">
        <ele>76</ele>
        <time>2021-09-18T10:31:07.000Z</time>
      </trkpt>
      <trkpt lat="47.02774" lon="-1.83602">
        <ele>75</ele>
        <time>2021-09-18T10:31:09.000Z</time>
      </trkpt>
      <trkpt lat="47.02763" lon="-1.83608">
        <ele>75</ele>
        <time>2021-09-18T10:31:11.000Z</time>
      </trkpt>
      <trkpt lat="47.0275" lon="-1.83612">
        <ele>75</ele>
        <time>2021-09-18T10:31:13.000Z</time>
      </trkpt>
      <trkpt lat="47.02737" lon="-1.83615">
        <ele>75</ele>
        <time>2021-09-18T10:31:15.000Z</time>
      </trkpt>
      <trkpt lat="47.02724" lon="-1.83617">
        <ele>75</ele>
        <time>2021-09-18T10:31:17.000Z</time>
      </trkpt>
      <trkpt lat="47.02712" lon="-1.83618">
        <ele>75</ele>
        <time>2021-09-18T10:31:19.000Z</time>
      </trkpt>
      <trkpt lat="47.02699" lon="-1.83619">
        <ele>75</ele>
        <time>2021-09-18T10:31:21.000Z</time>
      </trkpt>
      <trkpt lat="47.02686" lon="-1.83619">
        <ele>75</ele>
        <time>2021-09-18T10:31:23.000Z</time>
      </trkpt>
      <trkpt lat="47.02673" lon="-1.83619">
        <ele>75</ele>
        <time>2021-09-18T10:31:25.000Z</time>
      </trkpt>
      <trkpt lat="47.0266" lon="-1.83621">
        <ele>74</ele>
        <time>2021-09-18T10:31:27.000Z</time>
      </trkpt>
      <trkpt lat="47.02648" lon="-1.83622">
        <ele>74</ele>
        <time>2021-09-18T10:31:29.000Z</time>
      </trkpt>
      <trkpt lat="47.02635" lon="-1.83622">
        <ele>74</ele>
        <time>2021-09-18T10:31:31.000Z</time>
      </trkpt>
      <trkpt lat="47.02622" lon="-1.83623">
        <ele>74</ele>
        <time>2021-09-18T10:31:33.000Z</time>
      </trkpt>
      <trkpt lat="47.02609" lon="-1.83624">
        <ele>73</ele>
        <time>2021-09-18T10:31:35.000Z</time>
      </trkpt>
      <trkpt lat="47.02596" lon="-1.83625">
        <ele>73</ele>
        <time>2021-09-18T10:31:37.000Z</time>
      </trkpt>
      <trkpt lat="47.02583" lon="-1.83626">
        <ele>73</ele>
        <time>2021-09-18T10:31:39.000Z</time>
      </trkpt>
      <trkpt lat="47.02571" lon="-1.83626">
        <ele>73</ele>
        <time>2021-09-18T10:31:41.000Z</time>
      </trkpt>
      <trkpt lat="47.02558" lon="-1.83627">
        <ele>73</ele>
        <time>2021-09-18T10:31:43.000Z</time>
      </trkpt>
      <trkpt lat="47.02545" lon="-1.83629">
        <ele>73</ele>
        <time>2021-09-18T10:31:45.000Z</time>
      </trkpt>
      <trkpt lat="47.02532" lon="-1.83631">
        <ele>73</ele>
        <time>2021-09-18T10:31:47.000Z</time>
      </trkpt>
      <trkpt lat="47.02519" lon="-1.83633">
        <ele>73</ele>
        <time>2021-09-18T10:31:49.000Z</time>
      </trkpt>
      <trkpt lat="47.02507" lon="-1.83636">
        <ele>73</ele>
        <time>2021-09-18T10:31:51.000Z</time>
      </trkpt>
      <trkpt lat="47.02494" lon="-1.83638">
        <ele>73</ele>
        <time>2021-09-18T10:31:53.000Z</time>
      </trkpt>
      <trkpt lat="47.02482" lon="-1.83641">
        <ele>73</ele>
        <time>2021-09-18T10:31:55.000Z</time>
      </trkpt>
      <trkpt lat="47.02469" lon="-1.83644">
        <ele>73</ele>
        <time>2021-09-18T10:31:57.000Z</time>
      </trkpt>
      <trkpt lat="47.02457" lon="-1.83647">
        <ele>73</ele>
        <time>2021-09-18T10:31:59.000Z</time>
      </trkpt>
      <trkpt lat="47.02444" lon="-1.8365">
        <ele>73</ele>
        <time>2021-09-18T10:32:01.000Z</time>
      </trkpt>
      <trkpt lat="47.02431" lon="-1.83653">
        <ele>73</ele>
        <time>2021-09-18T10:32:03.000Z</time>
      </trkpt>
      <trkpt lat="47.02419" lon="-1.83655">
        <ele>73</ele>
        <time>2021-09-18T10:32:05.000Z</time>
      </trkpt>
      <trkpt lat="47.02406" lon="-1.83657">
        <ele>73</ele>
        <time>2021-09-18T10:32:07.000Z</time>
      </trkpt>
      <trkpt lat="47.02394" lon="-1.83658">
        <ele>73</ele>
        <time>2021-09-18T10:32:09.000Z</time>
      </trkpt>
      <trkpt lat="47.02382" lon="-1.83658">
        <ele>73</ele>
        <time>2021-09-18T10:32:11.000Z</time>
      </trkpt>
      <trkpt lat="47.02369" lon="-1.83658">
        <ele>72</ele>
        <time>2021-09-18T10:32:13.000Z</time>
      </trkpt>
      <trkpt lat="47.02357" lon="-1.83657">
        <ele>72</ele>
        <time>2021-09-18T10:32:15.000Z</time>
      </trkpt>
      <trkpt lat="47.02344" lon="-1.83656">
        <ele>72</ele>
        <time>2021-09-18T10:32:17.000Z</time>
      </trkpt>
      <trkpt lat="47.02331" lon="-1.83655">
        <ele>72</ele>
        <time>2021-09-18T10:32:19.000Z</time>
      </trkpt>
      <trkpt lat="47.02318" lon="-1.83655">
        <ele>72</ele>
        <time>2021-09-18T10:32:21.000Z</time>
      </trkpt>
      <trkpt lat="47.02306" lon="-1.83654">
        <ele>72</ele>
        <time>2021-09-18T10:32:23.000Z</time>
      </trkpt>
      <trkpt lat="47.02293" lon="-1.83653">
        <ele>72</ele>
        <time>2021-09-18T10:32:25.000Z</time>
      </trkpt>
      <trkpt lat="47.02279" lon="-1.83652">
        <ele>72</ele>
        <time>2021-09-18T10:32:27.000Z</time>
      </trkpt>
      <trkpt lat="47.02266" lon="-1.83651">
        <ele>72</ele>
        <time>2021-09-18T10:32:29.000Z</time>
      </trkpt>
      <trkpt lat="47.02252" lon="-1.83651">
        <ele>72</ele>
        <time>2021-09-18T10:32:31.000Z</time>
      </trkpt>
      <trkpt lat="47.02239" lon="-1.83649">
        <ele>72</ele>
        <time>2021-09-18T10:32:33.000Z</time>
      </trkpt>
      <trkpt lat="47.02226" lon="-1.83648">
        <ele>72</ele>
        <time>2021-09-18T10:32:35.000Z</time>
      </trkpt>
      <trkpt lat="47.02212" lon="-1.83646">
        <ele>71</ele>
        <time>2021-09-18T10:32:37.000Z</time>
      </trkpt>
      <trkpt lat="47.022" lon="-1.83642">
        <ele>71</ele>
        <time>2021-09-18T10:32:39.000Z</time>
      </trkpt>
      <trkpt lat="47.02187" lon="-1.83637">
        <ele>71</ele>
        <time>2021-09-18T10:32:41.000Z</time>
      </trkpt>
      <trkpt lat="47.02175" lon="-1.83631">
        <ele>71</ele>
        <time>2021-09-18T10:32:43.000Z</time>
      </trkpt>
      <trkpt lat="47.02162" lon="-1.83624">
        <ele>71</ele>
        <time>2021-09-18T10:32:45.000Z</time>
      </trkpt>
      <trkpt lat="47.0215" lon="-1.83616">
        <ele>70</ele>
        <time>2021-09-18T10:32:47.000Z</time>
      </trkpt>
      <trkpt lat="47.02138" lon="-1.8361">
        <ele>70</ele>
        <time>2021-09-18T10:32:49.000Z</time>
      </trkpt>
      <trkpt lat="47.02125" lon="-1.83601">
        <ele>70</ele>
        <time>2021-09-18T10:32:51.000Z</time>
      </trkpt>
      <trkpt lat="47.02112" lon="-1.83593">
        <ele>69</ele>
        <time>2021-09-18T10:32:53.000Z</time>
      </trkpt>
      <trkpt lat="47.021" lon="-1.83587">
        <ele>69</ele>
        <time>2021-09-18T10:32:55.000Z</time>
      </trkpt>
      <trkpt lat="47.02087" lon="-1.8358">
        <ele>69</ele>
        <time>2021-09-18T10:32:57.000Z</time>
      </trkpt>
      <trkpt lat="47.02075" lon="-1.83573">
        <ele>69</ele>
        <time>2021-09-18T10:32:59.000Z</time>
      </trkpt>
      <trkpt lat="47.02063" lon="-1.83565">
        <ele>68</ele>
        <time>2021-09-18T10:33:01.000Z</time>
      </trkpt>
      <trkpt lat="47.0205" lon="-1.83558">
        <ele>69</ele>
        <time>2021-09-18T10:33:03.000Z</time>
      </trkpt>
      <trkpt lat="47.02038" lon="-1.83551">
        <ele>68</ele>
        <time>2021-09-18T10:33:05.000Z</time>
      </trkpt>
      <trkpt lat="47.02026" lon="-1.83542">
        <ele>68</ele>
        <time>2021-09-18T10:33:07.000Z</time>
      </trkpt>
      <trkpt lat="47.02013" lon="-1.83535">
        <ele>69</ele>
        <time>2021-09-18T10:33:09.000Z</time>
      </trkpt>
      <trkpt lat="47.02001" lon="-1.83527">
        <ele>69</ele>
        <time>2021-09-18T10:33:11.000Z</time>
      </trkpt>
      <trkpt lat="47.01989" lon="-1.8352">
        <ele>69</ele>
        <time>2021-09-18T10:33:13.000Z</time>
      </trkpt>
      <trkpt lat="47.01976" lon="-1.83513">
        <ele>68</ele>
        <time>2021-09-18T10:33:15.000Z</time>
      </trkpt>
      <trkpt lat="47.01964" lon="-1.83506">
        <ele>68</ele>
        <time>2021-09-18T10:33:17.000Z</time>
      </trkpt>
      <trkpt lat="47.01951" lon="-1.83501">
        <ele>68</ele>
        <time>2021-09-18T10:33:19.000Z</time>
      </trkpt>
      <trkpt lat="47.01937" lon="-1.83498">
        <ele>68</ele>
        <time>2021-09-18T10:33:21.000Z</time>
      </trkpt>
      <trkpt lat="47.01923" lon="-1.83498">
        <ele>67</ele>
        <time>2021-09-18T10:33:23.000Z</time>
      </trkpt>
      <trkpt lat="47.01909" lon="-1.83501">
        <ele>66</ele>
        <time>2021-09-18T10:33:25.000Z</time>
      </trkpt>
      <trkpt lat="47.01894" lon="-1.83504">
        <ele>66</ele>
        <time>2021-09-18T10:33:27.000Z</time>
      </trkpt>
      <trkpt lat="47.01879" lon="-1.83508">
        <ele>65</ele>
        <time>2021-09-18T10:33:29.000Z</time>
      </trkpt>
      <trkpt lat="47.01864" lon="-1.83511">
        <ele>65</ele>
        <time>2021-09-18T10:33:31.000Z</time>
      </trkpt>
      <trkpt lat="47.01849" lon="-1.83515">
        <ele>64</ele>
        <time>2021-09-18T10:33:33.000Z</time>
      </trkpt>
      <trkpt lat="47.01834" lon="-1.83518">
        <ele>63</ele>
        <time>2021-09-18T10:33:35.000Z</time>
      </trkpt>
      <trkpt lat="47.01819" lon="-1.83522">
        <ele>63</ele>
        <time>2021-09-18T10:33:37.000Z</time>
      </trkpt>
      <trkpt lat="47.01805" lon="-1.83525">
        <ele>63</ele>
        <time>2021-09-18T10:33:39.000Z</time>
      </trkpt>
      <trkpt lat="47.0179" lon="-1.83528">
        <ele>63</ele>
        <time>2021-09-18T10:33:41.000Z</time>
      </trkpt>
      <trkpt lat="47.01776" lon="-1.83532">
        <ele>62</ele>
        <time>2021-09-18T10:33:43.000Z</time>
      </trkpt>
      <trkpt lat="47.01763" lon="-1.83538">
        <ele>62</ele>
        <time>2021-09-18T10:33:45.000Z</time>
      </trkpt>
      <trkpt lat="47.01751" lon="-1.83547">
        <ele>62</ele>
        <time>2021-09-18T10:33:47.000Z</time>
      </trkpt>
      <trkpt lat="47.01741" lon="-1.83559">
        <ele>61</ele>
        <time>2021-09-18T10:33:49.000Z</time>
      </trkpt>
      <trkpt lat="47.01733" lon="-1.83572">
        <ele>61</ele>
        <time>2021-09-18T10:33:51.000Z</time>
      </trkpt>
      <trkpt lat="47.01726" lon="-1.83587">
        <ele>61</ele>
        <time>2021-09-18T10:33:53.000Z</time>
      </trkpt>
      <trkpt lat="47.01719" lon="-1.83601">
        <ele>61</ele>
        <time>2021-09-18T10:33:55.000Z</time>
      </trkpt>
      <trkpt lat="47.01712" lon="-1.83615">
        <ele>61</ele>
        <time>2021-09-18T10:33:57.000Z</time>
      </trkpt>
      <trkpt lat="47.01704" lon="-1.8363">
        <ele>61</ele>
        <time>2021-09-18T10:33:59.000Z</time>
      </trkpt>
      <trkpt lat="47.01697" lon="-1.83643">
        <ele>61</ele>
        <time>2021-09-18T10:34:01.000Z</time>
      </trkpt>
      <trkpt lat="47.01688" lon="-1.83657">
        <ele>61</ele>
        <time>2021-09-18T10:34:03.000Z</time>
      </trkpt>
      <trkpt lat="47.0168" lon="-1.8367">
        <ele>61</ele>
        <time>2021-09-18T10:34:05.000Z</time>
      </trkpt>
      <trkpt lat="47.0167" lon="-1.83682">
        <ele>61</ele>
        <time>2021-09-18T10:34:07.000Z</time>
      </trkpt>
      <trkpt lat="47.01661" lon="-1.83694">
        <ele>61</ele>
        <time>2021-09-18T10:34:09.000Z</time>
      </trkpt>
      <trkpt lat="47.01651" lon="-1.83705">
        <ele>61</ele>
        <time>2021-09-18T10:34:11.000Z</time>
      </trkpt>
      <trkpt lat="47.01642" lon="-1.83717">
        <ele>61</ele>
        <time>2021-09-18T10:34:13.000Z</time>
      </trkpt>
      <trkpt lat="47.01632" lon="-1.83728">
        <ele>60</ele>
        <time>2021-09-18T10:34:15.000Z</time>
      </trkpt>
      <trkpt lat="47.01622" lon="-1.83739">
        <ele>60</ele>
        <time>2021-09-18T10:34:17.000Z</time>
      </trkpt>
      <trkpt lat="47.01613" lon="-1.8375">
        <ele>60</ele>
        <time>2021-09-18T10:34:19.000Z</time>
      </trkpt>
      <trkpt lat="47.01604" lon="-1.83762">
        <ele>60</ele>
        <time>2021-09-18T10:34:21.000Z</time>
      </trkpt>
      <trkpt lat="47.01594" lon="-1.83774">
        <ele>60</ele>
        <time>2021-09-18T10:34:23.000Z</time>
      </trkpt>
      <trkpt lat="47.01584" lon="-1.83786">
        <ele>60</ele>
        <time>2021-09-18T10:34:25.000Z</time>
      </trkpt>
      <trkpt lat="47.01574" lon="-1.83798">
        <ele>60</ele>
        <time>2021-09-18T10:34:27.000Z</time>
      </trkpt>
      <trkpt lat="47.01564" lon="-1.8381">
        <ele>59</ele>
        <time>2021-09-18T10:34:29.000Z</time>
      </trkpt>
      <trkpt lat="47.01554" lon="-1.83823">
        <ele>59</ele>
        <time>2021-09-18T10:34:31.000Z</time>
      </trkpt>
      <trkpt lat="47.01544" lon="-1.83835">
        <ele>59</ele>
        <time>2021-09-18T10:34:33.000Z</time>
      </trkpt>
      <trkpt lat="47.01535" lon="-1.83848">
        <ele>59</ele>
        <time>2021-09-18T10:34:35.000Z</time>
      </trkpt>
      <trkpt lat="47.01525" lon="-1.83862">
        <ele>59</ele>
        <time>2021-09-18T10:34:37.000Z</time>
      </trkpt>
      <trkpt lat="47.01516" lon="-1.83876">
        <ele>59</ele>
        <time>2021-09-18T10:34:39.000Z</time>
      </trkpt>
      <trkpt lat="47.01508" lon="-1.8389">
        <ele>59</ele>
        <time>2021-09-18T10:34:41.000Z</time>
      </trkpt>
      <trkpt lat="47.015" lon="-1.83903">
        <ele>59</ele>
        <time>2021-09-18T10:34:43.000Z</time>
      </trkpt>
      <trkpt lat="47.01491" lon="-1.83916">
        <ele>58</ele>
        <time>2021-09-18T10:34:45.000Z</time>
      </trkpt>
      <trkpt lat="47.01482" lon="-1.83929">
        <ele>58</ele>
        <time>2021-09-18T10:34:47.000Z</time>
      </trkpt>
      <trkpt lat="47.01474" lon="-1.83943">
        <ele>58</ele>
        <time>2021-09-18T10:34:49.000Z</time>
      </trkpt>
      <trkpt lat="47.01465" lon="-1.83956">
        <ele>58</ele>
        <time>2021-09-18T10:34:51.000Z</time>
      </trkpt>
      <trkpt lat="47.01456" lon="-1.83969">
        <ele>58</ele>
        <time>2021-09-18T10:34:53.000Z</time>
      </trkpt>
      <trkpt lat="47.01447" lon="-1.83983">
        <ele>57</ele>
        <time>2021-09-18T10:34:55.000Z</time>
      </trkpt>
      <trkpt lat="47.01438" lon="-1.83996">
        <ele>57</ele>
        <time>2021-09-18T10:34:57.000Z</time>
      </trkpt>
      <trkpt lat="47.01429" lon="-1.84009">
        <ele>57</ele>
        <time>2021-09-18T10:34:59.000Z</time>
      </trkpt>
      <trkpt lat="47.0142" lon="-1.84022">
        <ele>56</ele>
        <time>2021-09-18T10:35:01.000Z</time>
      </trkpt>
      <trkpt lat="47.01411" lon="-1.84035">
        <ele>56</ele>
        <time>2021-09-18T10:35:03.000Z</time>
      </trkpt>
      <trkpt lat="47.01402" lon="-1.84049">
        <ele>55</ele>
        <time>2021-09-18T10:35:05.000Z</time>
      </trkpt>
      <trkpt lat="47.01393" lon="-1.84061">
        <ele>55</ele>
        <time>2021-09-18T10:35:07.000Z</time>
      </trkpt>
      <trkpt lat="47.01384" lon="-1.84074">
        <ele>55</ele>
        <time>2021-09-18T10:35:09.000Z</time>
      </trkpt>
      <trkpt lat="47.01374" lon="-1.84087">
        <ele>54</ele>
        <time>2021-09-18T10:35:11.000Z</time>
      </trkpt>
      <trkpt lat="47.01364" lon="-1.84099">
        <ele>54</ele>
        <time>2021-09-18T10:35:13.000Z</time>
      </trkpt>
      <trkpt lat="47.01353" lon="-1.84111">
        <ele>54</ele>
        <time>2021-09-18T10:35:15.000Z</time>
      </trkpt>
      <trkpt lat="47.01343" lon="-1.84123">
        <ele>55</ele>
        <time>2021-09-18T10:35:17.000Z</time>
      </trkpt>
      <trkpt lat="47.01332" lon="-1.84134">
        <ele>55</ele>
        <time>2021-09-18T10:35:19.000Z</time>
      </trkpt>
      <trkpt lat="47.01322" lon="-1.84146">
        <ele>55</ele>
        <time>2021-09-18T10:35:21.000Z</time>
      </trkpt>
      <trkpt lat="47.01312" lon="-1.84157">
        <ele>55</ele>
        <time>2021-09-18T10:35:23.000Z</time>
      </trkpt>
      <trkpt lat="47.01301" lon="-1.84169">
        <ele>55</ele>
        <time>2021-09-18T10:35:25.000Z</time>
      </trkpt>
      <trkpt lat="47.01291" lon="-1.84181">
        <ele>55</ele>
        <time>2021-09-18T10:35:27.000Z</time>
      </trkpt>
      <trkpt lat="47.01281" lon="-1.84192">
        <ele>55</ele>
        <time>2021-09-18T10:35:29.000Z</time>
      </trkpt>
      <trkpt lat="47.01271" lon="-1.84202">
        <ele>55</ele>
        <time>2021-09-18T10:35:31.000Z</time>
      </trkpt>
      <trkpt lat="47.0126" lon="-1.84212">
        <ele>54</ele>
        <time>2021-09-18T10:35:33.000Z</time>
      </trkpt>
      <trkpt lat="47.01251" lon="-1.84223">
        <ele>54</ele>
        <time>2021-09-18T10:35:35.000Z</time>
      </trkpt>
      <trkpt lat="47.01242" lon="-1.84234">
        <ele>54</ele>
        <time>2021-09-18T10:35:37.000Z</time>
      </trkpt>
      <trkpt lat="47.01232" lon="-1.84244">
        <ele>54</ele>
        <time>2021-09-18T10:35:39.000Z</time>
      </trkpt>
      <trkpt lat="47.01222" lon="-1.84254">
        <ele>54</ele>
        <time>2021-09-18T10:35:41.000Z</time>
      </trkpt>
      <trkpt lat="47.01213" lon="-1.84265">
        <ele>54</ele>
        <time>2021-09-18T10:35:43.000Z</time>
      </trkpt>
      <trkpt lat="47.01204" lon="-1.84276">
        <ele>54</ele>
        <time>2021-09-18T10:35:45.000Z</time>
      </trkpt>
      <trkpt lat="47.01195" lon="-1.84289">
        <ele>54</ele>
        <time>2021-09-18T10:35:47.000Z</time>
      </trkpt>
      <trkpt lat="47.01188" lon="-1.84304">
        <ele>54</ele>
        <time>2021-09-18T10:35:49.000Z</time>
      </trkpt>
      <trkpt lat="47.01182" lon="-1.84319">
        <ele>54</ele>
        <time>2021-09-18T10:35:51.000Z</time>
      </trkpt>
      <trkpt lat="47.01177" lon="-1.84335">
        <ele>54</ele>
        <time>2021-09-18T10:35:53.000Z</time>
      </trkpt>
      <trkpt lat="47.01172" lon="-1.84351">
        <ele>54</ele>
        <time>2021-09-18T10:35:55.000Z</time>
      </trkpt>
      <trkpt lat="47.01168" lon="-1.84367">
        <ele>54</ele>
        <time>2021-09-18T10:35:57.000Z</time>
      </trkpt>
      <trkpt lat="47.01163" lon="-1.84384">
        <ele>54</ele>
        <time>2021-09-18T10:35:59.000Z</time>
      </trkpt>
      <trkpt lat="47.01159" lon="-1.844">
        <ele>54</ele>
        <time>2021-09-18T10:36:01.000Z</time>
      </trkpt>
      <trkpt lat="47.01155" lon="-1.84417">
        <ele>54</ele>
        <time>2021-09-18T10:36:03.000Z</time>
      </trkpt>
      <trkpt lat="47.01151" lon="-1.84434">
        <ele>54</ele>
        <time>2021-09-18T10:36:05.000Z</time>
      </trkpt>
      <trkpt lat="47.01146" lon="-1.84451">
        <ele>53</ele>
        <time>2021-09-18T10:36:07.000Z</time>
      </trkpt>
      <trkpt lat="47.01142" lon="-1.84468">
        <ele>53</ele>
        <time>2021-09-18T10:36:09.000Z</time>
      </trkpt>
      <trkpt lat="47.01138" lon="-1.84485">
        <ele>53</ele>
        <time>2021-09-18T10:36:11.000Z</time>
      </trkpt>
      <trkpt lat="47.01133" lon="-1.84501">
        <ele>53</ele>
        <time>2021-09-18T10:36:13.000Z</time>
      </trkpt>
      <trkpt lat="47.01128" lon="-1.84518">
        <ele>53</ele>
        <time>2021-09-18T10:36:15.000Z</time>
      </trkpt>
      <trkpt lat="47.01121" lon="-1.84534">
        <ele>53</ele>
        <time>2021-09-18T10:36:17.000Z</time>
      </trkpt>
      <trkpt lat="47.01114" lon="-1.84548">
        <ele>53</ele>
        <time>2021-09-18T10:36:19.000Z</time>
      </trkpt>
      <trkpt lat="47.01106" lon="-1.84561">
        <ele>53</ele>
        <time>2021-09-18T10:36:21.000Z</time>
      </trkpt>
      <trkpt lat="47.01097" lon="-1.84572">
        <ele>53</ele>
        <time>2021-09-18T10:36:23.000Z</time>
      </trkpt>
      <trkpt lat="47.01088" lon="-1.84583">
        <ele>53</ele>
        <time>2021-09-18T10:36:25.000Z</time>
      </trkpt>
      <trkpt lat="47.01079" lon="-1.84594">
        <ele>53</ele>
        <time>2021-09-18T10:36:27.000Z</time>
      </trkpt>
      <trkpt lat="47.0107" lon="-1.84604">
        <ele>53</ele>
        <time>2021-09-18T10:36:29.000Z</time>
      </trkpt>
      <trkpt lat="47.01061" lon="-1.84615">
        <ele>52</ele>
        <time>2021-09-18T10:36:31.000Z</time>
      </trkpt>
      <trkpt lat="47.01051" lon="-1.84625">
        <ele>53</ele>
        <time>2021-09-18T10:36:33.000Z</time>
      </trkpt>
      <trkpt lat="47.01042" lon="-1.84636">
        <ele>53</ele>
        <time>2021-09-18T10:36:35.000Z</time>
      </trkpt>
      <trkpt lat="47.01032" lon="-1.84646">
        <ele>53</ele>
        <time>2021-09-18T10:36:37.000Z</time>
      </trkpt>
      <trkpt lat="47.01023" lon="-1.84655">
        <ele>53</ele>
        <time>2021-09-18T10:36:39.000Z</time>
      </trkpt>
      <trkpt lat="47.01012" lon="-1.84663">
        <ele>53</ele>
        <time>2021-09-18T10:36:41.000Z</time>
      </trkpt>
      <trkpt lat="47.01001" lon="-1.84669">
        <ele>53</ele>
        <time>2021-09-18T10:36:43.000Z</time>
      </trkpt>
      <trkpt lat="47.00989" lon="-1.84676">
        <ele>53</ele>
        <time>2021-09-18T10:36:45.000Z</time>
      </trkpt>
      <trkpt lat="47.00978" lon="-1.84682">
        <ele>52</ele>
        <time>2021-09-18T10:36:47.000Z</time>
      </trkpt>
      <trkpt lat="47.00967" lon="-1.84689">
        <ele>52</ele>
        <time>2021-09-18T10:36:49.000Z</time>
      </trkpt>
      <trkpt lat="47.00956" lon="-1.84695">
        <ele>53</ele>
        <time>2021-09-18T10:36:51.000Z</time>
      </trkpt>
      <trkpt lat="47.00945" lon="-1.84702">
        <ele>52</ele>
        <time>2021-09-18T10:36:53.000Z</time>
      </trkpt>
      <trkpt lat="47.00934" lon="-1.84707">
        <ele>52</ele>
        <time>2021-09-18T10:36:55.000Z</time>
      </trkpt>
      <trkpt lat="47.00924" lon="-1.84712">
        <ele>52</ele>
        <time>2021-09-18T10:36:57.000Z</time>
      </trkpt>
      <trkpt lat="47.00915" lon="-1.84717">
        <ele>53</ele>
        <time>2021-09-18T10:36:59.000Z</time>
      </trkpt>
      <trkpt lat="47.00902" lon="-1.84723">
        <ele>53</ele>
        <time>2021-09-18T10:37:02.000Z</time>
      </trkpt>
      <trkpt lat="47.00894" lon="-1.84729">
        <ele>53</ele>
        <time>2021-09-18T10:37:05.000Z</time>
      </trkpt>
      <trkpt lat="47.00886" lon="-1.84739">
        <ele>54</ele>
        <time>2021-09-18T10:37:15.000Z</time>
      </trkpt>
      <trkpt lat="47.00878" lon="-1.84746">
        <ele>53</ele>
        <time>2021-09-18T10:37:17.000Z</time>
      </trkpt>
      <trkpt lat="47.00869" lon="-1.84754">
        <ele>53</ele>
        <time>2021-09-18T10:37:19.000Z</time>
      </trkpt>
      <trkpt lat="47.00858" lon="-1.84762">
        <ele>52</ele>
        <time>2021-09-18T10:37:21.000Z</time>
      </trkpt>
      <trkpt lat="47.00847" lon="-1.8477">
        <ele>52</ele>
        <time>2021-09-18T10:37:23.000Z</time>
      </trkpt>
      <trkpt lat="47.00836" lon="-1.84777">
        <ele>52</ele>
        <time>2021-09-18T10:37:25.000Z</time>
      </trkpt>
      <trkpt lat="47.00825" lon="-1.84784">
        <ele>53</ele>
        <time>2021-09-18T10:37:27.000Z</time>
      </trkpt>
      <trkpt lat="47.00814" lon="-1.84791">
        <ele>52</ele>
        <time>2021-09-18T10:37:29.000Z</time>
      </trkpt>
      <trkpt lat="47.00803" lon="-1.84797">
        <ele>53</ele>
        <time>2021-09-18T10:37:31.000Z</time>
      </trkpt>
      <trkpt lat="47.00791" lon="-1.84804">
        <ele>53</ele>
        <time>2021-09-18T10:37:33.000Z</time>
      </trkpt>
      <trkpt lat="47.00779" lon="-1.8481">
        <ele>53</ele>
        <time>2021-09-18T10:37:35.000Z</time>
      </trkpt>
      <trkpt lat="47.00767" lon="-1.84816">
        <ele>53</ele>
        <time>2021-09-18T10:37:37.000Z</time>
      </trkpt>
      <trkpt lat="47.00755" lon="-1.84822">
        <ele>53</ele>
        <time>2021-09-18T10:37:39.000Z</time>
      </trkpt>
      <trkpt lat="47.00744" lon="-1.84828">
        <ele>53</ele>
        <time>2021-09-18T10:37:41.000Z</time>
      </trkpt>
      <trkpt lat="47.00733" lon="-1.84833">
        <ele>53</ele>
        <time>2021-09-18T10:37:43.000Z</time>
      </trkpt>
      <trkpt lat="47.00721" lon="-1.84839">
        <ele>53</ele>
        <time>2021-09-18T10:37:45.000Z</time>
      </trkpt>
      <trkpt lat="47.0071" lon="-1.84845">
        <ele>53</ele>
        <time>2021-09-18T10:37:47.000Z</time>
      </trkpt>
      <trkpt lat="47.00698" lon="-1.84851">
        <ele>53</ele>
        <time>2021-09-18T10:37:49.000Z</time>
      </trkpt>
      <trkpt lat="47.00687" lon="-1.84857">
        <ele>53</ele>
        <time>2021-09-18T10:37:51.000Z</time>
      </trkpt>
      <trkpt lat="47.00675" lon="-1.84864">
        <ele>53</ele>
        <time>2021-09-18T10:37:53.000Z</time>
      </trkpt>
      <trkpt lat="47.00663" lon="-1.8487">
        <ele>53</ele>
        <time>2021-09-18T10:37:55.000Z</time>
      </trkpt>
      <trkpt lat="47.00651" lon="-1.84876">
        <ele>53</ele>
        <time>2021-09-18T10:37:57.000Z</time>
      </trkpt>
      <trkpt lat="47.00639" lon="-1.84883">
        <ele>53</ele>
        <time>2021-09-18T10:37:59.000Z</time>
      </trkpt>
      <trkpt lat="47.00628" lon="-1.84891">
        <ele>53</ele>
        <time>2021-09-18T10:38:01.000Z</time>
      </trkpt>
      <trkpt lat="47.00617" lon="-1.849">
        <ele>53</ele>
        <time>2021-09-18T10:38:03.000Z</time>
      </trkpt>
      <trkpt lat="47.00607" lon="-1.8491">
        <ele>53</ele>
        <time>2021-09-18T10:38:05.000Z</time>
      </trkpt>
      <trkpt lat="47.00597" lon="-1.8492">
        <ele>53</ele>
        <time>2021-09-18T10:38:07.000Z</time>
      </trkpt>
      <trkpt lat="47.00588" lon="-1.84931">
        <ele>53</ele>
        <time>2021-09-18T10:38:09.000Z</time>
      </trkpt>
      <trkpt lat="47.00579" lon="-1.84943">
        <ele>53</ele>
        <time>2021-09-18T10:38:11.000Z</time>
      </trkpt>
      <trkpt lat="47.0057" lon="-1.84955">
        <ele>53</ele>
        <time>2021-09-18T10:38:13.000Z</time>
      </trkpt>
      <trkpt lat="47.00561" lon="-1.84966">
        <ele>53</ele>
        <time>2021-09-18T10:38:15.000Z</time>
      </trkpt>
      <trkpt lat="47.00552" lon="-1.84978">
        <ele>53</ele>
        <time>2021-09-18T10:38:17.000Z</time>
      </trkpt>
      <trkpt lat="47.00543" lon="-1.84989">
        <ele>52</ele>
        <time>2021-09-18T10:38:19.000Z</time>
      </trkpt>
      <trkpt lat="47.00534" lon="-1.85001">
        <ele>52</ele>
        <time>2021-09-18T10:38:21.000Z</time>
      </trkpt>
      <trkpt lat="47.00525" lon="-1.85013">
        <ele>52</ele>
        <time>2021-09-18T10:38:23.000Z</time>
      </trkpt>
      <trkpt lat="47.00515" lon="-1.85024">
        <ele>52</ele>
        <time>2021-09-18T10:38:25.000Z</time>
      </trkpt>
      <trkpt lat="47.00507" lon="-1.85035">
        <ele>52</ele>
        <time>2021-09-18T10:38:27.000Z</time>
      </trkpt>
      <trkpt lat="47.00498" lon="-1.85046">
        <ele>52</ele>
        <time>2021-09-18T10:38:29.000Z</time>
      </trkpt>
      <trkpt lat="47.00489" lon="-1.85057">
        <ele>52</ele>
        <time>2021-09-18T10:38:31.000Z</time>
      </trkpt>
      <trkpt lat="47.00479" lon="-1.85066">
        <ele>53</ele>
        <time>2021-09-18T10:38:33.000Z</time>
      </trkpt>
      <trkpt lat="47.0047" lon="-1.85075">
        <ele>53</ele>
        <time>2021-09-18T10:38:35.000Z</time>
      </trkpt>
      <trkpt lat="47.0046" lon="-1.85083">
        <ele>53</ele>
        <time>2021-09-18T10:38:37.000Z</time>
      </trkpt>
      <trkpt lat="47.0045" lon="-1.85091">
        <ele>53</ele>
        <time>2021-09-18T10:38:39.000Z</time>
      </trkpt>
      <trkpt lat="47.0044" lon="-1.85099">
        <ele>53</ele>
        <time>2021-09-18T10:38:41.000Z</time>
      </trkpt>
      <trkpt lat="47.0043" lon="-1.85107">
        <ele>53</ele>
        <time>2021-09-18T10:38:43.000Z</time>
      </trkpt>
      <trkpt lat="47.0042" lon="-1.85115">
        <ele>53</ele>
        <time>2021-09-18T10:38:45.000Z</time>
      </trkpt>
      <trkpt lat="47.0041" lon="-1.85124">
        <ele>53</ele>
        <time>2021-09-18T10:38:47.000Z</time>
      </trkpt>
      <trkpt lat="47.004" lon="-1.85132">
        <ele>53</ele>
        <time>2021-09-18T10:38:49.000Z</time>
      </trkpt>
      <trkpt lat="47.0039" lon="-1.85141">
        <ele>53</ele>
        <time>2021-09-18T10:38:51.000Z</time>
      </trkpt>
      <trkpt lat="47.0038" lon="-1.85149">
        <ele>54</ele>
        <time>2021-09-18T10:38:53.000Z</time>
      </trkpt>
      <trkpt lat="47.0037" lon="-1.85158">
        <ele>53</ele>
        <time>2021-09-18T10:38:55.000Z</time>
      </trkpt>
      <trkpt lat="47.0036" lon="-1.85167">
        <ele>53</ele>
        <time>2021-09-18T10:38:57.000Z</time>
      </trkpt>
      <trkpt lat="47.0035" lon="-1.85175">
        <ele>53</ele>
        <time>2021-09-18T10:38:59.000Z</time>
      </trkpt>
      <trkpt lat="47.0034" lon="-1.85184">
        <ele>53</ele>
        <time>2021-09-18T10:39:01.000Z</time>
      </trkpt>
      <trkpt lat="47.0033" lon="-1.85193">
        <ele>52</ele>
        <time>2021-09-18T10:39:03.000Z</time>
      </trkpt>
      <trkpt lat="47.0032" lon="-1.85201">
        <ele>52</ele>
        <time>2021-09-18T10:39:05.000Z</time>
      </trkpt>
      <trkpt lat="47.0031" lon="-1.85208">
        <ele>53</ele>
        <time>2021-09-18T10:39:07.000Z</time>
      </trkpt>
      <trkpt lat="47.003" lon="-1.85216">
        <ele>53</ele>
        <time>2021-09-18T10:39:09.000Z</time>
      </trkpt>
      <trkpt lat="47.0029" lon="-1.85224">
        <ele>53</ele>
        <time>2021-09-18T10:39:11.000Z</time>
      </trkpt>
      <trkpt lat="47.0028" lon="-1.85233">
        <ele>53</ele>
        <time>2021-09-18T10:39:13.000Z</time>
      </trkpt>
      <trkpt lat="47.0027" lon="-1.85241">
        <ele>53</ele>
        <time>2021-09-18T10:39:15.000Z</time>
      </trkpt>
      <trkpt lat="47.0026" lon="-1.8525">
        <ele>52</ele>
        <time>2021-09-18T10:39:17.000Z</time>
      </trkpt>
      <trkpt lat="47.00251" lon="-1.85259">
        <ele>53</ele>
        <time>2021-09-18T10:39:19.000Z</time>
      </trkpt>
      <trkpt lat="47.00241" lon="-1.85268">
        <ele>53</ele>
        <time>2021-09-18T10:39:21.000Z</time>
      </trkpt>
      <trkpt lat="47.00232" lon="-1.85278">
        <ele>53</ele>
        <time>2021-09-18T10:39:23.000Z</time>
      </trkpt>
      <trkpt lat="47.00222" lon="-1.85289">
        <ele>53</ele>
        <time>2021-09-18T10:39:25.000Z</time>
      </trkpt>
      <trkpt lat="47.00214" lon="-1.85301">
        <ele>52</ele>
        <time>2021-09-18T10:39:27.000Z</time>
      </trkpt>
      <trkpt lat="47.00207" lon="-1.85315">
        <ele>52</ele>
        <time>2021-09-18T10:39:29.000Z</time>
      </trkpt>
      <trkpt lat="47.002" lon="-1.85328">
        <ele>52</ele>
        <time>2021-09-18T10:39:31.000Z</time>
      </trkpt>
      <trkpt lat="47.00193" lon="-1.85343">
        <ele>51</ele>
        <time>2021-09-18T10:39:33.000Z</time>
      </trkpt>
      <trkpt lat="47.00183" lon="-1.85365">
        <ele>51</ele>
        <time>2021-09-18T10:39:36.000Z</time>
      </trkpt>
      <trkpt lat="47.00176" lon="-1.85379">
        <ele>51</ele>
        <time>2021-09-18T10:39:38.000Z</time>
      </trkpt>
      <trkpt lat="47.00169" lon="-1.85393">
        <ele>51</ele>
        <time>2021-09-18T10:39:40.000Z</time>
      </trkpt>
      <trkpt lat="47.00162" lon="-1.85406">
        <ele>51</ele>
        <time>2021-09-18T10:39:42.000Z</time>
      </trkpt>
      <trkpt lat="47.00154" lon="-1.85419">
        <ele>51</ele>
        <time>2021-09-18T10:39:44.000Z</time>
      </trkpt>
      <trkpt lat="47.00146" lon="-1.8543">
        <ele>52</ele>
        <time>2021-09-18T10:39:46.000Z</time>
      </trkpt>
      <trkpt lat="47.00136" lon="-1.85439">
        <ele>52</ele>
        <time>2021-09-18T10:39:48.000Z</time>
      </trkpt>
      <trkpt lat="47.00126" lon="-1.85448">
        <ele>52</ele>
        <time>2021-09-18T10:39:50.000Z</time>
      </trkpt>
      <trkpt lat="47.00109" lon="-1.85451">
        <ele>52</ele>
        <time>2021-09-18T10:39:53.000Z</time>
      </trkpt>
      <trkpt lat="47.00098" lon="-1.85445">
        <ele>52</ele>
        <time>2021-09-18T10:39:55.000Z</time>
      </trkpt>
      <trkpt lat="47.00083" lon="-1.85428">
        <ele>52</ele>
        <time>2021-09-18T10:39:58.000Z</time>
      </trkpt>
      <trkpt lat="47.00075" lon="-1.85416">
        <ele>52</ele>
        <time>2021-09-18T10:40:00.000Z</time>
      </trkpt>
      <trkpt lat="47.00066" lon="-1.85404">
        <ele>52</ele>
        <time>2021-09-18T10:40:02.000Z</time>
      </trkpt>
      <trkpt lat="47.00057" lon="-1.85393">
        <ele>52</ele>
        <time>2021-09-18T10:40:04.000Z</time>
      </trkpt>
      <trkpt lat="47.00047" lon="-1.85382">
        <ele>52</ele>
        <time>2021-09-18T10:40:06.000Z</time>
      </trkpt>
      <trkpt lat="47.00036" lon="-1.85373">
        <ele>52</ele>
        <time>2021-09-18T10:40:08.000Z</time>
      </trkpt>
      <trkpt lat="47.00025" lon="-1.85368">
        <ele>52</ele>
        <time>2021-09-18T10:40:10.000Z</time>
      </trkpt>
      <trkpt lat="47.00013" lon="-1.85367">
        <ele>52</ele>
        <time>2021-09-18T10:40:12.000Z</time>
      </trkpt>
      <trkpt lat="47.00001" lon="-1.85366">
        <ele>51</ele>
        <time>2021-09-18T10:40:14.000Z</time>
      </trkpt>
      <trkpt lat="46.9999" lon="-1.85362">
        <ele>51</ele>
        <time>2021-09-18T10:40:16.000Z</time>
      </trkpt>
      <trkpt lat="46.99981" lon="-1.85351">
        <ele>51</ele>
        <time>2021-09-18T10:40:18.000Z</time>
      </trkpt>
      <trkpt lat="46.99974" lon="-1.85337">
        <ele>52</ele>
        <time>2021-09-18T10:40:20.000Z</time>
      </trkpt>
      <trkpt lat="46.99968" lon="-1.85322">
        <ele>52</ele>
        <time>2021-09-18T10:40:22.000Z</time>
      </trkpt>
      <trkpt lat="46.9996" lon="-1.85308">
        <ele>52</ele>
        <time>2021-09-18T10:40:24.000Z</time>
      </trkpt>
      <trkpt lat="46.99952" lon="-1.85294">
        <ele>52</ele>
        <time>2021-09-18T10:40:26.000Z</time>
      </trkpt>
      <trkpt lat="46.99944" lon="-1.8528">
        <ele>52</ele>
        <time>2021-09-18T10:40:28.000Z</time>
      </trkpt>
      <trkpt lat="46.99936" lon="-1.85264">
        <ele>52</ele>
        <time>2021-09-18T10:40:30.000Z</time>
      </trkpt>
      <trkpt lat="46.99929" lon="-1.85249">
        <ele>52</ele>
        <time>2021-09-18T10:40:32.000Z</time>
      </trkpt>
      <trkpt lat="46.99923" lon="-1.85232">
        <ele>53</ele>
        <time>2021-09-18T10:40:34.000Z</time>
      </trkpt>
      <trkpt lat="46.99919" lon="-1.85214">
        <ele>53</ele>
        <time>2021-09-18T10:40:36.000Z</time>
      </trkpt>
      <trkpt lat="46.99916" lon="-1.85195">
        <ele>53</ele>
        <time>2021-09-18T10:40:38.000Z</time>
      </trkpt>
      <trkpt lat="46.99913" lon="-1.85177">
        <ele>53</ele>
        <time>2021-09-18T10:40:40.000Z</time>
      </trkpt>
      <trkpt lat="46.99911" lon="-1.8516">
        <ele>53</ele>
        <time>2021-09-18T10:40:42.000Z</time>
      </trkpt>
      <trkpt lat="46.99908" lon="-1.85142">
        <ele>53</ele>
        <time>2021-09-18T10:40:44.000Z</time>
      </trkpt>
      <trkpt lat="46.99906" lon="-1.85124">
        <ele>53</ele>
        <time>2021-09-18T10:40:46.000Z</time>
      </trkpt>
      <trkpt lat="46.99904" lon="-1.85105">
        <ele>53</ele>
        <time>2021-09-18T10:40:48.000Z</time>
      </trkpt>
      <trkpt lat="46.99902" lon="-1.85087">
        <ele>53</ele>
        <time>2021-09-18T10:40:50.000Z</time>
      </trkpt>
      <trkpt lat="46.999" lon="-1.85068">
        <ele>53</ele>
        <time>2021-09-18T10:40:52.000Z</time>
      </trkpt>
      <trkpt lat="46.99899" lon="-1.85049">
        <ele>53</ele>
        <time>2021-09-18T10:40:54.000Z</time>
      </trkpt>
      <trkpt lat="46.99898" lon="-1.8503">
        <ele>53</ele>
        <time>2021-09-18T10:40:56.000Z</time>
      </trkpt>
      <trkpt lat="46.99897" lon="-1.85012">
        <ele>53</ele>
        <time>2021-09-18T10:40:58.000Z</time>
      </trkpt>
      <trkpt lat="46.99897" lon="-1.84993">
        <ele>53</ele>
        <time>2021-09-18T10:41:00.000Z</time>
      </trkpt>
      <trkpt lat="46.99896" lon="-1.84974">
        <ele>53</ele>
        <time>2021-09-18T10:41:02.000Z</time>
      </trkpt>
      <trkpt lat="46.99895" lon="-1.84956">
        <ele>54</ele>
        <time>2021-09-18T10:41:04.000Z</time>
      </trkpt>
      <trkpt lat="46.99894" lon="-1.84937">
        <ele>54</ele>
        <time>2021-09-18T10:41:06.000Z</time>
      </trkpt>
      <trkpt lat="46.99893" lon="-1.84919">
        <ele>54</ele>
        <time>2021-09-18T10:41:08.000Z</time>
      </trkpt>
      <trkpt lat="46.99892" lon="-1.84901">
        <ele>54</ele>
        <time>2021-09-18T10:41:10.000Z</time>
      </trkpt>
      <trkpt lat="46.99891" lon="-1.84883">
        <ele>54</ele>
        <time>2021-09-18T10:41:12.000Z</time>
      </trkpt>
      <trkpt lat="46.99889" lon="-1.84864">
        <ele>54</ele>
        <time>2021-09-18T10:41:14.000Z</time>
      </trkpt>
      <trkpt lat="46.99886" lon="-1.84846">
        <ele>55</ele>
        <time>2021-09-18T10:41:16.000Z</time>
      </trkpt>
      <trkpt lat="46.99883" lon="-1.84828">
        <ele>54</ele>
        <time>2021-09-18T10:41:18.000Z</time>
      </trkpt>
      <trkpt lat="46.99879" lon="-1.84811">
        <ele>54</ele>
        <time>2021-09-18T10:41:20.000Z</time>
      </trkpt>
      <trkpt lat="46.99874" lon="-1.84793">
        <ele>54</ele>
        <time>2021-09-18T10:41:22.000Z</time>
      </trkpt>
      <trkpt lat="46.99869" lon="-1.84777">
        <ele>54</ele>
        <time>2021-09-18T10:41:24.000Z</time>
      </trkpt>
      <trkpt lat="46.99863" lon="-1.84761">
        <ele>54</ele>
        <time>2021-09-18T10:41:26.000Z</time>
      </trkpt>
      <trkpt lat="46.99857" lon="-1.84746">
        <ele>54</ele>
        <time>2021-09-18T10:41:28.000Z</time>
      </trkpt>
      <trkpt lat="46.99851" lon="-1.8473">
        <ele>54</ele>
        <time>2021-09-18T10:41:30.000Z</time>
      </trkpt>
      <trkpt lat="46.99845" lon="-1.84714">
        <ele>54</ele>
        <time>2021-09-18T10:41:32.000Z</time>
      </trkpt>
      <trkpt lat="46.99839" lon="-1.84698">
        <ele>54</ele>
        <time>2021-09-18T10:41:34.000Z</time>
      </trkpt>
      <trkpt lat="46.99833" lon="-1.84682">
        <ele>54</ele>
        <time>2021-09-18T10:41:36.000Z</time>
      </trkpt>
      <trkpt lat="46.99827" lon="-1.84666">
        <ele>54</ele>
        <time>2021-09-18T10:41:38.000Z</time>
      </trkpt>
      <trkpt lat="46.99821" lon="-1.84649">
        <ele>54</ele>
        <time>2021-09-18T10:41:40.000Z</time>
      </trkpt>
      <trkpt lat="46.99816" lon="-1.84632">
        <ele>54</ele>
        <time>2021-09-18T10:41:42.000Z</time>
      </trkpt>
      <trkpt lat="46.99811" lon="-1.84615">
        <ele>54</ele>
        <time>2021-09-18T10:41:44.000Z</time>
      </trkpt>
      <trkpt lat="46.99806" lon="-1.84598">
        <ele>54</ele>
        <time>2021-09-18T10:41:46.000Z</time>
      </trkpt>
      <trkpt lat="46.99803" lon="-1.8458">
        <ele>55</ele>
        <time>2021-09-18T10:41:48.000Z</time>
      </trkpt>
      <trkpt lat="46.99799" lon="-1.84562">
        <ele>55</ele>
        <time>2021-09-18T10:41:50.000Z</time>
      </trkpt>
      <trkpt lat="46.99796" lon="-1.84544">
        <ele>54</ele>
        <time>2021-09-18T10:41:52.000Z</time>
      </trkpt>
      <trkpt lat="46.99792" lon="-1.84525">
        <ele>54</ele>
        <time>2021-09-18T10:41:54.000Z</time>
      </trkpt>
      <trkpt lat="46.99789" lon="-1.84506">
        <ele>54</ele>
        <time>2021-09-18T10:41:56.000Z</time>
      </trkpt>
      <trkpt lat="46.99786" lon="-1.84488">
        <ele>54</ele>
        <time>2021-09-18T10:41:58.000Z</time>
      </trkpt>
      <trkpt lat="46.99782" lon="-1.84469">
        <ele>54</ele>
        <time>2021-09-18T10:42:00.000Z</time>
      </trkpt>
      <trkpt lat="46.99779" lon="-1.8445">
        <ele>54</ele>
        <time>2021-09-18T10:42:02.000Z</time>
      </trkpt>
      <trkpt lat="46.99775" lon="-1.8443">
        <ele>54</ele>
        <time>2021-09-18T10:42:04.000Z</time>
      </trkpt>
      <trkpt lat="46.99771" lon="-1.8441">
        <ele>54</ele>
        <time>2021-09-18T10:42:06.000Z</time>
      </trkpt>
      <trkpt lat="46.99768" lon="-1.84391">
        <ele>54</ele>
        <time>2021-09-18T10:42:08.000Z</time>
      </trkpt>
      <trkpt lat="46.99764" lon="-1.8437">
        <ele>54</ele>
        <time>2021-09-18T10:42:10.000Z</time>
      </trkpt>
      <trkpt lat="46.99761" lon="-1.8435">
        <ele>55</ele>
        <time>2021-09-18T10:42:12.000Z</time>
      </trkpt>
      <trkpt lat="46.99758" lon="-1.84331">
        <ele>55</ele>
        <time>2021-09-18T10:42:14.000Z</time>
      </trkpt>
      <trkpt lat="46.99755" lon="-1.8431">
        <ele>54</ele>
        <time>2021-09-18T10:42:16.000Z</time>
      </trkpt>
      <trkpt lat="46.99753" lon="-1.8429">
        <ele>54</ele>
        <time>2021-09-18T10:42:18.000Z</time>
      </trkpt>
      <trkpt lat="46.99751" lon="-1.84271">
        <ele>54</ele>
        <time>2021-09-18T10:42:20.000Z</time>
      </trkpt>
      <trkpt lat="46.99749" lon="-1.84252">
        <ele>54</ele>
        <time>2021-09-18T10:42:22.000Z</time>
      </trkpt>
      <trkpt lat="46.99747" lon="-1.84232">
        <ele>54</ele>
        <time>2021-09-18T10:42:24.000Z</time>
      </trkpt>
      <trkpt lat="46.99744" lon="-1.84213">
        <ele>54</ele>
        <time>2021-09-18T10:42:26.000Z</time>
      </trkpt>
      <trkpt lat="46.99738" lon="-1.84196">
        <ele>54</ele>
        <time>2021-09-18T10:42:28.000Z</time>
      </trkpt>
      <trkpt lat="46.99728" lon="-1.84183">
        <ele>54</ele>
        <time>2021-09-18T10:42:30.000Z</time>
      </trkpt>
      <trkpt lat="46.99717" lon="-1.84176">
        <ele>54</ele>
        <time>2021-09-18T10:42:32.000Z</time>
      </trkpt>
      <trkpt lat="46.99705" lon="-1.8417">
        <ele>54</ele>
        <time>2021-09-18T10:42:34.000Z</time>
      </trkpt>
      <trkpt lat="46.99693" lon="-1.84163">
        <ele>54</ele>
        <time>2021-09-18T10:42:36.000Z</time>
      </trkpt>
      <trkpt lat="46.99681" lon="-1.84155">
        <ele>53</ele>
        <time>2021-09-18T10:42:38.000Z</time>
      </trkpt>
      <trkpt lat="46.9967" lon="-1.84143">
        <ele>53</ele>
        <time>2021-09-18T10:42:40.000Z</time>
      </trkpt>
      <trkpt lat="46.9966" lon="-1.8413">
        <ele>53</ele>
        <time>2021-09-18T10:42:42.000Z</time>
      </trkpt>
      <trkpt lat="46.99651" lon="-1.84117">
        <ele>54</ele>
        <time>2021-09-18T10:42:44.000Z</time>
      </trkpt>
      <trkpt lat="46.99643" lon="-1.84102">
        <ele>54</ele>
        <time>2021-09-18T10:42:46.000Z</time>
      </trkpt>
      <trkpt lat="46.99636" lon="-1.84088">
        <ele>54</ele>
        <time>2021-09-18T10:42:48.000Z</time>
      </trkpt>
      <trkpt lat="46.99629" lon="-1.84072">
        <ele>54</ele>
        <time>2021-09-18T10:42:50.000Z</time>
      </trkpt>
      <trkpt lat="46.99624" lon="-1.84054">
        <ele>54</ele>
        <time>2021-09-18T10:42:52.000Z</time>
      </trkpt>
      <trkpt lat="46.9962" lon="-1.84036">
        <ele>54</ele>
        <time>2021-09-18T10:42:54.000Z</time>
      </trkpt>
      <trkpt lat="46.99616" lon="-1.84017">
        <ele>54</ele>
        <time>2021-09-18T10:42:56.000Z</time>
      </trkpt>
      <trkpt lat="46.99613" lon="-1.83999">
        <ele>54</ele>
        <time>2021-09-18T10:42:58.000Z</time>
      </trkpt>
      <trkpt lat="46.99609" lon="-1.8398">
        <ele>54</ele>
        <time>2021-09-18T10:43:00.000Z</time>
      </trkpt>
      <trkpt lat="46.99605" lon="-1.83962">
        <ele>53</ele>
        <time>2021-09-18T10:43:02.000Z</time>
      </trkpt>
      <trkpt lat="46.996" lon="-1.83946">
        <ele>53</ele>
        <time>2021-09-18T10:43:04.000Z</time>
      </trkpt>
      <trkpt lat="46.99591" lon="-1.83931">
        <ele>53</ele>
        <time>2021-09-18T10:43:06.000Z</time>
      </trkpt>
      <trkpt lat="46.9958" lon="-1.8392">
        <ele>53</ele>
        <time>2021-09-18T10:43:08.000Z</time>
      </trkpt>
      <trkpt lat="46.99569" lon="-1.83913">
        <ele>53</ele>
        <time>2021-09-18T10:43:10.000Z</time>
      </trkpt>
      <trkpt lat="46.99557" lon="-1.83907">
        <ele>53</ele>
        <time>2021-09-18T10:43:12.000Z</time>
      </trkpt>
      <trkpt lat="46.99546" lon="-1.839">
        <ele>53</ele>
        <time>2021-09-18T10:43:14.000Z</time>
      </trkpt>
      <trkpt lat="46.99534" lon="-1.83893">
        <ele>53</ele>
        <time>2021-09-18T10:43:16.000Z</time>
      </trkpt>
      <trkpt lat="46.99523" lon="-1.83887">
        <ele>53</ele>
        <time>2021-09-18T10:43:18.000Z</time>
      </trkpt>
      <trkpt lat="46.99513" lon="-1.83881">
        <ele>53</ele>
        <time>2021-09-18T10:43:20.000Z</time>
      </trkpt>
      <trkpt lat="46.99502" lon="-1.83874">
        <ele>53</ele>
        <time>2021-09-18T10:43:22.000Z</time>
      </trkpt>
      <trkpt lat="46.99492" lon="-1.83866">
        <ele>53</ele>
        <time>2021-09-18T10:43:24.000Z</time>
      </trkpt>
      <trkpt lat="46.99482" lon="-1.83855">
        <ele>53</ele>
        <time>2021-09-18T10:43:26.000Z</time>
      </trkpt>
      <trkpt lat="46.99475" lon="-1.83842">
        <ele>54</ele>
        <time>2021-09-18T10:43:28.000Z</time>
      </trkpt>
      <trkpt lat="46.99468" lon="-1.83827">
        <ele>54</ele>
        <time>2021-09-18T10:43:30.000Z</time>
      </trkpt>
      <trkpt lat="46.99461" lon="-1.83812">
        <ele>54</ele>
        <time>2021-09-18T10:43:32.000Z</time>
      </trkpt>
      <trkpt lat="46.99454" lon="-1.83798">
        <ele>54</ele>
        <time>2021-09-18T10:43:34.000Z</time>
      </trkpt>
      <trkpt lat="46.99446" lon="-1.83784">
        <ele>55</ele>
        <time>2021-09-18T10:43:36.000Z</time>
      </trkpt>
      <trkpt lat="46.99436" lon="-1.83773">
        <ele>55</ele>
        <time>2021-09-18T10:43:38.000Z</time>
      </trkpt>
      <trkpt lat="46.99426" lon="-1.83766">
        <ele>55</ele>
        <time>2021-09-18T10:43:40.000Z</time>
      </trkpt>
      <trkpt lat="46.99415" lon="-1.8376">
        <ele>54</ele>
        <time>2021-09-18T10:43:42.000Z</time>
      </trkpt>
      <trkpt lat="46.99405" lon="-1.83753">
        <ele>54</ele>
        <time>2021-09-18T10:43:44.000Z</time>
      </trkpt>
      <trkpt lat="46.99395" lon="-1.83746">
        <ele>54</ele>
        <time>2021-09-18T10:43:46.000Z</time>
      </trkpt>
      <trkpt lat="46.99384" lon="-1.8374">
        <ele>54</ele>
        <time>2021-09-18T10:43:48.000Z</time>
      </trkpt>
      <trkpt lat="46.99372" lon="-1.83734">
        <ele>54</ele>
        <time>2021-09-18T10:43:50.000Z</time>
      </trkpt>
      <trkpt lat="46.99361" lon="-1.83727">
        <ele>54</ele>
        <time>2021-09-18T10:43:52.000Z</time>
      </trkpt>
      <trkpt lat="46.9935" lon="-1.83721">
        <ele>54</ele>
        <time>2021-09-18T10:43:54.000Z</time>
      </trkpt>
      <trkpt lat="46.99339" lon="-1.83714">
        <ele>54</ele>
        <time>2021-09-18T10:43:56.000Z</time>
      </trkpt>
      <trkpt lat="46.99328" lon="-1.83707">
        <ele>54</ele>
        <time>2021-09-18T10:43:58.000Z</time>
      </trkpt>
      <trkpt lat="46.99317" lon="-1.83699">
        <ele>54</ele>
        <time>2021-09-18T10:44:00.000Z</time>
      </trkpt>
      <trkpt lat="46.99306" lon="-1.83691">
        <ele>55</ele>
        <time>2021-09-18T10:44:02.000Z</time>
      </trkpt>
      <trkpt lat="46.99295" lon="-1.83682">
        <ele>55</ele>
        <time>2021-09-18T10:44:04.000Z</time>
      </trkpt>
      <trkpt lat="46.99285" lon="-1.83673">
        <ele>55</ele>
        <time>2021-09-18T10:44:06.000Z</time>
      </trkpt>
      <trkpt lat="46.99276" lon="-1.83662">
        <ele>55</ele>
        <time>2021-09-18T10:44:08.000Z</time>
      </trkpt>
      <trkpt lat="46.99267" lon="-1.83652">
        <ele>55</ele>
        <time>2021-09-18T10:44:10.000Z</time>
      </trkpt>
      <trkpt lat="46.99258" lon="-1.83641">
        <ele>55</ele>
        <time>2021-09-18T10:44:12.000Z</time>
      </trkpt>
      <trkpt lat="46.9925" lon="-1.8363">
        <ele>55</ele>
        <time>2021-09-18T10:44:14.000Z</time>
      </trkpt>
      <trkpt lat="46.9924" lon="-1.83619">
        <ele>55</ele>
        <time>2021-09-18T10:44:16.000Z</time>
      </trkpt>
      <trkpt lat="46.99232" lon="-1.83609">
        <ele>55</ele>
        <time>2021-09-18T10:44:18.000Z</time>
      </trkpt>
      <trkpt lat="46.99223" lon="-1.83598">
        <ele>55</ele>
        <time>2021-09-18T10:44:20.000Z</time>
      </trkpt>
      <trkpt lat="46.99214" lon="-1.83587">
        <ele>55</ele>
        <time>2021-09-18T10:44:22.000Z</time>
      </trkpt>
      <trkpt lat="46.99205" lon="-1.83576">
        <ele>55</ele>
        <time>2021-09-18T10:44:24.000Z</time>
      </trkpt>
      <trkpt lat="46.99196" lon="-1.83564">
        <ele>55</ele>
        <time>2021-09-18T10:44:26.000Z</time>
      </trkpt>
      <trkpt lat="46.99187" lon="-1.83553">
        <ele>55</ele>
        <time>2021-09-18T10:44:28.000Z</time>
      </trkpt>
      <trkpt lat="46.99179" lon="-1.83542">
        <ele>55</ele>
        <time>2021-09-18T10:44:30.000Z</time>
      </trkpt>
      <trkpt lat="46.9917" lon="-1.83532">
        <ele>54</ele>
        <time>2021-09-18T10:44:32.000Z</time>
      </trkpt>
      <trkpt lat="46.99162" lon="-1.83523">
        <ele>54</ele>
        <time>2021-09-18T10:44:34.000Z</time>
      </trkpt>
      <trkpt lat="46.99151" lon="-1.83518">
        <ele>54</ele>
        <time>2021-09-18T10:44:36.000Z</time>
      </trkpt>
      <trkpt lat="46.99145" lon="-1.83505">
        <ele>53</ele>
        <time>2021-09-18T10:44:38.000Z</time>
      </trkpt>
      <trkpt lat="46.99151" lon="-1.83487">
        <ele>53</ele>
        <time>2021-09-18T10:44:40.000Z</time>
      </trkpt>
      <trkpt lat="46.99157" lon="-1.83472">
        <ele>53</ele>
        <time>2021-09-18T10:44:42.000Z</time>
      </trkpt>
      <trkpt lat="46.99161" lon="-1.83453">
        <ele>53</ele>
        <time>2021-09-18T10:44:44.000Z</time>
      </trkpt>
      <trkpt lat="46.99165" lon="-1.83433">
        <ele>53</ele>
        <time>2021-09-18T10:44:46.000Z</time>
      </trkpt>
      <trkpt lat="46.9917" lon="-1.83414">
        <ele>53</ele>
        <time>2021-09-18T10:44:48.000Z</time>
      </trkpt>
      <trkpt lat="46.99174" lon="-1.83394">
        <ele>53</ele>
        <time>2021-09-18T10:44:50.000Z</time>
      </trkpt>
      <trkpt lat="46.99178" lon="-1.83375">
        <ele>53</ele>
        <time>2021-09-18T10:44:52.000Z</time>
      </trkpt>
      <trkpt lat="46.99182" lon="-1.83356">
        <ele>53</ele>
        <time>2021-09-18T10:44:54.000Z</time>
      </trkpt>
      <trkpt lat="46.99186" lon="-1.83337">
        <ele>54</ele>
        <time>2021-09-18T10:44:56.000Z</time>
      </trkpt>
      <trkpt lat="46.9919" lon="-1.83318">
        <ele>54</ele>
        <time>2021-09-18T10:44:58.000Z</time>
      </trkpt>
      <trkpt lat="46.99194" lon="-1.83298">
        <ele>54</ele>
        <time>2021-09-18T10:45:00.000Z</time>
      </trkpt>
      <trkpt lat="46.99199" lon="-1.83279">
        <ele>54</ele>
        <time>2021-09-18T10:45:02.000Z</time>
      </trkpt>
      <trkpt lat="46.99203" lon="-1.83261">
        <ele>54</ele>
        <time>2021-09-18T10:45:04.000Z</time>
      </trkpt>
      <trkpt lat="46.99207" lon="-1.83241">
        <ele>54</ele>
        <time>2021-09-18T10:45:06.000Z</time>
      </trkpt>
      <trkpt lat="46.99211" lon="-1.83222">
        <ele>54</ele>
        <time>2021-09-18T10:45:08.000Z</time>
      </trkpt>
      <trkpt lat="46.99215" lon="-1.83204">
        <ele>54</ele>
        <time>2021-09-18T10:45:10.000Z</time>
      </trkpt>
      <trkpt lat="46.99219" lon="-1.83184">
        <ele>54</ele>
        <time>2021-09-18T10:45:12.000Z</time>
      </trkpt>
      <trkpt lat="46.99224" lon="-1.83165">
        <ele>53</ele>
        <time>2021-09-18T10:45:14.000Z</time>
      </trkpt>
      <trkpt lat="46.99229" lon="-1.83146">
        <ele>53</ele>
        <time>2021-09-18T10:45:16.000Z</time>
      </trkpt>
      <trkpt lat="46.99233" lon="-1.83127">
        <ele>53</ele>
        <time>2021-09-18T10:45:18.000Z</time>
      </trkpt>
      <trkpt lat="46.99237" lon="-1.83108">
        <ele>53</ele>
        <time>2021-09-18T10:45:20.000Z</time>
      </trkpt>
      <trkpt lat="46.99242" lon="-1.83089">
        <ele>53</ele>
        <time>2021-09-18T10:45:22.000Z</time>
      </trkpt>
      <trkpt lat="46.99246" lon="-1.8307">
        <ele>53</ele>
        <time>2021-09-18T10:45:24.000Z</time>
      </trkpt>
      <trkpt lat="46.9925" lon="-1.83051">
        <ele>53</ele>
        <time>2021-09-18T10:45:26.000Z</time>
      </trkpt>
      <trkpt lat="46.99254" lon="-1.83032">
        <ele>53</ele>
        <time>2021-09-18T10:45:28.000Z</time>
      </trkpt>
      <trkpt lat="46.99258" lon="-1.83013">
        <ele>53</ele>
        <time>2021-09-18T10:45:30.000Z</time>
      </trkpt>
      <trkpt lat="46.99263" lon="-1.82995">
        <ele>54</ele>
        <time>2021-09-18T10:45:32.000Z</time>
      </trkpt>
      <trkpt lat="46.99266" lon="-1.82976">
        <ele>54</ele>
        <time>2021-09-18T10:45:34.000Z</time>
      </trkpt>
      <trkpt lat="46.9927" lon="-1.82957">
        <ele>54</ele>
        <time>2021-09-18T10:45:36.000Z</time>
      </trkpt>
      <trkpt lat="46.99274" lon="-1.82939">
        <ele>54</ele>
        <time>2021-09-18T10:45:38.000Z</time>
      </trkpt>
      <trkpt lat="46.99278" lon="-1.82921">
        <ele>54</ele>
        <time>2021-09-18T10:45:40.000Z</time>
      </trkpt>
      <trkpt lat="46.99282" lon="-1.82901">
        <ele>55</ele>
        <time>2021-09-18T10:45:42.000Z</time>
      </trkpt>
      <trkpt lat="46.99286" lon="-1.82883">
        <ele>55</ele>
        <time>2021-09-18T10:45:44.000Z</time>
      </trkpt>
      <trkpt lat="46.99291" lon="-1.82863">
        <ele>55</ele>
        <time>2021-09-18T10:45:46.000Z</time>
      </trkpt>
      <trkpt lat="46.99295" lon="-1.82844">
        <ele>55</ele>
        <time>2021-09-18T10:45:48.000Z</time>
      </trkpt>
      <trkpt lat="46.993" lon="-1.82825">
        <ele>54</ele>
        <time>2021-09-18T10:45:50.000Z</time>
      </trkpt>
      <trkpt lat="46.99304" lon="-1.82807">
        <ele>54</ele>
        <time>2021-09-18T10:45:52.000Z</time>
      </trkpt>
      <trkpt lat="46.99308" lon="-1.82788">
        <ele>54</ele>
        <time>2021-09-18T10:45:54.000Z</time>
      </trkpt>
      <trkpt lat="46.99313" lon="-1.82769">
        <ele>54</ele>
        <time>2021-09-18T10:45:56.000Z</time>
      </trkpt>
      <trkpt lat="46.99317" lon="-1.8275">
        <ele>54</ele>
        <time>2021-09-18T10:45:58.000Z</time>
      </trkpt>
      <trkpt lat="46.9932" lon="-1.82731">
        <ele>54</ele>
        <time>2021-09-18T10:46:00.000Z</time>
      </trkpt>
      <trkpt lat="46.99324" lon="-1.8271">
        <ele>54</ele>
        <time>2021-09-18T10:46:02.000Z</time>
      </trkpt>
      <trkpt lat="46.99329" lon="-1.82691">
        <ele>55</ele>
        <time>2021-09-18T10:46:04.000Z</time>
      </trkpt>
      <trkpt lat="46.99333" lon="-1.82672">
        <ele>54</ele>
        <time>2021-09-18T10:46:06.000Z</time>
      </trkpt>
      <trkpt lat="46.99338" lon="-1.82653">
        <ele>54</ele>
        <time>2021-09-18T10:46:08.000Z</time>
      </trkpt>
      <trkpt lat="46.99342" lon="-1.82635">
        <ele>54</ele>
        <time>2021-09-18T10:46:10.000Z</time>
      </trkpt>
      <trkpt lat="46.99347" lon="-1.82617">
        <ele>54</ele>
        <time>2021-09-18T10:46:12.000Z</time>
      </trkpt>
      <trkpt lat="46.99355" lon="-1.82602">
        <ele>55</ele>
        <time>2021-09-18T10:46:14.000Z</time>
      </trkpt>
      <trkpt lat="46.99361" lon="-1.82586">
        <ele>55</ele>
        <time>2021-09-18T10:46:16.000Z</time>
      </trkpt>
      <trkpt lat="46.99365" lon="-1.82567">
        <ele>54</ele>
        <time>2021-09-18T10:46:18.000Z</time>
      </trkpt>
      <trkpt lat="46.99364" lon="-1.82547">
        <ele>54</ele>
        <time>2021-09-18T10:46:20.000Z</time>
      </trkpt>
      <trkpt lat="46.99358" lon="-1.82529">
        <ele>55</ele>
        <time>2021-09-18T10:46:22.000Z</time>
      </trkpt>
      <trkpt lat="46.99355" lon="-1.82512">
        <ele>55</ele>
        <time>2021-09-18T10:46:24.000Z</time>
      </trkpt>
      <trkpt lat="46.99351" lon="-1.82497">
        <ele>54</ele>
        <time>2021-09-18T10:46:26.000Z</time>
      </trkpt>
      <trkpt lat="46.99346" lon="-1.82481">
        <ele>54</ele>
        <time>2021-09-18T10:46:28.000Z</time>
      </trkpt>
      <trkpt lat="46.99342" lon="-1.82463">
        <ele>54</ele>
        <time>2021-09-18T10:46:30.000Z</time>
      </trkpt>
      <trkpt lat="46.99338" lon="-1.82444">
        <ele>54</ele>
        <time>2021-09-18T10:46:32.000Z</time>
      </trkpt>
      <trkpt lat="46.99333" lon="-1.82426">
        <ele>54</ele>
        <time>2021-09-18T10:46:34.000Z</time>
      </trkpt>
      <trkpt lat="46.99329" lon="-1.82408">
        <ele>54</ele>
        <time>2021-09-18T10:46:36.000Z</time>
      </trkpt>
      <trkpt lat="46.99327" lon="-1.8239">
        <ele>54</ele>
        <time>2021-09-18T10:46:38.000Z</time>
      </trkpt>
      <trkpt lat="46.99325" lon="-1.82371">
        <ele>54</ele>
        <time>2021-09-18T10:46:40.000Z</time>
      </trkpt>
      <trkpt lat="46.99323" lon="-1.82352">
        <ele>55</ele>
        <time>2021-09-18T10:46:42.000Z</time>
      </trkpt>
      <trkpt lat="46.99321" lon="-1.82333">
        <ele>55</ele>
        <time>2021-09-18T10:46:44.000Z</time>
      </trkpt>
      <trkpt lat="46.99317" lon="-1.82314">
        <ele>56</ele>
        <time>2021-09-18T10:46:46.000Z</time>
      </trkpt>
      <trkpt lat="46.99313" lon="-1.82296">
        <ele>56</ele>
        <time>2021-09-18T10:46:48.000Z</time>
      </trkpt>
      <trkpt lat="46.99308" lon="-1.82278">
        <ele>54</ele>
        <time>2021-09-18T10:46:50.000Z</time>
      </trkpt>
      <trkpt lat="46.99303" lon="-1.8226">
        <ele>54</ele>
        <time>2021-09-18T10:46:52.000Z</time>
      </trkpt>
      <trkpt lat="46.99298" lon="-1.82243">
        <ele>54</ele>
        <time>2021-09-18T10:46:54.000Z</time>
      </trkpt>
      <trkpt lat="46.99293" lon="-1.82226">
        <ele>53</ele>
        <time>2021-09-18T10:46:56.000Z</time>
      </trkpt>
      <trkpt lat="46.99286" lon="-1.82214">
        <ele>53</ele>
        <time>2021-09-18T10:46:58.000Z</time>
      </trkpt>
      <trkpt lat="46.99273" lon="-1.82217">
        <ele>53</ele>
        <time>2021-09-18T10:47:00.000Z</time>
      </trkpt>
      <trkpt lat="46.99259" lon="-1.82219">
        <ele>54</ele>
        <time>2021-09-18T10:47:02.000Z</time>
      </trkpt>
      <trkpt lat="46.99246" lon="-1.82221">
        <ele>54</ele>
        <time>2021-09-18T10:47:04.000Z</time>
      </trkpt>
      <trkpt lat="46.99234" lon="-1.82221">
        <ele>54</ele>
        <time>2021-09-18T10:47:06.000Z</time>
      </trkpt>
      <trkpt lat="46.99221" lon="-1.82216">
        <ele>53</ele>
        <time>2021-09-18T10:47:08.000Z</time>
      </trkpt>
      <trkpt lat="46.9921" lon="-1.82211">
        <ele>53</ele>
        <time>2021-09-18T10:47:10.000Z</time>
      </trkpt>
      <trkpt lat="46.99198" lon="-1.82206">
        <ele>53</ele>
        <time>2021-09-18T10:47:12.000Z</time>
      </trkpt>
      <trkpt lat="46.99186" lon="-1.82201">
        <ele>52</ele>
        <time>2021-09-18T10:47:14.000Z</time>
      </trkpt>
      <trkpt lat="46.99174" lon="-1.82196">
        <ele>52</ele>
        <time>2021-09-18T10:47:16.000Z</time>
      </trkpt>
      <trkpt lat="46.99161" lon="-1.82191">
        <ele>52</ele>
        <time>2021-09-18T10:47:18.000Z</time>
      </trkpt>
      <trkpt lat="46.99149" lon="-1.82187">
        <ele>53</ele>
        <time>2021-09-18T10:47:20.000Z</time>
      </trkpt>
      <trkpt lat="46.99137" lon="-1.82185">
        <ele>53</ele>
        <time>2021-09-18T10:47:22.000Z</time>
      </trkpt>
      <trkpt lat="46.99125" lon="-1.82186">
        <ele>52</ele>
        <time>2021-09-18T10:47:24.000Z</time>
      </trkpt>
      <trkpt lat="46.99113" lon="-1.82187">
        <ele>52</ele>
        <time>2021-09-18T10:47:26.000Z</time>
      </trkpt>
      <trkpt lat="46.99101" lon="-1.82188">
        <ele>52</ele>
        <time>2021-09-18T10:47:28.000Z</time>
      </trkpt>
      <trkpt lat="46.99091" lon="-1.8218">
        <ele>52</ele>
        <time>2021-09-18T10:47:30.000Z</time>
      </trkpt>
      <trkpt lat="46.99091" lon="-1.82162">
        <ele>52</ele>
        <time>2021-09-18T10:47:32.000Z</time>
      </trkpt>
      <trkpt lat="46.9909" lon="-1.82142">
        <ele>53</ele>
        <time>2021-09-18T10:47:34.000Z</time>
      </trkpt>
      <trkpt lat="46.99087" lon="-1.82124">
        <ele>53</ele>
        <time>2021-09-18T10:47:36.000Z</time>
      </trkpt>
      <trkpt lat="46.99084" lon="-1.82105">
        <ele>54</ele>
        <time>2021-09-18T10:47:38.000Z</time>
      </trkpt>
      <trkpt lat="46.99082" lon="-1.82086">
        <ele>54</ele>
        <time>2021-09-18T10:47:40.000Z</time>
      </trkpt>
      <trkpt lat="46.99082" lon="-1.82067">
        <ele>55</ele>
        <time>2021-09-18T10:47:42.000Z</time>
      </trkpt>
      <trkpt lat="46.99083" lon="-1.82048">
        <ele>55</ele>
        <time>2021-09-18T10:47:44.000Z</time>
      </trkpt>
      <trkpt lat="46.99084" lon="-1.82028">
        <ele>55</ele>
        <time>2021-09-18T10:47:46.000Z</time>
      </trkpt>
      <trkpt lat="46.99085" lon="-1.82008">
        <ele>55</ele>
        <time>2021-09-18T10:47:48.000Z</time>
      </trkpt>
      <trkpt lat="46.99086" lon="-1.81989">
        <ele>55</ele>
        <time>2021-09-18T10:47:50.000Z</time>
      </trkpt>
      <trkpt lat="46.99087" lon="-1.8197">
        <ele>55</ele>
        <time>2021-09-18T10:47:52.000Z</time>
      </trkpt>
      <trkpt lat="46.99088" lon="-1.8195">
        <ele>55</ele>
        <time>2021-09-18T10:47:54.000Z</time>
      </trkpt>
      <trkpt lat="46.9909" lon="-1.81931">
        <ele>55</ele>
        <time>2021-09-18T10:47:56.000Z</time>
      </trkpt>
      <trkpt lat="46.99092" lon="-1.81912">
        <ele>54</ele>
        <time>2021-09-18T10:47:58.000Z</time>
      </trkpt>
      <trkpt lat="46.99094" lon="-1.81892">
        <ele>54</ele>
        <time>2021-09-18T10:48:00.000Z</time>
      </trkpt>
      <trkpt lat="46.99097" lon="-1.81873">
        <ele>54</ele>
        <time>2021-09-18T10:48:02.000Z</time>
      </trkpt>
      <trkpt lat="46.99102" lon="-1.81854">
        <ele>54</ele>
        <time>2021-09-18T10:48:04.000Z</time>
      </trkpt>
      <trkpt lat="46.99107" lon="-1.81836">
        <ele>54</ele>
        <time>2021-09-18T10:48:06.000Z</time>
      </trkpt>
      <trkpt lat="46.99113" lon="-1.81818">
        <ele>54</ele>
        <time>2021-09-18T10:48:08.000Z</time>
      </trkpt>
      <trkpt lat="46.99123" lon="-1.81805">
        <ele>54</ele>
        <time>2021-09-18T10:48:10.000Z</time>
      </trkpt>
      <trkpt lat="46.99132" lon="-1.81791">
        <ele>54</ele>
        <time>2021-09-18T10:48:12.000Z</time>
      </trkpt>
      <trkpt lat="46.99142" lon="-1.81777">
        <ele>54</ele>
        <time>2021-09-18T10:48:14.000Z</time>
      </trkpt>
      <trkpt lat="46.99152" lon="-1.81765">
        <ele>54</ele>
        <time>2021-09-18T10:48:16.000Z</time>
      </trkpt>
      <trkpt lat="46.99161" lon="-1.81753">
        <ele>55</ele>
        <time>2021-09-18T10:48:18.000Z</time>
      </trkpt>
      <trkpt lat="46.99171" lon="-1.81741">
        <ele>54</ele>
        <time>2021-09-18T10:48:20.000Z</time>
      </trkpt>
      <trkpt lat="46.99182" lon="-1.8173">
        <ele>54</ele>
        <time>2021-09-18T10:48:22.000Z</time>
      </trkpt>
      <trkpt lat="46.9919" lon="-1.81715">
        <ele>54</ele>
        <time>2021-09-18T10:48:24.000Z</time>
      </trkpt>
      <trkpt lat="46.99183" lon="-1.817">
        <ele>55</ele>
        <time>2021-09-18T10:48:26.000Z</time>
      </trkpt>
      <trkpt lat="46.99171" lon="-1.8169">
        <ele>55</ele>
        <time>2021-09-18T10:48:28.000Z</time>
      </trkpt>
      <trkpt lat="46.9916" lon="-1.81678">
        <ele>54</ele>
        <time>2021-09-18T10:48:30.000Z</time>
      </trkpt>
      <trkpt lat="46.99149" lon="-1.81666">
        <ele>54</ele>
        <time>2021-09-18T10:48:32.000Z</time>
      </trkpt>
      <trkpt lat="46.99139" lon="-1.81654">
        <ele>53</ele>
        <time>2021-09-18T10:48:34.000Z</time>
      </trkpt>
      <trkpt lat="46.99129" lon="-1.81643">
        <ele>53</ele>
        <time>2021-09-18T10:48:36.000Z</time>
      </trkpt>
      <trkpt lat="46.99119" lon="-1.8163">
        <ele>53</ele>
        <time>2021-09-18T10:48:38.000Z</time>
      </trkpt>
      <trkpt lat="46.9911" lon="-1.81617">
        <ele>53</ele>
        <time>2021-09-18T10:48:40.000Z</time>
      </trkpt>
      <trkpt lat="46.99103" lon="-1.81602">
        <ele>53</ele>
        <time>2021-09-18T10:48:42.000Z</time>
      </trkpt>
      <trkpt lat="46.99109" lon="-1.81588">
        <ele>54</ele>
        <time>2021-09-18T10:48:44.000Z</time>
      </trkpt>
      <trkpt lat="46.99123" lon="-1.81587">
        <ele>54</ele>
        <time>2021-09-18T10:48:46.000Z</time>
      </trkpt>
      <trkpt lat="46.99137" lon="-1.81589">
        <ele>55</ele>
        <time>2021-09-18T10:48:48.000Z</time>
      </trkpt>
      <trkpt lat="46.99151" lon="-1.8159">
        <ele>56</ele>
        <time>2021-09-18T10:48:50.000Z</time>
      </trkpt>
      <trkpt lat="46.99164" lon="-1.81592">
        <ele>57</ele>
        <time>2021-09-18T10:48:52.000Z</time>
      </trkpt>
      <trkpt lat="46.99178" lon="-1.81595">
        <ele>57</ele>
        <time>2021-09-18T10:48:54.000Z</time>
      </trkpt>
      <trkpt lat="46.99193" lon="-1.81596">
        <ele>57</ele>
        <time>2021-09-18T10:48:56.000Z</time>
      </trkpt>
      <trkpt lat="46.99207" lon="-1.81598">
        <ele>57</ele>
        <time>2021-09-18T10:48:58.000Z</time>
      </trkpt>
      <trkpt lat="46.99221" lon="-1.816">
        <ele>57</ele>
        <time>2021-09-18T10:49:00.000Z</time>
      </trkpt>
      <trkpt lat="46.99235" lon="-1.81603">
        <ele>57</ele>
        <time>2021-09-18T10:49:02.000Z</time>
      </trkpt>
      <trkpt lat="46.99247" lon="-1.81599">
        <ele>57</ele>
        <time>2021-09-18T10:49:04.000Z</time>
      </trkpt>
      <trkpt lat="46.99252" lon="-1.8158">
        <ele>58</ele>
        <time>2021-09-18T10:49:06.000Z</time>
      </trkpt>
      <trkpt lat="46.9925" lon="-1.81562">
        <ele>58</ele>
        <time>2021-09-18T10:49:08.000Z</time>
      </trkpt>
      <trkpt lat="46.99248" lon="-1.81544">
        <ele>57</ele>
        <time>2021-09-18T10:49:10.000Z</time>
      </trkpt>
      <trkpt lat="46.99245" lon="-1.81524">
        <ele>56</ele>
        <time>2021-09-18T10:49:12.000Z</time>
      </trkpt>
      <trkpt lat="46.99243" lon="-1.81503">
        <ele>56</ele>
        <time>2021-09-18T10:49:14.000Z</time>
      </trkpt>
      <trkpt lat="46.99241" lon="-1.81481">
        <ele>56</ele>
        <time>2021-09-18T10:49:16.000Z</time>
      </trkpt>
      <trkpt lat="46.99238" lon="-1.81461">
        <ele>56</ele>
        <time>2021-09-18T10:49:18.000Z</time>
      </trkpt>
      <trkpt lat="46.99234" lon="-1.81441">
        <ele>56</ele>
        <time>2021-09-18T10:49:20.000Z</time>
      </trkpt>
      <trkpt lat="46.99232" lon="-1.81422">
        <ele>57</ele>
        <time>2021-09-18T10:49:22.000Z</time>
      </trkpt>
      <trkpt lat="46.99229" lon="-1.81401">
        <ele>57</ele>
        <time>2021-09-18T10:49:24.000Z</time>
      </trkpt>
      <trkpt lat="46.99226" lon="-1.81382">
        <ele>57</ele>
        <time>2021-09-18T10:49:26.000Z</time>
      </trkpt>
      <trkpt lat="46.99224" lon="-1.81362">
        <ele>57</ele>
        <time>2021-09-18T10:49:28.000Z</time>
      </trkpt>
      <trkpt lat="46.99222" lon="-1.81342">
        <ele>57</ele>
        <time>2021-09-18T10:49:30.000Z</time>
      </trkpt>
      <trkpt lat="46.99219" lon="-1.81322">
        <ele>58</ele>
        <time>2021-09-18T10:49:32.000Z</time>
      </trkpt>
      <trkpt lat="46.99216" lon="-1.81302">
        <ele>59</ele>
        <time>2021-09-18T10:49:34.000Z</time>
      </trkpt>
      <trkpt lat="46.99214" lon="-1.81283">
        <ele>59</ele>
        <time>2021-09-18T10:49:36.000Z</time>
      </trkpt>
      <trkpt lat="46.9921" lon="-1.81263">
        <ele>59</ele>
        <time>2021-09-18T10:49:38.000Z</time>
      </trkpt>
      <trkpt lat="46.99207" lon="-1.81243">
        <ele>59</ele>
        <time>2021-09-18T10:49:40.000Z</time>
      </trkpt>
      <trkpt lat="46.99204" lon="-1.81225">
        <ele>59</ele>
        <time>2021-09-18T10:49:42.000Z</time>
      </trkpt>
      <trkpt lat="46.99201" lon="-1.81208">
        <ele>59</ele>
        <time>2021-09-18T10:49:44.000Z</time>
      </trkpt>
      <trkpt lat="46.99199" lon="-1.81187">
        <ele>59</ele>
        <time>2021-09-18T10:49:46.000Z</time>
      </trkpt>
      <trkpt lat="46.99196" lon="-1.81163">
        <ele>59</ele>
        <time>2021-09-18T10:49:48.000Z</time>
      </trkpt>
      <trkpt lat="46.99193" lon="-1.81142">
        <ele>58</ele>
        <time>2021-09-18T10:49:50.000Z</time>
      </trkpt>
      <trkpt lat="46.9919" lon="-1.81121">
        <ele>57</ele>
        <time>2021-09-18T10:49:52.000Z</time>
      </trkpt>
      <trkpt lat="46.99188" lon="-1.81101">
        <ele>55</ele>
        <time>2021-09-18T10:49:54.000Z</time>
      </trkpt>
      <trkpt lat="46.99186" lon="-1.81082">
        <ele>54</ele>
        <time>2021-09-18T10:49:56.000Z</time>
      </trkpt>
      <trkpt lat="46.99184" lon="-1.81062">
        <ele>54</ele>
        <time>2021-09-18T10:49:58.000Z</time>
      </trkpt>
      <trkpt lat="46.99181" lon="-1.81043">
        <ele>53</ele>
        <time>2021-09-18T10:50:00.000Z</time>
      </trkpt>
      <trkpt lat="46.99179" lon="-1.81024">
        <ele>53</ele>
        <time>2021-09-18T10:50:02.000Z</time>
      </trkpt>
      <trkpt lat="46.99176" lon="-1.81005">
        <ele>53</ele>
        <time>2021-09-18T10:50:04.000Z</time>
      </trkpt>
      <trkpt lat="46.99174" lon="-1.80986">
        <ele>52</ele>
        <time>2021-09-18T10:50:06.000Z</time>
      </trkpt>
      <trkpt lat="46.99171" lon="-1.80967">
        <ele>52</ele>
        <time>2021-09-18T10:50:08.000Z</time>
      </trkpt>
      <trkpt lat="46.99168" lon="-1.80949">
        <ele>53</ele>
        <time>2021-09-18T10:50:10.000Z</time>
      </trkpt>
      <trkpt lat="46.99166" lon="-1.80932">
        <ele>53</ele>
        <time>2021-09-18T10:50:12.000Z</time>
      </trkpt>
      <trkpt lat="46.99164" lon="-1.80916">
        <ele>53</ele>
        <time>2021-09-18T10:50:14.000Z</time>
      </trkpt>
      <trkpt lat="46.99163" lon="-1.80901">
        <ele>54</ele>
        <time>2021-09-18T10:50:16.000Z</time>
      </trkpt>
      <trkpt lat="46.99172" lon="-1.80889">
        <ele>54</ele>
        <time>2021-09-18T10:50:18.000Z</time>
      </trkpt>
      <trkpt lat="46.99184" lon="-1.80881">
        <ele>55</ele>
        <time>2021-09-18T10:50:20.000Z</time>
      </trkpt>
      <trkpt lat="46.99197" lon="-1.80873">
        <ele>54</ele>
        <time>2021-09-18T10:50:22.000Z</time>
      </trkpt>
      <trkpt lat="46.9921" lon="-1.80864">
        <ele>54</ele>
        <time>2021-09-18T10:50:24.000Z</time>
      </trkpt>
      <trkpt lat="46.99222" lon="-1.80857">
        <ele>54</ele>
        <time>2021-09-18T10:50:26.000Z</time>
      </trkpt>
      <trkpt lat="46.99234" lon="-1.80849">
        <ele>55</ele>
        <time>2021-09-18T10:50:28.000Z</time>
      </trkpt>
      <trkpt lat="46.99246" lon="-1.80842">
        <ele>55</ele>
        <time>2021-09-18T10:50:30.000Z</time>
      </trkpt>
      <trkpt lat="46.99259" lon="-1.80834">
        <ele>55</ele>
        <time>2021-09-18T10:50:32.000Z</time>
      </trkpt>
      <trkpt lat="46.99271" lon="-1.80826">
        <ele>55</ele>
        <time>2021-09-18T10:50:34.000Z</time>
      </trkpt>
      <trkpt lat="46.99284" lon="-1.80819">
        <ele>54</ele>
        <time>2021-09-18T10:50:36.000Z</time>
      </trkpt>
      <trkpt lat="46.99296" lon="-1.8081">
        <ele>54</ele>
        <time>2021-09-18T10:50:38.000Z</time>
      </trkpt>
      <trkpt lat="46.99308" lon="-1.80801">
        <ele>55</ele>
        <time>2021-09-18T10:50:40.000Z</time>
      </trkpt>
      <trkpt lat="46.99321" lon="-1.80793">
        <ele>55</ele>
        <time>2021-09-18T10:50:42.000Z</time>
      </trkpt>
      <trkpt lat="46.99333" lon="-1.80784">
        <ele>55</ele>
        <time>2021-09-18T10:50:44.000Z</time>
      </trkpt>
      <trkpt lat="46.99346" lon="-1.80776">
        <ele>55</ele>
        <time>2021-09-18T10:50:46.000Z</time>
      </trkpt>
      <trkpt lat="46.99359" lon="-1.80768">
        <ele>55</ele>
        <time>2021-09-18T10:50:48.000Z</time>
      </trkpt>
      <trkpt lat="46.99371" lon="-1.80759">
        <ele>55</ele>
        <time>2021-09-18T10:50:50.000Z</time>
      </trkpt>
      <trkpt lat="46.99384" lon="-1.80752">
        <ele>56</ele>
        <time>2021-09-18T10:50:52.000Z</time>
      </trkpt>
      <trkpt lat="46.99397" lon="-1.80744">
        <ele>56</ele>
        <time>2021-09-18T10:50:54.000Z</time>
      </trkpt>
      <trkpt lat="46.99409" lon="-1.80736">
        <ele>56</ele>
        <time>2021-09-18T10:50:56.000Z</time>
      </trkpt>
      <trkpt lat="46.99422" lon="-1.80728">
        <ele>56</ele>
        <time>2021-09-18T10:50:58.000Z</time>
      </trkpt>
      <trkpt lat="46.99434" lon="-1.80721">
        <ele>56</ele>
        <time>2021-09-18T10:51:00.000Z</time>
      </trkpt>
      <trkpt lat="46.99446" lon="-1.80713">
        <ele>56</ele>
        <time>2021-09-18T10:51:02.000Z</time>
      </trkpt>
      <trkpt lat="46.99457" lon="-1.80705">
        <ele>56</ele>
        <time>2021-09-18T10:51:04.000Z</time>
      </trkpt>
      <trkpt lat="46.99468" lon="-1.80698">
        <ele>56</ele>
        <time>2021-09-18T10:51:06.000Z</time>
      </trkpt>
      <trkpt lat="46.99475" lon="-1.80686">
        <ele>56</ele>
        <time>2021-09-18T10:51:08.000Z</time>
      </trkpt>
      <trkpt lat="46.99482" lon="-1.8067">
        <ele>56</ele>
        <time>2021-09-18T10:51:10.000Z</time>
      </trkpt>
      <trkpt lat="46.99494" lon="-1.80659">
        <ele>56</ele>
        <time>2021-09-18T10:51:12.000Z</time>
      </trkpt>
      <trkpt lat="46.99508" lon="-1.80653">
        <ele>55</ele>
        <time>2021-09-18T10:51:14.000Z</time>
      </trkpt>
      <trkpt lat="46.9952" lon="-1.80643">
        <ele>55</ele>
        <time>2021-09-18T10:51:16.000Z</time>
      </trkpt>
      <trkpt lat="46.99532" lon="-1.80631">
        <ele>54</ele>
        <time>2021-09-18T10:51:18.000Z</time>
      </trkpt>
      <trkpt lat="46.99543" lon="-1.80617">
        <ele>54</ele>
        <time>2021-09-18T10:51:20.000Z</time>
      </trkpt>
      <trkpt lat="46.99554" lon="-1.80604">
        <ele>54</ele>
        <time>2021-09-18T10:51:22.000Z</time>
      </trkpt>
      <trkpt lat="46.99565" lon="-1.8059">
        <ele>54</ele>
        <time>2021-09-18T10:51:24.000Z</time>
      </trkpt>
      <trkpt lat="46.99575" lon="-1.80576">
        <ele>54</ele>
        <time>2021-09-18T10:51:26.000Z</time>
      </trkpt>
      <trkpt lat="46.99586" lon="-1.80563">
        <ele>54</ele>
        <time>2021-09-18T10:51:28.000Z</time>
      </trkpt>
      <trkpt lat="46.99597" lon="-1.80549">
        <ele>53</ele>
        <time>2021-09-18T10:51:30.000Z</time>
      </trkpt>
      <trkpt lat="46.99607" lon="-1.80536">
        <ele>53</ele>
        <time>2021-09-18T10:51:32.000Z</time>
      </trkpt>
      <trkpt lat="46.99617" lon="-1.80523">
        <ele>54</ele>
        <time>2021-09-18T10:51:34.000Z</time>
      </trkpt>
      <trkpt lat="46.99628" lon="-1.80509">
        <ele>54</ele>
        <time>2021-09-18T10:51:36.000Z</time>
      </trkpt>
      <trkpt lat="46.99638" lon="-1.80496">
        <ele>54</ele>
        <time>2021-09-18T10:51:38.000Z</time>
      </trkpt>
      <trkpt lat="46.99649" lon="-1.80483">
        <ele>54</ele>
        <time>2021-09-18T10:51:40.000Z</time>
      </trkpt>
      <trkpt lat="46.9966" lon="-1.80469">
        <ele>54</ele>
        <time>2021-09-18T10:51:42.000Z</time>
      </trkpt>
      <trkpt lat="46.9967" lon="-1.80456">
        <ele>54</ele>
        <time>2021-09-18T10:51:44.000Z</time>
      </trkpt>
      <trkpt lat="46.9968" lon="-1.80442">
        <ele>54</ele>
        <time>2021-09-18T10:51:46.000Z</time>
      </trkpt>
      <trkpt lat="46.99691" lon="-1.80428">
        <ele>54</ele>
        <time>2021-09-18T10:51:48.000Z</time>
      </trkpt>
      <trkpt lat="46.99701" lon="-1.80416">
        <ele>54</ele>
        <time>2021-09-18T10:51:50.000Z</time>
      </trkpt>
      <trkpt lat="46.99712" lon="-1.80403">
        <ele>54</ele>
        <time>2021-09-18T10:51:52.000Z</time>
      </trkpt>
      <trkpt lat="46.99722" lon="-1.80389">
        <ele>54</ele>
        <time>2021-09-18T10:51:54.000Z</time>
      </trkpt>
      <trkpt lat="46.99732" lon="-1.80376">
        <ele>54</ele>
        <time>2021-09-18T10:51:56.000Z</time>
      </trkpt>
      <trkpt lat="46.99742" lon="-1.80362">
        <ele>54</ele>
        <time>2021-09-18T10:51:58.000Z</time>
      </trkpt>
      <trkpt lat="46.99753" lon="-1.80349">
        <ele>54</ele>
        <time>2021-09-18T10:52:00.000Z</time>
      </trkpt>
      <trkpt lat="46.99763" lon="-1.80335">
        <ele>54</ele>
        <time>2021-09-18T10:52:02.000Z</time>
      </trkpt>
      <trkpt lat="46.99774" lon="-1.80321">
        <ele>54</ele>
        <time>2021-09-18T10:52:04.000Z</time>
      </trkpt>
      <trkpt lat="46.99784" lon="-1.80308">
        <ele>54</ele>
        <time>2021-09-18T10:52:06.000Z</time>
      </trkpt>
      <trkpt lat="46.99795" lon="-1.80294">
        <ele>54</ele>
        <time>2021-09-18T10:52:08.000Z</time>
      </trkpt>
      <trkpt lat="46.99805" lon="-1.80281">
        <ele>54</ele>
        <time>2021-09-18T10:52:10.000Z</time>
      </trkpt>
      <trkpt lat="46.99815" lon="-1.80268">
        <ele>54</ele>
        <time>2021-09-18T10:52:12.000Z</time>
      </trkpt>
      <trkpt lat="46.99825" lon="-1.80254">
        <ele>55</ele>
        <time>2021-09-18T10:52:14.000Z</time>
      </trkpt>
      <trkpt lat="46.99835" lon="-1.8024">
        <ele>55</ele>
        <time>2021-09-18T10:52:16.000Z</time>
      </trkpt>
      <trkpt lat="46.99844" lon="-1.80226">
        <ele>55</ele>
        <time>2021-09-18T10:52:18.000Z</time>
      </trkpt>
      <trkpt lat="46.99853" lon="-1.80211">
        <ele>55</ele>
        <time>2021-09-18T10:52:20.000Z</time>
      </trkpt>
      <trkpt lat="46.99862" lon="-1.80195">
        <ele>55</ele>
        <time>2021-09-18T10:52:22.000Z</time>
      </trkpt>
      <trkpt lat="46.9987" lon="-1.80178">
        <ele>55</ele>
        <time>2021-09-18T10:52:24.000Z</time>
      </trkpt>
      <trkpt lat="46.99878" lon="-1.80162">
        <ele>55</ele>
        <time>2021-09-18T10:52:26.000Z</time>
      </trkpt>
      <trkpt lat="46.99886" lon="-1.80145">
        <ele>55</ele>
        <time>2021-09-18T10:52:28.000Z</time>
      </trkpt>
      <trkpt lat="46.99894" lon="-1.80128">
        <ele>55</ele>
        <time>2021-09-18T10:52:30.000Z</time>
      </trkpt>
      <trkpt lat="46.99902" lon="-1.80111">
        <ele>55</ele>
        <time>2021-09-18T10:52:32.000Z</time>
      </trkpt>
      <trkpt lat="46.9991" lon="-1.80095">
        <ele>55</ele>
        <time>2021-09-18T10:52:34.000Z</time>
      </trkpt>
      <trkpt lat="46.99918" lon="-1.80078">
        <ele>55</ele>
        <time>2021-09-18T10:52:36.000Z</time>
      </trkpt>
      <trkpt lat="46.99926" lon="-1.80062">
        <ele>55</ele>
        <time>2021-09-18T10:52:38.000Z</time>
      </trkpt>
      <trkpt lat="46.99933" lon="-1.80045">
        <ele>55</ele>
        <time>2021-09-18T10:52:40.000Z</time>
      </trkpt>
      <trkpt lat="46.99942" lon="-1.80029">
        <ele>55</ele>
        <time>2021-09-18T10:52:42.000Z</time>
      </trkpt>
      <trkpt lat="46.99952" lon="-1.80014">
        <ele>55</ele>
        <time>2021-09-18T10:52:44.000Z</time>
      </trkpt>
      <trkpt lat="46.99962" lon="-1.8">
        <ele>56</ele>
        <time>2021-09-18T10:52:46.000Z</time>
      </trkpt>
      <trkpt lat="46.99974" lon="-1.79989">
        <ele>56</ele>
        <time>2021-09-18T10:52:48.000Z</time>
      </trkpt>
      <trkpt lat="46.99985" lon="-1.79979">
        <ele>56</ele>
        <time>2021-09-18T10:52:50.000Z</time>
      </trkpt>
      <trkpt lat="46.99997" lon="-1.79969">
        <ele>56</ele>
        <time>2021-09-18T10:52:52.000Z</time>
      </trkpt>
      <trkpt lat="47.0001" lon="-1.7996">
        <ele>56</ele>
        <time>2021-09-18T10:52:54.000Z</time>
      </trkpt>
      <trkpt lat="47.00022" lon="-1.7995">
        <ele>56</ele>
        <time>2021-09-18T10:52:56.000Z</time>
      </trkpt>
      <trkpt lat="47.00035" lon="-1.79941">
        <ele>57</ele>
        <time>2021-09-18T10:52:58.000Z</time>
      </trkpt>
      <trkpt lat="47.00048" lon="-1.79931">
        <ele>57</ele>
        <time>2021-09-18T10:53:00.000Z</time>
      </trkpt>
      <trkpt lat="47.0006" lon="-1.79921">
        <ele>57</ele>
        <time>2021-09-18T10:53:02.000Z</time>
      </trkpt>
      <trkpt lat="47.00073" lon="-1.79911">
        <ele>56</ele>
        <time>2021-09-18T10:53:04.000Z</time>
      </trkpt>
      <trkpt lat="47.00086" lon="-1.799">
        <ele>56</ele>
        <time>2021-09-18T10:53:06.000Z</time>
      </trkpt>
      <trkpt lat="47.00098" lon="-1.79889">
        <ele>56</ele>
        <time>2021-09-18T10:53:08.000Z</time>
      </trkpt>
      <trkpt lat="47.00109" lon="-1.79876">
        <ele>56</ele>
        <time>2021-09-18T10:53:10.000Z</time>
      </trkpt>
      <trkpt lat="47.0012" lon="-1.79863">
        <ele>55</ele>
        <time>2021-09-18T10:53:12.000Z</time>
      </trkpt>
      <trkpt lat="47.00128" lon="-1.79847">
        <ele>55</ele>
        <time>2021-09-18T10:53:14.000Z</time>
      </trkpt>
      <trkpt lat="47.00136" lon="-1.79829">
        <ele>55</ele>
        <time>2021-09-18T10:53:16.000Z</time>
      </trkpt>
      <trkpt lat="47.00143" lon="-1.79811">
        <ele>55</ele>
        <time>2021-09-18T10:53:18.000Z</time>
      </trkpt>
      <trkpt lat="47.00149" lon="-1.79794">
        <ele>55</ele>
        <time>2021-09-18T10:53:20.000Z</time>
      </trkpt>
      <trkpt lat="47.00155" lon="-1.79775">
        <ele>55</ele>
        <time>2021-09-18T10:53:22.000Z</time>
      </trkpt>
      <trkpt lat="47.0016" lon="-1.79756">
        <ele>56</ele>
        <time>2021-09-18T10:53:24.000Z</time>
      </trkpt>
      <trkpt lat="47.00166" lon="-1.79738">
        <ele>56</ele>
        <time>2021-09-18T10:53:26.000Z</time>
      </trkpt>
      <trkpt lat="47.00172" lon="-1.79719">
        <ele>56</ele>
        <time>2021-09-18T10:53:28.000Z</time>
      </trkpt>
      <trkpt lat="47.00177" lon="-1.79701">
        <ele>56</ele>
        <time>2021-09-18T10:53:30.000Z</time>
      </trkpt>
      <trkpt lat="47.00183" lon="-1.79682">
        <ele>56</ele>
        <time>2021-09-18T10:53:32.000Z</time>
      </trkpt>
      <trkpt lat="47.00188" lon="-1.79663">
        <ele>56</ele>
        <time>2021-09-18T10:53:34.000Z</time>
      </trkpt>
      <trkpt lat="47.00194" lon="-1.79644">
        <ele>55</ele>
        <time>2021-09-18T10:53:36.000Z</time>
      </trkpt>
      <trkpt lat="47.00199" lon="-1.79625">
        <ele>56</ele>
        <time>2021-09-18T10:53:38.000Z</time>
      </trkpt>
      <trkpt lat="47.00205" lon="-1.79605">
        <ele>56</ele>
        <time>2021-09-18T10:53:40.000Z</time>
      </trkpt>
      <trkpt lat="47.00214" lon="-1.79576">
        <ele>56</ele>
        <time>2021-09-18T10:53:43.000Z</time>
      </trkpt>
      <trkpt lat="47.00219" lon="-1.79556">
        <ele>56</ele>
        <time>2021-09-18T10:53:45.000Z</time>
      </trkpt>
      <trkpt lat="47.00225" lon="-1.79538">
        <ele>56</ele>
        <time>2021-09-18T10:53:47.000Z</time>
      </trkpt>
      <trkpt lat="47.00231" lon="-1.7952">
        <ele>56</ele>
        <time>2021-09-18T10:53:49.000Z</time>
      </trkpt>
      <trkpt lat="47.00237" lon="-1.79501">
        <ele>56</ele>
        <time>2021-09-18T10:53:51.000Z</time>
      </trkpt>
      <trkpt lat="47.00243" lon="-1.79484">
        <ele>56</ele>
        <time>2021-09-18T10:53:53.000Z</time>
      </trkpt>
      <trkpt lat="47.00251" lon="-1.79455">
        <ele>55</ele>
        <time>2021-09-18T10:53:56.000Z</time>
      </trkpt>
      <trkpt lat="47.00257" lon="-1.79437">
        <ele>55</ele>
        <time>2021-09-18T10:53:58.000Z</time>
      </trkpt>
      <trkpt lat="47.00265" lon="-1.79408">
        <ele>56</ele>
        <time>2021-09-18T10:54:01.000Z</time>
      </trkpt>
      <trkpt lat="47.00271" lon="-1.79389">
        <ele>56</ele>
        <time>2021-09-18T10:54:03.000Z</time>
      </trkpt>
      <trkpt lat="47.00277" lon="-1.79368">
        <ele>56</ele>
        <time>2021-09-18T10:54:05.000Z</time>
      </trkpt>
      <trkpt lat="47.00282" lon="-1.79348">
        <ele>55</ele>
        <time>2021-09-18T10:54:07.000Z</time>
      </trkpt>
      <trkpt lat="47.00285" lon="-1.79328">
        <ele>55</ele>
        <time>2021-09-18T10:54:09.000Z</time>
      </trkpt>
      <trkpt lat="47.00288" lon="-1.79307">
        <ele>55</ele>
        <time>2021-09-18T10:54:11.000Z</time>
      </trkpt>
      <trkpt lat="47.00292" lon="-1.79287">
        <ele>56</ele>
        <time>2021-09-18T10:54:13.000Z</time>
      </trkpt>
      <trkpt lat="47.00295" lon="-1.79266">
        <ele>55</ele>
        <time>2021-09-18T10:54:15.000Z</time>
      </trkpt>
      <trkpt lat="47.00298" lon="-1.79245">
        <ele>56</ele>
        <time>2021-09-18T10:54:17.000Z</time>
      </trkpt>
      <trkpt lat="47.00301" lon="-1.79225">
        <ele>56</ele>
        <time>2021-09-18T10:54:19.000Z</time>
      </trkpt>
      <trkpt lat="47.00304" lon="-1.79205">
        <ele>56</ele>
        <time>2021-09-18T10:54:21.000Z</time>
      </trkpt>
      <trkpt lat="47.00308" lon="-1.79185">
        <ele>56</ele>
        <time>2021-09-18T10:54:23.000Z</time>
      </trkpt>
      <trkpt lat="47.00312" lon="-1.79165">
        <ele>56</ele>
        <time>2021-09-18T10:54:25.000Z</time>
      </trkpt>
      <trkpt lat="47.00316" lon="-1.79145">
        <ele>56</ele>
        <time>2021-09-18T10:54:27.000Z</time>
      </trkpt>
      <trkpt lat="47.00322" lon="-1.79126">
        <ele>56</ele>
        <time>2021-09-18T10:54:29.000Z</time>
      </trkpt>
      <trkpt lat="47.00326" lon="-1.79107">
        <ele>56</ele>
        <time>2021-09-18T10:54:31.000Z</time>
      </trkpt>
      <trkpt lat="47.00332" lon="-1.79088">
        <ele>56</ele>
        <time>2021-09-18T10:54:33.000Z</time>
      </trkpt>
      <trkpt lat="47.00337" lon="-1.79069">
        <ele>56</ele>
        <time>2021-09-18T10:54:35.000Z</time>
      </trkpt>
      <trkpt lat="47.00343" lon="-1.7905">
        <ele>56</ele>
        <time>2021-09-18T10:54:37.000Z</time>
      </trkpt>
      <trkpt lat="47.00348" lon="-1.79031">
        <ele>56</ele>
        <time>2021-09-18T10:54:39.000Z</time>
      </trkpt>
      <trkpt lat="47.00353" lon="-1.79012">
        <ele>57</ele>
        <time>2021-09-18T10:54:41.000Z</time>
      </trkpt>
      <trkpt lat="47.00357" lon="-1.78993">
        <ele>56</ele>
        <time>2021-09-18T10:54:43.000Z</time>
      </trkpt>
      <trkpt lat="47.00361" lon="-1.78974">
        <ele>56</ele>
        <time>2021-09-18T10:54:45.000Z</time>
      </trkpt>
      <trkpt lat="47.00365" lon="-1.78954">
        <ele>56</ele>
        <time>2021-09-18T10:54:47.000Z</time>
      </trkpt>
      <trkpt lat="47.0037" lon="-1.78935">
        <ele>56</ele>
        <time>2021-09-18T10:54:49.000Z</time>
      </trkpt>
      <trkpt lat="47.00374" lon="-1.78916">
        <ele>56</ele>
        <time>2021-09-18T10:54:51.000Z</time>
      </trkpt>
      <trkpt lat="47.00379" lon="-1.78896">
        <ele>56</ele>
        <time>2021-09-18T10:54:53.000Z</time>
      </trkpt>
      <trkpt lat="47.00383" lon="-1.78876">
        <ele>56</ele>
        <time>2021-09-18T10:54:55.000Z</time>
      </trkpt>
      <trkpt lat="47.00387" lon="-1.78857">
        <ele>56</ele>
        <time>2021-09-18T10:54:57.000Z</time>
      </trkpt>
      <trkpt lat="47.00391" lon="-1.78838">
        <ele>56</ele>
        <time>2021-09-18T10:54:59.000Z</time>
      </trkpt>
      <trkpt lat="47.00395" lon="-1.78818">
        <ele>56</ele>
        <time>2021-09-18T10:55:01.000Z</time>
      </trkpt>
      <trkpt lat="47.00398" lon="-1.78798">
        <ele>55</ele>
        <time>2021-09-18T10:55:03.000Z</time>
      </trkpt>
      <trkpt lat="47.00402" lon="-1.78777">
        <ele>55</ele>
        <time>2021-09-18T10:55:05.000Z</time>
      </trkpt>
      <trkpt lat="47.00405" lon="-1.78756">
        <ele>55</ele>
        <time>2021-09-18T10:55:07.000Z</time>
      </trkpt>
      <trkpt lat="47.00408" lon="-1.78735">
        <ele>55</ele>
        <time>2021-09-18T10:55:09.000Z</time>
      </trkpt>
      <trkpt lat="47.00411" lon="-1.78715">
        <ele>55</ele>
        <time>2021-09-18T10:55:11.000Z</time>
      </trkpt>
      <trkpt lat="47.00413" lon="-1.78694">
        <ele>55</ele>
        <time>2021-09-18T10:55:13.000Z</time>
      </trkpt>
      <trkpt lat="47.00416" lon="-1.78674">
        <ele>55</ele>
        <time>2021-09-18T10:55:15.000Z</time>
      </trkpt>
      <trkpt lat="47.00418" lon="-1.78653">
        <ele>55</ele>
        <time>2021-09-18T10:55:17.000Z</time>
      </trkpt>
      <trkpt lat="47.00421" lon="-1.78632">
        <ele>55</ele>
        <time>2021-09-18T10:55:19.000Z</time>
      </trkpt>
      <trkpt lat="47.00424" lon="-1.78612">
        <ele>55</ele>
        <time>2021-09-18T10:55:21.000Z</time>
      </trkpt>
      <trkpt lat="47.00427" lon="-1.78591">
        <ele>55</ele>
        <time>2021-09-18T10:55:23.000Z</time>
      </trkpt>
      <trkpt lat="47.00429" lon="-1.7857">
        <ele>55</ele>
        <time>2021-09-18T10:55:25.000Z</time>
      </trkpt>
      <trkpt lat="47.00432" lon="-1.7855">
        <ele>56</ele>
        <time>2021-09-18T10:55:27.000Z</time>
      </trkpt>
      <trkpt lat="47.00434" lon="-1.7853">
        <ele>56</ele>
        <time>2021-09-18T10:55:29.000Z</time>
      </trkpt>
      <trkpt lat="47.00437" lon="-1.7851">
        <ele>57</ele>
        <time>2021-09-18T10:55:31.000Z</time>
      </trkpt>
      <trkpt lat="47.0044" lon="-1.7849">
        <ele>57</ele>
        <time>2021-09-18T10:55:33.000Z</time>
      </trkpt>
      <trkpt lat="47.00443" lon="-1.7847">
        <ele>57</ele>
        <time>2021-09-18T10:55:35.000Z</time>
      </trkpt>
      <trkpt lat="47.00447" lon="-1.7845">
        <ele>57</ele>
        <time>2021-09-18T10:55:37.000Z</time>
      </trkpt>
      <trkpt lat="47.00451" lon="-1.78431">
        <ele>56</ele>
        <time>2021-09-18T10:55:39.000Z</time>
      </trkpt>
      <trkpt lat="47.00456" lon="-1.78411">
        <ele>56</ele>
        <time>2021-09-18T10:55:41.000Z</time>
      </trkpt>
      <trkpt lat="47.0046" lon="-1.78391">
        <ele>56</ele>
        <time>2021-09-18T10:55:43.000Z</time>
      </trkpt>
      <trkpt lat="47.00465" lon="-1.78372">
        <ele>56</ele>
        <time>2021-09-18T10:55:45.000Z</time>
      </trkpt>
      <trkpt lat="47.00471" lon="-1.78352">
        <ele>56</ele>
        <time>2021-09-18T10:55:47.000Z</time>
      </trkpt>
      <trkpt lat="47.00476" lon="-1.78333">
        <ele>56</ele>
        <time>2021-09-18T10:55:49.000Z</time>
      </trkpt>
      <trkpt lat="47.00481" lon="-1.78313">
        <ele>56</ele>
        <time>2021-09-18T10:55:51.000Z</time>
      </trkpt>
      <trkpt lat="47.00486" lon="-1.78294">
        <ele>55</ele>
        <time>2021-09-18T10:55:53.000Z</time>
      </trkpt>
      <trkpt lat="47.00491" lon="-1.78275">
        <ele>54</ele>
        <time>2021-09-18T10:55:55.000Z</time>
      </trkpt>
      <trkpt lat="47.00496" lon="-1.78255">
        <ele>54</ele>
        <time>2021-09-18T10:55:57.000Z</time>
      </trkpt>
      <trkpt lat="47.00501" lon="-1.78236">
        <ele>54</ele>
        <time>2021-09-18T10:55:59.000Z</time>
      </trkpt>
      <trkpt lat="47.00505" lon="-1.78217">
        <ele>54</ele>
        <time>2021-09-18T10:56:01.000Z</time>
      </trkpt>
      <trkpt lat="47.0051" lon="-1.782">
        <ele>54</ele>
        <time>2021-09-18T10:56:03.000Z</time>
      </trkpt>
      <trkpt lat="47.00514" lon="-1.78181">
        <ele>54</ele>
        <time>2021-09-18T10:56:05.000Z</time>
      </trkpt>
      <trkpt lat="47.00519" lon="-1.78162">
        <ele>54</ele>
        <time>2021-09-18T10:56:07.000Z</time>
      </trkpt>
      <trkpt lat="47.00523" lon="-1.78143">
        <ele>54</ele>
        <time>2021-09-18T10:56:09.000Z</time>
      </trkpt>
      <trkpt lat="47.00527" lon="-1.78124">
        <ele>53</ele>
        <time>2021-09-18T10:56:11.000Z</time>
      </trkpt>
      <trkpt lat="47.00532" lon="-1.78104">
        <ele>53</ele>
        <time>2021-09-18T10:56:13.000Z</time>
      </trkpt>
      <trkpt lat="47.00537" lon="-1.78084">
        <ele>52</ele>
        <time>2021-09-18T10:56:15.000Z</time>
      </trkpt>
      <trkpt lat="47.00541" lon="-1.78064">
        <ele>53</ele>
        <time>2021-09-18T10:56:17.000Z</time>
      </trkpt>
      <trkpt lat="47.00547" lon="-1.78045">
        <ele>53</ele>
        <time>2021-09-18T10:56:19.000Z</time>
      </trkpt>
      <trkpt lat="47.00551" lon="-1.78026">
        <ele>53</ele>
        <time>2021-09-18T10:56:21.000Z</time>
      </trkpt>
      <trkpt lat="47.00556" lon="-1.78007">
        <ele>53</ele>
        <time>2021-09-18T10:56:23.000Z</time>
      </trkpt>
      <trkpt lat="47.00561" lon="-1.77989">
        <ele>53</ele>
        <time>2021-09-18T10:56:25.000Z</time>
      </trkpt>
      <trkpt lat="47.00565" lon="-1.7797">
        <ele>53</ele>
        <time>2021-09-18T10:56:27.000Z</time>
      </trkpt>
      <trkpt lat="47.00571" lon="-1.77951">
        <ele>53</ele>
        <time>2021-09-18T10:56:29.000Z</time>
      </trkpt>
      <trkpt lat="47.00575" lon="-1.77932">
        <ele>53</ele>
        <time>2021-09-18T10:56:31.000Z</time>
      </trkpt>
      <trkpt lat="47.0058" lon="-1.77913">
        <ele>52</ele>
        <time>2021-09-18T10:56:33.000Z</time>
      </trkpt>
      <trkpt lat="47.00585" lon="-1.77895">
        <ele>52</ele>
        <time>2021-09-18T10:56:35.000Z</time>
      </trkpt>
      <trkpt lat="47.00589" lon="-1.77877">
        <ele>52</ele>
        <time>2021-09-18T10:56:37.000Z</time>
      </trkpt>
      <trkpt lat="47.00594" lon="-1.77858">
        <ele>53</ele>
        <time>2021-09-18T10:56:39.000Z</time>
      </trkpt>
      <trkpt lat="47.00598" lon="-1.7784">
        <ele>52</ele>
        <time>2021-09-18T10:56:41.000Z</time>
      </trkpt>
      <trkpt lat="47.00603" lon="-1.77821">
        <ele>53</ele>
        <time>2021-09-18T10:56:43.000Z</time>
      </trkpt>
      <trkpt lat="47.00607" lon="-1.77803">
        <ele>53</ele>
        <time>2021-09-18T10:56:45.000Z</time>
      </trkpt>
      <trkpt lat="47.00612" lon="-1.77785">
        <ele>53</ele>
        <time>2021-09-18T10:56:47.000Z</time>
      </trkpt>
      <trkpt lat="47.00617" lon="-1.77767">
        <ele>53</ele>
        <time>2021-09-18T10:56:49.000Z</time>
      </trkpt>
      <trkpt lat="47.00621" lon="-1.77749">
        <ele>53</ele>
        <time>2021-09-18T10:56:51.000Z</time>
      </trkpt>
      <trkpt lat="47.00625" lon="-1.77731">
        <ele>53</ele>
        <time>2021-09-18T10:56:53.000Z</time>
      </trkpt>
      <trkpt lat="47.00629" lon="-1.77713">
        <ele>54</ele>
        <time>2021-09-18T10:56:55.000Z</time>
      </trkpt>
      <trkpt lat="47.00634" lon="-1.77695">
        <ele>54</ele>
        <time>2021-09-18T10:56:57.000Z</time>
      </trkpt>
      <trkpt lat="47.00638" lon="-1.77678">
        <ele>54</ele>
        <time>2021-09-18T10:56:59.000Z</time>
      </trkpt>
      <trkpt lat="47.00642" lon="-1.7766">
        <ele>55</ele>
        <time>2021-09-18T10:57:01.000Z</time>
      </trkpt>
      <trkpt lat="47.00646" lon="-1.77642">
        <ele>55</ele>
        <time>2021-09-18T10:57:03.000Z</time>
      </trkpt>
      <trkpt lat="47.00651" lon="-1.77625">
        <ele>55</ele>
        <time>2021-09-18T10:57:05.000Z</time>
      </trkpt>
      <trkpt lat="47.00655" lon="-1.77607">
        <ele>56</ele>
        <time>2021-09-18T10:57:07.000Z</time>
      </trkpt>
      <trkpt lat="47.00659" lon="-1.7759">
        <ele>56</ele>
        <time>2021-09-18T10:57:09.000Z</time>
      </trkpt>
      <trkpt lat="47.00663" lon="-1.77572">
        <ele>56</ele>
        <time>2021-09-18T10:57:11.000Z</time>
      </trkpt>
      <trkpt lat="47.00667" lon="-1.77555">
        <ele>56</ele>
        <time>2021-09-18T10:57:13.000Z</time>
      </trkpt>
      <trkpt lat="47.00671" lon="-1.77538">
        <ele>56</ele>
        <time>2021-09-18T10:57:15.000Z</time>
      </trkpt>
      <trkpt lat="47.00676" lon="-1.77522">
        <ele>57</ele>
        <time>2021-09-18T10:57:17.000Z</time>
      </trkpt>
      <trkpt lat="47.00681" lon="-1.77507">
        <ele>57</ele>
        <time>2021-09-18T10:57:19.000Z</time>
      </trkpt>
      <trkpt lat="47.00686" lon="-1.77492">
        <ele>57</ele>
        <time>2021-09-18T10:57:21.000Z</time>
      </trkpt>
      <trkpt lat="47.00692" lon="-1.77478">
        <ele>57</ele>
        <time>2021-09-18T10:57:23.000Z</time>
      </trkpt>
      <trkpt lat="47.00697" lon="-1.77464">
        <ele>58</ele>
        <time>2021-09-18T10:57:25.000Z</time>
      </trkpt>
      <trkpt lat="47.00703" lon="-1.77449">
        <ele>58</ele>
        <time>2021-09-18T10:57:27.000Z</time>
      </trkpt>
      <trkpt lat="47.00708" lon="-1.77434">
        <ele>59</ele>
        <time>2021-09-18T10:57:29.000Z</time>
      </trkpt>
      <trkpt lat="47.00714" lon="-1.77419">
        <ele>59</ele>
        <time>2021-09-18T10:57:31.000Z</time>
      </trkpt>
      <trkpt lat="47.00719" lon="-1.77404">
        <ele>59</ele>
        <time>2021-09-18T10:57:33.000Z</time>
      </trkpt>
      <trkpt lat="47.00725" lon="-1.7739">
        <ele>59</ele>
        <time>2021-09-18T10:57:35.000Z</time>
      </trkpt>
      <trkpt lat="47.0073" lon="-1.77376">
        <ele>59</ele>
        <time>2021-09-18T10:57:37.000Z</time>
      </trkpt>
      <trkpt lat="47.00737" lon="-1.77363">
        <ele>60</ele>
        <time>2021-09-18T10:57:39.000Z</time>
      </trkpt>
      <trkpt lat="47.00745" lon="-1.7735">
        <ele>61</ele>
        <time>2021-09-18T10:57:41.000Z</time>
      </trkpt>
      <trkpt lat="47.00753" lon="-1.77338">
        <ele>61</ele>
        <time>2021-09-18T10:57:43.000Z</time>
      </trkpt>
      <trkpt lat="47.00763" lon="-1.77327">
        <ele>61</ele>
        <time>2021-09-18T10:57:45.000Z</time>
      </trkpt>
      <trkpt lat="47.00773" lon="-1.77317">
        <ele>62</ele>
        <time>2021-09-18T10:57:47.000Z</time>
      </trkpt>
      <trkpt lat="47.00783" lon="-1.77309">
        <ele>62</ele>
        <time>2021-09-18T10:57:49.000Z</time>
      </trkpt>
      <trkpt lat="47.00793" lon="-1.77302">
        <ele>63</ele>
        <time>2021-09-18T10:57:51.000Z</time>
      </trkpt>
      <trkpt lat="47.00803" lon="-1.77296">
        <ele>63</ele>
        <time>2021-09-18T10:57:53.000Z</time>
      </trkpt>
      <trkpt lat="47.00814" lon="-1.77289">
        <ele>63</ele>
        <time>2021-09-18T10:57:55.000Z</time>
      </trkpt>
      <trkpt lat="47.00825" lon="-1.77283">
        <ele>63</ele>
        <time>2021-09-18T10:57:57.000Z</time>
      </trkpt>
      <trkpt lat="47.00837" lon="-1.77277">
        <ele>63</ele>
        <time>2021-09-18T10:57:59.000Z</time>
      </trkpt>
      <trkpt lat="47.00847" lon="-1.7727">
        <ele>63</ele>
        <time>2021-09-18T10:58:01.000Z</time>
      </trkpt>
      <trkpt lat="47.00858" lon="-1.77263">
        <ele>63</ele>
        <time>2021-09-18T10:58:03.000Z</time>
      </trkpt>
      <trkpt lat="47.00869" lon="-1.77254">
        <ele>64</ele>
        <time>2021-09-18T10:58:05.000Z</time>
      </trkpt>
      <trkpt lat="47.00879" lon="-1.77245">
        <ele>64</ele>
        <time>2021-09-18T10:58:07.000Z</time>
      </trkpt>
      <trkpt lat="47.00889" lon="-1.77234">
        <ele>64</ele>
        <time>2021-09-18T10:58:09.000Z</time>
      </trkpt>
      <trkpt lat="47.00899" lon="-1.77224">
        <ele>64</ele>
        <time>2021-09-18T10:58:11.000Z</time>
      </trkpt>
      <trkpt lat="47.0091" lon="-1.77214">
        <ele>64</ele>
        <time>2021-09-18T10:58:13.000Z</time>
      </trkpt>
      <trkpt lat="47.00919" lon="-1.77204">
        <ele>64</ele>
        <time>2021-09-18T10:58:15.000Z</time>
      </trkpt>
      <trkpt lat="47.00929" lon="-1.77194">
        <ele>64</ele>
        <time>2021-09-18T10:58:17.000Z</time>
      </trkpt>
      <trkpt lat="47.00938" lon="-1.77184">
        <ele>64</ele>
        <time>2021-09-18T10:58:19.000Z</time>
      </trkpt>
      <trkpt lat="47.00947" lon="-1.77176">
        <ele>63</ele>
        <time>2021-09-18T10:58:21.000Z</time>
      </trkpt>
      <trkpt lat="47.00954" lon="-1.77167">
        <ele>63</ele>
        <time>2021-09-18T10:58:23.000Z</time>
      </trkpt>
      <trkpt lat="47.00964" lon="-1.77155">
        <ele>63</ele>
        <time>2021-09-18T10:58:26.000Z</time>
      </trkpt>
      <trkpt lat="47.00974" lon="-1.77147">
        <ele>62</ele>
        <time>2021-09-18T10:58:28.000Z</time>
      </trkpt>
      <trkpt lat="47.00984" lon="-1.77136">
        <ele>62</ele>
        <time>2021-09-18T10:58:30.000Z</time>
      </trkpt>
      <trkpt lat="47.00994" lon="-1.77125">
        <ele>63</ele>
        <time>2021-09-18T10:58:32.000Z</time>
      </trkpt>
      <trkpt lat="47.01005" lon="-1.77115">
        <ele>63</ele>
        <time>2021-09-18T10:58:34.000Z</time>
      </trkpt>
      <trkpt lat="47.01015" lon="-1.77104">
        <ele>63</ele>
        <time>2021-09-18T10:58:36.000Z</time>
      </trkpt>
      <trkpt lat="47.01025" lon="-1.77093">
        <ele>64</ele>
        <time>2021-09-18T10:58:38.000Z</time>
      </trkpt>
      <trkpt lat="47.01036" lon="-1.77082">
        <ele>63</ele>
        <time>2021-09-18T10:58:40.000Z</time>
      </trkpt>
      <trkpt lat="47.01046" lon="-1.77069">
        <ele>63</ele>
        <time>2021-09-18T10:58:42.000Z</time>
      </trkpt>
      <trkpt lat="47.01057" lon="-1.77058">
        <ele>63</ele>
        <time>2021-09-18T10:58:44.000Z</time>
      </trkpt>
      <trkpt lat="47.01068" lon="-1.77045">
        <ele>63</ele>
        <time>2021-09-18T10:58:46.000Z</time>
      </trkpt>
      <trkpt lat="47.01079" lon="-1.77033">
        <ele>64</ele>
        <time>2021-09-18T10:58:48.000Z</time>
      </trkpt>
      <trkpt lat="47.01089" lon="-1.7702">
        <ele>64</ele>
        <time>2021-09-18T10:58:50.000Z</time>
      </trkpt>
      <trkpt lat="47.011" lon="-1.77008">
        <ele>64</ele>
        <time>2021-09-18T10:58:52.000Z</time>
      </trkpt>
      <trkpt lat="47.0111" lon="-1.76995">
        <ele>65</ele>
        <time>2021-09-18T10:58:54.000Z</time>
      </trkpt>
      <trkpt lat="47.0112" lon="-1.76983">
        <ele>65</ele>
        <time>2021-09-18T10:58:56.000Z</time>
      </trkpt>
      <trkpt lat="47.0113" lon="-1.76972">
        <ele>66</ele>
        <time>2021-09-18T10:58:58.000Z</time>
      </trkpt>
      <trkpt lat="47.0114" lon="-1.7696">
        <ele>66</ele>
        <time>2021-09-18T10:59:00.000Z</time>
      </trkpt>
      <trkpt lat="47.0115" lon="-1.76949">
        <ele>67</ele>
        <time>2021-09-18T10:59:02.000Z</time>
      </trkpt>
      <trkpt lat="47.01159" lon="-1.76937">
        <ele>67</ele>
        <time>2021-09-18T10:59:04.000Z</time>
      </trkpt>
      <trkpt lat="47.01168" lon="-1.76926">
        <ele>68</ele>
        <time>2021-09-18T10:59:06.000Z</time>
      </trkpt>
      <trkpt lat="47.01177" lon="-1.76915">
        <ele>68</ele>
        <time>2021-09-18T10:59:08.000Z</time>
      </trkpt>
      <trkpt lat="47.01187" lon="-1.76904">
        <ele>68</ele>
        <time>2021-09-18T10:59:10.000Z</time>
      </trkpt>
      <trkpt lat="47.01198" lon="-1.76893">
        <ele>68</ele>
        <time>2021-09-18T10:59:12.000Z</time>
      </trkpt>
      <trkpt lat="47.01208" lon="-1.76884">
        <ele>68</ele>
        <time>2021-09-18T10:59:14.000Z</time>
      </trkpt>
      <trkpt lat="47.01219" lon="-1.76875">
        <ele>68</ele>
        <time>2021-09-18T10:59:16.000Z</time>
      </trkpt>
      <trkpt lat="47.0123" lon="-1.76866">
        <ele>68</ele>
        <time>2021-09-18T10:59:18.000Z</time>
      </trkpt>
      <trkpt lat="47.01241" lon="-1.76857">
        <ele>68</ele>
        <time>2021-09-18T10:59:20.000Z</time>
      </trkpt>
      <trkpt lat="47.01252" lon="-1.76849">
        <ele>68</ele>
        <time>2021-09-18T10:59:22.000Z</time>
      </trkpt>
      <trkpt lat="47.01263" lon="-1.7684">
        <ele>68</ele>
        <time>2021-09-18T10:59:24.000Z</time>
      </trkpt>
      <trkpt lat="47.01273" lon="-1.7683">
        <ele>68</ele>
        <time>2021-09-18T10:59:26.000Z</time>
      </trkpt>
      <trkpt lat="47.01283" lon="-1.7682">
        <ele>68</ele>
        <time>2021-09-18T10:59:28.000Z</time>
      </trkpt>
      <trkpt lat="47.01293" lon="-1.76808">
        <ele>69</ele>
        <time>2021-09-18T10:59:30.000Z</time>
      </trkpt>
      <trkpt lat="47.01302" lon="-1.76795">
        <ele>69</ele>
        <time>2021-09-18T10:59:32.000Z</time>
      </trkpt>
      <trkpt lat="47.0131" lon="-1.76782">
        <ele>69</ele>
        <time>2021-09-18T10:59:34.000Z</time>
      </trkpt>
      <trkpt lat="47.01318" lon="-1.76769">
        <ele>69</ele>
        <time>2021-09-18T10:59:36.000Z</time>
      </trkpt>
      <trkpt lat="47.01326" lon="-1.76756">
        <ele>69</ele>
        <time>2021-09-18T10:59:38.000Z</time>
      </trkpt>
      <trkpt lat="47.01334" lon="-1.76742">
        <ele>70</ele>
        <time>2021-09-18T10:59:40.000Z</time>
      </trkpt>
      <trkpt lat="47.01342" lon="-1.76727">
        <ele>70</ele>
        <time>2021-09-18T10:59:42.000Z</time>
      </trkpt>
      <trkpt lat="47.0135" lon="-1.76712">
        <ele>70</ele>
        <time>2021-09-18T10:59:44.000Z</time>
      </trkpt>
      <trkpt lat="47.01356" lon="-1.76696">
        <ele>70</ele>
        <time>2021-09-18T10:59:46.000Z</time>
      </trkpt>
      <trkpt lat="47.01362" lon="-1.76679">
        <ele>70</ele>
        <time>2021-09-18T10:59:48.000Z</time>
      </trkpt>
      <trkpt lat="47.01366" lon="-1.7666">
        <ele>70</ele>
        <time>2021-09-18T10:59:50.000Z</time>
      </trkpt>
      <trkpt lat="47.0137" lon="-1.76641">
        <ele>70</ele>
        <time>2021-09-18T10:59:52.000Z</time>
      </trkpt>
      <trkpt lat="47.01374" lon="-1.76622">
        <ele>70</ele>
        <time>2021-09-18T10:59:54.000Z</time>
      </trkpt>
      <trkpt lat="47.01378" lon="-1.76603">
        <ele>70</ele>
        <time>2021-09-18T10:59:56.000Z</time>
      </trkpt>
      <trkpt lat="47.01382" lon="-1.76584">
        <ele>70</ele>
        <time>2021-09-18T10:59:58.000Z</time>
      </trkpt>
      <trkpt lat="47.01386" lon="-1.76564">
        <ele>69</ele>
        <time>2021-09-18T11:00:00.000Z</time>
      </trkpt>
      <trkpt lat="47.0139" lon="-1.76545">
        <ele>69</ele>
        <time>2021-09-18T11:00:02.000Z</time>
      </trkpt>
      <trkpt lat="47.01394" lon="-1.76525">
        <ele>69</ele>
        <time>2021-09-18T11:00:04.000Z</time>
      </trkpt>
      <trkpt lat="47.01399" lon="-1.76507">
        <ele>69</ele>
        <time>2021-09-18T11:00:06.000Z</time>
      </trkpt>
      <trkpt lat="47.01405" lon="-1.76487">
        <ele>69</ele>
        <time>2021-09-18T11:00:08.000Z</time>
      </trkpt>
      <trkpt lat="47.01411" lon="-1.76469">
        <ele>68</ele>
        <time>2021-09-18T11:00:10.000Z</time>
      </trkpt>
      <trkpt lat="47.01419" lon="-1.76451">
        <ele>68</ele>
        <time>2021-09-18T11:00:12.000Z</time>
      </trkpt>
      <trkpt lat="47.01427" lon="-1.76433">
        <ele>68</ele>
        <time>2021-09-18T11:00:14.000Z</time>
      </trkpt>
      <trkpt lat="47.01436" lon="-1.76415">
        <ele>68</ele>
        <time>2021-09-18T11:00:16.000Z</time>
      </trkpt>
      <trkpt lat="47.01444" lon="-1.76397">
        <ele>68</ele>
        <time>2021-09-18T11:00:18.000Z</time>
      </trkpt>
      <trkpt lat="47.01453" lon="-1.76379">
        <ele>68</ele>
        <time>2021-09-18T11:00:20.000Z</time>
      </trkpt>
      <trkpt lat="47.01461" lon="-1.76361">
        <ele>68</ele>
        <time>2021-09-18T11:00:22.000Z</time>
      </trkpt>
      <trkpt lat="47.0147" lon="-1.76343">
        <ele>67</ele>
        <time>2021-09-18T11:00:24.000Z</time>
      </trkpt>
      <trkpt lat="47.01477" lon="-1.76325">
        <ele>68</ele>
        <time>2021-09-18T11:00:26.000Z</time>
      </trkpt>
      <trkpt lat="47.01478" lon="-1.76303">
        <ele>67</ele>
        <time>2021-09-18T11:00:28.000Z</time>
      </trkpt>
      <trkpt lat="47.01473" lon="-1.76283">
        <ele>67</ele>
        <time>2021-09-18T11:00:30.000Z</time>
      </trkpt>
      <trkpt lat="47.01465" lon="-1.76264">
        <ele>67</ele>
        <time>2021-09-18T11:00:32.000Z</time>
      </trkpt>
      <trkpt lat="47.01458" lon="-1.76245">
        <ele>66</ele>
        <time>2021-09-18T11:00:34.000Z</time>
      </trkpt>
      <trkpt lat="47.01451" lon="-1.76227">
        <ele>66</ele>
        <time>2021-09-18T11:00:36.000Z</time>
      </trkpt>
      <trkpt lat="47.01443" lon="-1.76208">
        <ele>66</ele>
        <time>2021-09-18T11:00:38.000Z</time>
      </trkpt>
      <trkpt lat="47.01436" lon="-1.76189">
        <ele>66</ele>
        <time>2021-09-18T11:00:40.000Z</time>
      </trkpt>
      <trkpt lat="47.01429" lon="-1.76171">
        <ele>65</ele>
        <time>2021-09-18T11:00:42.000Z</time>
      </trkpt>
      <trkpt lat="47.01422" lon="-1.76152">
        <ele>65</ele>
        <time>2021-09-18T11:00:44.000Z</time>
      </trkpt>
      <trkpt lat="47.01414" lon="-1.76134">
        <ele>65</ele>
        <time>2021-09-18T11:00:46.000Z</time>
      </trkpt>
      <trkpt lat="47.01407" lon="-1.76116">
        <ele>64</ele>
        <time>2021-09-18T11:00:48.000Z</time>
      </trkpt>
      <trkpt lat="47.014" lon="-1.76097">
        <ele>65</ele>
        <time>2021-09-18T11:00:50.000Z</time>
      </trkpt>
      <trkpt lat="47.01393" lon="-1.7608">
        <ele>65</ele>
        <time>2021-09-18T11:00:52.000Z</time>
      </trkpt>
      <trkpt lat="47.01386" lon="-1.76062">
        <ele>65</ele>
        <time>2021-09-18T11:00:54.000Z</time>
      </trkpt>
      <trkpt lat="47.01379" lon="-1.76044">
        <ele>65</ele>
        <time>2021-09-18T11:00:56.000Z</time>
      </trkpt>
      <trkpt lat="47.01372" lon="-1.76026">
        <ele>65</ele>
        <time>2021-09-18T11:00:58.000Z</time>
      </trkpt>
      <trkpt lat="47.01365" lon="-1.76009">
        <ele>64</ele>
        <time>2021-09-18T11:01:00.000Z</time>
      </trkpt>
      <trkpt lat="47.01358" lon="-1.75991">
        <ele>64</ele>
        <time>2021-09-18T11:01:02.000Z</time>
      </trkpt>
      <trkpt lat="47.01352" lon="-1.75973">
        <ele>64</ele>
        <time>2021-09-18T11:01:04.000Z</time>
      </trkpt>
      <trkpt lat="47.01344" lon="-1.75955">
        <ele>64</ele>
        <time>2021-09-18T11:01:06.000Z</time>
      </trkpt>
      <trkpt lat="47.01337" lon="-1.75938">
        <ele>64</ele>
        <time>2021-09-18T11:01:08.000Z</time>
      </trkpt>
      <trkpt lat="47.0133" lon="-1.7592">
        <ele>63</ele>
        <time>2021-09-18T11:01:10.000Z</time>
      </trkpt>
      <trkpt lat="47.01323" lon="-1.75903">
        <ele>62</ele>
        <time>2021-09-18T11:01:12.000Z</time>
      </trkpt>
      <trkpt lat="47.01316" lon="-1.75884">
        <ele>62</ele>
        <time>2021-09-18T11:01:14.000Z</time>
      </trkpt>
      <trkpt lat="47.01308" lon="-1.75865">
        <ele>61</ele>
        <time>2021-09-18T11:01:16.000Z</time>
      </trkpt>
      <trkpt lat="47.01301" lon="-1.75845">
        <ele>61</ele>
        <time>2021-09-18T11:01:18.000Z</time>
      </trkpt>
      <trkpt lat="47.01293" lon="-1.75827">
        <ele>61</ele>
        <time>2021-09-18T11:01:20.000Z</time>
      </trkpt>
      <trkpt lat="47.01285" lon="-1.75808">
        <ele>61</ele>
        <time>2021-09-18T11:01:22.000Z</time>
      </trkpt>
      <trkpt lat="47.01278" lon="-1.75789">
        <ele>61</ele>
        <time>2021-09-18T11:01:24.000Z</time>
      </trkpt>
      <trkpt lat="47.01271" lon="-1.75771">
        <ele>61</ele>
        <time>2021-09-18T11:01:26.000Z</time>
      </trkpt>
      <trkpt lat="47.01263" lon="-1.75753">
        <ele>61</ele>
        <time>2021-09-18T11:01:28.000Z</time>
      </trkpt>
      <trkpt lat="47.01257" lon="-1.75734">
        <ele>61</ele>
        <time>2021-09-18T11:01:30.000Z</time>
      </trkpt>
      <trkpt lat="47.0125" lon="-1.75716">
        <ele>61</ele>
        <time>2021-09-18T11:01:32.000Z</time>
      </trkpt>
      <trkpt lat="47.01243" lon="-1.75699">
        <ele>61</ele>
        <time>2021-09-18T11:01:34.000Z</time>
      </trkpt>
      <trkpt lat="47.01236" lon="-1.75681">
        <ele>61</ele>
        <time>2021-09-18T11:01:36.000Z</time>
      </trkpt>
      <trkpt lat="47.01229" lon="-1.75665">
        <ele>62</ele>
        <time>2021-09-18T11:01:38.000Z</time>
      </trkpt>
      <trkpt lat="47.01222" lon="-1.75648">
        <ele>62</ele>
        <time>2021-09-18T11:01:40.000Z</time>
      </trkpt>
      <trkpt lat="47.01216" lon="-1.75632">
        <ele>62</ele>
        <time>2021-09-18T11:01:42.000Z</time>
      </trkpt>
      <trkpt lat="47.01209" lon="-1.75616">
        <ele>63</ele>
        <time>2021-09-18T11:01:44.000Z</time>
      </trkpt>
      <trkpt lat="47.01202" lon="-1.756">
        <ele>64</ele>
        <time>2021-09-18T11:01:46.000Z</time>
      </trkpt>
      <trkpt lat="47.01194" lon="-1.75586">
        <ele>65</ele>
        <time>2021-09-18T11:01:48.000Z</time>
      </trkpt>
      <trkpt lat="47.01188" lon="-1.75573">
        <ele>66</ele>
        <time>2021-09-18T11:01:50.000Z</time>
      </trkpt>
      <trkpt lat="47.01183" lon="-1.75555">
        <ele>66</ele>
        <time>2021-09-18T11:01:52.000Z</time>
      </trkpt>
      <trkpt lat="47.01175" lon="-1.75537">
        <ele>67</ele>
        <time>2021-09-18T11:01:54.000Z</time>
      </trkpt>
      <trkpt lat="47.01169" lon="-1.75519">
        <ele>66</ele>
        <time>2021-09-18T11:01:56.000Z</time>
      </trkpt>
      <trkpt lat="47.01162" lon="-1.75502">
        <ele>66</ele>
        <time>2021-09-18T11:01:58.000Z</time>
      </trkpt>
      <trkpt lat="47.01156" lon="-1.75485">
        <ele>67</ele>
        <time>2021-09-18T11:02:00.000Z</time>
      </trkpt>
      <trkpt lat="47.0115" lon="-1.75469">
        <ele>66</ele>
        <time>2021-09-18T11:02:02.000Z</time>
      </trkpt>
      <trkpt lat="47.01144" lon="-1.75453">
        <ele>66</ele>
        <time>2021-09-18T11:02:04.000Z</time>
      </trkpt>
      <trkpt lat="47.01138" lon="-1.75437">
        <ele>66</ele>
        <time>2021-09-18T11:02:06.000Z</time>
      </trkpt>
      <trkpt lat="47.01132" lon="-1.75421">
        <ele>66</ele>
        <time>2021-09-18T11:02:08.000Z</time>
      </trkpt>
      <trkpt lat="47.01126" lon="-1.75405">
        <ele>66</ele>
        <time>2021-09-18T11:02:10.000Z</time>
      </trkpt>
      <trkpt lat="47.0112" lon="-1.75389">
        <ele>65</ele>
        <time>2021-09-18T11:02:12.000Z</time>
      </trkpt>
      <trkpt lat="47.01113" lon="-1.75372">
        <ele>65</ele>
        <time>2021-09-18T11:02:14.000Z</time>
      </trkpt>
      <trkpt lat="47.01107" lon="-1.75356">
        <ele>65</ele>
        <time>2021-09-18T11:02:16.000Z</time>
      </trkpt>
      <trkpt lat="47.011" lon="-1.75339">
        <ele>65</ele>
        <time>2021-09-18T11:02:18.000Z</time>
      </trkpt>
      <trkpt lat="47.01094" lon="-1.75323">
        <ele>65</ele>
        <time>2021-09-18T11:02:20.000Z</time>
      </trkpt>
      <trkpt lat="47.01087" lon="-1.75307">
        <ele>65</ele>
        <time>2021-09-18T11:02:22.000Z</time>
      </trkpt>
      <trkpt lat="47.0108" lon="-1.7529">
        <ele>65</ele>
        <time>2021-09-18T11:02:24.000Z</time>
      </trkpt>
      <trkpt lat="47.01074" lon="-1.75273">
        <ele>65</ele>
        <time>2021-09-18T11:02:26.000Z</time>
      </trkpt>
      <trkpt lat="47.01067" lon="-1.75257">
        <ele>65</ele>
        <time>2021-09-18T11:02:28.000Z</time>
      </trkpt>
      <trkpt lat="47.01061" lon="-1.75241">
        <ele>65</ele>
        <time>2021-09-18T11:02:30.000Z</time>
      </trkpt>
      <trkpt lat="47.01055" lon="-1.75224">
        <ele>65</ele>
        <time>2021-09-18T11:02:32.000Z</time>
      </trkpt>
      <trkpt lat="47.0105" lon="-1.75207">
        <ele>65</ele>
        <time>2021-09-18T11:02:34.000Z</time>
      </trkpt>
      <trkpt lat="47.01047" lon="-1.7519">
        <ele>65</ele>
        <time>2021-09-18T11:02:36.000Z</time>
      </trkpt>
      <trkpt lat="47.01045" lon="-1.75172">
        <ele>65</ele>
        <time>2021-09-18T11:02:38.000Z</time>
      </trkpt>
      <trkpt lat="47.01045" lon="-1.75153">
        <ele>65</ele>
        <time>2021-09-18T11:02:40.000Z</time>
      </trkpt>
      <trkpt lat="47.01044" lon="-1.75134">
        <ele>66</ele>
        <time>2021-09-18T11:02:42.000Z</time>
      </trkpt>
      <trkpt lat="47.01044" lon="-1.75115">
        <ele>66</ele>
        <time>2021-09-18T11:02:44.000Z</time>
      </trkpt>
      <trkpt lat="47.01043" lon="-1.75096">
        <ele>66</ele>
        <time>2021-09-18T11:02:46.000Z</time>
      </trkpt>
      <trkpt lat="47.01043" lon="-1.75077">
        <ele>67</ele>
        <time>2021-09-18T11:02:48.000Z</time>
      </trkpt>
      <trkpt lat="47.01043" lon="-1.75058">
        <ele>66</ele>
        <time>2021-09-18T11:02:50.000Z</time>
      </trkpt>
      <trkpt lat="47.01043" lon="-1.75039">
        <ele>66</ele>
        <time>2021-09-18T11:02:52.000Z</time>
      </trkpt>
      <trkpt lat="47.01043" lon="-1.7502">
        <ele>66</ele>
        <time>2021-09-18T11:02:54.000Z</time>
      </trkpt>
      <trkpt lat="47.01042" lon="-1.75001">
        <ele>66</ele>
        <time>2021-09-18T11:02:56.000Z</time>
      </trkpt>
      <trkpt lat="47.01042" lon="-1.74982">
        <ele>66</ele>
        <time>2021-09-18T11:02:58.000Z</time>
      </trkpt>
      <trkpt lat="47.01042" lon="-1.74963">
        <ele>66</ele>
        <time>2021-09-18T11:03:00.000Z</time>
      </trkpt>
      <trkpt lat="47.01041" lon="-1.74944">
        <ele>66</ele>
        <time>2021-09-18T11:03:02.000Z</time>
      </trkpt>
      <trkpt lat="47.01041" lon="-1.74925">
        <ele>66</ele>
        <time>2021-09-18T11:03:04.000Z</time>
      </trkpt>
      <trkpt lat="47.01041" lon="-1.74906">
        <ele>66</ele>
        <time>2021-09-18T11:03:06.000Z</time>
      </trkpt>
      <trkpt lat="47.01041" lon="-1.74887">
        <ele>66</ele>
        <time>2021-09-18T11:03:08.000Z</time>
      </trkpt>
      <trkpt lat="47.0104" lon="-1.74868">
        <ele>66</ele>
        <time>2021-09-18T11:03:10.000Z</time>
      </trkpt>
      <trkpt lat="47.0104" lon="-1.74848">
        <ele>66</ele>
        <time>2021-09-18T11:03:12.000Z</time>
      </trkpt>
      <trkpt lat="47.0104" lon="-1.74829">
        <ele>67</ele>
        <time>2021-09-18T11:03:14.000Z</time>
      </trkpt>
      <trkpt lat="47.01039" lon="-1.7481">
        <ele>67</ele>
        <time>2021-09-18T11:03:16.000Z</time>
      </trkpt>
      <trkpt lat="47.01039" lon="-1.7479">
        <ele>67</ele>
        <time>2021-09-18T11:03:18.000Z</time>
      </trkpt>
      <trkpt lat="47.01039" lon="-1.74772">
        <ele>67</ele>
        <time>2021-09-18T11:03:20.000Z</time>
      </trkpt>
      <trkpt lat="47.01039" lon="-1.74752">
        <ele>67</ele>
        <time>2021-09-18T11:03:22.000Z</time>
      </trkpt>
      <trkpt lat="47.01038" lon="-1.74732">
        <ele>67</ele>
        <time>2021-09-18T11:03:24.000Z</time>
      </trkpt>
      <trkpt lat="47.01038" lon="-1.74712">
        <ele>67</ele>
        <time>2021-09-18T11:03:26.000Z</time>
      </trkpt>
      <trkpt lat="47.01038" lon="-1.74693">
        <ele>67</ele>
        <time>2021-09-18T11:03:28.000Z</time>
      </trkpt>
      <trkpt lat="47.01037" lon="-1.74674">
        <ele>67</ele>
        <time>2021-09-18T11:03:30.000Z</time>
      </trkpt>
      <trkpt lat="47.01037" lon="-1.74654">
        <ele>67</ele>
        <time>2021-09-18T11:03:32.000Z</time>
      </trkpt>
      <trkpt lat="47.01036" lon="-1.74634">
        <ele>67</ele>
        <time>2021-09-18T11:03:34.000Z</time>
      </trkpt>
      <trkpt lat="47.01036" lon="-1.74614">
        <ele>67</ele>
        <time>2021-09-18T11:03:36.000Z</time>
      </trkpt>
      <trkpt lat="47.01036" lon="-1.74594">
        <ele>67</ele>
        <time>2021-09-18T11:03:38.000Z</time>
      </trkpt>
      <trkpt lat="47.01036" lon="-1.74574">
        <ele>67</ele>
        <time>2021-09-18T11:03:40.000Z</time>
      </trkpt>
      <trkpt lat="47.01038" lon="-1.74554">
        <ele>66</ele>
        <time>2021-09-18T11:03:42.000Z</time>
      </trkpt>
      <trkpt lat="47.01041" lon="-1.74535">
        <ele>66</ele>
        <time>2021-09-18T11:03:44.000Z</time>
      </trkpt>
      <trkpt lat="47.01048" lon="-1.74517">
        <ele>66</ele>
        <time>2021-09-18T11:03:46.000Z</time>
      </trkpt>
      <trkpt lat="47.01054" lon="-1.74499">
        <ele>66</ele>
        <time>2021-09-18T11:03:48.000Z</time>
      </trkpt>
      <trkpt lat="47.01061" lon="-1.7448">
        <ele>66</ele>
        <time>2021-09-18T11:03:50.000Z</time>
      </trkpt>
      <trkpt lat="47.01067" lon="-1.74463">
        <ele>66</ele>
        <time>2021-09-18T11:03:52.000Z</time>
      </trkpt>
      <trkpt lat="47.01073" lon="-1.74444">
        <ele>65</ele>
        <time>2021-09-18T11:03:54.000Z</time>
      </trkpt>
      <trkpt lat="47.01078" lon="-1.74424">
        <ele>65</ele>
        <time>2021-09-18T11:03:56.000Z</time>
      </trkpt>
      <trkpt lat="47.01083" lon="-1.74405">
        <ele>65</ele>
        <time>2021-09-18T11:03:58.000Z</time>
      </trkpt>
      <trkpt lat="47.01089" lon="-1.74385">
        <ele>65</ele>
        <time>2021-09-18T11:04:00.000Z</time>
      </trkpt>
      <trkpt lat="47.01093" lon="-1.74365">
        <ele>65</ele>
        <time>2021-09-18T11:04:02.000Z</time>
      </trkpt>
      <trkpt lat="47.01099" lon="-1.74346">
        <ele>65</ele>
        <time>2021-09-18T11:04:04.000Z</time>
      </trkpt>
      <trkpt lat="47.01104" lon="-1.74326">
        <ele>65</ele>
        <time>2021-09-18T11:04:06.000Z</time>
      </trkpt>
      <trkpt lat="47.01109" lon="-1.74306">
        <ele>65</ele>
        <time>2021-09-18T11:04:08.000Z</time>
      </trkpt>
      <trkpt lat="47.01114" lon="-1.74287">
        <ele>65</ele>
        <time>2021-09-18T11:04:10.000Z</time>
      </trkpt>
      <trkpt lat="47.01119" lon="-1.74267">
        <ele>65</ele>
        <time>2021-09-18T11:04:12.000Z</time>
      </trkpt>
      <trkpt lat="47.01124" lon="-1.74248">
        <ele>65</ele>
        <time>2021-09-18T11:04:14.000Z</time>
      </trkpt>
      <trkpt lat="47.01129" lon="-1.74228">
        <ele>64</ele>
        <time>2021-09-18T11:04:16.000Z</time>
      </trkpt>
      <trkpt lat="47.01134" lon="-1.74208">
        <ele>65</ele>
        <time>2021-09-18T11:04:18.000Z</time>
      </trkpt>
      <trkpt lat="47.01139" lon="-1.74189">
        <ele>66</ele>
        <time>2021-09-18T11:04:20.000Z</time>
      </trkpt>
      <trkpt lat="47.01143" lon="-1.7417">
        <ele>67</ele>
        <time>2021-09-18T11:04:22.000Z</time>
      </trkpt>
      <trkpt lat="47.01148" lon="-1.74151">
        <ele>67</ele>
        <time>2021-09-18T11:04:24.000Z</time>
      </trkpt>
      <trkpt lat="47.01153" lon="-1.74132">
        <ele>68</ele>
        <time>2021-09-18T11:04:26.000Z</time>
      </trkpt>
      <trkpt lat="47.01157" lon="-1.74113">
        <ele>68</ele>
        <time>2021-09-18T11:04:28.000Z</time>
      </trkpt>
      <trkpt lat="47.01162" lon="-1.74095">
        <ele>68</ele>
        <time>2021-09-18T11:04:30.000Z</time>
      </trkpt>
      <trkpt lat="47.01166" lon="-1.74076">
        <ele>69</ele>
        <time>2021-09-18T11:04:32.000Z</time>
      </trkpt>
      <trkpt lat="47.01171" lon="-1.74057">
        <ele>68</ele>
        <time>2021-09-18T11:04:34.000Z</time>
      </trkpt>
      <trkpt lat="47.01175" lon="-1.74039">
        <ele>69</ele>
        <time>2021-09-18T11:04:36.000Z</time>
      </trkpt>
      <trkpt lat="47.0118" lon="-1.74021">
        <ele>69</ele>
        <time>2021-09-18T11:04:38.000Z</time>
      </trkpt>
      <trkpt lat="47.01184" lon="-1.74004">
        <ele>69</ele>
        <time>2021-09-18T11:04:40.000Z</time>
      </trkpt>
      <trkpt lat="47.01189" lon="-1.73987">
        <ele>69</ele>
        <time>2021-09-18T11:04:42.000Z</time>
      </trkpt>
      <trkpt lat="47.01194" lon="-1.7397">
        <ele>70</ele>
        <time>2021-09-18T11:04:44.000Z</time>
      </trkpt>
      <trkpt lat="47.01196" lon="-1.73953">
        <ele>70</ele>
        <time>2021-09-18T11:04:46.000Z</time>
      </trkpt>
      <trkpt lat="47.012" lon="-1.73933">
        <ele>70</ele>
        <time>2021-09-18T11:04:48.000Z</time>
      </trkpt>
      <trkpt lat="47.01203" lon="-1.73916">
        <ele>70</ele>
        <time>2021-09-18T11:04:50.000Z</time>
      </trkpt>
      <trkpt lat="47.01205" lon="-1.73898">
        <ele>70</ele>
        <time>2021-09-18T11:04:52.000Z</time>
      </trkpt>
      <trkpt lat="47.01206" lon="-1.7388">
        <ele>70</ele>
        <time>2021-09-18T11:04:54.000Z</time>
      </trkpt>
      <trkpt lat="47.01206" lon="-1.73861">
        <ele>70</ele>
        <time>2021-09-18T11:04:56.000Z</time>
      </trkpt>
      <trkpt lat="47.01207" lon="-1.73843">
        <ele>70</ele>
        <time>2021-09-18T11:04:58.000Z</time>
      </trkpt>
      <trkpt lat="47.01208" lon="-1.73824">
        <ele>70</ele>
        <time>2021-09-18T11:05:00.000Z</time>
      </trkpt>
      <trkpt lat="47.01209" lon="-1.73805">
        <ele>69</ele>
        <time>2021-09-18T11:05:02.000Z</time>
      </trkpt>
      <trkpt lat="47.0121" lon="-1.73786">
        <ele>69</ele>
        <time>2021-09-18T11:05:04.000Z</time>
      </trkpt>
      <trkpt lat="47.01211" lon="-1.73768">
        <ele>69</ele>
        <time>2021-09-18T11:05:06.000Z</time>
      </trkpt>
      <trkpt lat="47.01211" lon="-1.73749">
        <ele>69</ele>
        <time>2021-09-18T11:05:08.000Z</time>
      </trkpt>
      <trkpt lat="47.01212" lon="-1.7373">
        <ele>69</ele>
        <time>2021-09-18T11:05:10.000Z</time>
      </trkpt>
      <trkpt lat="47.01214" lon="-1.73712">
        <ele>69</ele>
        <time>2021-09-18T11:05:12.000Z</time>
      </trkpt>
      <trkpt lat="47.01215" lon="-1.73694">
        <ele>69</ele>
        <time>2021-09-18T11:05:14.000Z</time>
      </trkpt>
      <trkpt lat="47.01215" lon="-1.73676">
        <ele>69</ele>
        <time>2021-09-18T11:05:16.000Z</time>
      </trkpt>
      <trkpt lat="47.01217" lon="-1.73658">
        <ele>69</ele>
        <time>2021-09-18T11:05:18.000Z</time>
      </trkpt>
      <trkpt lat="47.01218" lon="-1.73641">
        <ele>69</ele>
        <time>2021-09-18T11:05:20.000Z</time>
      </trkpt>
      <trkpt lat="47.01218" lon="-1.73622">
        <ele>69</ele>
        <time>2021-09-18T11:05:22.000Z</time>
      </trkpt>
      <trkpt lat="47.01219" lon="-1.73604">
        <ele>69</ele>
        <time>2021-09-18T11:05:24.000Z</time>
      </trkpt>
      <trkpt lat="47.0122" lon="-1.73586">
        <ele>69</ele>
        <time>2021-09-18T11:05:26.000Z</time>
      </trkpt>
      <trkpt lat="47.0122" lon="-1.73568">
        <ele>69</ele>
        <time>2021-09-18T11:05:28.000Z</time>
      </trkpt>
      <trkpt lat="47.01221" lon="-1.7355">
        <ele>70</ele>
        <time>2021-09-18T11:05:30.000Z</time>
      </trkpt>
      <trkpt lat="47.01222" lon="-1.73533">
        <ele>70</ele>
        <time>2021-09-18T11:05:32.000Z</time>
      </trkpt>
      <trkpt lat="47.01223" lon="-1.73517">
        <ele>69</ele>
        <time>2021-09-18T11:05:34.000Z</time>
      </trkpt>
      <trkpt lat="47.01224" lon="-1.73502">
        <ele>69</ele>
        <time>2021-09-18T11:05:36.000Z</time>
      </trkpt>
      <trkpt lat="47.01218" lon="-1.73485">
        <ele>69</ele>
        <time>2021-09-18T11:05:39.000Z</time>
      </trkpt>
      <trkpt lat="47.01208" lon="-1.73481">
        <ele>69</ele>
        <time>2021-09-18T11:05:41.000Z</time>
      </trkpt>
      <trkpt lat="47.01195" lon="-1.73478">
        <ele>68</ele>
        <time>2021-09-18T11:05:43.000Z</time>
      </trkpt>
      <trkpt lat="47.01183" lon="-1.73475">
        <ele>68</ele>
        <time>2021-09-18T11:05:45.000Z</time>
      </trkpt>
      <trkpt lat="47.01171" lon="-1.73472">
        <ele>68</ele>
        <time>2021-09-18T11:05:47.000Z</time>
      </trkpt>
      <trkpt lat="47.01158" lon="-1.73468">
        <ele>67</ele>
        <time>2021-09-18T11:05:49.000Z</time>
      </trkpt>
      <trkpt lat="47.01145" lon="-1.73465">
        <ele>67</ele>
        <time>2021-09-18T11:05:51.000Z</time>
      </trkpt>
      <trkpt lat="47.01132" lon="-1.7346">
        <ele>67</ele>
        <time>2021-09-18T11:05:53.000Z</time>
      </trkpt>
      <trkpt lat="47.0112" lon="-1.73456">
        <ele>67</ele>
        <time>2021-09-18T11:05:55.000Z</time>
      </trkpt>
      <trkpt lat="47.01108" lon="-1.73452">
        <ele>67</ele>
        <time>2021-09-18T11:05:57.000Z</time>
      </trkpt>
      <trkpt lat="47.01101" lon="-1.73441">
        <ele>67</ele>
        <time>2021-09-18T11:05:59.000Z</time>
      </trkpt>
      <trkpt lat="47.01105" lon="-1.73424">
        <ele>67</ele>
        <time>2021-09-18T11:06:01.000Z</time>
      </trkpt>
      <trkpt lat="47.01112" lon="-1.73408">
        <ele>68</ele>
        <time>2021-09-18T11:06:03.000Z</time>
      </trkpt>
      <trkpt lat="47.01119" lon="-1.73393">
        <ele>68</ele>
        <time>2021-09-18T11:06:05.000Z</time>
      </trkpt>
      <trkpt lat="47.01125" lon="-1.73378">
        <ele>69</ele>
        <time>2021-09-18T11:06:07.000Z</time>
      </trkpt>
      <trkpt lat="47.01132" lon="-1.73362">
        <ele>69</ele>
        <time>2021-09-18T11:06:09.000Z</time>
      </trkpt>
      <trkpt lat="47.01138" lon="-1.73346">
        <ele>69</ele>
        <time>2021-09-18T11:06:11.000Z</time>
      </trkpt>
      <trkpt lat="47.01145" lon="-1.73331">
        <ele>69</ele>
        <time>2021-09-18T11:06:13.000Z</time>
      </trkpt>
      <trkpt lat="47.01152" lon="-1.73316">
        <ele>69</ele>
        <time>2021-09-18T11:06:15.000Z</time>
      </trkpt>
      <trkpt lat="47.01159" lon="-1.733">
        <ele>69</ele>
        <time>2021-09-18T11:06:17.000Z</time>
      </trkpt>
      <trkpt lat="47.01165" lon="-1.73285">
        <ele>70</ele>
        <time>2021-09-18T11:06:19.000Z</time>
      </trkpt>
      <trkpt lat="47.01172" lon="-1.73269">
        <ele>70</ele>
        <time>2021-09-18T11:06:21.000Z</time>
      </trkpt>
      <trkpt lat="47.01179" lon="-1.73254">
        <ele>70</ele>
        <time>2021-09-18T11:06:23.000Z</time>
      </trkpt>
      <trkpt lat="47.01186" lon="-1.73239">
        <ele>70</ele>
        <time>2021-09-18T11:06:25.000Z</time>
      </trkpt>
      <trkpt lat="47.01193" lon="-1.73224">
        <ele>71</ele>
        <time>2021-09-18T11:06:27.000Z</time>
      </trkpt>
      <trkpt lat="47.012" lon="-1.73209">
        <ele>71</ele>
        <time>2021-09-18T11:06:29.000Z</time>
      </trkpt>
      <trkpt lat="47.01206" lon="-1.73192">
        <ele>71</ele>
        <time>2021-09-18T11:06:31.000Z</time>
      </trkpt>
      <trkpt lat="47.01213" lon="-1.73176">
        <ele>71</ele>
        <time>2021-09-18T11:06:33.000Z</time>
      </trkpt>
      <trkpt lat="47.0122" lon="-1.73161">
        <ele>71</ele>
        <time>2021-09-18T11:06:35.000Z</time>
      </trkpt>
      <trkpt lat="47.01227" lon="-1.73144">
        <ele>70</ele>
        <time>2021-09-18T11:06:37.000Z</time>
      </trkpt>
      <trkpt lat="47.01234" lon="-1.73128">
        <ele>70</ele>
        <time>2021-09-18T11:06:39.000Z</time>
      </trkpt>
      <trkpt lat="47.01241" lon="-1.73112">
        <ele>70</ele>
        <time>2021-09-18T11:06:41.000Z</time>
      </trkpt>
      <trkpt lat="47.01248" lon="-1.73096">
        <ele>70</ele>
        <time>2021-09-18T11:06:43.000Z</time>
      </trkpt>
      <trkpt lat="47.01255" lon="-1.7308">
        <ele>70</ele>
        <time>2021-09-18T11:06:45.000Z</time>
      </trkpt>
      <trkpt lat="47.01262" lon="-1.73064">
        <ele>70</ele>
        <time>2021-09-18T11:06:47.000Z</time>
      </trkpt>
      <trkpt lat="47.0127" lon="-1.73047">
        <ele>71</ele>
        <time>2021-09-18T11:06:49.000Z</time>
      </trkpt>
      <trkpt lat="47.01277" lon="-1.73031">
        <ele>71</ele>
        <time>2021-09-18T11:06:51.000Z</time>
      </trkpt>
      <trkpt lat="47.01284" lon="-1.73014">
        <ele>71</ele>
        <time>2021-09-18T11:06:53.000Z</time>
      </trkpt>
      <trkpt lat="47.01291" lon="-1.72997">
        <ele>71</ele>
        <time>2021-09-18T11:06:55.000Z</time>
      </trkpt>
      <trkpt lat="47.01299" lon="-1.7298">
        <ele>71</ele>
        <time>2021-09-18T11:06:57.000Z</time>
      </trkpt>
      <trkpt lat="47.01306" lon="-1.72963">
        <ele>71</ele>
        <time>2021-09-18T11:06:59.000Z</time>
      </trkpt>
      <trkpt lat="47.01313" lon="-1.72946">
        <ele>72</ele>
        <time>2021-09-18T11:07:01.000Z</time>
      </trkpt>
      <trkpt lat="47.01321" lon="-1.7293">
        <ele>72</ele>
        <time>2021-09-18T11:07:03.000Z</time>
      </trkpt>
      <trkpt lat="47.01328" lon="-1.72914">
        <ele>72</ele>
        <time>2021-09-18T11:07:05.000Z</time>
      </trkpt>
      <trkpt lat="47.01335" lon="-1.72898">
        <ele>72</ele>
        <time>2021-09-18T11:07:07.000Z</time>
      </trkpt>
      <trkpt lat="47.01342" lon="-1.72881">
        <ele>72</ele>
        <time>2021-09-18T11:07:09.000Z</time>
      </trkpt>
      <trkpt lat="47.01349" lon="-1.72865">
        <ele>72</ele>
        <time>2021-09-18T11:07:11.000Z</time>
      </trkpt>
      <trkpt lat="47.01356" lon="-1.72849">
        <ele>72</ele>
        <time>2021-09-18T11:07:13.000Z</time>
      </trkpt>
      <trkpt lat="47.01363" lon="-1.72832">
        <ele>72</ele>
        <time>2021-09-18T11:07:15.000Z</time>
      </trkpt>
      <trkpt lat="47.01371" lon="-1.72815">
        <ele>72</ele>
        <time>2021-09-18T11:07:17.000Z</time>
      </trkpt>
      <trkpt lat="47.01378" lon="-1.728">
        <ele>72</ele>
        <time>2021-09-18T11:07:19.000Z</time>
      </trkpt>
      <trkpt lat="47.01385" lon="-1.72784">
        <ele>73</ele>
        <time>2021-09-18T11:07:21.000Z</time>
      </trkpt>
      <trkpt lat="47.01392" lon="-1.72767">
        <ele>73</ele>
        <time>2021-09-18T11:07:23.000Z</time>
      </trkpt>
      <trkpt lat="47.01399" lon="-1.72751">
        <ele>73</ele>
        <time>2021-09-18T11:07:25.000Z</time>
      </trkpt>
      <trkpt lat="47.01405" lon="-1.72736">
        <ele>73</ele>
        <time>2021-09-18T11:07:27.000Z</time>
      </trkpt>
      <trkpt lat="47.01412" lon="-1.7272">
        <ele>74</ele>
        <time>2021-09-18T11:07:29.000Z</time>
      </trkpt>
      <trkpt lat="47.01418" lon="-1.72703">
        <ele>74</ele>
        <time>2021-09-18T11:07:31.000Z</time>
      </trkpt>
      <trkpt lat="47.01425" lon="-1.72687">
        <ele>74</ele>
        <time>2021-09-18T11:07:33.000Z</time>
      </trkpt>
      <trkpt lat="47.01432" lon="-1.72671">
        <ele>74</ele>
        <time>2021-09-18T11:07:35.000Z</time>
      </trkpt>
      <trkpt lat="47.01439" lon="-1.72655">
        <ele>74</ele>
        <time>2021-09-18T11:07:37.000Z</time>
      </trkpt>
      <trkpt lat="47.01446" lon="-1.72638">
        <ele>75</ele>
        <time>2021-09-18T11:07:39.000Z</time>
      </trkpt>
      <trkpt lat="47.01453" lon="-1.72621">
        <ele>75</ele>
        <time>2021-09-18T11:07:41.000Z</time>
      </trkpt>
      <trkpt lat="47.0146" lon="-1.72605">
        <ele>75</ele>
        <time>2021-09-18T11:07:43.000Z</time>
      </trkpt>
      <trkpt lat="47.01467" lon="-1.72589">
        <ele>75</ele>
        <time>2021-09-18T11:07:45.000Z</time>
      </trkpt>
      <trkpt lat="47.01474" lon="-1.72573">
        <ele>76</ele>
        <time>2021-09-18T11:07:47.000Z</time>
      </trkpt>
      <trkpt lat="47.01481" lon="-1.72558">
        <ele>76</ele>
        <time>2021-09-18T11:07:49.000Z</time>
      </trkpt>
      <trkpt lat="47.01489" lon="-1.72543">
        <ele>76</ele>
        <time>2021-09-18T11:07:51.000Z</time>
      </trkpt>
      <trkpt lat="47.01496" lon="-1.72527">
        <ele>75</ele>
        <time>2021-09-18T11:07:53.000Z</time>
      </trkpt>
      <trkpt lat="47.01503" lon="-1.72511">
        <ele>75</ele>
        <time>2021-09-18T11:07:55.000Z</time>
      </trkpt>
      <trkpt lat="47.0151" lon="-1.72495">
        <ele>75</ele>
        <time>2021-09-18T11:07:57.000Z</time>
      </trkpt>
      <trkpt lat="47.01517" lon="-1.72478">
        <ele>76</ele>
        <time>2021-09-18T11:07:59.000Z</time>
      </trkpt>
      <trkpt lat="47.01527" lon="-1.72455">
        <ele>76</ele>
        <time>2021-09-18T11:08:02.000Z</time>
      </trkpt>
      <trkpt lat="47.01534" lon="-1.72439">
        <ele>76</ele>
        <time>2021-09-18T11:08:04.000Z</time>
      </trkpt>
      <trkpt lat="47.01541" lon="-1.72424">
        <ele>76</ele>
        <time>2021-09-18T11:08:06.000Z</time>
      </trkpt>
      <trkpt lat="47.01551" lon="-1.724">
        <ele>76</ele>
        <time>2021-09-18T11:08:09.000Z</time>
      </trkpt>
      <trkpt lat="47.01558" lon="-1.72384">
        <ele>77</ele>
        <time>2021-09-18T11:08:11.000Z</time>
      </trkpt>
      <trkpt lat="47.01565" lon="-1.72368">
        <ele>77</ele>
        <time>2021-09-18T11:08:13.000Z</time>
      </trkpt>
      <trkpt lat="47.01572" lon="-1.72352">
        <ele>77</ele>
        <time>2021-09-18T11:08:15.000Z</time>
      </trkpt>
      <trkpt lat="47.01578" lon="-1.72336">
        <ele>77</ele>
        <time>2021-09-18T11:08:17.000Z</time>
      </trkpt>
      <trkpt lat="47.01586" lon="-1.7232">
        <ele>77</ele>
        <time>2021-09-18T11:08:19.000Z</time>
      </trkpt>
      <trkpt lat="47.01593" lon="-1.72304">
        <ele>77</ele>
        <time>2021-09-18T11:08:21.000Z</time>
      </trkpt>
      <trkpt lat="47.016" lon="-1.72287">
        <ele>77</ele>
        <time>2021-09-18T11:08:23.000Z</time>
      </trkpt>
      <trkpt lat="47.01606" lon="-1.72271">
        <ele>77</ele>
        <time>2021-09-18T11:08:25.000Z</time>
      </trkpt>
      <trkpt lat="47.01612" lon="-1.72255">
        <ele>77</ele>
        <time>2021-09-18T11:08:27.000Z</time>
      </trkpt>
      <trkpt lat="47.01618" lon="-1.7224">
        <ele>77</ele>
        <time>2021-09-18T11:08:29.000Z</time>
      </trkpt>
      <trkpt lat="47.01624" lon="-1.72224">
        <ele>77</ele>
        <time>2021-09-18T11:08:31.000Z</time>
      </trkpt>
      <trkpt lat="47.01629" lon="-1.72208">
        <ele>78</ele>
        <time>2021-09-18T11:08:33.000Z</time>
      </trkpt>
      <trkpt lat="47.01635" lon="-1.72192">
        <ele>78</ele>
        <time>2021-09-18T11:08:35.000Z</time>
      </trkpt>
      <trkpt lat="47.0164" lon="-1.72175">
        <ele>77</ele>
        <time>2021-09-18T11:08:37.000Z</time>
      </trkpt>
      <trkpt lat="47.01646" lon="-1.72158">
        <ele>77</ele>
        <time>2021-09-18T11:08:39.000Z</time>
      </trkpt>
      <trkpt lat="47.01651" lon="-1.72142">
        <ele>77</ele>
        <time>2021-09-18T11:08:41.000Z</time>
      </trkpt>
      <trkpt lat="47.01658" lon="-1.72125">
        <ele>77</ele>
        <time>2021-09-18T11:08:43.000Z</time>
      </trkpt>
      <trkpt lat="47.01664" lon="-1.72107">
        <ele>77</ele>
        <time>2021-09-18T11:08:45.000Z</time>
      </trkpt>
      <trkpt lat="47.01669" lon="-1.7209">
        <ele>77</ele>
        <time>2021-09-18T11:08:47.000Z</time>
      </trkpt>
      <trkpt lat="47.01675" lon="-1.72073">
        <ele>77</ele>
        <time>2021-09-18T11:08:49.000Z</time>
      </trkpt>
      <trkpt lat="47.01681" lon="-1.72056">
        <ele>77</ele>
        <time>2021-09-18T11:08:51.000Z</time>
      </trkpt>
      <trkpt lat="47.01687" lon="-1.7204">
        <ele>78</ele>
        <time>2021-09-18T11:08:53.000Z</time>
      </trkpt>
      <trkpt lat="47.01692" lon="-1.72023">
        <ele>78</ele>
        <time>2021-09-18T11:08:55.000Z</time>
      </trkpt>
      <trkpt lat="47.01698" lon="-1.72007">
        <ele>79</ele>
        <time>2021-09-18T11:08:57.000Z</time>
      </trkpt>
      <trkpt lat="47.01703" lon="-1.71989">
        <ele>78</ele>
        <time>2021-09-18T11:08:59.000Z</time>
      </trkpt>
      <trkpt lat="47.01709" lon="-1.71973">
        <ele>78</ele>
        <time>2021-09-18T11:09:01.000Z</time>
      </trkpt>
      <trkpt lat="47.01715" lon="-1.71956">
        <ele>78</ele>
        <time>2021-09-18T11:09:03.000Z</time>
      </trkpt>
      <trkpt lat="47.0172" lon="-1.71939">
        <ele>79</ele>
        <time>2021-09-18T11:09:05.000Z</time>
      </trkpt>
      <trkpt lat="47.01726" lon="-1.71923">
        <ele>79</ele>
        <time>2021-09-18T11:09:07.000Z</time>
      </trkpt>
      <trkpt lat="47.01732" lon="-1.71906">
        <ele>79</ele>
        <time>2021-09-18T11:09:09.000Z</time>
      </trkpt>
      <trkpt lat="47.01738" lon="-1.71888">
        <ele>79</ele>
        <time>2021-09-18T11:09:11.000Z</time>
      </trkpt>
      <trkpt lat="47.01743" lon="-1.71871">
        <ele>79</ele>
        <time>2021-09-18T11:09:13.000Z</time>
      </trkpt>
      <trkpt lat="47.01749" lon="-1.71854">
        <ele>80</ele>
        <time>2021-09-18T11:09:15.000Z</time>
      </trkpt>
      <trkpt lat="47.01755" lon="-1.71836">
        <ele>80</ele>
        <time>2021-09-18T11:09:17.000Z</time>
      </trkpt>
      <trkpt lat="47.0176" lon="-1.7182">
        <ele>80</ele>
        <time>2021-09-18T11:09:19.000Z</time>
      </trkpt>
      <trkpt lat="47.01766" lon="-1.71803">
        <ele>81</ele>
        <time>2021-09-18T11:09:21.000Z</time>
      </trkpt>
      <trkpt lat="47.01772" lon="-1.71786">
        <ele>81</ele>
        <time>2021-09-18T11:09:23.000Z</time>
      </trkpt>
      <trkpt lat="47.01778" lon="-1.71769">
        <ele>81</ele>
        <time>2021-09-18T11:09:25.000Z</time>
      </trkpt>
      <trkpt lat="47.01783" lon="-1.71753">
        <ele>81</ele>
        <time>2021-09-18T11:09:27.000Z</time>
      </trkpt>
      <trkpt lat="47.01789" lon="-1.71737">
        <ele>81</ele>
        <time>2021-09-18T11:09:29.000Z</time>
      </trkpt>
      <trkpt lat="47.01795" lon="-1.7172">
        <ele>80</ele>
        <time>2021-09-18T11:09:31.000Z</time>
      </trkpt>
      <trkpt lat="47.018" lon="-1.71703">
        <ele>80</ele>
        <time>2021-09-18T11:09:33.000Z</time>
      </trkpt>
      <trkpt lat="47.01805" lon="-1.71685">
        <ele>80</ele>
        <time>2021-09-18T11:09:35.000Z</time>
      </trkpt>
      <trkpt lat="47.01811" lon="-1.71668">
        <ele>80</ele>
        <time>2021-09-18T11:09:37.000Z</time>
      </trkpt>
      <trkpt lat="47.01817" lon="-1.7165">
        <ele>81</ele>
        <time>2021-09-18T11:09:39.000Z</time>
      </trkpt>
      <trkpt lat="47.01823" lon="-1.71632">
        <ele>81</ele>
        <time>2021-09-18T11:09:41.000Z</time>
      </trkpt>
      <trkpt lat="47.0183" lon="-1.71615">
        <ele>81</ele>
        <time>2021-09-18T11:09:43.000Z</time>
      </trkpt>
      <trkpt lat="47.01839" lon="-1.71599">
        <ele>82</ele>
        <time>2021-09-18T11:09:45.000Z</time>
      </trkpt>
      <trkpt lat="47.01847" lon="-1.71584">
        <ele>82</ele>
        <time>2021-09-18T11:09:47.000Z</time>
      </trkpt>
      <trkpt lat="47.01856" lon="-1.71569">
        <ele>82</ele>
        <time>2021-09-18T11:09:49.000Z</time>
      </trkpt>
      <trkpt lat="47.01865" lon="-1.71554">
        <ele>81</ele>
        <time>2021-09-18T11:09:51.000Z</time>
      </trkpt>
      <trkpt lat="47.01875" lon="-1.71539">
        <ele>81</ele>
        <time>2021-09-18T11:09:53.000Z</time>
      </trkpt>
      <trkpt lat="47.01884" lon="-1.71524">
        <ele>81</ele>
        <time>2021-09-18T11:09:55.000Z</time>
      </trkpt>
      <trkpt lat="47.01894" lon="-1.71509">
        <ele>81</ele>
        <time>2021-09-18T11:09:57.000Z</time>
      </trkpt>
      <trkpt lat="47.01904" lon="-1.71494">
        <ele>81</ele>
        <time>2021-09-18T11:09:59.000Z</time>
      </trkpt>
      <trkpt lat="47.01914" lon="-1.71479">
        <ele>81</ele>
        <time>2021-09-18T11:10:01.000Z</time>
      </trkpt>
      <trkpt lat="47.01924" lon="-1.71464">
        <ele>80</ele>
        <time>2021-09-18T11:10:03.000Z</time>
      </trkpt>
      <trkpt lat="47.01934" lon="-1.71449">
        <ele>80</ele>
        <time>2021-09-18T11:10:05.000Z</time>
      </trkpt>
      <trkpt lat="47.01943" lon="-1.71434">
        <ele>80</ele>
        <time>2021-09-18T11:10:07.000Z</time>
      </trkpt>
      <trkpt lat="47.01953" lon="-1.71419">
        <ele>80</ele>
        <time>2021-09-18T11:10:09.000Z</time>
      </trkpt>
      <trkpt lat="47.01963" lon="-1.71404">
        <ele>80</ele>
        <time>2021-09-18T11:10:11.000Z</time>
      </trkpt>
      <trkpt lat="47.01973" lon="-1.71389">
        <ele>80</ele>
        <time>2021-09-18T11:10:13.000Z</time>
      </trkpt>
      <trkpt lat="47.01983" lon="-1.71375">
        <ele>80</ele>
        <time>2021-09-18T11:10:15.000Z</time>
      </trkpt>
      <trkpt lat="47.01994" lon="-1.71362">
        <ele>80</ele>
        <time>2021-09-18T11:10:17.000Z</time>
      </trkpt>
      <trkpt lat="47.02005" lon="-1.71349">
        <ele>80</ele>
        <time>2021-09-18T11:10:19.000Z</time>
      </trkpt>
      <trkpt lat="47.02017" lon="-1.71336">
        <ele>80</ele>
        <time>2021-09-18T11:10:21.000Z</time>
      </trkpt>
      <trkpt lat="47.02029" lon="-1.71323">
        <ele>80</ele>
        <time>2021-09-18T11:10:23.000Z</time>
      </trkpt>
      <trkpt lat="47.0204" lon="-1.71309">
        <ele>80</ele>
        <time>2021-09-18T11:10:25.000Z</time>
      </trkpt>
      <trkpt lat="47.02049" lon="-1.71294">
        <ele>80</ele>
        <time>2021-09-18T11:10:27.000Z</time>
      </trkpt>
      <trkpt lat="47.02058" lon="-1.71277">
        <ele>80</ele>
        <time>2021-09-18T11:10:29.000Z</time>
      </trkpt>
      <trkpt lat="47.02066" lon="-1.71261">
        <ele>79</ele>
        <time>2021-09-18T11:10:31.000Z</time>
      </trkpt>
      <trkpt lat="47.02074" lon="-1.71244">
        <ele>80</ele>
        <time>2021-09-18T11:10:33.000Z</time>
      </trkpt>
      <trkpt lat="47.02081" lon="-1.71228">
        <ele>80</ele>
        <time>2021-09-18T11:10:35.000Z</time>
      </trkpt>
      <trkpt lat="47.02089" lon="-1.71211">
        <ele>80</ele>
        <time>2021-09-18T11:10:37.000Z</time>
      </trkpt>
      <trkpt lat="47.02097" lon="-1.71194">
        <ele>79</ele>
        <time>2021-09-18T11:10:39.000Z</time>
      </trkpt>
      <trkpt lat="47.02104" lon="-1.71176">
        <ele>78</ele>
        <time>2021-09-18T11:10:41.000Z</time>
      </trkpt>
      <trkpt lat="47.0211" lon="-1.71158">
        <ele>78</ele>
        <time>2021-09-18T11:10:43.000Z</time>
      </trkpt>
      <trkpt lat="47.02116" lon="-1.71139">
        <ele>78</ele>
        <time>2021-09-18T11:10:45.000Z</time>
      </trkpt>
      <trkpt lat="47.02122" lon="-1.71121">
        <ele>78</ele>
        <time>2021-09-18T11:10:47.000Z</time>
      </trkpt>
      <trkpt lat="47.02129" lon="-1.71103">
        <ele>78</ele>
        <time>2021-09-18T11:10:49.000Z</time>
      </trkpt>
      <trkpt lat="47.02136" lon="-1.71086">
        <ele>78</ele>
        <time>2021-09-18T11:10:51.000Z</time>
      </trkpt>
      <trkpt lat="47.02145" lon="-1.71068">
        <ele>79</ele>
        <time>2021-09-18T11:10:53.000Z</time>
      </trkpt>
      <trkpt lat="47.02153" lon="-1.71052">
        <ele>79</ele>
        <time>2021-09-18T11:10:55.000Z</time>
      </trkpt>
      <trkpt lat="47.02161" lon="-1.71035">
        <ele>78</ele>
        <time>2021-09-18T11:10:57.000Z</time>
      </trkpt>
      <trkpt lat="47.0217" lon="-1.71019">
        <ele>78</ele>
        <time>2021-09-18T11:10:59.000Z</time>
      </trkpt>
      <trkpt lat="47.02178" lon="-1.71002">
        <ele>78</ele>
        <time>2021-09-18T11:11:01.000Z</time>
      </trkpt>
      <trkpt lat="47.02187" lon="-1.70986">
        <ele>78</ele>
        <time>2021-09-18T11:11:03.000Z</time>
      </trkpt>
      <trkpt lat="47.02196" lon="-1.7097">
        <ele>77</ele>
        <time>2021-09-18T11:11:05.000Z</time>
      </trkpt>
      <trkpt lat="47.02205" lon="-1.70954">
        <ele>77</ele>
        <time>2021-09-18T11:11:07.000Z</time>
      </trkpt>
      <trkpt lat="47.02214" lon="-1.70937">
        <ele>78</ele>
        <time>2021-09-18T11:11:09.000Z</time>
      </trkpt>
      <trkpt lat="47.02223" lon="-1.70921">
        <ele>78</ele>
        <time>2021-09-18T11:11:11.000Z</time>
      </trkpt>
      <trkpt lat="47.02233" lon="-1.70906">
        <ele>78</ele>
        <time>2021-09-18T11:11:13.000Z</time>
      </trkpt>
      <trkpt lat="47.02243" lon="-1.7089">
        <ele>78</ele>
        <time>2021-09-18T11:11:15.000Z</time>
      </trkpt>
      <trkpt lat="47.02253" lon="-1.70875">
        <ele>78</ele>
        <time>2021-09-18T11:11:17.000Z</time>
      </trkpt>
      <trkpt lat="47.02263" lon="-1.7086">
        <ele>78</ele>
        <time>2021-09-18T11:11:19.000Z</time>
      </trkpt>
      <trkpt lat="47.02273" lon="-1.70844">
        <ele>78</ele>
        <time>2021-09-18T11:11:21.000Z</time>
      </trkpt>
      <trkpt lat="47.02283" lon="-1.70829">
        <ele>78</ele>
        <time>2021-09-18T11:11:23.000Z</time>
      </trkpt>
      <trkpt lat="47.02293" lon="-1.70814">
        <ele>78</ele>
        <time>2021-09-18T11:11:25.000Z</time>
      </trkpt>
      <trkpt lat="47.02304" lon="-1.70799">
        <ele>77</ele>
        <time>2021-09-18T11:11:27.000Z</time>
      </trkpt>
      <trkpt lat="47.02314" lon="-1.70784">
        <ele>77</ele>
        <time>2021-09-18T11:11:29.000Z</time>
      </trkpt>
      <trkpt lat="47.02323" lon="-1.70769">
        <ele>77</ele>
        <time>2021-09-18T11:11:31.000Z</time>
      </trkpt>
      <trkpt lat="47.02333" lon="-1.70754">
        <ele>77</ele>
        <time>2021-09-18T11:11:33.000Z</time>
      </trkpt>
      <trkpt lat="47.02342" lon="-1.70739">
        <ele>77</ele>
        <time>2021-09-18T11:11:35.000Z</time>
      </trkpt>
      <trkpt lat="47.02352" lon="-1.70724">
        <ele>76</ele>
        <time>2021-09-18T11:11:37.000Z</time>
      </trkpt>
      <trkpt lat="47.02362" lon="-1.7071">
        <ele>76</ele>
        <time>2021-09-18T11:11:39.000Z</time>
      </trkpt>
      <trkpt lat="47.02371" lon="-1.70695">
        <ele>76</ele>
        <time>2021-09-18T11:11:41.000Z</time>
      </trkpt>
      <trkpt lat="47.02381" lon="-1.70679">
        <ele>76</ele>
        <time>2021-09-18T11:11:43.000Z</time>
      </trkpt>
      <trkpt lat="47.02391" lon="-1.70664">
        <ele>76</ele>
        <time>2021-09-18T11:11:45.000Z</time>
      </trkpt>
      <trkpt lat="47.02401" lon="-1.70648">
        <ele>77</ele>
        <time>2021-09-18T11:11:47.000Z</time>
      </trkpt>
      <trkpt lat="47.02411" lon="-1.70634">
        <ele>77</ele>
        <time>2021-09-18T11:11:49.000Z</time>
      </trkpt>
      <trkpt lat="47.0242" lon="-1.70619">
        <ele>78</ele>
        <time>2021-09-18T11:11:51.000Z</time>
      </trkpt>
      <trkpt lat="47.0243" lon="-1.70603">
        <ele>78</ele>
        <time>2021-09-18T11:11:53.000Z</time>
      </trkpt>
      <trkpt lat="47.0244" lon="-1.70588">
        <ele>79</ele>
        <time>2021-09-18T11:11:55.000Z</time>
      </trkpt>
      <trkpt lat="47.0245" lon="-1.70574">
        <ele>79</ele>
        <time>2021-09-18T11:11:57.000Z</time>
      </trkpt>
      <trkpt lat="47.02461" lon="-1.70559">
        <ele>79</ele>
        <time>2021-09-18T11:11:59.000Z</time>
      </trkpt>
      <trkpt lat="47.02472" lon="-1.70546">
        <ele>79</ele>
        <time>2021-09-18T11:12:01.000Z</time>
      </trkpt>
      <trkpt lat="47.02484" lon="-1.70535">
        <ele>79</ele>
        <time>2021-09-18T11:12:03.000Z</time>
      </trkpt>
      <trkpt lat="47.02495" lon="-1.70524">
        <ele>79</ele>
        <time>2021-09-18T11:12:05.000Z</time>
      </trkpt>
      <trkpt lat="47.02507" lon="-1.70513">
        <ele>79</ele>
        <time>2021-09-18T11:12:07.000Z</time>
      </trkpt>
      <trkpt lat="47.02519" lon="-1.70502">
        <ele>79</ele>
        <time>2021-09-18T11:12:09.000Z</time>
      </trkpt>
      <trkpt lat="47.02531" lon="-1.70492">
        <ele>79</ele>
        <time>2021-09-18T11:12:11.000Z</time>
      </trkpt>
      <trkpt lat="47.02542" lon="-1.70481">
        <ele>79</ele>
        <time>2021-09-18T11:12:13.000Z</time>
      </trkpt>
      <trkpt lat="47.02554" lon="-1.70471">
        <ele>80</ele>
        <time>2021-09-18T11:12:15.000Z</time>
      </trkpt>
      <trkpt lat="47.02566" lon="-1.7046">
        <ele>80</ele>
        <time>2021-09-18T11:12:17.000Z</time>
      </trkpt>
      <trkpt lat="47.02577" lon="-1.7045">
        <ele>81</ele>
        <time>2021-09-18T11:12:19.000Z</time>
      </trkpt>
      <trkpt lat="47.02589" lon="-1.7044">
        <ele>81</ele>
        <time>2021-09-18T11:12:21.000Z</time>
      </trkpt>
      <trkpt lat="47.02601" lon="-1.70429">
        <ele>80</ele>
        <time>2021-09-18T11:12:23.000Z</time>
      </trkpt>
      <trkpt lat="47.02612" lon="-1.70418">
        <ele>80</ele>
        <time>2021-09-18T11:12:25.000Z</time>
      </trkpt>
      <trkpt lat="47.02624" lon="-1.70407">
        <ele>80</ele>
        <time>2021-09-18T11:12:27.000Z</time>
      </trkpt>
      <trkpt lat="47.02635" lon="-1.70395">
        <ele>79</ele>
        <time>2021-09-18T11:12:29.000Z</time>
      </trkpt>
      <trkpt lat="47.02645" lon="-1.70382">
        <ele>79</ele>
        <time>2021-09-18T11:12:31.000Z</time>
      </trkpt>
      <trkpt lat="47.02655" lon="-1.70368">
        <ele>79</ele>
        <time>2021-09-18T11:12:33.000Z</time>
      </trkpt>
      <trkpt lat="47.02663" lon="-1.70356">
        <ele>78</ele>
        <time>2021-09-18T11:12:35.000Z</time>
      </trkpt>
      <trkpt lat="47.02667" lon="-1.70341">
        <ele>78</ele>
        <time>2021-09-18T11:12:37.000Z</time>
      </trkpt>
      <trkpt lat="47.02659" lon="-1.70328">
        <ele>78</ele>
        <time>2021-09-18T11:12:39.000Z</time>
      </trkpt>
      <trkpt lat="47.02647" lon="-1.7032">
        <ele>77</ele>
        <time>2021-09-18T11:12:41.000Z</time>
      </trkpt>
      <trkpt lat="47.02635" lon="-1.70312">
        <ele>77</ele>
        <time>2021-09-18T11:12:43.000Z</time>
      </trkpt>
      <trkpt lat="47.02623" lon="-1.70303">
        <ele>76</ele>
        <time>2021-09-18T11:12:45.000Z</time>
      </trkpt>
      <trkpt lat="47.0261" lon="-1.70297">
        <ele>76</ele>
        <time>2021-09-18T11:12:47.000Z</time>
      </trkpt>
      <trkpt lat="47.02597" lon="-1.7029">
        <ele>76</ele>
        <time>2021-09-18T11:12:49.000Z</time>
      </trkpt>
      <trkpt lat="47.02583" lon="-1.70286">
        <ele>76</ele>
        <time>2021-09-18T11:12:51.000Z</time>
      </trkpt>
      <trkpt lat="47.02569" lon="-1.70283">
        <ele>76</ele>
        <time>2021-09-18T11:12:53.000Z</time>
      </trkpt>
      <trkpt lat="47.02556" lon="-1.7028">
        <ele>75</ele>
        <time>2021-09-18T11:12:55.000Z</time>
      </trkpt>
      <trkpt lat="47.02542" lon="-1.70277">
        <ele>75</ele>
        <time>2021-09-18T11:12:57.000Z</time>
      </trkpt>
      <trkpt lat="47.02529" lon="-1.70271">
        <ele>75</ele>
        <time>2021-09-18T11:12:59.000Z</time>
      </trkpt>
      <trkpt lat="47.02517" lon="-1.70262">
        <ele>74</ele>
        <time>2021-09-18T11:13:01.000Z</time>
      </trkpt>
      <trkpt lat="47.02507" lon="-1.70249">
        <ele>74</ele>
        <time>2021-09-18T11:13:03.000Z</time>
      </trkpt>
      <trkpt lat="47.02499" lon="-1.70233">
        <ele>74</ele>
        <time>2021-09-18T11:13:05.000Z</time>
      </trkpt>
      <trkpt lat="47.02491" lon="-1.70217">
        <ele>74</ele>
        <time>2021-09-18T11:13:07.000Z</time>
      </trkpt>
      <trkpt lat="47.02482" lon="-1.702">
        <ele>74</ele>
        <time>2021-09-18T11:13:09.000Z</time>
      </trkpt>
      <trkpt lat="47.02474" lon="-1.70184">
        <ele>74</ele>
        <time>2021-09-18T11:13:11.000Z</time>
      </trkpt>
      <trkpt lat="47.02466" lon="-1.70167">
        <ele>74</ele>
        <time>2021-09-18T11:13:13.000Z</time>
      </trkpt>
      <trkpt lat="47.02458" lon="-1.70151">
        <ele>75</ele>
        <time>2021-09-18T11:13:15.000Z</time>
      </trkpt>
      <trkpt lat="47.0245" lon="-1.70134">
        <ele>74</ele>
        <time>2021-09-18T11:13:17.000Z</time>
      </trkpt>
      <trkpt lat="47.02444" lon="-1.70117">
        <ele>74</ele>
        <time>2021-09-18T11:13:19.000Z</time>
      </trkpt>
      <trkpt lat="47.02439" lon="-1.70099">
        <ele>74</ele>
        <time>2021-09-18T11:13:21.000Z</time>
      </trkpt>
      <trkpt lat="47.02436" lon="-1.70079">
        <ele>74</ele>
        <time>2021-09-18T11:13:23.000Z</time>
      </trkpt>
      <trkpt lat="47.02433" lon="-1.70059">
        <ele>74</ele>
        <time>2021-09-18T11:13:25.000Z</time>
      </trkpt>
      <trkpt lat="47.02431" lon="-1.70038">
        <ele>74</ele>
        <time>2021-09-18T11:13:27.000Z</time>
      </trkpt>
      <trkpt lat="47.02429" lon="-1.70019">
        <ele>74</ele>
        <time>2021-09-18T11:13:29.000Z</time>
      </trkpt>
      <trkpt lat="47.02427" lon="-1.69999">
        <ele>75</ele>
        <time>2021-09-18T11:13:31.000Z</time>
      </trkpt>
      <trkpt lat="47.02426" lon="-1.69979">
        <ele>75</ele>
        <time>2021-09-18T11:13:33.000Z</time>
      </trkpt>
      <trkpt lat="47.02424" lon="-1.6996">
        <ele>75</ele>
        <time>2021-09-18T11:13:35.000Z</time>
      </trkpt>
      <trkpt lat="47.02422" lon="-1.69941">
        <ele>75</ele>
        <time>2021-09-18T11:13:37.000Z</time>
      </trkpt>
      <trkpt lat="47.0242" lon="-1.69922">
        <ele>75</ele>
        <time>2021-09-18T11:13:39.000Z</time>
      </trkpt>
      <trkpt lat="47.02417" lon="-1.69903">
        <ele>75</ele>
        <time>2021-09-18T11:13:41.000Z</time>
      </trkpt>
      <trkpt lat="47.02415" lon="-1.69884">
        <ele>75</ele>
        <time>2021-09-18T11:13:43.000Z</time>
      </trkpt>
      <trkpt lat="47.02411" lon="-1.69866">
        <ele>76</ele>
        <time>2021-09-18T11:13:45.000Z</time>
      </trkpt>
      <trkpt lat="47.02406" lon="-1.69848">
        <ele>76</ele>
        <time>2021-09-18T11:13:47.000Z</time>
      </trkpt>
      <trkpt lat="47.02399" lon="-1.69832">
        <ele>76</ele>
        <time>2021-09-18T11:13:49.000Z</time>
      </trkpt>
      <trkpt lat="47.02392" lon="-1.69816">
        <ele>76</ele>
        <time>2021-09-18T11:13:51.000Z</time>
      </trkpt>
      <trkpt lat="47.02384" lon="-1.69801">
        <ele>76</ele>
        <time>2021-09-18T11:13:53.000Z</time>
      </trkpt>
      <trkpt lat="47.02376" lon="-1.69786">
        <ele>76</ele>
        <time>2021-09-18T11:13:55.000Z</time>
      </trkpt>
      <trkpt lat="47.02367" lon="-1.69772">
        <ele>76</ele>
        <time>2021-09-18T11:13:57.000Z</time>
      </trkpt>
      <trkpt lat="47.0236" lon="-1.69757">
        <ele>76</ele>
        <time>2021-09-18T11:13:59.000Z</time>
      </trkpt>
      <trkpt lat="47.02352" lon="-1.69744">
        <ele>76</ele>
        <time>2021-09-18T11:14:01.000Z</time>
      </trkpt>
      <trkpt lat="47.02344" lon="-1.69731">
        <ele>77</ele>
        <time>2021-09-18T11:14:03.000Z</time>
      </trkpt>
      <trkpt lat="47.02336" lon="-1.69718">
        <ele>77</ele>
        <time>2021-09-18T11:14:05.000Z</time>
      </trkpt>
      <trkpt lat="47.02329" lon="-1.69705">
        <ele>77</ele>
        <time>2021-09-18T11:14:07.000Z</time>
      </trkpt>
      <trkpt lat="47.02322" lon="-1.69692">
        <ele>78</ele>
        <time>2021-09-18T11:14:09.000Z</time>
      </trkpt>
      <trkpt lat="47.02314" lon="-1.69678">
        <ele>78</ele>
        <time>2021-09-18T11:14:11.000Z</time>
      </trkpt>
      <trkpt lat="47.02307" lon="-1.69664">
        <ele>78</ele>
        <time>2021-09-18T11:14:13.000Z</time>
      </trkpt>
      <trkpt lat="47.02299" lon="-1.69651">
        <ele>78</ele>
        <time>2021-09-18T11:14:15.000Z</time>
      </trkpt>
      <trkpt lat="47.02292" lon="-1.69638">
        <ele>78</ele>
        <time>2021-09-18T11:14:17.000Z</time>
      </trkpt>
      <trkpt lat="47.02284" lon="-1.69624">
        <ele>78</ele>
        <time>2021-09-18T11:14:19.000Z</time>
      </trkpt>
      <trkpt lat="47.02277" lon="-1.6961">
        <ele>78</ele>
        <time>2021-09-18T11:14:21.000Z</time>
      </trkpt>
      <trkpt lat="47.02269" lon="-1.69596">
        <ele>78</ele>
        <time>2021-09-18T11:14:23.000Z</time>
      </trkpt>
      <trkpt lat="47.02263" lon="-1.69581">
        <ele>78</ele>
        <time>2021-09-18T11:14:25.000Z</time>
      </trkpt>
      <trkpt lat="47.02257" lon="-1.69566">
        <ele>78</ele>
        <time>2021-09-18T11:14:27.000Z</time>
      </trkpt>
      <trkpt lat="47.02251" lon="-1.6955">
        <ele>78</ele>
        <time>2021-09-18T11:14:29.000Z</time>
      </trkpt>
      <trkpt lat="47.02246" lon="-1.69533">
        <ele>78</ele>
        <time>2021-09-18T11:14:31.000Z</time>
      </trkpt>
      <trkpt lat="47.02242" lon="-1.69517">
        <ele>78</ele>
        <time>2021-09-18T11:14:33.000Z</time>
      </trkpt>
      <trkpt lat="47.02237" lon="-1.695">
        <ele>78</ele>
        <time>2021-09-18T11:14:35.000Z</time>
      </trkpt>
      <trkpt lat="47.02233" lon="-1.69483">
        <ele>78</ele>
        <time>2021-09-18T11:14:37.000Z</time>
      </trkpt>
      <trkpt lat="47.02229" lon="-1.69467">
        <ele>79</ele>
        <time>2021-09-18T11:14:39.000Z</time>
      </trkpt>
      <trkpt lat="47.02226" lon="-1.6945">
        <ele>79</ele>
        <time>2021-09-18T11:14:41.000Z</time>
      </trkpt>
      <trkpt lat="47.02223" lon="-1.69432">
        <ele>79</ele>
        <time>2021-09-18T11:14:43.000Z</time>
      </trkpt>
      <trkpt lat="47.0222" lon="-1.69415">
        <ele>79</ele>
        <time>2021-09-18T11:14:45.000Z</time>
      </trkpt>
      <trkpt lat="47.02218" lon="-1.69397">
        <ele>79</ele>
        <time>2021-09-18T11:14:47.000Z</time>
      </trkpt>
      <trkpt lat="47.02216" lon="-1.69378">
        <ele>79</ele>
        <time>2021-09-18T11:14:49.000Z</time>
      </trkpt>
      <trkpt lat="47.02214" lon="-1.6936">
        <ele>79</ele>
        <time>2021-09-18T11:14:51.000Z</time>
      </trkpt>
      <trkpt lat="47.02214" lon="-1.69342">
        <ele>79</ele>
        <time>2021-09-18T11:14:53.000Z</time>
      </trkpt>
      <trkpt lat="47.02217" lon="-1.69323">
        <ele>80</ele>
        <time>2021-09-18T11:14:55.000Z</time>
      </trkpt>
      <trkpt lat="47.0222" lon="-1.69305">
        <ele>80</ele>
        <time>2021-09-18T11:14:57.000Z</time>
      </trkpt>
      <trkpt lat="47.02224" lon="-1.69287">
        <ele>80</ele>
        <time>2021-09-18T11:14:59.000Z</time>
      </trkpt>
      <trkpt lat="47.02227" lon="-1.69269">
        <ele>79</ele>
        <time>2021-09-18T11:15:01.000Z</time>
      </trkpt>
      <trkpt lat="47.02228" lon="-1.69251">
        <ele>79</ele>
        <time>2021-09-18T11:15:03.000Z</time>
      </trkpt>
      <trkpt lat="47.02228" lon="-1.69233">
        <ele>80</ele>
        <time>2021-09-18T11:15:05.000Z</time>
      </trkpt>
      <trkpt lat="47.02226" lon="-1.69215">
        <ele>80</ele>
        <time>2021-09-18T11:15:07.000Z</time>
      </trkpt>
      <trkpt lat="47.02223" lon="-1.69197">
        <ele>80</ele>
        <time>2021-09-18T11:15:09.000Z</time>
      </trkpt>
      <trkpt lat="47.02219" lon="-1.69179">
        <ele>80</ele>
        <time>2021-09-18T11:15:11.000Z</time>
      </trkpt>
      <trkpt lat="47.02216" lon="-1.69162">
        <ele>80</ele>
        <time>2021-09-18T11:15:13.000Z</time>
      </trkpt>
      <trkpt lat="47.02212" lon="-1.69145">
        <ele>80</ele>
        <time>2021-09-18T11:15:15.000Z</time>
      </trkpt>
      <trkpt lat="47.02209" lon="-1.69128">
        <ele>80</ele>
        <time>2021-09-18T11:15:17.000Z</time>
      </trkpt>
      <trkpt lat="47.02204" lon="-1.69111">
        <ele>80</ele>
        <time>2021-09-18T11:15:19.000Z</time>
      </trkpt>
      <trkpt lat="47.022" lon="-1.69094">
        <ele>80</ele>
        <time>2021-09-18T11:15:21.000Z</time>
      </trkpt>
      <trkpt lat="47.02195" lon="-1.69077">
        <ele>80</ele>
        <time>2021-09-18T11:15:23.000Z</time>
      </trkpt>
      <trkpt lat="47.02191" lon="-1.6906">
        <ele>80</ele>
        <time>2021-09-18T11:15:25.000Z</time>
      </trkpt>
      <trkpt lat="47.02189" lon="-1.69042">
        <ele>80</ele>
        <time>2021-09-18T11:15:27.000Z</time>
      </trkpt>
      <trkpt lat="47.02188" lon="-1.69023">
        <ele>80</ele>
        <time>2021-09-18T11:15:29.000Z</time>
      </trkpt>
      <trkpt lat="47.02188" lon="-1.69005">
        <ele>81</ele>
        <time>2021-09-18T11:15:31.000Z</time>
      </trkpt>
      <trkpt lat="47.02188" lon="-1.68986">
        <ele>81</ele>
        <time>2021-09-18T11:15:33.000Z</time>
      </trkpt>
      <trkpt lat="47.02188" lon="-1.68968">
        <ele>81</ele>
        <time>2021-09-18T11:15:35.000Z</time>
      </trkpt>
      <trkpt lat="47.02189" lon="-1.6895">
        <ele>81</ele>
        <time>2021-09-18T11:15:37.000Z</time>
      </trkpt>
      <trkpt lat="47.02189" lon="-1.68932">
        <ele>81</ele>
        <time>2021-09-18T11:15:39.000Z</time>
      </trkpt>
      <trkpt lat="47.0219" lon="-1.68913">
        <ele>82</ele>
        <time>2021-09-18T11:15:41.000Z</time>
      </trkpt>
      <trkpt lat="47.02191" lon="-1.68895">
        <ele>81</ele>
        <time>2021-09-18T11:15:43.000Z</time>
      </trkpt>
      <trkpt lat="47.02193" lon="-1.68877">
        <ele>82</ele>
        <time>2021-09-18T11:15:45.000Z</time>
      </trkpt>
      <trkpt lat="47.02195" lon="-1.68859">
        <ele>82</ele>
        <time>2021-09-18T11:15:47.000Z</time>
      </trkpt>
      <trkpt lat="47.02196" lon="-1.68842">
        <ele>82</ele>
        <time>2021-09-18T11:15:49.000Z</time>
      </trkpt>
      <trkpt lat="47.02197" lon="-1.68826">
        <ele>82</ele>
        <time>2021-09-18T11:15:51.000Z</time>
      </trkpt>
      <trkpt lat="47.02199" lon="-1.68813">
        <ele>82</ele>
        <time>2021-09-18T11:15:53.000Z</time>
      </trkpt>
      <trkpt lat="47.02197" lon="-1.688">
        <ele>83</ele>
        <time>2021-09-18T11:15:56.000Z</time>
      </trkpt>
      <trkpt lat="47.02198" lon="-1.68784">
        <ele>83</ele>
        <time>2021-09-18T11:15:59.000Z</time>
      </trkpt>
      <trkpt lat="47.02203" lon="-1.68772">
        <ele>84</ele>
        <time>2021-09-18T11:16:01.000Z</time>
      </trkpt>
      <trkpt lat="47.0221" lon="-1.6876">
        <ele>84</ele>
        <time>2021-09-18T11:16:03.000Z</time>
      </trkpt>
      <trkpt lat="47.02218" lon="-1.68746">
        <ele>85</ele>
        <time>2021-09-18T11:16:05.000Z</time>
      </trkpt>
      <trkpt lat="47.02226" lon="-1.68731">
        <ele>85</ele>
        <time>2021-09-18T11:16:07.000Z</time>
      </trkpt>
      <trkpt lat="47.02235" lon="-1.68716">
        <ele>86</ele>
        <time>2021-09-18T11:16:09.000Z</time>
      </trkpt>
      <trkpt lat="47.02244" lon="-1.68701">
        <ele>87</ele>
        <time>2021-09-18T11:16:11.000Z</time>
      </trkpt>
      <trkpt lat="47.02251" lon="-1.68687">
        <ele>88</ele>
        <time>2021-09-18T11:16:13.000Z</time>
      </trkpt>
      <trkpt lat="47.02258" lon="-1.68674">
        <ele>88</ele>
        <time>2021-09-18T11:16:15.000Z</time>
      </trkpt>
      <trkpt lat="47.02266" lon="-1.68661">
        <ele>89</ele>
        <time>2021-09-18T11:16:17.000Z</time>
      </trkpt>
      <trkpt lat="47.02273" lon="-1.68648">
        <ele>89</ele>
        <time>2021-09-18T11:16:19.000Z</time>
      </trkpt>
      <trkpt lat="47.0228" lon="-1.68634">
        <ele>90</ele>
        <time>2021-09-18T11:16:21.000Z</time>
      </trkpt>
      <trkpt lat="47.02287" lon="-1.68622">
        <ele>90</ele>
        <time>2021-09-18T11:16:23.000Z</time>
      </trkpt>
      <trkpt lat="47.02295" lon="-1.68608">
        <ele>91</ele>
        <time>2021-09-18T11:16:25.000Z</time>
      </trkpt>
      <trkpt lat="47.02302" lon="-1.68595">
        <ele>91</ele>
        <time>2021-09-18T11:16:27.000Z</time>
      </trkpt>
      <trkpt lat="47.0231" lon="-1.68582">
        <ele>92</ele>
        <time>2021-09-18T11:16:29.000Z</time>
      </trkpt>
      <trkpt lat="47.02317" lon="-1.68569">
        <ele>93</ele>
        <time>2021-09-18T11:16:31.000Z</time>
      </trkpt>
      <trkpt lat="47.02324" lon="-1.68556">
        <ele>93</ele>
        <time>2021-09-18T11:16:33.000Z</time>
      </trkpt>
      <trkpt lat="47.02331" lon="-1.68543">
        <ele>93</ele>
        <time>2021-09-18T11:16:35.000Z</time>
      </trkpt>
      <trkpt lat="47.02338" lon="-1.6853">
        <ele>93</ele>
        <time>2021-09-18T11:16:37.000Z</time>
      </trkpt>
      <trkpt lat="47.02345" lon="-1.68518">
        <ele>93</ele>
        <time>2021-09-18T11:16:39.000Z</time>
      </trkpt>
      <trkpt lat="47.02351" lon="-1.68505">
        <ele>94</ele>
        <time>2021-09-18T11:16:41.000Z</time>
      </trkpt>
      <trkpt lat="47.02358" lon="-1.68492">
        <ele>94</ele>
        <time>2021-09-18T11:16:43.000Z</time>
      </trkpt>
      <trkpt lat="47.02364" lon="-1.68479">
        <ele>94</ele>
        <time>2021-09-18T11:16:45.000Z</time>
      </trkpt>
      <trkpt lat="47.0237" lon="-1.68466">
        <ele>94</ele>
        <time>2021-09-18T11:16:47.000Z</time>
      </trkpt>
      <trkpt lat="47.02375" lon="-1.68453">
        <ele>94</ele>
        <time>2021-09-18T11:16:49.000Z</time>
      </trkpt>
      <trkpt lat="47.02381" lon="-1.68439">
        <ele>95</ele>
        <time>2021-09-18T11:16:51.000Z</time>
      </trkpt>
      <trkpt lat="47.02387" lon="-1.68425">
        <ele>95</ele>
        <time>2021-09-18T11:16:53.000Z</time>
      </trkpt>
      <trkpt lat="47.02392" lon="-1.6841">
        <ele>95</ele>
        <time>2021-09-18T11:16:55.000Z</time>
      </trkpt>
      <trkpt lat="47.02398" lon="-1.68394">
        <ele>95</ele>
        <time>2021-09-18T11:16:57.000Z</time>
      </trkpt>
      <trkpt lat="47.02403" lon="-1.68378">
        <ele>95</ele>
        <time>2021-09-18T11:16:59.000Z</time>
      </trkpt>
      <trkpt lat="47.02409" lon="-1.68362">
        <ele>95</ele>
        <time>2021-09-18T11:17:01.000Z</time>
      </trkpt>
      <trkpt lat="47.02415" lon="-1.68346">
        <ele>95</ele>
        <time>2021-09-18T11:17:03.000Z</time>
      </trkpt>
      <trkpt lat="47.02421" lon="-1.6833">
        <ele>95</ele>
        <time>2021-09-18T11:17:05.000Z</time>
      </trkpt>
      <trkpt lat="47.02427" lon="-1.68313">
        <ele>94</ele>
        <time>2021-09-18T11:17:07.000Z</time>
      </trkpt>
      <trkpt lat="47.02434" lon="-1.68296">
        <ele>94</ele>
        <time>2021-09-18T11:17:09.000Z</time>
      </trkpt>
      <trkpt lat="47.0244" lon="-1.68278">
        <ele>94</ele>
        <time>2021-09-18T11:17:11.000Z</time>
      </trkpt>
      <trkpt lat="47.02446" lon="-1.68261">
        <ele>94</ele>
        <time>2021-09-18T11:17:13.000Z</time>
      </trkpt>
      <trkpt lat="47.02453" lon="-1.68243">
        <ele>94</ele>
        <time>2021-09-18T11:17:15.000Z</time>
      </trkpt>
      <trkpt lat="47.0246" lon="-1.68225">
        <ele>94</ele>
        <time>2021-09-18T11:17:17.000Z</time>
      </trkpt>
      <trkpt lat="47.02466" lon="-1.68206">
        <ele>94</ele>
        <time>2021-09-18T11:17:19.000Z</time>
      </trkpt>
      <trkpt lat="47.02473" lon="-1.68188">
        <ele>94</ele>
        <time>2021-09-18T11:17:21.000Z</time>
      </trkpt>
      <trkpt lat="47.0248" lon="-1.6817">
        <ele>94</ele>
        <time>2021-09-18T11:17:23.000Z</time>
      </trkpt>
      <trkpt lat="47.02487" lon="-1.68151">
        <ele>94</ele>
        <time>2021-09-18T11:17:25.000Z</time>
      </trkpt>
      <trkpt lat="47.02494" lon="-1.68133">
        <ele>94</ele>
        <time>2021-09-18T11:17:27.000Z</time>
      </trkpt>
      <trkpt lat="47.02501" lon="-1.68113">
        <ele>93</ele>
        <time>2021-09-18T11:17:29.000Z</time>
      </trkpt>
      <trkpt lat="47.02509" lon="-1.68093">
        <ele>93</ele>
        <time>2021-09-18T11:17:31.000Z</time>
      </trkpt>
      <trkpt lat="47.02516" lon="-1.68073">
        <ele>93</ele>
        <time>2021-09-18T11:17:33.000Z</time>
      </trkpt>
      <trkpt lat="47.02523" lon="-1.68053">
        <ele>93</ele>
        <time>2021-09-18T11:17:35.000Z</time>
      </trkpt>
      <trkpt lat="47.0253" lon="-1.68034">
        <ele>93</ele>
        <time>2021-09-18T11:17:37.000Z</time>
      </trkpt>
      <trkpt lat="47.02538" lon="-1.68014">
        <ele>93</ele>
        <time>2021-09-18T11:17:39.000Z</time>
      </trkpt>
      <trkpt lat="47.02545" lon="-1.67993">
        <ele>93</ele>
        <time>2021-09-18T11:17:41.000Z</time>
      </trkpt>
      <trkpt lat="47.02553" lon="-1.67973">
        <ele>92</ele>
        <time>2021-09-18T11:17:43.000Z</time>
      </trkpt>
      <trkpt lat="47.02561" lon="-1.67952">
        <ele>92</ele>
        <time>2021-09-18T11:17:45.000Z</time>
      </trkpt>
      <trkpt lat="47.02569" lon="-1.67931">
        <ele>92</ele>
        <time>2021-09-18T11:17:47.000Z</time>
      </trkpt>
      <trkpt lat="47.02576" lon="-1.6791">
        <ele>92</ele>
        <time>2021-09-18T11:17:49.000Z</time>
      </trkpt>
      <trkpt lat="47.02584" lon="-1.67889">
        <ele>92</ele>
        <time>2021-09-18T11:17:51.000Z</time>
      </trkpt>
      <trkpt lat="47.02592" lon="-1.67868">
        <ele>93</ele>
        <time>2021-09-18T11:17:53.000Z</time>
      </trkpt>
      <trkpt lat="47.02599" lon="-1.67847">
        <ele>93</ele>
        <time>2021-09-18T11:17:55.000Z</time>
      </trkpt>
      <trkpt lat="47.02607" lon="-1.67826">
        <ele>93</ele>
        <time>2021-09-18T11:17:57.000Z</time>
      </trkpt>
      <trkpt lat="47.02615" lon="-1.67805">
        <ele>93</ele>
        <time>2021-09-18T11:17:59.000Z</time>
      </trkpt>
      <trkpt lat="47.02622" lon="-1.67784">
        <ele>93</ele>
        <time>2021-09-18T11:18:01.000Z</time>
      </trkpt>
      <trkpt lat="47.0263" lon="-1.67762">
        <ele>93</ele>
        <time>2021-09-18T11:18:03.000Z</time>
      </trkpt>
      <trkpt lat="47.02638" lon="-1.67741">
        <ele>93</ele>
        <time>2021-09-18T11:18:05.000Z</time>
      </trkpt>
      <trkpt lat="47.02646" lon="-1.67721">
        <ele>93</ele>
        <time>2021-09-18T11:18:07.000Z</time>
      </trkpt>
      <trkpt lat="47.02653" lon="-1.67701">
        <ele>93</ele>
        <time>2021-09-18T11:18:09.000Z</time>
      </trkpt>
      <trkpt lat="47.0266" lon="-1.6768">
        <ele>93</ele>
        <time>2021-09-18T11:18:11.000Z</time>
      </trkpt>
      <trkpt lat="47.02668" lon="-1.6766">
        <ele>93</ele>
        <time>2021-09-18T11:18:13.000Z</time>
      </trkpt>
      <trkpt lat="47.02675" lon="-1.6764">
        <ele>93</ele>
        <time>2021-09-18T11:18:15.000Z</time>
      </trkpt>
      <trkpt lat="47.02683" lon="-1.6762">
        <ele>93</ele>
        <time>2021-09-18T11:18:17.000Z</time>
      </trkpt>
      <trkpt lat="47.02691" lon="-1.67599">
        <ele>93</ele>
        <time>2021-09-18T11:18:19.000Z</time>
      </trkpt>
      <trkpt lat="47.02698" lon="-1.67579">
        <ele>93</ele>
        <time>2021-09-18T11:18:21.000Z</time>
      </trkpt>
      <trkpt lat="47.02706" lon="-1.67558">
        <ele>93</ele>
        <time>2021-09-18T11:18:23.000Z</time>
      </trkpt>
      <trkpt lat="47.02714" lon="-1.67537">
        <ele>93</ele>
        <time>2021-09-18T11:18:25.000Z</time>
      </trkpt>
      <trkpt lat="47.02722" lon="-1.67516">
        <ele>92</ele>
        <time>2021-09-18T11:18:27.000Z</time>
      </trkpt>
      <trkpt lat="47.0273" lon="-1.67495">
        <ele>92</ele>
        <time>2021-09-18T11:18:29.000Z</time>
      </trkpt>
      <trkpt lat="47.02737" lon="-1.67473">
        <ele>92</ele>
        <time>2021-09-18T11:18:31.000Z</time>
      </trkpt>
      <trkpt lat="47.02745" lon="-1.67452">
        <ele>92</ele>
        <time>2021-09-18T11:18:33.000Z</time>
      </trkpt>
      <trkpt lat="47.02752" lon="-1.67431">
        <ele>92</ele>
        <time>2021-09-18T11:18:35.000Z</time>
      </trkpt>
      <trkpt lat="47.02761" lon="-1.6741">
        <ele>92</ele>
        <time>2021-09-18T11:18:37.000Z</time>
      </trkpt>
      <trkpt lat="47.02768" lon="-1.67389">
        <ele>92</ele>
        <time>2021-09-18T11:18:39.000Z</time>
      </trkpt>
      <trkpt lat="47.02776" lon="-1.67368">
        <ele>92</ele>
        <time>2021-09-18T11:18:41.000Z</time>
      </trkpt>
      <trkpt lat="47.02784" lon="-1.67346">
        <ele>91</ele>
        <time>2021-09-18T11:18:43.000Z</time>
      </trkpt>
      <trkpt lat="47.02792" lon="-1.67324">
        <ele>90</ele>
        <time>2021-09-18T11:18:45.000Z</time>
      </trkpt>
      <trkpt lat="47.028" lon="-1.67302">
        <ele>90</ele>
        <time>2021-09-18T11:18:47.000Z</time>
      </trkpt>
      <trkpt lat="47.02808" lon="-1.6728">
        <ele>89</ele>
        <time>2021-09-18T11:18:49.000Z</time>
      </trkpt>
      <trkpt lat="47.02816" lon="-1.67258">
        <ele>89</ele>
        <time>2021-09-18T11:18:51.000Z</time>
      </trkpt>
      <trkpt lat="47.02825" lon="-1.67236">
        <ele>89</ele>
        <time>2021-09-18T11:18:53.000Z</time>
      </trkpt>
      <trkpt lat="47.02833" lon="-1.67213">
        <ele>89</ele>
        <time>2021-09-18T11:18:55.000Z</time>
      </trkpt>
      <trkpt lat="47.02838" lon="-1.67201">
        <ele>88</ele>
        <time>2021-09-18T11:18:56.000Z</time>
      </trkpt>
      <trkpt lat="47.02842" lon="-1.67189">
        <ele>88</ele>
        <time>2021-09-18T11:18:57.000Z</time>
      </trkpt>
      <trkpt lat="47.0285" lon="-1.67166">
        <ele>88</ele>
        <time>2021-09-18T11:18:59.000Z</time>
      </trkpt>
      <trkpt lat="47.02855" lon="-1.67155">
        <ele>88</ele>
        <time>2021-09-18T11:19:00.000Z</time>
      </trkpt>
      <trkpt lat="47.02863" lon="-1.67132">
        <ele>88</ele>
        <time>2021-09-18T11:19:02.000Z</time>
      </trkpt>
      <trkpt lat="47.02871" lon="-1.67111">
        <ele>88</ele>
        <time>2021-09-18T11:19:04.000Z</time>
      </trkpt>
      <trkpt lat="47.02878" lon="-1.6709">
        <ele>88</ele>
        <time>2021-09-18T11:19:06.000Z</time>
      </trkpt>
      <trkpt lat="47.02886" lon="-1.67069">
        <ele>88</ele>
        <time>2021-09-18T11:19:08.000Z</time>
      </trkpt>
      <trkpt lat="47.02893" lon="-1.67049">
        <ele>88</ele>
        <time>2021-09-18T11:19:10.000Z</time>
      </trkpt>
      <trkpt lat="47.02901" lon="-1.6703">
        <ele>88</ele>
        <time>2021-09-18T11:19:12.000Z</time>
      </trkpt>
      <trkpt lat="47.02909" lon="-1.6701">
        <ele>88</ele>
        <time>2021-09-18T11:19:14.000Z</time>
      </trkpt>
      <trkpt lat="47.02916" lon="-1.6699">
        <ele>88</ele>
        <time>2021-09-18T11:19:16.000Z</time>
      </trkpt>
      <trkpt lat="47.02924" lon="-1.66969">
        <ele>87</ele>
        <time>2021-09-18T11:19:18.000Z</time>
      </trkpt>
      <trkpt lat="47.02931" lon="-1.6695">
        <ele>87</ele>
        <time>2021-09-18T11:19:20.000Z</time>
      </trkpt>
      <trkpt lat="47.02939" lon="-1.6693">
        <ele>87</ele>
        <time>2021-09-18T11:19:22.000Z</time>
      </trkpt>
      <trkpt lat="47.02946" lon="-1.6691">
        <ele>87</ele>
        <time>2021-09-18T11:19:24.000Z</time>
      </trkpt>
      <trkpt lat="47.02954" lon="-1.6689">
        <ele>87</ele>
        <time>2021-09-18T11:19:26.000Z</time>
      </trkpt>
      <trkpt lat="47.0296" lon="-1.66869">
        <ele>87</ele>
        <time>2021-09-18T11:19:28.000Z</time>
      </trkpt>
      <trkpt lat="47.02967" lon="-1.66848">
        <ele>87</ele>
        <time>2021-09-18T11:19:30.000Z</time>
      </trkpt>
      <trkpt lat="47.02975" lon="-1.66828">
        <ele>86</ele>
        <time>2021-09-18T11:19:32.000Z</time>
      </trkpt>
      <trkpt lat="47.02983" lon="-1.66807">
        <ele>87</ele>
        <time>2021-09-18T11:19:34.000Z</time>
      </trkpt>
      <trkpt lat="47.0299" lon="-1.66788">
        <ele>87</ele>
        <time>2021-09-18T11:19:36.000Z</time>
      </trkpt>
      <trkpt lat="47.02997" lon="-1.66768">
        <ele>87</ele>
        <time>2021-09-18T11:19:38.000Z</time>
      </trkpt>
      <trkpt lat="47.03004" lon="-1.66749">
        <ele>87</ele>
        <time>2021-09-18T11:19:40.000Z</time>
      </trkpt>
      <trkpt lat="47.03012" lon="-1.66729">
        <ele>86</ele>
        <time>2021-09-18T11:19:42.000Z</time>
      </trkpt>
      <trkpt lat="47.03019" lon="-1.66709">
        <ele>86</ele>
        <time>2021-09-18T11:19:44.000Z</time>
      </trkpt>
      <trkpt lat="47.03026" lon="-1.66689">
        <ele>86</ele>
        <time>2021-09-18T11:19:46.000Z</time>
      </trkpt>
      <trkpt lat="47.03034" lon="-1.66668">
        <ele>85</ele>
        <time>2021-09-18T11:19:48.000Z</time>
      </trkpt>
      <trkpt lat="47.03042" lon="-1.66647">
        <ele>84</ele>
        <time>2021-09-18T11:19:50.000Z</time>
      </trkpt>
      <trkpt lat="47.0305" lon="-1.66624">
        <ele>84</ele>
        <time>2021-09-18T11:19:52.000Z</time>
      </trkpt>
      <trkpt lat="47.03059" lon="-1.66602">
        <ele>83</ele>
        <time>2021-09-18T11:19:54.000Z</time>
      </trkpt>
      <trkpt lat="47.03067" lon="-1.66578">
        <ele>82</ele>
        <time>2021-09-18T11:19:56.000Z</time>
      </trkpt>
      <trkpt lat="47.03071" lon="-1.66566">
        <ele>82</ele>
        <time>2021-09-18T11:19:57.000Z</time>
      </trkpt>
      <trkpt lat="47.03076" lon="-1.66554">
        <ele>81</ele>
        <time>2021-09-18T11:19:58.000Z</time>
      </trkpt>
      <trkpt lat="47.0308" lon="-1.66542">
        <ele>81</ele>
        <time>2021-09-18T11:19:59.000Z</time>
      </trkpt>
      <trkpt lat="47.03085" lon="-1.66529">
        <ele>81</ele>
        <time>2021-09-18T11:20:00.000Z</time>
      </trkpt>
      <trkpt lat="47.03089" lon="-1.66517">
        <ele>81</ele>
        <time>2021-09-18T11:20:01.000Z</time>
      </trkpt>
      <trkpt lat="47.03094" lon="-1.66504">
        <ele>80</ele>
        <time>2021-09-18T11:20:02.000Z</time>
      </trkpt>
      <trkpt lat="47.031" lon="-1.66491">
        <ele>80</ele>
        <time>2021-09-18T11:20:03.000Z</time>
      </trkpt>
      <trkpt lat="47.03106" lon="-1.66479">
        <ele>79</ele>
        <time>2021-09-18T11:20:04.000Z</time>
      </trkpt>
      <trkpt lat="47.03113" lon="-1.66467">
        <ele>78</ele>
        <time>2021-09-18T11:20:05.000Z</time>
      </trkpt>
      <trkpt lat="47.0312" lon="-1.66457">
        <ele>78</ele>
        <time>2021-09-18T11:20:06.000Z</time>
      </trkpt>
      <trkpt lat="47.03128" lon="-1.66446">
        <ele>77</ele>
        <time>2021-09-18T11:20:07.000Z</time>
      </trkpt>
      <trkpt lat="47.03136" lon="-1.66435">
        <ele>77</ele>
        <time>2021-09-18T11:20:08.000Z</time>
      </trkpt>
      <trkpt lat="47.03143" lon="-1.66424">
        <ele>77</ele>
        <time>2021-09-18T11:20:09.000Z</time>
      </trkpt>
      <trkpt lat="47.03151" lon="-1.66413">
        <ele>76</ele>
        <time>2021-09-18T11:20:10.000Z</time>
      </trkpt>
      <trkpt lat="47.03158" lon="-1.66401">
        <ele>76</ele>
        <time>2021-09-18T11:20:11.000Z</time>
      </trkpt>
      <trkpt lat="47.03165" lon="-1.66389">
        <ele>76</ele>
        <time>2021-09-18T11:20:12.000Z</time>
      </trkpt>
      <trkpt lat="47.03172" lon="-1.66377">
        <ele>75</ele>
        <time>2021-09-18T11:20:13.000Z</time>
      </trkpt>
      <trkpt lat="47.03179" lon="-1.66364">
        <ele>75</ele>
        <time>2021-09-18T11:20:14.000Z</time>
      </trkpt>
      <trkpt lat="47.03186" lon="-1.66351">
        <ele>75</ele>
        <time>2021-09-18T11:20:15.000Z</time>
      </trkpt>
      <trkpt lat="47.03193" lon="-1.66338">
        <ele>75</ele>
        <time>2021-09-18T11:20:16.000Z</time>
      </trkpt>
      <trkpt lat="47.03199" lon="-1.66324">
        <ele>74</ele>
        <time>2021-09-18T11:20:17.000Z</time>
      </trkpt>
      <trkpt lat="47.03205" lon="-1.66311">
        <ele>74</ele>
        <time>2021-09-18T11:20:18.000Z</time>
      </trkpt>
      <trkpt lat="47.03211" lon="-1.66296">
        <ele>74</ele>
        <time>2021-09-18T11:20:19.000Z</time>
      </trkpt>
      <trkpt lat="47.03216" lon="-1.66283">
        <ele>73</ele>
        <time>2021-09-18T11:20:20.000Z</time>
      </trkpt>
      <trkpt lat="47.03222" lon="-1.66269">
        <ele>72</ele>
        <time>2021-09-18T11:20:21.000Z</time>
      </trkpt>
      <trkpt lat="47.03227" lon="-1.66255">
        <ele>72</ele>
        <time>2021-09-18T11:20:22.000Z</time>
      </trkpt>
      <trkpt lat="47.03233" lon="-1.66241">
        <ele>72</ele>
        <time>2021-09-18T11:20:23.000Z</time>
      </trkpt>
      <trkpt lat="47.03239" lon="-1.66227">
        <ele>72</ele>
        <time>2021-09-18T11:20:24.000Z</time>
      </trkpt>
      <trkpt lat="47.03244" lon="-1.66213">
        <ele>72</ele>
        <time>2021-09-18T11:20:25.000Z</time>
      </trkpt>
      <trkpt lat="47.0325" lon="-1.662">
        <ele>72</ele>
        <time>2021-09-18T11:20:26.000Z</time>
      </trkpt>
      <trkpt lat="47.03255" lon="-1.66186">
        <ele>72</ele>
        <time>2021-09-18T11:20:27.000Z</time>
      </trkpt>
      <trkpt lat="47.03261" lon="-1.66172">
        <ele>71</ele>
        <time>2021-09-18T11:20:28.000Z</time>
      </trkpt>
      <trkpt lat="47.03267" lon="-1.66159">
        <ele>71</ele>
        <time>2021-09-18T11:20:29.000Z</time>
      </trkpt>
      <trkpt lat="47.03272" lon="-1.66146">
        <ele>71</ele>
        <time>2021-09-18T11:20:30.000Z</time>
      </trkpt>
      <trkpt lat="47.03278" lon="-1.66133">
        <ele>71</ele>
        <time>2021-09-18T11:20:31.000Z</time>
      </trkpt>
      <trkpt lat="47.03285" lon="-1.66122">
        <ele>70</ele>
        <time>2021-09-18T11:20:32.000Z</time>
      </trkpt>
      <trkpt lat="47.03294" lon="-1.66113">
        <ele>70</ele>
        <time>2021-09-18T11:20:33.000Z</time>
      </trkpt>
      <trkpt lat="47.03303" lon="-1.66107">
        <ele>69</ele>
        <time>2021-09-18T11:20:34.000Z</time>
      </trkpt>
      <trkpt lat="47.03322" lon="-1.66102">
        <ele>69</ele>
        <time>2021-09-18T11:20:36.000Z</time>
      </trkpt>
      <trkpt lat="47.0334" lon="-1.66107">
        <ele>69</ele>
        <time>2021-09-18T11:20:38.000Z</time>
      </trkpt>
      <trkpt lat="47.03348" lon="-1.66112">
        <ele>68</ele>
        <time>2021-09-18T11:20:39.000Z</time>
      </trkpt>
      <trkpt lat="47.03363" lon="-1.66122">
        <ele>68</ele>
        <time>2021-09-18T11:20:41.000Z</time>
      </trkpt>
      <trkpt lat="47.03379" lon="-1.66122">
        <ele>67</ele>
        <time>2021-09-18T11:20:43.000Z</time>
      </trkpt>
      <trkpt lat="47.03388" lon="-1.66108">
        <ele>66</ele>
        <time>2021-09-18T11:20:45.000Z</time>
      </trkpt>
      <trkpt lat="47.03388" lon="-1.66094">
        <ele>66</ele>
        <time>2021-09-18T11:20:47.000Z</time>
      </trkpt>
      <trkpt lat="47.03385" lon="-1.66079">
        <ele>66</ele>
        <time>2021-09-18T11:20:49.000Z</time>
      </trkpt>
      <trkpt lat="47.03383" lon="-1.66062">
        <ele>66</ele>
        <time>2021-09-18T11:20:51.000Z</time>
      </trkpt>
      <trkpt lat="47.03387" lon="-1.66044">
        <ele>67</ele>
        <time>2021-09-18T11:20:53.000Z</time>
      </trkpt>
      <trkpt lat="47.03394" lon="-1.66026">
        <ele>67</ele>
        <time>2021-09-18T11:20:55.000Z</time>
      </trkpt>
      <trkpt lat="47.03401" lon="-1.66007">
        <ele>67</ele>
        <time>2021-09-18T11:20:57.000Z</time>
      </trkpt>
      <trkpt lat="47.03401" lon="-1.65984">
        <ele>67</ele>
        <time>2021-09-18T11:20:59.000Z</time>
      </trkpt>
      <trkpt lat="47.03399" lon="-1.65961">
        <ele>68</ele>
        <time>2021-09-18T11:21:01.000Z</time>
      </trkpt>
      <trkpt lat="47.03398" lon="-1.65939">
        <ele>69</ele>
        <time>2021-09-18T11:21:03.000Z</time>
      </trkpt>
      <trkpt lat="47.03397" lon="-1.65918">
        <ele>69</ele>
        <time>2021-09-18T11:21:05.000Z</time>
      </trkpt>
      <trkpt lat="47.0339" lon="-1.65888">
        <ele>70</ele>
        <time>2021-09-18T11:21:08.000Z</time>
      </trkpt>
      <trkpt lat="47.03384" lon="-1.6587">
        <ele>70</ele>
        <time>2021-09-18T11:21:10.000Z</time>
      </trkpt>
      <trkpt lat="47.03376" lon="-1.65853">
        <ele>70</ele>
        <time>2021-09-18T11:21:12.000Z</time>
      </trkpt>
      <trkpt lat="47.03369" lon="-1.65838">
        <ele>70</ele>
        <time>2021-09-18T11:21:14.000Z</time>
      </trkpt>
      <trkpt lat="47.03362" lon="-1.65822">
        <ele>71</ele>
        <time>2021-09-18T11:21:16.000Z</time>
      </trkpt>
      <trkpt lat="47.0335" lon="-1.65798">
        <ele>71</ele>
        <time>2021-09-18T11:21:19.000Z</time>
      </trkpt>
      <trkpt lat="47.03343" lon="-1.65782">
        <ele>71</ele>
        <time>2021-09-18T11:21:21.000Z</time>
      </trkpt>
      <trkpt lat="47.03335" lon="-1.65765">
        <ele>71</ele>
        <time>2021-09-18T11:21:23.000Z</time>
      </trkpt>
      <trkpt lat="47.03327" lon="-1.65748">
        <ele>71</ele>
        <time>2021-09-18T11:21:25.000Z</time>
      </trkpt>
      <trkpt lat="47.03321" lon="-1.65729">
        <ele>70</ele>
        <time>2021-09-18T11:21:27.000Z</time>
      </trkpt>
      <trkpt lat="47.03317" lon="-1.65709">
        <ele>70</ele>
        <time>2021-09-18T11:21:29.000Z</time>
      </trkpt>
      <trkpt lat="47.03314" lon="-1.65689">
        <ele>69</ele>
        <time>2021-09-18T11:21:31.000Z</time>
      </trkpt>
      <trkpt lat="47.03312" lon="-1.65668">
        <ele>69</ele>
        <time>2021-09-18T11:21:33.000Z</time>
      </trkpt>
      <trkpt lat="47.03313" lon="-1.65646">
        <ele>69</ele>
        <time>2021-09-18T11:21:35.000Z</time>
      </trkpt>
      <trkpt lat="47.03314" lon="-1.65624">
        <ele>69</ele>
        <time>2021-09-18T11:21:37.000Z</time>
      </trkpt>
      <trkpt lat="47.0331" lon="-1.65604">
        <ele>69</ele>
        <time>2021-09-18T11:21:39.000Z</time>
      </trkpt>
      <trkpt lat="47.03305" lon="-1.65583">
        <ele>69</ele>
        <time>2021-09-18T11:21:41.000Z</time>
      </trkpt>
      <trkpt lat="47.03307" lon="-1.65561">
        <ele>69</ele>
        <time>2021-09-18T11:21:43.000Z</time>
      </trkpt>
      <trkpt lat="47.0331" lon="-1.65538">
        <ele>68</ele>
        <time>2021-09-18T11:21:45.000Z</time>
      </trkpt>
      <trkpt lat="47.03306" lon="-1.65516">
        <ele>68</ele>
        <time>2021-09-18T11:21:47.000Z</time>
      </trkpt>
      <trkpt lat="47.03301" lon="-1.65494">
        <ele>68</ele>
        <time>2021-09-18T11:21:49.000Z</time>
      </trkpt>
      <trkpt lat="47.03297" lon="-1.65472">
        <ele>67</ele>
        <time>2021-09-18T11:21:51.000Z</time>
      </trkpt>
      <trkpt lat="47.03292" lon="-1.6545">
        <ele>67</ele>
        <time>2021-09-18T11:21:53.000Z</time>
      </trkpt>
      <trkpt lat="47.03286" lon="-1.65428">
        <ele>67</ele>
        <time>2021-09-18T11:21:55.000Z</time>
      </trkpt>
      <trkpt lat="47.03281" lon="-1.65405">
        <ele>66</ele>
        <time>2021-09-18T11:21:57.000Z</time>
      </trkpt>
      <trkpt lat="47.03276" lon="-1.65383">
        <ele>65</ele>
        <time>2021-09-18T11:21:59.000Z</time>
      </trkpt>
      <trkpt lat="47.0327" lon="-1.65359">
        <ele>65</ele>
        <time>2021-09-18T11:22:01.000Z</time>
      </trkpt>
      <trkpt lat="47.03265" lon="-1.65336">
        <ele>64</ele>
        <time>2021-09-18T11:22:03.000Z</time>
      </trkpt>
      <trkpt lat="47.03259" lon="-1.65312">
        <ele>63</ele>
        <time>2021-09-18T11:22:05.000Z</time>
      </trkpt>
      <trkpt lat="47.03254" lon="-1.65289">
        <ele>63</ele>
        <time>2021-09-18T11:22:07.000Z</time>
      </trkpt>
      <trkpt lat="47.03248" lon="-1.65267">
        <ele>63</ele>
        <time>2021-09-18T11:22:09.000Z</time>
      </trkpt>
      <trkpt lat="47.03242" lon="-1.65245">
        <ele>63</ele>
        <time>2021-09-18T11:22:11.000Z</time>
      </trkpt>
      <trkpt lat="47.03236" lon="-1.65223">
        <ele>63</ele>
        <time>2021-09-18T11:22:13.000Z</time>
      </trkpt>
      <trkpt lat="47.0323" lon="-1.65204">
        <ele>63</ele>
        <time>2021-09-18T11:22:15.000Z</time>
      </trkpt>
      <trkpt lat="47.03223" lon="-1.65185">
        <ele>63</ele>
        <time>2021-09-18T11:22:17.000Z</time>
      </trkpt>
      <trkpt lat="47.03216" lon="-1.65166">
        <ele>63</ele>
        <time>2021-09-18T11:22:19.000Z</time>
      </trkpt>
      <trkpt lat="47.03209" lon="-1.65147">
        <ele>63</ele>
        <time>2021-09-18T11:22:21.000Z</time>
      </trkpt>
      <trkpt lat="47.03201" lon="-1.65129">
        <ele>63</ele>
        <time>2021-09-18T11:22:23.000Z</time>
      </trkpt>
      <trkpt lat="47.03193" lon="-1.65111">
        <ele>63</ele>
        <time>2021-09-18T11:22:25.000Z</time>
      </trkpt>
      <trkpt lat="47.03186" lon="-1.65095">
        <ele>63</ele>
        <time>2021-09-18T11:22:27.000Z</time>
      </trkpt>
      <trkpt lat="47.03178" lon="-1.65078">
        <ele>63</ele>
        <time>2021-09-18T11:22:29.000Z</time>
      </trkpt>
      <trkpt lat="47.0317" lon="-1.65062">
        <ele>63</ele>
        <time>2021-09-18T11:22:31.000Z</time>
      </trkpt>
      <trkpt lat="47.03162" lon="-1.65046">
        <ele>63</ele>
        <time>2021-09-18T11:22:33.000Z</time>
      </trkpt>
      <trkpt lat="47.03153" lon="-1.65031">
        <ele>63</ele>
        <time>2021-09-18T11:22:35.000Z</time>
      </trkpt>
      <trkpt lat="47.03145" lon="-1.65015">
        <ele>63</ele>
        <time>2021-09-18T11:22:37.000Z</time>
      </trkpt>
      <trkpt lat="47.03136" lon="-1.65001">
        <ele>63</ele>
        <time>2021-09-18T11:22:39.000Z</time>
      </trkpt>
      <trkpt lat="47.03127" lon="-1.64987">
        <ele>63</ele>
        <time>2021-09-18T11:22:41.000Z</time>
      </trkpt>
      <trkpt lat="47.03119" lon="-1.64972">
        <ele>63</ele>
        <time>2021-09-18T11:22:43.000Z</time>
      </trkpt>
      <trkpt lat="47.0311" lon="-1.64958">
        <ele>63</ele>
        <time>2021-09-18T11:22:45.000Z</time>
      </trkpt>
      <trkpt lat="47.03101" lon="-1.64943">
        <ele>63</ele>
        <time>2021-09-18T11:22:47.000Z</time>
      </trkpt>
      <trkpt lat="47.03093" lon="-1.64928">
        <ele>63</ele>
        <time>2021-09-18T11:22:49.000Z</time>
      </trkpt>
      <trkpt lat="47.03084" lon="-1.64914">
        <ele>63</ele>
        <time>2021-09-18T11:22:51.000Z</time>
      </trkpt>
      <trkpt lat="47.03076" lon="-1.649">
        <ele>63</ele>
        <time>2021-09-18T11:22:53.000Z</time>
      </trkpt>
      <trkpt lat="47.03067" lon="-1.64886">
        <ele>64</ele>
        <time>2021-09-18T11:22:55.000Z</time>
      </trkpt>
      <trkpt lat="47.03058" lon="-1.64871">
        <ele>64</ele>
        <time>2021-09-18T11:22:57.000Z</time>
      </trkpt>
      <trkpt lat="47.0305" lon="-1.64857">
        <ele>63</ele>
        <time>2021-09-18T11:22:59.000Z</time>
      </trkpt>
      <trkpt lat="47.03041" lon="-1.64842">
        <ele>64</ele>
        <time>2021-09-18T11:23:01.000Z</time>
      </trkpt>
      <trkpt lat="47.03033" lon="-1.64827">
        <ele>64</ele>
        <time>2021-09-18T11:23:03.000Z</time>
      </trkpt>
      <trkpt lat="47.03023" lon="-1.64814">
        <ele>64</ele>
        <time>2021-09-18T11:23:05.000Z</time>
      </trkpt>
      <trkpt lat="47.03013" lon="-1.64803">
        <ele>64</ele>
        <time>2021-09-18T11:23:07.000Z</time>
      </trkpt>
      <trkpt lat="47.03001" lon="-1.64797">
        <ele>65</ele>
        <time>2021-09-18T11:23:09.000Z</time>
      </trkpt>
      <trkpt lat="47.02991" lon="-1.64786">
        <ele>65</ele>
        <time>2021-09-18T11:23:11.000Z</time>
      </trkpt>
      <trkpt lat="47.02985" lon="-1.64769">
        <ele>65</ele>
        <time>2021-09-18T11:23:13.000Z</time>
      </trkpt>
      <trkpt lat="47.02981" lon="-1.64751">
        <ele>65</ele>
        <time>2021-09-18T11:23:15.000Z</time>
      </trkpt>
      <trkpt lat="47.02974" lon="-1.64735">
        <ele>65</ele>
        <time>2021-09-18T11:23:17.000Z</time>
      </trkpt>
      <trkpt lat="47.02964" lon="-1.6472">
        <ele>65</ele>
        <time>2021-09-18T11:23:19.000Z</time>
      </trkpt>
      <trkpt lat="47.02955" lon="-1.64706">
        <ele>65</ele>
        <time>2021-09-18T11:23:21.000Z</time>
      </trkpt>
      <trkpt lat="47.02946" lon="-1.64693">
        <ele>65</ele>
        <time>2021-09-18T11:23:23.000Z</time>
      </trkpt>
      <trkpt lat="47.02938" lon="-1.64679">
        <ele>66</ele>
        <time>2021-09-18T11:23:25.000Z</time>
      </trkpt>
      <trkpt lat="47.02929" lon="-1.64666">
        <ele>66</ele>
        <time>2021-09-18T11:23:27.000Z</time>
      </trkpt>
      <trkpt lat="47.02919" lon="-1.64652">
        <ele>67</ele>
        <time>2021-09-18T11:23:29.000Z</time>
      </trkpt>
      <trkpt lat="47.0291" lon="-1.64638">
        <ele>67</ele>
        <time>2021-09-18T11:23:31.000Z</time>
      </trkpt>
      <trkpt lat="47.02902" lon="-1.64624">
        <ele>67</ele>
        <time>2021-09-18T11:23:33.000Z</time>
      </trkpt>
      <trkpt lat="47.02893" lon="-1.64611">
        <ele>68</ele>
        <time>2021-09-18T11:23:35.000Z</time>
      </trkpt>
      <trkpt lat="47.02884" lon="-1.64597">
        <ele>69</ele>
        <time>2021-09-18T11:23:37.000Z</time>
      </trkpt>
      <trkpt lat="47.02875" lon="-1.64584">
        <ele>69</ele>
        <time>2021-09-18T11:23:39.000Z</time>
      </trkpt>
      <trkpt lat="47.02867" lon="-1.64571">
        <ele>69</ele>
        <time>2021-09-18T11:23:41.000Z</time>
      </trkpt>
      <trkpt lat="47.02858" lon="-1.64558">
        <ele>69</ele>
        <time>2021-09-18T11:23:43.000Z</time>
      </trkpt>
      <trkpt lat="47.0285" lon="-1.64544">
        <ele>69</ele>
        <time>2021-09-18T11:23:45.000Z</time>
      </trkpt>
      <trkpt lat="47.02842" lon="-1.6453">
        <ele>69</ele>
        <time>2021-09-18T11:23:47.000Z</time>
      </trkpt>
      <trkpt lat="47.02834" lon="-1.64517">
        <ele>69</ele>
        <time>2021-09-18T11:23:49.000Z</time>
      </trkpt>
      <trkpt lat="47.02826" lon="-1.64503">
        <ele>69</ele>
        <time>2021-09-18T11:23:51.000Z</time>
      </trkpt>
      <trkpt lat="47.02818" lon="-1.64489">
        <ele>69</ele>
        <time>2021-09-18T11:23:53.000Z</time>
      </trkpt>
      <trkpt lat="47.02811" lon="-1.64475">
        <ele>69</ele>
        <time>2021-09-18T11:23:55.000Z</time>
      </trkpt>
      <trkpt lat="47.02804" lon="-1.6446">
        <ele>69</ele>
        <time>2021-09-18T11:23:57.000Z</time>
      </trkpt>
      <trkpt lat="47.02797" lon="-1.64445">
        <ele>69</ele>
        <time>2021-09-18T11:23:59.000Z</time>
      </trkpt>
      <trkpt lat="47.02789" lon="-1.6443">
        <ele>68</ele>
        <time>2021-09-18T11:24:01.000Z</time>
      </trkpt>
      <trkpt lat="47.0278" lon="-1.64415">
        <ele>68</ele>
        <time>2021-09-18T11:24:03.000Z</time>
      </trkpt>
      <trkpt lat="47.0277" lon="-1.64403">
        <ele>68</ele>
        <time>2021-09-18T11:24:05.000Z</time>
      </trkpt>
      <trkpt lat="47.0276" lon="-1.64392">
        <ele>68</ele>
        <time>2021-09-18T11:24:07.000Z</time>
      </trkpt>
      <trkpt lat="47.02757" lon="-1.64375">
        <ele>68</ele>
        <time>2021-09-18T11:24:09.000Z</time>
      </trkpt>
      <trkpt lat="47.02766" lon="-1.64359">
        <ele>68</ele>
        <time>2021-09-18T11:24:11.000Z</time>
      </trkpt>
      <trkpt lat="47.02779" lon="-1.64357">
        <ele>68</ele>
        <time>2021-09-18T11:24:13.000Z</time>
      </trkpt>
      <trkpt lat="47.02793" lon="-1.64357">
        <ele>68</ele>
        <time>2021-09-18T11:24:15.000Z</time>
      </trkpt>
      <trkpt lat="47.02806" lon="-1.64351">
        <ele>67</ele>
        <time>2021-09-18T11:24:17.000Z</time>
      </trkpt>
      <trkpt lat="47.02818" lon="-1.64342">
        <ele>67</ele>
        <time>2021-09-18T11:24:19.000Z</time>
      </trkpt>
      <trkpt lat="47.0283" lon="-1.64337">
        <ele>67</ele>
        <time>2021-09-18T11:24:21.000Z</time>
      </trkpt>
      <trkpt lat="47.02843" lon="-1.64333">
        <ele>67</ele>
        <time>2021-09-18T11:24:23.000Z</time>
      </trkpt>
      <trkpt lat="47.02855" lon="-1.64332">
        <ele>68</ele>
        <time>2021-09-18T11:24:25.000Z</time>
      </trkpt>
      <trkpt lat="47.02868" lon="-1.64332">
        <ele>68</ele>
        <time>2021-09-18T11:24:27.000Z</time>
      </trkpt>
      <trkpt lat="47.0288" lon="-1.64332">
        <ele>68</ele>
        <time>2021-09-18T11:24:29.000Z</time>
      </trkpt>
      <trkpt lat="47.02892" lon="-1.64328">
        <ele>68</ele>
        <time>2021-09-18T11:24:31.000Z</time>
      </trkpt>
      <trkpt lat="47.02904" lon="-1.6432">
        <ele>68</ele>
        <time>2021-09-18T11:24:33.000Z</time>
      </trkpt>
      <trkpt lat="47.02916" lon="-1.64312">
        <ele>68</ele>
        <time>2021-09-18T11:24:35.000Z</time>
      </trkpt>
      <trkpt lat="47.02928" lon="-1.64304">
        <ele>68</ele>
        <time>2021-09-18T11:24:37.000Z</time>
      </trkpt>
      <trkpt lat="47.02941" lon="-1.64295">
        <ele>67</ele>
        <time>2021-09-18T11:24:39.000Z</time>
      </trkpt>
      <trkpt lat="47.02955" lon="-1.64285">
        <ele>67</ele>
        <time>2021-09-18T11:24:41.000Z</time>
      </trkpt>
      <trkpt lat="47.02969" lon="-1.64276">
        <ele>66</ele>
        <time>2021-09-18T11:24:43.000Z</time>
      </trkpt>
      <trkpt lat="47.02983" lon="-1.64266">
        <ele>66</ele>
        <time>2021-09-18T11:24:45.000Z</time>
      </trkpt>
      <trkpt lat="47.02998" lon="-1.64255">
        <ele>65</ele>
        <time>2021-09-18T11:24:47.000Z</time>
      </trkpt>
      <trkpt lat="47.03013" lon="-1.64244">
        <ele>65</ele>
        <time>2021-09-18T11:24:49.000Z</time>
      </trkpt>
      <trkpt lat="47.03028" lon="-1.64233">
        <ele>65</ele>
        <time>2021-09-18T11:24:51.000Z</time>
      </trkpt>
      <trkpt lat="47.03043" lon="-1.64224">
        <ele>64</ele>
        <time>2021-09-18T11:24:53.000Z</time>
      </trkpt>
      <trkpt lat="47.03059" lon="-1.64217">
        <ele>64</ele>
        <time>2021-09-18T11:24:55.000Z</time>
      </trkpt>
      <trkpt lat="47.03076" lon="-1.64212">
        <ele>64</ele>
        <time>2021-09-18T11:24:57.000Z</time>
      </trkpt>
      <trkpt lat="47.03093" lon="-1.64212">
        <ele>64</ele>
        <time>2021-09-18T11:24:59.000Z</time>
      </trkpt>
      <trkpt lat="47.0311" lon="-1.64217">
        <ele>63</ele>
        <time>2021-09-18T11:25:01.000Z</time>
      </trkpt>
      <trkpt lat="47.03127" lon="-1.64222">
        <ele>63</ele>
        <time>2021-09-18T11:25:03.000Z</time>
      </trkpt>
      <trkpt lat="47.03136" lon="-1.64225">
        <ele>62</ele>
        <time>2021-09-18T11:25:04.000Z</time>
      </trkpt>
      <trkpt lat="47.03154" lon="-1.6423">
        <ele>62</ele>
        <time>2021-09-18T11:25:06.000Z</time>
      </trkpt>
      <trkpt lat="47.03171" lon="-1.64235">
        <ele>61</ele>
        <time>2021-09-18T11:25:08.000Z</time>
      </trkpt>
      <trkpt lat="47.03189" lon="-1.64238">
        <ele>61</ele>
        <time>2021-09-18T11:25:10.000Z</time>
      </trkpt>
      <trkpt lat="47.03206" lon="-1.64238">
        <ele>61</ele>
        <time>2021-09-18T11:25:12.000Z</time>
      </trkpt>
      <trkpt lat="47.03224" lon="-1.64238">
        <ele>60</ele>
        <time>2021-09-18T11:25:14.000Z</time>
      </trkpt>
      <trkpt lat="47.03241" lon="-1.64237">
        <ele>60</ele>
        <time>2021-09-18T11:25:16.000Z</time>
      </trkpt>
      <trkpt lat="47.03258" lon="-1.64237">
        <ele>60</ele>
        <time>2021-09-18T11:25:18.000Z</time>
      </trkpt>
      <trkpt lat="47.03275" lon="-1.64238">
        <ele>60</ele>
        <time>2021-09-18T11:25:20.000Z</time>
      </trkpt>
      <trkpt lat="47.03292" lon="-1.64237">
        <ele>59</ele>
        <time>2021-09-18T11:25:22.000Z</time>
      </trkpt>
      <trkpt lat="47.03308" lon="-1.64236">
        <ele>59</ele>
        <time>2021-09-18T11:25:24.000Z</time>
      </trkpt>
      <trkpt lat="47.03325" lon="-1.64236">
        <ele>58</ele>
        <time>2021-09-18T11:25:26.000Z</time>
      </trkpt>
      <trkpt lat="47.03341" lon="-1.64237">
        <ele>58</ele>
        <time>2021-09-18T11:25:28.000Z</time>
      </trkpt>
      <trkpt lat="47.03357" lon="-1.6424">
        <ele>57</ele>
        <time>2021-09-18T11:25:30.000Z</time>
      </trkpt>
      <trkpt lat="47.03372" lon="-1.64243">
        <ele>57</ele>
        <time>2021-09-18T11:25:32.000Z</time>
      </trkpt>
      <trkpt lat="47.03388" lon="-1.64246">
        <ele>57</ele>
        <time>2021-09-18T11:25:34.000Z</time>
      </trkpt>
      <trkpt lat="47.03403" lon="-1.64252">
        <ele>57</ele>
        <time>2021-09-18T11:25:36.000Z</time>
      </trkpt>
      <trkpt lat="47.03418" lon="-1.64257">
        <ele>56</ele>
        <time>2021-09-18T11:25:38.000Z</time>
      </trkpt>
      <trkpt lat="47.03431" lon="-1.64263">
        <ele>56</ele>
        <time>2021-09-18T11:25:40.000Z</time>
      </trkpt>
      <trkpt lat="47.03445" lon="-1.64268">
        <ele>56</ele>
        <time>2021-09-18T11:25:42.000Z</time>
      </trkpt>
      <trkpt lat="47.03459" lon="-1.64273">
        <ele>56</ele>
        <time>2021-09-18T11:25:44.000Z</time>
      </trkpt>
      <trkpt lat="47.03473" lon="-1.64278">
        <ele>56</ele>
        <time>2021-09-18T11:25:46.000Z</time>
      </trkpt>
      <trkpt lat="47.03488" lon="-1.64283">
        <ele>56</ele>
        <time>2021-09-18T11:25:48.000Z</time>
      </trkpt>
      <trkpt lat="47.03503" lon="-1.64288">
        <ele>56</ele>
        <time>2021-09-18T11:25:50.000Z</time>
      </trkpt>
      <trkpt lat="47.03518" lon="-1.64294">
        <ele>56</ele>
        <time>2021-09-18T11:25:52.000Z</time>
      </trkpt>
      <trkpt lat="47.03532" lon="-1.64299">
        <ele>56</ele>
        <time>2021-09-18T11:25:54.000Z</time>
      </trkpt>
      <trkpt lat="47.03546" lon="-1.64303">
        <ele>56</ele>
        <time>2021-09-18T11:25:56.000Z</time>
      </trkpt>
      <trkpt lat="47.0356" lon="-1.64303">
        <ele>56</ele>
        <time>2021-09-18T11:25:58.000Z</time>
      </trkpt>
      <trkpt lat="47.03573" lon="-1.64297">
        <ele>56</ele>
        <time>2021-09-18T11:26:00.000Z</time>
      </trkpt>
      <trkpt lat="47.03573" lon="-1.6428">
        <ele>56</ele>
        <time>2021-09-18T11:26:02.000Z</time>
      </trkpt>
      <trkpt lat="47.03567" lon="-1.64261">
        <ele>56</ele>
        <time>2021-09-18T11:26:04.000Z</time>
      </trkpt>
      <trkpt lat="47.03562" lon="-1.64242">
        <ele>56</ele>
        <time>2021-09-18T11:26:06.000Z</time>
      </trkpt>
      <trkpt lat="47.03557" lon="-1.64225">
        <ele>56</ele>
        <time>2021-09-18T11:26:08.000Z</time>
      </trkpt>
      <trkpt lat="47.03553" lon="-1.64211">
        <ele>55</ele>
        <time>2021-09-18T11:26:10.000Z</time>
      </trkpt>
      <trkpt lat="47.03556" lon="-1.64196">
        <ele>55</ele>
        <time>2021-09-18T11:26:12.000Z</time>
      </trkpt>
      <trkpt lat="47.03567" lon="-1.64188">
        <ele>56</ele>
        <time>2021-09-18T11:26:14.000Z</time>
      </trkpt>
      <trkpt lat="47.03578" lon="-1.64182">
        <ele>56</ele>
        <time>2021-09-18T11:26:16.000Z</time>
      </trkpt>
      <trkpt lat="47.03588" lon="-1.64175">
        <ele>55</ele>
        <time>2021-09-18T11:26:18.000Z</time>
      </trkpt>
      <trkpt lat="47.03599" lon="-1.64167">
        <ele>55</ele>
        <time>2021-09-18T11:26:20.000Z</time>
      </trkpt>
      <trkpt lat="47.03609" lon="-1.64159">
        <ele>55</ele>
        <time>2021-09-18T11:26:23.000Z</time>
      </trkpt>
      <trkpt lat="47.03616" lon="-1.64147">
        <ele>55</ele>
        <time>2021-09-18T11:26:26.000Z</time>
      </trkpt>
      <trkpt lat="47.03625" lon="-1.64143">
        <ele>55</ele>
        <time>2021-09-18T11:26:28.000Z</time>
      </trkpt>
      <trkpt lat="47.03635" lon="-1.64142">
        <ele>56</ele>
        <time>2021-09-18T11:26:30.000Z</time>
      </trkpt>
      <trkpt lat="47.03646" lon="-1.64135">
        <ele>55</ele>
        <time>2021-09-18T11:26:32.000Z</time>
      </trkpt>
      <trkpt lat="47.03657" lon="-1.64128">
        <ele>55</ele>
        <time>2021-09-18T11:26:34.000Z</time>
      </trkpt>
      <trkpt lat="47.03669" lon="-1.64123">
        <ele>54</ele>
        <time>2021-09-18T11:26:36.000Z</time>
      </trkpt>
      <trkpt lat="47.03683" lon="-1.6412">
        <ele>54</ele>
        <time>2021-09-18T11:26:38.000Z</time>
      </trkpt>
      <trkpt lat="47.03697" lon="-1.64117">
        <ele>54</ele>
        <time>2021-09-18T11:26:40.000Z</time>
      </trkpt>
      <trkpt lat="47.0371" lon="-1.64113">
        <ele>54</ele>
        <time>2021-09-18T11:26:42.000Z</time>
      </trkpt>
      <trkpt lat="47.03724" lon="-1.6411">
        <ele>54</ele>
        <time>2021-09-18T11:26:44.000Z</time>
      </trkpt>
      <trkpt lat="47.03738" lon="-1.64107">
        <ele>54</ele>
        <time>2021-09-18T11:26:46.000Z</time>
      </trkpt>
      <trkpt lat="47.03752" lon="-1.64104">
        <ele>54</ele>
        <time>2021-09-18T11:26:48.000Z</time>
      </trkpt>
      <trkpt lat="47.03765" lon="-1.64101">
        <ele>54</ele>
        <time>2021-09-18T11:26:50.000Z</time>
      </trkpt>
      <trkpt lat="47.03779" lon="-1.64099">
        <ele>53</ele>
        <time>2021-09-18T11:26:52.000Z</time>
      </trkpt>
      <trkpt lat="47.03792" lon="-1.64096">
        <ele>53</ele>
        <time>2021-09-18T11:26:54.000Z</time>
      </trkpt>
      <trkpt lat="47.03806" lon="-1.64093">
        <ele>52</ele>
        <time>2021-09-18T11:26:56.000Z</time>
      </trkpt>
      <trkpt lat="47.03819" lon="-1.6409">
        <ele>52</ele>
        <time>2021-09-18T11:26:58.000Z</time>
      </trkpt>
      <trkpt lat="47.03832" lon="-1.64086">
        <ele>53</ele>
        <time>2021-09-18T11:27:00.000Z</time>
      </trkpt>
      <trkpt lat="47.03845" lon="-1.64084">
        <ele>53</ele>
        <time>2021-09-18T11:27:02.000Z</time>
      </trkpt>
      <trkpt lat="47.03858" lon="-1.64085">
        <ele>54</ele>
        <time>2021-09-18T11:27:04.000Z</time>
      </trkpt>
      <trkpt lat="47.0387" lon="-1.64093">
        <ele>55</ele>
        <time>2021-09-18T11:27:06.000Z</time>
      </trkpt>
      <trkpt lat="47.03883" lon="-1.64097">
        <ele>54</ele>
        <time>2021-09-18T11:27:08.000Z</time>
      </trkpt>
      <trkpt lat="47.03896" lon="-1.64104">
        <ele>54</ele>
        <time>2021-09-18T11:27:10.000Z</time>
      </trkpt>
      <trkpt lat="47.03908" lon="-1.64112">
        <ele>54</ele>
        <time>2021-09-18T11:27:12.000Z</time>
      </trkpt>
      <trkpt lat="47.03921" lon="-1.64119">
        <ele>54</ele>
        <time>2021-09-18T11:27:14.000Z</time>
      </trkpt>
      <trkpt lat="47.03935" lon="-1.64127">
        <ele>54</ele>
        <time>2021-09-18T11:27:16.000Z</time>
      </trkpt>
      <trkpt lat="47.03948" lon="-1.64135">
        <ele>54</ele>
        <time>2021-09-18T11:27:18.000Z</time>
      </trkpt>
      <trkpt lat="47.03962" lon="-1.6414">
        <ele>54</ele>
        <time>2021-09-18T11:27:20.000Z</time>
      </trkpt>
      <trkpt lat="47.03975" lon="-1.6414">
        <ele>54</ele>
        <time>2021-09-18T11:27:22.000Z</time>
      </trkpt>
      <trkpt lat="47.03989" lon="-1.64135">
        <ele>54</ele>
        <time>2021-09-18T11:27:24.000Z</time>
      </trkpt>
      <trkpt lat="47.04001" lon="-1.64128">
        <ele>54</ele>
        <time>2021-09-18T11:27:26.000Z</time>
      </trkpt>
      <trkpt lat="47.04014" lon="-1.64122">
        <ele>54</ele>
        <time>2021-09-18T11:27:28.000Z</time>
      </trkpt>
      <trkpt lat="47.04026" lon="-1.64117">
        <ele>54</ele>
        <time>2021-09-18T11:27:30.000Z</time>
      </trkpt>
      <trkpt lat="47.04039" lon="-1.64111">
        <ele>53</ele>
        <time>2021-09-18T11:27:32.000Z</time>
      </trkpt>
      <trkpt lat="47.04052" lon="-1.64105">
        <ele>53</ele>
        <time>2021-09-18T11:27:34.000Z</time>
      </trkpt>
      <trkpt lat="47.04067" lon="-1.64099">
        <ele>53</ele>
        <time>2021-09-18T11:27:36.000Z</time>
      </trkpt>
      <trkpt lat="47.04083" lon="-1.64092">
        <ele>53</ele>
        <time>2021-09-18T11:27:38.000Z</time>
      </trkpt>
      <trkpt lat="47.04099" lon="-1.64085">
        <ele>52</ele>
        <time>2021-09-18T11:27:40.000Z</time>
      </trkpt>
      <trkpt lat="47.04115" lon="-1.64077">
        <ele>52</ele>
        <time>2021-09-18T11:27:42.000Z</time>
      </trkpt>
      <trkpt lat="47.0413" lon="-1.6407">
        <ele>52</ele>
        <time>2021-09-18T11:27:44.000Z</time>
      </trkpt>
      <trkpt lat="47.04145" lon="-1.64064">
        <ele>52</ele>
        <time>2021-09-18T11:27:46.000Z</time>
      </trkpt>
      <trkpt lat="47.04159" lon="-1.64059">
        <ele>52</ele>
        <time>2021-09-18T11:27:48.000Z</time>
      </trkpt>
      <trkpt lat="47.04172" lon="-1.64052">
        <ele>52</ele>
        <time>2021-09-18T11:27:50.000Z</time>
      </trkpt>
      <trkpt lat="47.04186" lon="-1.64045">
        <ele>52</ele>
        <time>2021-09-18T11:27:52.000Z</time>
      </trkpt>
      <trkpt lat="47.042" lon="-1.64039">
        <ele>52</ele>
        <time>2021-09-18T11:27:54.000Z</time>
      </trkpt>
      <trkpt lat="47.04214" lon="-1.64033">
        <ele>52</ele>
        <time>2021-09-18T11:27:56.000Z</time>
      </trkpt>
      <trkpt lat="47.04228" lon="-1.64026">
        <ele>51</ele>
        <time>2021-09-18T11:27:58.000Z</time>
      </trkpt>
      <trkpt lat="47.04242" lon="-1.6402">
        <ele>52</ele>
        <time>2021-09-18T11:28:00.000Z</time>
      </trkpt>
      <trkpt lat="47.04255" lon="-1.64014">
        <ele>52</ele>
        <time>2021-09-18T11:28:02.000Z</time>
      </trkpt>
      <trkpt lat="47.04269" lon="-1.64008">
        <ele>53</ele>
        <time>2021-09-18T11:28:04.000Z</time>
      </trkpt>
      <trkpt lat="47.04283" lon="-1.64002">
        <ele>53</ele>
        <time>2021-09-18T11:28:06.000Z</time>
      </trkpt>
      <trkpt lat="47.04296" lon="-1.63997">
        <ele>53</ele>
        <time>2021-09-18T11:28:08.000Z</time>
      </trkpt>
      <trkpt lat="47.04309" lon="-1.63991">
        <ele>54</ele>
        <time>2021-09-18T11:28:10.000Z</time>
      </trkpt>
      <trkpt lat="47.04322" lon="-1.63985">
        <ele>54</ele>
        <time>2021-09-18T11:28:12.000Z</time>
      </trkpt>
      <trkpt lat="47.04334" lon="-1.63979">
        <ele>54</ele>
        <time>2021-09-18T11:28:14.000Z</time>
      </trkpt>
      <trkpt lat="47.04347" lon="-1.63974">
        <ele>54</ele>
        <time>2021-09-18T11:28:16.000Z</time>
      </trkpt>
      <trkpt lat="47.0436" lon="-1.63968">
        <ele>54</ele>
        <time>2021-09-18T11:28:18.000Z</time>
      </trkpt>
      <trkpt lat="47.04373" lon="-1.63962">
        <ele>54</ele>
        <time>2021-09-18T11:28:20.000Z</time>
      </trkpt>
      <trkpt lat="47.04387" lon="-1.63956">
        <ele>54</ele>
        <time>2021-09-18T11:28:22.000Z</time>
      </trkpt>
      <trkpt lat="47.044" lon="-1.6395">
        <ele>54</ele>
        <time>2021-09-18T11:28:24.000Z</time>
      </trkpt>
      <trkpt lat="47.04414" lon="-1.63944">
        <ele>53</ele>
        <time>2021-09-18T11:28:26.000Z</time>
      </trkpt>
      <trkpt lat="47.04428" lon="-1.63937">
        <ele>53</ele>
        <time>2021-09-18T11:28:28.000Z</time>
      </trkpt>
      <trkpt lat="47.04441" lon="-1.63931">
        <ele>53</ele>
        <time>2021-09-18T11:28:30.000Z</time>
      </trkpt>
      <trkpt lat="47.04453" lon="-1.63925">
        <ele>53</ele>
        <time>2021-09-18T11:28:32.000Z</time>
      </trkpt>
      <trkpt lat="47.04465" lon="-1.63916">
        <ele>52</ele>
        <time>2021-09-18T11:28:34.000Z</time>
      </trkpt>
      <trkpt lat="47.04478" lon="-1.63909">
        <ele>52</ele>
        <time>2021-09-18T11:28:36.000Z</time>
      </trkpt>
      <trkpt lat="47.04491" lon="-1.63906">
        <ele>53</ele>
        <time>2021-09-18T11:28:38.000Z</time>
      </trkpt>
      <trkpt lat="47.04504" lon="-1.63898">
        <ele>52</ele>
        <time>2021-09-18T11:28:40.000Z</time>
      </trkpt>
      <trkpt lat="47.04517" lon="-1.6389">
        <ele>51</ele>
        <time>2021-09-18T11:28:42.000Z</time>
      </trkpt>
      <trkpt lat="47.0453" lon="-1.63882">
        <ele>51</ele>
        <time>2021-09-18T11:28:44.000Z</time>
      </trkpt>
      <trkpt lat="47.04542" lon="-1.63875">
        <ele>51</ele>
        <time>2021-09-18T11:28:46.000Z</time>
      </trkpt>
      <trkpt lat="47.04555" lon="-1.63866">
        <ele>51</ele>
        <time>2021-09-18T11:28:48.000Z</time>
      </trkpt>
      <trkpt lat="47.04567" lon="-1.63858">
        <ele>51</ele>
        <time>2021-09-18T11:28:50.000Z</time>
      </trkpt>
      <trkpt lat="47.0458" lon="-1.63851">
        <ele>51</ele>
        <time>2021-09-18T11:28:52.000Z</time>
      </trkpt>
      <trkpt lat="47.04593" lon="-1.63846">
        <ele>51</ele>
        <time>2021-09-18T11:28:54.000Z</time>
      </trkpt>
      <trkpt lat="47.04606" lon="-1.63843">
        <ele>51</ele>
        <time>2021-09-18T11:28:56.000Z</time>
      </trkpt>
      <trkpt lat="47.04619" lon="-1.63841">
        <ele>52</ele>
        <time>2021-09-18T11:28:58.000Z</time>
      </trkpt>
      <trkpt lat="47.04632" lon="-1.63839">
        <ele>52</ele>
        <time>2021-09-18T11:29:00.000Z</time>
      </trkpt>
      <trkpt lat="47.04644" lon="-1.63837">
        <ele>52</ele>
        <time>2021-09-18T11:29:02.000Z</time>
      </trkpt>
      <trkpt lat="47.04656" lon="-1.63831">
        <ele>53</ele>
        <time>2021-09-18T11:29:04.000Z</time>
      </trkpt>
      <trkpt lat="47.04668" lon="-1.63823">
        <ele>53</ele>
        <time>2021-09-18T11:29:06.000Z</time>
      </trkpt>
      <trkpt lat="47.0468" lon="-1.63815">
        <ele>54</ele>
        <time>2021-09-18T11:29:08.000Z</time>
      </trkpt>
      <trkpt lat="47.04692" lon="-1.6381">
        <ele>54</ele>
        <time>2021-09-18T11:29:10.000Z</time>
      </trkpt>
      <trkpt lat="47.04704" lon="-1.63805">
        <ele>55</ele>
        <time>2021-09-18T11:29:12.000Z</time>
      </trkpt>
      <trkpt lat="47.04716" lon="-1.638">
        <ele>55</ele>
        <time>2021-09-18T11:29:14.000Z</time>
      </trkpt>
      <trkpt lat="47.0473" lon="-1.63798">
        <ele>56</ele>
        <time>2021-09-18T11:29:16.000Z</time>
      </trkpt>
      <trkpt lat="47.04742" lon="-1.63798">
        <ele>56</ele>
        <time>2021-09-18T11:29:18.000Z</time>
      </trkpt>
      <trkpt lat="47.04755" lon="-1.63794">
        <ele>56</ele>
        <time>2021-09-18T11:29:20.000Z</time>
      </trkpt>
      <trkpt lat="47.04768" lon="-1.63789">
        <ele>56</ele>
        <time>2021-09-18T11:29:22.000Z</time>
      </trkpt>
      <trkpt lat="47.04781" lon="-1.63785">
        <ele>57</ele>
        <time>2021-09-18T11:29:24.000Z</time>
      </trkpt>
      <trkpt lat="47.04793" lon="-1.63781">
        <ele>57</ele>
        <time>2021-09-18T11:29:26.000Z</time>
      </trkpt>
      <trkpt lat="47.04805" lon="-1.63779">
        <ele>57</ele>
        <time>2021-09-18T11:29:28.000Z</time>
      </trkpt>
      <trkpt lat="47.04817" lon="-1.63777">
        <ele>57</ele>
        <time>2021-09-18T11:29:30.000Z</time>
      </trkpt>
      <trkpt lat="47.04829" lon="-1.63774">
        <ele>58</ele>
        <time>2021-09-18T11:29:32.000Z</time>
      </trkpt>
      <trkpt lat="47.04841" lon="-1.63772">
        <ele>57</ele>
        <time>2021-09-18T11:29:34.000Z</time>
      </trkpt>
      <trkpt lat="47.04854" lon="-1.6377">
        <ele>58</ele>
        <time>2021-09-18T11:29:36.000Z</time>
      </trkpt>
      <trkpt lat="47.04866" lon="-1.63767">
        <ele>58</ele>
        <time>2021-09-18T11:29:38.000Z</time>
      </trkpt>
      <trkpt lat="47.04879" lon="-1.63764">
        <ele>58</ele>
        <time>2021-09-18T11:29:40.000Z</time>
      </trkpt>
      <trkpt lat="47.04893" lon="-1.63761">
        <ele>57</ele>
        <time>2021-09-18T11:29:42.000Z</time>
      </trkpt>
      <trkpt lat="47.04907" lon="-1.63758">
        <ele>57</ele>
        <time>2021-09-18T11:29:44.000Z</time>
      </trkpt>
      <trkpt lat="47.04922" lon="-1.63753">
        <ele>56</ele>
        <time>2021-09-18T11:29:46.000Z</time>
      </trkpt>
      <trkpt lat="47.04935" lon="-1.63744">
        <ele>56</ele>
        <time>2021-09-18T11:29:48.000Z</time>
      </trkpt>
      <trkpt lat="47.04944" lon="-1.63727">
        <ele>56</ele>
        <time>2021-09-18T11:29:50.000Z</time>
      </trkpt>
      <trkpt lat="47.04948" lon="-1.63706">
        <ele>56</ele>
        <time>2021-09-18T11:29:52.000Z</time>
      </trkpt>
      <trkpt lat="47.04947" lon="-1.63684">
        <ele>56</ele>
        <time>2021-09-18T11:29:54.000Z</time>
      </trkpt>
      <trkpt lat="47.04947" lon="-1.63661">
        <ele>56</ele>
        <time>2021-09-18T11:29:56.000Z</time>
      </trkpt>
      <trkpt lat="47.04948" lon="-1.63637">
        <ele>55</ele>
        <time>2021-09-18T11:29:58.000Z</time>
      </trkpt>
      <trkpt lat="47.04953" lon="-1.63613">
        <ele>55</ele>
        <time>2021-09-18T11:30:00.000Z</time>
      </trkpt>
      <trkpt lat="47.04962" lon="-1.63592">
        <ele>54</ele>
        <time>2021-09-18T11:30:02.000Z</time>
      </trkpt>
      <trkpt lat="47.04974" lon="-1.63574">
        <ele>54</ele>
        <time>2021-09-18T11:30:04.000Z</time>
      </trkpt>
      <trkpt lat="47.04988" lon="-1.63561">
        <ele>54</ele>
        <time>2021-09-18T11:30:06.000Z</time>
      </trkpt>
      <trkpt lat="47.05004" lon="-1.63551">
        <ele>53</ele>
        <time>2021-09-18T11:30:08.000Z</time>
      </trkpt>
      <trkpt lat="47.05021" lon="-1.63543">
        <ele>53</ele>
        <time>2021-09-18T11:30:10.000Z</time>
      </trkpt>
      <trkpt lat="47.05037" lon="-1.63537">
        <ele>53</ele>
        <time>2021-09-18T11:30:12.000Z</time>
      </trkpt>
      <trkpt lat="47.05052" lon="-1.63531">
        <ele>53</ele>
        <time>2021-09-18T11:30:14.000Z</time>
      </trkpt>
      <trkpt lat="47.05068" lon="-1.63525">
        <ele>52</ele>
        <time>2021-09-18T11:30:16.000Z</time>
      </trkpt>
      <trkpt lat="47.05083" lon="-1.6352">
        <ele>52</ele>
        <time>2021-09-18T11:30:18.000Z</time>
      </trkpt>
      <trkpt lat="47.05098" lon="-1.63513">
        <ele>52</ele>
        <time>2021-09-18T11:30:20.000Z</time>
      </trkpt>
      <trkpt lat="47.05113" lon="-1.63508">
        <ele>52</ele>
        <time>2021-09-18T11:30:22.000Z</time>
      </trkpt>
      <trkpt lat="47.05128" lon="-1.63501">
        <ele>53</ele>
        <time>2021-09-18T11:30:24.000Z</time>
      </trkpt>
      <trkpt lat="47.05143" lon="-1.63496">
        <ele>53</ele>
        <time>2021-09-18T11:30:26.000Z</time>
      </trkpt>
      <trkpt lat="47.05156" lon="-1.63491">
        <ele>53</ele>
        <time>2021-09-18T11:30:28.000Z</time>
      </trkpt>
      <trkpt lat="47.05171" lon="-1.63485">
        <ele>53</ele>
        <time>2021-09-18T11:30:30.000Z</time>
      </trkpt>
      <trkpt lat="47.05186" lon="-1.63479">
        <ele>53</ele>
        <time>2021-09-18T11:30:32.000Z</time>
      </trkpt>
      <trkpt lat="47.052" lon="-1.63474">
        <ele>53</ele>
        <time>2021-09-18T11:30:34.000Z</time>
      </trkpt>
      <trkpt lat="47.05215" lon="-1.63468">
        <ele>53</ele>
        <time>2021-09-18T11:30:36.000Z</time>
      </trkpt>
      <trkpt lat="47.05229" lon="-1.63463">
        <ele>53</ele>
        <time>2021-09-18T11:30:38.000Z</time>
      </trkpt>
      <trkpt lat="47.05244" lon="-1.63458">
        <ele>53</ele>
        <time>2021-09-18T11:30:40.000Z</time>
      </trkpt>
      <trkpt lat="47.05259" lon="-1.63455">
        <ele>53</ele>
        <time>2021-09-18T11:30:42.000Z</time>
      </trkpt>
      <trkpt lat="47.05274" lon="-1.63451">
        <ele>53</ele>
        <time>2021-09-18T11:30:44.000Z</time>
      </trkpt>
      <trkpt lat="47.05289" lon="-1.63449">
        <ele>52</ele>
        <time>2021-09-18T11:30:46.000Z</time>
      </trkpt>
      <trkpt lat="47.05303" lon="-1.63447">
        <ele>52</ele>
        <time>2021-09-18T11:30:48.000Z</time>
      </trkpt>
      <trkpt lat="47.05317" lon="-1.63445">
        <ele>53</ele>
        <time>2021-09-18T11:30:50.000Z</time>
      </trkpt>
      <trkpt lat="47.05331" lon="-1.63444">
        <ele>53</ele>
        <time>2021-09-18T11:30:52.000Z</time>
      </trkpt>
      <trkpt lat="47.05345" lon="-1.63443">
        <ele>53</ele>
        <time>2021-09-18T11:30:54.000Z</time>
      </trkpt>
      <trkpt lat="47.05358" lon="-1.63439">
        <ele>53</ele>
        <time>2021-09-18T11:30:56.000Z</time>
      </trkpt>
      <trkpt lat="47.05372" lon="-1.63431">
        <ele>53</ele>
        <time>2021-09-18T11:30:58.000Z</time>
      </trkpt>
      <trkpt lat="47.05387" lon="-1.63431">
        <ele>53</ele>
        <time>2021-09-18T11:31:00.000Z</time>
      </trkpt>
      <trkpt lat="47.05402" lon="-1.63433">
        <ele>52</ele>
        <time>2021-09-18T11:31:02.000Z</time>
      </trkpt>
      <trkpt lat="47.05417" lon="-1.63432">
        <ele>52</ele>
        <time>2021-09-18T11:31:04.000Z</time>
      </trkpt>
      <trkpt lat="47.05432" lon="-1.63428">
        <ele>52</ele>
        <time>2021-09-18T11:31:06.000Z</time>
      </trkpt>
      <trkpt lat="47.05447" lon="-1.63425">
        <ele>52</ele>
        <time>2021-09-18T11:31:08.000Z</time>
      </trkpt>
      <trkpt lat="47.05461" lon="-1.63423">
        <ele>52</ele>
        <time>2021-09-18T11:31:10.000Z</time>
      </trkpt>
      <trkpt lat="47.05476" lon="-1.63421">
        <ele>51</ele>
        <time>2021-09-18T11:31:12.000Z</time>
      </trkpt>
      <trkpt lat="47.05491" lon="-1.63419">
        <ele>51</ele>
        <time>2021-09-18T11:31:14.000Z</time>
      </trkpt>
      <trkpt lat="47.05506" lon="-1.63416">
        <ele>51</ele>
        <time>2021-09-18T11:31:16.000Z</time>
      </trkpt>
      <trkpt lat="47.05521" lon="-1.63412">
        <ele>51</ele>
        <time>2021-09-18T11:31:18.000Z</time>
      </trkpt>
      <trkpt lat="47.05536" lon="-1.63408">
        <ele>51</ele>
        <time>2021-09-18T11:31:20.000Z</time>
      </trkpt>
      <trkpt lat="47.05551" lon="-1.63402">
        <ele>50</ele>
        <time>2021-09-18T11:31:22.000Z</time>
      </trkpt>
      <trkpt lat="47.05565" lon="-1.63397">
        <ele>50</ele>
        <time>2021-09-18T11:31:24.000Z</time>
      </trkpt>
      <trkpt lat="47.05579" lon="-1.63391">
        <ele>50</ele>
        <time>2021-09-18T11:31:26.000Z</time>
      </trkpt>
      <trkpt lat="47.05593" lon="-1.63385">
        <ele>50</ele>
        <time>2021-09-18T11:31:28.000Z</time>
      </trkpt>
      <trkpt lat="47.05607" lon="-1.63378">
        <ele>50</ele>
        <time>2021-09-18T11:31:30.000Z</time>
      </trkpt>
      <trkpt lat="47.05621" lon="-1.63371">
        <ele>51</ele>
        <time>2021-09-18T11:31:32.000Z</time>
      </trkpt>
      <trkpt lat="47.05635" lon="-1.63365">
        <ele>50</ele>
        <time>2021-09-18T11:31:34.000Z</time>
      </trkpt>
      <trkpt lat="47.05649" lon="-1.63358">
        <ele>50</ele>
        <time>2021-09-18T11:31:36.000Z</time>
      </trkpt>
      <trkpt lat="47.05663" lon="-1.63352">
        <ele>50</ele>
        <time>2021-09-18T11:31:38.000Z</time>
      </trkpt>
      <trkpt lat="47.05678" lon="-1.63345">
        <ele>51</ele>
        <time>2021-09-18T11:31:40.000Z</time>
      </trkpt>
      <trkpt lat="47.05692" lon="-1.63338">
        <ele>51</ele>
        <time>2021-09-18T11:31:42.000Z</time>
      </trkpt>
      <trkpt lat="47.05706" lon="-1.63331">
        <ele>51</ele>
        <time>2021-09-18T11:31:44.000Z</time>
      </trkpt>
      <trkpt lat="47.05721" lon="-1.63324">
        <ele>51</ele>
        <time>2021-09-18T11:31:46.000Z</time>
      </trkpt>
      <trkpt lat="47.05735" lon="-1.63317">
        <ele>51</ele>
        <time>2021-09-18T11:31:48.000Z</time>
      </trkpt>
      <trkpt lat="47.0575" lon="-1.63311">
        <ele>51</ele>
        <time>2021-09-18T11:31:50.000Z</time>
      </trkpt>
      <trkpt lat="47.05765" lon="-1.63304">
        <ele>51</ele>
        <time>2021-09-18T11:31:52.000Z</time>
      </trkpt>
      <trkpt lat="47.05779" lon="-1.63297">
        <ele>51</ele>
        <time>2021-09-18T11:31:54.000Z</time>
      </trkpt>
      <trkpt lat="47.05794" lon="-1.6329">
        <ele>51</ele>
        <time>2021-09-18T11:31:56.000Z</time>
      </trkpt>
      <trkpt lat="47.05808" lon="-1.63283">
        <ele>51</ele>
        <time>2021-09-18T11:31:58.000Z</time>
      </trkpt>
      <trkpt lat="47.05822" lon="-1.63277">
        <ele>51</ele>
        <time>2021-09-18T11:32:00.000Z</time>
      </trkpt>
      <trkpt lat="47.05836" lon="-1.6327">
        <ele>51</ele>
        <time>2021-09-18T11:32:02.000Z</time>
      </trkpt>
      <trkpt lat="47.05851" lon="-1.63263">
        <ele>51</ele>
        <time>2021-09-18T11:32:04.000Z</time>
      </trkpt>
      <trkpt lat="47.05865" lon="-1.63257">
        <ele>52</ele>
        <time>2021-09-18T11:32:06.000Z</time>
      </trkpt>
      <trkpt lat="47.05879" lon="-1.6325">
        <ele>52</ele>
        <time>2021-09-18T11:32:08.000Z</time>
      </trkpt>
      <trkpt lat="47.05894" lon="-1.63244">
        <ele>52</ele>
        <time>2021-09-18T11:32:10.000Z</time>
      </trkpt>
      <trkpt lat="47.05908" lon="-1.63237">
        <ele>52</ele>
        <time>2021-09-18T11:32:12.000Z</time>
      </trkpt>
      <trkpt lat="47.05922" lon="-1.6323">
        <ele>52</ele>
        <time>2021-09-18T11:32:14.000Z</time>
      </trkpt>
      <trkpt lat="47.05935" lon="-1.63224">
        <ele>52</ele>
        <time>2021-09-18T11:32:16.000Z</time>
      </trkpt>
      <trkpt lat="47.05949" lon="-1.63217">
        <ele>52</ele>
        <time>2021-09-18T11:32:18.000Z</time>
      </trkpt>
      <trkpt lat="47.05963" lon="-1.6321">
        <ele>52</ele>
        <time>2021-09-18T11:32:20.000Z</time>
      </trkpt>
      <trkpt lat="47.05977" lon="-1.63203">
        <ele>52</ele>
        <time>2021-09-18T11:32:22.000Z</time>
      </trkpt>
      <trkpt lat="47.05991" lon="-1.63197">
        <ele>52</ele>
        <time>2021-09-18T11:32:24.000Z</time>
      </trkpt>
      <trkpt lat="47.06004" lon="-1.6319">
        <ele>52</ele>
        <time>2021-09-18T11:32:26.000Z</time>
      </trkpt>
      <trkpt lat="47.06017" lon="-1.63185">
        <ele>52</ele>
        <time>2021-09-18T11:32:28.000Z</time>
      </trkpt>
      <trkpt lat="47.06032" lon="-1.63183">
        <ele>52</ele>
        <time>2021-09-18T11:32:30.000Z</time>
      </trkpt>
      <trkpt lat="47.06046" lon="-1.63179">
        <ele>51</ele>
        <time>2021-09-18T11:32:32.000Z</time>
      </trkpt>
      <trkpt lat="47.06056" lon="-1.63184">
        <ele>52</ele>
        <time>2021-09-18T11:32:34.000Z</time>
      </trkpt>
      <trkpt lat="47.06055" lon="-1.63203">
        <ele>52</ele>
        <time>2021-09-18T11:32:36.000Z</time>
      </trkpt>
      <trkpt lat="47.06053" lon="-1.63222">
        <ele>52</ele>
        <time>2021-09-18T11:32:38.000Z</time>
      </trkpt>
      <trkpt lat="47.06049" lon="-1.63242">
        <ele>52</ele>
        <time>2021-09-18T11:32:40.000Z</time>
      </trkpt>
      <trkpt lat="47.06046" lon="-1.63263">
        <ele>51</ele>
        <time>2021-09-18T11:32:42.000Z</time>
      </trkpt>
      <trkpt lat="47.06043" lon="-1.63284">
        <ele>52</ele>
        <time>2021-09-18T11:32:44.000Z</time>
      </trkpt>
      <trkpt lat="47.06042" lon="-1.63305">
        <ele>51</ele>
        <time>2021-09-18T11:32:46.000Z</time>
      </trkpt>
      <trkpt lat="47.0605" lon="-1.63321">
        <ele>52</ele>
        <time>2021-09-18T11:32:48.000Z</time>
      </trkpt>
      <trkpt lat="47.06064" lon="-1.63326">
        <ele>51</ele>
        <time>2021-09-18T11:32:50.000Z</time>
      </trkpt>
      <trkpt lat="47.06077" lon="-1.63331">
        <ele>52</ele>
        <time>2021-09-18T11:32:52.000Z</time>
      </trkpt>
      <trkpt lat="47.06091" lon="-1.63335">
        <ele>52</ele>
        <time>2021-09-18T11:32:54.000Z</time>
      </trkpt>
      <trkpt lat="47.06105" lon="-1.63341">
        <ele>52</ele>
        <time>2021-09-18T11:32:56.000Z</time>
      </trkpt>
      <trkpt lat="47.06118" lon="-1.63347">
        <ele>52</ele>
        <time>2021-09-18T11:32:58.000Z</time>
      </trkpt>
      <trkpt lat="47.06131" lon="-1.63351">
        <ele>52</ele>
        <time>2021-09-18T11:33:00.000Z</time>
      </trkpt>
      <trkpt lat="47.06144" lon="-1.63357">
        <ele>52</ele>
        <time>2021-09-18T11:33:02.000Z</time>
      </trkpt>
      <trkpt lat="47.06158" lon="-1.63362">
        <ele>52</ele>
        <time>2021-09-18T11:33:04.000Z</time>
      </trkpt>
      <trkpt lat="47.06171" lon="-1.63367">
        <ele>52</ele>
        <time>2021-09-18T11:33:06.000Z</time>
      </trkpt>
      <trkpt lat="47.06184" lon="-1.63372">
        <ele>52</ele>
        <time>2021-09-18T11:33:08.000Z</time>
      </trkpt>
      <trkpt lat="47.06196" lon="-1.63378">
        <ele>52</ele>
        <time>2021-09-18T11:33:10.000Z</time>
      </trkpt>
      <trkpt lat="47.06209" lon="-1.63383">
        <ele>51</ele>
        <time>2021-09-18T11:33:12.000Z</time>
      </trkpt>
      <trkpt lat="47.06222" lon="-1.63387">
        <ele>51</ele>
        <time>2021-09-18T11:33:14.000Z</time>
      </trkpt>
      <trkpt lat="47.06234" lon="-1.63392">
        <ele>51</ele>
        <time>2021-09-18T11:33:16.000Z</time>
      </trkpt>
      <trkpt lat="47.06247" lon="-1.63397">
        <ele>51</ele>
        <time>2021-09-18T11:33:18.000Z</time>
      </trkpt>
      <trkpt lat="47.0626" lon="-1.63401">
        <ele>51</ele>
        <time>2021-09-18T11:33:20.000Z</time>
      </trkpt>
      <trkpt lat="47.06273" lon="-1.63406">
        <ele>51</ele>
        <time>2021-09-18T11:33:22.000Z</time>
      </trkpt>
      <trkpt lat="47.06286" lon="-1.63412">
        <ele>51</ele>
        <time>2021-09-18T11:33:24.000Z</time>
      </trkpt>
      <trkpt lat="47.063" lon="-1.63418">
        <ele>51</ele>
        <time>2021-09-18T11:33:26.000Z</time>
      </trkpt>
      <trkpt lat="47.06313" lon="-1.63423">
        <ele>51</ele>
        <time>2021-09-18T11:33:28.000Z</time>
      </trkpt>
      <trkpt lat="47.06326" lon="-1.6343">
        <ele>52</ele>
        <time>2021-09-18T11:33:30.000Z</time>
      </trkpt>
      <trkpt lat="47.06338" lon="-1.63442">
        <ele>52</ele>
        <time>2021-09-18T11:33:32.000Z</time>
      </trkpt>
      <trkpt lat="47.06348" lon="-1.63455">
        <ele>52</ele>
        <time>2021-09-18T11:33:34.000Z</time>
      </trkpt>
      <trkpt lat="47.06359" lon="-1.63469">
        <ele>52</ele>
        <time>2021-09-18T11:33:36.000Z</time>
      </trkpt>
      <trkpt lat="47.06368" lon="-1.63485">
        <ele>52</ele>
        <time>2021-09-18T11:33:38.000Z</time>
      </trkpt>
      <trkpt lat="47.06375" lon="-1.63503">
        <ele>52</ele>
        <time>2021-09-18T11:33:40.000Z</time>
      </trkpt>
      <trkpt lat="47.06383" lon="-1.63519">
        <ele>51</ele>
        <time>2021-09-18T11:33:42.000Z</time>
      </trkpt>
      <trkpt lat="47.06394" lon="-1.63531">
        <ele>51</ele>
        <time>2021-09-18T11:33:44.000Z</time>
      </trkpt>
      <trkpt lat="47.06406" lon="-1.6354">
        <ele>51</ele>
        <time>2021-09-18T11:33:46.000Z</time>
      </trkpt>
      <trkpt lat="47.06423" lon="-1.63555">
        <ele>51</ele>
        <time>2021-09-18T11:33:49.000Z</time>
      </trkpt>
      <trkpt lat="47.06435" lon="-1.63565">
        <ele>51</ele>
        <time>2021-09-18T11:33:51.000Z</time>
      </trkpt>
      <trkpt lat="47.06447" lon="-1.63575">
        <ele>51</ele>
        <time>2021-09-18T11:33:53.000Z</time>
      </trkpt>
      <trkpt lat="47.06459" lon="-1.63585">
        <ele>51</ele>
        <time>2021-09-18T11:33:55.000Z</time>
      </trkpt>
      <trkpt lat="47.0647" lon="-1.63595">
        <ele>51</ele>
        <time>2021-09-18T11:33:57.000Z</time>
      </trkpt>
      <trkpt lat="47.06482" lon="-1.63605">
        <ele>52</ele>
        <time>2021-09-18T11:33:59.000Z</time>
      </trkpt>
      <trkpt lat="47.06494" lon="-1.63614">
        <ele>52</ele>
        <time>2021-09-18T11:34:01.000Z</time>
      </trkpt>
      <trkpt lat="47.06506" lon="-1.63623">
        <ele>52</ele>
        <time>2021-09-18T11:34:03.000Z</time>
      </trkpt>
      <trkpt lat="47.06518" lon="-1.63631">
        <ele>52</ele>
        <time>2021-09-18T11:34:05.000Z</time>
      </trkpt>
      <trkpt lat="47.06531" lon="-1.6364">
        <ele>52</ele>
        <time>2021-09-18T11:34:07.000Z</time>
      </trkpt>
      <trkpt lat="47.06543" lon="-1.6365">
        <ele>52</ele>
        <time>2021-09-18T11:34:09.000Z</time>
      </trkpt>
      <trkpt lat="47.06556" lon="-1.63658">
        <ele>51</ele>
        <time>2021-09-18T11:34:11.000Z</time>
      </trkpt>
      <trkpt lat="47.06568" lon="-1.63667">
        <ele>51</ele>
        <time>2021-09-18T11:34:13.000Z</time>
      </trkpt>
      <trkpt lat="47.06579" lon="-1.63678">
        <ele>51</ele>
        <time>2021-09-18T11:34:15.000Z</time>
      </trkpt>
      <trkpt lat="47.0659" lon="-1.6369">
        <ele>51</ele>
        <time>2021-09-18T11:34:17.000Z</time>
      </trkpt>
      <trkpt lat="47.06605" lon="-1.63709">
        <ele>52</ele>
        <time>2021-09-18T11:34:20.000Z</time>
      </trkpt>
      <trkpt lat="47.06616" lon="-1.63721">
        <ele>52</ele>
        <time>2021-09-18T11:34:22.000Z</time>
      </trkpt>
      <trkpt lat="47.06626" lon="-1.63735">
        <ele>51</ele>
        <time>2021-09-18T11:34:24.000Z</time>
      </trkpt>
      <trkpt lat="47.06637" lon="-1.63748">
        <ele>51</ele>
        <time>2021-09-18T11:34:26.000Z</time>
      </trkpt>
      <trkpt lat="47.06647" lon="-1.6376">
        <ele>51</ele>
        <time>2021-09-18T11:34:28.000Z</time>
      </trkpt>
      <trkpt lat="47.06657" lon="-1.63773">
        <ele>51</ele>
        <time>2021-09-18T11:34:30.000Z</time>
      </trkpt>
      <trkpt lat="47.06667" lon="-1.63787">
        <ele>51</ele>
        <time>2021-09-18T11:34:32.000Z</time>
      </trkpt>
      <trkpt lat="47.06682" lon="-1.63806">
        <ele>51</ele>
        <time>2021-09-18T11:34:35.000Z</time>
      </trkpt>
      <trkpt lat="47.06692" lon="-1.63819">
        <ele>51</ele>
        <time>2021-09-18T11:34:37.000Z</time>
      </trkpt>
      <trkpt lat="47.06703" lon="-1.63831">
        <ele>51</ele>
        <time>2021-09-18T11:34:39.000Z</time>
      </trkpt>
      <trkpt lat="47.06716" lon="-1.63837">
        <ele>50</ele>
        <time>2021-09-18T11:34:41.000Z</time>
      </trkpt>
      <trkpt lat="47.0673" lon="-1.63833">
        <ele>50</ele>
        <time>2021-09-18T11:34:43.000Z</time>
      </trkpt>
      <trkpt lat="47.06742" lon="-1.63821">
        <ele>49</ele>
        <time>2021-09-18T11:34:45.000Z</time>
      </trkpt>
      <trkpt lat="47.06753" lon="-1.63809">
        <ele>49</ele>
        <time>2021-09-18T11:34:47.000Z</time>
      </trkpt>
      <trkpt lat="47.06765" lon="-1.63796">
        <ele>50</ele>
        <time>2021-09-18T11:34:49.000Z</time>
      </trkpt>
      <trkpt lat="47.06778" lon="-1.63784">
        <ele>49</ele>
        <time>2021-09-18T11:34:51.000Z</time>
      </trkpt>
      <trkpt lat="47.0679" lon="-1.63772">
        <ele>49</ele>
        <time>2021-09-18T11:34:53.000Z</time>
      </trkpt>
      <trkpt lat="47.06803" lon="-1.6376">
        <ele>49</ele>
        <time>2021-09-18T11:34:55.000Z</time>
      </trkpt>
      <trkpt lat="47.06815" lon="-1.63748">
        <ele>50</ele>
        <time>2021-09-18T11:34:57.000Z</time>
      </trkpt>
      <trkpt lat="47.06827" lon="-1.63735">
        <ele>50</ele>
        <time>2021-09-18T11:34:59.000Z</time>
      </trkpt>
      <trkpt lat="47.06836" lon="-1.63719">
        <ele>50</ele>
        <time>2021-09-18T11:35:01.000Z</time>
      </trkpt>
      <trkpt lat="47.06843" lon="-1.63701">
        <ele>50</ele>
        <time>2021-09-18T11:35:03.000Z</time>
      </trkpt>
      <trkpt lat="47.06848" lon="-1.63681">
        <ele>50</ele>
        <time>2021-09-18T11:35:05.000Z</time>
      </trkpt>
      <trkpt lat="47.06851" lon="-1.63661">
        <ele>50</ele>
        <time>2021-09-18T11:35:07.000Z</time>
      </trkpt>
      <trkpt lat="47.06854" lon="-1.6364">
        <ele>50</ele>
        <time>2021-09-18T11:35:09.000Z</time>
      </trkpt>
      <trkpt lat="47.06855" lon="-1.63619">
        <ele>50</ele>
        <time>2021-09-18T11:35:11.000Z</time>
      </trkpt>
      <trkpt lat="47.06857" lon="-1.63598">
        <ele>50</ele>
        <time>2021-09-18T11:35:13.000Z</time>
      </trkpt>
      <trkpt lat="47.06858" lon="-1.63578">
        <ele>51</ele>
        <time>2021-09-18T11:35:15.000Z</time>
      </trkpt>
      <trkpt lat="47.0686" lon="-1.63557">
        <ele>51</ele>
        <time>2021-09-18T11:35:17.000Z</time>
      </trkpt>
      <trkpt lat="47.06864" lon="-1.63536">
        <ele>51</ele>
        <time>2021-09-18T11:35:19.000Z</time>
      </trkpt>
      <trkpt lat="47.06869" lon="-1.63517">
        <ele>51</ele>
        <time>2021-09-18T11:35:21.000Z</time>
      </trkpt>
      <trkpt lat="47.06874" lon="-1.63497">
        <ele>51</ele>
        <time>2021-09-18T11:35:23.000Z</time>
      </trkpt>
      <trkpt lat="47.06883" lon="-1.63481">
        <ele>51</ele>
        <time>2021-09-18T11:35:25.000Z</time>
      </trkpt>
      <trkpt lat="47.06895" lon="-1.63467">
        <ele>51</ele>
        <time>2021-09-18T11:35:27.000Z</time>
      </trkpt>
      <trkpt lat="47.06907" lon="-1.63457">
        <ele>51</ele>
        <time>2021-09-18T11:35:29.000Z</time>
      </trkpt>
      <trkpt lat="47.0692" lon="-1.63449">
        <ele>51</ele>
        <time>2021-09-18T11:35:31.000Z</time>
      </trkpt>
      <trkpt lat="47.06932" lon="-1.63441">
        <ele>51</ele>
        <time>2021-09-18T11:35:33.000Z</time>
      </trkpt>
      <trkpt lat="47.06945" lon="-1.63433">
        <ele>50</ele>
        <time>2021-09-18T11:35:35.000Z</time>
      </trkpt>
      <trkpt lat="47.06958" lon="-1.63423">
        <ele>51</ele>
        <time>2021-09-18T11:35:37.000Z</time>
      </trkpt>
      <trkpt lat="47.0697" lon="-1.6341">
        <ele>51</ele>
        <time>2021-09-18T11:35:39.000Z</time>
      </trkpt>
      <trkpt lat="47.06982" lon="-1.63398">
        <ele>51</ele>
        <time>2021-09-18T11:35:41.000Z</time>
      </trkpt>
      <trkpt lat="47.06994" lon="-1.63387">
        <ele>51</ele>
        <time>2021-09-18T11:35:43.000Z</time>
      </trkpt>
      <trkpt lat="47.07005" lon="-1.63375">
        <ele>51</ele>
        <time>2021-09-18T11:35:45.000Z</time>
      </trkpt>
      <trkpt lat="47.07017" lon="-1.63363">
        <ele>51</ele>
        <time>2021-09-18T11:35:47.000Z</time>
      </trkpt>
      <trkpt lat="47.07028" lon="-1.63352">
        <ele>51</ele>
        <time>2021-09-18T11:35:49.000Z</time>
      </trkpt>
      <trkpt lat="47.0704" lon="-1.63341">
        <ele>51</ele>
        <time>2021-09-18T11:35:51.000Z</time>
      </trkpt>
      <trkpt lat="47.07051" lon="-1.63328">
        <ele>51</ele>
        <time>2021-09-18T11:35:53.000Z</time>
      </trkpt>
      <trkpt lat="47.07061" lon="-1.63314">
        <ele>51</ele>
        <time>2021-09-18T11:35:55.000Z</time>
      </trkpt>
      <trkpt lat="47.07069" lon="-1.63296">
        <ele>50</ele>
        <time>2021-09-18T11:35:57.000Z</time>
      </trkpt>
      <trkpt lat="47.07075" lon="-1.63277">
        <ele>51</ele>
        <time>2021-09-18T11:35:59.000Z</time>
      </trkpt>
      <trkpt lat="47.07081" lon="-1.63257">
        <ele>51</ele>
        <time>2021-09-18T11:36:01.000Z</time>
      </trkpt>
      <trkpt lat="47.07085" lon="-1.63236">
        <ele>51</ele>
        <time>2021-09-18T11:36:03.000Z</time>
      </trkpt>
      <trkpt lat="47.07087" lon="-1.63216">
        <ele>51</ele>
        <time>2021-09-18T11:36:05.000Z</time>
      </trkpt>
      <trkpt lat="47.0709" lon="-1.63195">
        <ele>51</ele>
        <time>2021-09-18T11:36:07.000Z</time>
      </trkpt>
      <trkpt lat="47.07094" lon="-1.63176">
        <ele>51</ele>
        <time>2021-09-18T11:36:09.000Z</time>
      </trkpt>
      <trkpt lat="47.07102" lon="-1.63159">
        <ele>52</ele>
        <time>2021-09-18T11:36:11.000Z</time>
      </trkpt>
      <trkpt lat="47.07114" lon="-1.63146">
        <ele>52</ele>
        <time>2021-09-18T11:36:13.000Z</time>
      </trkpt>
      <trkpt lat="47.07127" lon="-1.63135">
        <ele>52</ele>
        <time>2021-09-18T11:36:15.000Z</time>
      </trkpt>
      <trkpt lat="47.07139" lon="-1.63126">
        <ele>52</ele>
        <time>2021-09-18T11:36:17.000Z</time>
      </trkpt>
      <trkpt lat="47.07152" lon="-1.63121">
        <ele>52</ele>
        <time>2021-09-18T11:36:19.000Z</time>
      </trkpt>
      <trkpt lat="47.07166" lon="-1.6312">
        <ele>53</ele>
        <time>2021-09-18T11:36:21.000Z</time>
      </trkpt>
      <trkpt lat="47.07181" lon="-1.63121">
        <ele>52</ele>
        <time>2021-09-18T11:36:23.000Z</time>
      </trkpt>
      <trkpt lat="47.07194" lon="-1.63123">
        <ele>52</ele>
        <time>2021-09-18T11:36:25.000Z</time>
      </trkpt>
      <trkpt lat="47.07207" lon="-1.63129">
        <ele>52</ele>
        <time>2021-09-18T11:36:27.000Z</time>
      </trkpt>
      <trkpt lat="47.07219" lon="-1.63138">
        <ele>53</ele>
        <time>2021-09-18T11:36:29.000Z</time>
      </trkpt>
      <trkpt lat="47.0723" lon="-1.63148">
        <ele>53</ele>
        <time>2021-09-18T11:36:31.000Z</time>
      </trkpt>
      <trkpt lat="47.07241" lon="-1.63157">
        <ele>53</ele>
        <time>2021-09-18T11:36:33.000Z</time>
      </trkpt>
      <trkpt lat="47.07253" lon="-1.63166">
        <ele>53</ele>
        <time>2021-09-18T11:36:35.000Z</time>
      </trkpt>
      <trkpt lat="47.07263" lon="-1.63175">
        <ele>53</ele>
        <time>2021-09-18T11:36:37.000Z</time>
      </trkpt>
      <trkpt lat="47.07274" lon="-1.63187">
        <ele>53</ele>
        <time>2021-09-18T11:36:39.000Z</time>
      </trkpt>
      <trkpt lat="47.07284" lon="-1.63201">
        <ele>53</ele>
        <time>2021-09-18T11:36:41.000Z</time>
      </trkpt>
      <trkpt lat="47.07293" lon="-1.63214">
        <ele>53</ele>
        <time>2021-09-18T11:36:43.000Z</time>
      </trkpt>
      <trkpt lat="47.07302" lon="-1.63227">
        <ele>53</ele>
        <time>2021-09-18T11:36:45.000Z</time>
      </trkpt>
      <trkpt lat="47.0731" lon="-1.6324">
        <ele>53</ele>
        <time>2021-09-18T11:36:47.000Z</time>
      </trkpt>
      <trkpt lat="47.07319" lon="-1.63252">
        <ele>53</ele>
        <time>2021-09-18T11:36:49.000Z</time>
      </trkpt>
      <trkpt lat="47.07328" lon="-1.63263">
        <ele>53</ele>
        <time>2021-09-18T11:36:51.000Z</time>
      </trkpt>
      <trkpt lat="47.07337" lon="-1.63273">
        <ele>53</ele>
        <time>2021-09-18T11:36:53.000Z</time>
      </trkpt>
      <trkpt lat="47.07348" lon="-1.63283">
        <ele>53</ele>
        <time>2021-09-18T11:36:55.000Z</time>
      </trkpt>
      <trkpt lat="47.07359" lon="-1.63292">
        <ele>53</ele>
        <time>2021-09-18T11:36:57.000Z</time>
      </trkpt>
      <trkpt lat="47.0737" lon="-1.633">
        <ele>53</ele>
        <time>2021-09-18T11:36:59.000Z</time>
      </trkpt>
      <trkpt lat="47.07381" lon="-1.63309">
        <ele>53</ele>
        <time>2021-09-18T11:37:01.000Z</time>
      </trkpt>
      <trkpt lat="47.07393" lon="-1.63318">
        <ele>53</ele>
        <time>2021-09-18T11:37:03.000Z</time>
      </trkpt>
      <trkpt lat="47.07405" lon="-1.63325">
        <ele>53</ele>
        <time>2021-09-18T11:37:05.000Z</time>
      </trkpt>
      <trkpt lat="47.07417" lon="-1.63334">
        <ele>52</ele>
        <time>2021-09-18T11:37:07.000Z</time>
      </trkpt>
      <trkpt lat="47.07429" lon="-1.63341">
        <ele>52</ele>
        <time>2021-09-18T11:37:09.000Z</time>
      </trkpt>
      <trkpt lat="47.07441" lon="-1.63349">
        <ele>52</ele>
        <time>2021-09-18T11:37:11.000Z</time>
      </trkpt>
      <trkpt lat="47.07453" lon="-1.63357">
        <ele>52</ele>
        <time>2021-09-18T11:37:13.000Z</time>
      </trkpt>
      <trkpt lat="47.07465" lon="-1.63365">
        <ele>52</ele>
        <time>2021-09-18T11:37:15.000Z</time>
      </trkpt>
      <trkpt lat="47.07477" lon="-1.63372">
        <ele>52</ele>
        <time>2021-09-18T11:37:17.000Z</time>
      </trkpt>
      <trkpt lat="47.0749" lon="-1.63379">
        <ele>51</ele>
        <time>2021-09-18T11:37:19.000Z</time>
      </trkpt>
      <trkpt lat="47.07502" lon="-1.63386">
        <ele>51</ele>
        <time>2021-09-18T11:37:21.000Z</time>
      </trkpt>
      <trkpt lat="47.07515" lon="-1.63394">
        <ele>51</ele>
        <time>2021-09-18T11:37:23.000Z</time>
      </trkpt>
      <trkpt lat="47.07527" lon="-1.63402">
        <ele>51</ele>
        <time>2021-09-18T11:37:25.000Z</time>
      </trkpt>
      <trkpt lat="47.07539" lon="-1.63409">
        <ele>51</ele>
        <time>2021-09-18T11:37:27.000Z</time>
      </trkpt>
      <trkpt lat="47.07551" lon="-1.63416">
        <ele>51</ele>
        <time>2021-09-18T11:37:29.000Z</time>
      </trkpt>
      <trkpt lat="47.07564" lon="-1.63423">
        <ele>51</ele>
        <time>2021-09-18T11:37:31.000Z</time>
      </trkpt>
      <trkpt lat="47.07577" lon="-1.63429">
        <ele>51</ele>
        <time>2021-09-18T11:37:33.000Z</time>
      </trkpt>
      <trkpt lat="47.0759" lon="-1.63433">
        <ele>50</ele>
        <time>2021-09-18T11:37:35.000Z</time>
      </trkpt>
      <trkpt lat="47.07603" lon="-1.63433">
        <ele>50</ele>
        <time>2021-09-18T11:37:37.000Z</time>
      </trkpt>
      <trkpt lat="47.07617" lon="-1.6343">
        <ele>50</ele>
        <time>2021-09-18T11:37:39.000Z</time>
      </trkpt>
      <trkpt lat="47.0763" lon="-1.63426">
        <ele>51</ele>
        <time>2021-09-18T11:37:41.000Z</time>
      </trkpt>
      <trkpt lat="47.07643" lon="-1.63422">
        <ele>50</ele>
        <time>2021-09-18T11:37:43.000Z</time>
      </trkpt>
      <trkpt lat="47.07656" lon="-1.63417">
        <ele>51</ele>
        <time>2021-09-18T11:37:45.000Z</time>
      </trkpt>
      <trkpt lat="47.07669" lon="-1.63412">
        <ele>51</ele>
        <time>2021-09-18T11:37:47.000Z</time>
      </trkpt>
      <trkpt lat="47.07681" lon="-1.6341">
        <ele>51</ele>
        <time>2021-09-18T11:37:49.000Z</time>
      </trkpt>
      <trkpt lat="47.07692" lon="-1.63407">
        <ele>51</ele>
        <time>2021-09-18T11:37:51.000Z</time>
      </trkpt>
      <trkpt lat="47.07703" lon="-1.634">
        <ele>51</ele>
        <time>2021-09-18T11:37:53.000Z</time>
      </trkpt>
      <trkpt lat="47.07714" lon="-1.63386">
        <ele>52</ele>
        <time>2021-09-18T11:37:55.000Z</time>
      </trkpt>
      <trkpt lat="47.07725" lon="-1.63373">
        <ele>52</ele>
        <time>2021-09-18T11:37:57.000Z</time>
      </trkpt>
      <trkpt lat="47.07735" lon="-1.63361">
        <ele>52</ele>
        <time>2021-09-18T11:37:59.000Z</time>
      </trkpt>
      <trkpt lat="47.07745" lon="-1.63349">
        <ele>52</ele>
        <time>2021-09-18T11:38:01.000Z</time>
      </trkpt>
      <trkpt lat="47.07756" lon="-1.63336">
        <ele>52</ele>
        <time>2021-09-18T11:38:03.000Z</time>
      </trkpt>
      <trkpt lat="47.07766" lon="-1.63324">
        <ele>53</ele>
        <time>2021-09-18T11:38:05.000Z</time>
      </trkpt>
      <trkpt lat="47.07777" lon="-1.63311">
        <ele>53</ele>
        <time>2021-09-18T11:38:07.000Z</time>
      </trkpt>
      <trkpt lat="47.07787" lon="-1.63299">
        <ele>53</ele>
        <time>2021-09-18T11:38:09.000Z</time>
      </trkpt>
      <trkpt lat="47.07797" lon="-1.63286">
        <ele>53</ele>
        <time>2021-09-18T11:38:11.000Z</time>
      </trkpt>
      <trkpt lat="47.07807" lon="-1.63273">
        <ele>53</ele>
        <time>2021-09-18T11:38:13.000Z</time>
      </trkpt>
      <trkpt lat="47.07817" lon="-1.6326">
        <ele>53</ele>
        <time>2021-09-18T11:38:15.000Z</time>
      </trkpt>
      <trkpt lat="47.07824" lon="-1.63243">
        <ele>53</ele>
        <time>2021-09-18T11:38:17.000Z</time>
      </trkpt>
      <trkpt lat="47.07827" lon="-1.63223">
        <ele>53</ele>
        <time>2021-09-18T11:38:19.000Z</time>
      </trkpt>
      <trkpt lat="47.07823" lon="-1.63205">
        <ele>53</ele>
        <time>2021-09-18T11:38:21.000Z</time>
      </trkpt>
      <trkpt lat="47.07816" lon="-1.63188">
        <ele>53</ele>
        <time>2021-09-18T11:38:23.000Z</time>
      </trkpt>
      <trkpt lat="47.07809" lon="-1.63172">
        <ele>53</ele>
        <time>2021-09-18T11:38:25.000Z</time>
      </trkpt>
      <trkpt lat="47.07802" lon="-1.63156">
        <ele>52</ele>
        <time>2021-09-18T11:38:27.000Z</time>
      </trkpt>
      <trkpt lat="47.07796" lon="-1.63141">
        <ele>52</ele>
        <time>2021-09-18T11:38:29.000Z</time>
      </trkpt>
      <trkpt lat="47.078" lon="-1.63127">
        <ele>52</ele>
        <time>2021-09-18T11:38:31.000Z</time>
      </trkpt>
      <trkpt lat="47.07811" lon="-1.63124">
        <ele>52</ele>
        <time>2021-09-18T11:38:33.000Z</time>
      </trkpt>
      <trkpt lat="47.07824" lon="-1.63124">
        <ele>52</ele>
        <time>2021-09-18T11:38:35.000Z</time>
      </trkpt>
      <trkpt lat="47.07837" lon="-1.63123">
        <ele>52</ele>
        <time>2021-09-18T11:38:37.000Z</time>
      </trkpt>
      <trkpt lat="47.07851" lon="-1.63122">
        <ele>53</ele>
        <time>2021-09-18T11:38:39.000Z</time>
      </trkpt>
      <trkpt lat="47.07864" lon="-1.63121">
        <ele>53</ele>
        <time>2021-09-18T11:38:41.000Z</time>
      </trkpt>
      <trkpt lat="47.07878" lon="-1.6312">
        <ele>52</ele>
        <time>2021-09-18T11:38:43.000Z</time>
      </trkpt>
      <trkpt lat="47.07892" lon="-1.63118">
        <ele>52</ele>
        <time>2021-09-18T11:38:45.000Z</time>
      </trkpt>
      <trkpt lat="47.07906" lon="-1.63117">
        <ele>52</ele>
        <time>2021-09-18T11:38:47.000Z</time>
      </trkpt>
      <trkpt lat="47.07919" lon="-1.63117">
        <ele>52</ele>
        <time>2021-09-18T11:38:49.000Z</time>
      </trkpt>
      <trkpt lat="47.07932" lon="-1.63115">
        <ele>51</ele>
        <time>2021-09-18T11:38:51.000Z</time>
      </trkpt>
      <trkpt lat="47.07945" lon="-1.63114">
        <ele>51</ele>
        <time>2021-09-18T11:38:53.000Z</time>
      </trkpt>
      <trkpt lat="47.07959" lon="-1.63112">
        <ele>51</ele>
        <time>2021-09-18T11:38:55.000Z</time>
      </trkpt>
      <trkpt lat="47.07973" lon="-1.63111">
        <ele>51</ele>
        <time>2021-09-18T11:38:57.000Z</time>
      </trkpt>
      <trkpt lat="47.07987" lon="-1.6311">
        <ele>52</ele>
        <time>2021-09-18T11:38:59.000Z</time>
      </trkpt>
      <trkpt lat="47.08002" lon="-1.63109">
        <ele>52</ele>
        <time>2021-09-18T11:39:01.000Z</time>
      </trkpt>
      <trkpt lat="47.08016" lon="-1.63108">
        <ele>51</ele>
        <time>2021-09-18T11:39:03.000Z</time>
      </trkpt>
      <trkpt lat="47.08031" lon="-1.63106">
        <ele>51</ele>
        <time>2021-09-18T11:39:05.000Z</time>
      </trkpt>
      <trkpt lat="47.08045" lon="-1.63105">
        <ele>51</ele>
        <time>2021-09-18T11:39:07.000Z</time>
      </trkpt>
      <trkpt lat="47.0806" lon="-1.63104">
        <ele>51</ele>
        <time>2021-09-18T11:39:09.000Z</time>
      </trkpt>
      <trkpt lat="47.08075" lon="-1.63102">
        <ele>50</ele>
        <time>2021-09-18T11:39:11.000Z</time>
      </trkpt>
      <trkpt lat="47.0809" lon="-1.63101">
        <ele>50</ele>
        <time>2021-09-18T11:39:13.000Z</time>
      </trkpt>
      <trkpt lat="47.08106" lon="-1.63099">
        <ele>50</ele>
        <time>2021-09-18T11:39:15.000Z</time>
      </trkpt>
      <trkpt lat="47.08121" lon="-1.63098">
        <ele>50</ele>
        <time>2021-09-18T11:39:17.000Z</time>
      </trkpt>
      <trkpt lat="47.08137" lon="-1.63096">
        <ele>50</ele>
        <time>2021-09-18T11:39:19.000Z</time>
      </trkpt>
      <trkpt lat="47.08154" lon="-1.63095">
        <ele>50</ele>
        <time>2021-09-18T11:39:21.000Z</time>
      </trkpt>
      <trkpt lat="47.0817" lon="-1.63093">
        <ele>50</ele>
        <time>2021-09-18T11:39:23.000Z</time>
      </trkpt>
      <trkpt lat="47.08186" lon="-1.63091">
        <ele>50</ele>
        <time>2021-09-18T11:39:25.000Z</time>
      </trkpt>
      <trkpt lat="47.08202" lon="-1.6309">
        <ele>50</ele>
        <time>2021-09-18T11:39:27.000Z</time>
      </trkpt>
      <trkpt lat="47.08217" lon="-1.63089">
        <ele>50</ele>
        <time>2021-09-18T11:39:29.000Z</time>
      </trkpt>
      <trkpt lat="47.08233" lon="-1.63087">
        <ele>49</ele>
        <time>2021-09-18T11:39:31.000Z</time>
      </trkpt>
      <trkpt lat="47.08248" lon="-1.63087">
        <ele>49</ele>
        <time>2021-09-18T11:39:33.000Z</time>
      </trkpt>
      <trkpt lat="47.08263" lon="-1.63085">
        <ele>49</ele>
        <time>2021-09-18T11:39:35.000Z</time>
      </trkpt>
      <trkpt lat="47.08279" lon="-1.63084">
        <ele>49</ele>
        <time>2021-09-18T11:39:37.000Z</time>
      </trkpt>
      <trkpt lat="47.08294" lon="-1.63083">
        <ele>49</ele>
        <time>2021-09-18T11:39:39.000Z</time>
      </trkpt>
      <trkpt lat="47.08309" lon="-1.6308">
        <ele>49</ele>
        <time>2021-09-18T11:39:41.000Z</time>
      </trkpt>
      <trkpt lat="47.08325" lon="-1.63079">
        <ele>49</ele>
        <time>2021-09-18T11:39:43.000Z</time>
      </trkpt>
      <trkpt lat="47.0834" lon="-1.63078">
        <ele>49</ele>
        <time>2021-09-18T11:39:45.000Z</time>
      </trkpt>
      <trkpt lat="47.08355" lon="-1.63077">
        <ele>49</ele>
        <time>2021-09-18T11:39:47.000Z</time>
      </trkpt>
      <trkpt lat="47.0837" lon="-1.63075">
        <ele>49</ele>
        <time>2021-09-18T11:39:49.000Z</time>
      </trkpt>
      <trkpt lat="47.08384" lon="-1.63072">
        <ele>49</ele>
        <time>2021-09-18T11:39:51.000Z</time>
      </trkpt>
      <trkpt lat="47.08399" lon="-1.63066">
        <ele>49</ele>
        <time>2021-09-18T11:39:53.000Z</time>
      </trkpt>
      <trkpt lat="47.08413" lon="-1.63054">
        <ele>49</ele>
        <time>2021-09-18T11:39:55.000Z</time>
      </trkpt>
      <trkpt lat="47.08425" lon="-1.6304">
        <ele>49</ele>
        <time>2021-09-18T11:39:57.000Z</time>
      </trkpt>
      <trkpt lat="47.08435" lon="-1.63023">
        <ele>49</ele>
        <time>2021-09-18T11:39:59.000Z</time>
      </trkpt>
      <trkpt lat="47.08445" lon="-1.63006">
        <ele>50</ele>
        <time>2021-09-18T11:40:01.000Z</time>
      </trkpt>
      <trkpt lat="47.08455" lon="-1.62989">
        <ele>50</ele>
        <time>2021-09-18T11:40:03.000Z</time>
      </trkpt>
      <trkpt lat="47.08465" lon="-1.62973">
        <ele>50</ele>
        <time>2021-09-18T11:40:05.000Z</time>
      </trkpt>
      <trkpt lat="47.08476" lon="-1.62957">
        <ele>50</ele>
        <time>2021-09-18T11:40:07.000Z</time>
      </trkpt>
      <trkpt lat="47.08485" lon="-1.6294">
        <ele>50</ele>
        <time>2021-09-18T11:40:09.000Z</time>
      </trkpt>
      <trkpt lat="47.08495" lon="-1.62924">
        <ele>50</ele>
        <time>2021-09-18T11:40:11.000Z</time>
      </trkpt>
      <trkpt lat="47.08504" lon="-1.62908">
        <ele>50</ele>
        <time>2021-09-18T11:40:13.000Z</time>
      </trkpt>
      <trkpt lat="47.08514" lon="-1.62892">
        <ele>50</ele>
        <time>2021-09-18T11:40:15.000Z</time>
      </trkpt>
      <trkpt lat="47.08523" lon="-1.62876">
        <ele>51</ele>
        <time>2021-09-18T11:40:17.000Z</time>
      </trkpt>
      <trkpt lat="47.08533" lon="-1.62861">
        <ele>51</ele>
        <time>2021-09-18T11:40:19.000Z</time>
      </trkpt>
      <trkpt lat="47.08543" lon="-1.62846">
        <ele>51</ele>
        <time>2021-09-18T11:40:21.000Z</time>
      </trkpt>
      <trkpt lat="47.08554" lon="-1.62833">
        <ele>51</ele>
        <time>2021-09-18T11:40:23.000Z</time>
      </trkpt>
      <trkpt lat="47.08565" lon="-1.62823">
        <ele>51</ele>
        <time>2021-09-18T11:40:25.000Z</time>
      </trkpt>
      <trkpt lat="47.08575" lon="-1.62813">
        <ele>51</ele>
        <time>2021-09-18T11:40:27.000Z</time>
      </trkpt>
      <trkpt lat="47.08579" lon="-1.62797">
        <ele>52</ele>
        <time>2021-09-18T11:40:29.000Z</time>
      </trkpt>
      <trkpt lat="47.08579" lon="-1.62776">
        <ele>52</ele>
        <time>2021-09-18T11:40:31.000Z</time>
      </trkpt>
      <trkpt lat="47.08579" lon="-1.62757">
        <ele>53</ele>
        <time>2021-09-18T11:40:33.000Z</time>
      </trkpt>
      <trkpt lat="47.08579" lon="-1.62739">
        <ele>52</ele>
        <time>2021-09-18T11:40:35.000Z</time>
      </trkpt>
      <trkpt lat="47.0858" lon="-1.62719">
        <ele>52</ele>
        <time>2021-09-18T11:40:37.000Z</time>
      </trkpt>
      <trkpt lat="47.0858" lon="-1.62699">
        <ele>52</ele>
        <time>2021-09-18T11:40:39.000Z</time>
      </trkpt>
      <trkpt lat="47.0858" lon="-1.62679">
        <ele>52</ele>
        <time>2021-09-18T11:40:41.000Z</time>
      </trkpt>
      <trkpt lat="47.08581" lon="-1.62659">
        <ele>52</ele>
        <time>2021-09-18T11:40:43.000Z</time>
      </trkpt>
      <trkpt lat="47.08582" lon="-1.62639">
        <ele>52</ele>
        <time>2021-09-18T11:40:45.000Z</time>
      </trkpt>
      <trkpt lat="47.08583" lon="-1.62619">
        <ele>52</ele>
        <time>2021-09-18T11:40:47.000Z</time>
      </trkpt>
      <trkpt lat="47.08584" lon="-1.626">
        <ele>51</ele>
        <time>2021-09-18T11:40:49.000Z</time>
      </trkpt>
      <trkpt lat="47.08585" lon="-1.6258">
        <ele>51</ele>
        <time>2021-09-18T11:40:51.000Z</time>
      </trkpt>
      <trkpt lat="47.08586" lon="-1.62561">
        <ele>52</ele>
        <time>2021-09-18T11:40:53.000Z</time>
      </trkpt>
      <trkpt lat="47.08587" lon="-1.62542">
        <ele>52</ele>
        <time>2021-09-18T11:40:55.000Z</time>
      </trkpt>
      <trkpt lat="47.08588" lon="-1.62523">
        <ele>52</ele>
        <time>2021-09-18T11:40:57.000Z</time>
      </trkpt>
      <trkpt lat="47.08589" lon="-1.62504">
        <ele>52</ele>
        <time>2021-09-18T11:40:59.000Z</time>
      </trkpt>
      <trkpt lat="47.0859" lon="-1.62485">
        <ele>52</ele>
        <time>2021-09-18T11:41:01.000Z</time>
      </trkpt>
      <trkpt lat="47.08591" lon="-1.62465">
        <ele>52</ele>
        <time>2021-09-18T11:41:03.000Z</time>
      </trkpt>
      <trkpt lat="47.08591" lon="-1.62446">
        <ele>52</ele>
        <time>2021-09-18T11:41:05.000Z</time>
      </trkpt>
      <trkpt lat="47.08592" lon="-1.62426">
        <ele>52</ele>
        <time>2021-09-18T11:41:07.000Z</time>
      </trkpt>
      <trkpt lat="47.08593" lon="-1.62407">
        <ele>52</ele>
        <time>2021-09-18T11:41:09.000Z</time>
      </trkpt>
      <trkpt lat="47.08594" lon="-1.62388">
        <ele>53</ele>
        <time>2021-09-18T11:41:11.000Z</time>
      </trkpt>
      <trkpt lat="47.08595" lon="-1.6237">
        <ele>53</ele>
        <time>2021-09-18T11:41:13.000Z</time>
      </trkpt>
      <trkpt lat="47.08599" lon="-1.62354">
        <ele>53</ele>
        <time>2021-09-18T11:41:15.000Z</time>
      </trkpt>
      <trkpt lat="47.08612" lon="-1.62346">
        <ele>54</ele>
        <time>2021-09-18T11:41:17.000Z</time>
      </trkpt>
      <trkpt lat="47.08625" lon="-1.62341">
        <ele>53</ele>
        <time>2021-09-18T11:41:19.000Z</time>
      </trkpt>
      <trkpt lat="47.08639" lon="-1.62336">
        <ele>53</ele>
        <time>2021-09-18T11:41:21.000Z</time>
      </trkpt>
      <trkpt lat="47.08652" lon="-1.6233">
        <ele>52</ele>
        <time>2021-09-18T11:41:23.000Z</time>
      </trkpt>
      <trkpt lat="47.08666" lon="-1.62325">
        <ele>52</ele>
        <time>2021-09-18T11:41:25.000Z</time>
      </trkpt>
      <trkpt lat="47.08679" lon="-1.62319">
        <ele>53</ele>
        <time>2021-09-18T11:41:27.000Z</time>
      </trkpt>
      <trkpt lat="47.08692" lon="-1.62315">
        <ele>52</ele>
        <time>2021-09-18T11:41:29.000Z</time>
      </trkpt>
      <trkpt lat="47.08705" lon="-1.62309">
        <ele>52</ele>
        <time>2021-09-18T11:41:31.000Z</time>
      </trkpt>
      <trkpt lat="47.08718" lon="-1.62302">
        <ele>52</ele>
        <time>2021-09-18T11:41:33.000Z</time>
      </trkpt>
      <trkpt lat="47.08732" lon="-1.62297">
        <ele>52</ele>
        <time>2021-09-18T11:41:35.000Z</time>
      </trkpt>
      <trkpt lat="47.08745" lon="-1.62292">
        <ele>52</ele>
        <time>2021-09-18T11:41:37.000Z</time>
      </trkpt>
      <trkpt lat="47.08759" lon="-1.62286">
        <ele>52</ele>
        <time>2021-09-18T11:41:39.000Z</time>
      </trkpt>
      <trkpt lat="47.08772" lon="-1.6228">
        <ele>52</ele>
        <time>2021-09-18T11:41:41.000Z</time>
      </trkpt>
      <trkpt lat="47.08786" lon="-1.62275">
        <ele>52</ele>
        <time>2021-09-18T11:41:43.000Z</time>
      </trkpt>
      <trkpt lat="47.08799" lon="-1.62269">
        <ele>53</ele>
        <time>2021-09-18T11:41:45.000Z</time>
      </trkpt>
      <trkpt lat="47.08812" lon="-1.62263">
        <ele>52</ele>
        <time>2021-09-18T11:41:47.000Z</time>
      </trkpt>
      <trkpt lat="47.08825" lon="-1.62258">
        <ele>52</ele>
        <time>2021-09-18T11:41:49.000Z</time>
      </trkpt>
      <trkpt lat="47.08838" lon="-1.62253">
        <ele>52</ele>
        <time>2021-09-18T11:41:51.000Z</time>
      </trkpt>
      <trkpt lat="47.08851" lon="-1.62248">
        <ele>53</ele>
        <time>2021-09-18T11:41:53.000Z</time>
      </trkpt>
      <trkpt lat="47.08865" lon="-1.62242">
        <ele>52</ele>
        <time>2021-09-18T11:41:55.000Z</time>
      </trkpt>
      <trkpt lat="47.08878" lon="-1.62236">
        <ele>52</ele>
        <time>2021-09-18T11:41:57.000Z</time>
      </trkpt>
      <trkpt lat="47.08891" lon="-1.6223">
        <ele>53</ele>
        <time>2021-09-18T11:41:59.000Z</time>
      </trkpt>
      <trkpt lat="47.08905" lon="-1.62224">
        <ele>52</ele>
        <time>2021-09-18T11:42:01.000Z</time>
      </trkpt>
      <trkpt lat="47.08919" lon="-1.62219">
        <ele>52</ele>
        <time>2021-09-18T11:42:03.000Z</time>
      </trkpt>
      <trkpt lat="47.08932" lon="-1.62214">
        <ele>52</ele>
        <time>2021-09-18T11:42:05.000Z</time>
      </trkpt>
      <trkpt lat="47.08946" lon="-1.62208">
        <ele>52</ele>
        <time>2021-09-18T11:42:07.000Z</time>
      </trkpt>
      <trkpt lat="47.0896" lon="-1.62202">
        <ele>52</ele>
        <time>2021-09-18T11:42:09.000Z</time>
      </trkpt>
      <trkpt lat="47.08973" lon="-1.62197">
        <ele>52</ele>
        <time>2021-09-18T11:42:11.000Z</time>
      </trkpt>
      <trkpt lat="47.08987" lon="-1.62192">
        <ele>52</ele>
        <time>2021-09-18T11:42:13.000Z</time>
      </trkpt>
      <trkpt lat="47.09" lon="-1.62186">
        <ele>52</ele>
        <time>2021-09-18T11:42:15.000Z</time>
      </trkpt>
      <trkpt lat="47.09013" lon="-1.62181">
        <ele>52</ele>
        <time>2021-09-18T11:42:17.000Z</time>
      </trkpt>
      <trkpt lat="47.09026" lon="-1.62175">
        <ele>53</ele>
        <time>2021-09-18T11:42:19.000Z</time>
      </trkpt>
      <trkpt lat="47.0904" lon="-1.62169">
        <ele>53</ele>
        <time>2021-09-18T11:42:21.000Z</time>
      </trkpt>
      <trkpt lat="47.09053" lon="-1.62163">
        <ele>53</ele>
        <time>2021-09-18T11:42:23.000Z</time>
      </trkpt>
      <trkpt lat="47.09066" lon="-1.62158">
        <ele>53</ele>
        <time>2021-09-18T11:42:25.000Z</time>
      </trkpt>
      <trkpt lat="47.09078" lon="-1.62153">
        <ele>53</ele>
        <time>2021-09-18T11:42:27.000Z</time>
      </trkpt>
      <trkpt lat="47.09092" lon="-1.62148">
        <ele>53</ele>
        <time>2021-09-18T11:42:29.000Z</time>
      </trkpt>
      <trkpt lat="47.09105" lon="-1.62142">
        <ele>54</ele>
        <time>2021-09-18T11:42:31.000Z</time>
      </trkpt>
      <trkpt lat="47.09117" lon="-1.62136">
        <ele>54</ele>
        <time>2021-09-18T11:42:33.000Z</time>
      </trkpt>
      <trkpt lat="47.0913" lon="-1.62131">
        <ele>54</ele>
        <time>2021-09-18T11:42:35.000Z</time>
      </trkpt>
      <trkpt lat="47.09143" lon="-1.62127">
        <ele>54</ele>
        <time>2021-09-18T11:42:37.000Z</time>
      </trkpt>
      <trkpt lat="47.09156" lon="-1.62121">
        <ele>54</ele>
        <time>2021-09-18T11:42:39.000Z</time>
      </trkpt>
      <trkpt lat="47.09168" lon="-1.62115">
        <ele>54</ele>
        <time>2021-09-18T11:42:41.000Z</time>
      </trkpt>
      <trkpt lat="47.09179" lon="-1.62107">
        <ele>54</ele>
        <time>2021-09-18T11:42:43.000Z</time>
      </trkpt>
      <trkpt lat="47.09183" lon="-1.6209">
        <ele>53</ele>
        <time>2021-09-18T11:42:45.000Z</time>
      </trkpt>
      <trkpt lat="47.09176" lon="-1.62073">
        <ele>53</ele>
        <time>2021-09-18T11:42:47.000Z</time>
      </trkpt>
      <trkpt lat="47.09169" lon="-1.62057">
        <ele>53</ele>
        <time>2021-09-18T11:42:49.000Z</time>
      </trkpt>
      <trkpt lat="47.09163" lon="-1.62041">
        <ele>54</ele>
        <time>2021-09-18T11:42:51.000Z</time>
      </trkpt>
      <trkpt lat="47.09158" lon="-1.62023">
        <ele>54</ele>
        <time>2021-09-18T11:42:53.000Z</time>
      </trkpt>
      <trkpt lat="47.09151" lon="-1.62007">
        <ele>54</ele>
        <time>2021-09-18T11:42:55.000Z</time>
      </trkpt>
      <trkpt lat="47.09145" lon="-1.61989">
        <ele>54</ele>
        <time>2021-09-18T11:42:57.000Z</time>
      </trkpt>
      <trkpt lat="47.0914" lon="-1.61972">
        <ele>54</ele>
        <time>2021-09-18T11:42:59.000Z</time>
      </trkpt>
      <trkpt lat="47.09133" lon="-1.61955">
        <ele>54</ele>
        <time>2021-09-18T11:43:01.000Z</time>
      </trkpt>
      <trkpt lat="47.09127" lon="-1.61939">
        <ele>54</ele>
        <time>2021-09-18T11:43:03.000Z</time>
      </trkpt>
      <trkpt lat="47.09121" lon="-1.61922">
        <ele>54</ele>
        <time>2021-09-18T11:43:05.000Z</time>
      </trkpt>
      <trkpt lat="47.09115" lon="-1.61906">
        <ele>54</ele>
        <time>2021-09-18T11:43:07.000Z</time>
      </trkpt>
      <trkpt lat="47.09109" lon="-1.61889">
        <ele>54</ele>
        <time>2021-09-18T11:43:09.000Z</time>
      </trkpt>
      <trkpt lat="47.09103" lon="-1.61872">
        <ele>54</ele>
        <time>2021-09-18T11:43:11.000Z</time>
      </trkpt>
      <trkpt lat="47.09097" lon="-1.61855">
        <ele>54</ele>
        <time>2021-09-18T11:43:13.000Z</time>
      </trkpt>
      <trkpt lat="47.09091" lon="-1.61838">
        <ele>54</ele>
        <time>2021-09-18T11:43:15.000Z</time>
      </trkpt>
      <trkpt lat="47.09085" lon="-1.61822">
        <ele>54</ele>
        <time>2021-09-18T11:43:17.000Z</time>
      </trkpt>
      <trkpt lat="47.09079" lon="-1.61805">
        <ele>54</ele>
        <time>2021-09-18T11:43:19.000Z</time>
      </trkpt>
      <trkpt lat="47.09072" lon="-1.61788">
        <ele>54</ele>
        <time>2021-09-18T11:43:21.000Z</time>
      </trkpt>
      <trkpt lat="47.09067" lon="-1.61771">
        <ele>55</ele>
        <time>2021-09-18T11:43:23.000Z</time>
      </trkpt>
      <trkpt lat="47.09061" lon="-1.61755">
        <ele>55</ele>
        <time>2021-09-18T11:43:25.000Z</time>
      </trkpt>
      <trkpt lat="47.09052" lon="-1.6173">
        <ele>55</ele>
        <time>2021-09-18T11:43:28.000Z</time>
      </trkpt>
      <trkpt lat="47.09046" lon="-1.61713">
        <ele>55</ele>
        <time>2021-09-18T11:43:30.000Z</time>
      </trkpt>
      <trkpt lat="47.0904" lon="-1.61696">
        <ele>55</ele>
        <time>2021-09-18T11:43:32.000Z</time>
      </trkpt>
      <trkpt lat="47.09034" lon="-1.61679">
        <ele>55</ele>
        <time>2021-09-18T11:43:34.000Z</time>
      </trkpt>
      <trkpt lat="47.09028" lon="-1.61662">
        <ele>54</ele>
        <time>2021-09-18T11:43:36.000Z</time>
      </trkpt>
      <trkpt lat="47.09022" lon="-1.61645">
        <ele>54</ele>
        <time>2021-09-18T11:43:38.000Z</time>
      </trkpt>
      <trkpt lat="47.09016" lon="-1.61629">
        <ele>54</ele>
        <time>2021-09-18T11:43:40.000Z</time>
      </trkpt>
      <trkpt lat="47.0901" lon="-1.61613">
        <ele>54</ele>
        <time>2021-09-18T11:43:42.000Z</time>
      </trkpt>
      <trkpt lat="47.09003" lon="-1.61599">
        <ele>55</ele>
        <time>2021-09-18T11:43:44.000Z</time>
      </trkpt>
      <trkpt lat="47.09" lon="-1.61583">
        <ele>55</ele>
        <time>2021-09-18T11:43:46.000Z</time>
      </trkpt>
      <trkpt lat="47.09009" lon="-1.61574">
        <ele>54</ele>
        <time>2021-09-18T11:43:48.000Z</time>
      </trkpt>
      <trkpt lat="47.09021" lon="-1.61569">
        <ele>55</ele>
        <time>2021-09-18T11:43:50.000Z</time>
      </trkpt>
      <trkpt lat="47.09034" lon="-1.61563">
        <ele>55</ele>
        <time>2021-09-18T11:43:52.000Z</time>
      </trkpt>
      <trkpt lat="47.09047" lon="-1.61556">
        <ele>55</ele>
        <time>2021-09-18T11:43:54.000Z</time>
      </trkpt>
      <trkpt lat="47.09059" lon="-1.61549">
        <ele>55</ele>
        <time>2021-09-18T11:43:56.000Z</time>
      </trkpt>
      <trkpt lat="47.09071" lon="-1.61542">
        <ele>55</ele>
        <time>2021-09-18T11:43:58.000Z</time>
      </trkpt>
      <trkpt lat="47.09084" lon="-1.61536">
        <ele>55</ele>
        <time>2021-09-18T11:44:00.000Z</time>
      </trkpt>
      <trkpt lat="47.09096" lon="-1.61529">
        <ele>55</ele>
        <time>2021-09-18T11:44:02.000Z</time>
      </trkpt>
      <trkpt lat="47.09109" lon="-1.61521">
        <ele>55</ele>
        <time>2021-09-18T11:44:04.000Z</time>
      </trkpt>
      <trkpt lat="47.09122" lon="-1.61514">
        <ele>55</ele>
        <time>2021-09-18T11:44:06.000Z</time>
      </trkpt>
      <trkpt lat="47.09135" lon="-1.61506">
        <ele>55</ele>
        <time>2021-09-18T11:44:08.000Z</time>
      </trkpt>
      <trkpt lat="47.09147" lon="-1.61498">
        <ele>55</ele>
        <time>2021-09-18T11:44:10.000Z</time>
      </trkpt>
      <trkpt lat="47.09159" lon="-1.61491">
        <ele>55</ele>
        <time>2021-09-18T11:44:12.000Z</time>
      </trkpt>
      <trkpt lat="47.09171" lon="-1.61484">
        <ele>55</ele>
        <time>2021-09-18T11:44:14.000Z</time>
      </trkpt>
      <trkpt lat="47.09183" lon="-1.61477">
        <ele>55</ele>
        <time>2021-09-18T11:44:16.000Z</time>
      </trkpt>
      <trkpt lat="47.09195" lon="-1.6147">
        <ele>55</ele>
        <time>2021-09-18T11:44:18.000Z</time>
      </trkpt>
      <trkpt lat="47.09207" lon="-1.61463">
        <ele>55</ele>
        <time>2021-09-18T11:44:20.000Z</time>
      </trkpt>
      <trkpt lat="47.09219" lon="-1.61455">
        <ele>55</ele>
        <time>2021-09-18T11:44:22.000Z</time>
      </trkpt>
      <trkpt lat="47.09231" lon="-1.61448">
        <ele>55</ele>
        <time>2021-09-18T11:44:24.000Z</time>
      </trkpt>
      <trkpt lat="47.09243" lon="-1.61441">
        <ele>55</ele>
        <time>2021-09-18T11:44:26.000Z</time>
      </trkpt>
      <trkpt lat="47.09256" lon="-1.61434">
        <ele>55</ele>
        <time>2021-09-18T11:44:28.000Z</time>
      </trkpt>
      <trkpt lat="47.09267" lon="-1.61428">
        <ele>55</ele>
        <time>2021-09-18T11:44:30.000Z</time>
      </trkpt>
      <trkpt lat="47.09278" lon="-1.61422">
        <ele>55</ele>
        <time>2021-09-18T11:44:32.000Z</time>
      </trkpt>
      <trkpt lat="47.09283" lon="-1.61406">
        <ele>55</ele>
        <time>2021-09-18T11:44:34.000Z</time>
      </trkpt>
      <trkpt lat="47.0928" lon="-1.61386">
        <ele>55</ele>
        <time>2021-09-18T11:44:36.000Z</time>
      </trkpt>
      <trkpt lat="47.09278" lon="-1.61369">
        <ele>55</ele>
        <time>2021-09-18T11:44:38.000Z</time>
      </trkpt>
      <trkpt lat="47.09274" lon="-1.6135">
        <ele>55</ele>
        <time>2021-09-18T11:44:40.000Z</time>
      </trkpt>
      <trkpt lat="47.09271" lon="-1.61331">
        <ele>55</ele>
        <time>2021-09-18T11:44:42.000Z</time>
      </trkpt>
      <trkpt lat="47.09267" lon="-1.61312">
        <ele>55</ele>
        <time>2021-09-18T11:44:44.000Z</time>
      </trkpt>
      <trkpt lat="47.09264" lon="-1.61294">
        <ele>56</ele>
        <time>2021-09-18T11:44:46.000Z</time>
      </trkpt>
      <trkpt lat="47.0926" lon="-1.61275">
        <ele>56</ele>
        <time>2021-09-18T11:44:48.000Z</time>
      </trkpt>
      <trkpt lat="47.09255" lon="-1.61258">
        <ele>56</ele>
        <time>2021-09-18T11:44:50.000Z</time>
      </trkpt>
      <trkpt lat="47.09251" lon="-1.61242">
        <ele>56</ele>
        <time>2021-09-18T11:44:52.000Z</time>
      </trkpt>
      <trkpt lat="47.09248" lon="-1.61227">
        <ele>56</ele>
        <time>2021-09-18T11:44:54.000Z</time>
      </trkpt>
      <trkpt lat="47.09244" lon="-1.61212">
        <ele>57</ele>
        <time>2021-09-18T11:44:57.000Z</time>
      </trkpt>
      <trkpt lat="47.09239" lon="-1.61199">
        <ele>57</ele>
        <time>2021-09-18T11:45:03.000Z</time>
      </trkpt>
      <trkpt lat="47.09236" lon="-1.61186">
        <ele>57</ele>
        <time>2021-09-18T11:45:42.000Z</time>
      </trkpt>
      <trkpt lat="47.09245" lon="-1.61176">
        <ele>57</ele>
        <time>2021-09-18T11:45:45.000Z</time>
      </trkpt>
      <trkpt lat="47.09259" lon="-1.6118">
        <ele>57</ele>
        <time>2021-09-18T11:45:47.000Z</time>
      </trkpt>
      <trkpt lat="47.09273" lon="-1.61184">
        <ele>57</ele>
        <time>2021-09-18T11:45:49.000Z</time>
      </trkpt>
      <trkpt lat="47.09288" lon="-1.61189">
        <ele>56</ele>
        <time>2021-09-18T11:45:51.000Z</time>
      </trkpt>
      <trkpt lat="47.09304" lon="-1.61193">
        <ele>56</ele>
        <time>2021-09-18T11:45:53.000Z</time>
      </trkpt>
      <trkpt lat="47.09319" lon="-1.61197">
        <ele>56</ele>
        <time>2021-09-18T11:45:55.000Z</time>
      </trkpt>
      <trkpt lat="47.09335" lon="-1.612">
        <ele>56</ele>
        <time>2021-09-18T11:45:57.000Z</time>
      </trkpt>
      <trkpt lat="47.09351" lon="-1.61203">
        <ele>56</ele>
        <time>2021-09-18T11:45:59.000Z</time>
      </trkpt>
      <trkpt lat="47.09367" lon="-1.61209">
        <ele>56</ele>
        <time>2021-09-18T11:46:01.000Z</time>
      </trkpt>
      <trkpt lat="47.09383" lon="-1.61216">
        <ele>56</ele>
        <time>2021-09-18T11:46:03.000Z</time>
      </trkpt>
      <trkpt lat="47.09399" lon="-1.61224">
        <ele>56</ele>
        <time>2021-09-18T11:46:05.000Z</time>
      </trkpt>
      <trkpt lat="47.09415" lon="-1.61231">
        <ele>56</ele>
        <time>2021-09-18T11:46:07.000Z</time>
      </trkpt>
      <trkpt lat="47.0943" lon="-1.61221">
        <ele>55</ele>
        <time>2021-09-18T11:46:09.000Z</time>
      </trkpt>
      <trkpt lat="47.09443" lon="-1.61205">
        <ele>55</ele>
        <time>2021-09-18T11:46:11.000Z</time>
      </trkpt>
      <trkpt lat="47.09456" lon="-1.6119">
        <ele>55</ele>
        <time>2021-09-18T11:46:13.000Z</time>
      </trkpt>
      <trkpt lat="47.0947" lon="-1.61175">
        <ele>54</ele>
        <time>2021-09-18T11:46:15.000Z</time>
      </trkpt>
      <trkpt lat="47.09484" lon="-1.61161">
        <ele>54</ele>
        <time>2021-09-18T11:46:17.000Z</time>
      </trkpt>
      <trkpt lat="47.09499" lon="-1.61148">
        <ele>54</ele>
        <time>2021-09-18T11:46:19.000Z</time>
      </trkpt>
      <trkpt lat="47.09515" lon="-1.6114">
        <ele>54</ele>
        <time>2021-09-18T11:46:21.000Z</time>
      </trkpt>
      <trkpt lat="47.09532" lon="-1.61136">
        <ele>53</ele>
        <time>2021-09-18T11:46:23.000Z</time>
      </trkpt>
      <trkpt lat="47.09549" lon="-1.61134">
        <ele>53</ele>
        <time>2021-09-18T11:46:25.000Z</time>
      </trkpt>
      <trkpt lat="47.09566" lon="-1.61132">
        <ele>52</ele>
        <time>2021-09-18T11:46:27.000Z</time>
      </trkpt>
      <trkpt lat="47.09583" lon="-1.6113">
        <ele>51</ele>
        <time>2021-09-18T11:46:29.000Z</time>
      </trkpt>
      <trkpt lat="47.096" lon="-1.61128">
        <ele>51</ele>
        <time>2021-09-18T11:46:31.000Z</time>
      </trkpt>
      <trkpt lat="47.09618" lon="-1.61126">
        <ele>51</ele>
        <time>2021-09-18T11:46:33.000Z</time>
      </trkpt>
      <trkpt lat="47.09635" lon="-1.61124">
        <ele>51</ele>
        <time>2021-09-18T11:46:35.000Z</time>
      </trkpt>
      <trkpt lat="47.09652" lon="-1.61121">
        <ele>50</ele>
        <time>2021-09-18T11:46:37.000Z</time>
      </trkpt>
      <trkpt lat="47.09669" lon="-1.61119">
        <ele>50</ele>
        <time>2021-09-18T11:46:39.000Z</time>
      </trkpt>
      <trkpt lat="47.09686" lon="-1.61118">
        <ele>49</ele>
        <time>2021-09-18T11:46:41.000Z</time>
      </trkpt>
      <trkpt lat="47.09703" lon="-1.61116">
        <ele>49</ele>
        <time>2021-09-18T11:46:43.000Z</time>
      </trkpt>
      <trkpt lat="47.09719" lon="-1.61114">
        <ele>50</ele>
        <time>2021-09-18T11:46:45.000Z</time>
      </trkpt>
      <trkpt lat="47.09735" lon="-1.61111">
        <ele>50</ele>
        <time>2021-09-18T11:46:47.000Z</time>
      </trkpt>
      <trkpt lat="47.09751" lon="-1.61109">
        <ele>50</ele>
        <time>2021-09-18T11:46:49.000Z</time>
      </trkpt>
      <trkpt lat="47.09767" lon="-1.61108">
        <ele>50</ele>
        <time>2021-09-18T11:46:51.000Z</time>
      </trkpt>
      <trkpt lat="47.09783" lon="-1.61106">
        <ele>49</ele>
        <time>2021-09-18T11:46:53.000Z</time>
      </trkpt>
      <trkpt lat="47.09798" lon="-1.61101">
        <ele>50</ele>
        <time>2021-09-18T11:46:55.000Z</time>
      </trkpt>
      <trkpt lat="47.09812" lon="-1.61094">
        <ele>49</ele>
        <time>2021-09-18T11:46:57.000Z</time>
      </trkpt>
      <trkpt lat="47.09826" lon="-1.61085">
        <ele>49</ele>
        <time>2021-09-18T11:46:59.000Z</time>
      </trkpt>
      <trkpt lat="47.09839" lon="-1.61073">
        <ele>50</ele>
        <time>2021-09-18T11:47:01.000Z</time>
      </trkpt>
      <trkpt lat="47.0985" lon="-1.61059">
        <ele>50</ele>
        <time>2021-09-18T11:47:03.000Z</time>
      </trkpt>
      <trkpt lat="47.0986" lon="-1.61042">
        <ele>51</ele>
        <time>2021-09-18T11:47:05.000Z</time>
      </trkpt>
      <trkpt lat="47.0987" lon="-1.61024">
        <ele>51</ele>
        <time>2021-09-18T11:47:07.000Z</time>
      </trkpt>
      <trkpt lat="47.09879" lon="-1.61003">
        <ele>51</ele>
        <time>2021-09-18T11:47:09.000Z</time>
      </trkpt>
      <trkpt lat="47.09887" lon="-1.60981">
        <ele>52</ele>
        <time>2021-09-18T11:47:11.000Z</time>
      </trkpt>
      <trkpt lat="47.09895" lon="-1.6096">
        <ele>52</ele>
        <time>2021-09-18T11:47:13.000Z</time>
      </trkpt>
      <trkpt lat="47.09903" lon="-1.6094">
        <ele>53</ele>
        <time>2021-09-18T11:47:15.000Z</time>
      </trkpt>
      <trkpt lat="47.09911" lon="-1.60921">
        <ele>53</ele>
        <time>2021-09-18T11:47:17.000Z</time>
      </trkpt>
      <trkpt lat="47.09918" lon="-1.60902">
        <ele>53</ele>
        <time>2021-09-18T11:47:19.000Z</time>
      </trkpt>
      <trkpt lat="47.09926" lon="-1.60883">
        <ele>53</ele>
        <time>2021-09-18T11:47:21.000Z</time>
      </trkpt>
      <trkpt lat="47.09934" lon="-1.60864">
        <ele>53</ele>
        <time>2021-09-18T11:47:23.000Z</time>
      </trkpt>
      <trkpt lat="47.09941" lon="-1.60845">
        <ele>53</ele>
        <time>2021-09-18T11:47:25.000Z</time>
      </trkpt>
      <trkpt lat="47.09948" lon="-1.60825">
        <ele>54</ele>
        <time>2021-09-18T11:47:27.000Z</time>
      </trkpt>
      <trkpt lat="47.09955" lon="-1.60806">
        <ele>54</ele>
        <time>2021-09-18T11:47:29.000Z</time>
      </trkpt>
      <trkpt lat="47.09961" lon="-1.60786">
        <ele>54</ele>
        <time>2021-09-18T11:47:31.000Z</time>
      </trkpt>
      <trkpt lat="47.09966" lon="-1.60767">
        <ele>54</ele>
        <time>2021-09-18T11:47:33.000Z</time>
      </trkpt>
      <trkpt lat="47.09972" lon="-1.60748">
        <ele>54</ele>
        <time>2021-09-18T11:47:35.000Z</time>
      </trkpt>
      <trkpt lat="47.09977" lon="-1.60729">
        <ele>55</ele>
        <time>2021-09-18T11:47:37.000Z</time>
      </trkpt>
      <trkpt lat="47.09983" lon="-1.60711">
        <ele>55</ele>
        <time>2021-09-18T11:47:39.000Z</time>
      </trkpt>
      <trkpt lat="47.09988" lon="-1.60691">
        <ele>55</ele>
        <time>2021-09-18T11:47:41.000Z</time>
      </trkpt>
      <trkpt lat="47.09993" lon="-1.60671">
        <ele>55</ele>
        <time>2021-09-18T11:47:43.000Z</time>
      </trkpt>
      <trkpt lat="47.09999" lon="-1.60652">
        <ele>55</ele>
        <time>2021-09-18T11:47:45.000Z</time>
      </trkpt>
      <trkpt lat="47.10005" lon="-1.60633">
        <ele>55</ele>
        <time>2021-09-18T11:47:47.000Z</time>
      </trkpt>
      <trkpt lat="47.10011" lon="-1.60614">
        <ele>55</ele>
        <time>2021-09-18T11:47:49.000Z</time>
      </trkpt>
      <trkpt lat="47.10017" lon="-1.60594">
        <ele>55</ele>
        <time>2021-09-18T11:47:51.000Z</time>
      </trkpt>
      <trkpt lat="47.10023" lon="-1.60574">
        <ele>55</ele>
        <time>2021-09-18T11:47:53.000Z</time>
      </trkpt>
      <trkpt lat="47.10028" lon="-1.60555">
        <ele>55</ele>
        <time>2021-09-18T11:47:55.000Z</time>
      </trkpt>
      <trkpt lat="47.10034" lon="-1.60536">
        <ele>55</ele>
        <time>2021-09-18T11:47:57.000Z</time>
      </trkpt>
      <trkpt lat="47.10039" lon="-1.60517">
        <ele>55</ele>
        <time>2021-09-18T11:47:59.000Z</time>
      </trkpt>
      <trkpt lat="47.10045" lon="-1.60497">
        <ele>55</ele>
        <time>2021-09-18T11:48:01.000Z</time>
      </trkpt>
      <trkpt lat="47.1005" lon="-1.60477">
        <ele>55</ele>
        <time>2021-09-18T11:48:03.000Z</time>
      </trkpt>
      <trkpt lat="47.10054" lon="-1.60456">
        <ele>54</ele>
        <time>2021-09-18T11:48:05.000Z</time>
      </trkpt>
      <trkpt lat="47.10057" lon="-1.60435">
        <ele>54</ele>
        <time>2021-09-18T11:48:07.000Z</time>
      </trkpt>
      <trkpt lat="47.10061" lon="-1.60414">
        <ele>54</ele>
        <time>2021-09-18T11:48:09.000Z</time>
      </trkpt>
      <trkpt lat="47.10063" lon="-1.60393">
        <ele>54</ele>
        <time>2021-09-18T11:48:11.000Z</time>
      </trkpt>
      <trkpt lat="47.10065" lon="-1.60372">
        <ele>55</ele>
        <time>2021-09-18T11:48:13.000Z</time>
      </trkpt>
      <trkpt lat="47.10067" lon="-1.60351">
        <ele>55</ele>
        <time>2021-09-18T11:48:15.000Z</time>
      </trkpt>
      <trkpt lat="47.10069" lon="-1.6033">
        <ele>55</ele>
        <time>2021-09-18T11:48:17.000Z</time>
      </trkpt>
      <trkpt lat="47.10071" lon="-1.60309">
        <ele>55</ele>
        <time>2021-09-18T11:48:19.000Z</time>
      </trkpt>
      <trkpt lat="47.10073" lon="-1.60288">
        <ele>55</ele>
        <time>2021-09-18T11:48:21.000Z</time>
      </trkpt>
      <trkpt lat="47.10075" lon="-1.60267">
        <ele>56</ele>
        <time>2021-09-18T11:48:23.000Z</time>
      </trkpt>
      <trkpt lat="47.10077" lon="-1.60246">
        <ele>55</ele>
        <time>2021-09-18T11:48:25.000Z</time>
      </trkpt>
      <trkpt lat="47.10078" lon="-1.60225">
        <ele>55</ele>
        <time>2021-09-18T11:48:27.000Z</time>
      </trkpt>
      <trkpt lat="47.10079" lon="-1.60204">
        <ele>55</ele>
        <time>2021-09-18T11:48:29.000Z</time>
      </trkpt>
      <trkpt lat="47.1008" lon="-1.60183">
        <ele>55</ele>
        <time>2021-09-18T11:48:31.000Z</time>
      </trkpt>
      <trkpt lat="47.10078" lon="-1.60163">
        <ele>56</ele>
        <time>2021-09-18T11:48:33.000Z</time>
      </trkpt>
      <trkpt lat="47.10071" lon="-1.60145">
        <ele>56</ele>
        <time>2021-09-18T11:48:35.000Z</time>
      </trkpt>
      <trkpt lat="47.10068" lon="-1.60124">
        <ele>55</ele>
        <time>2021-09-18T11:48:37.000Z</time>
      </trkpt>
      <trkpt lat="47.10077" lon="-1.60106">
        <ele>55</ele>
        <time>2021-09-18T11:48:39.000Z</time>
      </trkpt>
      <trkpt lat="47.10091" lon="-1.601">
        <ele>55</ele>
        <time>2021-09-18T11:48:41.000Z</time>
      </trkpt>
      <trkpt lat="47.10104" lon="-1.60094">
        <ele>55</ele>
        <time>2021-09-18T11:48:43.000Z</time>
      </trkpt>
      <trkpt lat="47.10114" lon="-1.60079">
        <ele>55</ele>
        <time>2021-09-18T11:48:45.000Z</time>
      </trkpt>
      <trkpt lat="47.10123" lon="-1.60062">
        <ele>55</ele>
        <time>2021-09-18T11:48:47.000Z</time>
      </trkpt>
      <trkpt lat="47.10132" lon="-1.60044">
        <ele>55</ele>
        <time>2021-09-18T11:48:49.000Z</time>
      </trkpt>
      <trkpt lat="47.10142" lon="-1.60027">
        <ele>55</ele>
        <time>2021-09-18T11:48:51.000Z</time>
      </trkpt>
      <trkpt lat="47.10152" lon="-1.60009">
        <ele>54</ele>
        <time>2021-09-18T11:48:53.000Z</time>
      </trkpt>
      <trkpt lat="47.10162" lon="-1.59992">
        <ele>54</ele>
        <time>2021-09-18T11:48:55.000Z</time>
      </trkpt>
      <trkpt lat="47.10172" lon="-1.59975">
        <ele>54</ele>
        <time>2021-09-18T11:48:57.000Z</time>
      </trkpt>
      <trkpt lat="47.10182" lon="-1.59959">
        <ele>54</ele>
        <time>2021-09-18T11:48:59.000Z</time>
      </trkpt>
      <trkpt lat="47.10192" lon="-1.59943">
        <ele>55</ele>
        <time>2021-09-18T11:49:01.000Z</time>
      </trkpt>
      <trkpt lat="47.10202" lon="-1.59927">
        <ele>55</ele>
        <time>2021-09-18T11:49:03.000Z</time>
      </trkpt>
      <trkpt lat="47.10211" lon="-1.59911">
        <ele>55</ele>
        <time>2021-09-18T11:49:05.000Z</time>
      </trkpt>
      <trkpt lat="47.10221" lon="-1.59894">
        <ele>55</ele>
        <time>2021-09-18T11:49:07.000Z</time>
      </trkpt>
      <trkpt lat="47.10231" lon="-1.59878">
        <ele>55</ele>
        <time>2021-09-18T11:49:09.000Z</time>
      </trkpt>
      <trkpt lat="47.1024" lon="-1.59862">
        <ele>55</ele>
        <time>2021-09-18T11:49:11.000Z</time>
      </trkpt>
      <trkpt lat="47.1025" lon="-1.59845">
        <ele>55</ele>
        <time>2021-09-18T11:49:13.000Z</time>
      </trkpt>
      <trkpt lat="47.1026" lon="-1.59829">
        <ele>55</ele>
        <time>2021-09-18T11:49:15.000Z</time>
      </trkpt>
      <trkpt lat="47.10271" lon="-1.59812">
        <ele>55</ele>
        <time>2021-09-18T11:49:17.000Z</time>
      </trkpt>
      <trkpt lat="47.10281" lon="-1.59796">
        <ele>55</ele>
        <time>2021-09-18T11:49:19.000Z</time>
      </trkpt>
      <trkpt lat="47.10291" lon="-1.5978">
        <ele>55</ele>
        <time>2021-09-18T11:49:21.000Z</time>
      </trkpt>
      <trkpt lat="47.103" lon="-1.59764">
        <ele>55</ele>
        <time>2021-09-18T11:49:23.000Z</time>
      </trkpt>
      <trkpt lat="47.10309" lon="-1.59748">
        <ele>55</ele>
        <time>2021-09-18T11:49:25.000Z</time>
      </trkpt>
      <trkpt lat="47.10317" lon="-1.5973">
        <ele>56</ele>
        <time>2021-09-18T11:49:27.000Z</time>
      </trkpt>
      <trkpt lat="47.10326" lon="-1.59714">
        <ele>57</ele>
        <time>2021-09-18T11:49:29.000Z</time>
      </trkpt>
      <trkpt lat="47.10335" lon="-1.59697">
        <ele>58</ele>
        <time>2021-09-18T11:49:31.000Z</time>
      </trkpt>
      <trkpt lat="47.10345" lon="-1.5968">
        <ele>58</ele>
        <time>2021-09-18T11:49:33.000Z</time>
      </trkpt>
      <trkpt lat="47.10355" lon="-1.59663">
        <ele>59</ele>
        <time>2021-09-18T11:49:35.000Z</time>
      </trkpt>
      <trkpt lat="47.10365" lon="-1.59648">
        <ele>59</ele>
        <time>2021-09-18T11:49:37.000Z</time>
      </trkpt>
      <trkpt lat="47.10375" lon="-1.59632">
        <ele>59</ele>
        <time>2021-09-18T11:49:39.000Z</time>
      </trkpt>
      <trkpt lat="47.10384" lon="-1.59615">
        <ele>60</ele>
        <time>2021-09-18T11:49:41.000Z</time>
      </trkpt>
      <trkpt lat="47.10394" lon="-1.596">
        <ele>60</ele>
        <time>2021-09-18T11:49:43.000Z</time>
      </trkpt>
      <trkpt lat="47.10404" lon="-1.59584">
        <ele>60</ele>
        <time>2021-09-18T11:49:45.000Z</time>
      </trkpt>
      <trkpt lat="47.10415" lon="-1.59567">
        <ele>60</ele>
        <time>2021-09-18T11:49:47.000Z</time>
      </trkpt>
      <trkpt lat="47.10425" lon="-1.59551">
        <ele>60</ele>
        <time>2021-09-18T11:49:49.000Z</time>
      </trkpt>
      <trkpt lat="47.10435" lon="-1.59535">
        <ele>59</ele>
        <time>2021-09-18T11:49:51.000Z</time>
      </trkpt>
      <trkpt lat="47.10445" lon="-1.59518">
        <ele>59</ele>
        <time>2021-09-18T11:49:53.000Z</time>
      </trkpt>
      <trkpt lat="47.10455" lon="-1.59503">
        <ele>59</ele>
        <time>2021-09-18T11:49:55.000Z</time>
      </trkpt>
      <trkpt lat="47.10465" lon="-1.59485">
        <ele>59</ele>
        <time>2021-09-18T11:49:57.000Z</time>
      </trkpt>
      <trkpt lat="47.10475" lon="-1.59469">
        <ele>58</ele>
        <time>2021-09-18T11:49:59.000Z</time>
      </trkpt>
      <trkpt lat="47.10485" lon="-1.59453">
        <ele>58</ele>
        <time>2021-09-18T11:50:01.000Z</time>
      </trkpt>
      <trkpt lat="47.10494" lon="-1.59436">
        <ele>58</ele>
        <time>2021-09-18T11:50:03.000Z</time>
      </trkpt>
      <trkpt lat="47.10504" lon="-1.5942">
        <ele>58</ele>
        <time>2021-09-18T11:50:05.000Z</time>
      </trkpt>
      <trkpt lat="47.10514" lon="-1.59403">
        <ele>58</ele>
        <time>2021-09-18T11:50:07.000Z</time>
      </trkpt>
      <trkpt lat="47.10523" lon="-1.59386">
        <ele>58</ele>
        <time>2021-09-18T11:50:09.000Z</time>
      </trkpt>
      <trkpt lat="47.10533" lon="-1.5937">
        <ele>58</ele>
        <time>2021-09-18T11:50:11.000Z</time>
      </trkpt>
      <trkpt lat="47.10543" lon="-1.59354">
        <ele>58</ele>
        <time>2021-09-18T11:50:13.000Z</time>
      </trkpt>
      <trkpt lat="47.10553" lon="-1.59337">
        <ele>58</ele>
        <time>2021-09-18T11:50:15.000Z</time>
      </trkpt>
      <trkpt lat="47.10562" lon="-1.59321">
        <ele>58</ele>
        <time>2021-09-18T11:50:17.000Z</time>
      </trkpt>
      <trkpt lat="47.10571" lon="-1.59304">
        <ele>58</ele>
        <time>2021-09-18T11:50:19.000Z</time>
      </trkpt>
      <trkpt lat="47.10579" lon="-1.59288">
        <ele>59</ele>
        <time>2021-09-18T11:50:21.000Z</time>
      </trkpt>
      <trkpt lat="47.10587" lon="-1.59273">
        <ele>59</ele>
        <time>2021-09-18T11:50:23.000Z</time>
      </trkpt>
      <trkpt lat="47.10596" lon="-1.59259">
        <ele>59</ele>
        <time>2021-09-18T11:50:25.000Z</time>
      </trkpt>
      <trkpt lat="47.10606" lon="-1.59246">
        <ele>59</ele>
        <time>2021-09-18T11:50:27.000Z</time>
      </trkpt>
      <trkpt lat="47.10614" lon="-1.59232">
        <ele>59</ele>
        <time>2021-09-18T11:50:29.000Z</time>
      </trkpt>
      <trkpt lat="47.10624" lon="-1.59219">
        <ele>60</ele>
        <time>2021-09-18T11:50:31.000Z</time>
      </trkpt>
      <trkpt lat="47.10632" lon="-1.59204">
        <ele>60</ele>
        <time>2021-09-18T11:50:33.000Z</time>
      </trkpt>
      <trkpt lat="47.10639" lon="-1.59188">
        <ele>60</ele>
        <time>2021-09-18T11:50:35.000Z</time>
      </trkpt>
      <trkpt lat="47.10647" lon="-1.59172">
        <ele>60</ele>
        <time>2021-09-18T11:50:37.000Z</time>
      </trkpt>
      <trkpt lat="47.10654" lon="-1.59156">
        <ele>61</ele>
        <time>2021-09-18T11:50:39.000Z</time>
      </trkpt>
      <trkpt lat="47.10661" lon="-1.59139">
        <ele>61</ele>
        <time>2021-09-18T11:50:41.000Z</time>
      </trkpt>
      <trkpt lat="47.10667" lon="-1.59123">
        <ele>61</ele>
        <time>2021-09-18T11:50:43.000Z</time>
      </trkpt>
      <trkpt lat="47.10672" lon="-1.59107">
        <ele>62</ele>
        <time>2021-09-18T11:50:45.000Z</time>
      </trkpt>
      <trkpt lat="47.10678" lon="-1.59091">
        <ele>62</ele>
        <time>2021-09-18T11:50:47.000Z</time>
      </trkpt>
      <trkpt lat="47.10683" lon="-1.59075">
        <ele>62</ele>
        <time>2021-09-18T11:50:49.000Z</time>
      </trkpt>
      <trkpt lat="47.10687" lon="-1.59058">
        <ele>63</ele>
        <time>2021-09-18T11:50:51.000Z</time>
      </trkpt>
      <trkpt lat="47.1069" lon="-1.59042">
        <ele>63</ele>
        <time>2021-09-18T11:50:53.000Z</time>
      </trkpt>
      <trkpt lat="47.10695" lon="-1.59027">
        <ele>63</ele>
        <time>2021-09-18T11:50:55.000Z</time>
      </trkpt>
      <trkpt lat="47.10703" lon="-1.59014">
        <ele>64</ele>
        <time>2021-09-18T11:50:57.000Z</time>
      </trkpt>
      <trkpt lat="47.1071" lon="-1.59">
        <ele>64</ele>
        <time>2021-09-18T11:50:59.000Z</time>
      </trkpt>
      <trkpt lat="47.10718" lon="-1.58984">
        <ele>64</ele>
        <time>2021-09-18T11:51:01.000Z</time>
      </trkpt>
      <trkpt lat="47.10724" lon="-1.58967">
        <ele>64</ele>
        <time>2021-09-18T11:51:03.000Z</time>
      </trkpt>
      <trkpt lat="47.1073" lon="-1.58949">
        <ele>64</ele>
        <time>2021-09-18T11:51:05.000Z</time>
      </trkpt>
      <trkpt lat="47.10737" lon="-1.58932">
        <ele>64</ele>
        <time>2021-09-18T11:51:07.000Z</time>
      </trkpt>
      <trkpt lat="47.10744" lon="-1.58914">
        <ele>64</ele>
        <time>2021-09-18T11:51:09.000Z</time>
      </trkpt>
      <trkpt lat="47.10751" lon="-1.58896">
        <ele>64</ele>
        <time>2021-09-18T11:51:11.000Z</time>
      </trkpt>
      <trkpt lat="47.1076" lon="-1.58879">
        <ele>63</ele>
        <time>2021-09-18T11:51:13.000Z</time>
      </trkpt>
      <trkpt lat="47.10771" lon="-1.58863">
        <ele>63</ele>
        <time>2021-09-18T11:51:15.000Z</time>
      </trkpt>
      <trkpt lat="47.10782" lon="-1.58847">
        <ele>63</ele>
        <time>2021-09-18T11:51:17.000Z</time>
      </trkpt>
      <trkpt lat="47.10792" lon="-1.5883">
        <ele>62</ele>
        <time>2021-09-18T11:51:19.000Z</time>
      </trkpt>
      <trkpt lat="47.10804" lon="-1.58813">
        <ele>62</ele>
        <time>2021-09-18T11:51:21.000Z</time>
      </trkpt>
      <trkpt lat="47.10815" lon="-1.58796">
        <ele>62</ele>
        <time>2021-09-18T11:51:23.000Z</time>
      </trkpt>
      <trkpt lat="47.10827" lon="-1.58779">
        <ele>62</ele>
        <time>2021-09-18T11:51:25.000Z</time>
      </trkpt>
      <trkpt lat="47.10838" lon="-1.58763">
        <ele>62</ele>
        <time>2021-09-18T11:51:27.000Z</time>
      </trkpt>
      <trkpt lat="47.10848" lon="-1.58746">
        <ele>61</ele>
        <time>2021-09-18T11:51:29.000Z</time>
      </trkpt>
      <trkpt lat="47.10857" lon="-1.58729">
        <ele>61</ele>
        <time>2021-09-18T11:51:31.000Z</time>
      </trkpt>
      <trkpt lat="47.10868" lon="-1.58715">
        <ele>61</ele>
        <time>2021-09-18T11:51:33.000Z</time>
      </trkpt>
      <trkpt lat="47.10879" lon="-1.587">
        <ele>61</ele>
        <time>2021-09-18T11:51:35.000Z</time>
      </trkpt>
      <trkpt lat="47.1089" lon="-1.58683">
        <ele>60</ele>
        <time>2021-09-18T11:51:37.000Z</time>
      </trkpt>
      <trkpt lat="47.10902" lon="-1.58665">
        <ele>59</ele>
        <time>2021-09-18T11:51:39.000Z</time>
      </trkpt>
      <trkpt lat="47.10913" lon="-1.58648">
        <ele>59</ele>
        <time>2021-09-18T11:51:41.000Z</time>
      </trkpt>
      <trkpt lat="47.10925" lon="-1.5863">
        <ele>58</ele>
        <time>2021-09-18T11:51:43.000Z</time>
      </trkpt>
      <trkpt lat="47.10938" lon="-1.58614">
        <ele>58</ele>
        <time>2021-09-18T11:51:45.000Z</time>
      </trkpt>
      <trkpt lat="47.10952" lon="-1.58599">
        <ele>57</ele>
        <time>2021-09-18T11:51:47.000Z</time>
      </trkpt>
      <trkpt lat="47.10964" lon="-1.58581">
        <ele>57</ele>
        <time>2021-09-18T11:51:49.000Z</time>
      </trkpt>
      <trkpt lat="47.10975" lon="-1.58561">
        <ele>57</ele>
        <time>2021-09-18T11:51:51.000Z</time>
      </trkpt>
      <trkpt lat="47.10986" lon="-1.58543">
        <ele>57</ele>
        <time>2021-09-18T11:51:53.000Z</time>
      </trkpt>
      <trkpt lat="47.10998" lon="-1.58525">
        <ele>57</ele>
        <time>2021-09-18T11:51:55.000Z</time>
      </trkpt>
      <trkpt lat="47.11009" lon="-1.58507">
        <ele>57</ele>
        <time>2021-09-18T11:51:57.000Z</time>
      </trkpt>
      <trkpt lat="47.11021" lon="-1.5849">
        <ele>56</ele>
        <time>2021-09-18T11:51:59.000Z</time>
      </trkpt>
      <trkpt lat="47.11032" lon="-1.58471">
        <ele>56</ele>
        <time>2021-09-18T11:52:01.000Z</time>
      </trkpt>
      <trkpt lat="47.11041" lon="-1.58452">
        <ele>56</ele>
        <time>2021-09-18T11:52:03.000Z</time>
      </trkpt>
      <trkpt lat="47.11052" lon="-1.58432">
        <ele>55</ele>
        <time>2021-09-18T11:52:05.000Z</time>
      </trkpt>
      <trkpt lat="47.11062" lon="-1.58414">
        <ele>55</ele>
        <time>2021-09-18T11:52:07.000Z</time>
      </trkpt>
      <trkpt lat="47.11071" lon="-1.58394">
        <ele>55</ele>
        <time>2021-09-18T11:52:09.000Z</time>
      </trkpt>
      <trkpt lat="47.11081" lon="-1.58374">
        <ele>56</ele>
        <time>2021-09-18T11:52:11.000Z</time>
      </trkpt>
      <trkpt lat="47.1109" lon="-1.58354">
        <ele>56</ele>
        <time>2021-09-18T11:52:13.000Z</time>
      </trkpt>
      <trkpt lat="47.111" lon="-1.58335">
        <ele>55</ele>
        <time>2021-09-18T11:52:15.000Z</time>
      </trkpt>
      <trkpt lat="47.11111" lon="-1.58318">
        <ele>55</ele>
        <time>2021-09-18T11:52:17.000Z</time>
      </trkpt>
      <trkpt lat="47.11124" lon="-1.58303">
        <ele>55</ele>
        <time>2021-09-18T11:52:19.000Z</time>
      </trkpt>
      <trkpt lat="47.11137" lon="-1.58288">
        <ele>54</ele>
        <time>2021-09-18T11:52:21.000Z</time>
      </trkpt>
      <trkpt lat="47.1115" lon="-1.58274">
        <ele>54</ele>
        <time>2021-09-18T11:52:23.000Z</time>
      </trkpt>
      <trkpt lat="47.11163" lon="-1.58259">
        <ele>54</ele>
        <time>2021-09-18T11:52:25.000Z</time>
      </trkpt>
      <trkpt lat="47.11176" lon="-1.58244">
        <ele>54</ele>
        <time>2021-09-18T11:52:27.000Z</time>
      </trkpt>
      <trkpt lat="47.11189" lon="-1.58228">
        <ele>54</ele>
        <time>2021-09-18T11:52:29.000Z</time>
      </trkpt>
      <trkpt lat="47.11202" lon="-1.58212">
        <ele>54</ele>
        <time>2021-09-18T11:52:31.000Z</time>
      </trkpt>
      <trkpt lat="47.11214" lon="-1.58196">
        <ele>54</ele>
        <time>2021-09-18T11:52:33.000Z</time>
      </trkpt>
      <trkpt lat="47.11227" lon="-1.5818">
        <ele>54</ele>
        <time>2021-09-18T11:52:35.000Z</time>
      </trkpt>
      <trkpt lat="47.1124" lon="-1.58164">
        <ele>53</ele>
        <time>2021-09-18T11:52:37.000Z</time>
      </trkpt>
      <trkpt lat="47.11254" lon="-1.58151">
        <ele>53</ele>
        <time>2021-09-18T11:52:39.000Z</time>
      </trkpt>
      <trkpt lat="47.11269" lon="-1.58138">
        <ele>53</ele>
        <time>2021-09-18T11:52:41.000Z</time>
      </trkpt>
      <trkpt lat="47.11283" lon="-1.58125">
        <ele>52</ele>
        <time>2021-09-18T11:52:43.000Z</time>
      </trkpt>
      <trkpt lat="47.11298" lon="-1.58115">
        <ele>52</ele>
        <time>2021-09-18T11:52:45.000Z</time>
      </trkpt>
      <trkpt lat="47.11312" lon="-1.58104">
        <ele>52</ele>
        <time>2021-09-18T11:52:47.000Z</time>
      </trkpt>
      <trkpt lat="47.11326" lon="-1.58096">
        <ele>52</ele>
        <time>2021-09-18T11:52:49.000Z</time>
      </trkpt>
      <trkpt lat="47.11339" lon="-1.58087">
        <ele>52</ele>
        <time>2021-09-18T11:52:51.000Z</time>
      </trkpt>
      <trkpt lat="47.11353" lon="-1.58078">
        <ele>52</ele>
        <time>2021-09-18T11:52:53.000Z</time>
      </trkpt>
      <trkpt lat="47.11368" lon="-1.5807">
        <ele>52</ele>
        <time>2021-09-18T11:52:55.000Z</time>
      </trkpt>
      <trkpt lat="47.11382" lon="-1.58061">
        <ele>52</ele>
        <time>2021-09-18T11:52:57.000Z</time>
      </trkpt>
      <trkpt lat="47.11396" lon="-1.58053">
        <ele>52</ele>
        <time>2021-09-18T11:52:59.000Z</time>
      </trkpt>
      <trkpt lat="47.1141" lon="-1.58043">
        <ele>52</ele>
        <time>2021-09-18T11:53:01.000Z</time>
      </trkpt>
      <trkpt lat="47.11425" lon="-1.58036">
        <ele>52</ele>
        <time>2021-09-18T11:53:03.000Z</time>
      </trkpt>
      <trkpt lat="47.1144" lon="-1.58029">
        <ele>52</ele>
        <time>2021-09-18T11:53:05.000Z</time>
      </trkpt>
      <trkpt lat="47.11455" lon="-1.58024">
        <ele>52</ele>
        <time>2021-09-18T11:53:07.000Z</time>
      </trkpt>
      <trkpt lat="47.11471" lon="-1.58019">
        <ele>52</ele>
        <time>2021-09-18T11:53:09.000Z</time>
      </trkpt>
      <trkpt lat="47.11486" lon="-1.58014">
        <ele>52</ele>
        <time>2021-09-18T11:53:11.000Z</time>
      </trkpt>
      <trkpt lat="47.115" lon="-1.58011">
        <ele>53</ele>
        <time>2021-09-18T11:53:13.000Z</time>
      </trkpt>
      <trkpt lat="47.11515" lon="-1.5801">
        <ele>53</ele>
        <time>2021-09-18T11:53:15.000Z</time>
      </trkpt>
      <trkpt lat="47.1153" lon="-1.58009">
        <ele>53</ele>
        <time>2021-09-18T11:53:17.000Z</time>
      </trkpt>
      <trkpt lat="47.11545" lon="-1.58008">
        <ele>53</ele>
        <time>2021-09-18T11:53:19.000Z</time>
      </trkpt>
      <trkpt lat="47.11559" lon="-1.58009">
        <ele>52</ele>
        <time>2021-09-18T11:53:21.000Z</time>
      </trkpt>
      <trkpt lat="47.11573" lon="-1.58011">
        <ele>52</ele>
        <time>2021-09-18T11:53:23.000Z</time>
      </trkpt>
      <trkpt lat="47.11587" lon="-1.58013">
        <ele>53</ele>
        <time>2021-09-18T11:53:25.000Z</time>
      </trkpt>
      <trkpt lat="47.116" lon="-1.58013">
        <ele>53</ele>
        <time>2021-09-18T11:53:27.000Z</time>
      </trkpt>
      <trkpt lat="47.11613" lon="-1.58011">
        <ele>53</ele>
        <time>2021-09-18T11:53:29.000Z</time>
      </trkpt>
      <trkpt lat="47.11625" lon="-1.58007">
        <ele>53</ele>
        <time>2021-09-18T11:53:31.000Z</time>
      </trkpt>
      <trkpt lat="47.11636" lon="-1.58005">
        <ele>53</ele>
        <time>2021-09-18T11:53:33.000Z</time>
      </trkpt>
      <trkpt lat="47.11646" lon="-1.58014">
        <ele>53</ele>
        <time>2021-09-18T11:53:35.000Z</time>
      </trkpt>
      <trkpt lat="47.11656" lon="-1.58026">
        <ele>53</ele>
        <time>2021-09-18T11:53:37.000Z</time>
      </trkpt>
      <trkpt lat="47.11669" lon="-1.58027">
        <ele>54</ele>
        <time>2021-09-18T11:53:39.000Z</time>
      </trkpt>
      <trkpt lat="47.11683" lon="-1.58028">
        <ele>53</ele>
        <time>2021-09-18T11:53:41.000Z</time>
      </trkpt>
      <trkpt lat="47.11697" lon="-1.58029">
        <ele>53</ele>
        <time>2021-09-18T11:53:43.000Z</time>
      </trkpt>
      <trkpt lat="47.11711" lon="-1.5803">
        <ele>54</ele>
        <time>2021-09-18T11:53:45.000Z</time>
      </trkpt>
      <trkpt lat="47.11725" lon="-1.58032">
        <ele>54</ele>
        <time>2021-09-18T11:53:47.000Z</time>
      </trkpt>
      <trkpt lat="47.11739" lon="-1.58034">
        <ele>54</ele>
        <time>2021-09-18T11:53:49.000Z</time>
      </trkpt>
      <trkpt lat="47.11753" lon="-1.58036">
        <ele>54</ele>
        <time>2021-09-18T11:53:51.000Z</time>
      </trkpt>
      <trkpt lat="47.11766" lon="-1.5804">
        <ele>54</ele>
        <time>2021-09-18T11:53:53.000Z</time>
      </trkpt>
      <trkpt lat="47.1178" lon="-1.58043">
        <ele>54</ele>
        <time>2021-09-18T11:53:55.000Z</time>
      </trkpt>
      <trkpt lat="47.11794" lon="-1.58045">
        <ele>54</ele>
        <time>2021-09-18T11:53:57.000Z</time>
      </trkpt>
      <trkpt lat="47.11808" lon="-1.58048">
        <ele>54</ele>
        <time>2021-09-18T11:53:59.000Z</time>
      </trkpt>
      <trkpt lat="47.11821" lon="-1.58051">
        <ele>55</ele>
        <time>2021-09-18T11:54:01.000Z</time>
      </trkpt>
      <trkpt lat="47.11834" lon="-1.58054">
        <ele>55</ele>
        <time>2021-09-18T11:54:03.000Z</time>
      </trkpt>
      <trkpt lat="47.11848" lon="-1.58058">
        <ele>55</ele>
        <time>2021-09-18T11:54:05.000Z</time>
      </trkpt>
      <trkpt lat="47.11861" lon="-1.58061">
        <ele>56</ele>
        <time>2021-09-18T11:54:07.000Z</time>
      </trkpt>
      <trkpt lat="47.11874" lon="-1.58064">
        <ele>56</ele>
        <time>2021-09-18T11:54:09.000Z</time>
      </trkpt>
      <trkpt lat="47.11887" lon="-1.58067">
        <ele>56</ele>
        <time>2021-09-18T11:54:11.000Z</time>
      </trkpt>
      <trkpt lat="47.11901" lon="-1.5807">
        <ele>57</ele>
        <time>2021-09-18T11:54:13.000Z</time>
      </trkpt>
      <trkpt lat="47.11913" lon="-1.58073">
        <ele>57</ele>
        <time>2021-09-18T11:54:15.000Z</time>
      </trkpt>
      <trkpt lat="47.11926" lon="-1.58076">
        <ele>58</ele>
        <time>2021-09-18T11:54:17.000Z</time>
      </trkpt>
      <trkpt lat="47.11938" lon="-1.5808">
        <ele>58</ele>
        <time>2021-09-18T11:54:19.000Z</time>
      </trkpt>
      <trkpt lat="47.11951" lon="-1.58083">
        <ele>58</ele>
        <time>2021-09-18T11:54:21.000Z</time>
      </trkpt>
      <trkpt lat="47.11963" lon="-1.58086">
        <ele>58</ele>
        <time>2021-09-18T11:54:23.000Z</time>
      </trkpt>
      <trkpt lat="47.11976" lon="-1.5809">
        <ele>58</ele>
        <time>2021-09-18T11:54:25.000Z</time>
      </trkpt>
      <trkpt lat="47.11988" lon="-1.58094">
        <ele>58</ele>
        <time>2021-09-18T11:54:27.000Z</time>
      </trkpt>
      <trkpt lat="47.11999" lon="-1.58098">
        <ele>58</ele>
        <time>2021-09-18T11:54:29.000Z</time>
      </trkpt>
      <trkpt lat="47.1201" lon="-1.58097">
        <ele>58</ele>
        <time>2021-09-18T11:54:31.000Z</time>
      </trkpt>
      <trkpt lat="47.12022" lon="-1.58096">
        <ele>58</ele>
        <time>2021-09-18T11:54:33.000Z</time>
      </trkpt>
      <trkpt lat="47.12032" lon="-1.58108">
        <ele>58</ele>
        <time>2021-09-18T11:54:35.000Z</time>
      </trkpt>
      <trkpt lat="47.12043" lon="-1.58118">
        <ele>58</ele>
        <time>2021-09-18T11:54:37.000Z</time>
      </trkpt>
      <trkpt lat="47.12056" lon="-1.58125">
        <ele>57</ele>
        <time>2021-09-18T11:54:39.000Z</time>
      </trkpt>
      <trkpt lat="47.12069" lon="-1.58133">
        <ele>57</ele>
        <time>2021-09-18T11:54:41.000Z</time>
      </trkpt>
      <trkpt lat="47.12082" lon="-1.58141">
        <ele>56</ele>
        <time>2021-09-18T11:54:43.000Z</time>
      </trkpt>
      <trkpt lat="47.12095" lon="-1.58149">
        <ele>56</ele>
        <time>2021-09-18T11:54:45.000Z</time>
      </trkpt>
      <trkpt lat="47.12108" lon="-1.58158">
        <ele>55</ele>
        <time>2021-09-18T11:54:47.000Z</time>
      </trkpt>
      <trkpt lat="47.12121" lon="-1.58168">
        <ele>55</ele>
        <time>2021-09-18T11:54:49.000Z</time>
      </trkpt>
      <trkpt lat="47.12134" lon="-1.58181">
        <ele>54</ele>
        <time>2021-09-18T11:54:51.000Z</time>
      </trkpt>
      <trkpt lat="47.12147" lon="-1.58193">
        <ele>54</ele>
        <time>2021-09-18T11:54:53.000Z</time>
      </trkpt>
      <trkpt lat="47.12161" lon="-1.58206">
        <ele>53</ele>
        <time>2021-09-18T11:54:55.000Z</time>
      </trkpt>
      <trkpt lat="47.12174" lon="-1.58219">
        <ele>53</ele>
        <time>2021-09-18T11:54:57.000Z</time>
      </trkpt>
      <trkpt lat="47.12187" lon="-1.58233">
        <ele>53</ele>
        <time>2021-09-18T11:54:59.000Z</time>
      </trkpt>
      <trkpt lat="47.122" lon="-1.58245">
        <ele>53</ele>
        <time>2021-09-18T11:55:01.000Z</time>
      </trkpt>
      <trkpt lat="47.12213" lon="-1.58257">
        <ele>53</ele>
        <time>2021-09-18T11:55:03.000Z</time>
      </trkpt>
      <trkpt lat="47.12225" lon="-1.5827">
        <ele>53</ele>
        <time>2021-09-18T11:55:05.000Z</time>
      </trkpt>
      <trkpt lat="47.12238" lon="-1.58281">
        <ele>53</ele>
        <time>2021-09-18T11:55:07.000Z</time>
      </trkpt>
      <trkpt lat="47.12255" lon="-1.58299">
        <ele>52</ele>
        <time>2021-09-18T11:55:10.000Z</time>
      </trkpt>
      <trkpt lat="47.12272" lon="-1.58316">
        <ele>52</ele>
        <time>2021-09-18T11:55:13.000Z</time>
      </trkpt>
      <trkpt lat="47.12288" lon="-1.58331">
        <ele>52</ele>
        <time>2021-09-18T11:55:16.000Z</time>
      </trkpt>
      <trkpt lat="47.12298" lon="-1.58341">
        <ele>53</ele>
        <time>2021-09-18T11:55:18.000Z</time>
      </trkpt>
      <trkpt lat="47.12303" lon="-1.58362">
        <ele>53</ele>
        <time>2021-09-18T11:55:21.000Z</time>
      </trkpt>
      <trkpt lat="47.12304" lon="-1.58386">
        <ele>53</ele>
        <time>2021-09-18T11:55:24.000Z</time>
      </trkpt>
      <trkpt lat="47.1231" lon="-1.58401">
        <ele>54</ele>
        <time>2021-09-18T11:55:26.000Z</time>
      </trkpt>
      <trkpt lat="47.12315" lon="-1.58416">
        <ele>56</ele>
        <time>2021-09-18T11:55:28.000Z</time>
      </trkpt>
      <trkpt lat="47.12323" lon="-1.58428">
        <ele>56</ele>
        <time>2021-09-18T11:55:30.000Z</time>
      </trkpt>
      <trkpt lat="47.12331" lon="-1.58438">
        <ele>56</ele>
        <time>2021-09-18T11:55:32.000Z</time>
      </trkpt>
      <trkpt lat="47.12335" lon="-1.58455">
        <ele>56</ele>
        <time>2021-09-18T11:55:34.000Z</time>
      </trkpt>
      <trkpt lat="47.12339" lon="-1.58473">
        <ele>55</ele>
        <time>2021-09-18T11:55:36.000Z</time>
      </trkpt>
      <trkpt lat="47.12343" lon="-1.5849">
        <ele>55</ele>
        <time>2021-09-18T11:55:38.000Z</time>
      </trkpt>
      <trkpt lat="47.12347" lon="-1.58508">
        <ele>55</ele>
        <time>2021-09-18T11:55:40.000Z</time>
      </trkpt>
      <trkpt lat="47.12352" lon="-1.58524">
        <ele>56</ele>
        <time>2021-09-18T11:55:42.000Z</time>
      </trkpt>
      <trkpt lat="47.12357" lon="-1.58549">
        <ele>56</ele>
        <time>2021-09-18T11:55:45.000Z</time>
      </trkpt>
      <trkpt lat="47.12361" lon="-1.58566">
        <ele>56</ele>
        <time>2021-09-18T11:55:47.000Z</time>
      </trkpt>
      <trkpt lat="47.12365" lon="-1.58582">
        <ele>56</ele>
        <time>2021-09-18T11:55:49.000Z</time>
      </trkpt>
      <trkpt lat="47.12369" lon="-1.58598">
        <ele>57</ele>
        <time>2021-09-18T11:55:51.000Z</time>
      </trkpt>
      <trkpt lat="47.12372" lon="-1.58613">
        <ele>57</ele>
        <time>2021-09-18T11:55:53.000Z</time>
      </trkpt>
      <trkpt lat="47.12375" lon="-1.58629">
        <ele>57</ele>
        <time>2021-09-18T11:55:55.000Z</time>
      </trkpt>
      <trkpt lat="47.12379" lon="-1.58646">
        <ele>58</ele>
        <time>2021-09-18T11:55:57.000Z</time>
      </trkpt>
      <trkpt lat="47.12383" lon="-1.58662">
        <ele>58</ele>
        <time>2021-09-18T11:55:59.000Z</time>
      </trkpt>
      <trkpt lat="47.12386" lon="-1.58677">
        <ele>58</ele>
        <time>2021-09-18T11:56:01.000Z</time>
      </trkpt>
      <trkpt lat="47.12389" lon="-1.58692">
        <ele>59</ele>
        <time>2021-09-18T11:56:03.000Z</time>
      </trkpt>
      <trkpt lat="47.12392" lon="-1.58708">
        <ele>59</ele>
        <time>2021-09-18T11:56:05.000Z</time>
      </trkpt>
      <trkpt lat="47.12396" lon="-1.58723">
        <ele>59</ele>
        <time>2021-09-18T11:56:07.000Z</time>
      </trkpt>
      <trkpt lat="47.124" lon="-1.58739">
        <ele>59</ele>
        <time>2021-09-18T11:56:09.000Z</time>
      </trkpt>
      <trkpt lat="47.12403" lon="-1.58755">
        <ele>59</ele>
        <time>2021-09-18T11:56:11.000Z</time>
      </trkpt>
      <trkpt lat="47.12405" lon="-1.5877">
        <ele>59</ele>
        <time>2021-09-18T11:56:13.000Z</time>
      </trkpt>
      <trkpt lat="47.12408" lon="-1.58786">
        <ele>59</ele>
        <time>2021-09-18T11:56:15.000Z</time>
      </trkpt>
      <trkpt lat="47.12411" lon="-1.58801">
        <ele>59</ele>
        <time>2021-09-18T11:56:17.000Z</time>
      </trkpt>
      <trkpt lat="47.12413" lon="-1.58816">
        <ele>60</ele>
        <time>2021-09-18T11:56:19.000Z</time>
      </trkpt>
      <trkpt lat="47.12414" lon="-1.58831">
        <ele>60</ele>
        <time>2021-09-18T11:56:21.000Z</time>
      </trkpt>
      <trkpt lat="47.12416" lon="-1.58846">
        <ele>59</ele>
        <time>2021-09-18T11:56:23.000Z</time>
      </trkpt>
      <trkpt lat="47.12417" lon="-1.58862">
        <ele>60</ele>
        <time>2021-09-18T11:56:25.000Z</time>
      </trkpt>
      <trkpt lat="47.12419" lon="-1.58878">
        <ele>59</ele>
        <time>2021-09-18T11:56:27.000Z</time>
      </trkpt>
      <trkpt lat="47.12421" lon="-1.58894">
        <ele>59</ele>
        <time>2021-09-18T11:56:29.000Z</time>
      </trkpt>
      <trkpt lat="47.12422" lon="-1.5891">
        <ele>59</ele>
        <time>2021-09-18T11:56:31.000Z</time>
      </trkpt>
      <trkpt lat="47.12424" lon="-1.58927">
        <ele>58</ele>
        <time>2021-09-18T11:56:33.000Z</time>
      </trkpt>
      <trkpt lat="47.12425" lon="-1.58944">
        <ele>58</ele>
        <time>2021-09-18T11:56:35.000Z</time>
      </trkpt>
      <trkpt lat="47.12426" lon="-1.58961">
        <ele>57</ele>
        <time>2021-09-18T11:56:37.000Z</time>
      </trkpt>
      <trkpt lat="47.12427" lon="-1.5898">
        <ele>57</ele>
        <time>2021-09-18T11:56:39.000Z</time>
      </trkpt>
      <trkpt lat="47.12428" lon="-1.58999">
        <ele>57</ele>
        <time>2021-09-18T11:56:41.000Z</time>
      </trkpt>
      <trkpt lat="47.1243" lon="-1.59018">
        <ele>56</ele>
        <time>2021-09-18T11:56:43.000Z</time>
      </trkpt>
      <trkpt lat="47.12431" lon="-1.59039">
        <ele>56</ele>
        <time>2021-09-18T11:56:45.000Z</time>
      </trkpt>
      <trkpt lat="47.12432" lon="-1.59059">
        <ele>55</ele>
        <time>2021-09-18T11:56:47.000Z</time>
      </trkpt>
      <trkpt lat="47.12432" lon="-1.5908">
        <ele>55</ele>
        <time>2021-09-18T11:56:49.000Z</time>
      </trkpt>
      <trkpt lat="47.12433" lon="-1.591">
        <ele>55</ele>
        <time>2021-09-18T11:56:51.000Z</time>
      </trkpt>
      <trkpt lat="47.12434" lon="-1.5912">
        <ele>56</ele>
        <time>2021-09-18T11:56:53.000Z</time>
      </trkpt>
      <trkpt lat="47.12435" lon="-1.59139">
        <ele>56</ele>
        <time>2021-09-18T11:56:55.000Z</time>
      </trkpt>
      <trkpt lat="47.12437" lon="-1.59158">
        <ele>56</ele>
        <time>2021-09-18T11:56:57.000Z</time>
      </trkpt>
      <trkpt lat="47.12441" lon="-1.59176">
        <ele>56</ele>
        <time>2021-09-18T11:56:59.000Z</time>
      </trkpt>
      <trkpt lat="47.12443" lon="-1.59194">
        <ele>56</ele>
        <time>2021-09-18T11:57:01.000Z</time>
      </trkpt>
      <trkpt lat="47.12442" lon="-1.59212">
        <ele>56</ele>
        <time>2021-09-18T11:57:03.000Z</time>
      </trkpt>
      <trkpt lat="47.12441" lon="-1.59231">
        <ele>55</ele>
        <time>2021-09-18T11:57:05.000Z</time>
      </trkpt>
      <trkpt lat="47.12441" lon="-1.5925">
        <ele>55</ele>
        <time>2021-09-18T11:57:07.000Z</time>
      </trkpt>
      <trkpt lat="47.12442" lon="-1.59267">
        <ele>55</ele>
        <time>2021-09-18T11:57:09.000Z</time>
      </trkpt>
      <trkpt lat="47.12442" lon="-1.59284">
        <ele>56</ele>
        <time>2021-09-18T11:57:11.000Z</time>
      </trkpt>
      <trkpt lat="47.12443" lon="-1.59301">
        <ele>56</ele>
        <time>2021-09-18T11:57:13.000Z</time>
      </trkpt>
      <trkpt lat="47.12444" lon="-1.59319">
        <ele>56</ele>
        <time>2021-09-18T11:57:15.000Z</time>
      </trkpt>
      <trkpt lat="47.12445" lon="-1.59336">
        <ele>56</ele>
        <time>2021-09-18T11:57:17.000Z</time>
      </trkpt>
      <trkpt lat="47.12445" lon="-1.59353">
        <ele>56</ele>
        <time>2021-09-18T11:57:19.000Z</time>
      </trkpt>
      <trkpt lat="47.12447" lon="-1.59372">
        <ele>56</ele>
        <time>2021-09-18T11:57:21.000Z</time>
      </trkpt>
      <trkpt lat="47.12447" lon="-1.5939">
        <ele>56</ele>
        <time>2021-09-18T11:57:23.000Z</time>
      </trkpt>
      <trkpt lat="47.12448" lon="-1.59408">
        <ele>56</ele>
        <time>2021-09-18T11:57:25.000Z</time>
      </trkpt>
      <trkpt lat="47.12449" lon="-1.59426">
        <ele>56</ele>
        <time>2021-09-18T11:57:27.000Z</time>
      </trkpt>
      <trkpt lat="47.1245" lon="-1.59443">
        <ele>57</ele>
        <time>2021-09-18T11:57:29.000Z</time>
      </trkpt>
      <trkpt lat="47.12451" lon="-1.59461">
        <ele>57</ele>
        <time>2021-09-18T11:57:31.000Z</time>
      </trkpt>
      <trkpt lat="47.12451" lon="-1.59478">
        <ele>57</ele>
        <time>2021-09-18T11:57:33.000Z</time>
      </trkpt>
      <trkpt lat="47.12452" lon="-1.59495">
        <ele>57</ele>
        <time>2021-09-18T11:57:35.000Z</time>
      </trkpt>
      <trkpt lat="47.12453" lon="-1.59512">
        <ele>57</ele>
        <time>2021-09-18T11:57:37.000Z</time>
      </trkpt>
      <trkpt lat="47.12454" lon="-1.59529">
        <ele>57</ele>
        <time>2021-09-18T11:57:39.000Z</time>
      </trkpt>
      <trkpt lat="47.12455" lon="-1.59547">
        <ele>58</ele>
        <time>2021-09-18T11:57:41.000Z</time>
      </trkpt>
      <trkpt lat="47.12456" lon="-1.59563">
        <ele>58</ele>
        <time>2021-09-18T11:57:43.000Z</time>
      </trkpt>
      <trkpt lat="47.12457" lon="-1.5958">
        <ele>58</ele>
        <time>2021-09-18T11:57:45.000Z</time>
      </trkpt>
      <trkpt lat="47.12457" lon="-1.59597">
        <ele>58</ele>
        <time>2021-09-18T11:57:47.000Z</time>
      </trkpt>
      <trkpt lat="47.12458" lon="-1.59613">
        <ele>58</ele>
        <time>2021-09-18T11:57:49.000Z</time>
      </trkpt>
      <trkpt lat="47.12459" lon="-1.5963">
        <ele>58</ele>
        <time>2021-09-18T11:57:51.000Z</time>
      </trkpt>
      <trkpt lat="47.1246" lon="-1.59647">
        <ele>58</ele>
        <time>2021-09-18T11:57:53.000Z</time>
      </trkpt>
      <trkpt lat="47.12461" lon="-1.59664">
        <ele>58</ele>
        <time>2021-09-18T11:57:55.000Z</time>
      </trkpt>
      <trkpt lat="47.12461" lon="-1.5968">
        <ele>58</ele>
        <time>2021-09-18T11:57:57.000Z</time>
      </trkpt>
      <trkpt lat="47.12462" lon="-1.59697">
        <ele>58</ele>
        <time>2021-09-18T11:57:59.000Z</time>
      </trkpt>
      <trkpt lat="47.12462" lon="-1.59714">
        <ele>58</ele>
        <time>2021-09-18T11:58:01.000Z</time>
      </trkpt>
      <trkpt lat="47.12463" lon="-1.5973">
        <ele>58</ele>
        <time>2021-09-18T11:58:03.000Z</time>
      </trkpt>
      <trkpt lat="47.12464" lon="-1.59747">
        <ele>58</ele>
        <time>2021-09-18T11:58:05.000Z</time>
      </trkpt>
      <trkpt lat="47.12465" lon="-1.59763">
        <ele>58</ele>
        <time>2021-09-18T11:58:07.000Z</time>
      </trkpt>
      <trkpt lat="47.12466" lon="-1.5978">
        <ele>58</ele>
        <time>2021-09-18T11:58:09.000Z</time>
      </trkpt>
      <trkpt lat="47.12467" lon="-1.59797">
        <ele>58</ele>
        <time>2021-09-18T11:58:11.000Z</time>
      </trkpt>
      <trkpt lat="47.12468" lon="-1.59814">
        <ele>58</ele>
        <time>2021-09-18T11:58:13.000Z</time>
      </trkpt>
      <trkpt lat="47.12469" lon="-1.59831">
        <ele>58</ele>
        <time>2021-09-18T11:58:15.000Z</time>
      </trkpt>
      <trkpt lat="47.1247" lon="-1.59848">
        <ele>59</ele>
        <time>2021-09-18T11:58:17.000Z</time>
      </trkpt>
      <trkpt lat="47.1247" lon="-1.59864">
        <ele>59</ele>
        <time>2021-09-18T11:58:19.000Z</time>
      </trkpt>
      <trkpt lat="47.12471" lon="-1.59881">
        <ele>59</ele>
        <time>2021-09-18T11:58:21.000Z</time>
      </trkpt>
      <trkpt lat="47.12471" lon="-1.59898">
        <ele>60</ele>
        <time>2021-09-18T11:58:23.000Z</time>
      </trkpt>
      <trkpt lat="47.12471" lon="-1.59915">
        <ele>60</ele>
        <time>2021-09-18T11:58:25.000Z</time>
      </trkpt>
      <trkpt lat="47.12473" lon="-1.59934">
        <ele>60</ele>
        <time>2021-09-18T11:58:27.000Z</time>
      </trkpt>
      <trkpt lat="47.12474" lon="-1.59954">
        <ele>60</ele>
        <time>2021-09-18T11:58:29.000Z</time>
      </trkpt>
      <trkpt lat="47.12475" lon="-1.59974">
        <ele>59</ele>
        <time>2021-09-18T11:58:31.000Z</time>
      </trkpt>
      <trkpt lat="47.12476" lon="-1.59993">
        <ele>59</ele>
        <time>2021-09-18T11:58:33.000Z</time>
      </trkpt>
      <trkpt lat="47.12477" lon="-1.60012">
        <ele>58</ele>
        <time>2021-09-18T11:58:35.000Z</time>
      </trkpt>
      <trkpt lat="47.12478" lon="-1.60032">
        <ele>58</ele>
        <time>2021-09-18T11:58:37.000Z</time>
      </trkpt>
      <trkpt lat="47.12479" lon="-1.60051">
        <ele>57</ele>
        <time>2021-09-18T11:58:39.000Z</time>
      </trkpt>
      <trkpt lat="47.1248" lon="-1.60071">
        <ele>57</ele>
        <time>2021-09-18T11:58:41.000Z</time>
      </trkpt>
      <trkpt lat="47.12481" lon="-1.60091">
        <ele>57</ele>
        <time>2021-09-18T11:58:43.000Z</time>
      </trkpt>
      <trkpt lat="47.12481" lon="-1.6011">
        <ele>57</ele>
        <time>2021-09-18T11:58:45.000Z</time>
      </trkpt>
      <trkpt lat="47.12482" lon="-1.60131">
        <ele>57</ele>
        <time>2021-09-18T11:58:47.000Z</time>
      </trkpt>
      <trkpt lat="47.12483" lon="-1.6015">
        <ele>56</ele>
        <time>2021-09-18T11:58:49.000Z</time>
      </trkpt>
      <trkpt lat="47.12484" lon="-1.60169">
        <ele>56</ele>
        <time>2021-09-18T11:58:51.000Z</time>
      </trkpt>
      <trkpt lat="47.12486" lon="-1.60189">
        <ele>56</ele>
        <time>2021-09-18T11:58:53.000Z</time>
      </trkpt>
      <trkpt lat="47.12488" lon="-1.60208">
        <ele>55</ele>
        <time>2021-09-18T11:58:55.000Z</time>
      </trkpt>
      <trkpt lat="47.12492" lon="-1.60228">
        <ele>55</ele>
        <time>2021-09-18T11:58:57.000Z</time>
      </trkpt>
      <trkpt lat="47.12495" lon="-1.60246">
        <ele>55</ele>
        <time>2021-09-18T11:58:59.000Z</time>
      </trkpt>
      <trkpt lat="47.12499" lon="-1.60265">
        <ele>55</ele>
        <time>2021-09-18T11:59:01.000Z</time>
      </trkpt>
      <trkpt lat="47.12502" lon="-1.60284">
        <ele>54</ele>
        <time>2021-09-18T11:59:03.000Z</time>
      </trkpt>
      <trkpt lat="47.12506" lon="-1.60303">
        <ele>54</ele>
        <time>2021-09-18T11:59:05.000Z</time>
      </trkpt>
      <trkpt lat="47.12509" lon="-1.60321">
        <ele>55</ele>
        <time>2021-09-18T11:59:07.000Z</time>
      </trkpt>
      <trkpt lat="47.12513" lon="-1.60339">
        <ele>55</ele>
        <time>2021-09-18T11:59:09.000Z</time>
      </trkpt>
      <trkpt lat="47.12516" lon="-1.60356">
        <ele>56</ele>
        <time>2021-09-18T11:59:11.000Z</time>
      </trkpt>
      <trkpt lat="47.1252" lon="-1.60373">
        <ele>56</ele>
        <time>2021-09-18T11:59:13.000Z</time>
      </trkpt>
      <trkpt lat="47.12523" lon="-1.60391">
        <ele>56</ele>
        <time>2021-09-18T11:59:15.000Z</time>
      </trkpt>
      <trkpt lat="47.12527" lon="-1.60408">
        <ele>56</ele>
        <time>2021-09-18T11:59:17.000Z</time>
      </trkpt>
      <trkpt lat="47.1253" lon="-1.60425">
        <ele>56</ele>
        <time>2021-09-18T11:59:19.000Z</time>
      </trkpt>
      <trkpt lat="47.12533" lon="-1.60442">
        <ele>56</ele>
        <time>2021-09-18T11:59:21.000Z</time>
      </trkpt>
      <trkpt lat="47.12535" lon="-1.60459">
        <ele>56</ele>
        <time>2021-09-18T11:59:23.000Z</time>
      </trkpt>
      <trkpt lat="47.12538" lon="-1.60475">
        <ele>56</ele>
        <time>2021-09-18T11:59:25.000Z</time>
      </trkpt>
      <trkpt lat="47.1254" lon="-1.60491">
        <ele>56</ele>
        <time>2021-09-18T11:59:27.000Z</time>
      </trkpt>
      <trkpt lat="47.12542" lon="-1.60507">
        <ele>57</ele>
        <time>2021-09-18T11:59:29.000Z</time>
      </trkpt>
      <trkpt lat="47.12544" lon="-1.60524">
        <ele>57</ele>
        <time>2021-09-18T11:59:31.000Z</time>
      </trkpt>
      <trkpt lat="47.12544" lon="-1.60541">
        <ele>57</ele>
        <time>2021-09-18T11:59:33.000Z</time>
      </trkpt>
      <trkpt lat="47.12545" lon="-1.60558">
        <ele>58</ele>
        <time>2021-09-18T11:59:35.000Z</time>
      </trkpt>
      <trkpt lat="47.12545" lon="-1.60575">
        <ele>58</ele>
        <time>2021-09-18T11:59:37.000Z</time>
      </trkpt>
      <trkpt lat="47.12546" lon="-1.60592">
        <ele>57</ele>
        <time>2021-09-18T11:59:39.000Z</time>
      </trkpt>
      <trkpt lat="47.12546" lon="-1.60609">
        <ele>57</ele>
        <time>2021-09-18T11:59:41.000Z</time>
      </trkpt>
      <trkpt lat="47.12547" lon="-1.60626">
        <ele>57</ele>
        <time>2021-09-18T11:59:43.000Z</time>
      </trkpt>
      <trkpt lat="47.12547" lon="-1.60643">
        <ele>58</ele>
        <time>2021-09-18T11:59:45.000Z</time>
      </trkpt>
      <trkpt lat="47.12548" lon="-1.6066">
        <ele>58</ele>
        <time>2021-09-18T11:59:47.000Z</time>
      </trkpt>
      <trkpt lat="47.12547" lon="-1.60676">
        <ele>58</ele>
        <time>2021-09-18T11:59:49.000Z</time>
      </trkpt>
      <trkpt lat="47.12548" lon="-1.60692">
        <ele>58</ele>
        <time>2021-09-18T11:59:51.000Z</time>
      </trkpt>
      <trkpt lat="47.12548" lon="-1.60709">
        <ele>58</ele>
        <time>2021-09-18T11:59:53.000Z</time>
      </trkpt>
      <trkpt lat="47.12548" lon="-1.60726">
        <ele>59</ele>
        <time>2021-09-18T11:59:55.000Z</time>
      </trkpt>
      <trkpt lat="47.12547" lon="-1.60743">
        <ele>59</ele>
        <time>2021-09-18T11:59:57.000Z</time>
      </trkpt>
      <trkpt lat="47.12546" lon="-1.6076">
        <ele>59</ele>
        <time>2021-09-18T11:59:59.000Z</time>
      </trkpt>
      <trkpt lat="47.12545" lon="-1.60777">
        <ele>59</ele>
        <time>2021-09-18T12:00:01.000Z</time>
      </trkpt>
      <trkpt lat="47.12544" lon="-1.60793">
        <ele>59</ele>
        <time>2021-09-18T12:00:03.000Z</time>
      </trkpt>
      <trkpt lat="47.12542" lon="-1.60809">
        <ele>59</ele>
        <time>2021-09-18T12:00:05.000Z</time>
      </trkpt>
      <trkpt lat="47.12541" lon="-1.60826">
        <ele>59</ele>
        <time>2021-09-18T12:00:07.000Z</time>
      </trkpt>
      <trkpt lat="47.12541" lon="-1.60841">
        <ele>59</ele>
        <time>2021-09-18T12:00:09.000Z</time>
      </trkpt>
      <trkpt lat="47.12549" lon="-1.60847">
        <ele>59</ele>
        <time>2021-09-18T12:00:11.000Z</time>
      </trkpt>
      <trkpt lat="47.1256" lon="-1.60844">
        <ele>58</ele>
        <time>2021-09-18T12:00:13.000Z</time>
      </trkpt>
      <trkpt lat="47.12571" lon="-1.60841">
        <ele>58</ele>
        <time>2021-09-18T12:00:15.000Z</time>
      </trkpt>
      <trkpt lat="47.12583" lon="-1.60835">
        <ele>58</ele>
        <time>2021-09-18T12:00:17.000Z</time>
      </trkpt>
      <trkpt lat="47.12594" lon="-1.60831">
        <ele>58</ele>
        <time>2021-09-18T12:00:19.000Z</time>
      </trkpt>
      <trkpt lat="47.12606" lon="-1.60826">
        <ele>58</ele>
        <time>2021-09-18T12:00:21.000Z</time>
      </trkpt>
      <trkpt lat="47.12618" lon="-1.60821">
        <ele>57</ele>
        <time>2021-09-18T12:00:23.000Z</time>
      </trkpt>
      <trkpt lat="47.12631" lon="-1.60817">
        <ele>57</ele>
        <time>2021-09-18T12:00:25.000Z</time>
      </trkpt>
      <trkpt lat="47.12643" lon="-1.60813">
        <ele>57</ele>
        <time>2021-09-18T12:00:27.000Z</time>
      </trkpt>
      <trkpt lat="47.12655" lon="-1.6081">
        <ele>57</ele>
        <time>2021-09-18T12:00:29.000Z</time>
      </trkpt>
      <trkpt lat="47.12668" lon="-1.60806">
        <ele>57</ele>
        <time>2021-09-18T12:00:31.000Z</time>
      </trkpt>
      <trkpt lat="47.1268" lon="-1.60803">
        <ele>58</ele>
        <time>2021-09-18T12:00:33.000Z</time>
      </trkpt>
      <trkpt lat="47.12692" lon="-1.60798">
        <ele>57</ele>
        <time>2021-09-18T12:00:35.000Z</time>
      </trkpt>
      <trkpt lat="47.12703" lon="-1.60792">
        <ele>58</ele>
        <time>2021-09-18T12:00:37.000Z</time>
      </trkpt>
      <trkpt lat="47.12715" lon="-1.60788">
        <ele>57</ele>
        <time>2021-09-18T12:00:39.000Z</time>
      </trkpt>
      <trkpt lat="47.12725" lon="-1.6079">
        <ele>58</ele>
        <time>2021-09-18T12:00:41.000Z</time>
      </trkpt>
      <trkpt lat="47.12727" lon="-1.60805">
        <ele>57</ele>
        <time>2021-09-18T12:00:43.000Z</time>
      </trkpt>
      <trkpt lat="47.12722" lon="-1.60822">
        <ele>57</ele>
        <time>2021-09-18T12:00:45.000Z</time>
      </trkpt>
      <trkpt lat="47.12717" lon="-1.60839">
        <ele>58</ele>
        <time>2021-09-18T12:00:47.000Z</time>
      </trkpt>
      <trkpt lat="47.12711" lon="-1.60857">
        <ele>58</ele>
        <time>2021-09-18T12:00:49.000Z</time>
      </trkpt>
      <trkpt lat="47.12707" lon="-1.60873">
        <ele>59</ele>
        <time>2021-09-18T12:00:51.000Z</time>
      </trkpt>
      <trkpt lat="47.12703" lon="-1.6089">
        <ele>60</ele>
        <time>2021-09-18T12:00:53.000Z</time>
      </trkpt>
      <trkpt lat="47.127" lon="-1.60907">
        <ele>60</ele>
        <time>2021-09-18T12:00:55.000Z</time>
      </trkpt>
      <trkpt lat="47.12698" lon="-1.60924">
        <ele>61</ele>
        <time>2021-09-18T12:00:57.000Z</time>
      </trkpt>
      <trkpt lat="47.12697" lon="-1.60941">
        <ele>61</ele>
        <time>2021-09-18T12:00:59.000Z</time>
      </trkpt>
      <trkpt lat="47.12696" lon="-1.60959">
        <ele>61</ele>
        <time>2021-09-18T12:01:01.000Z</time>
      </trkpt>
      <trkpt lat="47.12695" lon="-1.60976">
        <ele>61</ele>
        <time>2021-09-18T12:01:03.000Z</time>
      </trkpt>
      <trkpt lat="47.12695" lon="-1.60993">
        <ele>62</ele>
        <time>2021-09-18T12:01:05.000Z</time>
      </trkpt>
      <trkpt lat="47.12694" lon="-1.6101">
        <ele>62</ele>
        <time>2021-09-18T12:01:07.000Z</time>
      </trkpt>
      <trkpt lat="47.12693" lon="-1.61026">
        <ele>62</ele>
        <time>2021-09-18T12:01:09.000Z</time>
      </trkpt>
      <trkpt lat="47.12692" lon="-1.61042">
        <ele>62</ele>
        <time>2021-09-18T12:01:11.000Z</time>
      </trkpt>
      <trkpt lat="47.12691" lon="-1.61058">
        <ele>62</ele>
        <time>2021-09-18T12:01:13.000Z</time>
      </trkpt>
      <trkpt lat="47.1269" lon="-1.61075">
        <ele>62</ele>
        <time>2021-09-18T12:01:15.000Z</time>
      </trkpt>
      <trkpt lat="47.12689" lon="-1.61091">
        <ele>63</ele>
        <time>2021-09-18T12:01:17.000Z</time>
      </trkpt>
      <trkpt lat="47.12688" lon="-1.61108">
        <ele>63</ele>
        <time>2021-09-18T12:01:19.000Z</time>
      </trkpt>
      <trkpt lat="47.12686" lon="-1.61125">
        <ele>62</ele>
        <time>2021-09-18T12:01:21.000Z</time>
      </trkpt>
      <trkpt lat="47.12684" lon="-1.61143">
        <ele>62</ele>
        <time>2021-09-18T12:01:23.000Z</time>
      </trkpt>
      <trkpt lat="47.12682" lon="-1.61159">
        <ele>62</ele>
        <time>2021-09-18T12:01:25.000Z</time>
      </trkpt>
      <trkpt lat="47.1268" lon="-1.61176">
        <ele>63</ele>
        <time>2021-09-18T12:01:27.000Z</time>
      </trkpt>
      <trkpt lat="47.12677" lon="-1.61193">
        <ele>63</ele>
        <time>2021-09-18T12:01:29.000Z</time>
      </trkpt>
      <trkpt lat="47.12675" lon="-1.6121">
        <ele>63</ele>
        <time>2021-09-18T12:01:31.000Z</time>
      </trkpt>
      <trkpt lat="47.12672" lon="-1.61227">
        <ele>63</ele>
        <time>2021-09-18T12:01:33.000Z</time>
      </trkpt>
      <trkpt lat="47.12672" lon="-1.61244">
        <ele>63</ele>
        <time>2021-09-18T12:01:35.000Z</time>
      </trkpt>
      <trkpt lat="47.12673" lon="-1.61261">
        <ele>62</ele>
        <time>2021-09-18T12:01:37.000Z</time>
      </trkpt>
      <trkpt lat="47.12677" lon="-1.61278">
        <ele>62</ele>
        <time>2021-09-18T12:01:39.000Z</time>
      </trkpt>
      <trkpt lat="47.12682" lon="-1.61295">
        <ele>62</ele>
        <time>2021-09-18T12:01:41.000Z</time>
      </trkpt>
      <trkpt lat="47.12686" lon="-1.61311">
        <ele>62</ele>
        <time>2021-09-18T12:01:43.000Z</time>
      </trkpt>
      <trkpt lat="47.12691" lon="-1.61328">
        <ele>61</ele>
        <time>2021-09-18T12:01:45.000Z</time>
      </trkpt>
      <trkpt lat="47.12696" lon="-1.61344">
        <ele>62</ele>
        <time>2021-09-18T12:01:47.000Z</time>
      </trkpt>
      <trkpt lat="47.12702" lon="-1.6136">
        <ele>62</ele>
        <time>2021-09-18T12:01:49.000Z</time>
      </trkpt>
      <trkpt lat="47.12708" lon="-1.61376">
        <ele>62</ele>
        <time>2021-09-18T12:01:51.000Z</time>
      </trkpt>
      <trkpt lat="47.12714" lon="-1.61391">
        <ele>62</ele>
        <time>2021-09-18T12:01:53.000Z</time>
      </trkpt>
      <trkpt lat="47.12721" lon="-1.61407">
        <ele>62</ele>
        <time>2021-09-18T12:01:55.000Z</time>
      </trkpt>
      <trkpt lat="47.12728" lon="-1.61423">
        <ele>62</ele>
        <time>2021-09-18T12:01:57.000Z</time>
      </trkpt>
      <trkpt lat="47.12735" lon="-1.61438">
        <ele>63</ele>
        <time>2021-09-18T12:01:59.000Z</time>
      </trkpt>
      <trkpt lat="47.12742" lon="-1.61455">
        <ele>63</ele>
        <time>2021-09-18T12:02:01.000Z</time>
      </trkpt>
      <trkpt lat="47.1275" lon="-1.6147">
        <ele>63</ele>
        <time>2021-09-18T12:02:03.000Z</time>
      </trkpt>
      <trkpt lat="47.12757" lon="-1.61486">
        <ele>63</ele>
        <time>2021-09-18T12:02:05.000Z</time>
      </trkpt>
      <trkpt lat="47.12764" lon="-1.61502">
        <ele>62</ele>
        <time>2021-09-18T12:02:07.000Z</time>
      </trkpt>
      <trkpt lat="47.12771" lon="-1.61519">
        <ele>62</ele>
        <time>2021-09-18T12:02:09.000Z</time>
      </trkpt>
      <trkpt lat="47.12777" lon="-1.61536">
        <ele>61</ele>
        <time>2021-09-18T12:02:11.000Z</time>
      </trkpt>
      <trkpt lat="47.12784" lon="-1.61553">
        <ele>60</ele>
        <time>2021-09-18T12:02:13.000Z</time>
      </trkpt>
      <trkpt lat="47.1279" lon="-1.61569">
        <ele>60</ele>
        <time>2021-09-18T12:02:15.000Z</time>
      </trkpt>
      <trkpt lat="47.12795" lon="-1.61584">
        <ele>59</ele>
        <time>2021-09-18T12:02:17.000Z</time>
      </trkpt>
      <trkpt lat="47.12801" lon="-1.616">
        <ele>59</ele>
        <time>2021-09-18T12:02:19.000Z</time>
      </trkpt>
      <trkpt lat="47.12806" lon="-1.61616">
        <ele>59</ele>
        <time>2021-09-18T12:02:21.000Z</time>
      </trkpt>
      <trkpt lat="47.12811" lon="-1.61631">
        <ele>59</ele>
        <time>2021-09-18T12:02:23.000Z</time>
      </trkpt>
      <trkpt lat="47.12817" lon="-1.61645">
        <ele>59</ele>
        <time>2021-09-18T12:02:26.000Z</time>
      </trkpt>
      <trkpt lat="47.12824" lon="-1.6166">
        <ele>59</ele>
        <time>2021-09-18T12:02:30.000Z</time>
      </trkpt>
      <trkpt lat="47.1283" lon="-1.61674">
        <ele>59</ele>
        <time>2021-09-18T12:02:32.000Z</time>
      </trkpt>
      <trkpt lat="47.12837" lon="-1.61689">
        <ele>59</ele>
        <time>2021-09-18T12:02:34.000Z</time>
      </trkpt>
      <trkpt lat="47.12844" lon="-1.61705">
        <ele>59</ele>
        <time>2021-09-18T12:02:36.000Z</time>
      </trkpt>
      <trkpt lat="47.12851" lon="-1.61721">
        <ele>59</ele>
        <time>2021-09-18T12:02:38.000Z</time>
      </trkpt>
      <trkpt lat="47.12858" lon="-1.61736">
        <ele>59</ele>
        <time>2021-09-18T12:02:40.000Z</time>
      </trkpt>
      <trkpt lat="47.12866" lon="-1.61752">
        <ele>59</ele>
        <time>2021-09-18T12:02:42.000Z</time>
      </trkpt>
      <trkpt lat="47.12874" lon="-1.61769">
        <ele>58</ele>
        <time>2021-09-18T12:02:44.000Z</time>
      </trkpt>
      <trkpt lat="47.12881" lon="-1.61788">
        <ele>58</ele>
        <time>2021-09-18T12:02:46.000Z</time>
      </trkpt>
      <trkpt lat="47.12888" lon="-1.61806">
        <ele>57</ele>
        <time>2021-09-18T12:02:48.000Z</time>
      </trkpt>
      <trkpt lat="47.12894" lon="-1.61824">
        <ele>57</ele>
        <time>2021-09-18T12:02:50.000Z</time>
      </trkpt>
      <trkpt lat="47.129" lon="-1.61844">
        <ele>56</ele>
        <time>2021-09-18T12:02:52.000Z</time>
      </trkpt>
      <trkpt lat="47.12906" lon="-1.61863">
        <ele>56</ele>
        <time>2021-09-18T12:02:54.000Z</time>
      </trkpt>
      <trkpt lat="47.1291" lon="-1.61881">
        <ele>57</ele>
        <time>2021-09-18T12:02:56.000Z</time>
      </trkpt>
      <trkpt lat="47.12914" lon="-1.61901">
        <ele>57</ele>
        <time>2021-09-18T12:02:58.000Z</time>
      </trkpt>
      <trkpt lat="47.12916" lon="-1.6192">
        <ele>57</ele>
        <time>2021-09-18T12:03:00.000Z</time>
      </trkpt>
      <trkpt lat="47.12918" lon="-1.6194">
        <ele>58</ele>
        <time>2021-09-18T12:03:02.000Z</time>
      </trkpt>
      <trkpt lat="47.1292" lon="-1.61956">
        <ele>58</ele>
        <time>2021-09-18T12:03:04.000Z</time>
      </trkpt>
      <trkpt lat="47.12925" lon="-1.61973">
        <ele>59</ele>
        <time>2021-09-18T12:03:06.000Z</time>
      </trkpt>
      <trkpt lat="47.12929" lon="-1.6199">
        <ele>60</ele>
        <time>2021-09-18T12:03:08.000Z</time>
      </trkpt>
      <trkpt lat="47.12934" lon="-1.62007">
        <ele>60</ele>
        <time>2021-09-18T12:03:10.000Z</time>
      </trkpt>
      <trkpt lat="47.1294" lon="-1.62022">
        <ele>59</ele>
        <time>2021-09-18T12:03:12.000Z</time>
      </trkpt>
      <trkpt lat="47.12945" lon="-1.62041">
        <ele>59</ele>
        <time>2021-09-18T12:03:14.000Z</time>
      </trkpt>
      <trkpt lat="47.12952" lon="-1.62058">
        <ele>59</ele>
        <time>2021-09-18T12:03:16.000Z</time>
      </trkpt>
      <trkpt lat="47.12959" lon="-1.62072">
        <ele>59</ele>
        <time>2021-09-18T12:03:18.000Z</time>
      </trkpt>
      <trkpt lat="47.12966" lon="-1.62087">
        <ele>60</ele>
        <time>2021-09-18T12:03:20.000Z</time>
      </trkpt>
      <trkpt lat="47.12973" lon="-1.621">
        <ele>60</ele>
        <time>2021-09-18T12:03:22.000Z</time>
      </trkpt>
      <trkpt lat="47.1298" lon="-1.62114">
        <ele>60</ele>
        <time>2021-09-18T12:03:24.000Z</time>
      </trkpt>
      <trkpt lat="47.12989" lon="-1.62128">
        <ele>60</ele>
        <time>2021-09-18T12:03:26.000Z</time>
      </trkpt>
      <trkpt lat="47.12997" lon="-1.62141">
        <ele>60</ele>
        <time>2021-09-18T12:03:28.000Z</time>
      </trkpt>
      <trkpt lat="47.13005" lon="-1.62155">
        <ele>60</ele>
        <time>2021-09-18T12:03:30.000Z</time>
      </trkpt>
      <trkpt lat="47.13013" lon="-1.62169">
        <ele>60</ele>
        <time>2021-09-18T12:03:32.000Z</time>
      </trkpt>
      <trkpt lat="47.13021" lon="-1.62181">
        <ele>60</ele>
        <time>2021-09-18T12:03:34.000Z</time>
      </trkpt>
      <trkpt lat="47.13029" lon="-1.62194">
        <ele>60</ele>
        <time>2021-09-18T12:03:36.000Z</time>
      </trkpt>
      <trkpt lat="47.13038" lon="-1.62207">
        <ele>61</ele>
        <time>2021-09-18T12:03:38.000Z</time>
      </trkpt>
      <trkpt lat="47.13046" lon="-1.62219">
        <ele>60</ele>
        <time>2021-09-18T12:03:40.000Z</time>
      </trkpt>
      <trkpt lat="47.13054" lon="-1.62232">
        <ele>60</ele>
        <time>2021-09-18T12:03:42.000Z</time>
      </trkpt>
      <trkpt lat="47.13063" lon="-1.62245">
        <ele>60</ele>
        <time>2021-09-18T12:03:44.000Z</time>
      </trkpt>
      <trkpt lat="47.13071" lon="-1.62257">
        <ele>60</ele>
        <time>2021-09-18T12:03:46.000Z</time>
      </trkpt>
      <trkpt lat="47.1308" lon="-1.6227">
        <ele>60</ele>
        <time>2021-09-18T12:03:48.000Z</time>
      </trkpt>
      <trkpt lat="47.13088" lon="-1.62283">
        <ele>60</ele>
        <time>2021-09-18T12:03:50.000Z</time>
      </trkpt>
      <trkpt lat="47.13096" lon="-1.62294">
        <ele>60</ele>
        <time>2021-09-18T12:03:52.000Z</time>
      </trkpt>
      <trkpt lat="47.13104" lon="-1.62302">
        <ele>60</ele>
        <time>2021-09-18T12:03:54.000Z</time>
      </trkpt>
      <trkpt lat="47.13114" lon="-1.62296">
        <ele>60</ele>
        <time>2021-09-18T12:03:56.000Z</time>
      </trkpt>
      <trkpt lat="47.13119" lon="-1.62281">
        <ele>60</ele>
        <time>2021-09-18T12:03:58.000Z</time>
      </trkpt>
      <trkpt lat="47.13125" lon="-1.62264">
        <ele>59</ele>
        <time>2021-09-18T12:04:00.000Z</time>
      </trkpt>
      <trkpt lat="47.13132" lon="-1.62249">
        <ele>58</ele>
        <time>2021-09-18T12:04:02.000Z</time>
      </trkpt>
      <trkpt lat="47.13139" lon="-1.62234">
        <ele>58</ele>
        <time>2021-09-18T12:04:04.000Z</time>
      </trkpt>
      <trkpt lat="47.13146" lon="-1.6222">
        <ele>59</ele>
        <time>2021-09-18T12:04:06.000Z</time>
      </trkpt>
      <trkpt lat="47.13153" lon="-1.62205">
        <ele>59</ele>
        <time>2021-09-18T12:04:08.000Z</time>
      </trkpt>
      <trkpt lat="47.13159" lon="-1.62191">
        <ele>59</ele>
        <time>2021-09-18T12:04:10.000Z</time>
      </trkpt>
      <trkpt lat="47.13166" lon="-1.62177">
        <ele>59</ele>
        <time>2021-09-18T12:04:12.000Z</time>
      </trkpt>
      <trkpt lat="47.13173" lon="-1.62163">
        <ele>60</ele>
        <time>2021-09-18T12:04:14.000Z</time>
      </trkpt>
      <trkpt lat="47.1318" lon="-1.62149">
        <ele>60</ele>
        <time>2021-09-18T12:04:16.000Z</time>
      </trkpt>
      <trkpt lat="47.13188" lon="-1.62135">
        <ele>61</ele>
        <time>2021-09-18T12:04:18.000Z</time>
      </trkpt>
      <trkpt lat="47.13196" lon="-1.62122">
        <ele>61</ele>
        <time>2021-09-18T12:04:20.000Z</time>
      </trkpt>
      <trkpt lat="47.13204" lon="-1.62108">
        <ele>61</ele>
        <time>2021-09-18T12:04:22.000Z</time>
      </trkpt>
      <trkpt lat="47.13211" lon="-1.62094">
        <ele>61</ele>
        <time>2021-09-18T12:04:24.000Z</time>
      </trkpt>
      <trkpt lat="47.1322" lon="-1.6208">
        <ele>61</ele>
        <time>2021-09-18T12:04:26.000Z</time>
      </trkpt>
      <trkpt lat="47.13229" lon="-1.62066">
        <ele>61</ele>
        <time>2021-09-18T12:04:28.000Z</time>
      </trkpt>
      <trkpt lat="47.13237" lon="-1.62053">
        <ele>61</ele>
        <time>2021-09-18T12:04:30.000Z</time>
      </trkpt>
      <trkpt lat="47.13246" lon="-1.62041">
        <ele>61</ele>
        <time>2021-09-18T12:04:32.000Z</time>
      </trkpt>
      <trkpt lat="47.13255" lon="-1.62029">
        <ele>61</ele>
        <time>2021-09-18T12:04:34.000Z</time>
      </trkpt>
      <trkpt lat="47.13265" lon="-1.62018">
        <ele>61</ele>
        <time>2021-09-18T12:04:36.000Z</time>
      </trkpt>
      <trkpt lat="47.13275" lon="-1.62008">
        <ele>61</ele>
        <time>2021-09-18T12:04:38.000Z</time>
      </trkpt>
      <trkpt lat="47.13286" lon="-1.61999">
        <ele>62</ele>
        <time>2021-09-18T12:04:40.000Z</time>
      </trkpt>
      <trkpt lat="47.13298" lon="-1.61991">
        <ele>62</ele>
        <time>2021-09-18T12:04:42.000Z</time>
      </trkpt>
      <trkpt lat="47.13309" lon="-1.61984">
        <ele>62</ele>
        <time>2021-09-18T12:04:44.000Z</time>
      </trkpt>
      <trkpt lat="47.1332" lon="-1.61975">
        <ele>62</ele>
        <time>2021-09-18T12:04:46.000Z</time>
      </trkpt>
      <trkpt lat="47.13331" lon="-1.61967">
        <ele>62</ele>
        <time>2021-09-18T12:04:48.000Z</time>
      </trkpt>
      <trkpt lat="47.13342" lon="-1.61959">
        <ele>62</ele>
        <time>2021-09-18T12:04:50.000Z</time>
      </trkpt>
      <trkpt lat="47.13353" lon="-1.6195">
        <ele>62</ele>
        <time>2021-09-18T12:04:52.000Z</time>
      </trkpt>
      <trkpt lat="47.13363" lon="-1.61942">
        <ele>62</ele>
        <time>2021-09-18T12:04:54.000Z</time>
      </trkpt>
      <trkpt lat="47.13374" lon="-1.61933">
        <ele>62</ele>
        <time>2021-09-18T12:04:56.000Z</time>
      </trkpt>
      <trkpt lat="47.13385" lon="-1.61924">
        <ele>62</ele>
        <time>2021-09-18T12:04:58.000Z</time>
      </trkpt>
      <trkpt lat="47.13396" lon="-1.61916">
        <ele>62</ele>
        <time>2021-09-18T12:05:00.000Z</time>
      </trkpt>
      <trkpt lat="47.13407" lon="-1.61908">
        <ele>62</ele>
        <time>2021-09-18T12:05:02.000Z</time>
      </trkpt>
      <trkpt lat="47.13418" lon="-1.619">
        <ele>62</ele>
        <time>2021-09-18T12:05:04.000Z</time>
      </trkpt>
      <trkpt lat="47.13428" lon="-1.61891">
        <ele>62</ele>
        <time>2021-09-18T12:05:06.000Z</time>
      </trkpt>
      <trkpt lat="47.13439" lon="-1.61883">
        <ele>62</ele>
        <time>2021-09-18T12:05:08.000Z</time>
      </trkpt>
      <trkpt lat="47.1345" lon="-1.61874">
        <ele>62</ele>
        <time>2021-09-18T12:05:10.000Z</time>
      </trkpt>
      <trkpt lat="47.13461" lon="-1.61866">
        <ele>62</ele>
        <time>2021-09-18T12:05:12.000Z</time>
      </trkpt>
      <trkpt lat="47.13472" lon="-1.61858">
        <ele>63</ele>
        <time>2021-09-18T12:05:14.000Z</time>
      </trkpt>
      <trkpt lat="47.13483" lon="-1.6185">
        <ele>63</ele>
        <time>2021-09-18T12:05:16.000Z</time>
      </trkpt>
      <trkpt lat="47.13496" lon="-1.61843">
        <ele>63</ele>
        <time>2021-09-18T12:05:18.000Z</time>
      </trkpt>
      <trkpt lat="47.13509" lon="-1.61837">
        <ele>62</ele>
        <time>2021-09-18T12:05:20.000Z</time>
      </trkpt>
      <trkpt lat="47.13521" lon="-1.61832">
        <ele>62</ele>
        <time>2021-09-18T12:05:22.000Z</time>
      </trkpt>
      <trkpt lat="47.13533" lon="-1.61826">
        <ele>62</ele>
        <time>2021-09-18T12:05:24.000Z</time>
      </trkpt>
      <trkpt lat="47.13545" lon="-1.61822">
        <ele>61</ele>
        <time>2021-09-18T12:05:26.000Z</time>
      </trkpt>
      <trkpt lat="47.13557" lon="-1.61817">
        <ele>61</ele>
        <time>2021-09-18T12:05:28.000Z</time>
      </trkpt>
      <trkpt lat="47.13569" lon="-1.61809">
        <ele>61</ele>
        <time>2021-09-18T12:05:30.000Z</time>
      </trkpt>
      <trkpt lat="47.1358" lon="-1.61804">
        <ele>61</ele>
        <time>2021-09-18T12:05:32.000Z</time>
      </trkpt>
      <trkpt lat="47.13593" lon="-1.61802">
        <ele>61</ele>
        <time>2021-09-18T12:05:34.000Z</time>
      </trkpt>
      <trkpt lat="47.13605" lon="-1.61797">
        <ele>61</ele>
        <time>2021-09-18T12:05:36.000Z</time>
      </trkpt>
      <trkpt lat="47.13617" lon="-1.61793">
        <ele>62</ele>
        <time>2021-09-18T12:05:38.000Z</time>
      </trkpt>
      <trkpt lat="47.1363" lon="-1.61788">
        <ele>62</ele>
        <time>2021-09-18T12:05:40.000Z</time>
      </trkpt>
      <trkpt lat="47.13642" lon="-1.61782">
        <ele>62</ele>
        <time>2021-09-18T12:05:42.000Z</time>
      </trkpt>
      <trkpt lat="47.13655" lon="-1.61777">
        <ele>63</ele>
        <time>2021-09-18T12:05:44.000Z</time>
      </trkpt>
      <trkpt lat="47.13667" lon="-1.6177">
        <ele>62</ele>
        <time>2021-09-18T12:05:46.000Z</time>
      </trkpt>
      <trkpt lat="47.13679" lon="-1.61764">
        <ele>62</ele>
        <time>2021-09-18T12:05:48.000Z</time>
      </trkpt>
      <trkpt lat="47.1369" lon="-1.61756">
        <ele>62</ele>
        <time>2021-09-18T12:05:50.000Z</time>
      </trkpt>
      <trkpt lat="47.13701" lon="-1.61748">
        <ele>62</ele>
        <time>2021-09-18T12:05:52.000Z</time>
      </trkpt>
      <trkpt lat="47.13711" lon="-1.6174">
        <ele>62</ele>
        <time>2021-09-18T12:05:54.000Z</time>
      </trkpt>
      <trkpt lat="47.13721" lon="-1.61732">
        <ele>62</ele>
        <time>2021-09-18T12:05:56.000Z</time>
      </trkpt>
      <trkpt lat="47.13732" lon="-1.61726">
        <ele>62</ele>
        <time>2021-09-18T12:05:58.000Z</time>
      </trkpt>
      <trkpt lat="47.13742" lon="-1.61731">
        <ele>62</ele>
        <time>2021-09-18T12:06:00.000Z</time>
      </trkpt>
      <trkpt lat="47.13743" lon="-1.61745">
        <ele>62</ele>
        <time>2021-09-18T12:06:02.000Z</time>
      </trkpt>
      <trkpt lat="47.13739" lon="-1.61761">
        <ele>63</ele>
        <time>2021-09-18T12:06:04.000Z</time>
      </trkpt>
      <trkpt lat="47.13736" lon="-1.61778">
        <ele>63</ele>
        <time>2021-09-18T12:06:06.000Z</time>
      </trkpt>
      <trkpt lat="47.13732" lon="-1.61795">
        <ele>63</ele>
        <time>2021-09-18T12:06:08.000Z</time>
      </trkpt>
      <trkpt lat="47.13729" lon="-1.61811">
        <ele>62</ele>
        <time>2021-09-18T12:06:10.000Z</time>
      </trkpt>
      <trkpt lat="47.13727" lon="-1.61829">
        <ele>63</ele>
        <time>2021-09-18T12:06:12.000Z</time>
      </trkpt>
      <trkpt lat="47.13725" lon="-1.61846">
        <ele>63</ele>
        <time>2021-09-18T12:06:14.000Z</time>
      </trkpt>
      <trkpt lat="47.13724" lon="-1.61863">
        <ele>63</ele>
        <time>2021-09-18T12:06:16.000Z</time>
      </trkpt>
      <trkpt lat="47.13724" lon="-1.6188">
        <ele>63</ele>
        <time>2021-09-18T12:06:18.000Z</time>
      </trkpt>
      <trkpt lat="47.13723" lon="-1.61897">
        <ele>64</ele>
        <time>2021-09-18T12:06:20.000Z</time>
      </trkpt>
      <trkpt lat="47.13723" lon="-1.61914">
        <ele>65</ele>
        <time>2021-09-18T12:06:22.000Z</time>
      </trkpt>
      <trkpt lat="47.13723" lon="-1.61931">
        <ele>65</ele>
        <time>2021-09-18T12:06:24.000Z</time>
      </trkpt>
      <trkpt lat="47.13725" lon="-1.61949">
        <ele>65</ele>
        <time>2021-09-18T12:06:26.000Z</time>
      </trkpt>
      <trkpt lat="47.13727" lon="-1.61967">
        <ele>65</ele>
        <time>2021-09-18T12:06:28.000Z</time>
      </trkpt>
      <trkpt lat="47.1373" lon="-1.61983">
        <ele>65</ele>
        <time>2021-09-18T12:06:30.000Z</time>
      </trkpt>
      <trkpt lat="47.13732" lon="-1.62">
        <ele>65</ele>
        <time>2021-09-18T12:06:32.000Z</time>
      </trkpt>
      <trkpt lat="47.13735" lon="-1.62017">
        <ele>66</ele>
        <time>2021-09-18T12:06:34.000Z</time>
      </trkpt>
      <trkpt lat="47.13737" lon="-1.62033">
        <ele>67</ele>
        <time>2021-09-18T12:06:36.000Z</time>
      </trkpt>
      <trkpt lat="47.13739" lon="-1.62049">
        <ele>67</ele>
        <time>2021-09-18T12:06:38.000Z</time>
      </trkpt>
      <trkpt lat="47.13741" lon="-1.62067">
        <ele>67</ele>
        <time>2021-09-18T12:06:40.000Z</time>
      </trkpt>
      <trkpt lat="47.13743" lon="-1.62086">
        <ele>67</ele>
        <time>2021-09-18T12:06:42.000Z</time>
      </trkpt>
      <trkpt lat="47.13745" lon="-1.62104">
        <ele>67</ele>
        <time>2021-09-18T12:06:44.000Z</time>
      </trkpt>
      <trkpt lat="47.13748" lon="-1.62122">
        <ele>67</ele>
        <time>2021-09-18T12:06:46.000Z</time>
      </trkpt>
      <trkpt lat="47.1375" lon="-1.62139">
        <ele>67</ele>
        <time>2021-09-18T12:06:48.000Z</time>
      </trkpt>
      <trkpt lat="47.13752" lon="-1.62156">
        <ele>67</ele>
        <time>2021-09-18T12:06:50.000Z</time>
      </trkpt>
      <trkpt lat="47.13755" lon="-1.62174">
        <ele>66</ele>
        <time>2021-09-18T12:06:52.000Z</time>
      </trkpt>
      <trkpt lat="47.13757" lon="-1.62192">
        <ele>66</ele>
        <time>2021-09-18T12:06:54.000Z</time>
      </trkpt>
      <trkpt lat="47.13759" lon="-1.6221">
        <ele>67</ele>
        <time>2021-09-18T12:06:56.000Z</time>
      </trkpt>
      <trkpt lat="47.13761" lon="-1.62227">
        <ele>67</ele>
        <time>2021-09-18T12:06:58.000Z</time>
      </trkpt>
      <trkpt lat="47.13763" lon="-1.62245">
        <ele>67</ele>
        <time>2021-09-18T12:07:00.000Z</time>
      </trkpt>
      <trkpt lat="47.13765" lon="-1.62262">
        <ele>66</ele>
        <time>2021-09-18T12:07:02.000Z</time>
      </trkpt>
      <trkpt lat="47.13766" lon="-1.62279">
        <ele>66</ele>
        <time>2021-09-18T12:07:04.000Z</time>
      </trkpt>
      <trkpt lat="47.13768" lon="-1.62297">
        <ele>67</ele>
        <time>2021-09-18T12:07:06.000Z</time>
      </trkpt>
      <trkpt lat="47.13768" lon="-1.62314">
        <ele>67</ele>
        <time>2021-09-18T12:07:08.000Z</time>
      </trkpt>
      <trkpt lat="47.13768" lon="-1.62332">
        <ele>66</ele>
        <time>2021-09-18T12:07:10.000Z</time>
      </trkpt>
      <trkpt lat="47.13767" lon="-1.62351">
        <ele>66</ele>
        <time>2021-09-18T12:07:12.000Z</time>
      </trkpt>
      <trkpt lat="47.13765" lon="-1.62369">
        <ele>66</ele>
        <time>2021-09-18T12:07:14.000Z</time>
      </trkpt>
      <trkpt lat="47.13764" lon="-1.62387">
        <ele>66</ele>
        <time>2021-09-18T12:07:16.000Z</time>
      </trkpt>
      <trkpt lat="47.13763" lon="-1.62406">
        <ele>66</ele>
        <time>2021-09-18T12:07:18.000Z</time>
      </trkpt>
      <trkpt lat="47.13763" lon="-1.62426">
        <ele>66</ele>
        <time>2021-09-18T12:07:20.000Z</time>
      </trkpt>
      <trkpt lat="47.13765" lon="-1.62447">
        <ele>66</ele>
        <time>2021-09-18T12:07:22.000Z</time>
      </trkpt>
      <trkpt lat="47.13767" lon="-1.62468">
        <ele>66</ele>
        <time>2021-09-18T12:07:24.000Z</time>
      </trkpt>
      <trkpt lat="47.1377" lon="-1.62489">
        <ele>66</ele>
        <time>2021-09-18T12:07:26.000Z</time>
      </trkpt>
      <trkpt lat="47.13772" lon="-1.6251">
        <ele>65</ele>
        <time>2021-09-18T12:07:28.000Z</time>
      </trkpt>
      <trkpt lat="47.13774" lon="-1.62529">
        <ele>66</ele>
        <time>2021-09-18T12:07:30.000Z</time>
      </trkpt>
      <trkpt lat="47.13777" lon="-1.62549">
        <ele>66</ele>
        <time>2021-09-18T12:07:32.000Z</time>
      </trkpt>
      <trkpt lat="47.13779" lon="-1.62568">
        <ele>66</ele>
        <time>2021-09-18T12:07:34.000Z</time>
      </trkpt>
      <trkpt lat="47.1378" lon="-1.62586">
        <ele>66</ele>
        <time>2021-09-18T12:07:36.000Z</time>
      </trkpt>
      <trkpt lat="47.13782" lon="-1.62604">
        <ele>66</ele>
        <time>2021-09-18T12:07:38.000Z</time>
      </trkpt>
      <trkpt lat="47.13783" lon="-1.62622">
        <ele>66</ele>
        <time>2021-09-18T12:07:40.000Z</time>
      </trkpt>
      <trkpt lat="47.13784" lon="-1.6264">
        <ele>66</ele>
        <time>2021-09-18T12:07:42.000Z</time>
      </trkpt>
      <trkpt lat="47.13786" lon="-1.62658">
        <ele>66</ele>
        <time>2021-09-18T12:07:44.000Z</time>
      </trkpt>
      <trkpt lat="47.13787" lon="-1.62676">
        <ele>66</ele>
        <time>2021-09-18T12:07:46.000Z</time>
      </trkpt>
      <trkpt lat="47.13786" lon="-1.62694">
        <ele>66</ele>
        <time>2021-09-18T12:07:48.000Z</time>
      </trkpt>
      <trkpt lat="47.13785" lon="-1.62711">
        <ele>65</ele>
        <time>2021-09-18T12:07:50.000Z</time>
      </trkpt>
      <trkpt lat="47.13785" lon="-1.62728">
        <ele>66</ele>
        <time>2021-09-18T12:07:52.000Z</time>
      </trkpt>
      <trkpt lat="47.13785" lon="-1.62745">
        <ele>66</ele>
        <time>2021-09-18T12:07:54.000Z</time>
      </trkpt>
      <trkpt lat="47.13787" lon="-1.62762">
        <ele>66</ele>
        <time>2021-09-18T12:07:56.000Z</time>
      </trkpt>
      <trkpt lat="47.1379" lon="-1.62779">
        <ele>66</ele>
        <time>2021-09-18T12:07:58.000Z</time>
      </trkpt>
      <trkpt lat="47.13795" lon="-1.62796">
        <ele>66</ele>
        <time>2021-09-18T12:08:00.000Z</time>
      </trkpt>
      <trkpt lat="47.13801" lon="-1.62811">
        <ele>66</ele>
        <time>2021-09-18T12:08:02.000Z</time>
      </trkpt>
      <trkpt lat="47.13806" lon="-1.62827">
        <ele>66</ele>
        <time>2021-09-18T12:08:04.000Z</time>
      </trkpt>
      <trkpt lat="47.13812" lon="-1.62842">
        <ele>66</ele>
        <time>2021-09-18T12:08:06.000Z</time>
      </trkpt>
      <trkpt lat="47.13817" lon="-1.62857">
        <ele>67</ele>
        <time>2021-09-18T12:08:08.000Z</time>
      </trkpt>
      <trkpt lat="47.13822" lon="-1.62871">
        <ele>67</ele>
        <time>2021-09-18T12:08:10.000Z</time>
      </trkpt>
      <trkpt lat="47.13826" lon="-1.62887">
        <ele>66</ele>
        <time>2021-09-18T12:08:12.000Z</time>
      </trkpt>
      <trkpt lat="47.13827" lon="-1.62904">
        <ele>66</ele>
        <time>2021-09-18T12:08:14.000Z</time>
      </trkpt>
      <trkpt lat="47.13826" lon="-1.62921">
        <ele>66</ele>
        <time>2021-09-18T12:08:16.000Z</time>
      </trkpt>
      <trkpt lat="47.13824" lon="-1.62938">
        <ele>66</ele>
        <time>2021-09-18T12:08:18.000Z</time>
      </trkpt>
      <trkpt lat="47.13822" lon="-1.62956">
        <ele>65</ele>
        <time>2021-09-18T12:08:20.000Z</time>
      </trkpt>
      <trkpt lat="47.1382" lon="-1.62974">
        <ele>65</ele>
        <time>2021-09-18T12:08:22.000Z</time>
      </trkpt>
      <trkpt lat="47.13819" lon="-1.62992">
        <ele>65</ele>
        <time>2021-09-18T12:08:24.000Z</time>
      </trkpt>
      <trkpt lat="47.13818" lon="-1.63011">
        <ele>65</ele>
        <time>2021-09-18T12:08:26.000Z</time>
      </trkpt>
      <trkpt lat="47.13819" lon="-1.63031">
        <ele>64</ele>
        <time>2021-09-18T12:08:28.000Z</time>
      </trkpt>
      <trkpt lat="47.13822" lon="-1.6305">
        <ele>64</ele>
        <time>2021-09-18T12:08:30.000Z</time>
      </trkpt>
      <trkpt lat="47.13831" lon="-1.63059">
        <ele>64</ele>
        <time>2021-09-18T12:08:32.000Z</time>
      </trkpt>
      <trkpt lat="47.13844" lon="-1.63058">
        <ele>64</ele>
        <time>2021-09-18T12:08:34.000Z</time>
      </trkpt>
      <trkpt lat="47.13857" lon="-1.63057">
        <ele>63</ele>
        <time>2021-09-18T12:08:36.000Z</time>
      </trkpt>
      <trkpt lat="47.1387" lon="-1.63054">
        <ele>63</ele>
        <time>2021-09-18T12:08:38.000Z</time>
      </trkpt>
      <trkpt lat="47.13882" lon="-1.63051">
        <ele>62</ele>
        <time>2021-09-18T12:08:40.000Z</time>
      </trkpt>
      <trkpt lat="47.13894" lon="-1.63048">
        <ele>62</ele>
        <time>2021-09-18T12:08:42.000Z</time>
      </trkpt>
      <trkpt lat="47.13906" lon="-1.63044">
        <ele>61</ele>
        <time>2021-09-18T12:08:44.000Z</time>
      </trkpt>
      <trkpt lat="47.13919" lon="-1.63039">
        <ele>61</ele>
        <time>2021-09-18T12:08:46.000Z</time>
      </trkpt>
      <trkpt lat="47.13931" lon="-1.63035">
        <ele>61</ele>
        <time>2021-09-18T12:08:48.000Z</time>
      </trkpt>
      <trkpt lat="47.13943" lon="-1.63028">
        <ele>61</ele>
        <time>2021-09-18T12:08:50.000Z</time>
      </trkpt>
      <trkpt lat="47.13955" lon="-1.63022">
        <ele>61</ele>
        <time>2021-09-18T12:08:52.000Z</time>
      </trkpt>
      <trkpt lat="47.13967" lon="-1.63014">
        <ele>61</ele>
        <time>2021-09-18T12:08:54.000Z</time>
      </trkpt>
      <trkpt lat="47.13979" lon="-1.63008">
        <ele>61</ele>
        <time>2021-09-18T12:08:56.000Z</time>
      </trkpt>
      <trkpt lat="47.1399" lon="-1.63001">
        <ele>61</ele>
        <time>2021-09-18T12:08:58.000Z</time>
      </trkpt>
      <trkpt lat="47.14002" lon="-1.62995">
        <ele>61</ele>
        <time>2021-09-18T12:09:00.000Z</time>
      </trkpt>
      <trkpt lat="47.14013" lon="-1.62989">
        <ele>62</ele>
        <time>2021-09-18T12:09:02.000Z</time>
      </trkpt>
      <trkpt lat="47.14026" lon="-1.62985">
        <ele>62</ele>
        <time>2021-09-18T12:09:04.000Z</time>
      </trkpt>
      <trkpt lat="47.14038" lon="-1.62981">
        <ele>63</ele>
        <time>2021-09-18T12:09:06.000Z</time>
      </trkpt>
      <trkpt lat="47.1405" lon="-1.62978">
        <ele>63</ele>
        <time>2021-09-18T12:09:08.000Z</time>
      </trkpt>
      <trkpt lat="47.14062" lon="-1.62976">
        <ele>63</ele>
        <time>2021-09-18T12:09:10.000Z</time>
      </trkpt>
      <trkpt lat="47.14079" lon="-1.62975">
        <ele>64</ele>
        <time>2021-09-18T12:09:13.000Z</time>
      </trkpt>
      <trkpt lat="47.14097" lon="-1.62977">
        <ele>65</ele>
        <time>2021-09-18T12:09:16.000Z</time>
      </trkpt>
      <trkpt lat="47.14109" lon="-1.62978">
        <ele>65</ele>
        <time>2021-09-18T12:09:18.000Z</time>
      </trkpt>
      <trkpt lat="47.14127" lon="-1.62985">
        <ele>66</ele>
        <time>2021-09-18T12:09:21.000Z</time>
      </trkpt>
      <trkpt lat="47.14139" lon="-1.62989">
        <ele>66</ele>
        <time>2021-09-18T12:09:23.000Z</time>
      </trkpt>
      <trkpt lat="47.1415" lon="-1.62994">
        <ele>65</ele>
        <time>2021-09-18T12:09:25.000Z</time>
      </trkpt>
      <trkpt lat="47.14161" lon="-1.63">
        <ele>65</ele>
        <time>2021-09-18T12:09:27.000Z</time>
      </trkpt>
      <trkpt lat="47.14178" lon="-1.63008">
        <ele>65</ele>
        <time>2021-09-18T12:09:30.000Z</time>
      </trkpt>
      <trkpt lat="47.14189" lon="-1.63013">
        <ele>65</ele>
        <time>2021-09-18T12:09:32.000Z</time>
      </trkpt>
      <trkpt lat="47.14201" lon="-1.63019">
        <ele>65</ele>
        <time>2021-09-18T12:09:34.000Z</time>
      </trkpt>
      <trkpt lat="47.14211" lon="-1.63025">
        <ele>65</ele>
        <time>2021-09-18T12:09:36.000Z</time>
      </trkpt>
      <trkpt lat="47.14223" lon="-1.63031">
        <ele>64</ele>
        <time>2021-09-18T12:09:38.000Z</time>
      </trkpt>
      <trkpt lat="47.14234" lon="-1.63037">
        <ele>64</ele>
        <time>2021-09-18T12:09:40.000Z</time>
      </trkpt>
      <trkpt lat="47.14245" lon="-1.63042">
        <ele>65</ele>
        <time>2021-09-18T12:09:42.000Z</time>
      </trkpt>
      <trkpt lat="47.14257" lon="-1.63048">
        <ele>65</ele>
        <time>2021-09-18T12:09:44.000Z</time>
      </trkpt>
      <trkpt lat="47.14268" lon="-1.63054">
        <ele>65</ele>
        <time>2021-09-18T12:09:46.000Z</time>
      </trkpt>
      <trkpt lat="47.1428" lon="-1.63059">
        <ele>65</ele>
        <time>2021-09-18T12:09:48.000Z</time>
      </trkpt>
      <trkpt lat="47.14291" lon="-1.63065">
        <ele>65</ele>
        <time>2021-09-18T12:09:50.000Z</time>
      </trkpt>
      <trkpt lat="47.14302" lon="-1.63071">
        <ele>65</ele>
        <time>2021-09-18T12:09:52.000Z</time>
      </trkpt>
      <trkpt lat="47.14315" lon="-1.63076">
        <ele>65</ele>
        <time>2021-09-18T12:09:54.000Z</time>
      </trkpt>
      <trkpt lat="47.14327" lon="-1.63082">
        <ele>66</ele>
        <time>2021-09-18T12:09:56.000Z</time>
      </trkpt>
      <trkpt lat="47.14339" lon="-1.63088">
        <ele>66</ele>
        <time>2021-09-18T12:09:58.000Z</time>
      </trkpt>
      <trkpt lat="47.14352" lon="-1.63094">
        <ele>65</ele>
        <time>2021-09-18T12:10:00.000Z</time>
      </trkpt>
      <trkpt lat="47.14364" lon="-1.631">
        <ele>65</ele>
        <time>2021-09-18T12:10:02.000Z</time>
      </trkpt>
      <trkpt lat="47.14377" lon="-1.63107">
        <ele>65</ele>
        <time>2021-09-18T12:10:04.000Z</time>
      </trkpt>
      <trkpt lat="47.14388" lon="-1.63114">
        <ele>65</ele>
        <time>2021-09-18T12:10:06.000Z</time>
      </trkpt>
      <trkpt lat="47.14399" lon="-1.63119">
        <ele>66</ele>
        <time>2021-09-18T12:10:08.000Z</time>
      </trkpt>
      <trkpt lat="47.14411" lon="-1.63125">
        <ele>67</ele>
        <time>2021-09-18T12:10:10.000Z</time>
      </trkpt>
      <trkpt lat="47.14422" lon="-1.63131">
        <ele>67</ele>
        <time>2021-09-18T12:10:12.000Z</time>
      </trkpt>
      <trkpt lat="47.14434" lon="-1.63137">
        <ele>66</ele>
        <time>2021-09-18T12:10:14.000Z</time>
      </trkpt>
      <trkpt lat="47.14446" lon="-1.63143">
        <ele>67</ele>
        <time>2021-09-18T12:10:16.000Z</time>
      </trkpt>
      <trkpt lat="47.14458" lon="-1.63146">
        <ele>67</ele>
        <time>2021-09-18T12:10:18.000Z</time>
      </trkpt>
      <trkpt lat="47.14471" lon="-1.63146">
        <ele>67</ele>
        <time>2021-09-18T12:10:20.000Z</time>
      </trkpt>
      <trkpt lat="47.14484" lon="-1.63145">
        <ele>67</ele>
        <time>2021-09-18T12:10:22.000Z</time>
      </trkpt>
      <trkpt lat="47.14497" lon="-1.63145">
        <ele>67</ele>
        <time>2021-09-18T12:10:24.000Z</time>
      </trkpt>
      <trkpt lat="47.14509" lon="-1.63146">
        <ele>67</ele>
        <time>2021-09-18T12:10:26.000Z</time>
      </trkpt>
      <trkpt lat="47.14522" lon="-1.63146">
        <ele>67</ele>
        <time>2021-09-18T12:10:28.000Z</time>
      </trkpt>
      <trkpt lat="47.14534" lon="-1.63146">
        <ele>67</ele>
        <time>2021-09-18T12:10:30.000Z</time>
      </trkpt>
      <trkpt lat="47.14547" lon="-1.63144">
        <ele>67</ele>
        <time>2021-09-18T12:10:32.000Z</time>
      </trkpt>
      <trkpt lat="47.1456" lon="-1.63142">
        <ele>68</ele>
        <time>2021-09-18T12:10:34.000Z</time>
      </trkpt>
      <trkpt lat="47.14572" lon="-1.63138">
        <ele>67</ele>
        <time>2021-09-18T12:10:36.000Z</time>
      </trkpt>
      <trkpt lat="47.14584" lon="-1.63131">
        <ele>68</ele>
        <time>2021-09-18T12:10:38.000Z</time>
      </trkpt>
      <trkpt lat="47.14595" lon="-1.63124">
        <ele>68</ele>
        <time>2021-09-18T12:10:40.000Z</time>
      </trkpt>
      <trkpt lat="47.14605" lon="-1.63117">
        <ele>68</ele>
        <time>2021-09-18T12:10:42.000Z</time>
      </trkpt>
      <trkpt lat="47.14617" lon="-1.6311">
        <ele>68</ele>
        <time>2021-09-18T12:10:44.000Z</time>
      </trkpt>
      <trkpt lat="47.14628" lon="-1.63103">
        <ele>69</ele>
        <time>2021-09-18T12:10:46.000Z</time>
      </trkpt>
      <trkpt lat="47.14639" lon="-1.63096">
        <ele>69</ele>
        <time>2021-09-18T12:10:48.000Z</time>
      </trkpt>
      <trkpt lat="47.1465" lon="-1.63089">
        <ele>69</ele>
        <time>2021-09-18T12:10:50.000Z</time>
      </trkpt>
      <trkpt lat="47.14662" lon="-1.63083">
        <ele>69</ele>
        <time>2021-09-18T12:10:52.000Z</time>
      </trkpt>
      <trkpt lat="47.14674" lon="-1.63077">
        <ele>69</ele>
        <time>2021-09-18T12:10:54.000Z</time>
      </trkpt>
      <trkpt lat="47.14686" lon="-1.63074">
        <ele>70</ele>
        <time>2021-09-18T12:10:56.000Z</time>
      </trkpt>
      <trkpt lat="47.14698" lon="-1.63072">
        <ele>70</ele>
        <time>2021-09-18T12:10:58.000Z</time>
      </trkpt>
      <trkpt lat="47.14711" lon="-1.63071">
        <ele>70</ele>
        <time>2021-09-18T12:11:00.000Z</time>
      </trkpt>
      <trkpt lat="47.14723" lon="-1.63069">
        <ele>70</ele>
        <time>2021-09-18T12:11:02.000Z</time>
      </trkpt>
      <trkpt lat="47.14735" lon="-1.63068">
        <ele>70</ele>
        <time>2021-09-18T12:11:04.000Z</time>
      </trkpt>
      <trkpt lat="47.14748" lon="-1.63068">
        <ele>70</ele>
        <time>2021-09-18T12:11:06.000Z</time>
      </trkpt>
      <trkpt lat="47.14761" lon="-1.63067">
        <ele>70</ele>
        <time>2021-09-18T12:11:08.000Z</time>
      </trkpt>
      <trkpt lat="47.14773" lon="-1.63067">
        <ele>70</ele>
        <time>2021-09-18T12:11:10.000Z</time>
      </trkpt>
      <trkpt lat="47.14787" lon="-1.63067">
        <ele>69</ele>
        <time>2021-09-18T12:11:12.000Z</time>
      </trkpt>
      <trkpt lat="47.14799" lon="-1.63066">
        <ele>70</ele>
        <time>2021-09-18T12:11:14.000Z</time>
      </trkpt>
      <trkpt lat="47.14812" lon="-1.63065">
        <ele>70</ele>
        <time>2021-09-18T12:11:16.000Z</time>
      </trkpt>
      <trkpt lat="47.14825" lon="-1.63064">
        <ele>70</ele>
        <time>2021-09-18T12:11:18.000Z</time>
      </trkpt>
      <trkpt lat="47.14838" lon="-1.63064">
        <ele>70</ele>
        <time>2021-09-18T12:11:20.000Z</time>
      </trkpt>
      <trkpt lat="47.1485" lon="-1.63063">
        <ele>70</ele>
        <time>2021-09-18T12:11:22.000Z</time>
      </trkpt>
      <trkpt lat="47.14863" lon="-1.63062">
        <ele>70</ele>
        <time>2021-09-18T12:11:24.000Z</time>
      </trkpt>
      <trkpt lat="47.14873" lon="-1.63061">
        <ele>70</ele>
        <time>2021-09-18T12:11:26.000Z</time>
      </trkpt>
      <trkpt lat="47.14883" lon="-1.63063">
        <ele>70</ele>
        <time>2021-09-18T12:11:28.000Z</time>
      </trkpt>
      <trkpt lat="47.14885" lon="-1.63083">
        <ele>71</ele>
        <time>2021-09-18T12:11:31.000Z</time>
      </trkpt>
      <trkpt lat="47.14884" lon="-1.631">
        <ele>71</ele>
        <time>2021-09-18T12:11:33.000Z</time>
      </trkpt>
      <trkpt lat="47.14881" lon="-1.6312">
        <ele>72</ele>
        <time>2021-09-18T12:11:35.000Z</time>
      </trkpt>
      <trkpt lat="47.14879" lon="-1.63139">
        <ele>72</ele>
        <time>2021-09-18T12:11:37.000Z</time>
      </trkpt>
      <trkpt lat="47.14877" lon="-1.63157">
        <ele>72</ele>
        <time>2021-09-18T12:11:39.000Z</time>
      </trkpt>
      <trkpt lat="47.14876" lon="-1.63176">
        <ele>72</ele>
        <time>2021-09-18T12:11:41.000Z</time>
      </trkpt>
      <trkpt lat="47.14876" lon="-1.63194">
        <ele>72</ele>
        <time>2021-09-18T12:11:43.000Z</time>
      </trkpt>
      <trkpt lat="47.14875" lon="-1.63212">
        <ele>72</ele>
        <time>2021-09-18T12:11:45.000Z</time>
      </trkpt>
      <trkpt lat="47.14875" lon="-1.6323">
        <ele>72</ele>
        <time>2021-09-18T12:11:47.000Z</time>
      </trkpt>
      <trkpt lat="47.14875" lon="-1.63248">
        <ele>72</ele>
        <time>2021-09-18T12:11:49.000Z</time>
      </trkpt>
      <trkpt lat="47.14876" lon="-1.63267">
        <ele>73</ele>
        <time>2021-09-18T12:11:51.000Z</time>
      </trkpt>
      <trkpt lat="47.14876" lon="-1.63285">
        <ele>74</ele>
        <time>2021-09-18T12:11:53.000Z</time>
      </trkpt>
      <trkpt lat="47.14876" lon="-1.63303">
        <ele>75</ele>
        <time>2021-09-18T12:11:55.000Z</time>
      </trkpt>
      <trkpt lat="47.14876" lon="-1.6332">
        <ele>75</ele>
        <time>2021-09-18T12:11:57.000Z</time>
      </trkpt>
      <trkpt lat="47.14876" lon="-1.63338">
        <ele>75</ele>
        <time>2021-09-18T12:11:59.000Z</time>
      </trkpt>
      <trkpt lat="47.14876" lon="-1.63356">
        <ele>76</ele>
        <time>2021-09-18T12:12:01.000Z</time>
      </trkpt>
      <trkpt lat="47.14875" lon="-1.63375">
        <ele>76</ele>
        <time>2021-09-18T12:12:03.000Z</time>
      </trkpt>
      <trkpt lat="47.14876" lon="-1.63394">
        <ele>76</ele>
        <time>2021-09-18T12:12:05.000Z</time>
      </trkpt>
      <trkpt lat="47.14876" lon="-1.63412">
        <ele>76</ele>
        <time>2021-09-18T12:12:07.000Z</time>
      </trkpt>
      <trkpt lat="47.14876" lon="-1.6343">
        <ele>75</ele>
        <time>2021-09-18T12:12:09.000Z</time>
      </trkpt>
      <trkpt lat="47.14876" lon="-1.63448">
        <ele>75</ele>
        <time>2021-09-18T12:12:11.000Z</time>
      </trkpt>
      <trkpt lat="47.14875" lon="-1.63467">
        <ele>75</ele>
        <time>2021-09-18T12:12:13.000Z</time>
      </trkpt>
      <trkpt lat="47.14875" lon="-1.63485">
        <ele>74</ele>
        <time>2021-09-18T12:12:15.000Z</time>
      </trkpt>
      <trkpt lat="47.14875" lon="-1.63504">
        <ele>74</ele>
        <time>2021-09-18T12:12:17.000Z</time>
      </trkpt>
      <trkpt lat="47.14874" lon="-1.63522">
        <ele>73</ele>
        <time>2021-09-18T12:12:19.000Z</time>
      </trkpt>
      <trkpt lat="47.14874" lon="-1.6354">
        <ele>74</ele>
        <time>2021-09-18T12:12:21.000Z</time>
      </trkpt>
      <trkpt lat="47.14874" lon="-1.63557">
        <ele>74</ele>
        <time>2021-09-18T12:12:23.000Z</time>
      </trkpt>
      <trkpt lat="47.14875" lon="-1.63575">
        <ele>74</ele>
        <time>2021-09-18T12:12:25.000Z</time>
      </trkpt>
      <trkpt lat="47.14875" lon="-1.63592">
        <ele>74</ele>
        <time>2021-09-18T12:12:27.000Z</time>
      </trkpt>
      <trkpt lat="47.14874" lon="-1.6361">
        <ele>74</ele>
        <time>2021-09-18T12:12:29.000Z</time>
      </trkpt>
      <trkpt lat="47.14875" lon="-1.63629">
        <ele>75</ele>
        <time>2021-09-18T12:12:31.000Z</time>
      </trkpt>
      <trkpt lat="47.14875" lon="-1.63646">
        <ele>75</ele>
        <time>2021-09-18T12:12:33.000Z</time>
      </trkpt>
      <trkpt lat="47.14876" lon="-1.63664">
        <ele>76</ele>
        <time>2021-09-18T12:12:35.000Z</time>
      </trkpt>
      <trkpt lat="47.14876" lon="-1.63682">
        <ele>76</ele>
        <time>2021-09-18T12:12:37.000Z</time>
      </trkpt>
      <trkpt lat="47.14875" lon="-1.63699">
        <ele>75</ele>
        <time>2021-09-18T12:12:39.000Z</time>
      </trkpt>
      <trkpt lat="47.14875" lon="-1.63717">
        <ele>75</ele>
        <time>2021-09-18T12:12:41.000Z</time>
      </trkpt>
      <trkpt lat="47.14875" lon="-1.63735">
        <ele>75</ele>
        <time>2021-09-18T12:12:43.000Z</time>
      </trkpt>
      <trkpt lat="47.14875" lon="-1.63753">
        <ele>75</ele>
        <time>2021-09-18T12:12:45.000Z</time>
      </trkpt>
      <trkpt lat="47.14874" lon="-1.63771">
        <ele>75</ele>
        <time>2021-09-18T12:12:47.000Z</time>
      </trkpt>
      <trkpt lat="47.14875" lon="-1.63789">
        <ele>75</ele>
        <time>2021-09-18T12:12:49.000Z</time>
      </trkpt>
      <trkpt lat="47.14875" lon="-1.63807">
        <ele>75</ele>
        <time>2021-09-18T12:12:51.000Z</time>
      </trkpt>
      <trkpt lat="47.14874" lon="-1.63825">
        <ele>74</ele>
        <time>2021-09-18T12:12:53.000Z</time>
      </trkpt>
      <trkpt lat="47.14873" lon="-1.63843">
        <ele>74</ele>
        <time>2021-09-18T12:12:55.000Z</time>
      </trkpt>
      <trkpt lat="47.14871" lon="-1.63859">
        <ele>74</ele>
        <time>2021-09-18T12:12:57.000Z</time>
      </trkpt>
      <trkpt lat="47.1487" lon="-1.63877">
        <ele>74</ele>
        <time>2021-09-18T12:12:59.000Z</time>
      </trkpt>
      <trkpt lat="47.14868" lon="-1.63893">
        <ele>75</ele>
        <time>2021-09-18T12:13:01.000Z</time>
      </trkpt>
      <trkpt lat="47.14867" lon="-1.63908">
        <ele>75</ele>
        <time>2021-09-18T12:13:03.000Z</time>
      </trkpt>
      <trkpt lat="47.14864" lon="-1.63924">
        <ele>74</ele>
        <time>2021-09-18T12:13:05.000Z</time>
      </trkpt>
      <trkpt lat="47.14861" lon="-1.63939">
        <ele>74</ele>
        <time>2021-09-18T12:13:07.000Z</time>
      </trkpt>
      <trkpt lat="47.1486" lon="-1.63954">
        <ele>74</ele>
        <time>2021-09-18T12:13:09.000Z</time>
      </trkpt>
      <trkpt lat="47.14861" lon="-1.6397">
        <ele>74</ele>
        <time>2021-09-18T12:13:11.000Z</time>
      </trkpt>
      <trkpt lat="47.14866" lon="-1.63984">
        <ele>74</ele>
        <time>2021-09-18T12:13:13.000Z</time>
      </trkpt>
      <trkpt lat="47.14874" lon="-1.63995">
        <ele>73</ele>
        <time>2021-09-18T12:13:15.000Z</time>
      </trkpt>
      <trkpt lat="47.14881" lon="-1.64006">
        <ele>73</ele>
        <time>2021-09-18T12:13:17.000Z</time>
      </trkpt>
      <trkpt lat="47.14889" lon="-1.64015">
        <ele>72</ele>
        <time>2021-09-18T12:13:19.000Z</time>
      </trkpt>
      <trkpt lat="47.14899" lon="-1.6402">
        <ele>72</ele>
        <time>2021-09-18T12:13:21.000Z</time>
      </trkpt>
      <trkpt lat="47.14909" lon="-1.64015">
        <ele>71</ele>
        <time>2021-09-18T12:13:23.000Z</time>
      </trkpt>
      <trkpt lat="47.14916" lon="-1.64">
        <ele>71</ele>
        <time>2021-09-18T12:13:25.000Z</time>
      </trkpt>
      <trkpt lat="47.14923" lon="-1.63983">
        <ele>71</ele>
        <time>2021-09-18T12:13:27.000Z</time>
      </trkpt>
      <trkpt lat="47.14931" lon="-1.63968">
        <ele>71</ele>
        <time>2021-09-18T12:13:29.000Z</time>
      </trkpt>
      <trkpt lat="47.14939" lon="-1.63954">
        <ele>71</ele>
        <time>2021-09-18T12:13:31.000Z</time>
      </trkpt>
      <trkpt lat="47.14949" lon="-1.6394">
        <ele>71</ele>
        <time>2021-09-18T12:13:33.000Z</time>
      </trkpt>
      <trkpt lat="47.14958" lon="-1.63926">
        <ele>71</ele>
        <time>2021-09-18T12:13:35.000Z</time>
      </trkpt>
      <trkpt lat="47.14968" lon="-1.63912">
        <ele>71</ele>
        <time>2021-09-18T12:13:37.000Z</time>
      </trkpt>
      <trkpt lat="47.14979" lon="-1.63897">
        <ele>70</ele>
        <time>2021-09-18T12:13:39.000Z</time>
      </trkpt>
      <trkpt lat="47.14989" lon="-1.63883">
        <ele>70</ele>
        <time>2021-09-18T12:13:41.000Z</time>
      </trkpt>
      <trkpt lat="47.14999" lon="-1.63869">
        <ele>70</ele>
        <time>2021-09-18T12:13:43.000Z</time>
      </trkpt>
      <trkpt lat="47.15009" lon="-1.63855">
        <ele>70</ele>
        <time>2021-09-18T12:13:45.000Z</time>
      </trkpt>
      <trkpt lat="47.15019" lon="-1.63841">
        <ele>70</ele>
        <time>2021-09-18T12:13:47.000Z</time>
      </trkpt>
      <trkpt lat="47.15029" lon="-1.63827">
        <ele>70</ele>
        <time>2021-09-18T12:13:49.000Z</time>
      </trkpt>
      <trkpt lat="47.15039" lon="-1.63813">
        <ele>70</ele>
        <time>2021-09-18T12:13:51.000Z</time>
      </trkpt>
      <trkpt lat="47.15049" lon="-1.638">
        <ele>70</ele>
        <time>2021-09-18T12:13:53.000Z</time>
      </trkpt>
      <trkpt lat="47.1506" lon="-1.63786">
        <ele>70</ele>
        <time>2021-09-18T12:13:55.000Z</time>
      </trkpt>
      <trkpt lat="47.1507" lon="-1.63774">
        <ele>69</ele>
        <time>2021-09-18T12:13:57.000Z</time>
      </trkpt>
      <trkpt lat="47.15081" lon="-1.63762">
        <ele>69</ele>
        <time>2021-09-18T12:13:59.000Z</time>
      </trkpt>
      <trkpt lat="47.15092" lon="-1.63749">
        <ele>69</ele>
        <time>2021-09-18T12:14:01.000Z</time>
      </trkpt>
      <trkpt lat="47.15102" lon="-1.63736">
        <ele>70</ele>
        <time>2021-09-18T12:14:03.000Z</time>
      </trkpt>
      <trkpt lat="47.15113" lon="-1.63724">
        <ele>70</ele>
        <time>2021-09-18T12:14:05.000Z</time>
      </trkpt>
      <trkpt lat="47.15124" lon="-1.63712">
        <ele>70</ele>
        <time>2021-09-18T12:14:07.000Z</time>
      </trkpt>
      <trkpt lat="47.15136" lon="-1.63701">
        <ele>70</ele>
        <time>2021-09-18T12:14:09.000Z</time>
      </trkpt>
      <trkpt lat="47.15148" lon="-1.6369">
        <ele>70</ele>
        <time>2021-09-18T12:14:11.000Z</time>
      </trkpt>
      <trkpt lat="47.15159" lon="-1.63679">
        <ele>71</ele>
        <time>2021-09-18T12:14:13.000Z</time>
      </trkpt>
      <trkpt lat="47.15171" lon="-1.63669">
        <ele>71</ele>
        <time>2021-09-18T12:14:15.000Z</time>
      </trkpt>
      <trkpt lat="47.15183" lon="-1.63658">
        <ele>71</ele>
        <time>2021-09-18T12:14:17.000Z</time>
      </trkpt>
      <trkpt lat="47.15195" lon="-1.63648">
        <ele>71</ele>
        <time>2021-09-18T12:14:19.000Z</time>
      </trkpt>
      <trkpt lat="47.15207" lon="-1.63637">
        <ele>71</ele>
        <time>2021-09-18T12:14:21.000Z</time>
      </trkpt>
      <trkpt lat="47.15218" lon="-1.63626">
        <ele>71</ele>
        <time>2021-09-18T12:14:23.000Z</time>
      </trkpt>
      <trkpt lat="47.1523" lon="-1.63615">
        <ele>71</ele>
        <time>2021-09-18T12:14:25.000Z</time>
      </trkpt>
      <trkpt lat="47.15241" lon="-1.63605">
        <ele>71</ele>
        <time>2021-09-18T12:14:27.000Z</time>
      </trkpt>
      <trkpt lat="47.15252" lon="-1.63594">
        <ele>71</ele>
        <time>2021-09-18T12:14:29.000Z</time>
      </trkpt>
      <trkpt lat="47.15264" lon="-1.63584">
        <ele>71</ele>
        <time>2021-09-18T12:14:31.000Z</time>
      </trkpt>
      <trkpt lat="47.15275" lon="-1.63574">
        <ele>71</ele>
        <time>2021-09-18T12:14:33.000Z</time>
      </trkpt>
      <trkpt lat="47.15287" lon="-1.63563">
        <ele>71</ele>
        <time>2021-09-18T12:14:35.000Z</time>
      </trkpt>
      <trkpt lat="47.15298" lon="-1.63553">
        <ele>71</ele>
        <time>2021-09-18T12:14:37.000Z</time>
      </trkpt>
      <trkpt lat="47.1531" lon="-1.63542">
        <ele>70</ele>
        <time>2021-09-18T12:14:39.000Z</time>
      </trkpt>
      <trkpt lat="47.15322" lon="-1.63532">
        <ele>70</ele>
        <time>2021-09-18T12:14:41.000Z</time>
      </trkpt>
      <trkpt lat="47.15333" lon="-1.63522">
        <ele>70</ele>
        <time>2021-09-18T12:14:43.000Z</time>
      </trkpt>
      <trkpt lat="47.15345" lon="-1.63511">
        <ele>70</ele>
        <time>2021-09-18T12:14:45.000Z</time>
      </trkpt>
      <trkpt lat="47.15356" lon="-1.63501">
        <ele>70</ele>
        <time>2021-09-18T12:14:47.000Z</time>
      </trkpt>
      <trkpt lat="47.15368" lon="-1.63491">
        <ele>70</ele>
        <time>2021-09-18T12:14:49.000Z</time>
      </trkpt>
      <trkpt lat="47.1538" lon="-1.6348">
        <ele>70</ele>
        <time>2021-09-18T12:14:51.000Z</time>
      </trkpt>
      <trkpt lat="47.15391" lon="-1.6347">
        <ele>70</ele>
        <time>2021-09-18T12:14:53.000Z</time>
      </trkpt>
      <trkpt lat="47.15403" lon="-1.6346">
        <ele>70</ele>
        <time>2021-09-18T12:14:55.000Z</time>
      </trkpt>
      <trkpt lat="47.15415" lon="-1.63449">
        <ele>70</ele>
        <time>2021-09-18T12:14:57.000Z</time>
      </trkpt>
      <trkpt lat="47.15427" lon="-1.63439">
        <ele>70</ele>
        <time>2021-09-18T12:14:59.000Z</time>
      </trkpt>
      <trkpt lat="47.15438" lon="-1.63427">
        <ele>69</ele>
        <time>2021-09-18T12:15:01.000Z</time>
      </trkpt>
      <trkpt lat="47.1545" lon="-1.63413">
        <ele>69</ele>
        <time>2021-09-18T12:15:03.000Z</time>
      </trkpt>
      <trkpt lat="47.15462" lon="-1.63402">
        <ele>70</ele>
        <time>2021-09-18T12:15:05.000Z</time>
      </trkpt>
      <trkpt lat="47.15476" lon="-1.63392">
        <ele>69</ele>
        <time>2021-09-18T12:15:07.000Z</time>
      </trkpt>
      <trkpt lat="47.1549" lon="-1.63383">
        <ele>69</ele>
        <time>2021-09-18T12:15:09.000Z</time>
      </trkpt>
      <trkpt lat="47.15504" lon="-1.63371">
        <ele>69</ele>
        <time>2021-09-18T12:15:11.000Z</time>
      </trkpt>
      <trkpt lat="47.15519" lon="-1.63359">
        <ele>68</ele>
        <time>2021-09-18T12:15:13.000Z</time>
      </trkpt>
      <trkpt lat="47.15534" lon="-1.63346">
        <ele>67</ele>
        <time>2021-09-18T12:15:15.000Z</time>
      </trkpt>
      <trkpt lat="47.15549" lon="-1.63333">
        <ele>66</ele>
        <time>2021-09-18T12:15:17.000Z</time>
      </trkpt>
      <trkpt lat="47.15565" lon="-1.63321">
        <ele>66</ele>
        <time>2021-09-18T12:15:19.000Z</time>
      </trkpt>
      <trkpt lat="47.1558" lon="-1.63307">
        <ele>66</ele>
        <time>2021-09-18T12:15:21.000Z</time>
      </trkpt>
      <trkpt lat="47.15595" lon="-1.63293">
        <ele>65</ele>
        <time>2021-09-18T12:15:23.000Z</time>
      </trkpt>
      <trkpt lat="47.1561" lon="-1.6328">
        <ele>65</ele>
        <time>2021-09-18T12:15:25.000Z</time>
      </trkpt>
      <trkpt lat="47.15625" lon="-1.63266">
        <ele>65</ele>
        <time>2021-09-18T12:15:27.000Z</time>
      </trkpt>
      <trkpt lat="47.1564" lon="-1.63253">
        <ele>65</ele>
        <time>2021-09-18T12:15:29.000Z</time>
      </trkpt>
      <trkpt lat="47.15654" lon="-1.63239">
        <ele>65</ele>
        <time>2021-09-18T12:15:31.000Z</time>
      </trkpt>
      <trkpt lat="47.15668" lon="-1.63227">
        <ele>65</ele>
        <time>2021-09-18T12:15:33.000Z</time>
      </trkpt>
      <trkpt lat="47.1568" lon="-1.63216">
        <ele>65</ele>
        <time>2021-09-18T12:15:35.000Z</time>
      </trkpt>
      <trkpt lat="47.15693" lon="-1.63204">
        <ele>65</ele>
        <time>2021-09-18T12:15:37.000Z</time>
      </trkpt>
      <trkpt lat="47.15706" lon="-1.63193">
        <ele>65</ele>
        <time>2021-09-18T12:15:39.000Z</time>
      </trkpt>
      <trkpt lat="47.15719" lon="-1.63182">
        <ele>64</ele>
        <time>2021-09-18T12:15:41.000Z</time>
      </trkpt>
      <trkpt lat="47.15732" lon="-1.63171">
        <ele>64</ele>
        <time>2021-09-18T12:15:43.000Z</time>
      </trkpt>
      <trkpt lat="47.15743" lon="-1.63158">
        <ele>64</ele>
        <time>2021-09-18T12:15:45.000Z</time>
      </trkpt>
      <trkpt lat="47.15754" lon="-1.63146">
        <ele>64</ele>
        <time>2021-09-18T12:15:47.000Z</time>
      </trkpt>
      <trkpt lat="47.15768" lon="-1.63139">
        <ele>64</ele>
        <time>2021-09-18T12:15:49.000Z</time>
      </trkpt>
      <trkpt lat="47.15781" lon="-1.63127">
        <ele>64</ele>
        <time>2021-09-18T12:15:51.000Z</time>
      </trkpt>
      <trkpt lat="47.15795" lon="-1.63115">
        <ele>63</ele>
        <time>2021-09-18T12:15:53.000Z</time>
      </trkpt>
      <trkpt lat="47.15809" lon="-1.63103">
        <ele>62</ele>
        <time>2021-09-18T12:15:55.000Z</time>
      </trkpt>
      <trkpt lat="47.15823" lon="-1.63091">
        <ele>62</ele>
        <time>2021-09-18T12:15:57.000Z</time>
      </trkpt>
      <trkpt lat="47.15837" lon="-1.63078">
        <ele>61</ele>
        <time>2021-09-18T12:15:59.000Z</time>
      </trkpt>
      <trkpt lat="47.15852" lon="-1.63065">
        <ele>60</ele>
        <time>2021-09-18T12:16:01.000Z</time>
      </trkpt>
      <trkpt lat="47.15866" lon="-1.63051">
        <ele>60</ele>
        <time>2021-09-18T12:16:03.000Z</time>
      </trkpt>
      <trkpt lat="47.15881" lon="-1.63038">
        <ele>60</ele>
        <time>2021-09-18T12:16:05.000Z</time>
      </trkpt>
      <trkpt lat="47.15896" lon="-1.63025">
        <ele>59</ele>
        <time>2021-09-18T12:16:07.000Z</time>
      </trkpt>
      <trkpt lat="47.15909" lon="-1.63013">
        <ele>60</ele>
        <time>2021-09-18T12:16:09.000Z</time>
      </trkpt>
      <trkpt lat="47.15923" lon="-1.63001">
        <ele>60</ele>
        <time>2021-09-18T12:16:11.000Z</time>
      </trkpt>
      <trkpt lat="47.15936" lon="-1.6299">
        <ele>60</ele>
        <time>2021-09-18T12:16:13.000Z</time>
      </trkpt>
      <trkpt lat="47.15948" lon="-1.62979">
        <ele>60</ele>
        <time>2021-09-18T12:16:15.000Z</time>
      </trkpt>
      <trkpt lat="47.1596" lon="-1.62968">
        <ele>60</ele>
        <time>2021-09-18T12:16:17.000Z</time>
      </trkpt>
      <trkpt lat="47.15971" lon="-1.62959">
        <ele>61</ele>
        <time>2021-09-18T12:16:19.000Z</time>
      </trkpt>
      <trkpt lat="47.15981" lon="-1.62949">
        <ele>61</ele>
        <time>2021-09-18T12:16:21.000Z</time>
      </trkpt>
      <trkpt lat="47.15991" lon="-1.62941">
        <ele>62</ele>
        <time>2021-09-18T12:16:23.000Z</time>
      </trkpt>
      <trkpt lat="47.16001" lon="-1.62931">
        <ele>62</ele>
        <time>2021-09-18T12:16:25.000Z</time>
      </trkpt>
      <trkpt lat="47.16011" lon="-1.62923">
        <ele>63</ele>
        <time>2021-09-18T12:16:27.000Z</time>
      </trkpt>
      <trkpt lat="47.16021" lon="-1.62914">
        <ele>63</ele>
        <time>2021-09-18T12:16:29.000Z</time>
      </trkpt>
      <trkpt lat="47.16031" lon="-1.62905">
        <ele>64</ele>
        <time>2021-09-18T12:16:31.000Z</time>
      </trkpt>
      <trkpt lat="47.16041" lon="-1.62897">
        <ele>64</ele>
        <time>2021-09-18T12:16:33.000Z</time>
      </trkpt>
      <trkpt lat="47.16051" lon="-1.62888">
        <ele>64</ele>
        <time>2021-09-18T12:16:35.000Z</time>
      </trkpt>
      <trkpt lat="47.16061" lon="-1.6288">
        <ele>65</ele>
        <time>2021-09-18T12:16:37.000Z</time>
      </trkpt>
      <trkpt lat="47.16072" lon="-1.62871">
        <ele>66</ele>
        <time>2021-09-18T12:16:39.000Z</time>
      </trkpt>
      <trkpt lat="47.16081" lon="-1.62862">
        <ele>65</ele>
        <time>2021-09-18T12:16:41.000Z</time>
      </trkpt>
      <trkpt lat="47.16091" lon="-1.62852">
        <ele>65</ele>
        <time>2021-09-18T12:16:43.000Z</time>
      </trkpt>
      <trkpt lat="47.16101" lon="-1.62843">
        <ele>65</ele>
        <time>2021-09-18T12:16:45.000Z</time>
      </trkpt>
      <trkpt lat="47.16111" lon="-1.62835">
        <ele>66</ele>
        <time>2021-09-18T12:16:47.000Z</time>
      </trkpt>
      <trkpt lat="47.16122" lon="-1.62826">
        <ele>66</ele>
        <time>2021-09-18T12:16:49.000Z</time>
      </trkpt>
      <trkpt lat="47.16131" lon="-1.62817">
        <ele>66</ele>
        <time>2021-09-18T12:16:51.000Z</time>
      </trkpt>
      <trkpt lat="47.16141" lon="-1.62808">
        <ele>66</ele>
        <time>2021-09-18T12:16:53.000Z</time>
      </trkpt>
      <trkpt lat="47.16151" lon="-1.628">
        <ele>67</ele>
        <time>2021-09-18T12:16:55.000Z</time>
      </trkpt>
      <trkpt lat="47.16161" lon="-1.62791">
        <ele>67</ele>
        <time>2021-09-18T12:16:57.000Z</time>
      </trkpt>
      <trkpt lat="47.16171" lon="-1.62782">
        <ele>68</ele>
        <time>2021-09-18T12:16:59.000Z</time>
      </trkpt>
      <trkpt lat="47.16181" lon="-1.62772">
        <ele>68</ele>
        <time>2021-09-18T12:17:01.000Z</time>
      </trkpt>
      <trkpt lat="47.16191" lon="-1.62763">
        <ele>68</ele>
        <time>2021-09-18T12:17:03.000Z</time>
      </trkpt>
      <trkpt lat="47.162" lon="-1.62754">
        <ele>69</ele>
        <time>2021-09-18T12:17:05.000Z</time>
      </trkpt>
      <trkpt lat="47.16211" lon="-1.62745">
        <ele>69</ele>
        <time>2021-09-18T12:17:07.000Z</time>
      </trkpt>
      <trkpt lat="47.16221" lon="-1.62736">
        <ele>70</ele>
        <time>2021-09-18T12:17:09.000Z</time>
      </trkpt>
      <trkpt lat="47.16231" lon="-1.62728">
        <ele>70</ele>
        <time>2021-09-18T12:17:11.000Z</time>
      </trkpt>
      <trkpt lat="47.1624" lon="-1.6272">
        <ele>71</ele>
        <time>2021-09-18T12:17:13.000Z</time>
      </trkpt>
      <trkpt lat="47.1625" lon="-1.62713">
        <ele>71</ele>
        <time>2021-09-18T12:17:15.000Z</time>
      </trkpt>
      <trkpt lat="47.16259" lon="-1.62705">
        <ele>71</ele>
        <time>2021-09-18T12:17:17.000Z</time>
      </trkpt>
      <trkpt lat="47.16269" lon="-1.62698">
        <ele>71</ele>
        <time>2021-09-18T12:17:19.000Z</time>
      </trkpt>
      <trkpt lat="47.16277" lon="-1.6269">
        <ele>72</ele>
        <time>2021-09-18T12:17:21.000Z</time>
      </trkpt>
      <trkpt lat="47.1628" lon="-1.62677">
        <ele>71</ele>
        <time>2021-09-18T12:17:23.000Z</time>
      </trkpt>
      <trkpt lat="47.1628" lon="-1.62659">
        <ele>71</ele>
        <time>2021-09-18T12:17:25.000Z</time>
      </trkpt>
      <trkpt lat="47.16281" lon="-1.62642">
        <ele>71</ele>
        <time>2021-09-18T12:17:27.000Z</time>
      </trkpt>
      <trkpt lat="47.16283" lon="-1.62626">
        <ele>71</ele>
        <time>2021-09-18T12:17:29.000Z</time>
      </trkpt>
      <trkpt lat="47.16287" lon="-1.6261">
        <ele>71</ele>
        <time>2021-09-18T12:17:31.000Z</time>
      </trkpt>
      <trkpt lat="47.16291" lon="-1.62595">
        <ele>72</ele>
        <time>2021-09-18T12:17:33.000Z</time>
      </trkpt>
      <trkpt lat="47.16298" lon="-1.62581">
        <ele>72</ele>
        <time>2021-09-18T12:17:35.000Z</time>
      </trkpt>
      <trkpt lat="47.16307" lon="-1.62572">
        <ele>71</ele>
        <time>2021-09-18T12:17:37.000Z</time>
      </trkpt>
      <trkpt lat="47.16318" lon="-1.62568">
        <ele>71</ele>
        <time>2021-09-18T12:17:39.000Z</time>
      </trkpt>
      <trkpt lat="47.16329" lon="-1.62569">
        <ele>71</ele>
        <time>2021-09-18T12:17:41.000Z</time>
      </trkpt>
      <trkpt lat="47.16341" lon="-1.62575">
        <ele>71</ele>
        <time>2021-09-18T12:17:43.000Z</time>
      </trkpt>
      <trkpt lat="47.16353" lon="-1.62579">
        <ele>71</ele>
        <time>2021-09-18T12:17:45.000Z</time>
      </trkpt>
      <trkpt lat="47.16365" lon="-1.62583">
        <ele>72</ele>
        <time>2021-09-18T12:17:47.000Z</time>
      </trkpt>
      <trkpt lat="47.16377" lon="-1.62584">
        <ele>73</ele>
        <time>2021-09-18T12:17:49.000Z</time>
      </trkpt>
      <trkpt lat="47.16388" lon="-1.62581">
        <ele>73</ele>
        <time>2021-09-18T12:17:51.000Z</time>
      </trkpt>
      <trkpt lat="47.16399" lon="-1.62575">
        <ele>73</ele>
        <time>2021-09-18T12:17:53.000Z</time>
      </trkpt>
      <trkpt lat="47.1641" lon="-1.62567">
        <ele>73</ele>
        <time>2021-09-18T12:17:55.000Z</time>
      </trkpt>
      <trkpt lat="47.16419" lon="-1.62557">
        <ele>74</ele>
        <time>2021-09-18T12:17:57.000Z</time>
      </trkpt>
      <trkpt lat="47.16429" lon="-1.62547">
        <ele>73</ele>
        <time>2021-09-18T12:17:59.000Z</time>
      </trkpt>
      <trkpt lat="47.16439" lon="-1.6254">
        <ele>74</ele>
        <time>2021-09-18T12:18:01.000Z</time>
      </trkpt>
      <trkpt lat="47.1645" lon="-1.6254">
        <ele>74</ele>
        <time>2021-09-18T12:18:03.000Z</time>
      </trkpt>
      <trkpt lat="47.16461" lon="-1.62544">
        <ele>74</ele>
        <time>2021-09-18T12:18:05.000Z</time>
      </trkpt>
      <trkpt lat="47.16471" lon="-1.62547">
        <ele>74</ele>
        <time>2021-09-18T12:18:07.000Z</time>
      </trkpt>
      <trkpt lat="47.16482" lon="-1.6255">
        <ele>74</ele>
        <time>2021-09-18T12:18:09.000Z</time>
      </trkpt>
      <trkpt lat="47.16493" lon="-1.62554">
        <ele>74</ele>
        <time>2021-09-18T12:18:11.000Z</time>
      </trkpt>
      <trkpt lat="47.16505" lon="-1.62558">
        <ele>74</ele>
        <time>2021-09-18T12:18:13.000Z</time>
      </trkpt>
      <trkpt lat="47.16517" lon="-1.62561">
        <ele>74</ele>
        <time>2021-09-18T12:18:15.000Z</time>
      </trkpt>
      <trkpt lat="47.16529" lon="-1.62564">
        <ele>74</ele>
        <time>2021-09-18T12:18:17.000Z</time>
      </trkpt>
      <trkpt lat="47.1654" lon="-1.6256">
        <ele>74</ele>
        <time>2021-09-18T12:18:19.000Z</time>
      </trkpt>
      <trkpt lat="47.1655" lon="-1.6255">
        <ele>74</ele>
        <time>2021-09-18T12:18:21.000Z</time>
      </trkpt>
      <trkpt lat="47.16559" lon="-1.62537">
        <ele>74</ele>
        <time>2021-09-18T12:18:23.000Z</time>
      </trkpt>
      <trkpt lat="47.16567" lon="-1.62523">
        <ele>74</ele>
        <time>2021-09-18T12:18:25.000Z</time>
      </trkpt>
      <trkpt lat="47.16574" lon="-1.62505">
        <ele>74</ele>
        <time>2021-09-18T12:18:27.000Z</time>
      </trkpt>
      <trkpt lat="47.16582" lon="-1.62488">
        <ele>74</ele>
        <time>2021-09-18T12:18:29.000Z</time>
      </trkpt>
      <trkpt lat="47.16589" lon="-1.6247">
        <ele>73</ele>
        <time>2021-09-18T12:18:31.000Z</time>
      </trkpt>
      <trkpt lat="47.16596" lon="-1.62452">
        <ele>73</ele>
        <time>2021-09-18T12:18:33.000Z</time>
      </trkpt>
      <trkpt lat="47.16604" lon="-1.62435">
        <ele>72</ele>
        <time>2021-09-18T12:18:35.000Z</time>
      </trkpt>
      <trkpt lat="47.16613" lon="-1.62417">
        <ele>72</ele>
        <time>2021-09-18T12:18:37.000Z</time>
      </trkpt>
      <trkpt lat="47.16623" lon="-1.62401">
        <ele>71</ele>
        <time>2021-09-18T12:18:39.000Z</time>
      </trkpt>
      <trkpt lat="47.16633" lon="-1.62386">
        <ele>71</ele>
        <time>2021-09-18T12:18:41.000Z</time>
      </trkpt>
      <trkpt lat="47.16645" lon="-1.62372">
        <ele>70</ele>
        <time>2021-09-18T12:18:43.000Z</time>
      </trkpt>
      <trkpt lat="47.16658" lon="-1.62362">
        <ele>70</ele>
        <time>2021-09-18T12:18:45.000Z</time>
      </trkpt>
      <trkpt lat="47.16673" lon="-1.62358">
        <ele>70</ele>
        <time>2021-09-18T12:18:47.000Z</time>
      </trkpt>
      <trkpt lat="47.16688" lon="-1.62361">
        <ele>70</ele>
        <time>2021-09-18T12:18:49.000Z</time>
      </trkpt>
      <trkpt lat="47.16703" lon="-1.62371">
        <ele>70</ele>
        <time>2021-09-18T12:18:51.000Z</time>
      </trkpt>
      <trkpt lat="47.16714" lon="-1.62386">
        <ele>70</ele>
        <time>2021-09-18T12:18:53.000Z</time>
      </trkpt>
      <trkpt lat="47.16722" lon="-1.62401">
        <ele>70</ele>
        <time>2021-09-18T12:18:55.000Z</time>
      </trkpt>
      <trkpt lat="47.16731" lon="-1.62412">
        <ele>70</ele>
        <time>2021-09-18T12:18:57.000Z</time>
      </trkpt>
      <trkpt lat="47.1673" lon="-1.62427">
        <ele>70</ele>
        <time>2021-09-18T12:18:59.000Z</time>
      </trkpt>
      <trkpt lat="47.16726" lon="-1.62444">
        <ele>70</ele>
        <time>2021-09-18T12:19:01.000Z</time>
      </trkpt>
      <trkpt lat="47.16722" lon="-1.62462">
        <ele>69</ele>
        <time>2021-09-18T12:19:03.000Z</time>
      </trkpt>
      <trkpt lat="47.16718" lon="-1.62479">
        <ele>69</ele>
        <time>2021-09-18T12:19:05.000Z</time>
      </trkpt>
      <trkpt lat="47.1672" lon="-1.62493">
        <ele>70</ele>
        <time>2021-09-18T12:19:07.000Z</time>
      </trkpt>
      <trkpt lat="47.16732" lon="-1.62498">
        <ele>70</ele>
        <time>2021-09-18T12:19:09.000Z</time>
      </trkpt>
      <trkpt lat="47.16743" lon="-1.62503">
        <ele>70</ele>
        <time>2021-09-18T12:19:11.000Z</time>
      </trkpt>
      <trkpt lat="47.16753" lon="-1.62509">
        <ele>69</ele>
        <time>2021-09-18T12:19:13.000Z</time>
      </trkpt>
      <trkpt lat="47.16764" lon="-1.62515">
        <ele>69</ele>
        <time>2021-09-18T12:19:15.000Z</time>
      </trkpt>
      <trkpt lat="47.16775" lon="-1.62522">
        <ele>70</ele>
        <time>2021-09-18T12:19:17.000Z</time>
      </trkpt>
      <trkpt lat="47.16786" lon="-1.62529">
        <ele>70</ele>
        <time>2021-09-18T12:19:19.000Z</time>
      </trkpt>
      <trkpt lat="47.16797" lon="-1.62536">
        <ele>70</ele>
        <time>2021-09-18T12:19:21.000Z</time>
      </trkpt>
      <trkpt lat="47.16806" lon="-1.62542">
        <ele>70</ele>
        <time>2021-09-18T12:19:23.000Z</time>
      </trkpt>
      <trkpt lat="47.16816" lon="-1.62551">
        <ele>69</ele>
        <time>2021-09-18T12:19:25.000Z</time>
      </trkpt>
      <trkpt lat="47.16825" lon="-1.62561">
        <ele>69</ele>
        <time>2021-09-18T12:19:27.000Z</time>
      </trkpt>
      <trkpt lat="47.16832" lon="-1.62573">
        <ele>69</ele>
        <time>2021-09-18T12:19:29.000Z</time>
      </trkpt>
      <trkpt lat="47.16831" lon="-1.62588">
        <ele>69</ele>
        <time>2021-09-18T12:19:31.000Z</time>
      </trkpt>
      <trkpt lat="47.16824" lon="-1.626">
        <ele>70</ele>
        <time>2021-09-18T12:19:33.000Z</time>
      </trkpt>
      <trkpt lat="47.16816" lon="-1.62612">
        <ele>70</ele>
        <time>2021-09-18T12:19:35.000Z</time>
      </trkpt>
      <trkpt lat="47.16809" lon="-1.62624">
        <ele>71</ele>
        <time>2021-09-18T12:19:37.000Z</time>
      </trkpt>
      <trkpt lat="47.16802" lon="-1.62635">
        <ele>71</ele>
        <time>2021-09-18T12:19:39.000Z</time>
      </trkpt>
      <trkpt lat="47.16795" lon="-1.62647">
        <ele>71</ele>
        <time>2021-09-18T12:19:41.000Z</time>
      </trkpt>
      <trkpt lat="47.16787" lon="-1.62661">
        <ele>71</ele>
        <time>2021-09-18T12:19:44.000Z</time>
      </trkpt>
      <trkpt lat="47.16778" lon="-1.62653">
        <ele>71</ele>
        <time>2021-09-18T12:19:48.000Z</time>
      </trkpt>
    </trkseg>
  </trk>
</gpx>